<?xml version="1.0"?>
<gpx
 version="1.1"
 creator="Satmap Active 20"
 xmlns:xsi="http://www.w3.org/2001/XMLSchema-instance"
 xmlns="http://www.topografix.com/GPX/1/1"
 xmlns:satmap="http://www.satmap.com/updates/xmlschemas/GpxExtensions/v2/GpxExtensions_v2.xsd"
 xsi:schemaLocation="http://www.topografix.com/GPX/1/1 http://www.topografix.com/GPX/1/1/gpx.xsd">
<metadata>
<time>2021-10-01T09:46:12Z</time>
<extensions>
<satmap:platform>43</satmap:platform>
<satmap:software version="3.12.831">SM15.exe</satmap:software>
<satmap:username>Jim Grant</satmap:username>
<satmap:network_ids>
<satmap:network_id type="wifi">00-23-A7-EC-D5-78</satmap:network_id>
<satmap:network_id type="bluetooth">80-BB-EB-D7-5B-7C</satmap:network_id>
</satmap:network_ids>
<satmap:snap_type>simple</satmap:snap_type>
</extensions>
</metadata>
<trk>
<name>2021-10-01_0946</name>
<desc>Track 1</desc>
<number>1</number>
<trkseg>
<trkpt lat="53.338949" lon="-1.947781"><ele>209</ele><time>2021-10-01T09:46:12Z</time><name>PT1</name></trkpt>
<trkpt lat="53.338962" lon="-1.947779"><ele>209</ele><time>2021-10-01T09:46:15Z</time><name>PT2</name></trkpt>
<trkpt lat="53.338971" lon="-1.947770"><ele>209</ele><time>2021-10-01T09:46:16Z</time><name>PT3</name></trkpt>
<trkpt lat="53.338977" lon="-1.947756"><ele>209</ele><time>2021-10-01T09:46:17Z</time><name>PT4</name></trkpt>
<trkpt lat="53.338981" lon="-1.947740"><ele>209</ele><time>2021-10-01T09:46:18Z</time><name>PT5</name></trkpt>
<trkpt lat="53.338984" lon="-1.947725"><ele>209</ele><time>2021-10-01T09:46:19Z</time><name>PT6</name></trkpt>
<trkpt lat="53.338987" lon="-1.947710"><ele>209</ele><time>2021-10-01T09:46:20Z</time><name>PT7</name></trkpt>
<trkpt lat="53.338991" lon="-1.947696"><ele>209</ele><time>2021-10-01T09:46:21Z</time><name>PT8</name></trkpt>
<trkpt lat="53.338995" lon="-1.947680"><ele>209</ele><time>2021-10-01T09:46:22Z</time><name>PT9</name></trkpt>
<trkpt lat="53.338998" lon="-1.947664"><ele>209</ele><time>2021-10-01T09:46:23Z</time><name>PT10</name></trkpt>
<trkpt lat="53.339002" lon="-1.947648"><ele>209</ele><time>2021-10-01T09:46:24Z</time><name>PT11</name></trkpt>
<trkpt lat="53.339005" lon="-1.947632"><ele>209</ele><time>2021-10-01T09:46:25Z</time><name>PT12</name></trkpt>
<trkpt lat="53.339009" lon="-1.947617"><ele>210</ele><time>2021-10-01T09:46:26Z</time><name>PT13</name></trkpt>
<trkpt lat="53.339014" lon="-1.947605"><ele>209</ele><time>2021-10-01T09:46:27Z</time><name>PT14</name></trkpt>
<trkpt lat="53.339020" lon="-1.947591"><ele>210</ele><time>2021-10-01T09:46:28Z</time><name>PT15</name></trkpt>
<trkpt lat="53.339027" lon="-1.947578"><ele>210</ele><time>2021-10-01T09:46:29Z</time><name>PT16</name></trkpt>
<trkpt lat="53.339036" lon="-1.947566"><ele>210</ele><time>2021-10-01T09:46:30Z</time><name>PT17</name></trkpt>
<trkpt lat="53.339044" lon="-1.947557"><ele>210</ele><time>2021-10-01T09:46:31Z</time><name>PT18</name></trkpt>
<trkpt lat="53.339055" lon="-1.947551"><ele>210</ele><time>2021-10-01T09:46:32Z</time><name>PT19</name></trkpt>
<trkpt lat="53.339066" lon="-1.947557"><ele>211</ele><time>2021-10-01T09:46:33Z</time><name>PT20</name></trkpt>
<trkpt lat="53.339077" lon="-1.947561"><ele>211</ele><time>2021-10-01T09:46:34Z</time><name>PT21</name></trkpt>
<trkpt lat="53.339086" lon="-1.947563"><ele>212</ele><time>2021-10-01T09:46:35Z</time><name>PT22</name></trkpt>
<trkpt lat="53.339097" lon="-1.947565"><ele>212</ele><time>2021-10-01T09:46:36Z</time><name>PT23</name></trkpt>
<trkpt lat="53.339106" lon="-1.947567"><ele>213</ele><time>2021-10-01T09:46:37Z</time><name>PT24</name></trkpt>
<trkpt lat="53.339120" lon="-1.947572"><ele>213</ele><time>2021-10-01T09:46:38Z</time><name>PT25</name></trkpt>
<trkpt lat="53.339133" lon="-1.947579"><ele>212</ele><time>2021-10-01T09:46:39Z</time><name>PT26</name></trkpt>
<trkpt lat="53.339144" lon="-1.947584"><ele>212</ele><time>2021-10-01T09:46:40Z</time><name>PT27</name></trkpt>
<trkpt lat="53.339157" lon="-1.947586"><ele>212</ele><time>2021-10-01T09:46:41Z</time><name>PT28</name></trkpt>
<trkpt lat="53.339174" lon="-1.947590"><ele>212</ele><time>2021-10-01T09:46:42Z</time><name>PT29</name></trkpt>
<trkpt lat="53.339191" lon="-1.947597"><ele>213</ele><time>2021-10-01T09:46:43Z</time><name>PT30</name></trkpt>
<trkpt lat="53.339201" lon="-1.947591"><ele>212</ele><time>2021-10-01T09:46:44Z</time><name>PT31</name></trkpt>
<trkpt lat="53.339212" lon="-1.947595"><ele>213</ele><time>2021-10-01T09:46:45Z</time><name>PT32</name></trkpt>
<trkpt lat="53.339223" lon="-1.947603"><ele>213</ele><time>2021-10-01T09:46:46Z</time><name>PT33</name></trkpt>
<trkpt lat="53.339232" lon="-1.947612"><ele>213</ele><time>2021-10-01T09:46:47Z</time><name>PT34</name></trkpt>
<trkpt lat="53.339241" lon="-1.947618"><ele>213</ele><time>2021-10-01T09:46:48Z</time><name>PT35</name></trkpt>
<trkpt lat="53.339247" lon="-1.947623"><ele>212</ele><time>2021-10-01T09:46:49Z</time><name>PT36</name></trkpt>
<trkpt lat="53.339253" lon="-1.947628"><ele>212</ele><time>2021-10-01T09:46:50Z</time><name>PT37</name></trkpt>
<trkpt lat="53.339261" lon="-1.947636"><ele>212</ele><time>2021-10-01T09:46:51Z</time><name>PT38</name></trkpt>
<trkpt lat="53.339274" lon="-1.947642"><ele>212</ele><time>2021-10-01T09:46:52Z</time><name>PT39</name></trkpt>
<trkpt lat="53.339285" lon="-1.947646"><ele>212</ele><time>2021-10-01T09:46:53Z</time><name>PT40</name></trkpt>
<trkpt lat="53.339295" lon="-1.947650"><ele>212</ele><time>2021-10-01T09:46:54Z</time><name>PT41</name></trkpt>
<trkpt lat="53.339303" lon="-1.947652"><ele>213</ele><time>2021-10-01T09:46:55Z</time><name>PT42</name></trkpt>
<trkpt lat="53.339310" lon="-1.947650"><ele>213</ele><time>2021-10-01T09:46:56Z</time><name>PT43</name></trkpt>
<trkpt lat="53.339312" lon="-1.947655"><ele>213</ele><time>2021-10-01T09:46:57Z</time><name>PT44</name></trkpt>
<trkpt lat="53.339319" lon="-1.947657"><ele>214</ele><time>2021-10-01T09:46:58Z</time><name>PT45</name></trkpt>
<trkpt lat="53.339328" lon="-1.947664"><ele>213</ele><time>2021-10-01T09:46:59Z</time><name>PT46</name></trkpt>
<trkpt lat="53.339340" lon="-1.947667"><ele>213</ele><time>2021-10-01T09:47:00Z</time><name>PT47</name></trkpt>
<trkpt lat="53.339353" lon="-1.947668"><ele>213</ele><time>2021-10-01T09:47:01Z</time><name>PT48</name></trkpt>
<trkpt lat="53.339360" lon="-1.947668"><ele>212</ele><time>2021-10-01T09:47:02Z</time><name>PT49</name></trkpt>
<trkpt lat="53.339368" lon="-1.947668"><ele>213</ele><time>2021-10-01T09:47:03Z</time><name>PT50</name></trkpt>
<trkpt lat="53.339372" lon="-1.947677"><ele>213</ele><time>2021-10-01T09:47:04Z</time><name>PT51</name></trkpt>
<trkpt lat="53.339373" lon="-1.947692"><ele>214</ele><time>2021-10-01T09:47:05Z</time><name>PT52</name></trkpt>
<trkpt lat="53.339377" lon="-1.947717"><ele>214</ele><time>2021-10-01T09:47:06Z</time><name>PT53</name></trkpt>
<trkpt lat="53.339384" lon="-1.947746"><ele>214</ele><time>2021-10-01T09:47:07Z</time><name>PT54</name></trkpt>
<trkpt lat="53.339384" lon="-1.947764"><ele>214</ele><time>2021-10-01T09:47:08Z</time><name>PT55</name></trkpt>
<trkpt lat="53.339387" lon="-1.947775"><ele>213</ele><time>2021-10-01T09:47:09Z</time><name>PT56</name></trkpt>
<trkpt lat="53.339393" lon="-1.947792"><ele>212</ele><time>2021-10-01T09:47:10Z</time><name>PT57</name></trkpt>
<trkpt lat="53.339396" lon="-1.947806"><ele>212</ele><time>2021-10-01T09:47:11Z</time><name>PT58</name></trkpt>
<trkpt lat="53.339396" lon="-1.947825"><ele>212</ele><time>2021-10-01T09:47:12Z</time><name>PT59</name></trkpt>
<trkpt lat="53.339391" lon="-1.947843"><ele>213</ele><time>2021-10-01T09:47:13Z</time><name>PT60</name></trkpt>
<trkpt lat="53.339394" lon="-1.947858"><ele>213</ele><time>2021-10-01T09:47:14Z</time><name>PT61</name></trkpt>
<trkpt lat="53.339400" lon="-1.947871"><ele>215</ele><time>2021-10-01T09:47:15Z</time><name>PT62</name></trkpt>
<trkpt lat="53.339399" lon="-1.947882"><ele>215</ele><time>2021-10-01T09:47:16Z</time><name>PT63</name></trkpt>
<trkpt lat="53.339401" lon="-1.947889"><ele>215</ele><time>2021-10-01T09:47:17Z</time><name>PT64</name></trkpt>
<trkpt lat="53.339403" lon="-1.947898"><ele>215</ele><time>2021-10-01T09:47:18Z</time><name>PT65</name></trkpt>
<trkpt lat="53.339401" lon="-1.947901"><ele>215</ele><time>2021-10-01T09:47:19Z</time><name>PT66</name></trkpt>
<trkpt lat="53.339402" lon="-1.947910"><ele>215</ele><time>2021-10-01T09:47:20Z</time><name>PT67</name></trkpt>
<trkpt lat="53.339403" lon="-1.947924"><ele>216</ele><time>2021-10-01T09:47:21Z</time><name>PT68</name></trkpt>
<trkpt lat="53.339402" lon="-1.947939"><ele>216</ele><time>2021-10-01T09:47:22Z</time><name>PT69</name></trkpt>
<trkpt lat="53.339401" lon="-1.947944"><ele>216</ele><time>2021-10-01T09:47:23Z</time><name>PT70</name></trkpt>
<trkpt lat="53.339400" lon="-1.947944"><ele>215</ele><time>2021-10-01T09:47:24Z</time><name>PT71</name></trkpt>
<trkpt lat="53.339400" lon="-1.947957"><ele>215</ele><time>2021-10-01T09:47:25Z</time><name>PT72</name></trkpt>
<trkpt lat="53.339401" lon="-1.947967"><ele>215</ele><time>2021-10-01T09:47:26Z</time><name>PT73</name></trkpt>
<trkpt lat="53.339399" lon="-1.947979"><ele>216</ele><time>2021-10-01T09:47:27Z</time><name>PT74</name></trkpt>
<trkpt lat="53.339399" lon="-1.947993"><ele>216</ele><time>2021-10-01T09:47:28Z</time><name>PT75</name></trkpt>
<trkpt lat="53.339400" lon="-1.948008"><ele>216</ele><time>2021-10-01T09:47:29Z</time><name>PT76</name></trkpt>
<trkpt lat="53.339407" lon="-1.948038"><ele>217</ele><time>2021-10-01T09:47:30Z</time><name>PT77</name></trkpt>
<trkpt lat="53.339408" lon="-1.948049"><ele>217</ele><time>2021-10-01T09:47:31Z</time><name>PT78</name></trkpt>
<trkpt lat="53.339408" lon="-1.948057"><ele>217</ele><time>2021-10-01T09:47:32Z</time><name>PT79</name></trkpt>
<trkpt lat="53.339408" lon="-1.948071"><ele>217</ele><time>2021-10-01T09:47:33Z</time><name>PT80</name></trkpt>
<trkpt lat="53.339411" lon="-1.948087"><ele>218</ele><time>2021-10-01T09:47:34Z</time><name>PT81</name></trkpt>
<trkpt lat="53.339412" lon="-1.948104"><ele>218</ele><time>2021-10-01T09:47:35Z</time><name>PT82</name></trkpt>
<trkpt lat="53.339416" lon="-1.948113"><ele>218</ele><time>2021-10-01T09:47:36Z</time><name>PT83</name></trkpt>
<trkpt lat="53.339419" lon="-1.948126"><ele>219</ele><time>2021-10-01T09:47:37Z</time><name>PT84</name></trkpt>
<trkpt lat="53.339424" lon="-1.948141"><ele>218</ele><time>2021-10-01T09:47:38Z</time><name>PT85</name></trkpt>
<trkpt lat="53.339426" lon="-1.948155"><ele>218</ele><time>2021-10-01T09:47:39Z</time><name>PT86</name></trkpt>
<trkpt lat="53.339428" lon="-1.948176"><ele>219</ele><time>2021-10-01T09:47:40Z</time><name>PT87</name></trkpt>
<trkpt lat="53.339430" lon="-1.948190"><ele>219</ele><time>2021-10-01T09:47:41Z</time><name>PT88</name></trkpt>
<trkpt lat="53.339434" lon="-1.948200"><ele>219</ele><time>2021-10-01T09:47:42Z</time><name>PT89</name></trkpt>
<trkpt lat="53.339440" lon="-1.948203"><ele>218</ele><time>2021-10-01T09:47:43Z</time><name>PT90</name></trkpt>
<trkpt lat="53.339442" lon="-1.948212"><ele>218</ele><time>2021-10-01T09:47:44Z</time><name>PT91</name></trkpt>
<trkpt lat="53.339443" lon="-1.948218"><ele>217</ele><time>2021-10-01T09:47:45Z</time><name>PT92</name></trkpt>
<trkpt lat="53.339443" lon="-1.948230"><ele>218</ele><time>2021-10-01T09:47:46Z</time><name>PT93</name></trkpt>
<trkpt lat="53.339448" lon="-1.948230"><ele>219</ele><time>2021-10-01T09:47:47Z</time><name>PT94</name></trkpt>
<trkpt lat="53.339454" lon="-1.948248"><ele>219</ele><time>2021-10-01T09:47:48Z</time><name>PT95</name></trkpt>
<trkpt lat="53.339457" lon="-1.948258"><ele>219</ele><time>2021-10-01T09:47:49Z</time><name>PT96</name></trkpt>
<trkpt lat="53.339461" lon="-1.948263"><ele>220</ele><time>2021-10-01T09:47:50Z</time><name>PT97</name></trkpt>
<trkpt lat="53.339464" lon="-1.948270"><ele>220</ele><time>2021-10-01T09:47:51Z</time><name>PT98</name></trkpt>
<trkpt lat="53.339465" lon="-1.948277"><ele>220</ele><time>2021-10-01T09:47:52Z</time><name>PT99</name></trkpt>
<trkpt lat="53.339467" lon="-1.948281"><ele>221</ele><time>2021-10-01T09:47:53Z</time><name>PT100</name></trkpt>
<trkpt lat="53.339473" lon="-1.948282"><ele>221</ele><time>2021-10-01T09:47:54Z</time><name>PT101</name></trkpt>
<trkpt lat="53.339477" lon="-1.948287"><ele>218</ele><time>2021-10-01T09:47:55Z</time><name>PT102</name></trkpt>
<trkpt lat="53.339480" lon="-1.948285"><ele>218</ele><time>2021-10-01T09:47:56Z</time><name>PT103</name></trkpt>
<trkpt lat="53.339481" lon="-1.948281"><ele>218</ele><time>2021-10-01T09:47:57Z</time><name>PT104</name></trkpt>
<trkpt lat="53.339486" lon="-1.948271"><ele>217</ele><time>2021-10-01T09:47:58Z</time><name>PT105</name></trkpt>
<trkpt lat="53.339494" lon="-1.948269"><ele>217</ele><time>2021-10-01T09:47:59Z</time><name>PT106</name></trkpt>
<trkpt lat="53.339498" lon="-1.948279"><ele>218</ele><time>2021-10-01T09:48:00Z</time><name>PT107</name></trkpt>
<trkpt lat="53.339503" lon="-1.948277"><ele>219</ele><time>2021-10-01T09:48:01Z</time><name>PT108</name></trkpt>
<trkpt lat="53.339505" lon="-1.948270"><ele>219</ele><time>2021-10-01T09:48:02Z</time><name>PT109</name></trkpt>
<trkpt lat="53.339508" lon="-1.948265"><ele>219</ele><time>2021-10-01T09:48:03Z</time><name>PT110</name></trkpt>
<trkpt lat="53.339512" lon="-1.948260"><ele>220</ele><time>2021-10-01T09:48:04Z</time><name>PT111</name></trkpt>
<trkpt lat="53.339521" lon="-1.948248"><ele>219</ele><time>2021-10-01T09:48:05Z</time><name>PT112</name></trkpt>
<trkpt lat="53.339528" lon="-1.948238"><ele>218</ele><time>2021-10-01T09:48:06Z</time><name>PT113</name></trkpt>
<trkpt lat="53.339531" lon="-1.948229"><ele>218</ele><time>2021-10-01T09:48:07Z</time><name>PT114</name></trkpt>
<trkpt lat="53.339535" lon="-1.948222"><ele>218</ele><time>2021-10-01T09:48:08Z</time><name>PT115</name></trkpt>
<trkpt lat="53.339537" lon="-1.948217"><ele>217</ele><time>2021-10-01T09:48:09Z</time><name>PT116</name></trkpt>
<trkpt lat="53.339539" lon="-1.948223"><ele>218</ele><time>2021-10-01T09:48:10Z</time><name>PT117</name></trkpt>
<trkpt lat="53.339544" lon="-1.948222"><ele>218</ele><time>2021-10-01T09:48:11Z</time><name>PT118</name></trkpt>
<trkpt lat="53.339550" lon="-1.948220"><ele>219</ele><time>2021-10-01T09:48:12Z</time><name>PT119</name></trkpt>
<trkpt lat="53.339559" lon="-1.948218"><ele>219</ele><time>2021-10-01T09:48:13Z</time><name>PT120</name></trkpt>
<trkpt lat="53.339564" lon="-1.948220"><ele>219</ele><time>2021-10-01T09:48:14Z</time><name>PT121</name></trkpt>
<trkpt lat="53.339567" lon="-1.948222"><ele>220</ele><time>2021-10-01T09:48:15Z</time><name>PT122</name></trkpt>
<trkpt lat="53.339574" lon="-1.948223"><ele>220</ele><time>2021-10-01T09:48:16Z</time><name>PT123</name></trkpt>
<trkpt lat="53.339580" lon="-1.948213"><ele>219</ele><time>2021-10-01T09:48:19Z</time><name>PT124</name></trkpt>
<trkpt lat="53.339584" lon="-1.948206"><ele>219</ele><time>2021-10-01T09:48:20Z</time><name>PT125</name></trkpt>
<trkpt lat="53.339590" lon="-1.948200"><ele>219</ele><time>2021-10-01T09:48:21Z</time><name>PT126</name></trkpt>
<trkpt lat="53.339598" lon="-1.948204"><ele>220</ele><time>2021-10-01T09:48:22Z</time><name>PT127</name></trkpt>
<trkpt lat="53.339612" lon="-1.948193"><ele>220</ele><time>2021-10-01T09:48:23Z</time><name>PT128</name></trkpt>
<trkpt lat="53.339620" lon="-1.948180"><ele>221</ele><time>2021-10-01T09:48:24Z</time><name>PT129</name></trkpt>
<trkpt lat="53.339631" lon="-1.948170"><ele>221</ele><time>2021-10-01T09:48:25Z</time><name>PT130</name></trkpt>
<trkpt lat="53.339648" lon="-1.948172"><ele>221</ele><time>2021-10-01T09:48:26Z</time><name>PT131</name></trkpt>
<trkpt lat="53.339657" lon="-1.948167"><ele>221</ele><time>2021-10-01T09:48:27Z</time><name>PT132</name></trkpt>
<trkpt lat="53.339682" lon="-1.948173"><ele>220</ele><time>2021-10-01T09:48:28Z</time><name>PT133</name></trkpt>
<trkpt lat="53.339735" lon="-1.948126"><ele>218</ele><time>2021-10-01T09:48:32Z</time><name>PT134</name></trkpt>
<trkpt lat="53.339774" lon="-1.948112"><ele>218</ele><time>2021-10-01T09:48:36Z</time><name>PT135</name></trkpt>
<trkpt lat="53.339813" lon="-1.948082"><ele>216</ele><time>2021-10-01T09:48:40Z</time><name>PT136</name></trkpt>
<trkpt lat="53.339854" lon="-1.948053"><ele>219</ele><time>2021-10-01T09:48:44Z</time><name>PT137</name></trkpt>
<trkpt lat="53.339882" lon="-1.948033"><ele>219</ele><time>2021-10-01T09:48:47Z</time><name>PT138</name></trkpt>
<trkpt lat="53.339917" lon="-1.948001"><ele>219</ele><time>2021-10-01T09:48:51Z</time><name>PT139</name></trkpt>
<trkpt lat="53.339934" lon="-1.947989"><ele>221</ele><time>2021-10-01T09:48:54Z</time><name>PT140</name></trkpt>
<trkpt lat="53.339968" lon="-1.947955"><ele>221</ele><time>2021-10-01T09:48:58Z</time><name>PT141</name></trkpt>
<trkpt lat="53.340010" lon="-1.947948"><ele>224</ele><time>2021-10-01T09:49:02Z</time><name>PT142</name></trkpt>
<trkpt lat="53.340046" lon="-1.947927"><ele>225</ele><time>2021-10-01T09:49:06Z</time><name>PT143</name></trkpt>
<trkpt lat="53.340064" lon="-1.947914"><ele>224</ele><time>2021-10-01T09:49:10Z</time><name>PT144</name></trkpt>
<trkpt lat="53.340094" lon="-1.947901"><ele>225</ele><time>2021-10-01T09:49:13Z</time><name>PT145</name></trkpt>
<trkpt lat="53.340122" lon="-1.947896"><ele>226</ele><time>2021-10-01T09:49:17Z</time><name>PT146</name></trkpt>
<trkpt lat="53.340147" lon="-1.947873"><ele>224</ele><time>2021-10-01T09:49:21Z</time><name>PT147</name></trkpt>
<trkpt lat="53.340190" lon="-1.947841"><ele>223</ele><time>2021-10-01T09:49:25Z</time><name>PT148</name></trkpt>
<trkpt lat="53.340223" lon="-1.947830"><ele>224</ele><time>2021-10-01T09:49:29Z</time><name>PT149</name></trkpt>
<trkpt lat="53.340251" lon="-1.947796"><ele>224</ele><time>2021-10-01T09:49:32Z</time><name>PT150</name></trkpt>
<trkpt lat="53.340284" lon="-1.947753"><ele>223</ele><time>2021-10-01T09:49:36Z</time><name>PT151</name></trkpt>
<trkpt lat="53.340313" lon="-1.947713"><ele>223</ele><time>2021-10-01T09:49:40Z</time><name>PT152</name></trkpt>
<trkpt lat="53.340345" lon="-1.947678"><ele>221</ele><time>2021-10-01T09:49:44Z</time><name>PT153</name></trkpt>
<trkpt lat="53.340366" lon="-1.947639"><ele>221</ele><time>2021-10-01T09:49:48Z</time><name>PT154</name></trkpt>
<trkpt lat="53.340392" lon="-1.947610"><ele>221</ele><time>2021-10-01T09:49:51Z</time><name>PT155</name></trkpt>
<trkpt lat="53.340428" lon="-1.947569"><ele>222</ele><time>2021-10-01T09:49:55Z</time><name>PT156</name></trkpt>
<trkpt lat="53.340475" lon="-1.947520"><ele>223</ele><time>2021-10-01T09:49:59Z</time><name>PT157</name></trkpt>
<trkpt lat="53.340513" lon="-1.947514"><ele>227</ele><time>2021-10-01T09:50:02Z</time><name>PT158</name></trkpt>
<trkpt lat="53.340522" lon="-1.947521"><ele>228</ele><time>2021-10-01T09:50:05Z</time><name>PT159</name></trkpt>
<trkpt lat="53.340537" lon="-1.947483"><ele>226</ele><time>2021-10-01T09:50:21Z</time><name>PT160</name></trkpt>
<trkpt lat="53.340570" lon="-1.947454"><ele>225</ele><time>2021-10-01T09:50:25Z</time><name>PT161</name></trkpt>
<trkpt lat="53.340596" lon="-1.947441"><ele>226</ele><time>2021-10-01T09:50:29Z</time><name>PT162</name></trkpt>
<trkpt lat="53.340616" lon="-1.947409"><ele>225</ele><time>2021-10-01T09:50:32Z</time><name>PT163</name></trkpt>
<trkpt lat="53.340646" lon="-1.947387"><ele>222</ele><time>2021-10-01T09:50:36Z</time><name>PT164</name></trkpt>
<trkpt lat="53.340660" lon="-1.947374"><ele>223</ele><time>2021-10-01T09:50:39Z</time><name>PT165</name></trkpt>
<trkpt lat="53.340690" lon="-1.947345"><ele>225</ele><time>2021-10-01T09:50:43Z</time><name>PT166</name></trkpt>
<trkpt lat="53.340692" lon="-1.947331"><ele>226</ele><time>2021-10-01T09:50:44Z</time><name>PT167</name></trkpt>
<trkpt lat="53.340697" lon="-1.947319"><ele>225</ele><time>2021-10-01T09:50:45Z</time><name>PT168</name></trkpt>
<trkpt lat="53.340707" lon="-1.947311"><ele>224</ele><time>2021-10-01T09:50:46Z</time><name>PT169</name></trkpt>
<trkpt lat="53.340711" lon="-1.947301"><ele>224</ele><time>2021-10-01T09:50:47Z</time><name>PT170</name></trkpt>
<trkpt lat="53.340717" lon="-1.947291"><ele>224</ele><time>2021-10-01T09:50:48Z</time><name>PT171</name></trkpt>
<trkpt lat="53.340731" lon="-1.947284"><ele>225</ele><time>2021-10-01T09:50:49Z</time><name>PT172</name></trkpt>
<trkpt lat="53.340734" lon="-1.947279"><ele>224</ele><time>2021-10-01T09:50:50Z</time><name>PT173</name></trkpt>
<trkpt lat="53.340746" lon="-1.947276"><ele>225</ele><time>2021-10-01T09:50:51Z</time><name>PT174</name></trkpt>
<trkpt lat="53.340752" lon="-1.947268"><ele>223</ele><time>2021-10-01T09:50:52Z</time><name>PT175</name></trkpt>
<trkpt lat="53.340761" lon="-1.947261"><ele>223</ele><time>2021-10-01T09:50:53Z</time><name>PT176</name></trkpt>
<trkpt lat="53.340771" lon="-1.947261"><ele>223</ele><time>2021-10-01T09:50:54Z</time><name>PT177</name></trkpt>
<trkpt lat="53.340780" lon="-1.947260"><ele>223</ele><time>2021-10-01T09:50:55Z</time><name>PT178</name></trkpt>
<trkpt lat="53.340784" lon="-1.947255"><ele>223</ele><time>2021-10-01T09:50:56Z</time><name>PT179</name></trkpt>
<trkpt lat="53.340796" lon="-1.947247"><ele>222</ele><time>2021-10-01T09:50:57Z</time><name>PT180</name></trkpt>
<trkpt lat="53.340810" lon="-1.947234"><ele>220</ele><time>2021-10-01T09:50:58Z</time><name>PT181</name></trkpt>
<trkpt lat="53.340811" lon="-1.947226"><ele>219</ele><time>2021-10-01T09:50:59Z</time><name>PT182</name></trkpt>
<trkpt lat="53.340816" lon="-1.947219"><ele>218</ele><time>2021-10-01T09:51:00Z</time><name>PT183</name></trkpt>
<trkpt lat="53.340834" lon="-1.947208"><ele>217</ele><time>2021-10-01T09:51:01Z</time><name>PT184</name></trkpt>
<trkpt lat="53.340839" lon="-1.947198"><ele>216</ele><time>2021-10-01T09:51:02Z</time><name>PT185</name></trkpt>
<trkpt lat="53.340842" lon="-1.947187"><ele>215</ele><time>2021-10-01T09:51:03Z</time><name>PT186</name></trkpt>
<trkpt lat="53.340848" lon="-1.947183"><ele>214</ele><time>2021-10-01T09:51:04Z</time><name>PT187</name></trkpt>
<trkpt lat="53.340863" lon="-1.947176"><ele>215</ele><time>2021-10-01T09:51:05Z</time><name>PT188</name></trkpt>
<trkpt lat="53.340875" lon="-1.947139"><ele>216</ele><time>2021-10-01T09:51:06Z</time><name>PT189</name></trkpt>
<trkpt lat="53.340880" lon="-1.947128"><ele>216</ele><time>2021-10-01T09:51:07Z</time><name>PT190</name></trkpt>
<trkpt lat="53.340886" lon="-1.947124"><ele>216</ele><time>2021-10-01T09:51:08Z</time><name>PT191</name></trkpt>
<trkpt lat="53.340893" lon="-1.947113"><ele>215</ele><time>2021-10-01T09:51:09Z</time><name>PT192</name></trkpt>
<trkpt lat="53.340904" lon="-1.947106"><ele>216</ele><time>2021-10-01T09:51:10Z</time><name>PT193</name></trkpt>
<trkpt lat="53.340914" lon="-1.947105"><ele>216</ele><time>2021-10-01T09:51:11Z</time><name>PT194</name></trkpt>
<trkpt lat="53.340920" lon="-1.947094"><ele>217</ele><time>2021-10-01T09:51:12Z</time><name>PT195</name></trkpt>
<trkpt lat="53.340925" lon="-1.947087"><ele>218</ele><time>2021-10-01T09:51:13Z</time><name>PT196</name></trkpt>
<trkpt lat="53.340928" lon="-1.947087"><ele>217</ele><time>2021-10-01T09:51:14Z</time><name>PT197</name></trkpt>
<trkpt lat="53.340938" lon="-1.947083"><ele>217</ele><time>2021-10-01T09:51:15Z</time><name>PT198</name></trkpt>
<trkpt lat="53.340951" lon="-1.947074"><ele>218</ele><time>2021-10-01T09:51:16Z</time><name>PT199</name></trkpt>
<trkpt lat="53.340956" lon="-1.947048"><ele>220</ele><time>2021-10-01T09:51:17Z</time><name>PT200</name></trkpt>
<trkpt lat="53.340961" lon="-1.947023"><ele>222</ele><time>2021-10-01T09:51:18Z</time><name>PT201</name></trkpt>
<trkpt lat="53.340967" lon="-1.947014"><ele>221</ele><time>2021-10-01T09:51:19Z</time><name>PT202</name></trkpt>
<trkpt lat="53.340976" lon="-1.947007"><ele>221</ele><time>2021-10-01T09:51:20Z</time><name>PT203</name></trkpt>
<trkpt lat="53.340984" lon="-1.946991"><ele>222</ele><time>2021-10-01T09:51:21Z</time><name>PT204</name></trkpt>
<trkpt lat="53.340994" lon="-1.946976"><ele>223</ele><time>2021-10-01T09:51:22Z</time><name>PT205</name></trkpt>
<trkpt lat="53.340998" lon="-1.946960"><ele>223</ele><time>2021-10-01T09:51:23Z</time><name>PT206</name></trkpt>
<trkpt lat="53.341008" lon="-1.946948"><ele>223</ele><time>2021-10-01T09:51:24Z</time><name>PT207</name></trkpt>
<trkpt lat="53.341015" lon="-1.946924"><ele>223</ele><time>2021-10-01T09:51:25Z</time><name>PT208</name></trkpt>
<trkpt lat="53.341026" lon="-1.946911"><ele>225</ele><time>2021-10-01T09:51:26Z</time><name>PT209</name></trkpt>
<trkpt lat="53.341035" lon="-1.946895"><ele>226</ele><time>2021-10-01T09:51:27Z</time><name>PT210</name></trkpt>
<trkpt lat="53.341042" lon="-1.946878"><ele>227</ele><time>2021-10-01T09:51:28Z</time><name>PT211</name></trkpt>
<trkpt lat="53.341046" lon="-1.946865"><ele>227</ele><time>2021-10-01T09:51:29Z</time><name>PT212</name></trkpt>
<trkpt lat="53.341048" lon="-1.946857"><ele>227</ele><time>2021-10-01T09:51:30Z</time><name>PT213</name></trkpt>
<trkpt lat="53.341060" lon="-1.946847"><ele>228</ele><time>2021-10-01T09:51:31Z</time><name>PT214</name></trkpt>
<trkpt lat="53.341066" lon="-1.946841"><ele>229</ele><time>2021-10-01T09:51:32Z</time><name>PT215</name></trkpt>
<trkpt lat="53.341066" lon="-1.946826"><ele>229</ele><time>2021-10-01T09:51:33Z</time><name>PT216</name></trkpt>
<trkpt lat="53.341066" lon="-1.946819"><ele>229</ele><time>2021-10-01T09:51:34Z</time><name>PT217</name></trkpt>
<trkpt lat="53.341067" lon="-1.946807"><ele>230</ele><time>2021-10-01T09:51:35Z</time><name>PT218</name></trkpt>
<trkpt lat="53.341078" lon="-1.946784"><ele>229</ele><time>2021-10-01T09:51:37Z</time><name>PT219</name></trkpt>
<trkpt lat="53.341090" lon="-1.946771"><ele>228</ele><time>2021-10-01T09:51:38Z</time><name>PT220</name></trkpt>
<trkpt lat="53.341108" lon="-1.946757"><ele>229</ele><time>2021-10-01T09:51:39Z</time><name>PT221</name></trkpt>
<trkpt lat="53.341126" lon="-1.946745"><ele>229</ele><time>2021-10-01T09:51:40Z</time><name>PT222</name></trkpt>
<trkpt lat="53.341142" lon="-1.946725"><ele>229</ele><time>2021-10-01T09:51:41Z</time><name>PT223</name></trkpt>
<trkpt lat="53.341153" lon="-1.946719"><ele>229</ele><time>2021-10-01T09:51:42Z</time><name>PT224</name></trkpt>
<trkpt lat="53.341162" lon="-1.946715"><ele>229</ele><time>2021-10-01T09:51:43Z</time><name>PT225</name></trkpt>
<trkpt lat="53.341172" lon="-1.946705"><ele>229</ele><time>2021-10-01T09:51:44Z</time><name>PT226</name></trkpt>
<trkpt lat="53.341177" lon="-1.946694"><ele>229</ele><time>2021-10-01T09:51:45Z</time><name>PT227</name></trkpt>
<trkpt lat="53.341181" lon="-1.946690"><ele>229</ele><time>2021-10-01T09:51:46Z</time><name>PT228</name></trkpt>
<trkpt lat="53.341185" lon="-1.946682"><ele>230</ele><time>2021-10-01T09:51:47Z</time><name>PT229</name></trkpt>
<trkpt lat="53.341189" lon="-1.946678"><ele>230</ele><time>2021-10-01T09:51:48Z</time><name>PT230</name></trkpt>
<trkpt lat="53.341210" lon="-1.946647"><ele>231</ele><time>2021-10-01T09:52:50Z</time><name>PT231</name></trkpt>
<trkpt lat="53.341235" lon="-1.946638"><ele>230</ele><time>2021-10-01T09:52:53Z</time><name>PT232</name></trkpt>
<trkpt lat="53.341245" lon="-1.946643"><ele>231</ele><time>2021-10-01T09:52:57Z</time><name>PT233</name></trkpt>
<trkpt lat="53.341245" lon="-1.946652"><ele>231</ele><time>2021-10-01T09:53:14Z</time><name>PT234</name></trkpt>
<trkpt lat="53.341242" lon="-1.946672"><ele>231</ele><time>2021-10-01T09:53:18Z</time><name>PT235</name></trkpt>
<trkpt lat="53.341245" lon="-1.946677"><ele>231</ele><time>2021-10-01T09:53:21Z</time><name>PT236</name></trkpt>
<trkpt lat="53.341247" lon="-1.946690"><ele>231</ele><time>2021-10-01T09:53:25Z</time><name>PT237</name></trkpt>
<trkpt lat="53.341238" lon="-1.946701"><ele>232</ele><time>2021-10-01T09:53:32Z</time><name>PT238</name></trkpt>
<trkpt lat="53.341239" lon="-1.946702"><ele>232</ele><time>2021-10-01T09:53:36Z</time><name>PT239</name></trkpt>
<trkpt lat="53.341239" lon="-1.946715"><ele>232</ele><time>2021-10-01T09:54:11Z</time><name>PT240</name></trkpt>
<trkpt lat="53.341255" lon="-1.946760"><ele>232</ele><time>2021-10-01T09:54:14Z</time><name>PT241</name></trkpt>
<trkpt lat="53.341275" lon="-1.946831"><ele>233</ele><time>2021-10-01T09:54:18Z</time><name>PT242</name></trkpt>
<trkpt lat="53.341275" lon="-1.946891"><ele>233</ele><time>2021-10-01T09:54:22Z</time><name>PT243</name></trkpt>
<trkpt lat="53.341290" lon="-1.946955"><ele>234</ele><time>2021-10-01T09:54:26Z</time><name>PT244</name></trkpt>
<trkpt lat="53.341292" lon="-1.947025"><ele>234</ele><time>2021-10-01T09:54:30Z</time><name>PT245</name></trkpt>
<trkpt lat="53.341293" lon="-1.947095"><ele>236</ele><time>2021-10-01T09:54:34Z</time><name>PT246</name></trkpt>
<trkpt lat="53.341299" lon="-1.947146"><ele>236</ele><time>2021-10-01T09:54:38Z</time><name>PT247</name></trkpt>
<trkpt lat="53.341294" lon="-1.947200"><ele>236</ele><time>2021-10-01T09:54:41Z</time><name>PT248</name></trkpt>
<trkpt lat="53.341297" lon="-1.947252"><ele>237</ele><time>2021-10-01T09:54:44Z</time><name>PT249</name></trkpt>
<trkpt lat="53.341304" lon="-1.947293"><ele>236</ele><time>2021-10-01T09:54:47Z</time><name>PT250</name></trkpt>
<trkpt lat="53.341313" lon="-1.947351"><ele>235</ele><time>2021-10-01T09:54:51Z</time><name>PT251</name></trkpt>
<trkpt lat="53.341326" lon="-1.947415"><ele>236</ele><time>2021-10-01T09:54:55Z</time><name>PT252</name></trkpt>
<trkpt lat="53.341338" lon="-1.947453"><ele>236</ele><time>2021-10-01T09:54:58Z</time><name>PT253</name></trkpt>
<trkpt lat="53.341371" lon="-1.947522"><ele>239</ele><time>2021-10-01T09:55:02Z</time><name>PT254</name></trkpt>
<trkpt lat="53.341397" lon="-1.947559"><ele>240</ele><time>2021-10-01T09:55:05Z</time><name>PT255</name></trkpt>
<trkpt lat="53.341426" lon="-1.947618"><ele>241</ele><time>2021-10-01T09:55:09Z</time><name>PT256</name></trkpt>
<trkpt lat="53.341455" lon="-1.947672"><ele>242</ele><time>2021-10-01T09:55:13Z</time><name>PT257</name></trkpt>
<trkpt lat="53.341473" lon="-1.947717"><ele>242</ele><time>2021-10-01T09:55:16Z</time><name>PT258</name></trkpt>
<trkpt lat="53.341493" lon="-1.947767"><ele>243</ele><time>2021-10-01T09:55:19Z</time><name>PT259</name></trkpt>
<trkpt lat="53.341516" lon="-1.947802"><ele>244</ele><time>2021-10-01T09:55:22Z</time><name>PT260</name></trkpt>
<trkpt lat="53.341555" lon="-1.947844"><ele>245</ele><time>2021-10-01T09:55:26Z</time><name>PT261</name></trkpt>
<trkpt lat="53.341593" lon="-1.947880"><ele>246</ele><time>2021-10-01T09:55:29Z</time><name>PT262</name></trkpt>
<trkpt lat="53.341642" lon="-1.947902"><ele>247</ele><time>2021-10-01T09:55:33Z</time><name>PT263</name></trkpt>
<trkpt lat="53.341679" lon="-1.947908"><ele>247</ele><time>2021-10-01T09:55:37Z</time><name>PT264</name></trkpt>
<trkpt lat="53.341720" lon="-1.947908"><ele>248</ele><time>2021-10-01T09:55:41Z</time><name>PT265</name></trkpt>
<trkpt lat="53.341736" lon="-1.947889"><ele>249</ele><time>2021-10-01T09:55:44Z</time><name>PT266</name></trkpt>
<trkpt lat="53.341736" lon="-1.947860"><ele>249</ele><time>2021-10-01T09:55:48Z</time><name>PT267</name></trkpt>
<trkpt lat="53.341757" lon="-1.947829"><ele>251</ele><time>2021-10-01T09:55:52Z</time><name>PT268</name></trkpt>
<trkpt lat="53.341765" lon="-1.947793"><ele>252</ele><time>2021-10-01T09:55:55Z</time><name>PT269</name></trkpt>
<trkpt lat="53.341782" lon="-1.947743"><ele>249</ele><time>2021-10-01T09:55:58Z</time><name>PT270</name></trkpt>
<trkpt lat="53.341793" lon="-1.947706"><ele>248</ele><time>2021-10-01T09:56:01Z</time><name>PT271</name></trkpt>
<trkpt lat="53.341801" lon="-1.947659"><ele>246</ele><time>2021-10-01T09:56:05Z</time><name>PT272</name></trkpt>
<trkpt lat="53.341811" lon="-1.947643"><ele>249</ele><time>2021-10-01T09:56:09Z</time><name>PT273</name></trkpt>
<trkpt lat="53.341839" lon="-1.947606"><ele>250</ele><time>2021-10-01T09:56:16Z</time><name>PT274</name></trkpt>
<trkpt lat="53.341853" lon="-1.947567"><ele>248</ele><time>2021-10-01T09:56:20Z</time><name>PT275</name></trkpt>
<trkpt lat="53.341857" lon="-1.947523"><ele>246</ele><time>2021-10-01T09:56:23Z</time><name>PT276</name></trkpt>
<trkpt lat="53.341875" lon="-1.947449"><ele>245</ele><time>2021-10-01T09:56:27Z</time><name>PT277</name></trkpt>
<trkpt lat="53.341897" lon="-1.947401"><ele>246</ele><time>2021-10-01T09:56:31Z</time><name>PT278</name></trkpt>
<trkpt lat="53.341917" lon="-1.947354"><ele>244</ele><time>2021-10-01T09:56:35Z</time><name>PT279</name></trkpt>
<trkpt lat="53.341936" lon="-1.947296"><ele>245</ele><time>2021-10-01T09:56:38Z</time><name>PT280</name></trkpt>
<trkpt lat="53.341941" lon="-1.947252"><ele>243</ele><time>2021-10-01T09:56:41Z</time><name>PT281</name></trkpt>
<trkpt lat="53.341952" lon="-1.947201"><ele>243</ele><time>2021-10-01T09:56:45Z</time><name>PT282</name></trkpt>
<trkpt lat="53.341958" lon="-1.947153"><ele>243</ele><time>2021-10-01T09:56:49Z</time><name>PT283</name></trkpt>
<trkpt lat="53.341976" lon="-1.947115"><ele>244</ele><time>2021-10-01T09:56:52Z</time><name>PT284</name></trkpt>
<trkpt lat="53.342000" lon="-1.947062"><ele>245</ele><time>2021-10-01T09:56:56Z</time><name>PT285</name></trkpt>
<trkpt lat="53.342008" lon="-1.947001"><ele>245</ele><time>2021-10-01T09:56:59Z</time><name>PT286</name></trkpt>
<trkpt lat="53.342026" lon="-1.946960"><ele>245</ele><time>2021-10-01T09:57:02Z</time><name>PT287</name></trkpt>
<trkpt lat="53.342037" lon="-1.946899"><ele>243</ele><time>2021-10-01T09:57:05Z</time><name>PT288</name></trkpt>
<trkpt lat="53.342062" lon="-1.946858"><ele>244</ele><time>2021-10-01T09:57:09Z</time><name>PT289</name></trkpt>
<trkpt lat="53.342081" lon="-1.946807"><ele>245</ele><time>2021-10-01T09:57:13Z</time><name>PT290</name></trkpt>
<trkpt lat="53.342101" lon="-1.946760"><ele>246</ele><time>2021-10-01T09:57:16Z</time><name>PT291</name></trkpt>
<trkpt lat="53.342118" lon="-1.946699"><ele>247</ele><time>2021-10-01T09:57:20Z</time><name>PT292</name></trkpt>
<trkpt lat="53.342144" lon="-1.946651"><ele>250</ele><time>2021-10-01T09:57:23Z</time><name>PT293</name></trkpt>
<trkpt lat="53.342178" lon="-1.946598"><ele>252</ele><time>2021-10-01T09:57:27Z</time><name>PT294</name></trkpt>
<trkpt lat="53.342203" lon="-1.946562"><ele>254</ele><time>2021-10-01T09:57:31Z</time><name>PT295</name></trkpt>
<trkpt lat="53.342241" lon="-1.946513"><ele>255</ele><time>2021-10-01T09:57:35Z</time><name>PT296</name></trkpt>
<trkpt lat="53.342268" lon="-1.946472"><ele>258</ele><time>2021-10-01T09:57:38Z</time><name>PT297</name></trkpt>
<trkpt lat="53.342283" lon="-1.946440"><ele>258</ele><time>2021-10-01T09:57:41Z</time><name>PT298</name></trkpt>
<trkpt lat="53.342298" lon="-1.946400"><ele>257</ele><time>2021-10-01T09:57:44Z</time><name>PT299</name></trkpt>
<trkpt lat="53.342311" lon="-1.946340"><ele>258</ele><time>2021-10-01T09:57:48Z</time><name>PT300</name></trkpt>
<trkpt lat="53.342331" lon="-1.946284"><ele>260</ele><time>2021-10-01T09:57:52Z</time><name>PT301</name></trkpt>
<trkpt lat="53.342345" lon="-1.946243"><ele>261</ele><time>2021-10-01T09:57:55Z</time><name>PT302</name></trkpt>
<trkpt lat="53.342368" lon="-1.946209"><ele>259</ele><time>2021-10-01T09:57:59Z</time><name>PT303</name></trkpt>
<trkpt lat="53.342388" lon="-1.946181"><ele>261</ele><time>2021-10-01T09:58:02Z</time><name>PT304</name></trkpt>
<trkpt lat="53.342409" lon="-1.946149"><ele>262</ele><time>2021-10-01T09:58:05Z</time><name>PT305</name></trkpt>
<trkpt lat="53.342418" lon="-1.946118"><ele>263</ele><time>2021-10-01T09:58:08Z</time><name>PT306</name></trkpt>
<trkpt lat="53.342437" lon="-1.946069"><ele>263</ele><time>2021-10-01T09:58:12Z</time><name>PT307</name></trkpt>
<trkpt lat="53.342444" lon="-1.946027"><ele>264</ele><time>2021-10-01T09:58:16Z</time><name>PT308</name></trkpt>
<trkpt lat="53.342452" lon="-1.946010"><ele>265</ele><time>2021-10-01T09:58:19Z</time><name>PT309</name></trkpt>
<trkpt lat="53.342455" lon="-1.945987"><ele>266</ele><time>2021-10-01T09:58:23Z</time><name>PT310</name></trkpt>
<trkpt lat="53.342453" lon="-1.945978"><ele>267</ele><time>2021-10-01T09:58:26Z</time><name>PT311</name></trkpt>
<trkpt lat="53.342468" lon="-1.945914"><ele>268</ele><time>2021-10-01T09:58:36Z</time><name>PT312</name></trkpt>
<trkpt lat="53.342478" lon="-1.945886"><ele>267</ele><time>2021-10-01T09:58:39Z</time><name>PT313</name></trkpt>
<trkpt lat="53.342479" lon="-1.945862"><ele>267</ele><time>2021-10-01T09:58:43Z</time><name>PT314</name></trkpt>
<trkpt lat="53.342485" lon="-1.945827"><ele>268</ele><time>2021-10-01T09:58:46Z</time><name>PT315</name></trkpt>
<trkpt lat="53.342503" lon="-1.945785"><ele>268</ele><time>2021-10-01T09:58:50Z</time><name>PT316</name></trkpt>
<trkpt lat="53.342510" lon="-1.945720"><ele>269</ele><time>2021-10-01T09:58:54Z</time><name>PT317</name></trkpt>
<trkpt lat="53.342521" lon="-1.945665"><ele>269</ele><time>2021-10-01T09:58:58Z</time><name>PT318</name></trkpt>
<trkpt lat="53.342531" lon="-1.945606"><ele>270</ele><time>2021-10-01T09:59:02Z</time><name>PT319</name></trkpt>
<trkpt lat="53.342530" lon="-1.945575"><ele>268</ele><time>2021-10-01T09:59:05Z</time><name>PT320</name></trkpt>
<trkpt lat="53.342538" lon="-1.945536"><ele>268</ele><time>2021-10-01T09:59:08Z</time><name>PT321</name></trkpt>
<trkpt lat="53.342550" lon="-1.945501"><ele>268</ele><time>2021-10-01T09:59:11Z</time><name>PT322</name></trkpt>
<trkpt lat="53.342560" lon="-1.945441"><ele>269</ele><time>2021-10-01T09:59:15Z</time><name>PT323</name></trkpt>
<trkpt lat="53.342574" lon="-1.945374"><ele>269</ele><time>2021-10-01T09:59:19Z</time><name>PT324</name></trkpt>
<trkpt lat="53.342593" lon="-1.945318"><ele>271</ele><time>2021-10-01T09:59:23Z</time><name>PT325</name></trkpt>
<trkpt lat="53.342604" lon="-1.945254"><ele>271</ele><time>2021-10-01T09:59:27Z</time><name>PT326</name></trkpt>
<trkpt lat="53.342624" lon="-1.945191"><ele>271</ele><time>2021-10-01T09:59:31Z</time><name>PT327</name></trkpt>
<trkpt lat="53.342655" lon="-1.945140"><ele>276</ele><time>2021-10-01T09:59:35Z</time><name>PT328</name></trkpt>
<trkpt lat="53.342677" lon="-1.945099"><ele>276</ele><time>2021-10-01T09:59:38Z</time><name>PT329</name></trkpt>
<trkpt lat="53.342708" lon="-1.945043"><ele>277</ele><time>2021-10-01T09:59:42Z</time><name>PT330</name></trkpt>
<trkpt lat="53.342742" lon="-1.944997"><ele>278</ele><time>2021-10-01T09:59:46Z</time><name>PT331</name></trkpt>
<trkpt lat="53.342753" lon="-1.944953"><ele>279</ele><time>2021-10-01T09:59:49Z</time><name>PT332</name></trkpt>
<trkpt lat="53.342785" lon="-1.944905"><ele>281</ele><time>2021-10-01T09:59:53Z</time><name>PT333</name></trkpt>
<trkpt lat="53.342817" lon="-1.944858"><ele>283</ele><time>2021-10-01T09:59:57Z</time><name>PT334</name></trkpt>
<trkpt lat="53.342844" lon="-1.944815"><ele>285</ele><time>2021-10-01T10:00:01Z</time><name>PT335</name></trkpt>
<trkpt lat="53.342859" lon="-1.944770"><ele>283</ele><time>2021-10-01T10:00:05Z</time><name>PT336</name></trkpt>
<trkpt lat="53.342879" lon="-1.944736"><ele>281</ele><time>2021-10-01T10:00:09Z</time><name>PT337</name></trkpt>
<trkpt lat="53.342896" lon="-1.944695"><ele>281</ele><time>2021-10-01T10:00:13Z</time><name>PT338</name></trkpt>
<trkpt lat="53.342915" lon="-1.944670"><ele>281</ele><time>2021-10-01T10:00:16Z</time><name>PT339</name></trkpt>
<trkpt lat="53.342948" lon="-1.944620"><ele>282</ele><time>2021-10-01T10:00:20Z</time><name>PT340</name></trkpt>
<trkpt lat="53.342965" lon="-1.944580"><ele>282</ele><time>2021-10-01T10:00:23Z</time><name>PT341</name></trkpt>
<trkpt lat="53.342983" lon="-1.944540"><ele>281</ele><time>2021-10-01T10:00:26Z</time><name>PT342</name></trkpt>
<trkpt lat="53.343019" lon="-1.944488"><ele>282</ele><time>2021-10-01T10:00:30Z</time><name>PT343</name></trkpt>
<trkpt lat="53.343038" lon="-1.944444"><ele>283</ele><time>2021-10-01T10:00:33Z</time><name>PT344</name></trkpt>
<trkpt lat="53.343076" lon="-1.944400"><ele>283</ele><time>2021-10-01T10:00:37Z</time><name>PT345</name></trkpt>
<trkpt lat="53.343083" lon="-1.944384"><ele>283</ele><time>2021-10-01T10:00:38Z</time><name>PT346</name></trkpt>
<trkpt lat="53.343089" lon="-1.944374"><ele>283</ele><time>2021-10-01T10:00:39Z</time><name>PT347</name></trkpt>
<trkpt lat="53.343100" lon="-1.944362"><ele>284</ele><time>2021-10-01T10:00:40Z</time><name>PT348</name></trkpt>
<trkpt lat="53.343107" lon="-1.944347"><ele>284</ele><time>2021-10-01T10:00:41Z</time><name>PT349</name></trkpt>
<trkpt lat="53.343111" lon="-1.944334"><ele>284</ele><time>2021-10-01T10:00:42Z</time><name>PT350</name></trkpt>
<trkpt lat="53.343122" lon="-1.944325"><ele>286</ele><time>2021-10-01T10:00:43Z</time><name>PT351</name></trkpt>
<trkpt lat="53.343131" lon="-1.944311"><ele>286</ele><time>2021-10-01T10:00:44Z</time><name>PT352</name></trkpt>
<trkpt lat="53.343139" lon="-1.944300"><ele>287</ele><time>2021-10-01T10:00:45Z</time><name>PT353</name></trkpt>
<trkpt lat="53.343149" lon="-1.944289"><ele>287</ele><time>2021-10-01T10:00:46Z</time><name>PT354</name></trkpt>
<trkpt lat="53.343150" lon="-1.944271"><ele>286</ele><time>2021-10-01T10:00:47Z</time><name>PT355</name></trkpt>
<trkpt lat="53.343160" lon="-1.944260"><ele>286</ele><time>2021-10-01T10:00:48Z</time><name>PT356</name></trkpt>
<trkpt lat="53.343167" lon="-1.944247"><ele>286</ele><time>2021-10-01T10:00:49Z</time><name>PT357</name></trkpt>
<trkpt lat="53.343176" lon="-1.944236"><ele>286</ele><time>2021-10-01T10:00:50Z</time><name>PT358</name></trkpt>
<trkpt lat="53.343186" lon="-1.944225"><ele>286</ele><time>2021-10-01T10:00:51Z</time><name>PT359</name></trkpt>
<trkpt lat="53.343194" lon="-1.944213"><ele>287</ele><time>2021-10-01T10:00:52Z</time><name>PT360</name></trkpt>
<trkpt lat="53.343199" lon="-1.944202"><ele>288</ele><time>2021-10-01T10:00:53Z</time><name>PT361</name></trkpt>
<trkpt lat="53.343209" lon="-1.944192"><ele>288</ele><time>2021-10-01T10:00:54Z</time><name>PT362</name></trkpt>
<trkpt lat="53.343219" lon="-1.944180"><ele>288</ele><time>2021-10-01T10:00:55Z</time><name>PT363</name></trkpt>
<trkpt lat="53.343229" lon="-1.944173"><ele>288</ele><time>2021-10-01T10:00:56Z</time><name>PT364</name></trkpt>
<trkpt lat="53.343248" lon="-1.944166"><ele>289</ele><time>2021-10-01T10:00:57Z</time><name>PT365</name></trkpt>
<trkpt lat="53.343260" lon="-1.944160"><ele>289</ele><time>2021-10-01T10:00:58Z</time><name>PT366</name></trkpt>
<trkpt lat="53.343270" lon="-1.944153"><ele>290</ele><time>2021-10-01T10:00:59Z</time><name>PT367</name></trkpt>
<trkpt lat="53.343276" lon="-1.944140"><ele>290</ele><time>2021-10-01T10:01:00Z</time><name>PT368</name></trkpt>
<trkpt lat="53.343286" lon="-1.944129"><ele>291</ele><time>2021-10-01T10:01:01Z</time><name>PT369</name></trkpt>
<trkpt lat="53.343299" lon="-1.944122"><ele>293</ele><time>2021-10-01T10:01:02Z</time><name>PT370</name></trkpt>
<trkpt lat="53.343308" lon="-1.944116"><ele>293</ele><time>2021-10-01T10:01:03Z</time><name>PT371</name></trkpt>
<trkpt lat="53.343313" lon="-1.944107"><ele>293</ele><time>2021-10-01T10:01:04Z</time><name>PT372</name></trkpt>
<trkpt lat="53.343320" lon="-1.944096"><ele>293</ele><time>2021-10-01T10:01:05Z</time><name>PT373</name></trkpt>
<trkpt lat="53.343325" lon="-1.944085"><ele>293</ele><time>2021-10-01T10:01:06Z</time><name>PT374</name></trkpt>
<trkpt lat="53.343335" lon="-1.944076"><ele>293</ele><time>2021-10-01T10:01:07Z</time><name>PT375</name></trkpt>
<trkpt lat="53.343345" lon="-1.944067"><ele>293</ele><time>2021-10-01T10:01:08Z</time><name>PT376</name></trkpt>
<trkpt lat="53.343354" lon="-1.944061"><ele>293</ele><time>2021-10-01T10:01:09Z</time><name>PT377</name></trkpt>
<trkpt lat="53.343365" lon="-1.944053"><ele>293</ele><time>2021-10-01T10:01:10Z</time><name>PT378</name></trkpt>
<trkpt lat="53.343374" lon="-1.944049"><ele>294</ele><time>2021-10-01T10:01:11Z</time><name>PT379</name></trkpt>
<trkpt lat="53.343381" lon="-1.944041"><ele>294</ele><time>2021-10-01T10:01:12Z</time><name>PT380</name></trkpt>
<trkpt lat="53.343388" lon="-1.944030"><ele>295</ele><time>2021-10-01T10:01:13Z</time><name>PT381</name></trkpt>
<trkpt lat="53.343396" lon="-1.944025"><ele>295</ele><time>2021-10-01T10:01:14Z</time><name>PT382</name></trkpt>
<trkpt lat="53.343403" lon="-1.944019"><ele>295</ele><time>2021-10-01T10:01:15Z</time><name>PT383</name></trkpt>
<trkpt lat="53.343410" lon="-1.944013"><ele>295</ele><time>2021-10-01T10:01:16Z</time><name>PT384</name></trkpt>
<trkpt lat="53.343417" lon="-1.944007"><ele>296</ele><time>2021-10-01T10:01:17Z</time><name>PT385</name></trkpt>
<trkpt lat="53.343423" lon="-1.944006"><ele>296</ele><time>2021-10-01T10:01:18Z</time><name>PT386</name></trkpt>
<trkpt lat="53.343425" lon="-1.944006"><ele>296</ele><time>2021-10-01T10:01:19Z</time><name>PT387</name></trkpt>
<trkpt lat="53.343427" lon="-1.944006"><ele>296</ele><time>2021-10-01T10:01:20Z</time><name>PT388</name></trkpt>
<trkpt lat="53.343430" lon="-1.944006"><ele>296</ele><time>2021-10-01T10:01:31Z</time><name>PT389</name></trkpt>
<trkpt lat="53.343432" lon="-1.943999"><ele>296</ele><time>2021-10-01T10:01:32Z</time><name>PT390</name></trkpt>
<trkpt lat="53.343435" lon="-1.944001"><ele>296</ele><time>2021-10-01T10:01:33Z</time><name>PT391</name></trkpt>
<trkpt lat="53.343437" lon="-1.943999"><ele>297</ele><time>2021-10-01T10:01:34Z</time><name>PT392</name></trkpt>
<trkpt lat="53.343439" lon="-1.944000"><ele>297</ele><time>2021-10-01T10:01:35Z</time><name>PT393</name></trkpt>
<trkpt lat="53.343441" lon="-1.943998"><ele>297</ele><time>2021-10-01T10:01:36Z</time><name>PT394</name></trkpt>
<trkpt lat="53.343445" lon="-1.943990"><ele>297</ele><time>2021-10-01T10:01:57Z</time><name>PT395</name></trkpt>
<trkpt lat="53.343442" lon="-1.943995"><ele>297</ele><time>2021-10-01T10:01:58Z</time><name>PT396</name></trkpt>
<trkpt lat="53.343445" lon="-1.943993"><ele>297</ele><time>2021-10-01T10:01:59Z</time><name>PT397</name></trkpt>
<trkpt lat="53.343447" lon="-1.943999"><ele>298</ele><time>2021-10-01T10:02:48Z</time><name>PT398</name></trkpt>
<trkpt lat="53.343445" lon="-1.944006"><ele>298</ele><time>2021-10-01T10:02:49Z</time><name>PT399</name></trkpt>
<trkpt lat="53.343448" lon="-1.944005"><ele>298</ele><time>2021-10-01T10:02:52Z</time><name>PT400</name></trkpt>
<trkpt lat="53.343448" lon="-1.944004"><ele>298</ele><time>2021-10-01T10:02:53Z</time><name>PT401</name></trkpt>
<trkpt lat="53.343448" lon="-1.944005"><ele>298</ele><time>2021-10-01T10:02:54Z</time><name>PT402</name></trkpt>
<trkpt lat="53.343447" lon="-1.944011"><ele>297</ele><time>2021-10-01T10:02:55Z</time><name>PT403</name></trkpt>
<trkpt lat="53.343448" lon="-1.944015"><ele>297</ele><time>2021-10-01T10:02:56Z</time><name>PT404</name></trkpt>
<trkpt lat="53.343449" lon="-1.944010"><ele>297</ele><time>2021-10-01T10:02:57Z</time><name>PT405</name></trkpt>
<trkpt lat="53.343450" lon="-1.944011"><ele>297</ele><time>2021-10-01T10:02:58Z</time><name>PT406</name></trkpt>
<trkpt lat="53.343449" lon="-1.944010"><ele>297</ele><time>2021-10-01T10:02:59Z</time><name>PT407</name></trkpt>
<trkpt lat="53.343453" lon="-1.944015"><ele>297</ele><time>2021-10-01T10:03:06Z</time><name>PT408</name></trkpt>
<trkpt lat="53.343453" lon="-1.944028"><ele>298</ele><time>2021-10-01T10:03:07Z</time><name>PT409</name></trkpt>
<trkpt lat="53.343454" lon="-1.944034"><ele>298</ele><time>2021-10-01T10:03:08Z</time><name>PT410</name></trkpt>
<trkpt lat="53.343454" lon="-1.944040"><ele>298</ele><time>2021-10-01T10:03:11Z</time><name>PT411</name></trkpt>
<trkpt lat="53.343449" lon="-1.944024"><ele>298</ele><time>2021-10-01T10:04:12Z</time><name>PT412</name></trkpt>
<trkpt lat="53.343447" lon="-1.944022"><ele>298</ele><time>2021-10-01T10:04:16Z</time><name>PT413</name></trkpt>
<trkpt lat="53.343454" lon="-1.944026"><ele>297</ele><time>2021-10-01T10:04:19Z</time><name>PT414</name></trkpt>
<trkpt lat="53.343451" lon="-1.944024"><ele>298</ele><time>2021-10-01T10:04:22Z</time><name>PT415</name></trkpt>
<trkpt lat="53.343452" lon="-1.944027"><ele>298</ele><time>2021-10-01T10:04:43Z</time><name>PT416</name></trkpt>
<trkpt lat="53.343452" lon="-1.944028"><ele>298</ele><time>2021-10-01T10:04:46Z</time><name>PT417</name></trkpt>
<trkpt lat="53.343451" lon="-1.944031"><ele>298</ele><time>2021-10-01T10:05:17Z</time><name>PT418</name></trkpt>
<trkpt lat="53.343450" lon="-1.944030"><ele>298</ele><time>2021-10-01T10:05:18Z</time><name>PT419</name></trkpt>
<trkpt lat="53.343449" lon="-1.944034"><ele>298</ele><time>2021-10-01T10:05:19Z</time><name>PT420</name></trkpt>
<trkpt lat="53.343449" lon="-1.944034"><ele>298</ele><time>2021-10-01T10:05:20Z</time><name>PT421</name></trkpt>
<trkpt lat="53.343450" lon="-1.944035"><ele>298</ele><time>2021-10-01T10:05:21Z</time><name>PT422</name></trkpt>
<trkpt lat="53.343450" lon="-1.944036"><ele>298</ele><time>2021-10-01T10:05:22Z</time><name>PT423</name></trkpt>
<trkpt lat="53.343459" lon="-1.944022"><ele>298</ele><time>2021-10-01T10:05:39Z</time><name>PT424</name></trkpt>
<trkpt lat="53.343468" lon="-1.944007"><ele>298</ele><time>2021-10-01T10:05:40Z</time><name>PT425</name></trkpt>
<trkpt lat="53.343477" lon="-1.943996"><ele>298</ele><time>2021-10-01T10:05:41Z</time><name>PT426</name></trkpt>
<trkpt lat="53.343488" lon="-1.943980"><ele>299</ele><time>2021-10-01T10:05:42Z</time><name>PT427</name></trkpt>
<trkpt lat="53.343496" lon="-1.943968"><ele>299</ele><time>2021-10-01T10:05:43Z</time><name>PT428</name></trkpt>
<trkpt lat="53.343502" lon="-1.943951"><ele>298</ele><time>2021-10-01T10:05:44Z</time><name>PT429</name></trkpt>
<trkpt lat="53.343510" lon="-1.943944"><ele>298</ele><time>2021-10-01T10:05:45Z</time><name>PT430</name></trkpt>
<trkpt lat="53.343515" lon="-1.943933"><ele>299</ele><time>2021-10-01T10:05:46Z</time><name>PT431</name></trkpt>
<trkpt lat="53.343520" lon="-1.943926"><ele>298</ele><time>2021-10-01T10:05:47Z</time><name>PT432</name></trkpt>
<trkpt lat="53.343529" lon="-1.943919"><ele>298</ele><time>2021-10-01T10:05:48Z</time><name>PT433</name></trkpt>
<trkpt lat="53.343542" lon="-1.943915"><ele>298</ele><time>2021-10-01T10:05:49Z</time><name>PT434</name></trkpt>
<trkpt lat="53.343551" lon="-1.943908"><ele>298</ele><time>2021-10-01T10:05:50Z</time><name>PT435</name></trkpt>
<trkpt lat="53.343560" lon="-1.943900"><ele>299</ele><time>2021-10-01T10:05:51Z</time><name>PT436</name></trkpt>
<trkpt lat="53.343567" lon="-1.943890"><ele>299</ele><time>2021-10-01T10:05:52Z</time><name>PT437</name></trkpt>
<trkpt lat="53.343576" lon="-1.943881"><ele>299</ele><time>2021-10-01T10:05:53Z</time><name>PT438</name></trkpt>
<trkpt lat="53.343582" lon="-1.943872"><ele>299</ele><time>2021-10-01T10:05:54Z</time><name>PT439</name></trkpt>
<trkpt lat="53.343588" lon="-1.943864"><ele>298</ele><time>2021-10-01T10:05:55Z</time><name>PT440</name></trkpt>
<trkpt lat="53.343595" lon="-1.943849"><ele>298</ele><time>2021-10-01T10:05:56Z</time><name>PT441</name></trkpt>
<trkpt lat="53.343601" lon="-1.943841"><ele>298</ele><time>2021-10-01T10:05:57Z</time><name>PT442</name></trkpt>
<trkpt lat="53.343607" lon="-1.943832"><ele>298</ele><time>2021-10-01T10:05:58Z</time><name>PT443</name></trkpt>
<trkpt lat="53.343611" lon="-1.943823"><ele>298</ele><time>2021-10-01T10:05:59Z</time><name>PT444</name></trkpt>
<trkpt lat="53.343615" lon="-1.943814"><ele>298</ele><time>2021-10-01T10:06:00Z</time><name>PT445</name></trkpt>
<trkpt lat="53.343619" lon="-1.943809"><ele>298</ele><time>2021-10-01T10:06:01Z</time><name>PT446</name></trkpt>
<trkpt lat="53.343625" lon="-1.943802"><ele>298</ele><time>2021-10-01T10:06:02Z</time><name>PT447</name></trkpt>
<trkpt lat="53.343629" lon="-1.943791"><ele>298</ele><time>2021-10-01T10:06:03Z</time><name>PT448</name></trkpt>
<trkpt lat="53.343634" lon="-1.943782"><ele>298</ele><time>2021-10-01T10:06:04Z</time><name>PT449</name></trkpt>
<trkpt lat="53.343643" lon="-1.943771"><ele>298</ele><time>2021-10-01T10:06:05Z</time><name>PT450</name></trkpt>
<trkpt lat="53.343649" lon="-1.943759"><ele>298</ele><time>2021-10-01T10:06:06Z</time><name>PT451</name></trkpt>
<trkpt lat="53.343655" lon="-1.943744"><ele>299</ele><time>2021-10-01T10:06:07Z</time><name>PT452</name></trkpt>
<trkpt lat="53.343663" lon="-1.943733"><ele>299</ele><time>2021-10-01T10:06:08Z</time><name>PT453</name></trkpt>
<trkpt lat="53.343670" lon="-1.943722"><ele>299</ele><time>2021-10-01T10:06:09Z</time><name>PT454</name></trkpt>
<trkpt lat="53.343678" lon="-1.943710"><ele>299</ele><time>2021-10-01T10:06:10Z</time><name>PT455</name></trkpt>
<trkpt lat="53.343684" lon="-1.943699"><ele>298</ele><time>2021-10-01T10:06:11Z</time><name>PT456</name></trkpt>
<trkpt lat="53.343691" lon="-1.943685"><ele>299</ele><time>2021-10-01T10:06:12Z</time><name>PT457</name></trkpt>
<trkpt lat="53.343698" lon="-1.943676"><ele>299</ele><time>2021-10-01T10:06:13Z</time><name>PT458</name></trkpt>
<trkpt lat="53.343705" lon="-1.943666"><ele>299</ele><time>2021-10-01T10:06:14Z</time><name>PT459</name></trkpt>
<trkpt lat="53.343713" lon="-1.943657"><ele>300</ele><time>2021-10-01T10:06:15Z</time><name>PT460</name></trkpt>
<trkpt lat="53.343719" lon="-1.943645"><ele>299</ele><time>2021-10-01T10:06:16Z</time><name>PT461</name></trkpt>
<trkpt lat="53.343725" lon="-1.943636"><ele>299</ele><time>2021-10-01T10:06:17Z</time><name>PT462</name></trkpt>
<trkpt lat="53.343732" lon="-1.943623"><ele>300</ele><time>2021-10-01T10:06:18Z</time><name>PT463</name></trkpt>
<trkpt lat="53.343740" lon="-1.943614"><ele>300</ele><time>2021-10-01T10:06:19Z</time><name>PT464</name></trkpt>
<trkpt lat="53.343746" lon="-1.943606"><ele>299</ele><time>2021-10-01T10:06:20Z</time><name>PT465</name></trkpt>
<trkpt lat="53.343752" lon="-1.943595"><ele>299</ele><time>2021-10-01T10:06:21Z</time><name>PT466</name></trkpt>
<trkpt lat="53.343760" lon="-1.943586"><ele>299</ele><time>2021-10-01T10:06:22Z</time><name>PT467</name></trkpt>
<trkpt lat="53.343767" lon="-1.943576"><ele>299</ele><time>2021-10-01T10:06:23Z</time><name>PT468</name></trkpt>
<trkpt lat="53.343776" lon="-1.943567"><ele>299</ele><time>2021-10-01T10:06:24Z</time><name>PT469</name></trkpt>
<trkpt lat="53.343783" lon="-1.943556"><ele>298</ele><time>2021-10-01T10:06:25Z</time><name>PT470</name></trkpt>
<trkpt lat="53.343788" lon="-1.943544"><ele>299</ele><time>2021-10-01T10:06:26Z</time><name>PT471</name></trkpt>
<trkpt lat="53.343796" lon="-1.943536"><ele>298</ele><time>2021-10-01T10:06:27Z</time><name>PT472</name></trkpt>
<trkpt lat="53.343802" lon="-1.943527"><ele>299</ele><time>2021-10-01T10:06:28Z</time><name>PT473</name></trkpt>
<trkpt lat="53.343812" lon="-1.943518"><ele>299</ele><time>2021-10-01T10:06:29Z</time><name>PT474</name></trkpt>
<trkpt lat="53.343820" lon="-1.943509"><ele>300</ele><time>2021-10-01T10:06:30Z</time><name>PT475</name></trkpt>
<trkpt lat="53.343829" lon="-1.943500"><ele>300</ele><time>2021-10-01T10:06:31Z</time><name>PT476</name></trkpt>
<trkpt lat="53.343837" lon="-1.943490"><ele>300</ele><time>2021-10-01T10:06:32Z</time><name>PT477</name></trkpt>
<trkpt lat="53.343847" lon="-1.943482"><ele>300</ele><time>2021-10-01T10:06:33Z</time><name>PT478</name></trkpt>
<trkpt lat="53.343852" lon="-1.943475"><ele>300</ele><time>2021-10-01T10:06:34Z</time><name>PT479</name></trkpt>
<trkpt lat="53.343858" lon="-1.943471"><ele>300</ele><time>2021-10-01T10:06:35Z</time><name>PT480</name></trkpt>
<trkpt lat="53.343862" lon="-1.943464"><ele>300</ele><time>2021-10-01T10:06:36Z</time><name>PT481</name></trkpt>
<trkpt lat="53.343869" lon="-1.943456"><ele>300</ele><time>2021-10-01T10:06:37Z</time><name>PT482</name></trkpt>
<trkpt lat="53.343877" lon="-1.943449"><ele>301</ele><time>2021-10-01T10:06:38Z</time><name>PT483</name></trkpt>
<trkpt lat="53.343886" lon="-1.943441"><ele>302</ele><time>2021-10-01T10:06:39Z</time><name>PT484</name></trkpt>
<trkpt lat="53.343894" lon="-1.943433"><ele>302</ele><time>2021-10-01T10:06:40Z</time><name>PT485</name></trkpt>
<trkpt lat="53.343902" lon="-1.943423"><ele>303</ele><time>2021-10-01T10:06:41Z</time><name>PT486</name></trkpt>
<trkpt lat="53.343913" lon="-1.943416"><ele>304</ele><time>2021-10-01T10:06:42Z</time><name>PT487</name></trkpt>
<trkpt lat="53.343921" lon="-1.943410"><ele>304</ele><time>2021-10-01T10:06:43Z</time><name>PT488</name></trkpt>
<trkpt lat="53.343929" lon="-1.943403"><ele>303</ele><time>2021-10-01T10:06:44Z</time><name>PT489</name></trkpt>
<trkpt lat="53.343936" lon="-1.943394"><ele>303</ele><time>2021-10-01T10:06:45Z</time><name>PT490</name></trkpt>
<trkpt lat="53.343945" lon="-1.943385"><ele>304</ele><time>2021-10-01T10:06:46Z</time><name>PT491</name></trkpt>
<trkpt lat="53.343953" lon="-1.943376"><ele>304</ele><time>2021-10-01T10:06:47Z</time><name>PT492</name></trkpt>
<trkpt lat="53.343960" lon="-1.943366"><ele>304</ele><time>2021-10-01T10:06:48Z</time><name>PT493</name></trkpt>
<trkpt lat="53.343969" lon="-1.943357"><ele>304</ele><time>2021-10-01T10:06:49Z</time><name>PT494</name></trkpt>
<trkpt lat="53.343979" lon="-1.943347"><ele>305</ele><time>2021-10-01T10:06:50Z</time><name>PT495</name></trkpt>
<trkpt lat="53.343986" lon="-1.943335"><ele>305</ele><time>2021-10-01T10:06:51Z</time><name>PT496</name></trkpt>
<trkpt lat="53.343991" lon="-1.943323"><ele>305</ele><time>2021-10-01T10:06:52Z</time><name>PT497</name></trkpt>
<trkpt lat="53.343998" lon="-1.943311"><ele>305</ele><time>2021-10-01T10:06:53Z</time><name>PT498</name></trkpt>
<trkpt lat="53.344006" lon="-1.943299"><ele>305</ele><time>2021-10-01T10:06:54Z</time><name>PT499</name></trkpt>
<trkpt lat="53.344013" lon="-1.943289"><ele>305</ele><time>2021-10-01T10:06:55Z</time><name>PT500</name></trkpt>
<trkpt lat="53.344023" lon="-1.943278"><ele>305</ele><time>2021-10-01T10:06:56Z</time><name>PT501</name></trkpt>
<trkpt lat="53.344032" lon="-1.943266"><ele>306</ele><time>2021-10-01T10:06:57Z</time><name>PT502</name></trkpt>
<trkpt lat="53.344041" lon="-1.943254"><ele>306</ele><time>2021-10-01T10:06:58Z</time><name>PT503</name></trkpt>
<trkpt lat="53.344050" lon="-1.943241"><ele>306</ele><time>2021-10-01T10:06:59Z</time><name>PT504</name></trkpt>
<trkpt lat="53.344058" lon="-1.943229"><ele>306</ele><time>2021-10-01T10:07:00Z</time><name>PT505</name></trkpt>
<trkpt lat="53.344068" lon="-1.943216"><ele>306</ele><time>2021-10-01T10:07:01Z</time><name>PT506</name></trkpt>
<trkpt lat="53.344074" lon="-1.943204"><ele>306</ele><time>2021-10-01T10:07:02Z</time><name>PT507</name></trkpt>
<trkpt lat="53.344084" lon="-1.943193"><ele>306</ele><time>2021-10-01T10:07:03Z</time><name>PT508</name></trkpt>
<trkpt lat="53.344091" lon="-1.943182"><ele>306</ele><time>2021-10-01T10:07:04Z</time><name>PT509</name></trkpt>
<trkpt lat="53.344101" lon="-1.943168"><ele>307</ele><time>2021-10-01T10:07:05Z</time><name>PT510</name></trkpt>
<trkpt lat="53.344109" lon="-1.943157"><ele>307</ele><time>2021-10-01T10:07:06Z</time><name>PT511</name></trkpt>
<trkpt lat="53.344118" lon="-1.943145"><ele>307</ele><time>2021-10-01T10:07:07Z</time><name>PT512</name></trkpt>
<trkpt lat="53.344125" lon="-1.943132"><ele>307</ele><time>2021-10-01T10:07:08Z</time><name>PT513</name></trkpt>
<trkpt lat="53.344134" lon="-1.943122"><ele>307</ele><time>2021-10-01T10:07:09Z</time><name>PT514</name></trkpt>
<trkpt lat="53.344143" lon="-1.943112"><ele>307</ele><time>2021-10-01T10:07:10Z</time><name>PT515</name></trkpt>
<trkpt lat="53.344150" lon="-1.943103"><ele>307</ele><time>2021-10-01T10:07:11Z</time><name>PT516</name></trkpt>
<trkpt lat="53.344159" lon="-1.943094"><ele>307</ele><time>2021-10-01T10:07:12Z</time><name>PT517</name></trkpt>
<trkpt lat="53.344167" lon="-1.943082"><ele>307</ele><time>2021-10-01T10:07:13Z</time><name>PT518</name></trkpt>
<trkpt lat="53.344174" lon="-1.943071"><ele>307</ele><time>2021-10-01T10:07:14Z</time><name>PT519</name></trkpt>
<trkpt lat="53.344183" lon="-1.943060"><ele>307</ele><time>2021-10-01T10:07:15Z</time><name>PT520</name></trkpt>
<trkpt lat="53.344191" lon="-1.943050"><ele>308</ele><time>2021-10-01T10:07:16Z</time><name>PT521</name></trkpt>
<trkpt lat="53.344197" lon="-1.943041"><ele>308</ele><time>2021-10-01T10:07:17Z</time><name>PT522</name></trkpt>
<trkpt lat="53.344206" lon="-1.943033"><ele>308</ele><time>2021-10-01T10:07:18Z</time><name>PT523</name></trkpt>
<trkpt lat="53.344216" lon="-1.943024"><ele>309</ele><time>2021-10-01T10:07:19Z</time><name>PT524</name></trkpt>
<trkpt lat="53.344224" lon="-1.943014"><ele>309</ele><time>2021-10-01T10:07:20Z</time><name>PT525</name></trkpt>
<trkpt lat="53.344232" lon="-1.943003"><ele>310</ele><time>2021-10-01T10:07:21Z</time><name>PT526</name></trkpt>
<trkpt lat="53.344241" lon="-1.942995"><ele>310</ele><time>2021-10-01T10:07:23Z</time><name>PT527</name></trkpt>
<trkpt lat="53.344246" lon="-1.942992"><ele>310</ele><time>2021-10-01T10:07:23Z</time><name>PT528</name></trkpt>
<trkpt lat="53.344249" lon="-1.942989"><ele>310</ele><time>2021-10-01T10:07:24Z</time><name>PT529</name></trkpt>
<trkpt lat="53.344259" lon="-1.942989"><ele>312</ele><time>2021-10-01T10:07:25Z</time><name>PT530</name></trkpt>
<trkpt lat="53.344263" lon="-1.942986"><ele>313</ele><time>2021-10-01T10:07:26Z</time><name>PT531</name></trkpt>
<trkpt lat="53.344259" lon="-1.942986"><ele>312</ele><time>2021-10-01T10:07:27Z</time><name>PT532</name></trkpt>
<trkpt lat="53.344257" lon="-1.942980"><ele>312</ele><time>2021-10-01T10:07:28Z</time><name>PT533</name></trkpt>
<trkpt lat="53.344255" lon="-1.942975"><ele>312</ele><time>2021-10-01T10:07:29Z</time><name>PT534</name></trkpt>
<trkpt lat="53.344256" lon="-1.942970"><ele>312</ele><time>2021-10-01T10:07:30Z</time><name>PT535</name></trkpt>
<trkpt lat="53.344255" lon="-1.942966"><ele>313</ele><time>2021-10-01T10:07:31Z</time><name>PT536</name></trkpt>
<trkpt lat="53.344254" lon="-1.942966"><ele>313</ele><time>2021-10-01T10:07:32Z</time><name>PT537</name></trkpt>
<trkpt lat="53.344256" lon="-1.942963"><ele>313</ele><time>2021-10-01T10:07:33Z</time><name>PT538</name></trkpt>
<trkpt lat="53.344259" lon="-1.942958"><ele>313</ele><time>2021-10-01T10:07:43Z</time><name>PT539</name></trkpt>
<trkpt lat="53.344260" lon="-1.942960"><ele>312</ele><time>2021-10-01T10:07:44Z</time><name>PT540</name></trkpt>
<trkpt lat="53.344267" lon="-1.942958"><ele>312</ele><time>2021-10-01T10:07:45Z</time><name>PT541</name></trkpt>
<trkpt lat="53.344273" lon="-1.942959"><ele>312</ele><time>2021-10-01T10:07:46Z</time><name>PT542</name></trkpt>
<trkpt lat="53.344280" lon="-1.942958"><ele>312</ele><time>2021-10-01T10:07:47Z</time><name>PT543</name></trkpt>
<trkpt lat="53.344287" lon="-1.942958"><ele>312</ele><time>2021-10-01T10:07:48Z</time><name>PT544</name></trkpt>
<trkpt lat="53.344295" lon="-1.942956"><ele>312</ele><time>2021-10-01T10:07:49Z</time><name>PT545</name></trkpt>
<trkpt lat="53.344297" lon="-1.942953"><ele>312</ele><time>2021-10-01T10:07:50Z</time><name>PT546</name></trkpt>
<trkpt lat="53.344301" lon="-1.942948"><ele>312</ele><time>2021-10-01T10:07:51Z</time><name>PT547</name></trkpt>
<trkpt lat="53.344305" lon="-1.942943"><ele>312</ele><time>2021-10-01T10:07:52Z</time><name>PT548</name></trkpt>
<trkpt lat="53.344313" lon="-1.942934"><ele>312</ele><time>2021-10-01T10:07:53Z</time><name>PT549</name></trkpt>
<trkpt lat="53.344324" lon="-1.942924"><ele>313</ele><time>2021-10-01T10:07:54Z</time><name>PT550</name></trkpt>
<trkpt lat="53.344334" lon="-1.942914"><ele>314</ele><time>2021-10-01T10:07:55Z</time><name>PT551</name></trkpt>
<trkpt lat="53.344343" lon="-1.942904"><ele>314</ele><time>2021-10-01T10:07:56Z</time><name>PT552</name></trkpt>
<trkpt lat="53.344349" lon="-1.942892"><ele>314</ele><time>2021-10-01T10:07:57Z</time><name>PT553</name></trkpt>
<trkpt lat="53.344355" lon="-1.942879"><ele>314</ele><time>2021-10-01T10:07:58Z</time><name>PT554</name></trkpt>
<trkpt lat="53.344367" lon="-1.942870"><ele>314</ele><time>2021-10-01T10:07:59Z</time><name>PT555</name></trkpt>
<trkpt lat="53.344377" lon="-1.942861"><ele>314</ele><time>2021-10-01T10:08:00Z</time><name>PT556</name></trkpt>
<trkpt lat="53.344385" lon="-1.942850"><ele>314</ele><time>2021-10-01T10:08:01Z</time><name>PT557</name></trkpt>
<trkpt lat="53.344392" lon="-1.942840"><ele>315</ele><time>2021-10-01T10:08:02Z</time><name>PT558</name></trkpt>
<trkpt lat="53.344398" lon="-1.942828"><ele>314</ele><time>2021-10-01T10:08:03Z</time><name>PT559</name></trkpt>
<trkpt lat="53.344406" lon="-1.942818"><ele>314</ele><time>2021-10-01T10:08:04Z</time><name>PT560</name></trkpt>
<trkpt lat="53.344416" lon="-1.942806"><ele>314</ele><time>2021-10-01T10:08:05Z</time><name>PT561</name></trkpt>
<trkpt lat="53.344426" lon="-1.942797"><ele>314</ele><time>2021-10-01T10:08:06Z</time><name>PT562</name></trkpt>
<trkpt lat="53.344433" lon="-1.942788"><ele>314</ele><time>2021-10-01T10:08:07Z</time><name>PT563</name></trkpt>
<trkpt lat="53.344441" lon="-1.942779"><ele>314</ele><time>2021-10-01T10:08:08Z</time><name>PT564</name></trkpt>
<trkpt lat="53.344450" lon="-1.942771"><ele>314</ele><time>2021-10-01T10:08:09Z</time><name>PT565</name></trkpt>
<trkpt lat="53.344458" lon="-1.942762"><ele>314</ele><time>2021-10-01T10:08:10Z</time><name>PT566</name></trkpt>
<trkpt lat="53.344468" lon="-1.942753"><ele>313</ele><time>2021-10-01T10:08:11Z</time><name>PT567</name></trkpt>
<trkpt lat="53.344479" lon="-1.942743"><ele>314</ele><time>2021-10-01T10:08:12Z</time><name>PT568</name></trkpt>
<trkpt lat="53.344487" lon="-1.942732"><ele>314</ele><time>2021-10-01T10:08:13Z</time><name>PT569</name></trkpt>
<trkpt lat="53.344494" lon="-1.942725"><ele>314</ele><time>2021-10-01T10:08:14Z</time><name>PT570</name></trkpt>
<trkpt lat="53.344501" lon="-1.942716"><ele>313</ele><time>2021-10-01T10:08:15Z</time><name>PT571</name></trkpt>
<trkpt lat="53.344506" lon="-1.942707"><ele>313</ele><time>2021-10-01T10:08:16Z</time><name>PT572</name></trkpt>
<trkpt lat="53.344511" lon="-1.942698"><ele>313</ele><time>2021-10-01T10:08:17Z</time><name>PT573</name></trkpt>
<trkpt lat="53.344519" lon="-1.942690"><ele>312</ele><time>2021-10-01T10:08:18Z</time><name>PT574</name></trkpt>
<trkpt lat="53.344524" lon="-1.942682"><ele>312</ele><time>2021-10-01T10:08:19Z</time><name>PT575</name></trkpt>
<trkpt lat="53.344531" lon="-1.942674"><ele>312</ele><time>2021-10-01T10:08:20Z</time><name>PT576</name></trkpt>
<trkpt lat="53.344535" lon="-1.942663"><ele>312</ele><time>2021-10-01T10:08:21Z</time><name>PT577</name></trkpt>
<trkpt lat="53.344544" lon="-1.942656"><ele>313</ele><time>2021-10-01T10:08:22Z</time><name>PT578</name></trkpt>
<trkpt lat="53.344554" lon="-1.942648"><ele>313</ele><time>2021-10-01T10:08:23Z</time><name>PT579</name></trkpt>
<trkpt lat="53.344563" lon="-1.942641"><ele>313</ele><time>2021-10-01T10:08:24Z</time><name>PT580</name></trkpt>
<trkpt lat="53.344573" lon="-1.942635"><ele>313</ele><time>2021-10-01T10:08:25Z</time><name>PT581</name></trkpt>
<trkpt lat="53.344582" lon="-1.942628"><ele>313</ele><time>2021-10-01T10:08:26Z</time><name>PT582</name></trkpt>
<trkpt lat="53.344590" lon="-1.942621"><ele>314</ele><time>2021-10-01T10:08:27Z</time><name>PT583</name></trkpt>
<trkpt lat="53.344600" lon="-1.942618"><ele>314</ele><time>2021-10-01T10:08:28Z</time><name>PT584</name></trkpt>
<trkpt lat="53.344611" lon="-1.942614"><ele>314</ele><time>2021-10-01T10:08:29Z</time><name>PT585</name></trkpt>
<trkpt lat="53.344622" lon="-1.942616"><ele>314</ele><time>2021-10-01T10:08:30Z</time><name>PT586</name></trkpt>
<trkpt lat="53.344631" lon="-1.942613"><ele>315</ele><time>2021-10-01T10:08:31Z</time><name>PT587</name></trkpt>
<trkpt lat="53.344638" lon="-1.942612"><ele>315</ele><time>2021-10-01T10:08:32Z</time><name>PT588</name></trkpt>
<trkpt lat="53.344644" lon="-1.942613"><ele>316</ele><time>2021-10-01T10:08:33Z</time><name>PT589</name></trkpt>
<trkpt lat="53.344651" lon="-1.942617"><ele>316</ele><time>2021-10-01T10:08:34Z</time><name>PT590</name></trkpt>
<trkpt lat="53.344662" lon="-1.942624"><ele>317</ele><time>2021-10-01T10:08:35Z</time><name>PT591</name></trkpt>
<trkpt lat="53.344677" lon="-1.942632"><ele>319</ele><time>2021-10-01T10:08:36Z</time><name>PT592</name></trkpt>
<trkpt lat="53.344685" lon="-1.942645"><ele>319</ele><time>2021-10-01T10:08:37Z</time><name>PT593</name></trkpt>
<trkpt lat="53.344697" lon="-1.942656"><ele>320</ele><time>2021-10-01T10:08:38Z</time><name>PT594</name></trkpt>
<trkpt lat="53.344707" lon="-1.942670"><ele>321</ele><time>2021-10-01T10:08:39Z</time><name>PT595</name></trkpt>
<trkpt lat="53.344716" lon="-1.942682"><ele>321</ele><time>2021-10-01T10:08:41Z</time><name>PT596</name></trkpt>
<trkpt lat="53.344725" lon="-1.942693"><ele>322</ele><time>2021-10-01T10:08:41Z</time><name>PT597</name></trkpt>
<trkpt lat="53.344735" lon="-1.942707"><ele>323</ele><time>2021-10-01T10:08:42Z</time><name>PT598</name></trkpt>
<trkpt lat="53.344742" lon="-1.942718"><ele>323</ele><time>2021-10-01T10:08:43Z</time><name>PT599</name></trkpt>
<trkpt lat="53.344750" lon="-1.942727"><ele>324</ele><time>2021-10-01T10:08:44Z</time><name>PT600</name></trkpt>
<trkpt lat="53.344755" lon="-1.942734"><ele>324</ele><time>2021-10-01T10:08:45Z</time><name>PT601</name></trkpt>
<trkpt lat="53.344761" lon="-1.942743"><ele>324</ele><time>2021-10-01T10:08:46Z</time><name>PT602</name></trkpt>
<trkpt lat="53.344764" lon="-1.942750"><ele>324</ele><time>2021-10-01T10:08:47Z</time><name>PT603</name></trkpt>
<trkpt lat="53.344767" lon="-1.942752"><ele>324</ele><time>2021-10-01T10:08:48Z</time><name>PT604</name></trkpt>
<trkpt lat="53.344769" lon="-1.942753"><ele>324</ele><time>2021-10-01T10:08:49Z</time><name>PT605</name></trkpt>
<trkpt lat="53.344769" lon="-1.942755"><ele>324</ele><time>2021-10-01T10:08:50Z</time><name>PT606</name></trkpt>
<trkpt lat="53.344771" lon="-1.942759"><ele>324</ele><time>2021-10-01T10:08:51Z</time><name>PT607</name></trkpt>
<trkpt lat="53.344775" lon="-1.942766"><ele>324</ele><time>2021-10-01T10:08:52Z</time><name>PT608</name></trkpt>
<trkpt lat="53.344780" lon="-1.942777"><ele>324</ele><time>2021-10-01T10:08:53Z</time><name>PT609</name></trkpt>
<trkpt lat="53.344784" lon="-1.942788"><ele>324</ele><time>2021-10-01T10:08:54Z</time><name>PT610</name></trkpt>
<trkpt lat="53.344787" lon="-1.942793"><ele>324</ele><time>2021-10-01T10:08:55Z</time><name>PT611</name></trkpt>
<trkpt lat="53.344791" lon="-1.942793"><ele>325</ele><time>2021-10-01T10:08:56Z</time><name>PT612</name></trkpt>
<trkpt lat="53.344791" lon="-1.942793"><ele>325</ele><time>2021-10-01T10:08:57Z</time><name>PT613</name></trkpt>
<trkpt lat="53.344792" lon="-1.942792"><ele>325</ele><time>2021-10-01T10:09:03Z</time><name>PT614</name></trkpt>
<trkpt lat="53.344793" lon="-1.942791"><ele>324</ele><time>2021-10-01T10:09:04Z</time><name>PT615</name></trkpt>
<trkpt lat="53.344800" lon="-1.942804"><ele>324</ele><time>2021-10-01T10:09:27Z</time><name>PT616</name></trkpt>
<trkpt lat="53.344808" lon="-1.942816"><ele>324</ele><time>2021-10-01T10:09:28Z</time><name>PT617</name></trkpt>
<trkpt lat="53.344814" lon="-1.942825"><ele>324</ele><time>2021-10-01T10:09:29Z</time><name>PT618</name></trkpt>
<trkpt lat="53.344821" lon="-1.942836"><ele>323</ele><time>2021-10-01T10:09:30Z</time><name>PT619</name></trkpt>
<trkpt lat="53.344830" lon="-1.942848"><ele>323</ele><time>2021-10-01T10:09:31Z</time><name>PT620</name></trkpt>
<trkpt lat="53.344840" lon="-1.942864"><ele>323</ele><time>2021-10-01T10:09:32Z</time><name>PT621</name></trkpt>
<trkpt lat="53.344850" lon="-1.942869"><ele>323</ele><time>2021-10-01T10:09:33Z</time><name>PT622</name></trkpt>
<trkpt lat="53.344856" lon="-1.942882"><ele>323</ele><time>2021-10-01T10:09:34Z</time><name>PT623</name></trkpt>
<trkpt lat="53.344864" lon="-1.942894"><ele>323</ele><time>2021-10-01T10:09:35Z</time><name>PT624</name></trkpt>
<trkpt lat="53.344872" lon="-1.942905"><ele>324</ele><time>2021-10-01T10:09:36Z</time><name>PT625</name></trkpt>
<trkpt lat="53.344882" lon="-1.942916"><ele>323</ele><time>2021-10-01T10:09:37Z</time><name>PT626</name></trkpt>
<trkpt lat="53.344890" lon="-1.942925"><ele>323</ele><time>2021-10-01T10:09:38Z</time><name>PT627</name></trkpt>
<trkpt lat="53.344899" lon="-1.942934"><ele>323</ele><time>2021-10-01T10:09:39Z</time><name>PT628</name></trkpt>
<trkpt lat="53.344909" lon="-1.942944"><ele>323</ele><time>2021-10-01T10:09:40Z</time><name>PT629</name></trkpt>
<trkpt lat="53.344918" lon="-1.942955"><ele>323</ele><time>2021-10-01T10:09:41Z</time><name>PT630</name></trkpt>
<trkpt lat="53.344928" lon="-1.942966"><ele>323</ele><time>2021-10-01T10:09:42Z</time><name>PT631</name></trkpt>
<trkpt lat="53.344937" lon="-1.942974"><ele>323</ele><time>2021-10-01T10:09:43Z</time><name>PT632</name></trkpt>
<trkpt lat="53.344945" lon="-1.942985"><ele>323</ele><time>2021-10-01T10:09:44Z</time><name>PT633</name></trkpt>
<trkpt lat="53.344952" lon="-1.942994"><ele>323</ele><time>2021-10-01T10:09:45Z</time><name>PT634</name></trkpt>
<trkpt lat="53.344958" lon="-1.943005"><ele>323</ele><time>2021-10-01T10:09:46Z</time><name>PT635</name></trkpt>
<trkpt lat="53.344964" lon="-1.943016"><ele>323</ele><time>2021-10-01T10:09:47Z</time><name>PT636</name></trkpt>
<trkpt lat="53.344971" lon="-1.943028"><ele>323</ele><time>2021-10-01T10:09:48Z</time><name>PT637</name></trkpt>
<trkpt lat="53.344975" lon="-1.943034"><ele>323</ele><time>2021-10-01T10:09:49Z</time><name>PT638</name></trkpt>
<trkpt lat="53.344982" lon="-1.943040"><ele>323</ele><time>2021-10-01T10:09:50Z</time><name>PT639</name></trkpt>
<trkpt lat="53.344989" lon="-1.943047"><ele>323</ele><time>2021-10-01T10:09:51Z</time><name>PT640</name></trkpt>
<trkpt lat="53.344997" lon="-1.943057"><ele>323</ele><time>2021-10-01T10:09:52Z</time><name>PT641</name></trkpt>
<trkpt lat="53.345004" lon="-1.943066"><ele>323</ele><time>2021-10-01T10:09:53Z</time><name>PT642</name></trkpt>
<trkpt lat="53.345011" lon="-1.943076"><ele>323</ele><time>2021-10-01T10:09:54Z</time><name>PT643</name></trkpt>
<trkpt lat="53.345014" lon="-1.943085"><ele>323</ele><time>2021-10-01T10:09:55Z</time><name>PT644</name></trkpt>
<trkpt lat="53.345014" lon="-1.943090"><ele>322</ele><time>2021-10-01T10:09:56Z</time><name>PT645</name></trkpt>
<trkpt lat="53.345015" lon="-1.943093"><ele>322</ele><time>2021-10-01T10:09:57Z</time><name>PT646</name></trkpt>
<trkpt lat="53.345022" lon="-1.943099"><ele>322</ele><time>2021-10-01T10:09:58Z</time><name>PT647</name></trkpt>
<trkpt lat="53.345030" lon="-1.943100"><ele>322</ele><time>2021-10-01T10:09:59Z</time><name>PT648</name></trkpt>
<trkpt lat="53.345038" lon="-1.943107"><ele>323</ele><time>2021-10-01T10:10:00Z</time><name>PT649</name></trkpt>
<trkpt lat="53.345048" lon="-1.943119"><ele>323</ele><time>2021-10-01T10:10:01Z</time><name>PT650</name></trkpt>
<trkpt lat="53.345057" lon="-1.943129"><ele>323</ele><time>2021-10-01T10:10:02Z</time><name>PT651</name></trkpt>
<trkpt lat="53.345068" lon="-1.943137"><ele>323</ele><time>2021-10-01T10:10:03Z</time><name>PT652</name></trkpt>
<trkpt lat="53.345078" lon="-1.943143"><ele>323</ele><time>2021-10-01T10:10:04Z</time><name>PT653</name></trkpt>
<trkpt lat="53.345088" lon="-1.943153"><ele>323</ele><time>2021-10-01T10:10:05Z</time><name>PT654</name></trkpt>
<trkpt lat="53.345097" lon="-1.943167"><ele>323</ele><time>2021-10-01T10:10:06Z</time><name>PT655</name></trkpt>
<trkpt lat="53.345110" lon="-1.943180"><ele>323</ele><time>2021-10-01T10:10:07Z</time><name>PT656</name></trkpt>
<trkpt lat="53.345119" lon="-1.943188"><ele>323</ele><time>2021-10-01T10:10:08Z</time><name>PT657</name></trkpt>
<trkpt lat="53.345130" lon="-1.943199"><ele>323</ele><time>2021-10-01T10:10:09Z</time><name>PT658</name></trkpt>
<trkpt lat="53.345141" lon="-1.943215"><ele>323</ele><time>2021-10-01T10:10:10Z</time><name>PT659</name></trkpt>
<trkpt lat="53.345150" lon="-1.943226"><ele>323</ele><time>2021-10-01T10:10:11Z</time><name>PT660</name></trkpt>
<trkpt lat="53.345161" lon="-1.943237"><ele>324</ele><time>2021-10-01T10:10:12Z</time><name>PT661</name></trkpt>
<trkpt lat="53.345168" lon="-1.943250"><ele>323</ele><time>2021-10-01T10:10:13Z</time><name>PT662</name></trkpt>
<trkpt lat="53.345177" lon="-1.943261"><ele>323</ele><time>2021-10-01T10:10:14Z</time><name>PT663</name></trkpt>
<trkpt lat="53.345187" lon="-1.943271"><ele>323</ele><time>2021-10-01T10:10:15Z</time><name>PT664</name></trkpt>
<trkpt lat="53.345195" lon="-1.943281"><ele>323</ele><time>2021-10-01T10:10:16Z</time><name>PT665</name></trkpt>
<trkpt lat="53.345205" lon="-1.943291"><ele>323</ele><time>2021-10-01T10:10:17Z</time><name>PT666</name></trkpt>
<trkpt lat="53.345218" lon="-1.943302"><ele>323</ele><time>2021-10-01T10:10:18Z</time><name>PT667</name></trkpt>
<trkpt lat="53.345229" lon="-1.943313"><ele>323</ele><time>2021-10-01T10:10:19Z</time><name>PT668</name></trkpt>
<trkpt lat="53.345238" lon="-1.943323"><ele>323</ele><time>2021-10-01T10:10:20Z</time><name>PT669</name></trkpt>
<trkpt lat="53.345249" lon="-1.943332"><ele>323</ele><time>2021-10-01T10:10:21Z</time><name>PT670</name></trkpt>
<trkpt lat="53.345258" lon="-1.943340"><ele>323</ele><time>2021-10-01T10:10:22Z</time><name>PT671</name></trkpt>
<trkpt lat="53.345268" lon="-1.943349"><ele>323</ele><time>2021-10-01T10:10:23Z</time><name>PT672</name></trkpt>
<trkpt lat="53.345279" lon="-1.943360"><ele>322</ele><time>2021-10-01T10:10:24Z</time><name>PT673</name></trkpt>
<trkpt lat="53.345288" lon="-1.943370"><ele>322</ele><time>2021-10-01T10:10:25Z</time><name>PT674</name></trkpt>
<trkpt lat="53.345299" lon="-1.943380"><ele>322</ele><time>2021-10-01T10:10:26Z</time><name>PT675</name></trkpt>
<trkpt lat="53.345309" lon="-1.943389"><ele>322</ele><time>2021-10-01T10:10:27Z</time><name>PT676</name></trkpt>
<trkpt lat="53.345321" lon="-1.943403"><ele>322</ele><time>2021-10-01T10:10:28Z</time><name>PT677</name></trkpt>
<trkpt lat="53.345331" lon="-1.943416"><ele>322</ele><time>2021-10-01T10:10:29Z</time><name>PT678</name></trkpt>
<trkpt lat="53.345341" lon="-1.943426"><ele>322</ele><time>2021-10-01T10:10:30Z</time><name>PT679</name></trkpt>
<trkpt lat="53.345351" lon="-1.943437"><ele>322</ele><time>2021-10-01T10:10:31Z</time><name>PT680</name></trkpt>
<trkpt lat="53.345361" lon="-1.943448"><ele>322</ele><time>2021-10-01T10:10:32Z</time><name>PT681</name></trkpt>
<trkpt lat="53.345371" lon="-1.943459"><ele>322</ele><time>2021-10-01T10:10:33Z</time><name>PT682</name></trkpt>
<trkpt lat="53.345381" lon="-1.943471"><ele>322</ele><time>2021-10-01T10:10:34Z</time><name>PT683</name></trkpt>
<trkpt lat="53.345388" lon="-1.943478"><ele>322</ele><time>2021-10-01T10:10:35Z</time><name>PT684</name></trkpt>
<trkpt lat="53.345394" lon="-1.943484"><ele>321</ele><time>2021-10-01T10:10:36Z</time><name>PT685</name></trkpt>
<trkpt lat="53.345402" lon="-1.943490"><ele>321</ele><time>2021-10-01T10:10:37Z</time><name>PT686</name></trkpt>
<trkpt lat="53.345410" lon="-1.943500"><ele>322</ele><time>2021-10-01T10:10:38Z</time><name>PT687</name></trkpt>
<trkpt lat="53.345420" lon="-1.943512"><ele>322</ele><time>2021-10-01T10:10:39Z</time><name>PT688</name></trkpt>
<trkpt lat="53.345431" lon="-1.943524"><ele>321</ele><time>2021-10-01T10:10:40Z</time><name>PT689</name></trkpt>
<trkpt lat="53.345439" lon="-1.943531"><ele>321</ele><time>2021-10-01T10:10:41Z</time><name>PT690</name></trkpt>
<trkpt lat="53.345447" lon="-1.943537"><ele>321</ele><time>2021-10-01T10:10:42Z</time><name>PT691</name></trkpt>
<trkpt lat="53.345457" lon="-1.943541"><ele>321</ele><time>2021-10-01T10:10:44Z</time><name>PT692</name></trkpt>
<trkpt lat="53.345467" lon="-1.943542"><ele>320</ele><time>2021-10-01T10:10:44Z</time><name>PT693</name></trkpt>
<trkpt lat="53.345478" lon="-1.943547"><ele>320</ele><time>2021-10-01T10:10:45Z</time><name>PT694</name></trkpt>
<trkpt lat="53.345487" lon="-1.943554"><ele>320</ele><time>2021-10-01T10:10:46Z</time><name>PT695</name></trkpt>
<trkpt lat="53.345496" lon="-1.943561"><ele>320</ele><time>2021-10-01T10:10:47Z</time><name>PT696</name></trkpt>
<trkpt lat="53.345505" lon="-1.943565"><ele>319</ele><time>2021-10-01T10:10:48Z</time><name>PT697</name></trkpt>
<trkpt lat="53.345516" lon="-1.943572"><ele>320</ele><time>2021-10-01T10:10:49Z</time><name>PT698</name></trkpt>
<trkpt lat="53.345527" lon="-1.943579"><ele>319</ele><time>2021-10-01T10:10:50Z</time><name>PT699</name></trkpt>
<trkpt lat="53.345535" lon="-1.943582"><ele>319</ele><time>2021-10-01T10:10:51Z</time><name>PT700</name></trkpt>
<trkpt lat="53.345544" lon="-1.943586"><ele>319</ele><time>2021-10-01T10:10:52Z</time><name>PT701</name></trkpt>
<trkpt lat="53.345551" lon="-1.943592"><ele>319</ele><time>2021-10-01T10:10:53Z</time><name>PT702</name></trkpt>
<trkpt lat="53.345561" lon="-1.943600"><ele>319</ele><time>2021-10-01T10:10:54Z</time><name>PT703</name></trkpt>
<trkpt lat="53.345572" lon="-1.943609"><ele>319</ele><time>2021-10-01T10:10:55Z</time><name>PT704</name></trkpt>
<trkpt lat="53.345583" lon="-1.943619"><ele>319</ele><time>2021-10-01T10:10:56Z</time><name>PT705</name></trkpt>
<trkpt lat="53.345591" lon="-1.943633"><ele>319</ele><time>2021-10-01T10:10:57Z</time><name>PT706</name></trkpt>
<trkpt lat="53.345603" lon="-1.943646"><ele>319</ele><time>2021-10-01T10:10:58Z</time><name>PT707</name></trkpt>
<trkpt lat="53.345611" lon="-1.943654"><ele>319</ele><time>2021-10-01T10:10:59Z</time><name>PT708</name></trkpt>
<trkpt lat="53.345619" lon="-1.943661"><ele>320</ele><time>2021-10-01T10:11:00Z</time><name>PT709</name></trkpt>
<trkpt lat="53.345623" lon="-1.943668"><ele>319</ele><time>2021-10-01T10:11:01Z</time><name>PT710</name></trkpt>
<trkpt lat="53.345626" lon="-1.943677"><ele>319</ele><time>2021-10-01T10:11:02Z</time><name>PT711</name></trkpt>
<trkpt lat="53.345630" lon="-1.943691"><ele>319</ele><time>2021-10-01T10:11:03Z</time><name>PT712</name></trkpt>
<trkpt lat="53.345633" lon="-1.943706"><ele>319</ele><time>2021-10-01T10:11:04Z</time><name>PT713</name></trkpt>
<trkpt lat="53.345639" lon="-1.943722"><ele>319</ele><time>2021-10-01T10:11:05Z</time><name>PT714</name></trkpt>
<trkpt lat="53.345642" lon="-1.943737"><ele>319</ele><time>2021-10-01T10:11:06Z</time><name>PT715</name></trkpt>
<trkpt lat="53.345648" lon="-1.943751"><ele>319</ele><time>2021-10-01T10:11:07Z</time><name>PT716</name></trkpt>
<trkpt lat="53.345652" lon="-1.943762"><ele>318</ele><time>2021-10-01T10:11:08Z</time><name>PT717</name></trkpt>
<trkpt lat="53.345654" lon="-1.943774"><ele>318</ele><time>2021-10-01T10:11:09Z</time><name>PT718</name></trkpt>
<trkpt lat="53.345657" lon="-1.943789"><ele>318</ele><time>2021-10-01T10:11:10Z</time><name>PT719</name></trkpt>
<trkpt lat="53.345662" lon="-1.943801"><ele>318</ele><time>2021-10-01T10:11:11Z</time><name>PT720</name></trkpt>
<trkpt lat="53.345668" lon="-1.943814"><ele>318</ele><time>2021-10-01T10:11:12Z</time><name>PT721</name></trkpt>
<trkpt lat="53.345668" lon="-1.943822"><ele>318</ele><time>2021-10-01T10:11:13Z</time><name>PT722</name></trkpt>
<trkpt lat="53.345667" lon="-1.943825"><ele>318</ele><time>2021-10-01T10:11:14Z</time><name>PT723</name></trkpt>
<trkpt lat="53.345671" lon="-1.943833"><ele>318</ele><time>2021-10-01T10:11:15Z</time><name>PT724</name></trkpt>
<trkpt lat="53.345677" lon="-1.943849"><ele>319</ele><time>2021-10-01T10:11:16Z</time><name>PT725</name></trkpt>
<trkpt lat="53.345684" lon="-1.943867"><ele>319</ele><time>2021-10-01T10:11:17Z</time><name>PT726</name></trkpt>
<trkpt lat="53.345693" lon="-1.943883"><ele>319</ele><time>2021-10-01T10:11:18Z</time><name>PT727</name></trkpt>
<trkpt lat="53.345700" lon="-1.943899"><ele>320</ele><time>2021-10-01T10:11:19Z</time><name>PT728</name></trkpt>
<trkpt lat="53.345707" lon="-1.943915"><ele>319</ele><time>2021-10-01T10:11:20Z</time><name>PT729</name></trkpt>
<trkpt lat="53.345713" lon="-1.943930"><ele>320</ele><time>2021-10-01T10:11:21Z</time><name>PT730</name></trkpt>
<trkpt lat="53.345721" lon="-1.943944"><ele>320</ele><time>2021-10-01T10:11:22Z</time><name>PT731</name></trkpt>
<trkpt lat="53.345728" lon="-1.943956"><ele>321</ele><time>2021-10-01T10:11:23Z</time><name>PT732</name></trkpt>
<trkpt lat="53.345736" lon="-1.943970"><ele>321</ele><time>2021-10-01T10:11:24Z</time><name>PT733</name></trkpt>
<trkpt lat="53.345741" lon="-1.943983"><ele>322</ele><time>2021-10-01T10:11:25Z</time><name>PT734</name></trkpt>
<trkpt lat="53.345747" lon="-1.943996"><ele>322</ele><time>2021-10-01T10:11:26Z</time><name>PT735</name></trkpt>
<trkpt lat="53.345754" lon="-1.944007"><ele>322</ele><time>2021-10-01T10:11:27Z</time><name>PT736</name></trkpt>
<trkpt lat="53.345762" lon="-1.944015"><ele>322</ele><time>2021-10-01T10:11:28Z</time><name>PT737</name></trkpt>
<trkpt lat="53.345768" lon="-1.944024"><ele>323</ele><time>2021-10-01T10:11:29Z</time><name>PT738</name></trkpt>
<trkpt lat="53.345777" lon="-1.944026"><ele>323</ele><time>2021-10-01T10:11:30Z</time><name>PT739</name></trkpt>
<trkpt lat="53.345786" lon="-1.944033"><ele>323</ele><time>2021-10-01T10:11:31Z</time><name>PT740</name></trkpt>
<trkpt lat="53.345793" lon="-1.944041"><ele>323</ele><time>2021-10-01T10:11:32Z</time><name>PT741</name></trkpt>
<trkpt lat="53.345800" lon="-1.944050"><ele>324</ele><time>2021-10-01T10:11:33Z</time><name>PT742</name></trkpt>
<trkpt lat="53.345812" lon="-1.944057"><ele>324</ele><time>2021-10-01T10:11:34Z</time><name>PT743</name></trkpt>
<trkpt lat="53.345821" lon="-1.944065"><ele>325</ele><time>2021-10-01T10:11:35Z</time><name>PT744</name></trkpt>
<trkpt lat="53.345832" lon="-1.944072"><ele>325</ele><time>2021-10-01T10:11:36Z</time><name>PT745</name></trkpt>
<trkpt lat="53.345841" lon="-1.944078"><ele>325</ele><time>2021-10-01T10:11:37Z</time><name>PT746</name></trkpt>
<trkpt lat="53.345849" lon="-1.944081"><ele>326</ele><time>2021-10-01T10:11:38Z</time><name>PT747</name></trkpt>
<trkpt lat="53.345857" lon="-1.944087"><ele>326</ele><time>2021-10-01T10:11:39Z</time><name>PT748</name></trkpt>
<trkpt lat="53.345864" lon="-1.944093"><ele>326</ele><time>2021-10-01T10:11:40Z</time><name>PT749</name></trkpt>
<trkpt lat="53.345873" lon="-1.944097"><ele>326</ele><time>2021-10-01T10:11:41Z</time><name>PT750</name></trkpt>
<trkpt lat="53.345882" lon="-1.944100"><ele>326</ele><time>2021-10-01T10:11:42Z</time><name>PT751</name></trkpt>
<trkpt lat="53.345893" lon="-1.944104"><ele>325</ele><time>2021-10-01T10:11:43Z</time><name>PT752</name></trkpt>
<trkpt lat="53.345901" lon="-1.944110"><ele>325</ele><time>2021-10-01T10:11:44Z</time><name>PT753</name></trkpt>
<trkpt lat="53.345906" lon="-1.944112"><ele>325</ele><time>2021-10-01T10:11:45Z</time><name>PT754</name></trkpt>
<trkpt lat="53.345910" lon="-1.944111"><ele>326</ele><time>2021-10-01T10:11:46Z</time><name>PT755</name></trkpt>
<trkpt lat="53.345909" lon="-1.944111"><ele>325</ele><time>2021-10-01T10:11:47Z</time><name>PT756</name></trkpt>
<trkpt lat="53.345909" lon="-1.944111"><ele>325</ele><time>2021-10-01T10:11:48Z</time><name>PT757</name></trkpt>
<trkpt lat="53.345909" lon="-1.944110"><ele>325</ele><time>2021-10-01T10:11:49Z</time><name>PT758</name></trkpt>
<trkpt lat="53.345911" lon="-1.944109"><ele>325</ele><time>2021-10-01T10:11:50Z</time><name>PT759</name></trkpt>
<trkpt lat="53.345916" lon="-1.944108"><ele>325</ele><time>2021-10-01T10:11:51Z</time><name>PT760</name></trkpt>
<trkpt lat="53.345923" lon="-1.944107"><ele>325</ele><time>2021-10-01T10:11:52Z</time><name>PT761</name></trkpt>
<trkpt lat="53.345929" lon="-1.944108"><ele>326</ele><time>2021-10-01T10:11:53Z</time><name>PT762</name></trkpt>
<trkpt lat="53.345931" lon="-1.944110"><ele>326</ele><time>2021-10-01T10:11:54Z</time><name>PT763</name></trkpt>
<trkpt lat="53.345929" lon="-1.944111"><ele>326</ele><time>2021-10-01T10:11:55Z</time><name>PT764</name></trkpt>
<trkpt lat="53.345930" lon="-1.944114"><ele>325</ele><time>2021-10-01T10:11:56Z</time><name>PT765</name></trkpt>
<trkpt lat="53.345935" lon="-1.944110"><ele>325</ele><time>2021-10-01T10:11:59Z</time><name>PT766</name></trkpt>
<trkpt lat="53.345943" lon="-1.944125"><ele>325</ele><time>2021-10-01T10:12:00Z</time><name>PT767</name></trkpt>
<trkpt lat="53.345948" lon="-1.944136"><ele>325</ele><time>2021-10-01T10:12:01Z</time><name>PT768</name></trkpt>
<trkpt lat="53.345950" lon="-1.944137"><ele>325</ele><time>2021-10-01T10:12:02Z</time><name>PT769</name></trkpt>
<trkpt lat="53.345952" lon="-1.944136"><ele>325</ele><time>2021-10-01T10:12:03Z</time><name>PT770</name></trkpt>
<trkpt lat="53.345957" lon="-1.944135"><ele>326</ele><time>2021-10-01T10:12:04Z</time><name>PT771</name></trkpt>
<trkpt lat="53.345961" lon="-1.944129"><ele>325</ele><time>2021-10-01T10:12:05Z</time><name>PT772</name></trkpt>
<trkpt lat="53.345965" lon="-1.944132"><ele>326</ele><time>2021-10-01T10:12:06Z</time><name>PT773</name></trkpt>
<trkpt lat="53.345966" lon="-1.944127"><ele>326</ele><time>2021-10-01T10:12:07Z</time><name>PT774</name></trkpt>
<trkpt lat="53.345971" lon="-1.944120"><ele>326</ele><time>2021-10-01T10:12:08Z</time><name>PT775</name></trkpt>
<trkpt lat="53.345969" lon="-1.944112"><ele>326</ele><time>2021-10-01T10:12:09Z</time><name>PT776</name></trkpt>
<trkpt lat="53.345970" lon="-1.944103"><ele>327</ele><time>2021-10-01T10:12:10Z</time><name>PT777</name></trkpt>
<trkpt lat="53.345971" lon="-1.944098"><ele>327</ele><time>2021-10-01T10:12:11Z</time><name>PT778</name></trkpt>
<trkpt lat="53.345974" lon="-1.944089"><ele>327</ele><time>2021-10-01T10:12:12Z</time><name>PT779</name></trkpt>
<trkpt lat="53.345979" lon="-1.944082"><ele>327</ele><time>2021-10-01T10:12:13Z</time><name>PT780</name></trkpt>
<trkpt lat="53.345987" lon="-1.944081"><ele>328</ele><time>2021-10-01T10:12:14Z</time><name>PT781</name></trkpt>
<trkpt lat="53.345994" lon="-1.944082"><ele>328</ele><time>2021-10-01T10:12:15Z</time><name>PT782</name></trkpt>
<trkpt lat="53.346000" lon="-1.944087"><ele>328</ele><time>2021-10-01T10:12:16Z</time><name>PT783</name></trkpt>
<trkpt lat="53.346009" lon="-1.944098"><ele>329</ele><time>2021-10-01T10:12:17Z</time><name>PT784</name></trkpt>
<trkpt lat="53.346013" lon="-1.944110"><ele>328</ele><time>2021-10-01T10:12:18Z</time><name>PT785</name></trkpt>
<trkpt lat="53.346016" lon="-1.944124"><ele>328</ele><time>2021-10-01T10:12:19Z</time><name>PT786</name></trkpt>
<trkpt lat="53.346023" lon="-1.944136"><ele>328</ele><time>2021-10-01T10:12:20Z</time><name>PT787</name></trkpt>
<trkpt lat="53.346028" lon="-1.944146"><ele>328</ele><time>2021-10-01T10:12:21Z</time><name>PT788</name></trkpt>
<trkpt lat="53.346032" lon="-1.944165"><ele>329</ele><time>2021-10-01T10:12:22Z</time><name>PT789</name></trkpt>
<trkpt lat="53.346035" lon="-1.944184"><ele>329</ele><time>2021-10-01T10:12:23Z</time><name>PT790</name></trkpt>
<trkpt lat="53.346040" lon="-1.944201"><ele>329</ele><time>2021-10-01T10:12:24Z</time><name>PT791</name></trkpt>
<trkpt lat="53.346045" lon="-1.944213"><ele>329</ele><time>2021-10-01T10:12:25Z</time><name>PT792</name></trkpt>
<trkpt lat="53.346051" lon="-1.944229"><ele>330</ele><time>2021-10-01T10:12:26Z</time><name>PT793</name></trkpt>
<trkpt lat="53.346057" lon="-1.944248"><ele>330</ele><time>2021-10-01T10:12:27Z</time><name>PT794</name></trkpt>
<trkpt lat="53.346063" lon="-1.944266"><ele>330</ele><time>2021-10-01T10:12:28Z</time><name>PT795</name></trkpt>
<trkpt lat="53.346071" lon="-1.944277"><ele>331</ele><time>2021-10-01T10:12:29Z</time><name>PT796</name></trkpt>
<trkpt lat="53.346077" lon="-1.944287"><ele>331</ele><time>2021-10-01T10:12:30Z</time><name>PT797</name></trkpt>
<trkpt lat="53.346083" lon="-1.944301"><ele>331</ele><time>2021-10-01T10:12:31Z</time><name>PT798</name></trkpt>
<trkpt lat="53.346086" lon="-1.944315"><ele>331</ele><time>2021-10-01T10:12:32Z</time><name>PT799</name></trkpt>
<trkpt lat="53.346091" lon="-1.944327"><ele>330</ele><time>2021-10-01T10:12:33Z</time><name>PT800</name></trkpt>
<trkpt lat="53.346096" lon="-1.944335"><ele>330</ele><time>2021-10-01T10:12:34Z</time><name>PT801</name></trkpt>
<trkpt lat="53.346102" lon="-1.944342"><ele>330</ele><time>2021-10-01T10:12:35Z</time><name>PT802</name></trkpt>
<trkpt lat="53.346109" lon="-1.944347"><ele>330</ele><time>2021-10-01T10:12:36Z</time><name>PT803</name></trkpt>
<trkpt lat="53.346115" lon="-1.944353"><ele>330</ele><time>2021-10-01T10:12:37Z</time><name>PT804</name></trkpt>
<trkpt lat="53.346121" lon="-1.944359"><ele>330</ele><time>2021-10-01T10:12:38Z</time><name>PT805</name></trkpt>
<trkpt lat="53.346127" lon="-1.944368"><ele>330</ele><time>2021-10-01T10:12:39Z</time><name>PT806</name></trkpt>
<trkpt lat="53.346132" lon="-1.944375"><ele>330</ele><time>2021-10-01T10:12:40Z</time><name>PT807</name></trkpt>
<trkpt lat="53.346139" lon="-1.944375"><ele>330</ele><time>2021-10-01T10:12:41Z</time><name>PT808</name></trkpt>
<trkpt lat="53.346147" lon="-1.944372"><ele>330</ele><time>2021-10-01T10:12:42Z</time><name>PT809</name></trkpt>
<trkpt lat="53.346152" lon="-1.944370"><ele>330</ele><time>2021-10-01T10:12:43Z</time><name>PT810</name></trkpt>
<trkpt lat="53.346156" lon="-1.944369"><ele>330</ele><time>2021-10-01T10:12:44Z</time><name>PT811</name></trkpt>
<trkpt lat="53.346161" lon="-1.944370"><ele>330</ele><time>2021-10-01T10:12:45Z</time><name>PT812</name></trkpt>
<trkpt lat="53.346167" lon="-1.944377"><ele>331</ele><time>2021-10-01T10:12:46Z</time><name>PT813</name></trkpt>
<trkpt lat="53.346173" lon="-1.944383"><ele>331</ele><time>2021-10-01T10:12:47Z</time><name>PT814</name></trkpt>
<trkpt lat="53.346180" lon="-1.944390"><ele>331</ele><time>2021-10-01T10:12:48Z</time><name>PT815</name></trkpt>
<trkpt lat="53.346188" lon="-1.944398"><ele>331</ele><time>2021-10-01T10:12:49Z</time><name>PT816</name></trkpt>
<trkpt lat="53.346194" lon="-1.944403"><ele>331</ele><time>2021-10-01T10:12:50Z</time><name>PT817</name></trkpt>
<trkpt lat="53.346200" lon="-1.944412"><ele>332</ele><time>2021-10-01T10:12:51Z</time><name>PT818</name></trkpt>
<trkpt lat="53.346203" lon="-1.944420"><ele>332</ele><time>2021-10-01T10:12:52Z</time><name>PT819</name></trkpt>
<trkpt lat="53.346207" lon="-1.944425"><ele>333</ele><time>2021-10-01T10:12:53Z</time><name>PT820</name></trkpt>
<trkpt lat="53.346211" lon="-1.944428"><ele>333</ele><time>2021-10-01T10:12:54Z</time><name>PT821</name></trkpt>
<trkpt lat="53.346218" lon="-1.944435"><ele>333</ele><time>2021-10-01T10:12:55Z</time><name>PT822</name></trkpt>
<trkpt lat="53.346225" lon="-1.944446"><ele>333</ele><time>2021-10-01T10:12:56Z</time><name>PT823</name></trkpt>
<trkpt lat="53.346231" lon="-1.944455"><ele>333</ele><time>2021-10-01T10:12:57Z</time><name>PT824</name></trkpt>
<trkpt lat="53.346238" lon="-1.944465"><ele>333</ele><time>2021-10-01T10:12:58Z</time><name>PT825</name></trkpt>
<trkpt lat="53.346243" lon="-1.944474"><ele>333</ele><time>2021-10-01T10:12:59Z</time><name>PT826</name></trkpt>
<trkpt lat="53.346250" lon="-1.944482"><ele>334</ele><time>2021-10-01T10:13:00Z</time><name>PT827</name></trkpt>
<trkpt lat="53.346256" lon="-1.944490"><ele>334</ele><time>2021-10-01T10:13:01Z</time><name>PT828</name></trkpt>
<trkpt lat="53.346262" lon="-1.944496"><ele>334</ele><time>2021-10-01T10:13:02Z</time><name>PT829</name></trkpt>
<trkpt lat="53.346268" lon="-1.944497"><ele>334</ele><time>2021-10-01T10:13:03Z</time><name>PT830</name></trkpt>
<trkpt lat="53.346276" lon="-1.944497"><ele>334</ele><time>2021-10-01T10:13:04Z</time><name>PT831</name></trkpt>
<trkpt lat="53.346283" lon="-1.944500"><ele>334</ele><time>2021-10-01T10:13:05Z</time><name>PT832</name></trkpt>
<trkpt lat="53.346291" lon="-1.944500"><ele>334</ele><time>2021-10-01T10:13:06Z</time><name>PT833</name></trkpt>
<trkpt lat="53.346299" lon="-1.944503"><ele>334</ele><time>2021-10-01T10:13:07Z</time><name>PT834</name></trkpt>
<trkpt lat="53.346304" lon="-1.944506"><ele>334</ele><time>2021-10-01T10:13:08Z</time><name>PT835</name></trkpt>
<trkpt lat="53.346311" lon="-1.944512"><ele>334</ele><time>2021-10-01T10:13:09Z</time><name>PT836</name></trkpt>
<trkpt lat="53.346317" lon="-1.944516"><ele>334</ele><time>2021-10-01T10:13:10Z</time><name>PT837</name></trkpt>
<trkpt lat="53.346322" lon="-1.944518"><ele>334</ele><time>2021-10-01T10:13:11Z</time><name>PT838</name></trkpt>
<trkpt lat="53.346327" lon="-1.944521"><ele>335</ele><time>2021-10-01T10:13:12Z</time><name>PT839</name></trkpt>
<trkpt lat="53.346332" lon="-1.944529"><ele>335</ele><time>2021-10-01T10:13:13Z</time><name>PT840</name></trkpt>
<trkpt lat="53.346338" lon="-1.944536"><ele>335</ele><time>2021-10-01T10:13:14Z</time><name>PT841</name></trkpt>
<trkpt lat="53.346345" lon="-1.944539"><ele>335</ele><time>2021-10-01T10:13:15Z</time><name>PT842</name></trkpt>
<trkpt lat="53.346347" lon="-1.944540"><ele>335</ele><time>2021-10-01T10:13:16Z</time><name>PT843</name></trkpt>
<trkpt lat="53.346352" lon="-1.944545"><ele>335</ele><time>2021-10-01T10:13:17Z</time><name>PT844</name></trkpt>
<trkpt lat="53.346358" lon="-1.944549"><ele>335</ele><time>2021-10-01T10:13:18Z</time><name>PT845</name></trkpt>
<trkpt lat="53.346363" lon="-1.944554"><ele>335</ele><time>2021-10-01T10:13:19Z</time><name>PT846</name></trkpt>
<trkpt lat="53.346369" lon="-1.944561"><ele>336</ele><time>2021-10-01T10:13:20Z</time><name>PT847</name></trkpt>
<trkpt lat="53.346373" lon="-1.944567"><ele>336</ele><time>2021-10-01T10:13:21Z</time><name>PT848</name></trkpt>
<trkpt lat="53.346379" lon="-1.944570"><ele>336</ele><time>2021-10-01T10:13:22Z</time><name>PT849</name></trkpt>
<trkpt lat="53.346385" lon="-1.944577"><ele>336</ele><time>2021-10-01T10:13:23Z</time><name>PT850</name></trkpt>
<trkpt lat="53.346387" lon="-1.944591"><ele>336</ele><time>2021-10-01T10:13:24Z</time><name>PT851</name></trkpt>
<trkpt lat="53.346389" lon="-1.944607"><ele>336</ele><time>2021-10-01T10:13:25Z</time><name>PT852</name></trkpt>
<trkpt lat="53.346395" lon="-1.944619"><ele>336</ele><time>2021-10-01T10:13:26Z</time><name>PT853</name></trkpt>
<trkpt lat="53.346401" lon="-1.944632"><ele>336</ele><time>2021-10-01T10:13:27Z</time><name>PT854</name></trkpt>
<trkpt lat="53.346410" lon="-1.944661"><ele>336</ele><time>2021-10-01T10:13:29Z</time><name>PT855</name></trkpt>
<trkpt lat="53.346417" lon="-1.944674"><ele>337</ele><time>2021-10-01T10:13:30Z</time><name>PT856</name></trkpt>
<trkpt lat="53.346421" lon="-1.944689"><ele>337</ele><time>2021-10-01T10:13:31Z</time><name>PT857</name></trkpt>
<trkpt lat="53.346425" lon="-1.944703"><ele>337</ele><time>2021-10-01T10:13:32Z</time><name>PT858</name></trkpt>
<trkpt lat="53.346434" lon="-1.944717"><ele>338</ele><time>2021-10-01T10:13:33Z</time><name>PT859</name></trkpt>
<trkpt lat="53.346434" lon="-1.944733"><ele>338</ele><time>2021-10-01T10:13:34Z</time><name>PT860</name></trkpt>
<trkpt lat="53.346435" lon="-1.944745"><ele>338</ele><time>2021-10-01T10:13:35Z</time><name>PT861</name></trkpt>
<trkpt lat="53.346435" lon="-1.944752"><ele>338</ele><time>2021-10-01T10:13:36Z</time><name>PT862</name></trkpt>
<trkpt lat="53.346439" lon="-1.944767"><ele>338</ele><time>2021-10-01T10:13:37Z</time><name>PT863</name></trkpt>
<trkpt lat="53.346442" lon="-1.944780"><ele>339</ele><time>2021-10-01T10:13:38Z</time><name>PT864</name></trkpt>
<trkpt lat="53.346445" lon="-1.944792"><ele>339</ele><time>2021-10-01T10:13:39Z</time><name>PT865</name></trkpt>
<trkpt lat="53.346450" lon="-1.944805"><ele>339</ele><time>2021-10-01T10:13:40Z</time><name>PT866</name></trkpt>
<trkpt lat="53.346453" lon="-1.944819"><ele>339</ele><time>2021-10-01T10:13:41Z</time><name>PT867</name></trkpt>
<trkpt lat="53.346456" lon="-1.944830"><ele>339</ele><time>2021-10-01T10:13:42Z</time><name>PT868</name></trkpt>
<trkpt lat="53.346461" lon="-1.944840"><ele>340</ele><time>2021-10-01T10:13:43Z</time><name>PT869</name></trkpt>
<trkpt lat="53.346466" lon="-1.944848"><ele>340</ele><time>2021-10-01T10:13:44Z</time><name>PT870</name></trkpt>
<trkpt lat="53.346468" lon="-1.944857"><ele>340</ele><time>2021-10-01T10:13:45Z</time><name>PT871</name></trkpt>
<trkpt lat="53.346468" lon="-1.944868"><ele>340</ele><time>2021-10-01T10:13:46Z</time><name>PT872</name></trkpt>
<trkpt lat="53.346468" lon="-1.944880"><ele>340</ele><time>2021-10-01T10:13:47Z</time><name>PT873</name></trkpt>
<trkpt lat="53.346472" lon="-1.944885"><ele>340</ele><time>2021-10-01T10:13:48Z</time><name>PT874</name></trkpt>
<trkpt lat="53.346474" lon="-1.944890"><ele>340</ele><time>2021-10-01T10:13:49Z</time><name>PT875</name></trkpt>
<trkpt lat="53.346474" lon="-1.944894"><ele>340</ele><time>2021-10-01T10:13:50Z</time><name>PT876</name></trkpt>
<trkpt lat="53.346474" lon="-1.944899"><ele>340</ele><time>2021-10-01T10:13:51Z</time><name>PT877</name></trkpt>
<trkpt lat="53.346472" lon="-1.944906"><ele>341</ele><time>2021-10-01T10:13:52Z</time><name>PT878</name></trkpt>
<trkpt lat="53.346476" lon="-1.944909"><ele>341</ele><time>2021-10-01T10:13:53Z</time><name>PT879</name></trkpt>
<trkpt lat="53.346480" lon="-1.944916"><ele>341</ele><time>2021-10-01T10:13:54Z</time><name>PT880</name></trkpt>
<trkpt lat="53.346482" lon="-1.944919"><ele>341</ele><time>2021-10-01T10:13:55Z</time><name>PT881</name></trkpt>
<trkpt lat="53.346482" lon="-1.944918"><ele>341</ele><time>2021-10-01T10:13:56Z</time><name>PT882</name></trkpt>
<trkpt lat="53.346484" lon="-1.944925"><ele>341</ele><time>2021-10-01T10:13:57Z</time><name>PT883</name></trkpt>
<trkpt lat="53.346490" lon="-1.944937"><ele>341</ele><time>2021-10-01T10:13:58Z</time><name>PT884</name></trkpt>
<trkpt lat="53.346496" lon="-1.944955"><ele>341</ele><time>2021-10-01T10:13:59Z</time><name>PT885</name></trkpt>
<trkpt lat="53.346499" lon="-1.944973"><ele>341</ele><time>2021-10-01T10:14:00Z</time><name>PT886</name></trkpt>
<trkpt lat="53.346504" lon="-1.944983"><ele>341</ele><time>2021-10-01T10:14:01Z</time><name>PT887</name></trkpt>
<trkpt lat="53.346509" lon="-1.944992"><ele>341</ele><time>2021-10-01T10:14:02Z</time><name>PT888</name></trkpt>
<trkpt lat="53.346513" lon="-1.945002"><ele>342</ele><time>2021-10-01T10:14:03Z</time><name>PT889</name></trkpt>
<trkpt lat="53.346516" lon="-1.945014"><ele>342</ele><time>2021-10-01T10:14:04Z</time><name>PT890</name></trkpt>
<trkpt lat="53.346518" lon="-1.945022"><ele>342</ele><time>2021-10-01T10:14:05Z</time><name>PT891</name></trkpt>
<trkpt lat="53.346525" lon="-1.945029"><ele>342</ele><time>2021-10-01T10:14:06Z</time><name>PT892</name></trkpt>
<trkpt lat="53.346530" lon="-1.945040"><ele>342</ele><time>2021-10-01T10:14:07Z</time><name>PT893</name></trkpt>
<trkpt lat="53.346536" lon="-1.945047"><ele>342</ele><time>2021-10-01T10:14:08Z</time><name>PT894</name></trkpt>
<trkpt lat="53.346541" lon="-1.945053"><ele>342</ele><time>2021-10-01T10:14:09Z</time><name>PT895</name></trkpt>
<trkpt lat="53.346545" lon="-1.945061"><ele>342</ele><time>2021-10-01T10:14:10Z</time><name>PT896</name></trkpt>
<trkpt lat="53.346550" lon="-1.945069"><ele>342</ele><time>2021-10-01T10:14:11Z</time><name>PT897</name></trkpt>
<trkpt lat="53.346555" lon="-1.945077"><ele>342</ele><time>2021-10-01T10:14:12Z</time><name>PT898</name></trkpt>
<trkpt lat="53.346560" lon="-1.945085"><ele>343</ele><time>2021-10-01T10:14:13Z</time><name>PT899</name></trkpt>
<trkpt lat="53.346565" lon="-1.945094"><ele>343</ele><time>2021-10-01T10:14:14Z</time><name>PT900</name></trkpt>
<trkpt lat="53.346570" lon="-1.945104"><ele>343</ele><time>2021-10-01T10:14:15Z</time><name>PT901</name></trkpt>
<trkpt lat="53.346574" lon="-1.945115"><ele>343</ele><time>2021-10-01T10:14:16Z</time><name>PT902</name></trkpt>
<trkpt lat="53.346579" lon="-1.945121"><ele>344</ele><time>2021-10-01T10:14:17Z</time><name>PT903</name></trkpt>
<trkpt lat="53.346585" lon="-1.945130"><ele>344</ele><time>2021-10-01T10:14:18Z</time><name>PT904</name></trkpt>
<trkpt lat="53.346589" lon="-1.945140"><ele>344</ele><time>2021-10-01T10:14:19Z</time><name>PT905</name></trkpt>
<trkpt lat="53.346594" lon="-1.945148"><ele>344</ele><time>2021-10-01T10:14:20Z</time><name>PT906</name></trkpt>
<trkpt lat="53.346601" lon="-1.945158"><ele>344</ele><time>2021-10-01T10:14:21Z</time><name>PT907</name></trkpt>
<trkpt lat="53.346607" lon="-1.945171"><ele>344</ele><time>2021-10-01T10:14:22Z</time><name>PT908</name></trkpt>
<trkpt lat="53.346611" lon="-1.945182"><ele>344</ele><time>2021-10-01T10:14:23Z</time><name>PT909</name></trkpt>
<trkpt lat="53.346616" lon="-1.945190"><ele>344</ele><time>2021-10-01T10:14:24Z</time><name>PT910</name></trkpt>
<trkpt lat="53.346621" lon="-1.945200"><ele>344</ele><time>2021-10-01T10:14:25Z</time><name>PT911</name></trkpt>
<trkpt lat="53.346626" lon="-1.945208"><ele>344</ele><time>2021-10-01T10:14:26Z</time><name>PT912</name></trkpt>
<trkpt lat="53.346630" lon="-1.945215"><ele>344</ele><time>2021-10-01T10:14:27Z</time><name>PT913</name></trkpt>
<trkpt lat="53.346635" lon="-1.945221"><ele>344</ele><time>2021-10-01T10:14:28Z</time><name>PT914</name></trkpt>
<trkpt lat="53.346637" lon="-1.945226"><ele>344</ele><time>2021-10-01T10:14:29Z</time><name>PT915</name></trkpt>
<trkpt lat="53.346641" lon="-1.945230"><ele>344</ele><time>2021-10-01T10:14:30Z</time><name>PT916</name></trkpt>
<trkpt lat="53.346644" lon="-1.945235"><ele>344</ele><time>2021-10-01T10:14:31Z</time><name>PT917</name></trkpt>
<trkpt lat="53.346647" lon="-1.945240"><ele>344</ele><time>2021-10-01T10:14:32Z</time><name>PT918</name></trkpt>
<trkpt lat="53.346651" lon="-1.945233"><ele>344</ele><time>2021-10-01T10:14:37Z</time><name>PT919</name></trkpt>
<trkpt lat="53.346655" lon="-1.945233"><ele>344</ele><time>2021-10-01T10:14:38Z</time><name>PT920</name></trkpt>
<trkpt lat="53.346658" lon="-1.945245"><ele>345</ele><time>2021-10-01T10:14:39Z</time><name>PT921</name></trkpt>
<trkpt lat="53.346660" lon="-1.945246"><ele>345</ele><time>2021-10-01T10:14:40Z</time><name>PT922</name></trkpt>
<trkpt lat="53.346663" lon="-1.945243"><ele>345</ele><time>2021-10-01T10:14:43Z</time><name>PT923</name></trkpt>
<trkpt lat="53.346668" lon="-1.945253"><ele>344</ele><time>2021-10-01T10:14:44Z</time><name>PT924</name></trkpt>
<trkpt lat="53.346672" lon="-1.945260"><ele>345</ele><time>2021-10-01T10:14:45Z</time><name>PT925</name></trkpt>
<trkpt lat="53.346677" lon="-1.945268"><ele>345</ele><time>2021-10-01T10:14:46Z</time><name>PT926</name></trkpt>
<trkpt lat="53.346683" lon="-1.945277"><ele>345</ele><time>2021-10-01T10:14:47Z</time><name>PT927</name></trkpt>
<trkpt lat="53.346689" lon="-1.945289"><ele>345</ele><time>2021-10-01T10:14:48Z</time><name>PT928</name></trkpt>
<trkpt lat="53.346696" lon="-1.945298"><ele>345</ele><time>2021-10-01T10:14:49Z</time><name>PT929</name></trkpt>
<trkpt lat="53.346699" lon="-1.945306"><ele>345</ele><time>2021-10-01T10:14:50Z</time><name>PT930</name></trkpt>
<trkpt lat="53.346706" lon="-1.945311"><ele>345</ele><time>2021-10-01T10:14:51Z</time><name>PT931</name></trkpt>
<trkpt lat="53.346711" lon="-1.945316"><ele>345</ele><time>2021-10-01T10:14:52Z</time><name>PT932</name></trkpt>
<trkpt lat="53.346721" lon="-1.945319"><ele>345</ele><time>2021-10-01T10:14:53Z</time><name>PT933</name></trkpt>
<trkpt lat="53.346727" lon="-1.945327"><ele>345</ele><time>2021-10-01T10:14:54Z</time><name>PT934</name></trkpt>
<trkpt lat="53.346732" lon="-1.945331"><ele>345</ele><time>2021-10-01T10:14:55Z</time><name>PT935</name></trkpt>
<trkpt lat="53.346735" lon="-1.945335"><ele>345</ele><time>2021-10-01T10:14:56Z</time><name>PT936</name></trkpt>
<trkpt lat="53.346736" lon="-1.945337"><ele>345</ele><time>2021-10-01T10:14:57Z</time><name>PT937</name></trkpt>
<trkpt lat="53.346736" lon="-1.945338"><ele>345</ele><time>2021-10-01T10:14:58Z</time><name>PT938</name></trkpt>
<trkpt lat="53.346736" lon="-1.945340"><ele>345</ele><time>2021-10-01T10:14:59Z</time><name>PT939</name></trkpt>
<trkpt lat="53.346742" lon="-1.945343"><ele>345</ele><time>2021-10-01T10:15:00Z</time><name>PT940</name></trkpt>
<trkpt lat="53.346744" lon="-1.945350"><ele>345</ele><time>2021-10-01T10:15:01Z</time><name>PT941</name></trkpt>
<trkpt lat="53.346750" lon="-1.945355"><ele>346</ele><time>2021-10-01T10:15:02Z</time><name>PT942</name></trkpt>
<trkpt lat="53.346753" lon="-1.945363"><ele>346</ele><time>2021-10-01T10:15:03Z</time><name>PT943</name></trkpt>
<trkpt lat="53.346756" lon="-1.945367"><ele>347</ele><time>2021-10-01T10:15:04Z</time><name>PT944</name></trkpt>
<trkpt lat="53.346759" lon="-1.945374"><ele>347</ele><time>2021-10-01T10:15:05Z</time><name>PT945</name></trkpt>
<trkpt lat="53.346762" lon="-1.945381"><ele>347</ele><time>2021-10-01T10:15:06Z</time><name>PT946</name></trkpt>
<trkpt lat="53.346765" lon="-1.945386"><ele>348</ele><time>2021-10-01T10:15:07Z</time><name>PT947</name></trkpt>
<trkpt lat="53.346766" lon="-1.945390"><ele>348</ele><time>2021-10-01T10:15:08Z</time><name>PT948</name></trkpt>
<trkpt lat="53.346771" lon="-1.945397"><ele>348</ele><time>2021-10-01T10:15:09Z</time><name>PT949</name></trkpt>
<trkpt lat="53.346772" lon="-1.945399"><ele>348</ele><time>2021-10-01T10:15:10Z</time><name>PT950</name></trkpt>
<trkpt lat="53.346769" lon="-1.945402"><ele>349</ele><time>2021-10-01T10:15:11Z</time><name>PT951</name></trkpt>
<trkpt lat="53.346770" lon="-1.945407"><ele>350</ele><time>2021-10-01T10:15:12Z</time><name>PT952</name></trkpt>
<trkpt lat="53.346772" lon="-1.945417"><ele>350</ele><time>2021-10-01T10:15:13Z</time><name>PT953</name></trkpt>
<trkpt lat="53.346774" lon="-1.945420"><ele>350</ele><time>2021-10-01T10:15:14Z</time><name>PT954</name></trkpt>
<trkpt lat="53.346774" lon="-1.945424"><ele>350</ele><time>2021-10-01T10:15:15Z</time><name>PT955</name></trkpt>
<trkpt lat="53.346776" lon="-1.945434"><ele>349</ele><time>2021-10-01T10:15:16Z</time><name>PT956</name></trkpt>
<trkpt lat="53.346782" lon="-1.945436"><ele>350</ele><time>2021-10-01T10:15:17Z</time><name>PT957</name></trkpt>
<trkpt lat="53.346785" lon="-1.945437"><ele>350</ele><time>2021-10-01T10:15:18Z</time><name>PT958</name></trkpt>
<trkpt lat="53.346790" lon="-1.945437"><ele>350</ele><time>2021-10-01T10:15:19Z</time><name>PT959</name></trkpt>
<trkpt lat="53.346794" lon="-1.945443"><ele>350</ele><time>2021-10-01T10:15:21Z</time><name>PT960</name></trkpt>
<trkpt lat="53.346801" lon="-1.945449"><ele>350</ele><time>2021-10-01T10:15:22Z</time><name>PT961</name></trkpt>
<trkpt lat="53.346815" lon="-1.945461"><ele>351</ele><time>2021-10-01T10:15:23Z</time><name>PT962</name></trkpt>
<trkpt lat="53.346823" lon="-1.945476"><ele>351</ele><time>2021-10-01T10:15:24Z</time><name>PT963</name></trkpt>
<trkpt lat="53.346825" lon="-1.945478"><ele>351</ele><time>2021-10-01T10:15:25Z</time><name>PT964</name></trkpt>
<trkpt lat="53.346828" lon="-1.945482"><ele>351</ele><time>2021-10-01T10:15:26Z</time><name>PT965</name></trkpt>
<trkpt lat="53.346833" lon="-1.945483"><ele>352</ele><time>2021-10-01T10:15:27Z</time><name>PT966</name></trkpt>
<trkpt lat="53.346837" lon="-1.945488"><ele>351</ele><time>2021-10-01T10:15:28Z</time><name>PT967</name></trkpt>
<trkpt lat="53.346841" lon="-1.945491"><ele>352</ele><time>2021-10-01T10:15:29Z</time><name>PT968</name></trkpt>
<trkpt lat="53.346845" lon="-1.945497"><ele>352</ele><time>2021-10-01T10:15:30Z</time><name>PT969</name></trkpt>
<trkpt lat="53.346849" lon="-1.945503"><ele>352</ele><time>2021-10-01T10:15:31Z</time><name>PT970</name></trkpt>
<trkpt lat="53.346854" lon="-1.945506"><ele>352</ele><time>2021-10-01T10:15:32Z</time><name>PT971</name></trkpt>
<trkpt lat="53.346855" lon="-1.945513"><ele>351</ele><time>2021-10-01T10:15:33Z</time><name>PT972</name></trkpt>
<trkpt lat="53.346857" lon="-1.945517"><ele>351</ele><time>2021-10-01T10:15:34Z</time><name>PT973</name></trkpt>
<trkpt lat="53.346860" lon="-1.945517"><ele>351</ele><time>2021-10-01T10:15:35Z</time><name>PT974</name></trkpt>
<trkpt lat="53.346860" lon="-1.945518"><ele>351</ele><time>2021-10-01T10:15:36Z</time><name>PT975</name></trkpt>
<trkpt lat="53.346860" lon="-1.945517"><ele>351</ele><time>2021-10-01T10:15:37Z</time><name>PT976</name></trkpt>
<trkpt lat="53.346859" lon="-1.945517"><ele>351</ele><time>2021-10-01T10:15:38Z</time><name>PT977</name></trkpt>
<trkpt lat="53.346860" lon="-1.945515"><ele>351</ele><time>2021-10-01T10:15:40Z</time><name>PT978</name></trkpt>
<trkpt lat="53.346864" lon="-1.945519"><ele>352</ele><time>2021-10-01T10:15:41Z</time><name>PT979</name></trkpt>
<trkpt lat="53.346868" lon="-1.945523"><ele>352</ele><time>2021-10-01T10:15:42Z</time><name>PT980</name></trkpt>
<trkpt lat="53.346870" lon="-1.945524"><ele>352</ele><time>2021-10-01T10:15:43Z</time><name>PT981</name></trkpt>
<trkpt lat="53.346871" lon="-1.945529"><ele>352</ele><time>2021-10-01T10:15:44Z</time><name>PT982</name></trkpt>
<trkpt lat="53.346878" lon="-1.945532"><ele>352</ele><time>2021-10-01T10:15:45Z</time><name>PT983</name></trkpt>
<trkpt lat="53.346880" lon="-1.945533"><ele>352</ele><time>2021-10-01T10:15:46Z</time><name>PT984</name></trkpt>
<trkpt lat="53.346880" lon="-1.945531"><ele>352</ele><time>2021-10-01T10:15:47Z</time><name>PT985</name></trkpt>
<trkpt lat="53.346885" lon="-1.945531"><ele>352</ele><time>2021-10-01T10:15:48Z</time><name>PT986</name></trkpt>
<trkpt lat="53.346889" lon="-1.945526"><ele>352</ele><time>2021-10-01T10:15:49Z</time><name>PT987</name></trkpt>
<trkpt lat="53.346891" lon="-1.945523"><ele>352</ele><time>2021-10-01T10:15:50Z</time><name>PT988</name></trkpt>
<trkpt lat="53.346894" lon="-1.945517"><ele>352</ele><time>2021-10-01T10:15:51Z</time><name>PT989</name></trkpt>
<trkpt lat="53.346898" lon="-1.945514"><ele>352</ele><time>2021-10-01T10:15:52Z</time><name>PT990</name></trkpt>
<trkpt lat="53.346897" lon="-1.945506"><ele>352</ele><time>2021-10-01T10:15:53Z</time><name>PT991</name></trkpt>
<trkpt lat="53.346897" lon="-1.945502"><ele>352</ele><time>2021-10-01T10:15:54Z</time><name>PT992</name></trkpt>
<trkpt lat="53.346899" lon="-1.945503"><ele>353</ele><time>2021-10-01T10:15:55Z</time><name>PT993</name></trkpt>
<trkpt lat="53.346898" lon="-1.945506"><ele>352</ele><time>2021-10-01T10:15:56Z</time><name>PT994</name></trkpt>
<trkpt lat="53.346898" lon="-1.945511"><ele>352</ele><time>2021-10-01T10:15:57Z</time><name>PT995</name></trkpt>
<trkpt lat="53.346900" lon="-1.945511"><ele>352</ele><time>2021-10-01T10:15:58Z</time><name>PT996</name></trkpt>
<trkpt lat="53.346907" lon="-1.945502"><ele>352</ele><time>2021-10-01T10:15:59Z</time><name>PT997</name></trkpt>
<trkpt lat="53.346910" lon="-1.945500"><ele>352</ele><time>2021-10-01T10:16:00Z</time><name>PT998</name></trkpt>
<trkpt lat="53.346908" lon="-1.945501"><ele>352</ele><time>2021-10-01T10:16:01Z</time><name>PT999</name></trkpt>
<trkpt lat="53.346909" lon="-1.945499"><ele>353</ele><time>2021-10-01T10:16:02Z</time><name>PT1000</name></trkpt>
<trkpt lat="53.346912" lon="-1.945492"><ele>353</ele><time>2021-10-01T10:16:03Z</time><name>PT1001</name></trkpt>
<trkpt lat="53.346915" lon="-1.945489"><ele>353</ele><time>2021-10-01T10:16:04Z</time><name>PT1002</name></trkpt>
<trkpt lat="53.346916" lon="-1.945491"><ele>353</ele><time>2021-10-01T10:16:05Z</time><name>PT1003</name></trkpt>
<trkpt lat="53.346920" lon="-1.945493"><ele>354</ele><time>2021-10-01T10:16:06Z</time><name>PT1004</name></trkpt>
<trkpt lat="53.346921" lon="-1.945494"><ele>353</ele><time>2021-10-01T10:16:07Z</time><name>PT1005</name></trkpt>
<trkpt lat="53.346922" lon="-1.945496"><ele>354</ele><time>2021-10-01T10:16:08Z</time><name>PT1006</name></trkpt>
<trkpt lat="53.346924" lon="-1.945497"><ele>354</ele><time>2021-10-01T10:16:09Z</time><name>PT1007</name></trkpt>
<trkpt lat="53.346924" lon="-1.945498"><ele>353</ele><time>2021-10-01T10:16:10Z</time><name>PT1008</name></trkpt>
<trkpt lat="53.346927" lon="-1.945499"><ele>354</ele><time>2021-10-01T10:16:11Z</time><name>PT1009</name></trkpt>
<trkpt lat="53.346927" lon="-1.945501"><ele>354</ele><time>2021-10-01T10:16:12Z</time><name>PT1010</name></trkpt>
<trkpt lat="53.346928" lon="-1.945502"><ele>354</ele><time>2021-10-01T10:16:13Z</time><name>PT1011</name></trkpt>
<trkpt lat="53.346931" lon="-1.945500"><ele>354</ele><time>2021-10-01T10:16:14Z</time><name>PT1012</name></trkpt>
<trkpt lat="53.346934" lon="-1.945498"><ele>354</ele><time>2021-10-01T10:16:15Z</time><name>PT1013</name></trkpt>
<trkpt lat="53.346934" lon="-1.945498"><ele>354</ele><time>2021-10-01T10:16:16Z</time><name>PT1014</name></trkpt>
<trkpt lat="53.346937" lon="-1.945496"><ele>354</ele><time>2021-10-01T10:16:17Z</time><name>PT1015</name></trkpt>
<trkpt lat="53.346942" lon="-1.945494"><ele>354</ele><time>2021-10-01T10:16:18Z</time><name>PT1016</name></trkpt>
<trkpt lat="53.346945" lon="-1.945493"><ele>355</ele><time>2021-10-01T10:16:19Z</time><name>PT1017</name></trkpt>
<trkpt lat="53.346949" lon="-1.945496"><ele>354</ele><time>2021-10-01T10:16:20Z</time><name>PT1018</name></trkpt>
<trkpt lat="53.346953" lon="-1.945493"><ele>354</ele><time>2021-10-01T10:16:21Z</time><name>PT1019</name></trkpt>
<trkpt lat="53.346957" lon="-1.945493"><ele>354</ele><time>2021-10-01T10:16:22Z</time><name>PT1020</name></trkpt>
<trkpt lat="53.346960" lon="-1.945491"><ele>355</ele><time>2021-10-01T10:16:25Z</time><name>PT1021</name></trkpt>
<trkpt lat="53.346968" lon="-1.945489"><ele>355</ele><time>2021-10-01T10:16:26Z</time><name>PT1022</name></trkpt>
<trkpt lat="53.346966" lon="-1.945494"><ele>356</ele><time>2021-10-01T10:16:27Z</time><name>PT1023</name></trkpt>
<trkpt lat="53.346969" lon="-1.945502"><ele>356</ele><time>2021-10-01T10:16:28Z</time><name>PT1024</name></trkpt>
<trkpt lat="53.346970" lon="-1.945509"><ele>356</ele><time>2021-10-01T10:16:29Z</time><name>PT1025</name></trkpt>
<trkpt lat="53.346973" lon="-1.945515"><ele>356</ele><time>2021-10-01T10:16:30Z</time><name>PT1026</name></trkpt>
<trkpt lat="53.346974" lon="-1.945517"><ele>357</ele><time>2021-10-01T10:16:31Z</time><name>PT1027</name></trkpt>
<trkpt lat="53.346972" lon="-1.945522"><ele>357</ele><time>2021-10-01T10:16:32Z</time><name>PT1028</name></trkpt>
<trkpt lat="53.346976" lon="-1.945526"><ele>358</ele><time>2021-10-01T10:16:33Z</time><name>PT1029</name></trkpt>
<trkpt lat="53.346979" lon="-1.945534"><ele>358</ele><time>2021-10-01T10:16:34Z</time><name>PT1030</name></trkpt>
<trkpt lat="53.346979" lon="-1.945541"><ele>358</ele><time>2021-10-01T10:16:35Z</time><name>PT1031</name></trkpt>
<trkpt lat="53.346980" lon="-1.945545"><ele>359</ele><time>2021-10-01T10:16:36Z</time><name>PT1032</name></trkpt>
<trkpt lat="53.346984" lon="-1.945552"><ele>359</ele><time>2021-10-01T10:16:37Z</time><name>PT1033</name></trkpt>
<trkpt lat="53.346984" lon="-1.945558"><ele>359</ele><time>2021-10-01T10:16:38Z</time><name>PT1034</name></trkpt>
<trkpt lat="53.346983" lon="-1.945592"><ele>361</ele><time>2021-10-01T10:16:42Z</time><name>PT1035</name></trkpt>
<trkpt lat="53.346980" lon="-1.945628"><ele>362</ele><time>2021-10-01T10:16:46Z</time><name>PT1036</name></trkpt>
<trkpt lat="53.346982" lon="-1.945650"><ele>363</ele><time>2021-10-01T10:16:49Z</time><name>PT1037</name></trkpt>
<trkpt lat="53.346983" lon="-1.945657"><ele>363</ele><time>2021-10-01T10:16:53Z</time><name>PT1038</name></trkpt>
<trkpt lat="53.346987" lon="-1.945676"><ele>363</ele><time>2021-10-01T10:16:56Z</time><name>PT1039</name></trkpt>
<trkpt lat="53.346992" lon="-1.945699"><ele>363</ele><time>2021-10-01T10:16:59Z</time><name>PT1040</name></trkpt>
<trkpt lat="53.346993" lon="-1.945713"><ele>363</ele><time>2021-10-01T10:17:03Z</time><name>PT1041</name></trkpt>
<trkpt lat="53.346993" lon="-1.945714"><ele>363</ele><time>2021-10-01T10:17:07Z</time><name>PT1042</name></trkpt>
<trkpt lat="53.346996" lon="-1.945705"><ele>364</ele><time>2021-10-01T10:17:21Z</time><name>PT1043</name></trkpt>
<trkpt lat="53.346999" lon="-1.945721"><ele>364</ele><time>2021-10-01T10:17:23Z</time><name>PT1044</name></trkpt>
<trkpt lat="53.346999" lon="-1.945730"><ele>364</ele><time>2021-10-01T10:17:38Z</time><name>PT1045</name></trkpt>
<trkpt lat="53.346999" lon="-1.945737"><ele>364</ele><time>2021-10-01T10:17:39Z</time><name>PT1046</name></trkpt>
<trkpt lat="53.346999" lon="-1.945743"><ele>364</ele><time>2021-10-01T10:17:40Z</time><name>PT1047</name></trkpt>
<trkpt lat="53.347001" lon="-1.945748"><ele>364</ele><time>2021-10-01T10:17:41Z</time><name>PT1048</name></trkpt>
<trkpt lat="53.347004" lon="-1.945750"><ele>364</ele><time>2021-10-01T10:18:03Z</time><name>PT1049</name></trkpt>
<trkpt lat="53.347006" lon="-1.945751"><ele>364</ele><time>2021-10-01T10:18:04Z</time><name>PT1050</name></trkpt>
<trkpt lat="53.347008" lon="-1.945752"><ele>364</ele><time>2021-10-01T10:18:05Z</time><name>PT1051</name></trkpt>
<trkpt lat="53.347007" lon="-1.945752"><ele>364</ele><time>2021-10-01T10:18:06Z</time><name>PT1052</name></trkpt>
<trkpt lat="53.347012" lon="-1.945765"><ele>364</ele><time>2021-10-01T10:18:13Z</time><name>PT1053</name></trkpt>
<trkpt lat="53.347017" lon="-1.945777"><ele>365</ele><time>2021-10-01T10:18:14Z</time><name>PT1054</name></trkpt>
<trkpt lat="53.347021" lon="-1.945790"><ele>365</ele><time>2021-10-01T10:18:15Z</time><name>PT1055</name></trkpt>
<trkpt lat="53.347028" lon="-1.945804"><ele>365</ele><time>2021-10-01T10:18:16Z</time><name>PT1056</name></trkpt>
<trkpt lat="53.347029" lon="-1.945815"><ele>365</ele><time>2021-10-01T10:18:17Z</time><name>PT1057</name></trkpt>
<trkpt lat="53.347029" lon="-1.945827"><ele>365</ele><time>2021-10-01T10:18:18Z</time><name>PT1058</name></trkpt>
<trkpt lat="53.347034" lon="-1.945840"><ele>365</ele><time>2021-10-01T10:18:19Z</time><name>PT1059</name></trkpt>
<trkpt lat="53.347035" lon="-1.945850"><ele>366</ele><time>2021-10-01T10:18:20Z</time><name>PT1060</name></trkpt>
<trkpt lat="53.347036" lon="-1.945861"><ele>366</ele><time>2021-10-01T10:18:21Z</time><name>PT1061</name></trkpt>
<trkpt lat="53.347039" lon="-1.945867"><ele>366</ele><time>2021-10-01T10:18:22Z</time><name>PT1062</name></trkpt>
<trkpt lat="53.347042" lon="-1.945876"><ele>366</ele><time>2021-10-01T10:18:23Z</time><name>PT1063</name></trkpt>
<trkpt lat="53.347047" lon="-1.945884"><ele>366</ele><time>2021-10-01T10:18:24Z</time><name>PT1064</name></trkpt>
<trkpt lat="53.347053" lon="-1.945895"><ele>366</ele><time>2021-10-01T10:18:25Z</time><name>PT1065</name></trkpt>
<trkpt lat="53.347056" lon="-1.945905"><ele>366</ele><time>2021-10-01T10:18:26Z</time><name>PT1066</name></trkpt>
<trkpt lat="53.347058" lon="-1.945914"><ele>366</ele><time>2021-10-01T10:18:27Z</time><name>PT1067</name></trkpt>
<trkpt lat="53.347060" lon="-1.945920"><ele>366</ele><time>2021-10-01T10:18:28Z</time><name>PT1068</name></trkpt>
<trkpt lat="53.347061" lon="-1.945929"><ele>366</ele><time>2021-10-01T10:18:29Z</time><name>PT1069</name></trkpt>
<trkpt lat="53.347062" lon="-1.945934"><ele>366</ele><time>2021-10-01T10:18:30Z</time><name>PT1070</name></trkpt>
<trkpt lat="53.347065" lon="-1.945939"><ele>366</ele><time>2021-10-01T10:18:31Z</time><name>PT1071</name></trkpt>
<trkpt lat="53.347070" lon="-1.945950"><ele>366</ele><time>2021-10-01T10:18:32Z</time><name>PT1072</name></trkpt>
<trkpt lat="53.347077" lon="-1.945963"><ele>366</ele><time>2021-10-01T10:18:33Z</time><name>PT1073</name></trkpt>
<trkpt lat="53.347083" lon="-1.945977"><ele>366</ele><time>2021-10-01T10:18:34Z</time><name>PT1074</name></trkpt>
<trkpt lat="53.347090" lon="-1.945989"><ele>366</ele><time>2021-10-01T10:18:35Z</time><name>PT1075</name></trkpt>
<trkpt lat="53.347097" lon="-1.946000"><ele>366</ele><time>2021-10-01T10:18:36Z</time><name>PT1076</name></trkpt>
<trkpt lat="53.347102" lon="-1.946007"><ele>367</ele><time>2021-10-01T10:18:37Z</time><name>PT1077</name></trkpt>
<trkpt lat="53.347107" lon="-1.946009"><ele>367</ele><time>2021-10-01T10:18:38Z</time><name>PT1078</name></trkpt>
<trkpt lat="53.347112" lon="-1.946008"><ele>366</ele><time>2021-10-01T10:18:39Z</time><name>PT1079</name></trkpt>
<trkpt lat="53.347118" lon="-1.946014"><ele>367</ele><time>2021-10-01T10:18:40Z</time><name>PT1080</name></trkpt>
<trkpt lat="53.347124" lon="-1.946022"><ele>367</ele><time>2021-10-01T10:18:41Z</time><name>PT1081</name></trkpt>
<trkpt lat="53.347133" lon="-1.946030"><ele>366</ele><time>2021-10-01T10:18:42Z</time><name>PT1082</name></trkpt>
<trkpt lat="53.347138" lon="-1.946043"><ele>366</ele><time>2021-10-01T10:18:43Z</time><name>PT1083</name></trkpt>
<trkpt lat="53.347143" lon="-1.946057"><ele>366</ele><time>2021-10-01T10:18:44Z</time><name>PT1084</name></trkpt>
<trkpt lat="53.347146" lon="-1.946075"><ele>366</ele><time>2021-10-01T10:18:45Z</time><name>PT1085</name></trkpt>
<trkpt lat="53.347147" lon="-1.946094"><ele>366</ele><time>2021-10-01T10:18:46Z</time><name>PT1086</name></trkpt>
<trkpt lat="53.347145" lon="-1.946112"><ele>366</ele><time>2021-10-01T10:18:47Z</time><name>PT1087</name></trkpt>
<trkpt lat="53.347145" lon="-1.946131"><ele>366</ele><time>2021-10-01T10:18:48Z</time><name>PT1088</name></trkpt>
<trkpt lat="53.347145" lon="-1.946151"><ele>365</ele><time>2021-10-01T10:18:49Z</time><name>PT1089</name></trkpt>
<trkpt lat="53.347144" lon="-1.946169"><ele>365</ele><time>2021-10-01T10:18:50Z</time><name>PT1090</name></trkpt>
<trkpt lat="53.347141" lon="-1.946189"><ele>365</ele><time>2021-10-01T10:18:51Z</time><name>PT1091</name></trkpt>
<trkpt lat="53.347139" lon="-1.946208"><ele>365</ele><time>2021-10-01T10:18:52Z</time><name>PT1092</name></trkpt>
<trkpt lat="53.347136" lon="-1.946230"><ele>365</ele><time>2021-10-01T10:18:53Z</time><name>PT1093</name></trkpt>
<trkpt lat="53.347133" lon="-1.946247"><ele>365</ele><time>2021-10-01T10:18:54Z</time><name>PT1094</name></trkpt>
<trkpt lat="53.347129" lon="-1.946260"><ele>364</ele><time>2021-10-01T10:18:55Z</time><name>PT1095</name></trkpt>
<trkpt lat="53.347127" lon="-1.946272"><ele>364</ele><time>2021-10-01T10:18:56Z</time><name>PT1096</name></trkpt>
<trkpt lat="53.347125" lon="-1.946287"><ele>364</ele><time>2021-10-01T10:18:57Z</time><name>PT1097</name></trkpt>
<trkpt lat="53.347122" lon="-1.946303"><ele>364</ele><time>2021-10-01T10:18:58Z</time><name>PT1098</name></trkpt>
<trkpt lat="53.347119" lon="-1.946319"><ele>364</ele><time>2021-10-01T10:18:59Z</time><name>PT1099</name></trkpt>
<trkpt lat="53.347115" lon="-1.946338"><ele>364</ele><time>2021-10-01T10:19:00Z</time><name>PT1100</name></trkpt>
<trkpt lat="53.347113" lon="-1.946357"><ele>364</ele><time>2021-10-01T10:19:01Z</time><name>PT1101</name></trkpt>
<trkpt lat="53.347111" lon="-1.946374"><ele>364</ele><time>2021-10-01T10:19:02Z</time><name>PT1102</name></trkpt>
<trkpt lat="53.347107" lon="-1.946390"><ele>364</ele><time>2021-10-01T10:19:03Z</time><name>PT1103</name></trkpt>
<trkpt lat="53.347103" lon="-1.946411"><ele>365</ele><time>2021-10-01T10:19:04Z</time><name>PT1104</name></trkpt>
<trkpt lat="53.347098" lon="-1.946430"><ele>365</ele><time>2021-10-01T10:19:05Z</time><name>PT1105</name></trkpt>
<trkpt lat="53.347094" lon="-1.946444"><ele>365</ele><time>2021-10-01T10:19:06Z</time><name>PT1106</name></trkpt>
<trkpt lat="53.347092" lon="-1.946458"><ele>365</ele><time>2021-10-01T10:19:07Z</time><name>PT1107</name></trkpt>
<trkpt lat="53.347090" lon="-1.946472"><ele>365</ele><time>2021-10-01T10:19:08Z</time><name>PT1108</name></trkpt>
<trkpt lat="53.347084" lon="-1.946488"><ele>365</ele><time>2021-10-01T10:19:09Z</time><name>PT1109</name></trkpt>
<trkpt lat="53.347081" lon="-1.946500"><ele>365</ele><time>2021-10-01T10:19:10Z</time><name>PT1110</name></trkpt>
<trkpt lat="53.347079" lon="-1.946514"><ele>366</ele><time>2021-10-01T10:19:11Z</time><name>PT1111</name></trkpt>
<trkpt lat="53.347077" lon="-1.946526"><ele>366</ele><time>2021-10-01T10:19:12Z</time><name>PT1112</name></trkpt>
<trkpt lat="53.347075" lon="-1.946539"><ele>366</ele><time>2021-10-01T10:19:13Z</time><name>PT1113</name></trkpt>
<trkpt lat="53.347074" lon="-1.946550"><ele>366</ele><time>2021-10-01T10:19:14Z</time><name>PT1114</name></trkpt>
<trkpt lat="53.347071" lon="-1.946560"><ele>367</ele><time>2021-10-01T10:19:15Z</time><name>PT1115</name></trkpt>
<trkpt lat="53.347066" lon="-1.946567"><ele>367</ele><time>2021-10-01T10:19:16Z</time><name>PT1116</name></trkpt>
<trkpt lat="53.347065" lon="-1.946577"><ele>367</ele><time>2021-10-01T10:19:17Z</time><name>PT1117</name></trkpt>
<trkpt lat="53.347062" lon="-1.946590"><ele>367</ele><time>2021-10-01T10:19:18Z</time><name>PT1118</name></trkpt>
<trkpt lat="53.347057" lon="-1.946597"><ele>368</ele><time>2021-10-01T10:19:19Z</time><name>PT1119</name></trkpt>
<trkpt lat="53.347054" lon="-1.946609"><ele>367</ele><time>2021-10-01T10:19:20Z</time><name>PT1120</name></trkpt>
<trkpt lat="53.347051" lon="-1.946620"><ele>367</ele><time>2021-10-01T10:19:21Z</time><name>PT1121</name></trkpt>
<trkpt lat="53.347048" lon="-1.946631"><ele>367</ele><time>2021-10-01T10:19:22Z</time><name>PT1122</name></trkpt>
<trkpt lat="53.347044" lon="-1.946640"><ele>367</ele><time>2021-10-01T10:19:23Z</time><name>PT1123</name></trkpt>
<trkpt lat="53.347042" lon="-1.946652"><ele>366</ele><time>2021-10-01T10:19:24Z</time><name>PT1124</name></trkpt>
<trkpt lat="53.347041" lon="-1.946661"><ele>367</ele><time>2021-10-01T10:19:25Z</time><name>PT1125</name></trkpt>
<trkpt lat="53.347037" lon="-1.946680"><ele>367</ele><time>2021-10-01T10:19:26Z</time><name>PT1126</name></trkpt>
<trkpt lat="53.347035" lon="-1.946695"><ele>367</ele><time>2021-10-01T10:19:27Z</time><name>PT1127</name></trkpt>
<trkpt lat="53.347032" lon="-1.946711"><ele>367</ele><time>2021-10-01T10:19:28Z</time><name>PT1128</name></trkpt>
<trkpt lat="53.347028" lon="-1.946726"><ele>367</ele><time>2021-10-01T10:19:29Z</time><name>PT1129</name></trkpt>
<trkpt lat="53.347023" lon="-1.946744"><ele>366</ele><time>2021-10-01T10:19:30Z</time><name>PT1130</name></trkpt>
<trkpt lat="53.347015" lon="-1.946762"><ele>367</ele><time>2021-10-01T10:19:31Z</time><name>PT1131</name></trkpt>
<trkpt lat="53.347007" lon="-1.946783"><ele>367</ele><time>2021-10-01T10:19:32Z</time><name>PT1132</name></trkpt>
<trkpt lat="53.347000" lon="-1.946797"><ele>367</ele><time>2021-10-01T10:19:33Z</time><name>PT1133</name></trkpt>
<trkpt lat="53.346995" lon="-1.946809"><ele>367</ele><time>2021-10-01T10:19:34Z</time><name>PT1134</name></trkpt>
<trkpt lat="53.346991" lon="-1.946822"><ele>367</ele><time>2021-10-01T10:19:35Z</time><name>PT1135</name></trkpt>
<trkpt lat="53.346989" lon="-1.946834"><ele>367</ele><time>2021-10-01T10:19:36Z</time><name>PT1136</name></trkpt>
<trkpt lat="53.346987" lon="-1.946845"><ele>367</ele><time>2021-10-01T10:19:37Z</time><name>PT1137</name></trkpt>
<trkpt lat="53.346986" lon="-1.946858"><ele>367</ele><time>2021-10-01T10:19:38Z</time><name>PT1138</name></trkpt>
<trkpt lat="53.346986" lon="-1.946869"><ele>368</ele><time>2021-10-01T10:19:39Z</time><name>PT1139</name></trkpt>
<trkpt lat="53.346983" lon="-1.946883"><ele>368</ele><time>2021-10-01T10:19:40Z</time><name>PT1140</name></trkpt>
<trkpt lat="53.346981" lon="-1.946899"><ele>367</ele><time>2021-10-01T10:19:41Z</time><name>PT1141</name></trkpt>
<trkpt lat="53.346971" lon="-1.946913"><ele>367</ele><time>2021-10-01T10:19:42Z</time><name>PT1142</name></trkpt>
<trkpt lat="53.346964" lon="-1.946927"><ele>367</ele><time>2021-10-01T10:19:43Z</time><name>PT1143</name></trkpt>
<trkpt lat="53.346959" lon="-1.946940"><ele>367</ele><time>2021-10-01T10:19:44Z</time><name>PT1144</name></trkpt>
<trkpt lat="53.346955" lon="-1.946953"><ele>368</ele><time>2021-10-01T10:19:45Z</time><name>PT1145</name></trkpt>
<trkpt lat="53.346950" lon="-1.946968"><ele>368</ele><time>2021-10-01T10:19:46Z</time><name>PT1146</name></trkpt>
<trkpt lat="53.346945" lon="-1.946987"><ele>368</ele><time>2021-10-01T10:19:47Z</time><name>PT1147</name></trkpt>
<trkpt lat="53.346940" lon="-1.947011"><ele>368</ele><time>2021-10-01T10:19:48Z</time><name>PT1148</name></trkpt>
<trkpt lat="53.346936" lon="-1.947026"><ele>369</ele><time>2021-10-01T10:19:49Z</time><name>PT1149</name></trkpt>
<trkpt lat="53.346934" lon="-1.947041"><ele>369</ele><time>2021-10-01T10:19:50Z</time><name>PT1150</name></trkpt>
<trkpt lat="53.346932" lon="-1.947059"><ele>369</ele><time>2021-10-01T10:19:51Z</time><name>PT1151</name></trkpt>
<trkpt lat="53.346929" lon="-1.947075"><ele>369</ele><time>2021-10-01T10:19:52Z</time><name>PT1152</name></trkpt>
<trkpt lat="53.346927" lon="-1.947091"><ele>369</ele><time>2021-10-01T10:19:53Z</time><name>PT1153</name></trkpt>
<trkpt lat="53.346926" lon="-1.947105"><ele>370</ele><time>2021-10-01T10:19:54Z</time><name>PT1154</name></trkpt>
<trkpt lat="53.346926" lon="-1.947121"><ele>370</ele><time>2021-10-01T10:19:55Z</time><name>PT1155</name></trkpt>
<trkpt lat="53.346926" lon="-1.947134"><ele>370</ele><time>2021-10-01T10:19:56Z</time><name>PT1156</name></trkpt>
<trkpt lat="53.346926" lon="-1.947148"><ele>371</ele><time>2021-10-01T10:19:57Z</time><name>PT1157</name></trkpt>
<trkpt lat="53.346924" lon="-1.947163"><ele>371</ele><time>2021-10-01T10:19:58Z</time><name>PT1158</name></trkpt>
<trkpt lat="53.346921" lon="-1.947182"><ele>372</ele><time>2021-10-01T10:19:59Z</time><name>PT1159</name></trkpt>
<trkpt lat="53.346915" lon="-1.947199"><ele>372</ele><time>2021-10-01T10:20:00Z</time><name>PT1160</name></trkpt>
<trkpt lat="53.346912" lon="-1.947214"><ele>372</ele><time>2021-10-01T10:20:01Z</time><name>PT1161</name></trkpt>
<trkpt lat="53.346910" lon="-1.947234"><ele>373</ele><time>2021-10-01T10:20:02Z</time><name>PT1162</name></trkpt>
<trkpt lat="53.346911" lon="-1.947257"><ele>373</ele><time>2021-10-01T10:20:03Z</time><name>PT1163</name></trkpt>
<trkpt lat="53.346910" lon="-1.947274"><ele>373</ele><time>2021-10-01T10:20:04Z</time><name>PT1164</name></trkpt>
<trkpt lat="53.346910" lon="-1.947290"><ele>373</ele><time>2021-10-01T10:20:05Z</time><name>PT1165</name></trkpt>
<trkpt lat="53.346911" lon="-1.947304"><ele>373</ele><time>2021-10-01T10:20:06Z</time><name>PT1166</name></trkpt>
<trkpt lat="53.346910" lon="-1.947319"><ele>374</ele><time>2021-10-01T10:20:07Z</time><name>PT1167</name></trkpt>
<trkpt lat="53.346906" lon="-1.947333"><ele>374</ele><time>2021-10-01T10:20:08Z</time><name>PT1168</name></trkpt>
<trkpt lat="53.346906" lon="-1.947347"><ele>374</ele><time>2021-10-01T10:20:09Z</time><name>PT1169</name></trkpt>
<trkpt lat="53.346905" lon="-1.947362"><ele>374</ele><time>2021-10-01T10:20:10Z</time><name>PT1170</name></trkpt>
<trkpt lat="53.346903" lon="-1.947379"><ele>374</ele><time>2021-10-01T10:20:11Z</time><name>PT1171</name></trkpt>
<trkpt lat="53.346904" lon="-1.947395"><ele>374</ele><time>2021-10-01T10:20:12Z</time><name>PT1172</name></trkpt>
<trkpt lat="53.346904" lon="-1.947410"><ele>374</ele><time>2021-10-01T10:20:13Z</time><name>PT1173</name></trkpt>
<trkpt lat="53.346906" lon="-1.947422"><ele>375</ele><time>2021-10-01T10:20:14Z</time><name>PT1174</name></trkpt>
<trkpt lat="53.346907" lon="-1.947437"><ele>375</ele><time>2021-10-01T10:20:15Z</time><name>PT1175</name></trkpt>
<trkpt lat="53.346910" lon="-1.947450"><ele>375</ele><time>2021-10-01T10:20:16Z</time><name>PT1176</name></trkpt>
<trkpt lat="53.346912" lon="-1.947468"><ele>376</ele><time>2021-10-01T10:20:17Z</time><name>PT1177</name></trkpt>
<trkpt lat="53.346913" lon="-1.947482"><ele>376</ele><time>2021-10-01T10:20:18Z</time><name>PT1178</name></trkpt>
<trkpt lat="53.346915" lon="-1.947496"><ele>376</ele><time>2021-10-01T10:20:19Z</time><name>PT1179</name></trkpt>
<trkpt lat="53.346916" lon="-1.947513"><ele>377</ele><time>2021-10-01T10:20:20Z</time><name>PT1180</name></trkpt>
<trkpt lat="53.346920" lon="-1.947525"><ele>377</ele><time>2021-10-01T10:20:21Z</time><name>PT1181</name></trkpt>
<trkpt lat="53.346921" lon="-1.947538"><ele>377</ele><time>2021-10-01T10:20:22Z</time><name>PT1182</name></trkpt>
<trkpt lat="53.346924" lon="-1.947549"><ele>377</ele><time>2021-10-01T10:20:23Z</time><name>PT1183</name></trkpt>
<trkpt lat="53.346926" lon="-1.947562"><ele>377</ele><time>2021-10-01T10:20:24Z</time><name>PT1184</name></trkpt>
<trkpt lat="53.346928" lon="-1.947583"><ele>378</ele><time>2021-10-01T10:20:25Z</time><name>PT1185</name></trkpt>
<trkpt lat="53.346930" lon="-1.947596"><ele>377</ele><time>2021-10-01T10:20:26Z</time><name>PT1186</name></trkpt>
<trkpt lat="53.346933" lon="-1.947606"><ele>377</ele><time>2021-10-01T10:20:27Z</time><name>PT1187</name></trkpt>
<trkpt lat="53.346938" lon="-1.947617"><ele>377</ele><time>2021-10-01T10:20:28Z</time><name>PT1188</name></trkpt>
<trkpt lat="53.346944" lon="-1.947629"><ele>377</ele><time>2021-10-01T10:20:29Z</time><name>PT1189</name></trkpt>
<trkpt lat="53.346948" lon="-1.947638"><ele>378</ele><time>2021-10-01T10:20:30Z</time><name>PT1190</name></trkpt>
<trkpt lat="53.346956" lon="-1.947641"><ele>377</ele><time>2021-10-01T10:20:31Z</time><name>PT1191</name></trkpt>
<trkpt lat="53.346963" lon="-1.947640"><ele>377</ele><time>2021-10-01T10:20:32Z</time><name>PT1192</name></trkpt>
<trkpt lat="53.346970" lon="-1.947641"><ele>377</ele><time>2021-10-01T10:20:33Z</time><name>PT1193</name></trkpt>
<trkpt lat="53.346976" lon="-1.947644"><ele>377</ele><time>2021-10-01T10:20:34Z</time><name>PT1194</name></trkpt>
<trkpt lat="53.346983" lon="-1.947641"><ele>377</ele><time>2021-10-01T10:20:35Z</time><name>PT1195</name></trkpt>
<trkpt lat="53.346990" lon="-1.947640"><ele>377</ele><time>2021-10-01T10:20:36Z</time><name>PT1196</name></trkpt>
<trkpt lat="53.346994" lon="-1.947639"><ele>376</ele><time>2021-10-01T10:20:37Z</time><name>PT1197</name></trkpt>
<trkpt lat="53.347001" lon="-1.947640"><ele>376</ele><time>2021-10-01T10:20:38Z</time><name>PT1198</name></trkpt>
<trkpt lat="53.347010" lon="-1.947641"><ele>376</ele><time>2021-10-01T10:20:39Z</time><name>PT1199</name></trkpt>
<trkpt lat="53.347016" lon="-1.947640"><ele>376</ele><time>2021-10-01T10:20:40Z</time><name>PT1200</name></trkpt>
<trkpt lat="53.347019" lon="-1.947637"><ele>376</ele><time>2021-10-01T10:20:41Z</time><name>PT1201</name></trkpt>
<trkpt lat="53.347028" lon="-1.947638"><ele>376</ele><time>2021-10-01T10:20:42Z</time><name>PT1202</name></trkpt>
<trkpt lat="53.347035" lon="-1.947635"><ele>377</ele><time>2021-10-01T10:20:43Z</time><name>PT1203</name></trkpt>
<trkpt lat="53.347039" lon="-1.947633"><ele>377</ele><time>2021-10-01T10:20:44Z</time><name>PT1204</name></trkpt>
<trkpt lat="53.347044" lon="-1.947630"><ele>377</ele><time>2021-10-01T10:20:45Z</time><name>PT1205</name></trkpt>
<trkpt lat="53.347044" lon="-1.947630"><ele>376</ele><time>2021-10-01T10:20:46Z</time><name>PT1206</name></trkpt>
<trkpt lat="53.347043" lon="-1.947629"><ele>376</ele><time>2021-10-01T10:20:47Z</time><name>PT1207</name></trkpt>
<trkpt lat="53.347043" lon="-1.947628"><ele>376</ele><time>2021-10-01T10:20:48Z</time><name>PT1208</name></trkpt>
<trkpt lat="53.347047" lon="-1.947627"><ele>376</ele><time>2021-10-01T10:20:56Z</time><name>PT1209</name></trkpt>
<trkpt lat="53.347049" lon="-1.947618"><ele>376</ele><time>2021-10-01T10:20:57Z</time><name>PT1210</name></trkpt>
<trkpt lat="53.347046" lon="-1.947603"><ele>376</ele><time>2021-10-01T10:20:58Z</time><name>PT1211</name></trkpt>
<trkpt lat="53.347042" lon="-1.947591"><ele>376</ele><time>2021-10-01T10:20:59Z</time><name>PT1212</name></trkpt>
<trkpt lat="53.347045" lon="-1.947573"><ele>376</ele><time>2021-10-01T10:21:00Z</time><name>PT1213</name></trkpt>
<trkpt lat="53.347047" lon="-1.947565"><ele>376</ele><time>2021-10-01T10:21:01Z</time><name>PT1214</name></trkpt>
<trkpt lat="53.347047" lon="-1.947559"><ele>376</ele><time>2021-10-01T10:21:02Z</time><name>PT1215</name></trkpt>
<trkpt lat="53.347047" lon="-1.947555"><ele>376</ele><time>2021-10-01T10:21:03Z</time><name>PT1216</name></trkpt>
<trkpt lat="53.347047" lon="-1.947560"><ele>376</ele><time>2021-10-01T10:21:04Z</time><name>PT1217</name></trkpt>
<trkpt lat="53.347045" lon="-1.947555"><ele>376</ele><time>2021-10-01T10:21:05Z</time><name>PT1218</name></trkpt>
<trkpt lat="53.347040" lon="-1.947551"><ele>377</ele><time>2021-10-01T10:21:06Z</time><name>PT1219</name></trkpt>
<trkpt lat="53.347036" lon="-1.947541"><ele>377</ele><time>2021-10-01T10:21:07Z</time><name>PT1220</name></trkpt>
<trkpt lat="53.347036" lon="-1.947535"><ele>377</ele><time>2021-10-01T10:21:08Z</time><name>PT1221</name></trkpt>
<trkpt lat="53.347038" lon="-1.947529"><ele>377</ele><time>2021-10-01T10:21:09Z</time><name>PT1222</name></trkpt>
<trkpt lat="53.347044" lon="-1.947524"><ele>378</ele><time>2021-10-01T10:21:10Z</time><name>PT1223</name></trkpt>
<trkpt lat="53.347050" lon="-1.947520"><ele>378</ele><time>2021-10-01T10:21:11Z</time><name>PT1224</name></trkpt>
<trkpt lat="53.347052" lon="-1.947509"><ele>378</ele><time>2021-10-01T10:21:12Z</time><name>PT1225</name></trkpt>
<trkpt lat="53.347056" lon="-1.947501"><ele>378</ele><time>2021-10-01T10:21:13Z</time><name>PT1226</name></trkpt>
<trkpt lat="53.347056" lon="-1.947491"><ele>378</ele><time>2021-10-01T10:21:14Z</time><name>PT1227</name></trkpt>
<trkpt lat="53.347059" lon="-1.947474"><ele>378</ele><time>2021-10-01T10:21:15Z</time><name>PT1228</name></trkpt>
<trkpt lat="53.347061" lon="-1.947463"><ele>379</ele><time>2021-10-01T10:21:16Z</time><name>PT1229</name></trkpt>
<trkpt lat="53.347058" lon="-1.947454"><ele>379</ele><time>2021-10-01T10:21:17Z</time><name>PT1230</name></trkpt>
<trkpt lat="53.347055" lon="-1.947439"><ele>379</ele><time>2021-10-01T10:21:18Z</time><name>PT1231</name></trkpt>
<trkpt lat="53.347052" lon="-1.947427"><ele>380</ele><time>2021-10-01T10:21:19Z</time><name>PT1232</name></trkpt>
<trkpt lat="53.347051" lon="-1.947416"><ele>380</ele><time>2021-10-01T10:21:20Z</time><name>PT1233</name></trkpt>
<trkpt lat="53.347055" lon="-1.947405"><ele>380</ele><time>2021-10-01T10:21:21Z</time><name>PT1234</name></trkpt>
<trkpt lat="53.347055" lon="-1.947401"><ele>380</ele><time>2021-10-01T10:21:22Z</time><name>PT1235</name></trkpt>
<trkpt lat="53.347054" lon="-1.947392"><ele>380</ele><time>2021-10-01T10:21:23Z</time><name>PT1236</name></trkpt>
<trkpt lat="53.347052" lon="-1.947386"><ele>380</ele><time>2021-10-01T10:21:24Z</time><name>PT1237</name></trkpt>
<trkpt lat="53.347050" lon="-1.947377"><ele>380</ele><time>2021-10-01T10:21:25Z</time><name>PT1238</name></trkpt>
<trkpt lat="53.347049" lon="-1.947363"><ele>380</ele><time>2021-10-01T10:21:26Z</time><name>PT1239</name></trkpt>
<trkpt lat="53.347050" lon="-1.947347"><ele>380</ele><time>2021-10-01T10:21:27Z</time><name>PT1240</name></trkpt>
<trkpt lat="53.347050" lon="-1.947332"><ele>381</ele><time>2021-10-01T10:21:28Z</time><name>PT1241</name></trkpt>
<trkpt lat="53.347050" lon="-1.947314"><ele>381</ele><time>2021-10-01T10:21:29Z</time><name>PT1242</name></trkpt>
<trkpt lat="53.347052" lon="-1.947297"><ele>381</ele><time>2021-10-01T10:21:30Z</time><name>PT1243</name></trkpt>
<trkpt lat="53.347053" lon="-1.947278"><ele>382</ele><time>2021-10-01T10:21:31Z</time><name>PT1244</name></trkpt>
<trkpt lat="53.347054" lon="-1.947258"><ele>382</ele><time>2021-10-01T10:21:32Z</time><name>PT1245</name></trkpt>
<trkpt lat="53.347057" lon="-1.947245"><ele>382</ele><time>2021-10-01T10:21:33Z</time><name>PT1246</name></trkpt>
<trkpt lat="53.347062" lon="-1.947231"><ele>382</ele><time>2021-10-01T10:21:34Z</time><name>PT1247</name></trkpt>
<trkpt lat="53.347067" lon="-1.947221"><ele>382</ele><time>2021-10-01T10:21:35Z</time><name>PT1248</name></trkpt>
<trkpt lat="53.347077" lon="-1.947222"><ele>382</ele><time>2021-10-01T10:21:36Z</time><name>PT1249</name></trkpt>
<trkpt lat="53.347085" lon="-1.947220"><ele>382</ele><time>2021-10-01T10:21:37Z</time><name>PT1250</name></trkpt>
<trkpt lat="53.347092" lon="-1.947226"><ele>382</ele><time>2021-10-01T10:21:38Z</time><name>PT1251</name></trkpt>
<trkpt lat="53.347097" lon="-1.947223"><ele>382</ele><time>2021-10-01T10:21:39Z</time><name>PT1252</name></trkpt>
<trkpt lat="53.347102" lon="-1.947218"><ele>383</ele><time>2021-10-01T10:21:40Z</time><name>PT1253</name></trkpt>
<trkpt lat="53.347104" lon="-1.947210"><ele>382</ele><time>2021-10-01T10:21:41Z</time><name>PT1254</name></trkpt>
<trkpt lat="53.347108" lon="-1.947194"><ele>383</ele><time>2021-10-01T10:21:42Z</time><name>PT1255</name></trkpt>
<trkpt lat="53.347107" lon="-1.947174"><ele>383</ele><time>2021-10-01T10:21:43Z</time><name>PT1256</name></trkpt>
<trkpt lat="53.347110" lon="-1.947166"><ele>383</ele><time>2021-10-01T10:21:44Z</time><name>PT1257</name></trkpt>
<trkpt lat="53.347114" lon="-1.947149"><ele>383</ele><time>2021-10-01T10:21:45Z</time><name>PT1258</name></trkpt>
<trkpt lat="53.347119" lon="-1.947134"><ele>383</ele><time>2021-10-01T10:21:46Z</time><name>PT1259</name></trkpt>
<trkpt lat="53.347127" lon="-1.947114"><ele>383</ele><time>2021-10-01T10:21:47Z</time><name>PT1260</name></trkpt>
<trkpt lat="53.347134" lon="-1.947096"><ele>384</ele><time>2021-10-01T10:21:48Z</time><name>PT1261</name></trkpt>
<trkpt lat="53.347144" lon="-1.947081"><ele>384</ele><time>2021-10-01T10:21:49Z</time><name>PT1262</name></trkpt>
<trkpt lat="53.347153" lon="-1.947069"><ele>384</ele><time>2021-10-01T10:21:50Z</time><name>PT1263</name></trkpt>
<trkpt lat="53.347162" lon="-1.947065"><ele>384</ele><time>2021-10-01T10:21:51Z</time><name>PT1264</name></trkpt>
<trkpt lat="53.347172" lon="-1.947052"><ele>385</ele><time>2021-10-01T10:21:52Z</time><name>PT1265</name></trkpt>
<trkpt lat="53.347180" lon="-1.947045"><ele>385</ele><time>2021-10-01T10:21:53Z</time><name>PT1266</name></trkpt>
<trkpt lat="53.347187" lon="-1.947040"><ele>385</ele><time>2021-10-01T10:21:54Z</time><name>PT1267</name></trkpt>
<trkpt lat="53.347192" lon="-1.947034"><ele>385</ele><time>2021-10-01T10:21:55Z</time><name>PT1268</name></trkpt>
<trkpt lat="53.347198" lon="-1.947034"><ele>385</ele><time>2021-10-01T10:21:56Z</time><name>PT1269</name></trkpt>
<trkpt lat="53.347203" lon="-1.947018"><ele>386</ele><time>2021-10-01T10:21:57Z</time><name>PT1270</name></trkpt>
<trkpt lat="53.347209" lon="-1.947006"><ele>386</ele><time>2021-10-01T10:21:58Z</time><name>PT1271</name></trkpt>
<trkpt lat="53.347220" lon="-1.946994"><ele>387</ele><time>2021-10-01T10:21:59Z</time><name>PT1272</name></trkpt>
<trkpt lat="53.347229" lon="-1.946987"><ele>387</ele><time>2021-10-01T10:22:00Z</time><name>PT1273</name></trkpt>
<trkpt lat="53.347237" lon="-1.946984"><ele>387</ele><time>2021-10-01T10:22:01Z</time><name>PT1274</name></trkpt>
<trkpt lat="53.347243" lon="-1.946981"><ele>387</ele><time>2021-10-01T10:22:02Z</time><name>PT1275</name></trkpt>
<trkpt lat="53.347251" lon="-1.946979"><ele>387</ele><time>2021-10-01T10:22:03Z</time><name>PT1276</name></trkpt>
<trkpt lat="53.347257" lon="-1.946974"><ele>388</ele><time>2021-10-01T10:22:04Z</time><name>PT1277</name></trkpt>
<trkpt lat="53.347261" lon="-1.946964"><ele>388</ele><time>2021-10-01T10:22:05Z</time><name>PT1278</name></trkpt>
<trkpt lat="53.347268" lon="-1.946957"><ele>388</ele><time>2021-10-01T10:22:06Z</time><name>PT1279</name></trkpt>
<trkpt lat="53.347274" lon="-1.946954"><ele>389</ele><time>2021-10-01T10:22:07Z</time><name>PT1280</name></trkpt>
<trkpt lat="53.347279" lon="-1.946945"><ele>389</ele><time>2021-10-01T10:22:08Z</time><name>PT1281</name></trkpt>
<trkpt lat="53.347286" lon="-1.946955"><ele>390</ele><time>2021-10-01T10:22:09Z</time><name>PT1282</name></trkpt>
<trkpt lat="53.347292" lon="-1.946953"><ele>390</ele><time>2021-10-01T10:22:10Z</time><name>PT1283</name></trkpt>
<trkpt lat="53.347300" lon="-1.946953"><ele>390</ele><time>2021-10-01T10:22:11Z</time><name>PT1284</name></trkpt>
<trkpt lat="53.347306" lon="-1.946953"><ele>390</ele><time>2021-10-01T10:22:12Z</time><name>PT1285</name></trkpt>
<trkpt lat="53.347315" lon="-1.946950"><ele>391</ele><time>2021-10-01T10:22:13Z</time><name>PT1286</name></trkpt>
<trkpt lat="53.347319" lon="-1.946952"><ele>390</ele><time>2021-10-01T10:22:14Z</time><name>PT1287</name></trkpt>
<trkpt lat="53.347328" lon="-1.946956"><ele>391</ele><time>2021-10-01T10:22:15Z</time><name>PT1288</name></trkpt>
<trkpt lat="53.347330" lon="-1.946956"><ele>391</ele><time>2021-10-01T10:22:16Z</time><name>PT1289</name></trkpt>
<trkpt lat="53.347337" lon="-1.946959"><ele>391</ele><time>2021-10-01T10:22:17Z</time><name>PT1290</name></trkpt>
<trkpt lat="53.347342" lon="-1.946958"><ele>391</ele><time>2021-10-01T10:22:18Z</time><name>PT1291</name></trkpt>
<trkpt lat="53.347349" lon="-1.946958"><ele>392</ele><time>2021-10-01T10:22:19Z</time><name>PT1292</name></trkpt>
<trkpt lat="53.347354" lon="-1.946956"><ele>392</ele><time>2021-10-01T10:22:20Z</time><name>PT1293</name></trkpt>
<trkpt lat="53.347358" lon="-1.946951"><ele>392</ele><time>2021-10-01T10:22:21Z</time><name>PT1294</name></trkpt>
<trkpt lat="53.347361" lon="-1.946948"><ele>392</ele><time>2021-10-01T10:22:22Z</time><name>PT1295</name></trkpt>
<trkpt lat="53.347363" lon="-1.946949"><ele>392</ele><time>2021-10-01T10:22:23Z</time><name>PT1296</name></trkpt>
<trkpt lat="53.347364" lon="-1.946945"><ele>392</ele><time>2021-10-01T10:22:24Z</time><name>PT1297</name></trkpt>
<trkpt lat="53.347370" lon="-1.946950"><ele>392</ele><time>2021-10-01T10:22:25Z</time><name>PT1298</name></trkpt>
<trkpt lat="53.347375" lon="-1.946950"><ele>392</ele><time>2021-10-01T10:22:26Z</time><name>PT1299</name></trkpt>
<trkpt lat="53.347380" lon="-1.946944"><ele>392</ele><time>2021-10-01T10:22:27Z</time><name>PT1300</name></trkpt>
<trkpt lat="53.347384" lon="-1.946948"><ele>392</ele><time>2021-10-01T10:22:29Z</time><name>PT1301</name></trkpt>
<trkpt lat="53.347391" lon="-1.946950"><ele>392</ele><time>2021-10-01T10:22:30Z</time><name>PT1302</name></trkpt>
<trkpt lat="53.347397" lon="-1.946944"><ele>393</ele><time>2021-10-01T10:22:31Z</time><name>PT1303</name></trkpt>
<trkpt lat="53.347402" lon="-1.946958"><ele>393</ele><time>2021-10-01T10:22:32Z</time><name>PT1304</name></trkpt>
<trkpt lat="53.347402" lon="-1.946959"><ele>393</ele><time>2021-10-01T10:22:33Z</time><name>PT1305</name></trkpt>
<trkpt lat="53.347401" lon="-1.946960"><ele>393</ele><time>2021-10-01T10:22:34Z</time><name>PT1306</name></trkpt>
<trkpt lat="53.347406" lon="-1.946960"><ele>393</ele><time>2021-10-01T10:22:35Z</time><name>PT1307</name></trkpt>
<trkpt lat="53.347411" lon="-1.946957"><ele>393</ele><time>2021-10-01T10:22:36Z</time><name>PT1308</name></trkpt>
<trkpt lat="53.347416" lon="-1.946953"><ele>393</ele><time>2021-10-01T10:22:37Z</time><name>PT1309</name></trkpt>
<trkpt lat="53.347415" lon="-1.946957"><ele>393</ele><time>2021-10-01T10:22:39Z</time><name>PT1310</name></trkpt>
<trkpt lat="53.347420" lon="-1.946950"><ele>393</ele><time>2021-10-01T10:22:40Z</time><name>PT1311</name></trkpt>
<trkpt lat="53.347427" lon="-1.946938"><ele>393</ele><time>2021-10-01T10:22:41Z</time><name>PT1312</name></trkpt>
<trkpt lat="53.347438" lon="-1.946930"><ele>393</ele><time>2021-10-01T10:22:42Z</time><name>PT1313</name></trkpt>
<trkpt lat="53.347442" lon="-1.946928"><ele>394</ele><time>2021-10-01T10:22:43Z</time><name>PT1314</name></trkpt>
<trkpt lat="53.347450" lon="-1.946925"><ele>394</ele><time>2021-10-01T10:22:44Z</time><name>PT1315</name></trkpt>
<trkpt lat="53.347453" lon="-1.946926"><ele>394</ele><time>2021-10-01T10:22:45Z</time><name>PT1316</name></trkpt>
<trkpt lat="53.347459" lon="-1.946919"><ele>395</ele><time>2021-10-01T10:22:46Z</time><name>PT1317</name></trkpt>
<trkpt lat="53.347464" lon="-1.946914"><ele>395</ele><time>2021-10-01T10:22:47Z</time><name>PT1318</name></trkpt>
<trkpt lat="53.347468" lon="-1.946910"><ele>395</ele><time>2021-10-01T10:22:48Z</time><name>PT1319</name></trkpt>
<trkpt lat="53.347477" lon="-1.946910"><ele>395</ele><time>2021-10-01T10:22:49Z</time><name>PT1320</name></trkpt>
<trkpt lat="53.347482" lon="-1.946907"><ele>396</ele><time>2021-10-01T10:22:50Z</time><name>PT1321</name></trkpt>
<trkpt lat="53.347490" lon="-1.946909"><ele>396</ele><time>2021-10-01T10:22:51Z</time><name>PT1322</name></trkpt>
<trkpt lat="53.347498" lon="-1.946910"><ele>396</ele><time>2021-10-01T10:22:52Z</time><name>PT1323</name></trkpt>
<trkpt lat="53.347507" lon="-1.946911"><ele>397</ele><time>2021-10-01T10:22:53Z</time><name>PT1324</name></trkpt>
<trkpt lat="53.347513" lon="-1.946906"><ele>397</ele><time>2021-10-01T10:22:54Z</time><name>PT1325</name></trkpt>
<trkpt lat="53.347519" lon="-1.946904"><ele>397</ele><time>2021-10-01T10:22:55Z</time><name>PT1326</name></trkpt>
<trkpt lat="53.347527" lon="-1.946899"><ele>397</ele><time>2021-10-01T10:22:56Z</time><name>PT1327</name></trkpt>
<trkpt lat="53.347537" lon="-1.946892"><ele>399</ele><time>2021-10-01T10:22:57Z</time><name>PT1328</name></trkpt>
<trkpt lat="53.347544" lon="-1.946889"><ele>399</ele><time>2021-10-01T10:22:58Z</time><name>PT1329</name></trkpt>
<trkpt lat="53.347545" lon="-1.946883"><ele>399</ele><time>2021-10-01T10:22:59Z</time><name>PT1330</name></trkpt>
<trkpt lat="53.347549" lon="-1.946872"><ele>400</ele><time>2021-10-01T10:23:00Z</time><name>PT1331</name></trkpt>
<trkpt lat="53.347553" lon="-1.946862"><ele>400</ele><time>2021-10-01T10:23:01Z</time><name>PT1332</name></trkpt>
<trkpt lat="53.347558" lon="-1.946855"><ele>400</ele><time>2021-10-01T10:23:02Z</time><name>PT1333</name></trkpt>
<trkpt lat="53.347561" lon="-1.946847"><ele>399</ele><time>2021-10-01T10:23:03Z</time><name>PT1334</name></trkpt>
<trkpt lat="53.347568" lon="-1.946835"><ele>399</ele><time>2021-10-01T10:23:04Z</time><name>PT1335</name></trkpt>
<trkpt lat="53.347576" lon="-1.946827"><ele>399</ele><time>2021-10-01T10:23:05Z</time><name>PT1336</name></trkpt>
<trkpt lat="53.347583" lon="-1.946815"><ele>400</ele><time>2021-10-01T10:23:06Z</time><name>PT1337</name></trkpt>
<trkpt lat="53.347592" lon="-1.946804"><ele>400</ele><time>2021-10-01T10:23:07Z</time><name>PT1338</name></trkpt>
<trkpt lat="53.347599" lon="-1.946796"><ele>399</ele><time>2021-10-01T10:23:08Z</time><name>PT1339</name></trkpt>
<trkpt lat="53.347604" lon="-1.946785"><ele>400</ele><time>2021-10-01T10:23:09Z</time><name>PT1340</name></trkpt>
<trkpt lat="53.347610" lon="-1.946778"><ele>400</ele><time>2021-10-01T10:23:10Z</time><name>PT1341</name></trkpt>
<trkpt lat="53.347615" lon="-1.946764"><ele>400</ele><time>2021-10-01T10:23:11Z</time><name>PT1342</name></trkpt>
<trkpt lat="53.347622" lon="-1.946755"><ele>400</ele><time>2021-10-01T10:23:12Z</time><name>PT1343</name></trkpt>
<trkpt lat="53.347628" lon="-1.946745"><ele>399</ele><time>2021-10-01T10:23:13Z</time><name>PT1344</name></trkpt>
<trkpt lat="53.347637" lon="-1.946733"><ele>400</ele><time>2021-10-01T10:23:14Z</time><name>PT1345</name></trkpt>
<trkpt lat="53.347644" lon="-1.946725"><ele>400</ele><time>2021-10-01T10:23:15Z</time><name>PT1346</name></trkpt>
<trkpt lat="53.347651" lon="-1.946715"><ele>400</ele><time>2021-10-01T10:23:16Z</time><name>PT1347</name></trkpt>
<trkpt lat="53.347656" lon="-1.946706"><ele>400</ele><time>2021-10-01T10:23:17Z</time><name>PT1348</name></trkpt>
<trkpt lat="53.347663" lon="-1.946701"><ele>400</ele><time>2021-10-01T10:23:18Z</time><name>PT1349</name></trkpt>
<trkpt lat="53.347684" lon="-1.946664"><ele>401</ele><time>2021-10-01T10:23:22Z</time><name>PT1350</name></trkpt>
<trkpt lat="53.347704" lon="-1.946643"><ele>401</ele><time>2021-10-01T10:23:25Z</time><name>PT1351</name></trkpt>
<trkpt lat="53.347711" lon="-1.946634"><ele>401</ele><time>2021-10-01T10:23:26Z</time><name>PT1352</name></trkpt>
<trkpt lat="53.347715" lon="-1.946624"><ele>401</ele><time>2021-10-01T10:23:27Z</time><name>PT1353</name></trkpt>
<trkpt lat="53.347723" lon="-1.946618"><ele>400</ele><time>2021-10-01T10:23:28Z</time><name>PT1354</name></trkpt>
<trkpt lat="53.347725" lon="-1.946609"><ele>400</ele><time>2021-10-01T10:23:29Z</time><name>PT1355</name></trkpt>
<trkpt lat="53.347729" lon="-1.946599"><ele>400</ele><time>2021-10-01T10:23:30Z</time><name>PT1356</name></trkpt>
<trkpt lat="53.347735" lon="-1.946587"><ele>401</ele><time>2021-10-01T10:23:31Z</time><name>PT1357</name></trkpt>
<trkpt lat="53.347742" lon="-1.946580"><ele>401</ele><time>2021-10-01T10:23:32Z</time><name>PT1358</name></trkpt>
<trkpt lat="53.347751" lon="-1.946572"><ele>400</ele><time>2021-10-01T10:23:33Z</time><name>PT1359</name></trkpt>
<trkpt lat="53.347761" lon="-1.946561"><ele>401</ele><time>2021-10-01T10:23:34Z</time><name>PT1360</name></trkpt>
<trkpt lat="53.347767" lon="-1.946553"><ele>402</ele><time>2021-10-01T10:23:35Z</time><name>PT1361</name></trkpt>
<trkpt lat="53.347774" lon="-1.946551"><ele>402</ele><time>2021-10-01T10:23:36Z</time><name>PT1362</name></trkpt>
<trkpt lat="53.347780" lon="-1.946537"><ele>402</ele><time>2021-10-01T10:23:37Z</time><name>PT1363</name></trkpt>
<trkpt lat="53.347783" lon="-1.946527"><ele>401</ele><time>2021-10-01T10:23:38Z</time><name>PT1364</name></trkpt>
<trkpt lat="53.347787" lon="-1.946514"><ele>401</ele><time>2021-10-01T10:23:39Z</time><name>PT1365</name></trkpt>
<trkpt lat="53.347793" lon="-1.946502"><ele>402</ele><time>2021-10-01T10:23:40Z</time><name>PT1366</name></trkpt>
<trkpt lat="53.347798" lon="-1.946490"><ele>402</ele><time>2021-10-01T10:23:41Z</time><name>PT1367</name></trkpt>
<trkpt lat="53.347806" lon="-1.946480"><ele>402</ele><time>2021-10-01T10:23:42Z</time><name>PT1368</name></trkpt>
<trkpt lat="53.347815" lon="-1.946471"><ele>402</ele><time>2021-10-01T10:23:43Z</time><name>PT1369</name></trkpt>
<trkpt lat="53.347823" lon="-1.946470"><ele>402</ele><time>2021-10-01T10:23:44Z</time><name>PT1370</name></trkpt>
<trkpt lat="53.347830" lon="-1.946471"><ele>401</ele><time>2021-10-01T10:23:45Z</time><name>PT1371</name></trkpt>
<trkpt lat="53.347835" lon="-1.946465"><ele>401</ele><time>2021-10-01T10:23:46Z</time><name>PT1372</name></trkpt>
<trkpt lat="53.347844" lon="-1.946459"><ele>402</ele><time>2021-10-01T10:23:47Z</time><name>PT1373</name></trkpt>
<trkpt lat="53.347853" lon="-1.946450"><ele>402</ele><time>2021-10-01T10:23:48Z</time><name>PT1374</name></trkpt>
<trkpt lat="53.347861" lon="-1.946441"><ele>402</ele><time>2021-10-01T10:23:49Z</time><name>PT1375</name></trkpt>
<trkpt lat="53.347863" lon="-1.946428"><ele>402</ele><time>2021-10-01T10:23:50Z</time><name>PT1376</name></trkpt>
<trkpt lat="53.347865" lon="-1.946420"><ele>402</ele><time>2021-10-01T10:23:51Z</time><name>PT1377</name></trkpt>
<trkpt lat="53.347868" lon="-1.946408"><ele>402</ele><time>2021-10-01T10:23:52Z</time><name>PT1378</name></trkpt>
<trkpt lat="53.347865" lon="-1.946396"><ele>402</ele><time>2021-10-01T10:23:53Z</time><name>PT1379</name></trkpt>
<trkpt lat="53.347865" lon="-1.946385"><ele>402</ele><time>2021-10-01T10:23:54Z</time><name>PT1380</name></trkpt>
<trkpt lat="53.347867" lon="-1.946378"><ele>402</ele><time>2021-10-01T10:23:55Z</time><name>PT1381</name></trkpt>
<trkpt lat="53.347867" lon="-1.946372"><ele>402</ele><time>2021-10-01T10:23:56Z</time><name>PT1382</name></trkpt>
<trkpt lat="53.347869" lon="-1.946368"><ele>402</ele><time>2021-10-01T10:23:57Z</time><name>PT1383</name></trkpt>
<trkpt lat="53.347872" lon="-1.946358"><ele>402</ele><time>2021-10-01T10:23:58Z</time><name>PT1384</name></trkpt>
<trkpt lat="53.347873" lon="-1.946347"><ele>402</ele><time>2021-10-01T10:23:59Z</time><name>PT1385</name></trkpt>
<trkpt lat="53.347872" lon="-1.946337"><ele>402</ele><time>2021-10-01T10:24:00Z</time><name>PT1386</name></trkpt>
<trkpt lat="53.347875" lon="-1.946337"><ele>402</ele><time>2021-10-01T10:24:01Z</time><name>PT1387</name></trkpt>
<trkpt lat="53.347877" lon="-1.946335"><ele>402</ele><time>2021-10-01T10:24:02Z</time><name>PT1388</name></trkpt>
<trkpt lat="53.347881" lon="-1.946329"><ele>402</ele><time>2021-10-01T10:24:03Z</time><name>PT1389</name></trkpt>
<trkpt lat="53.347882" lon="-1.946321"><ele>401</ele><time>2021-10-01T10:24:04Z</time><name>PT1390</name></trkpt>
<trkpt lat="53.347888" lon="-1.946315"><ele>402</ele><time>2021-10-01T10:24:05Z</time><name>PT1391</name></trkpt>
<trkpt lat="53.347892" lon="-1.946312"><ele>402</ele><time>2021-10-01T10:24:06Z</time><name>PT1392</name></trkpt>
<trkpt lat="53.347897" lon="-1.946313"><ele>403</ele><time>2021-10-01T10:24:07Z</time><name>PT1393</name></trkpt>
<trkpt lat="53.347904" lon="-1.946312"><ele>403</ele><time>2021-10-01T10:24:08Z</time><name>PT1394</name></trkpt>
<trkpt lat="53.347909" lon="-1.946309"><ele>403</ele><time>2021-10-01T10:24:09Z</time><name>PT1395</name></trkpt>
<trkpt lat="53.347916" lon="-1.946306"><ele>403</ele><time>2021-10-01T10:24:10Z</time><name>PT1396</name></trkpt>
<trkpt lat="53.347930" lon="-1.946304"><ele>403</ele><time>2021-10-01T10:24:11Z</time><name>PT1397</name></trkpt>
<trkpt lat="53.347940" lon="-1.946302"><ele>403</ele><time>2021-10-01T10:24:12Z</time><name>PT1398</name></trkpt>
<trkpt lat="53.347950" lon="-1.946296"><ele>403</ele><time>2021-10-01T10:24:13Z</time><name>PT1399</name></trkpt>
<trkpt lat="53.347961" lon="-1.946290"><ele>403</ele><time>2021-10-01T10:24:14Z</time><name>PT1400</name></trkpt>
<trkpt lat="53.347967" lon="-1.946276"><ele>402</ele><time>2021-10-01T10:24:15Z</time><name>PT1401</name></trkpt>
<trkpt lat="53.347978" lon="-1.946261"><ele>404</ele><time>2021-10-01T10:24:16Z</time><name>PT1402</name></trkpt>
<trkpt lat="53.347985" lon="-1.946251"><ele>405</ele><time>2021-10-01T10:24:17Z</time><name>PT1403</name></trkpt>
<trkpt lat="53.347991" lon="-1.946238"><ele>404</ele><time>2021-10-01T10:24:18Z</time><name>PT1404</name></trkpt>
<trkpt lat="53.347999" lon="-1.946231"><ele>405</ele><time>2021-10-01T10:24:19Z</time><name>PT1405</name></trkpt>
<trkpt lat="53.348007" lon="-1.946219"><ele>405</ele><time>2021-10-01T10:24:20Z</time><name>PT1406</name></trkpt>
<trkpt lat="53.348015" lon="-1.946213"><ele>405</ele><time>2021-10-01T10:24:21Z</time><name>PT1407</name></trkpt>
<trkpt lat="53.348021" lon="-1.946205"><ele>405</ele><time>2021-10-01T10:24:22Z</time><name>PT1408</name></trkpt>
<trkpt lat="53.348028" lon="-1.946196"><ele>406</ele><time>2021-10-01T10:24:23Z</time><name>PT1409</name></trkpt>
<trkpt lat="53.348035" lon="-1.946188"><ele>405</ele><time>2021-10-01T10:24:24Z</time><name>PT1410</name></trkpt>
<trkpt lat="53.348044" lon="-1.946179"><ele>406</ele><time>2021-10-01T10:24:25Z</time><name>PT1411</name></trkpt>
<trkpt lat="53.348050" lon="-1.946167"><ele>406</ele><time>2021-10-01T10:24:26Z</time><name>PT1412</name></trkpt>
<trkpt lat="53.348054" lon="-1.946156"><ele>407</ele><time>2021-10-01T10:24:27Z</time><name>PT1413</name></trkpt>
<trkpt lat="53.348059" lon="-1.946140"><ele>407</ele><time>2021-10-01T10:24:28Z</time><name>PT1414</name></trkpt>
<trkpt lat="53.348063" lon="-1.946130"><ele>407</ele><time>2021-10-01T10:24:29Z</time><name>PT1415</name></trkpt>
<trkpt lat="53.348067" lon="-1.946119"><ele>407</ele><time>2021-10-01T10:24:30Z</time><name>PT1416</name></trkpt>
<trkpt lat="53.348068" lon="-1.946106"><ele>407</ele><time>2021-10-01T10:24:31Z</time><name>PT1417</name></trkpt>
<trkpt lat="53.348072" lon="-1.946098"><ele>407</ele><time>2021-10-01T10:24:32Z</time><name>PT1418</name></trkpt>
<trkpt lat="53.348075" lon="-1.946086"><ele>407</ele><time>2021-10-01T10:24:33Z</time><name>PT1419</name></trkpt>
<trkpt lat="53.348082" lon="-1.946075"><ele>408</ele><time>2021-10-01T10:24:34Z</time><name>PT1420</name></trkpt>
<trkpt lat="53.348092" lon="-1.946065"><ele>407</ele><time>2021-10-01T10:24:35Z</time><name>PT1421</name></trkpt>
<trkpt lat="53.348101" lon="-1.946055"><ele>408</ele><time>2021-10-01T10:24:36Z</time><name>PT1422</name></trkpt>
<trkpt lat="53.348109" lon="-1.946051"><ele>408</ele><time>2021-10-01T10:24:37Z</time><name>PT1423</name></trkpt>
<trkpt lat="53.348117" lon="-1.946048"><ele>407</ele><time>2021-10-01T10:24:38Z</time><name>PT1424</name></trkpt>
<trkpt lat="53.348125" lon="-1.946041"><ele>407</ele><time>2021-10-01T10:24:39Z</time><name>PT1425</name></trkpt>
<trkpt lat="53.348132" lon="-1.946035"><ele>407</ele><time>2021-10-01T10:24:40Z</time><name>PT1426</name></trkpt>
<trkpt lat="53.348136" lon="-1.946024"><ele>407</ele><time>2021-10-01T10:24:41Z</time><name>PT1427</name></trkpt>
<trkpt lat="53.348139" lon="-1.946014"><ele>407</ele><time>2021-10-01T10:24:42Z</time><name>PT1428</name></trkpt>
<trkpt lat="53.348148" lon="-1.946009"><ele>407</ele><time>2021-10-01T10:24:43Z</time><name>PT1429</name></trkpt>
<trkpt lat="53.348157" lon="-1.946001"><ele>407</ele><time>2021-10-01T10:24:44Z</time><name>PT1430</name></trkpt>
<trkpt lat="53.348166" lon="-1.945992"><ele>408</ele><time>2021-10-01T10:24:45Z</time><name>PT1431</name></trkpt>
<trkpt lat="53.348172" lon="-1.945980"><ele>408</ele><time>2021-10-01T10:24:46Z</time><name>PT1432</name></trkpt>
<trkpt lat="53.348183" lon="-1.945967"><ele>408</ele><time>2021-10-01T10:24:47Z</time><name>PT1433</name></trkpt>
<trkpt lat="53.348190" lon="-1.945960"><ele>408</ele><time>2021-10-01T10:24:48Z</time><name>PT1434</name></trkpt>
<trkpt lat="53.348198" lon="-1.945952"><ele>408</ele><time>2021-10-01T10:24:49Z</time><name>PT1435</name></trkpt>
<trkpt lat="53.348204" lon="-1.945946"><ele>408</ele><time>2021-10-01T10:24:50Z</time><name>PT1436</name></trkpt>
<trkpt lat="53.348207" lon="-1.945938"><ele>407</ele><time>2021-10-01T10:24:51Z</time><name>PT1437</name></trkpt>
<trkpt lat="53.348214" lon="-1.945929"><ele>407</ele><time>2021-10-01T10:24:52Z</time><name>PT1438</name></trkpt>
<trkpt lat="53.348220" lon="-1.945920"><ele>407</ele><time>2021-10-01T10:24:53Z</time><name>PT1439</name></trkpt>
<trkpt lat="53.348227" lon="-1.945913"><ele>407</ele><time>2021-10-01T10:24:54Z</time><name>PT1440</name></trkpt>
<trkpt lat="53.348234" lon="-1.945904"><ele>407</ele><time>2021-10-01T10:24:55Z</time><name>PT1441</name></trkpt>
<trkpt lat="53.348239" lon="-1.945897"><ele>406</ele><time>2021-10-01T10:24:56Z</time><name>PT1442</name></trkpt>
<trkpt lat="53.348248" lon="-1.945892"><ele>407</ele><time>2021-10-01T10:24:57Z</time><name>PT1443</name></trkpt>
<trkpt lat="53.348254" lon="-1.945882"><ele>407</ele><time>2021-10-01T10:24:58Z</time><name>PT1444</name></trkpt>
<trkpt lat="53.348263" lon="-1.945873"><ele>408</ele><time>2021-10-01T10:24:59Z</time><name>PT1445</name></trkpt>
<trkpt lat="53.348272" lon="-1.945863"><ele>408</ele><time>2021-10-01T10:25:00Z</time><name>PT1446</name></trkpt>
<trkpt lat="53.348279" lon="-1.945851"><ele>408</ele><time>2021-10-01T10:25:01Z</time><name>PT1447</name></trkpt>
<trkpt lat="53.348287" lon="-1.945843"><ele>408</ele><time>2021-10-01T10:25:02Z</time><name>PT1448</name></trkpt>
<trkpt lat="53.348294" lon="-1.945833"><ele>408</ele><time>2021-10-01T10:25:03Z</time><name>PT1449</name></trkpt>
<trkpt lat="53.348304" lon="-1.945824"><ele>409</ele><time>2021-10-01T10:25:04Z</time><name>PT1450</name></trkpt>
<trkpt lat="53.348311" lon="-1.945816"><ele>409</ele><time>2021-10-01T10:25:05Z</time><name>PT1451</name></trkpt>
<trkpt lat="53.348317" lon="-1.945805"><ele>409</ele><time>2021-10-01T10:25:06Z</time><name>PT1452</name></trkpt>
<trkpt lat="53.348322" lon="-1.945804"><ele>410</ele><time>2021-10-01T10:25:07Z</time><name>PT1453</name></trkpt>
<trkpt lat="53.348324" lon="-1.945805"><ele>410</ele><time>2021-10-01T10:25:08Z</time><name>PT1454</name></trkpt>
<trkpt lat="53.348324" lon="-1.945804"><ele>409</ele><time>2021-10-01T10:25:09Z</time><name>PT1455</name></trkpt>
<trkpt lat="53.348328" lon="-1.945799"><ele>410</ele><time>2021-10-01T10:25:15Z</time><name>PT1456</name></trkpt>
<trkpt lat="53.348339" lon="-1.945791"><ele>410</ele><time>2021-10-01T10:25:16Z</time><name>PT1457</name></trkpt>
<trkpt lat="53.348354" lon="-1.945787"><ele>409</ele><time>2021-10-01T10:25:17Z</time><name>PT1458</name></trkpt>
<trkpt lat="53.348365" lon="-1.945778"><ele>410</ele><time>2021-10-01T10:25:18Z</time><name>PT1459</name></trkpt>
<trkpt lat="53.348375" lon="-1.945770"><ele>410</ele><time>2021-10-01T10:25:19Z</time><name>PT1460</name></trkpt>
<trkpt lat="53.348389" lon="-1.945765"><ele>410</ele><time>2021-10-01T10:25:20Z</time><name>PT1461</name></trkpt>
<trkpt lat="53.348403" lon="-1.945761"><ele>411</ele><time>2021-10-01T10:25:21Z</time><name>PT1462</name></trkpt>
<trkpt lat="53.348416" lon="-1.945764"><ele>411</ele><time>2021-10-01T10:25:22Z</time><name>PT1463</name></trkpt>
<trkpt lat="53.348433" lon="-1.945765"><ele>411</ele><time>2021-10-01T10:25:23Z</time><name>PT1464</name></trkpt>
<trkpt lat="53.348445" lon="-1.945770"><ele>412</ele><time>2021-10-01T10:25:24Z</time><name>PT1465</name></trkpt>
<trkpt lat="53.348455" lon="-1.945768"><ele>412</ele><time>2021-10-01T10:25:25Z</time><name>PT1466</name></trkpt>
<trkpt lat="53.348468" lon="-1.945763"><ele>413</ele><time>2021-10-01T10:25:26Z</time><name>PT1467</name></trkpt>
<trkpt lat="53.348480" lon="-1.945767"><ele>413</ele><time>2021-10-01T10:25:27Z</time><name>PT1468</name></trkpt>
<trkpt lat="53.348491" lon="-1.945771"><ele>414</ele><time>2021-10-01T10:25:28Z</time><name>PT1469</name></trkpt>
<trkpt lat="53.348502" lon="-1.945773"><ele>413</ele><time>2021-10-01T10:25:29Z</time><name>PT1470</name></trkpt>
<trkpt lat="53.348513" lon="-1.945775"><ele>413</ele><time>2021-10-01T10:25:30Z</time><name>PT1471</name></trkpt>
<trkpt lat="53.348525" lon="-1.945772"><ele>413</ele><time>2021-10-01T10:25:31Z</time><name>PT1472</name></trkpt>
<trkpt lat="53.348537" lon="-1.945769"><ele>414</ele><time>2021-10-01T10:25:32Z</time><name>PT1473</name></trkpt>
<trkpt lat="53.348552" lon="-1.945771"><ele>414</ele><time>2021-10-01T10:25:33Z</time><name>PT1474</name></trkpt>
<trkpt lat="53.348564" lon="-1.945773"><ele>414</ele><time>2021-10-01T10:25:34Z</time><name>PT1475</name></trkpt>
<trkpt lat="53.348578" lon="-1.945773"><ele>413</ele><time>2021-10-01T10:25:35Z</time><name>PT1476</name></trkpt>
<trkpt lat="53.348589" lon="-1.945761"><ele>414</ele><time>2021-10-01T10:25:36Z</time><name>PT1477</name></trkpt>
<trkpt lat="53.348594" lon="-1.945747"><ele>414</ele><time>2021-10-01T10:25:37Z</time><name>PT1478</name></trkpt>
<trkpt lat="53.348603" lon="-1.945733"><ele>414</ele><time>2021-10-01T10:25:38Z</time><name>PT1479</name></trkpt>
<trkpt lat="53.348611" lon="-1.945725"><ele>415</ele><time>2021-10-01T10:25:39Z</time><name>PT1480</name></trkpt>
<trkpt lat="53.348618" lon="-1.945712"><ele>415</ele><time>2021-10-01T10:25:40Z</time><name>PT1481</name></trkpt>
<trkpt lat="53.348623" lon="-1.945697"><ele>415</ele><time>2021-10-01T10:25:41Z</time><name>PT1482</name></trkpt>
<trkpt lat="53.348628" lon="-1.945684"><ele>415</ele><time>2021-10-01T10:25:42Z</time><name>PT1483</name></trkpt>
<trkpt lat="53.348633" lon="-1.945673"><ele>415</ele><time>2021-10-01T10:25:43Z</time><name>PT1484</name></trkpt>
<trkpt lat="53.348639" lon="-1.945664"><ele>416</ele><time>2021-10-01T10:25:44Z</time><name>PT1485</name></trkpt>
<trkpt lat="53.348642" lon="-1.945652"><ele>416</ele><time>2021-10-01T10:25:45Z</time><name>PT1486</name></trkpt>
<trkpt lat="53.348647" lon="-1.945641"><ele>416</ele><time>2021-10-01T10:25:46Z</time><name>PT1487</name></trkpt>
<trkpt lat="53.348650" lon="-1.945634"><ele>416</ele><time>2021-10-01T10:25:47Z</time><name>PT1488</name></trkpt>
<trkpt lat="53.348652" lon="-1.945631"><ele>416</ele><time>2021-10-01T10:25:48Z</time><name>PT1489</name></trkpt>
<trkpt lat="53.348652" lon="-1.945630"><ele>416</ele><time>2021-10-01T10:25:49Z</time><name>PT1490</name></trkpt>
<trkpt lat="53.348649" lon="-1.945635"><ele>415</ele><time>2021-10-01T10:25:50Z</time><name>PT1491</name></trkpt>
<trkpt lat="53.348651" lon="-1.945636"><ele>415</ele><time>2021-10-01T10:25:51Z</time><name>PT1492</name></trkpt>
<trkpt lat="53.348648" lon="-1.945635"><ele>415</ele><time>2021-10-01T10:25:52Z</time><name>PT1493</name></trkpt>
<trkpt lat="53.348646" lon="-1.945636"><ele>414</ele><time>2021-10-01T10:25:53Z</time><name>PT1494</name></trkpt>
<trkpt lat="53.348648" lon="-1.945633"><ele>415</ele><time>2021-10-01T10:25:54Z</time><name>PT1495</name></trkpt>
<trkpt lat="53.348648" lon="-1.945635"><ele>415</ele><time>2021-10-01T10:26:01Z</time><name>PT1496</name></trkpt>
<trkpt lat="53.348648" lon="-1.945637"><ele>415</ele><time>2021-10-01T10:26:02Z</time><name>PT1497</name></trkpt>
<trkpt lat="53.348653" lon="-1.945636"><ele>415</ele><time>2021-10-01T10:26:03Z</time><name>PT1498</name></trkpt>
<trkpt lat="53.348651" lon="-1.945637"><ele>414</ele><time>2021-10-01T10:26:04Z</time><name>PT1499</name></trkpt>
<trkpt lat="53.348649" lon="-1.945639"><ele>414</ele><time>2021-10-01T10:26:05Z</time><name>PT1500</name></trkpt>
<trkpt lat="53.348648" lon="-1.945640"><ele>413</ele><time>2021-10-01T10:26:06Z</time><name>PT1501</name></trkpt>
<trkpt lat="53.348648" lon="-1.945641"><ele>413</ele><time>2021-10-01T10:26:07Z</time><name>PT1502</name></trkpt>
<trkpt lat="53.348646" lon="-1.945639"><ele>413</ele><time>2021-10-01T10:26:24Z</time><name>PT1503</name></trkpt>
<trkpt lat="53.348644" lon="-1.945638"><ele>413</ele><time>2021-10-01T10:26:25Z</time><name>PT1504</name></trkpt>
<trkpt lat="53.348646" lon="-1.945636"><ele>412</ele><time>2021-10-01T10:26:26Z</time><name>PT1505</name></trkpt>
<trkpt lat="53.348651" lon="-1.945632"><ele>412</ele><time>2021-10-01T10:26:27Z</time><name>PT1506</name></trkpt>
<trkpt lat="53.348651" lon="-1.945628"><ele>412</ele><time>2021-10-01T10:26:28Z</time><name>PT1507</name></trkpt>
<trkpt lat="53.348652" lon="-1.945629"><ele>412</ele><time>2021-10-01T10:26:29Z</time><name>PT1508</name></trkpt>
<trkpt lat="53.348650" lon="-1.945626"><ele>412</ele><time>2021-10-01T10:26:30Z</time><name>PT1509</name></trkpt>
<trkpt lat="53.348654" lon="-1.945625"><ele>412</ele><time>2021-10-01T10:26:31Z</time><name>PT1510</name></trkpt>
<trkpt lat="53.348655" lon="-1.945620"><ele>412</ele><time>2021-10-01T10:26:35Z</time><name>PT1511</name></trkpt>
<trkpt lat="53.348660" lon="-1.945619"><ele>411</ele><time>2021-10-01T10:26:36Z</time><name>PT1512</name></trkpt>
<trkpt lat="53.348664" lon="-1.945618"><ele>411</ele><time>2021-10-01T10:26:37Z</time><name>PT1513</name></trkpt>
<trkpt lat="53.348667" lon="-1.945619"><ele>411</ele><time>2021-10-01T10:26:38Z</time><name>PT1514</name></trkpt>
<trkpt lat="53.348669" lon="-1.945620"><ele>410</ele><time>2021-10-01T10:26:39Z</time><name>PT1515</name></trkpt>
<trkpt lat="53.348673" lon="-1.945622"><ele>411</ele><time>2021-10-01T10:26:40Z</time><name>PT1516</name></trkpt>
<trkpt lat="53.348674" lon="-1.945621"><ele>411</ele><time>2021-10-01T10:26:41Z</time><name>PT1517</name></trkpt>
<trkpt lat="53.348675" lon="-1.945626"><ele>411</ele><time>2021-10-01T10:26:42Z</time><name>PT1518</name></trkpt>
<trkpt lat="53.348675" lon="-1.945629"><ele>411</ele><time>2021-10-01T10:26:43Z</time><name>PT1519</name></trkpt>
<trkpt lat="53.348680" lon="-1.945625"><ele>411</ele><time>2021-10-01T10:26:58Z</time><name>PT1520</name></trkpt>
<trkpt lat="53.348683" lon="-1.945632"><ele>411</ele><time>2021-10-01T10:26:59Z</time><name>PT1521</name></trkpt>
<trkpt lat="53.348687" lon="-1.945642"><ele>412</ele><time>2021-10-01T10:27:00Z</time><name>PT1522</name></trkpt>
<trkpt lat="53.348691" lon="-1.945651"><ele>412</ele><time>2021-10-01T10:27:01Z</time><name>PT1523</name></trkpt>
<trkpt lat="53.348697" lon="-1.945654"><ele>412</ele><time>2021-10-01T10:27:02Z</time><name>PT1524</name></trkpt>
<trkpt lat="53.348701" lon="-1.945656"><ele>412</ele><time>2021-10-01T10:27:03Z</time><name>PT1525</name></trkpt>
<trkpt lat="53.348705" lon="-1.945661"><ele>413</ele><time>2021-10-01T10:27:04Z</time><name>PT1526</name></trkpt>
<trkpt lat="53.348710" lon="-1.945664"><ele>413</ele><time>2021-10-01T10:27:05Z</time><name>PT1527</name></trkpt>
<trkpt lat="53.348711" lon="-1.945666"><ele>413</ele><time>2021-10-01T10:27:06Z</time><name>PT1528</name></trkpt>
<trkpt lat="53.348713" lon="-1.945669"><ele>412</ele><time>2021-10-01T10:27:07Z</time><name>PT1529</name></trkpt>
<trkpt lat="53.348711" lon="-1.945682"><ele>413</ele><time>2021-10-01T10:27:08Z</time><name>PT1530</name></trkpt>
<trkpt lat="53.348711" lon="-1.945695"><ele>412</ele><time>2021-10-01T10:27:09Z</time><name>PT1531</name></trkpt>
<trkpt lat="53.348711" lon="-1.945702"><ele>413</ele><time>2021-10-01T10:27:10Z</time><name>PT1532</name></trkpt>
<trkpt lat="53.348710" lon="-1.945708"><ele>413</ele><time>2021-10-01T10:27:11Z</time><name>PT1533</name></trkpt>
<trkpt lat="53.348713" lon="-1.945709"><ele>413</ele><time>2021-10-01T10:27:12Z</time><name>PT1534</name></trkpt>
<trkpt lat="53.348717" lon="-1.945713"><ele>413</ele><time>2021-10-01T10:27:13Z</time><name>PT1535</name></trkpt>
<trkpt lat="53.348716" lon="-1.945713"><ele>413</ele><time>2021-10-01T10:27:14Z</time><name>PT1536</name></trkpt>
<trkpt lat="53.348716" lon="-1.945709"><ele>413</ele><time>2021-10-01T10:27:15Z</time><name>PT1537</name></trkpt>
<trkpt lat="53.348725" lon="-1.945709"><ele>412</ele><time>2021-10-01T10:27:16Z</time><name>PT1538</name></trkpt>
<trkpt lat="53.348721" lon="-1.945703"><ele>413</ele><time>2021-10-01T10:27:29Z</time><name>PT1539</name></trkpt>
<trkpt lat="53.348724" lon="-1.945709"><ele>413</ele><time>2021-10-01T10:27:30Z</time><name>PT1540</name></trkpt>
<trkpt lat="53.348730" lon="-1.945695"><ele>412</ele><time>2021-10-01T10:27:31Z</time><name>PT1541</name></trkpt>
<trkpt lat="53.348732" lon="-1.945690"><ele>413</ele><time>2021-10-01T10:27:38Z</time><name>PT1542</name></trkpt>
<trkpt lat="53.348736" lon="-1.945697"><ele>413</ele><time>2021-10-01T10:27:39Z</time><name>PT1543</name></trkpt>
<trkpt lat="53.348740" lon="-1.945694"><ele>413</ele><time>2021-10-01T10:27:40Z</time><name>PT1544</name></trkpt>
<trkpt lat="53.348742" lon="-1.945691"><ele>413</ele><time>2021-10-01T10:27:41Z</time><name>PT1545</name></trkpt>
<trkpt lat="53.348743" lon="-1.945697"><ele>414</ele><time>2021-10-01T10:27:42Z</time><name>PT1546</name></trkpt>
<trkpt lat="53.348742" lon="-1.945695"><ele>414</ele><time>2021-10-01T10:27:46Z</time><name>PT1547</name></trkpt>
<trkpt lat="53.348744" lon="-1.945697"><ele>414</ele><time>2021-10-01T10:27:47Z</time><name>PT1548</name></trkpt>
<trkpt lat="53.348743" lon="-1.945696"><ele>414</ele><time>2021-10-01T10:27:48Z</time><name>PT1549</name></trkpt>
<trkpt lat="53.348747" lon="-1.945696"><ele>414</ele><time>2021-10-01T10:27:49Z</time><name>PT1550</name></trkpt>
<trkpt lat="53.348747" lon="-1.945698"><ele>413</ele><time>2021-10-01T10:27:53Z</time><name>PT1551</name></trkpt>
<trkpt lat="53.348747" lon="-1.945689"><ele>414</ele><time>2021-10-01T10:27:54Z</time><name>PT1552</name></trkpt>
<trkpt lat="53.348748" lon="-1.945687"><ele>414</ele><time>2021-10-01T10:27:55Z</time><name>PT1553</name></trkpt>
<trkpt lat="53.348748" lon="-1.945686"><ele>414</ele><time>2021-10-01T10:27:56Z</time><name>PT1554</name></trkpt>
<trkpt lat="53.348747" lon="-1.945703"><ele>417</ele><time>2021-10-01T10:29:35Z</time><name>PT1555</name></trkpt>
<trkpt lat="53.348740" lon="-1.945703"><ele>417</ele><time>2021-10-01T10:29:39Z</time><name>PT1556</name></trkpt>
<trkpt lat="53.348743" lon="-1.945698"><ele>419</ele><time>2021-10-01T10:33:28Z</time><name>PT1557</name></trkpt>
<trkpt lat="53.348744" lon="-1.945699"><ele>419</ele><time>2021-10-01T10:33:32Z</time><name>PT1558</name></trkpt>
<trkpt lat="53.348742" lon="-1.945699"><ele>417</ele><time>2021-10-01T10:33:42Z</time><name>PT1559</name></trkpt>
<trkpt lat="53.348735" lon="-1.945694"><ele>418</ele><time>2021-10-01T10:33:46Z</time><name>PT1560</name></trkpt>
<trkpt lat="53.348739" lon="-1.945696"><ele>418</ele><time>2021-10-01T10:33:49Z</time><name>PT1561</name></trkpt>
<trkpt lat="53.348740" lon="-1.945700"><ele>417</ele><time>2021-10-01T10:34:12Z</time><name>PT1562</name></trkpt>
<trkpt lat="53.348739" lon="-1.945701"><ele>417</ele><time>2021-10-01T10:34:15Z</time><name>PT1563</name></trkpt>
<trkpt lat="53.348737" lon="-1.945709"><ele>417</ele><time>2021-10-01T10:34:32Z</time><name>PT1564</name></trkpt>
<trkpt lat="53.348733" lon="-1.945711"><ele>417</ele><time>2021-10-01T10:34:35Z</time><name>PT1565</name></trkpt>
<trkpt lat="53.348750" lon="-1.945710"><ele>417</ele><time>2021-10-01T10:35:22Z</time><name>PT1566</name></trkpt>
<trkpt lat="53.348749" lon="-1.945710"><ele>417</ele><time>2021-10-01T10:35:25Z</time><name>PT1567</name></trkpt>
<trkpt lat="53.348754" lon="-1.945722"><ele>417</ele><time>2021-10-01T10:35:27Z</time><name>PT1568</name></trkpt>
<trkpt lat="53.348754" lon="-1.945722"><ele>418</ele><time>2021-10-01T10:35:28Z</time><name>PT1569</name></trkpt>
<trkpt lat="53.348747" lon="-1.945725"><ele>419</ele><time>2021-10-01T10:36:05Z</time><name>PT1570</name></trkpt>
<trkpt lat="53.348741" lon="-1.945716"><ele>419</ele><time>2021-10-01T10:36:06Z</time><name>PT1571</name></trkpt>
<trkpt lat="53.348742" lon="-1.945716"><ele>419</ele><time>2021-10-01T10:36:07Z</time><name>PT1572</name></trkpt>
<trkpt lat="53.348744" lon="-1.945716"><ele>419</ele><time>2021-10-01T10:36:08Z</time><name>PT1573</name></trkpt>
<trkpt lat="53.348744" lon="-1.945716"><ele>419</ele><time>2021-10-01T10:36:09Z</time><name>PT1574</name></trkpt>
<trkpt lat="53.348744" lon="-1.945714"><ele>419</ele><time>2021-10-01T10:36:10Z</time><name>PT1575</name></trkpt>
<trkpt lat="53.348746" lon="-1.945712"><ele>419</ele><time>2021-10-01T10:36:11Z</time><name>PT1576</name></trkpt>
<trkpt lat="53.348750" lon="-1.945707"><ele>418</ele><time>2021-10-01T10:36:23Z</time><name>PT1577</name></trkpt>
<trkpt lat="53.348751" lon="-1.945706"><ele>418</ele><time>2021-10-01T10:36:24Z</time><name>PT1578</name></trkpt>
<trkpt lat="53.348752" lon="-1.945705"><ele>417</ele><time>2021-10-01T10:36:25Z</time><name>PT1579</name></trkpt>
<trkpt lat="53.348756" lon="-1.945713"><ele>417</ele><time>2021-10-01T10:36:30Z</time><name>PT1580</name></trkpt>
<trkpt lat="53.348762" lon="-1.945709"><ele>417</ele><time>2021-10-01T10:36:31Z</time><name>PT1581</name></trkpt>
<trkpt lat="53.348763" lon="-1.945710"><ele>417</ele><time>2021-10-01T10:36:32Z</time><name>PT1582</name></trkpt>
<trkpt lat="53.348763" lon="-1.945704"><ele>417</ele><time>2021-10-01T10:36:33Z</time><name>PT1583</name></trkpt>
<trkpt lat="53.348763" lon="-1.945699"><ele>417</ele><time>2021-10-01T10:36:34Z</time><name>PT1584</name></trkpt>
<trkpt lat="53.348762" lon="-1.945699"><ele>416</ele><time>2021-10-01T10:37:12Z</time><name>PT1585</name></trkpt>
<trkpt lat="53.348760" lon="-1.945695"><ele>416</ele><time>2021-10-01T10:37:13Z</time><name>PT1586</name></trkpt>
<trkpt lat="53.348762" lon="-1.945691"><ele>415</ele><time>2021-10-01T10:37:50Z</time><name>PT1587</name></trkpt>
<trkpt lat="53.348761" lon="-1.945688"><ele>414</ele><time>2021-10-01T10:37:51Z</time><name>PT1588</name></trkpt>
<trkpt lat="53.348759" lon="-1.945687"><ele>414</ele><time>2021-10-01T10:37:52Z</time><name>PT1589</name></trkpt>
<trkpt lat="53.348756" lon="-1.945689"><ele>414</ele><time>2021-10-01T10:37:53Z</time><name>PT1590</name></trkpt>
<trkpt lat="53.348753" lon="-1.945684"><ele>413</ele><time>2021-10-01T10:38:38Z</time><name>PT1591</name></trkpt>
<trkpt lat="53.348751" lon="-1.945679"><ele>413</ele><time>2021-10-01T10:38:39Z</time><name>PT1592</name></trkpt>
<trkpt lat="53.348752" lon="-1.945678"><ele>413</ele><time>2021-10-01T10:38:40Z</time><name>PT1593</name></trkpt>
<trkpt lat="53.348751" lon="-1.945675"><ele>414</ele><time>2021-10-01T10:38:51Z</time><name>PT1594</name></trkpt>
<trkpt lat="53.348754" lon="-1.945670"><ele>414</ele><time>2021-10-01T10:38:52Z</time><name>PT1595</name></trkpt>
<trkpt lat="53.348754" lon="-1.945667"><ele>414</ele><time>2021-10-01T10:38:53Z</time><name>PT1596</name></trkpt>
<trkpt lat="53.348752" lon="-1.945676"><ele>414</ele><time>2021-10-01T10:39:07Z</time><name>PT1597</name></trkpt>
<trkpt lat="53.348751" lon="-1.945678"><ele>413</ele><time>2021-10-01T10:39:08Z</time><name>PT1598</name></trkpt>
<trkpt lat="53.348751" lon="-1.945678"><ele>413</ele><time>2021-10-01T10:39:09Z</time><name>PT1599</name></trkpt>
<trkpt lat="53.348753" lon="-1.945677"><ele>413</ele><time>2021-10-01T10:39:18Z</time><name>PT1600</name></trkpt>
<trkpt lat="53.348755" lon="-1.945669"><ele>412</ele><time>2021-10-01T10:39:19Z</time><name>PT1601</name></trkpt>
<trkpt lat="53.348756" lon="-1.945669"><ele>412</ele><time>2021-10-01T10:39:20Z</time><name>PT1602</name></trkpt>
<trkpt lat="53.348754" lon="-1.945674"><ele>412</ele><time>2021-10-01T10:39:33Z</time><name>PT1603</name></trkpt>
<trkpt lat="53.348752" lon="-1.945672"><ele>413</ele><time>2021-10-01T10:39:34Z</time><name>PT1604</name></trkpt>
<trkpt lat="53.348751" lon="-1.945668"><ele>413</ele><time>2021-10-01T10:39:35Z</time><name>PT1605</name></trkpt>
<trkpt lat="53.348749" lon="-1.945669"><ele>412</ele><time>2021-10-01T10:39:36Z</time><name>PT1606</name></trkpt>
<trkpt lat="53.348748" lon="-1.945665"><ele>412</ele><time>2021-10-01T10:39:37Z</time><name>PT1607</name></trkpt>
<trkpt lat="53.348742" lon="-1.945664"><ele>412</ele><time>2021-10-01T10:39:38Z</time><name>PT1608</name></trkpt>
<trkpt lat="53.348739" lon="-1.945666"><ele>412</ele><time>2021-10-01T10:39:39Z</time><name>PT1609</name></trkpt>
<trkpt lat="53.348737" lon="-1.945673"><ele>412</ele><time>2021-10-01T10:39:40Z</time><name>PT1610</name></trkpt>
<trkpt lat="53.348733" lon="-1.945671"><ele>412</ele><time>2021-10-01T10:39:41Z</time><name>PT1611</name></trkpt>
<trkpt lat="53.348732" lon="-1.945662"><ele>411</ele><time>2021-10-01T10:39:42Z</time><name>PT1612</name></trkpt>
<trkpt lat="53.348729" lon="-1.945654"><ele>411</ele><time>2021-10-01T10:39:43Z</time><name>PT1613</name></trkpt>
<trkpt lat="53.348724" lon="-1.945649"><ele>411</ele><time>2021-10-01T10:39:44Z</time><name>PT1614</name></trkpt>
<trkpt lat="53.348720" lon="-1.945644"><ele>411</ele><time>2021-10-01T10:39:45Z</time><name>PT1615</name></trkpt>
<trkpt lat="53.348715" lon="-1.945634"><ele>411</ele><time>2021-10-01T10:39:46Z</time><name>PT1616</name></trkpt>
<trkpt lat="53.348711" lon="-1.945627"><ele>411</ele><time>2021-10-01T10:39:47Z</time><name>PT1617</name></trkpt>
<trkpt lat="53.348706" lon="-1.945621"><ele>411</ele><time>2021-10-01T10:39:48Z</time><name>PT1618</name></trkpt>
<trkpt lat="53.348704" lon="-1.945613"><ele>411</ele><time>2021-10-01T10:39:49Z</time><name>PT1619</name></trkpt>
<trkpt lat="53.348700" lon="-1.945603"><ele>411</ele><time>2021-10-01T10:39:50Z</time><name>PT1620</name></trkpt>
<trkpt lat="53.348696" lon="-1.945589"><ele>411</ele><time>2021-10-01T10:39:51Z</time><name>PT1621</name></trkpt>
<trkpt lat="53.348690" lon="-1.945578"><ele>413</ele><time>2021-10-01T10:39:52Z</time><name>PT1622</name></trkpt>
<trkpt lat="53.348698" lon="-1.945546"><ele>414</ele><time>2021-10-01T10:39:55Z</time><name>PT1623</name></trkpt>
<trkpt lat="53.348716" lon="-1.945503"><ele>414</ele><time>2021-10-01T10:39:59Z</time><name>PT1624</name></trkpt>
<trkpt lat="53.348735" lon="-1.945483"><ele>414</ele><time>2021-10-01T10:40:02Z</time><name>PT1625</name></trkpt>
<trkpt lat="53.348752" lon="-1.945459"><ele>413</ele><time>2021-10-01T10:40:05Z</time><name>PT1626</name></trkpt>
<trkpt lat="53.348778" lon="-1.945425"><ele>412</ele><time>2021-10-01T10:40:09Z</time><name>PT1627</name></trkpt>
<trkpt lat="53.348799" lon="-1.945411"><ele>412</ele><time>2021-10-01T10:40:12Z</time><name>PT1628</name></trkpt>
<trkpt lat="53.348809" lon="-1.945406"><ele>413</ele><time>2021-10-01T10:40:15Z</time><name>PT1629</name></trkpt>
<trkpt lat="53.348812" lon="-1.945405"><ele>414</ele><time>2021-10-01T10:40:19Z</time><name>PT1630</name></trkpt>
<trkpt lat="53.348824" lon="-1.945411"><ele>414</ele><time>2021-10-01T10:40:43Z</time><name>PT1631</name></trkpt>
<trkpt lat="53.348827" lon="-1.945410"><ele>414</ele><time>2021-10-01T10:40:46Z</time><name>PT1632</name></trkpt>
<trkpt lat="53.348838" lon="-1.945438"><ele>415</ele><time>2021-10-01T10:40:50Z</time><name>PT1633</name></trkpt>
<trkpt lat="53.348847" lon="-1.945461"><ele>416</ele><time>2021-10-01T10:40:54Z</time><name>PT1634</name></trkpt>
<trkpt lat="53.348855" lon="-1.945502"><ele>417</ele><time>2021-10-01T10:40:58Z</time><name>PT1635</name></trkpt>
<trkpt lat="53.348870" lon="-1.945538"><ele>418</ele><time>2021-10-01T10:41:02Z</time><name>PT1636</name></trkpt>
<trkpt lat="53.348879" lon="-1.945575"><ele>419</ele><time>2021-10-01T10:41:06Z</time><name>PT1637</name></trkpt>
<trkpt lat="53.348889" lon="-1.945644"><ele>420</ele><time>2021-10-01T10:41:10Z</time><name>PT1638</name></trkpt>
<trkpt lat="53.348897" lon="-1.945669"><ele>421</ele><time>2021-10-01T10:41:13Z</time><name>PT1639</name></trkpt>
<trkpt lat="53.348903" lon="-1.945691"><ele>421</ele><time>2021-10-01T10:41:16Z</time><name>PT1640</name></trkpt>
<trkpt lat="53.348906" lon="-1.945701"><ele>421</ele><time>2021-10-01T10:41:19Z</time><name>PT1641</name></trkpt>
<trkpt lat="53.348899" lon="-1.945734"><ele>422</ele><time>2021-10-01T10:41:23Z</time><name>PT1642</name></trkpt>
<trkpt lat="53.348904" lon="-1.945764"><ele>422</ele><time>2021-10-01T10:41:27Z</time><name>PT1643</name></trkpt>
<trkpt lat="53.348904" lon="-1.945765"><ele>423</ele><time>2021-10-01T10:41:30Z</time><name>PT1644</name></trkpt>
<trkpt lat="53.348918" lon="-1.945793"><ele>423</ele><time>2021-10-01T10:41:40Z</time><name>PT1645</name></trkpt>
<trkpt lat="53.348921" lon="-1.945814"><ele>423</ele><time>2021-10-01T10:41:43Z</time><name>PT1646</name></trkpt>
<trkpt lat="53.348925" lon="-1.945840"><ele>423</ele><time>2021-10-01T10:41:47Z</time><name>PT1647</name></trkpt>
<trkpt lat="53.348932" lon="-1.945854"><ele>423</ele><time>2021-10-01T10:41:51Z</time><name>PT1648</name></trkpt>
<trkpt lat="53.348937" lon="-1.945876"><ele>425</ele><time>2021-10-01T10:42:03Z</time><name>PT1649</name></trkpt>
<trkpt lat="53.348943" lon="-1.945892"><ele>426</ele><time>2021-10-01T10:42:07Z</time><name>PT1650</name></trkpt>
<trkpt lat="53.348943" lon="-1.945890"><ele>426</ele><time>2021-10-01T10:42:10Z</time><name>PT1651</name></trkpt>
<trkpt lat="53.348947" lon="-1.945883"><ele>427</ele><time>2021-10-01T10:42:35Z</time><name>PT1652</name></trkpt>
<trkpt lat="53.348998" lon="-1.945895"><ele>427</ele><time>2021-10-01T10:42:39Z</time><name>PT1653</name></trkpt>
<trkpt lat="53.349033" lon="-1.945887"><ele>427</ele><time>2021-10-01T10:42:43Z</time><name>PT1654</name></trkpt>
<trkpt lat="53.349067" lon="-1.945897"><ele>427</ele><time>2021-10-01T10:42:47Z</time><name>PT1655</name></trkpt>
<trkpt lat="53.349085" lon="-1.945906"><ele>428</ele><time>2021-10-01T10:42:50Z</time><name>PT1656</name></trkpt>
<trkpt lat="53.349123" lon="-1.945915"><ele>428</ele><time>2021-10-01T10:42:54Z</time><name>PT1657</name></trkpt>
<trkpt lat="53.349147" lon="-1.945927"><ele>428</ele><time>2021-10-01T10:42:58Z</time><name>PT1658</name></trkpt>
<trkpt lat="53.349158" lon="-1.945924"><ele>428</ele><time>2021-10-01T10:43:01Z</time><name>PT1659</name></trkpt>
<trkpt lat="53.349180" lon="-1.945930"><ele>428</ele><time>2021-10-01T10:43:04Z</time><name>PT1660</name></trkpt>
<trkpt lat="53.349206" lon="-1.945928"><ele>428</ele><time>2021-10-01T10:43:08Z</time><name>PT1661</name></trkpt>
<trkpt lat="53.349243" lon="-1.945935"><ele>429</ele><time>2021-10-01T10:43:12Z</time><name>PT1662</name></trkpt>
<trkpt lat="53.349264" lon="-1.945972"><ele>429</ele><time>2021-10-01T10:43:16Z</time><name>PT1663</name></trkpt>
<trkpt lat="53.349264" lon="-1.945994"><ele>430</ele><time>2021-10-01T10:43:19Z</time><name>PT1664</name></trkpt>
<trkpt lat="53.349266" lon="-1.945990"><ele>430</ele><time>2021-10-01T10:43:22Z</time><name>PT1665</name></trkpt>
<trkpt lat="53.349272" lon="-1.945943"><ele>431</ele><time>2021-10-01T10:43:26Z</time><name>PT1666</name></trkpt>
<trkpt lat="53.349290" lon="-1.945920"><ele>431</ele><time>2021-10-01T10:43:30Z</time><name>PT1667</name></trkpt>
<trkpt lat="53.349291" lon="-1.945918"><ele>431</ele><time>2021-10-01T10:43:34Z</time><name>PT1668</name></trkpt>
<trkpt lat="53.349333" lon="-1.945910"><ele>430</ele><time>2021-10-01T10:43:41Z</time><name>PT1669</name></trkpt>
<trkpt lat="53.349379" lon="-1.945889"><ele>430</ele><time>2021-10-01T10:43:45Z</time><name>PT1670</name></trkpt>
<trkpt lat="53.349422" lon="-1.945873"><ele>430</ele><time>2021-10-01T10:43:48Z</time><name>PT1671</name></trkpt>
<trkpt lat="53.349473" lon="-1.945857"><ele>430</ele><time>2021-10-01T10:43:52Z</time><name>PT1672</name></trkpt>
<trkpt lat="53.349531" lon="-1.945859"><ele>431</ele><time>2021-10-01T10:43:56Z</time><name>PT1673</name></trkpt>
<trkpt lat="53.349570" lon="-1.945845"><ele>431</ele><time>2021-10-01T10:43:59Z</time><name>PT1674</name></trkpt>
<trkpt lat="53.349616" lon="-1.945838"><ele>431</ele><time>2021-10-01T10:44:03Z</time><name>PT1675</name></trkpt>
<trkpt lat="53.349653" lon="-1.945835"><ele>431</ele><time>2021-10-01T10:44:06Z</time><name>PT1676</name></trkpt>
<trkpt lat="53.349687" lon="-1.945840"><ele>431</ele><time>2021-10-01T10:44:09Z</time><name>PT1677</name></trkpt>
<trkpt lat="53.349739" lon="-1.945861"><ele>431</ele><time>2021-10-01T10:44:13Z</time><name>PT1678</name></trkpt>
<trkpt lat="53.349774" lon="-1.945876"><ele>432</ele><time>2021-10-01T10:44:16Z</time><name>PT1679</name></trkpt>
<trkpt lat="53.349810" lon="-1.945908"><ele>432</ele><time>2021-10-01T10:44:19Z</time><name>PT1680</name></trkpt>
<trkpt lat="53.349858" lon="-1.945915"><ele>432</ele><time>2021-10-01T10:44:23Z</time><name>PT1681</name></trkpt>
<trkpt lat="53.349895" lon="-1.945920"><ele>432</ele><time>2021-10-01T10:44:26Z</time><name>PT1682</name></trkpt>
<trkpt lat="53.349945" lon="-1.945930"><ele>432</ele><time>2021-10-01T10:44:30Z</time><name>PT1683</name></trkpt>
<trkpt lat="53.349977" lon="-1.945927"><ele>432</ele><time>2021-10-01T10:44:33Z</time><name>PT1684</name></trkpt>
<trkpt lat="53.350024" lon="-1.945952"><ele>433</ele><time>2021-10-01T10:44:37Z</time><name>PT1685</name></trkpt>
<trkpt lat="53.350071" lon="-1.945954"><ele>433</ele><time>2021-10-01T10:44:41Z</time><name>PT1686</name></trkpt>
<trkpt lat="53.350124" lon="-1.945941"><ele>433</ele><time>2021-10-01T10:44:45Z</time><name>PT1687</name></trkpt>
<trkpt lat="53.350153" lon="-1.945945"><ele>434</ele><time>2021-10-01T10:44:49Z</time><name>PT1688</name></trkpt>
<trkpt lat="53.350153" lon="-1.945946"><ele>434</ele><time>2021-10-01T10:44:53Z</time><name>PT1689</name></trkpt>
<trkpt lat="53.350174" lon="-1.945942"><ele>434</ele><time>2021-10-01T10:44:56Z</time><name>PT1690</name></trkpt>
<trkpt lat="53.350224" lon="-1.945948"><ele>434</ele><time>2021-10-01T10:44:59Z</time><name>PT1691</name></trkpt>
<trkpt lat="53.350264" lon="-1.945949"><ele>433</ele><time>2021-10-01T10:45:02Z</time><name>PT1692</name></trkpt>
<trkpt lat="53.350302" lon="-1.945949"><ele>433</ele><time>2021-10-01T10:45:05Z</time><name>PT1693</name></trkpt>
<trkpt lat="53.350340" lon="-1.945961"><ele>433</ele><time>2021-10-01T10:45:08Z</time><name>PT1694</name></trkpt>
<trkpt lat="53.350376" lon="-1.945955"><ele>433</ele><time>2021-10-01T10:45:11Z</time><name>PT1695</name></trkpt>
<trkpt lat="53.350412" lon="-1.945957"><ele>433</ele><time>2021-10-01T10:45:15Z</time><name>PT1696</name></trkpt>
<trkpt lat="53.350420" lon="-1.945956"><ele>433</ele><time>2021-10-01T10:45:19Z</time><name>PT1697</name></trkpt>
<trkpt lat="53.350424" lon="-1.945954"><ele>433</ele><time>2021-10-01T10:45:43Z</time><name>PT1698</name></trkpt>
<trkpt lat="53.350451" lon="-1.945950"><ele>433</ele><time>2021-10-01T10:45:47Z</time><name>PT1699</name></trkpt>
<trkpt lat="53.350476" lon="-1.945933"><ele>433</ele><time>2021-10-01T10:45:50Z</time><name>PT1700</name></trkpt>
<trkpt lat="53.350513" lon="-1.945920"><ele>433</ele><time>2021-10-01T10:45:54Z</time><name>PT1701</name></trkpt>
<trkpt lat="53.350558" lon="-1.945893"><ele>433</ele><time>2021-10-01T10:45:58Z</time><name>PT1702</name></trkpt>
<trkpt lat="53.350595" lon="-1.945880"><ele>433</ele><time>2021-10-01T10:46:01Z</time><name>PT1703</name></trkpt>
<trkpt lat="53.350626" lon="-1.945877"><ele>432</ele><time>2021-10-01T10:46:04Z</time><name>PT1704</name></trkpt>
<trkpt lat="53.350667" lon="-1.945887"><ele>433</ele><time>2021-10-01T10:46:08Z</time><name>PT1705</name></trkpt>
<trkpt lat="53.350707" lon="-1.945900"><ele>433</ele><time>2021-10-01T10:46:12Z</time><name>PT1706</name></trkpt>
<trkpt lat="53.350742" lon="-1.945909"><ele>433</ele><time>2021-10-01T10:46:16Z</time><name>PT1707</name></trkpt>
<trkpt lat="53.350790" lon="-1.945929"><ele>433</ele><time>2021-10-01T10:46:20Z</time><name>PT1708</name></trkpt>
<trkpt lat="53.350824" lon="-1.945940"><ele>434</ele><time>2021-10-01T10:46:23Z</time><name>PT1709</name></trkpt>
<trkpt lat="53.350851" lon="-1.945955"><ele>433</ele><time>2021-10-01T10:46:26Z</time><name>PT1710</name></trkpt>
<trkpt lat="53.350893" lon="-1.945982"><ele>433</ele><time>2021-10-01T10:46:30Z</time><name>PT1711</name></trkpt>
<trkpt lat="53.350932" lon="-1.945999"><ele>432</ele><time>2021-10-01T10:46:34Z</time><name>PT1712</name></trkpt>
<trkpt lat="53.350975" lon="-1.946020"><ele>432</ele><time>2021-10-01T10:46:38Z</time><name>PT1713</name></trkpt>
<trkpt lat="53.351004" lon="-1.946045"><ele>433</ele><time>2021-10-01T10:46:41Z</time><name>PT1714</name></trkpt>
<trkpt lat="53.351050" lon="-1.946083"><ele>433</ele><time>2021-10-01T10:46:45Z</time><name>PT1715</name></trkpt>
<trkpt lat="53.351083" lon="-1.946139"><ele>433</ele><time>2021-10-01T10:46:49Z</time><name>PT1716</name></trkpt>
<trkpt lat="53.351109" lon="-1.946182"><ele>434</ele><time>2021-10-01T10:46:52Z</time><name>PT1717</name></trkpt>
<trkpt lat="53.351135" lon="-1.946243"><ele>434</ele><time>2021-10-01T10:46:56Z</time><name>PT1718</name></trkpt>
<trkpt lat="53.351166" lon="-1.946297"><ele>434</ele><time>2021-10-01T10:47:00Z</time><name>PT1719</name></trkpt>
<trkpt lat="53.351189" lon="-1.946344"><ele>434</ele><time>2021-10-01T10:47:03Z</time><name>PT1720</name></trkpt>
<trkpt lat="53.351217" lon="-1.946412"><ele>434</ele><time>2021-10-01T10:47:07Z</time><name>PT1721</name></trkpt>
<trkpt lat="53.351250" lon="-1.946467"><ele>434</ele><time>2021-10-01T10:47:11Z</time><name>PT1722</name></trkpt>
<trkpt lat="53.351283" lon="-1.946484"><ele>434</ele><time>2021-10-01T10:47:14Z</time><name>PT1723</name></trkpt>
<trkpt lat="53.351315" lon="-1.946497"><ele>434</ele><time>2021-10-01T10:47:17Z</time><name>PT1724</name></trkpt>
<trkpt lat="53.351360" lon="-1.946509"><ele>434</ele><time>2021-10-01T10:47:21Z</time><name>PT1725</name></trkpt>
<trkpt lat="53.351403" lon="-1.946520"><ele>434</ele><time>2021-10-01T10:47:25Z</time><name>PT1726</name></trkpt>
<trkpt lat="53.351435" lon="-1.946522"><ele>433</ele><time>2021-10-01T10:47:28Z</time><name>PT1727</name></trkpt>
<trkpt lat="53.351478" lon="-1.946529"><ele>432</ele><time>2021-10-01T10:47:32Z</time><name>PT1728</name></trkpt>
<trkpt lat="53.351513" lon="-1.946547"><ele>432</ele><time>2021-10-01T10:47:36Z</time><name>PT1729</name></trkpt>
<trkpt lat="53.351537" lon="-1.946562"><ele>432</ele><time>2021-10-01T10:47:39Z</time><name>PT1730</name></trkpt>
<trkpt lat="53.351579" lon="-1.946576"><ele>432</ele><time>2021-10-01T10:47:43Z</time><name>PT1731</name></trkpt>
<trkpt lat="53.351609" lon="-1.946597"><ele>433</ele><time>2021-10-01T10:47:46Z</time><name>PT1732</name></trkpt>
<trkpt lat="53.351648" lon="-1.946605"><ele>433</ele><time>2021-10-01T10:47:50Z</time><name>PT1733</name></trkpt>
<trkpt lat="53.351683" lon="-1.946611"><ele>433</ele><time>2021-10-01T10:47:53Z</time><name>PT1734</name></trkpt>
<trkpt lat="53.351713" lon="-1.946613"><ele>433</ele><time>2021-10-01T10:47:56Z</time><name>PT1735</name></trkpt>
<trkpt lat="53.351752" lon="-1.946611"><ele>434</ele><time>2021-10-01T10:48:00Z</time><name>PT1736</name></trkpt>
<trkpt lat="53.351789" lon="-1.946630"><ele>434</ele><time>2021-10-01T10:48:03Z</time><name>PT1737</name></trkpt>
<trkpt lat="53.351819" lon="-1.946659"><ele>434</ele><time>2021-10-01T10:48:07Z</time><name>PT1738</name></trkpt>
<trkpt lat="53.351861" lon="-1.946676"><ele>435</ele><time>2021-10-01T10:48:11Z</time><name>PT1739</name></trkpt>
<trkpt lat="53.351902" lon="-1.946707"><ele>436</ele><time>2021-10-01T10:48:15Z</time><name>PT1740</name></trkpt>
<trkpt lat="53.351932" lon="-1.946725"><ele>436</ele><time>2021-10-01T10:48:18Z</time><name>PT1741</name></trkpt>
<trkpt lat="53.351964" lon="-1.946760"><ele>435</ele><time>2021-10-01T10:48:22Z</time><name>PT1742</name></trkpt>
<trkpt lat="53.351995" lon="-1.946780"><ele>435</ele><time>2021-10-01T10:48:25Z</time><name>PT1743</name></trkpt>
<trkpt lat="53.352032" lon="-1.946783"><ele>435</ele><time>2021-10-01T10:48:28Z</time><name>PT1744</name></trkpt>
<trkpt lat="53.352074" lon="-1.946794"><ele>436</ele><time>2021-10-01T10:48:31Z</time><name>PT1745</name></trkpt>
<trkpt lat="53.352116" lon="-1.946802"><ele>436</ele><time>2021-10-01T10:48:35Z</time><name>PT1746</name></trkpt>
<trkpt lat="53.352152" lon="-1.946830"><ele>436</ele><time>2021-10-01T10:48:38Z</time><name>PT1747</name></trkpt>
<trkpt lat="53.352198" lon="-1.946869"><ele>436</ele><time>2021-10-01T10:48:42Z</time><name>PT1748</name></trkpt>
<trkpt lat="53.352247" lon="-1.946904"><ele>437</ele><time>2021-10-01T10:48:46Z</time><name>PT1749</name></trkpt>
<trkpt lat="53.352280" lon="-1.946927"><ele>437</ele><time>2021-10-01T10:48:49Z</time><name>PT1750</name></trkpt>
<trkpt lat="53.352327" lon="-1.946968"><ele>437</ele><time>2021-10-01T10:48:53Z</time><name>PT1751</name></trkpt>
<trkpt lat="53.352361" lon="-1.946991"><ele>437</ele><time>2021-10-01T10:48:56Z</time><name>PT1752</name></trkpt>
<trkpt lat="53.352392" lon="-1.947026"><ele>436</ele><time>2021-10-01T10:48:59Z</time><name>PT1753</name></trkpt>
<trkpt lat="53.352435" lon="-1.947056"><ele>435</ele><time>2021-10-01T10:49:03Z</time><name>PT1754</name></trkpt>
<trkpt lat="53.352470" lon="-1.947068"><ele>435</ele><time>2021-10-01T10:49:06Z</time><name>PT1755</name></trkpt>
<trkpt lat="53.352517" lon="-1.947115"><ele>435</ele><time>2021-10-01T10:49:10Z</time><name>PT1756</name></trkpt>
<trkpt lat="53.352559" lon="-1.947129"><ele>434</ele><time>2021-10-01T10:49:14Z</time><name>PT1757</name></trkpt>
<trkpt lat="53.352601" lon="-1.947132"><ele>434</ele><time>2021-10-01T10:49:18Z</time><name>PT1758</name></trkpt>
<trkpt lat="53.352622" lon="-1.947147"><ele>433</ele><time>2021-10-01T10:49:21Z</time><name>PT1759</name></trkpt>
<trkpt lat="53.352657" lon="-1.947149"><ele>433</ele><time>2021-10-01T10:49:24Z</time><name>PT1760</name></trkpt>
<trkpt lat="53.352697" lon="-1.947139"><ele>434</ele><time>2021-10-01T10:49:28Z</time><name>PT1761</name></trkpt>
<trkpt lat="53.352737" lon="-1.947155"><ele>434</ele><time>2021-10-01T10:49:32Z</time><name>PT1762</name></trkpt>
<trkpt lat="53.352776" lon="-1.947147"><ele>435</ele><time>2021-10-01T10:49:35Z</time><name>PT1763</name></trkpt>
<trkpt lat="53.352805" lon="-1.947134"><ele>435</ele><time>2021-10-01T10:49:39Z</time><name>PT1764</name></trkpt>
<trkpt lat="53.352829" lon="-1.947109"><ele>435</ele><time>2021-10-01T10:49:42Z</time><name>PT1765</name></trkpt>
<trkpt lat="53.352865" lon="-1.947081"><ele>435</ele><time>2021-10-01T10:49:46Z</time><name>PT1766</name></trkpt>
<trkpt lat="53.352899" lon="-1.947056"><ele>436</ele><time>2021-10-01T10:49:50Z</time><name>PT1767</name></trkpt>
<trkpt lat="53.352919" lon="-1.947045"><ele>436</ele><time>2021-10-01T10:49:53Z</time><name>PT1768</name></trkpt>
<trkpt lat="53.352948" lon="-1.947025"><ele>437</ele><time>2021-10-01T10:49:57Z</time><name>PT1769</name></trkpt>
<trkpt lat="53.352998" lon="-1.947012"><ele>437</ele><time>2021-10-01T10:50:01Z</time><name>PT1770</name></trkpt>
<trkpt lat="53.353037" lon="-1.946978"><ele>437</ele><time>2021-10-01T10:50:05Z</time><name>PT1771</name></trkpt>
<trkpt lat="53.353063" lon="-1.946942"><ele>437</ele><time>2021-10-01T10:50:08Z</time><name>PT1772</name></trkpt>
<trkpt lat="53.353088" lon="-1.946901"><ele>438</ele><time>2021-10-01T10:50:11Z</time><name>PT1773</name></trkpt>
<trkpt lat="53.353115" lon="-1.946859"><ele>439</ele><time>2021-10-01T10:50:14Z</time><name>PT1774</name></trkpt>
<trkpt lat="53.353143" lon="-1.946821"><ele>439</ele><time>2021-10-01T10:50:18Z</time><name>PT1775</name></trkpt>
<trkpt lat="53.353172" lon="-1.946777"><ele>440</ele><time>2021-10-01T10:50:22Z</time><name>PT1776</name></trkpt>
<trkpt lat="53.353211" lon="-1.946732"><ele>440</ele><time>2021-10-01T10:50:26Z</time><name>PT1777</name></trkpt>
<trkpt lat="53.353248" lon="-1.946699"><ele>441</ele><time>2021-10-01T10:50:30Z</time><name>PT1778</name></trkpt>
<trkpt lat="53.353282" lon="-1.946681"><ele>441</ele><time>2021-10-01T10:50:33Z</time><name>PT1779</name></trkpt>
<trkpt lat="53.353310" lon="-1.946663"><ele>441</ele><time>2021-10-01T10:50:36Z</time><name>PT1780</name></trkpt>
<trkpt lat="53.353348" lon="-1.946660"><ele>440</ele><time>2021-10-01T10:50:40Z</time><name>PT1781</name></trkpt>
<trkpt lat="53.353390" lon="-1.946630"><ele>441</ele><time>2021-10-01T10:50:44Z</time><name>PT1782</name></trkpt>
<trkpt lat="53.353426" lon="-1.946616"><ele>441</ele><time>2021-10-01T10:50:47Z</time><name>PT1783</name></trkpt>
<trkpt lat="53.353463" lon="-1.946612"><ele>441</ele><time>2021-10-01T10:50:51Z</time><name>PT1784</name></trkpt>
<trkpt lat="53.353506" lon="-1.946612"><ele>441</ele><time>2021-10-01T10:50:55Z</time><name>PT1785</name></trkpt>
<trkpt lat="53.353537" lon="-1.946604"><ele>442</ele><time>2021-10-01T10:50:58Z</time><name>PT1786</name></trkpt>
<trkpt lat="53.353561" lon="-1.946608"><ele>442</ele><time>2021-10-01T10:51:01Z</time><name>PT1787</name></trkpt>
<trkpt lat="53.353591" lon="-1.946613"><ele>442</ele><time>2021-10-01T10:51:05Z</time><name>PT1788</name></trkpt>
<trkpt lat="53.353595" lon="-1.946607"><ele>442</ele><time>2021-10-01T10:51:09Z</time><name>PT1789</name></trkpt>
<trkpt lat="53.353614" lon="-1.946609"><ele>442</ele><time>2021-10-01T10:51:23Z</time><name>PT1790</name></trkpt>
<trkpt lat="53.353620" lon="-1.946600"><ele>442</ele><time>2021-10-01T10:51:26Z</time><name>PT1791</name></trkpt>
<trkpt lat="53.353622" lon="-1.946596"><ele>443</ele><time>2021-10-01T10:51:55Z</time><name>PT1792</name></trkpt>
<trkpt lat="53.353627" lon="-1.946594"><ele>442</ele><time>2021-10-01T10:51:56Z</time><name>PT1793</name></trkpt>
<trkpt lat="53.353635" lon="-1.946594"><ele>442</ele><time>2021-10-01T10:51:57Z</time><name>PT1794</name></trkpt>
<trkpt lat="53.353642" lon="-1.946590"><ele>442</ele><time>2021-10-01T10:51:58Z</time><name>PT1795</name></trkpt>
<trkpt lat="53.353644" lon="-1.946587"><ele>443</ele><time>2021-10-01T10:51:59Z</time><name>PT1796</name></trkpt>
<trkpt lat="53.353650" lon="-1.946583"><ele>443</ele><time>2021-10-01T10:52:00Z</time><name>PT1797</name></trkpt>
<trkpt lat="53.353654" lon="-1.946581"><ele>443</ele><time>2021-10-01T10:52:01Z</time><name>PT1798</name></trkpt>
<trkpt lat="53.353658" lon="-1.946576"><ele>443</ele><time>2021-10-01T10:52:02Z</time><name>PT1799</name></trkpt>
<trkpt lat="53.353661" lon="-1.946574"><ele>443</ele><time>2021-10-01T10:52:03Z</time><name>PT1800</name></trkpt>
<trkpt lat="53.353663" lon="-1.946575"><ele>443</ele><time>2021-10-01T10:52:04Z</time><name>PT1801</name></trkpt>
<trkpt lat="53.353664" lon="-1.946577"><ele>443</ele><time>2021-10-01T10:52:05Z</time><name>PT1802</name></trkpt>
<trkpt lat="53.353664" lon="-1.946580"><ele>443</ele><time>2021-10-01T10:52:06Z</time><name>PT1803</name></trkpt>
<trkpt lat="53.353665" lon="-1.946581"><ele>443</ele><time>2021-10-01T10:52:07Z</time><name>PT1804</name></trkpt>
<trkpt lat="53.353672" lon="-1.946581"><ele>443</ele><time>2021-10-01T10:52:08Z</time><name>PT1805</name></trkpt>
<trkpt lat="53.353679" lon="-1.946579"><ele>443</ele><time>2021-10-01T10:52:09Z</time><name>PT1806</name></trkpt>
<trkpt lat="53.353684" lon="-1.946587"><ele>443</ele><time>2021-10-01T10:52:10Z</time><name>PT1807</name></trkpt>
<trkpt lat="53.353687" lon="-1.946585"><ele>443</ele><time>2021-10-01T10:52:11Z</time><name>PT1808</name></trkpt>
<trkpt lat="53.353689" lon="-1.946587"><ele>444</ele><time>2021-10-01T10:52:12Z</time><name>PT1809</name></trkpt>
<trkpt lat="53.353689" lon="-1.946589"><ele>444</ele><time>2021-10-01T10:52:13Z</time><name>PT1810</name></trkpt>
<trkpt lat="53.353689" lon="-1.946588"><ele>444</ele><time>2021-10-01T10:52:14Z</time><name>PT1811</name></trkpt>
<trkpt lat="53.353689" lon="-1.946589"><ele>444</ele><time>2021-10-01T10:52:15Z</time><name>PT1812</name></trkpt>
<trkpt lat="53.353692" lon="-1.946594"><ele>444</ele><time>2021-10-01T10:52:55Z</time><name>PT1813</name></trkpt>
<trkpt lat="53.353700" lon="-1.946595"><ele>444</ele><time>2021-10-01T10:52:56Z</time><name>PT1814</name></trkpt>
<trkpt lat="53.353709" lon="-1.946597"><ele>445</ele><time>2021-10-01T10:52:57Z</time><name>PT1815</name></trkpt>
<trkpt lat="53.353718" lon="-1.946601"><ele>445</ele><time>2021-10-01T10:52:58Z</time><name>PT1816</name></trkpt>
<trkpt lat="53.353727" lon="-1.946603"><ele>445</ele><time>2021-10-01T10:52:59Z</time><name>PT1817</name></trkpt>
<trkpt lat="53.353736" lon="-1.946608"><ele>445</ele><time>2021-10-01T10:53:00Z</time><name>PT1818</name></trkpt>
<trkpt lat="53.353743" lon="-1.946613"><ele>445</ele><time>2021-10-01T10:53:01Z</time><name>PT1819</name></trkpt>
<trkpt lat="53.353755" lon="-1.946615"><ele>445</ele><time>2021-10-01T10:53:02Z</time><name>PT1820</name></trkpt>
<trkpt lat="53.353767" lon="-1.946617"><ele>445</ele><time>2021-10-01T10:53:03Z</time><name>PT1821</name></trkpt>
<trkpt lat="53.353775" lon="-1.946620"><ele>445</ele><time>2021-10-01T10:53:04Z</time><name>PT1822</name></trkpt>
<trkpt lat="53.353786" lon="-1.946622"><ele>445</ele><time>2021-10-01T10:53:05Z</time><name>PT1823</name></trkpt>
<trkpt lat="53.353795" lon="-1.946624"><ele>445</ele><time>2021-10-01T10:53:06Z</time><name>PT1824</name></trkpt>
<trkpt lat="53.353805" lon="-1.946626"><ele>446</ele><time>2021-10-01T10:53:07Z</time><name>PT1825</name></trkpt>
<trkpt lat="53.353815" lon="-1.946624"><ele>446</ele><time>2021-10-01T10:53:08Z</time><name>PT1826</name></trkpt>
<trkpt lat="53.353826" lon="-1.946624"><ele>446</ele><time>2021-10-01T10:53:09Z</time><name>PT1827</name></trkpt>
<trkpt lat="53.353834" lon="-1.946626"><ele>446</ele><time>2021-10-01T10:53:10Z</time><name>PT1828</name></trkpt>
<trkpt lat="53.353843" lon="-1.946629"><ele>446</ele><time>2021-10-01T10:53:11Z</time><name>PT1829</name></trkpt>
<trkpt lat="53.353853" lon="-1.946634"><ele>446</ele><time>2021-10-01T10:53:12Z</time><name>PT1830</name></trkpt>
<trkpt lat="53.353865" lon="-1.946638"><ele>446</ele><time>2021-10-01T10:53:13Z</time><name>PT1831</name></trkpt>
<trkpt lat="53.353875" lon="-1.946644"><ele>446</ele><time>2021-10-01T10:53:14Z</time><name>PT1832</name></trkpt>
<trkpt lat="53.353885" lon="-1.946646"><ele>446</ele><time>2021-10-01T10:53:15Z</time><name>PT1833</name></trkpt>
<trkpt lat="53.353896" lon="-1.946647"><ele>446</ele><time>2021-10-01T10:53:16Z</time><name>PT1834</name></trkpt>
<trkpt lat="53.353907" lon="-1.946647"><ele>446</ele><time>2021-10-01T10:53:17Z</time><name>PT1835</name></trkpt>
<trkpt lat="53.353919" lon="-1.946649"><ele>446</ele><time>2021-10-01T10:53:18Z</time><name>PT1836</name></trkpt>
<trkpt lat="53.353929" lon="-1.946652"><ele>446</ele><time>2021-10-01T10:53:19Z</time><name>PT1837</name></trkpt>
<trkpt lat="53.353939" lon="-1.946655"><ele>446</ele><time>2021-10-01T10:53:20Z</time><name>PT1838</name></trkpt>
<trkpt lat="53.353954" lon="-1.946657"><ele>446</ele><time>2021-10-01T10:53:21Z</time><name>PT1839</name></trkpt>
<trkpt lat="53.353965" lon="-1.946664"><ele>446</ele><time>2021-10-01T10:53:22Z</time><name>PT1840</name></trkpt>
<trkpt lat="53.353976" lon="-1.946668"><ele>447</ele><time>2021-10-01T10:53:23Z</time><name>PT1841</name></trkpt>
<trkpt lat="53.353986" lon="-1.946671"><ele>446</ele><time>2021-10-01T10:53:24Z</time><name>PT1842</name></trkpt>
<trkpt lat="53.353996" lon="-1.946674"><ele>447</ele><time>2021-10-01T10:53:25Z</time><name>PT1843</name></trkpt>
<trkpt lat="53.354003" lon="-1.946678"><ele>446</ele><time>2021-10-01T10:53:26Z</time><name>PT1844</name></trkpt>
<trkpt lat="53.354011" lon="-1.946679"><ele>446</ele><time>2021-10-01T10:53:27Z</time><name>PT1845</name></trkpt>
<trkpt lat="53.354022" lon="-1.946682"><ele>446</ele><time>2021-10-01T10:53:28Z</time><name>PT1846</name></trkpt>
<trkpt lat="53.354033" lon="-1.946687"><ele>447</ele><time>2021-10-01T10:53:29Z</time><name>PT1847</name></trkpt>
<trkpt lat="53.354045" lon="-1.946690"><ele>447</ele><time>2021-10-01T10:53:30Z</time><name>PT1848</name></trkpt>
<trkpt lat="53.354055" lon="-1.946688"><ele>447</ele><time>2021-10-01T10:53:31Z</time><name>PT1849</name></trkpt>
<trkpt lat="53.354065" lon="-1.946689"><ele>447</ele><time>2021-10-01T10:53:32Z</time><name>PT1850</name></trkpt>
<trkpt lat="53.354076" lon="-1.946691"><ele>447</ele><time>2021-10-01T10:53:33Z</time><name>PT1851</name></trkpt>
<trkpt lat="53.354085" lon="-1.946690"><ele>447</ele><time>2021-10-01T10:53:34Z</time><name>PT1852</name></trkpt>
<trkpt lat="53.354093" lon="-1.946685"><ele>448</ele><time>2021-10-01T10:53:35Z</time><name>PT1853</name></trkpt>
<trkpt lat="53.354104" lon="-1.946680"><ele>448</ele><time>2021-10-01T10:53:36Z</time><name>PT1854</name></trkpt>
<trkpt lat="53.354115" lon="-1.946679"><ele>448</ele><time>2021-10-01T10:53:37Z</time><name>PT1855</name></trkpt>
<trkpt lat="53.354128" lon="-1.946678"><ele>448</ele><time>2021-10-01T10:53:38Z</time><name>PT1856</name></trkpt>
<trkpt lat="53.354138" lon="-1.946673"><ele>448</ele><time>2021-10-01T10:53:39Z</time><name>PT1857</name></trkpt>
<trkpt lat="53.354145" lon="-1.946669"><ele>448</ele><time>2021-10-01T10:53:40Z</time><name>PT1858</name></trkpt>
<trkpt lat="53.354155" lon="-1.946669"><ele>449</ele><time>2021-10-01T10:53:41Z</time><name>PT1859</name></trkpt>
<trkpt lat="53.354168" lon="-1.946668"><ele>449</ele><time>2021-10-01T10:53:42Z</time><name>PT1860</name></trkpt>
<trkpt lat="53.354177" lon="-1.946666"><ele>449</ele><time>2021-10-01T10:53:43Z</time><name>PT1861</name></trkpt>
<trkpt lat="53.354185" lon="-1.946659"><ele>449</ele><time>2021-10-01T10:53:44Z</time><name>PT1862</name></trkpt>
<trkpt lat="53.354197" lon="-1.946655"><ele>449</ele><time>2021-10-01T10:53:45Z</time><name>PT1863</name></trkpt>
<trkpt lat="53.354206" lon="-1.946651"><ele>450</ele><time>2021-10-01T10:53:46Z</time><name>PT1864</name></trkpt>
<trkpt lat="53.354213" lon="-1.946645"><ele>450</ele><time>2021-10-01T10:53:47Z</time><name>PT1865</name></trkpt>
<trkpt lat="53.354221" lon="-1.946639"><ele>449</ele><time>2021-10-01T10:53:48Z</time><name>PT1866</name></trkpt>
<trkpt lat="53.354231" lon="-1.946634"><ele>449</ele><time>2021-10-01T10:53:49Z</time><name>PT1867</name></trkpt>
<trkpt lat="53.354242" lon="-1.946628"><ele>450</ele><time>2021-10-01T10:53:50Z</time><name>PT1868</name></trkpt>
<trkpt lat="53.354254" lon="-1.946622"><ele>450</ele><time>2021-10-01T10:53:51Z</time><name>PT1869</name></trkpt>
<trkpt lat="53.354264" lon="-1.946616"><ele>450</ele><time>2021-10-01T10:53:52Z</time><name>PT1870</name></trkpt>
<trkpt lat="53.354276" lon="-1.946610"><ele>450</ele><time>2021-10-01T10:53:53Z</time><name>PT1871</name></trkpt>
<trkpt lat="53.354288" lon="-1.946607"><ele>450</ele><time>2021-10-01T10:53:54Z</time><name>PT1872</name></trkpt>
<trkpt lat="53.354298" lon="-1.946604"><ele>450</ele><time>2021-10-01T10:53:55Z</time><name>PT1873</name></trkpt>
<trkpt lat="53.354307" lon="-1.946599"><ele>449</ele><time>2021-10-01T10:53:56Z</time><name>PT1874</name></trkpt>
<trkpt lat="53.354319" lon="-1.946595"><ele>450</ele><time>2021-10-01T10:53:57Z</time><name>PT1875</name></trkpt>
<trkpt lat="53.354328" lon="-1.946590"><ele>450</ele><time>2021-10-01T10:53:58Z</time><name>PT1876</name></trkpt>
<trkpt lat="53.354338" lon="-1.946586"><ele>450</ele><time>2021-10-01T10:53:59Z</time><name>PT1877</name></trkpt>
<trkpt lat="53.354347" lon="-1.946582"><ele>450</ele><time>2021-10-01T10:54:00Z</time><name>PT1878</name></trkpt>
<trkpt lat="53.354358" lon="-1.946579"><ele>450</ele><time>2021-10-01T10:54:01Z</time><name>PT1879</name></trkpt>
<trkpt lat="53.354367" lon="-1.946575"><ele>450</ele><time>2021-10-01T10:54:02Z</time><name>PT1880</name></trkpt>
<trkpt lat="53.354378" lon="-1.946571"><ele>450</ele><time>2021-10-01T10:54:03Z</time><name>PT1881</name></trkpt>
<trkpt lat="53.354388" lon="-1.946571"><ele>450</ele><time>2021-10-01T10:54:04Z</time><name>PT1882</name></trkpt>
<trkpt lat="53.354397" lon="-1.946570"><ele>451</ele><time>2021-10-01T10:54:05Z</time><name>PT1883</name></trkpt>
<trkpt lat="53.354406" lon="-1.946566"><ele>451</ele><time>2021-10-01T10:54:06Z</time><name>PT1884</name></trkpt>
<trkpt lat="53.354417" lon="-1.946563"><ele>451</ele><time>2021-10-01T10:54:07Z</time><name>PT1885</name></trkpt>
<trkpt lat="53.354427" lon="-1.946563"><ele>451</ele><time>2021-10-01T10:54:08Z</time><name>PT1886</name></trkpt>
<trkpt lat="53.354437" lon="-1.946560"><ele>451</ele><time>2021-10-01T10:54:09Z</time><name>PT1887</name></trkpt>
<trkpt lat="53.354446" lon="-1.946557"><ele>451</ele><time>2021-10-01T10:54:10Z</time><name>PT1888</name></trkpt>
<trkpt lat="53.354455" lon="-1.946557"><ele>451</ele><time>2021-10-01T10:54:11Z</time><name>PT1889</name></trkpt>
<trkpt lat="53.354468" lon="-1.946556"><ele>451</ele><time>2021-10-01T10:54:12Z</time><name>PT1890</name></trkpt>
<trkpt lat="53.354476" lon="-1.946552"><ele>452</ele><time>2021-10-01T10:54:13Z</time><name>PT1891</name></trkpt>
<trkpt lat="53.354485" lon="-1.946550"><ele>452</ele><time>2021-10-01T10:54:14Z</time><name>PT1892</name></trkpt>
<trkpt lat="53.354496" lon="-1.946549"><ele>452</ele><time>2021-10-01T10:54:15Z</time><name>PT1893</name></trkpt>
<trkpt lat="53.354507" lon="-1.946547"><ele>452</ele><time>2021-10-01T10:54:16Z</time><name>PT1894</name></trkpt>
<trkpt lat="53.354517" lon="-1.946544"><ele>452</ele><time>2021-10-01T10:54:17Z</time><name>PT1895</name></trkpt>
<trkpt lat="53.354526" lon="-1.946546"><ele>451</ele><time>2021-10-01T10:54:18Z</time><name>PT1896</name></trkpt>
<trkpt lat="53.354537" lon="-1.946547"><ele>452</ele><time>2021-10-01T10:54:19Z</time><name>PT1897</name></trkpt>
<trkpt lat="53.354547" lon="-1.946547"><ele>452</ele><time>2021-10-01T10:54:20Z</time><name>PT1898</name></trkpt>
<trkpt lat="53.354556" lon="-1.946542"><ele>452</ele><time>2021-10-01T10:54:21Z</time><name>PT1899</name></trkpt>
<trkpt lat="53.354568" lon="-1.946541"><ele>452</ele><time>2021-10-01T10:54:22Z</time><name>PT1900</name></trkpt>
<trkpt lat="53.354579" lon="-1.946544"><ele>452</ele><time>2021-10-01T10:54:23Z</time><name>PT1901</name></trkpt>
<trkpt lat="53.354587" lon="-1.946543"><ele>452</ele><time>2021-10-01T10:54:24Z</time><name>PT1902</name></trkpt>
<trkpt lat="53.354597" lon="-1.946541"><ele>452</ele><time>2021-10-01T10:54:25Z</time><name>PT1903</name></trkpt>
<trkpt lat="53.354608" lon="-1.946539"><ele>452</ele><time>2021-10-01T10:54:26Z</time><name>PT1904</name></trkpt>
<trkpt lat="53.354619" lon="-1.946537"><ele>452</ele><time>2021-10-01T10:54:27Z</time><name>PT1905</name></trkpt>
<trkpt lat="53.354629" lon="-1.946534"><ele>453</ele><time>2021-10-01T10:54:28Z</time><name>PT1906</name></trkpt>
<trkpt lat="53.354638" lon="-1.946532"><ele>453</ele><time>2021-10-01T10:54:29Z</time><name>PT1907</name></trkpt>
<trkpt lat="53.354647" lon="-1.946529"><ele>453</ele><time>2021-10-01T10:54:30Z</time><name>PT1908</name></trkpt>
<trkpt lat="53.354656" lon="-1.946526"><ele>453</ele><time>2021-10-01T10:54:31Z</time><name>PT1909</name></trkpt>
<trkpt lat="53.354667" lon="-1.946525"><ele>453</ele><time>2021-10-01T10:54:32Z</time><name>PT1910</name></trkpt>
<trkpt lat="53.354677" lon="-1.946521"><ele>453</ele><time>2021-10-01T10:54:33Z</time><name>PT1911</name></trkpt>
<trkpt lat="53.354685" lon="-1.946515"><ele>453</ele><time>2021-10-01T10:54:34Z</time><name>PT1912</name></trkpt>
<trkpt lat="53.354694" lon="-1.946512"><ele>453</ele><time>2021-10-01T10:54:35Z</time><name>PT1913</name></trkpt>
<trkpt lat="53.354705" lon="-1.946508"><ele>453</ele><time>2021-10-01T10:54:36Z</time><name>PT1914</name></trkpt>
<trkpt lat="53.354714" lon="-1.946504"><ele>454</ele><time>2021-10-01T10:54:37Z</time><name>PT1915</name></trkpt>
<trkpt lat="53.354721" lon="-1.946494"><ele>454</ele><time>2021-10-01T10:54:38Z</time><name>PT1916</name></trkpt>
<trkpt lat="53.354730" lon="-1.946489"><ele>454</ele><time>2021-10-01T10:54:39Z</time><name>PT1917</name></trkpt>
<trkpt lat="53.354741" lon="-1.946486"><ele>455</ele><time>2021-10-01T10:54:40Z</time><name>PT1918</name></trkpt>
<trkpt lat="53.354747" lon="-1.946481"><ele>455</ele><time>2021-10-01T10:54:41Z</time><name>PT1919</name></trkpt>
<trkpt lat="53.354755" lon="-1.946478"><ele>454</ele><time>2021-10-01T10:54:42Z</time><name>PT1920</name></trkpt>
<trkpt lat="53.354765" lon="-1.946474"><ele>454</ele><time>2021-10-01T10:54:43Z</time><name>PT1921</name></trkpt>
<trkpt lat="53.354776" lon="-1.946472"><ele>454</ele><time>2021-10-01T10:54:44Z</time><name>PT1922</name></trkpt>
<trkpt lat="53.354786" lon="-1.946469"><ele>454</ele><time>2021-10-01T10:54:45Z</time><name>PT1923</name></trkpt>
<trkpt lat="53.354796" lon="-1.946468"><ele>454</ele><time>2021-10-01T10:54:46Z</time><name>PT1924</name></trkpt>
<trkpt lat="53.354806" lon="-1.946467"><ele>454</ele><time>2021-10-01T10:54:47Z</time><name>PT1925</name></trkpt>
<trkpt lat="53.354816" lon="-1.946461"><ele>454</ele><time>2021-10-01T10:54:48Z</time><name>PT1926</name></trkpt>
<trkpt lat="53.354824" lon="-1.946456"><ele>454</ele><time>2021-10-01T10:54:49Z</time><name>PT1927</name></trkpt>
<trkpt lat="53.354853" lon="-1.946453"><ele>455</ele><time>2021-10-01T10:54:52Z</time><name>PT1928</name></trkpt>
<trkpt lat="53.354892" lon="-1.946436"><ele>456</ele><time>2021-10-01T10:54:56Z</time><name>PT1929</name></trkpt>
<trkpt lat="53.354923" lon="-1.946426"><ele>456</ele><time>2021-10-01T10:54:59Z</time><name>PT1930</name></trkpt>
<trkpt lat="53.354959" lon="-1.946410"><ele>456</ele><time>2021-10-01T10:55:03Z</time><name>PT1931</name></trkpt>
<trkpt lat="53.354987" lon="-1.946389"><ele>456</ele><time>2021-10-01T10:55:06Z</time><name>PT1932</name></trkpt>
<trkpt lat="53.355018" lon="-1.946373"><ele>457</ele><time>2021-10-01T10:55:09Z</time><name>PT1933</name></trkpt>
<trkpt lat="53.355048" lon="-1.946347"><ele>457</ele><time>2021-10-01T10:55:13Z</time><name>PT1934</name></trkpt>
<trkpt lat="53.355073" lon="-1.946314"><ele>457</ele><time>2021-10-01T10:55:16Z</time><name>PT1935</name></trkpt>
<trkpt lat="53.355115" lon="-1.946279"><ele>459</ele><time>2021-10-01T10:55:20Z</time><name>PT1936</name></trkpt>
<trkpt lat="53.355139" lon="-1.946255"><ele>459</ele><time>2021-10-01T10:55:23Z</time><name>PT1937</name></trkpt>
<trkpt lat="53.355164" lon="-1.946228"><ele>459</ele><time>2021-10-01T10:55:26Z</time><name>PT1938</name></trkpt>
<trkpt lat="53.355197" lon="-1.946210"><ele>459</ele><time>2021-10-01T10:55:29Z</time><name>PT1939</name></trkpt>
<trkpt lat="53.355234" lon="-1.946194"><ele>460</ele><time>2021-10-01T10:55:33Z</time><name>PT1940</name></trkpt>
<trkpt lat="53.355264" lon="-1.946170"><ele>460</ele><time>2021-10-01T10:55:36Z</time><name>PT1941</name></trkpt>
<trkpt lat="53.355293" lon="-1.946149"><ele>460</ele><time>2021-10-01T10:55:39Z</time><name>PT1942</name></trkpt>
<trkpt lat="53.355324" lon="-1.946132"><ele>460</ele><time>2021-10-01T10:55:42Z</time><name>PT1943</name></trkpt>
<trkpt lat="53.355359" lon="-1.946111"><ele>459</ele><time>2021-10-01T10:55:46Z</time><name>PT1944</name></trkpt>
<trkpt lat="53.355388" lon="-1.946102"><ele>460</ele><time>2021-10-01T10:55:49Z</time><name>PT1945</name></trkpt>
<trkpt lat="53.355397" lon="-1.946097"><ele>460</ele><time>2021-10-01T10:55:50Z</time><name>PT1946</name></trkpt>
<trkpt lat="53.355405" lon="-1.946092"><ele>460</ele><time>2021-10-01T10:55:51Z</time><name>PT1947</name></trkpt>
<trkpt lat="53.355413" lon="-1.946088"><ele>460</ele><time>2021-10-01T10:55:52Z</time><name>PT1948</name></trkpt>
<trkpt lat="53.355422" lon="-1.946081"><ele>460</ele><time>2021-10-01T10:55:53Z</time><name>PT1949</name></trkpt>
<trkpt lat="53.355427" lon="-1.946076"><ele>460</ele><time>2021-10-01T10:55:54Z</time><name>PT1950</name></trkpt>
<trkpt lat="53.355428" lon="-1.946073"><ele>460</ele><time>2021-10-01T10:55:55Z</time><name>PT1951</name></trkpt>
<trkpt lat="53.355431" lon="-1.946073"><ele>460</ele><time>2021-10-01T10:55:56Z</time><name>PT1952</name></trkpt>
<trkpt lat="53.355433" lon="-1.946072"><ele>460</ele><time>2021-10-01T10:55:57Z</time><name>PT1953</name></trkpt>
<trkpt lat="53.355434" lon="-1.946072"><ele>460</ele><time>2021-10-01T10:55:58Z</time><name>PT1954</name></trkpt>
<trkpt lat="53.355435" lon="-1.946071"><ele>459</ele><time>2021-10-01T10:55:59Z</time><name>PT1955</name></trkpt>
<trkpt lat="53.355435" lon="-1.946072"><ele>459</ele><time>2021-10-01T10:56:00Z</time><name>PT1956</name></trkpt>
<trkpt lat="53.355436" lon="-1.946077"><ele>459</ele><time>2021-10-01T10:56:05Z</time><name>PT1957</name></trkpt>
<trkpt lat="53.355439" lon="-1.946075"><ele>459</ele><time>2021-10-01T10:56:06Z</time><name>PT1958</name></trkpt>
<trkpt lat="53.355442" lon="-1.946073"><ele>459</ele><time>2021-10-01T10:56:07Z</time><name>PT1959</name></trkpt>
<trkpt lat="53.355450" lon="-1.946068"><ele>459</ele><time>2021-10-01T10:56:08Z</time><name>PT1960</name></trkpt>
<trkpt lat="53.355456" lon="-1.946064"><ele>459</ele><time>2021-10-01T10:56:09Z</time><name>PT1961</name></trkpt>
<trkpt lat="53.355457" lon="-1.946058"><ele>459</ele><time>2021-10-01T10:56:10Z</time><name>PT1962</name></trkpt>
<trkpt lat="53.355457" lon="-1.946058"><ele>459</ele><time>2021-10-01T10:56:11Z</time><name>PT1963</name></trkpt>
<trkpt lat="53.355456" lon="-1.946057"><ele>459</ele><time>2021-10-01T10:56:12Z</time><name>PT1964</name></trkpt>
<trkpt lat="53.355463" lon="-1.946054"><ele>459</ele><time>2021-10-01T10:56:23Z</time><name>PT1965</name></trkpt>
<trkpt lat="53.355479" lon="-1.946055"><ele>459</ele><time>2021-10-01T10:56:24Z</time><name>PT1966</name></trkpt>
<trkpt lat="53.355488" lon="-1.946052"><ele>459</ele><time>2021-10-01T10:56:25Z</time><name>PT1967</name></trkpt>
<trkpt lat="53.355500" lon="-1.946050"><ele>459</ele><time>2021-10-01T10:56:26Z</time><name>PT1968</name></trkpt>
<trkpt lat="53.355512" lon="-1.946047"><ele>458</ele><time>2021-10-01T10:56:27Z</time><name>PT1969</name></trkpt>
<trkpt lat="53.355522" lon="-1.946044"><ele>459</ele><time>2021-10-01T10:56:28Z</time><name>PT1970</name></trkpt>
<trkpt lat="53.355532" lon="-1.946042"><ele>458</ele><time>2021-10-01T10:56:29Z</time><name>PT1971</name></trkpt>
<trkpt lat="53.355541" lon="-1.946041"><ele>458</ele><time>2021-10-01T10:56:30Z</time><name>PT1972</name></trkpt>
<trkpt lat="53.355549" lon="-1.946033"><ele>458</ele><time>2021-10-01T10:56:31Z</time><name>PT1973</name></trkpt>
<trkpt lat="53.355554" lon="-1.946020"><ele>458</ele><time>2021-10-01T10:56:32Z</time><name>PT1974</name></trkpt>
<trkpt lat="53.355558" lon="-1.946014"><ele>458</ele><time>2021-10-01T10:56:33Z</time><name>PT1975</name></trkpt>
<trkpt lat="53.355562" lon="-1.946002"><ele>458</ele><time>2021-10-01T10:56:34Z</time><name>PT1976</name></trkpt>
<trkpt lat="53.355563" lon="-1.945991"><ele>458</ele><time>2021-10-01T10:56:35Z</time><name>PT1977</name></trkpt>
<trkpt lat="53.355570" lon="-1.945977"><ele>458</ele><time>2021-10-01T10:56:36Z</time><name>PT1978</name></trkpt>
<trkpt lat="53.355574" lon="-1.945961"><ele>458</ele><time>2021-10-01T10:56:37Z</time><name>PT1979</name></trkpt>
<trkpt lat="53.355574" lon="-1.945946"><ele>458</ele><time>2021-10-01T10:56:38Z</time><name>PT1980</name></trkpt>
<trkpt lat="53.355573" lon="-1.945931"><ele>458</ele><time>2021-10-01T10:56:39Z</time><name>PT1981</name></trkpt>
<trkpt lat="53.355575" lon="-1.945924"><ele>458</ele><time>2021-10-01T10:56:40Z</time><name>PT1982</name></trkpt>
<trkpt lat="53.355577" lon="-1.945915"><ele>457</ele><time>2021-10-01T10:56:41Z</time><name>PT1983</name></trkpt>
<trkpt lat="53.355580" lon="-1.945901"><ele>458</ele><time>2021-10-01T10:56:42Z</time><name>PT1984</name></trkpt>
<trkpt lat="53.355578" lon="-1.945892"><ele>458</ele><time>2021-10-01T10:56:43Z</time><name>PT1985</name></trkpt>
<trkpt lat="53.355580" lon="-1.945892"><ele>458</ele><time>2021-10-01T10:56:44Z</time><name>PT1986</name></trkpt>
<trkpt lat="53.355582" lon="-1.945891"><ele>458</ele><time>2021-10-01T10:56:45Z</time><name>PT1987</name></trkpt>
<trkpt lat="53.355583" lon="-1.945890"><ele>458</ele><time>2021-10-01T10:56:46Z</time><name>PT1988</name></trkpt>
<trkpt lat="53.355583" lon="-1.945891"><ele>457</ele><time>2021-10-01T10:56:47Z</time><name>PT1989</name></trkpt>
<trkpt lat="53.355586" lon="-1.945896"><ele>458</ele><time>2021-10-01T10:56:52Z</time><name>PT1990</name></trkpt>
<trkpt lat="53.355591" lon="-1.945895"><ele>458</ele><time>2021-10-01T10:56:53Z</time><name>PT1991</name></trkpt>
<trkpt lat="53.355601" lon="-1.945898"><ele>458</ele><time>2021-10-01T10:56:54Z</time><name>PT1992</name></trkpt>
<trkpt lat="53.355610" lon="-1.945908"><ele>458</ele><time>2021-10-01T10:56:55Z</time><name>PT1993</name></trkpt>
<trkpt lat="53.355616" lon="-1.945928"><ele>458</ele><time>2021-10-01T10:56:56Z</time><name>PT1994</name></trkpt>
<trkpt lat="53.355626" lon="-1.945940"><ele>458</ele><time>2021-10-01T10:56:57Z</time><name>PT1995</name></trkpt>
<trkpt lat="53.355636" lon="-1.945952"><ele>458</ele><time>2021-10-01T10:56:58Z</time><name>PT1996</name></trkpt>
<trkpt lat="53.355645" lon="-1.945968"><ele>459</ele><time>2021-10-01T10:56:59Z</time><name>PT1997</name></trkpt>
<trkpt lat="53.355655" lon="-1.945984"><ele>458</ele><time>2021-10-01T10:57:00Z</time><name>PT1998</name></trkpt>
<trkpt lat="53.355666" lon="-1.945997"><ele>458</ele><time>2021-10-01T10:57:01Z</time><name>PT1999</name></trkpt>
<trkpt lat="53.355677" lon="-1.946004"><ele>458</ele><time>2021-10-01T10:57:02Z</time><name>PT2000</name></trkpt>
<trkpt lat="53.355686" lon="-1.946012"><ele>458</ele><time>2021-10-01T10:57:03Z</time><name>PT2001</name></trkpt>
<trkpt lat="53.355697" lon="-1.946018"><ele>458</ele><time>2021-10-01T10:57:04Z</time><name>PT2002</name></trkpt>
<trkpt lat="53.355709" lon="-1.946026"><ele>457</ele><time>2021-10-01T10:57:05Z</time><name>PT2003</name></trkpt>
<trkpt lat="53.355718" lon="-1.946030"><ele>457</ele><time>2021-10-01T10:57:06Z</time><name>PT2004</name></trkpt>
<trkpt lat="53.355730" lon="-1.946033"><ele>457</ele><time>2021-10-01T10:57:07Z</time><name>PT2005</name></trkpt>
<trkpt lat="53.355740" lon="-1.946038"><ele>457</ele><time>2021-10-01T10:57:08Z</time><name>PT2006</name></trkpt>
<trkpt lat="53.355750" lon="-1.946044"><ele>457</ele><time>2021-10-01T10:57:09Z</time><name>PT2007</name></trkpt>
<trkpt lat="53.355760" lon="-1.946045"><ele>457</ele><time>2021-10-01T10:57:10Z</time><name>PT2008</name></trkpt>
<trkpt lat="53.355769" lon="-1.946046"><ele>458</ele><time>2021-10-01T10:57:11Z</time><name>PT2009</name></trkpt>
<trkpt lat="53.355782" lon="-1.946050"><ele>457</ele><time>2021-10-01T10:57:12Z</time><name>PT2010</name></trkpt>
<trkpt lat="53.355793" lon="-1.946052"><ele>458</ele><time>2021-10-01T10:57:13Z</time><name>PT2011</name></trkpt>
<trkpt lat="53.355803" lon="-1.946050"><ele>458</ele><time>2021-10-01T10:57:14Z</time><name>PT2012</name></trkpt>
<trkpt lat="53.355812" lon="-1.946048"><ele>457</ele><time>2021-10-01T10:57:15Z</time><name>PT2013</name></trkpt>
<trkpt lat="53.355823" lon="-1.946047"><ele>457</ele><time>2021-10-01T10:57:16Z</time><name>PT2014</name></trkpt>
<trkpt lat="53.355836" lon="-1.946045"><ele>457</ele><time>2021-10-01T10:57:17Z</time><name>PT2015</name></trkpt>
<trkpt lat="53.355848" lon="-1.946042"><ele>457</ele><time>2021-10-01T10:57:18Z</time><name>PT2016</name></trkpt>
<trkpt lat="53.355858" lon="-1.946040"><ele>457</ele><time>2021-10-01T10:57:19Z</time><name>PT2017</name></trkpt>
<trkpt lat="53.355872" lon="-1.946040"><ele>457</ele><time>2021-10-01T10:57:20Z</time><name>PT2018</name></trkpt>
<trkpt lat="53.355885" lon="-1.946042"><ele>458</ele><time>2021-10-01T10:57:21Z</time><name>PT2019</name></trkpt>
<trkpt lat="53.355894" lon="-1.946045"><ele>458</ele><time>2021-10-01T10:57:22Z</time><name>PT2020</name></trkpt>
<trkpt lat="53.355904" lon="-1.946048"><ele>458</ele><time>2021-10-01T10:57:23Z</time><name>PT2021</name></trkpt>
<trkpt lat="53.355917" lon="-1.946050"><ele>458</ele><time>2021-10-01T10:57:24Z</time><name>PT2022</name></trkpt>
<trkpt lat="53.355929" lon="-1.946053"><ele>458</ele><time>2021-10-01T10:57:25Z</time><name>PT2023</name></trkpt>
<trkpt lat="53.355941" lon="-1.946059"><ele>458</ele><time>2021-10-01T10:57:26Z</time><name>PT2024</name></trkpt>
<trkpt lat="53.355950" lon="-1.946062"><ele>458</ele><time>2021-10-01T10:57:27Z</time><name>PT2025</name></trkpt>
<trkpt lat="53.355961" lon="-1.946063"><ele>458</ele><time>2021-10-01T10:57:28Z</time><name>PT2026</name></trkpt>
<trkpt lat="53.355973" lon="-1.946065"><ele>458</ele><time>2021-10-01T10:57:29Z</time><name>PT2027</name></trkpt>
<trkpt lat="53.355984" lon="-1.946071"><ele>458</ele><time>2021-10-01T10:57:30Z</time><name>PT2028</name></trkpt>
<trkpt lat="53.355996" lon="-1.946075"><ele>458</ele><time>2021-10-01T10:57:31Z</time><name>PT2029</name></trkpt>
<trkpt lat="53.356008" lon="-1.946076"><ele>458</ele><time>2021-10-01T10:57:32Z</time><name>PT2030</name></trkpt>
<trkpt lat="53.356017" lon="-1.946074"><ele>458</ele><time>2021-10-01T10:57:33Z</time><name>PT2031</name></trkpt>
<trkpt lat="53.356024" lon="-1.946078"><ele>458</ele><time>2021-10-01T10:57:34Z</time><name>PT2032</name></trkpt>
<trkpt lat="53.356036" lon="-1.946081"><ele>458</ele><time>2021-10-01T10:57:35Z</time><name>PT2033</name></trkpt>
<trkpt lat="53.356047" lon="-1.946085"><ele>458</ele><time>2021-10-01T10:57:36Z</time><name>PT2034</name></trkpt>
<trkpt lat="53.356057" lon="-1.946084"><ele>458</ele><time>2021-10-01T10:57:37Z</time><name>PT2035</name></trkpt>
<trkpt lat="53.356070" lon="-1.946085"><ele>457</ele><time>2021-10-01T10:57:38Z</time><name>PT2036</name></trkpt>
<trkpt lat="53.356082" lon="-1.946089"><ele>457</ele><time>2021-10-01T10:57:39Z</time><name>PT2037</name></trkpt>
<trkpt lat="53.356094" lon="-1.946092"><ele>458</ele><time>2021-10-01T10:57:40Z</time><name>PT2038</name></trkpt>
<trkpt lat="53.356105" lon="-1.946092"><ele>457</ele><time>2021-10-01T10:57:41Z</time><name>PT2039</name></trkpt>
<trkpt lat="53.356117" lon="-1.946091"><ele>457</ele><time>2021-10-01T10:57:42Z</time><name>PT2040</name></trkpt>
<trkpt lat="53.356127" lon="-1.946093"><ele>457</ele><time>2021-10-01T10:57:43Z</time><name>PT2041</name></trkpt>
<trkpt lat="53.356136" lon="-1.946096"><ele>457</ele><time>2021-10-01T10:57:44Z</time><name>PT2042</name></trkpt>
<trkpt lat="53.356144" lon="-1.946097"><ele>457</ele><time>2021-10-01T10:57:45Z</time><name>PT2043</name></trkpt>
<trkpt lat="53.356155" lon="-1.946094"><ele>457</ele><time>2021-10-01T10:57:46Z</time><name>PT2044</name></trkpt>
<trkpt lat="53.356166" lon="-1.946091"><ele>457</ele><time>2021-10-01T10:57:47Z</time><name>PT2045</name></trkpt>
<trkpt lat="53.356179" lon="-1.946090"><ele>457</ele><time>2021-10-01T10:57:48Z</time><name>PT2046</name></trkpt>
<trkpt lat="53.356190" lon="-1.946093"><ele>458</ele><time>2021-10-01T10:57:49Z</time><name>PT2047</name></trkpt>
<trkpt lat="53.356200" lon="-1.946097"><ele>458</ele><time>2021-10-01T10:57:50Z</time><name>PT2048</name></trkpt>
<trkpt lat="53.356206" lon="-1.946098"><ele>457</ele><time>2021-10-01T10:57:51Z</time><name>PT2049</name></trkpt>
<trkpt lat="53.356216" lon="-1.946097"><ele>457</ele><time>2021-10-01T10:57:52Z</time><name>PT2050</name></trkpt>
<trkpt lat="53.356227" lon="-1.946099"><ele>458</ele><time>2021-10-01T10:57:53Z</time><name>PT2051</name></trkpt>
<trkpt lat="53.356239" lon="-1.946104"><ele>457</ele><time>2021-10-01T10:57:54Z</time><name>PT2052</name></trkpt>
<trkpt lat="53.356253" lon="-1.946106"><ele>458</ele><time>2021-10-01T10:57:55Z</time><name>PT2053</name></trkpt>
<trkpt lat="53.356265" lon="-1.946104"><ele>458</ele><time>2021-10-01T10:57:56Z</time><name>PT2054</name></trkpt>
<trkpt lat="53.356275" lon="-1.946101"><ele>458</ele><time>2021-10-01T10:57:57Z</time><name>PT2055</name></trkpt>
<trkpt lat="53.356287" lon="-1.946096"><ele>458</ele><time>2021-10-01T10:57:58Z</time><name>PT2056</name></trkpt>
<trkpt lat="53.356297" lon="-1.946097"><ele>458</ele><time>2021-10-01T10:57:59Z</time><name>PT2057</name></trkpt>
<trkpt lat="53.356308" lon="-1.946102"><ele>458</ele><time>2021-10-01T10:58:00Z</time><name>PT2058</name></trkpt>
<trkpt lat="53.356318" lon="-1.946103"><ele>458</ele><time>2021-10-01T10:58:01Z</time><name>PT2059</name></trkpt>
<trkpt lat="53.356329" lon="-1.946103"><ele>458</ele><time>2021-10-01T10:58:02Z</time><name>PT2060</name></trkpt>
<trkpt lat="53.356341" lon="-1.946102"><ele>458</ele><time>2021-10-01T10:58:03Z</time><name>PT2061</name></trkpt>
<trkpt lat="53.356352" lon="-1.946102"><ele>458</ele><time>2021-10-01T10:58:04Z</time><name>PT2062</name></trkpt>
<trkpt lat="53.356366" lon="-1.946103"><ele>458</ele><time>2021-10-01T10:58:05Z</time><name>PT2063</name></trkpt>
<trkpt lat="53.356376" lon="-1.946104"><ele>458</ele><time>2021-10-01T10:58:06Z</time><name>PT2064</name></trkpt>
<trkpt lat="53.356387" lon="-1.946104"><ele>458</ele><time>2021-10-01T10:58:07Z</time><name>PT2065</name></trkpt>
<trkpt lat="53.356399" lon="-1.946106"><ele>459</ele><time>2021-10-01T10:58:08Z</time><name>PT2066</name></trkpt>
<trkpt lat="53.356413" lon="-1.946107"><ele>459</ele><time>2021-10-01T10:58:09Z</time><name>PT2067</name></trkpt>
<trkpt lat="53.356427" lon="-1.946109"><ele>458</ele><time>2021-10-01T10:58:10Z</time><name>PT2068</name></trkpt>
<trkpt lat="53.356438" lon="-1.946108"><ele>458</ele><time>2021-10-01T10:58:11Z</time><name>PT2069</name></trkpt>
<trkpt lat="53.356449" lon="-1.946108"><ele>459</ele><time>2021-10-01T10:58:12Z</time><name>PT2070</name></trkpt>
<trkpt lat="53.356460" lon="-1.946109"><ele>459</ele><time>2021-10-01T10:58:13Z</time><name>PT2071</name></trkpt>
<trkpt lat="53.356471" lon="-1.946113"><ele>459</ele><time>2021-10-01T10:58:14Z</time><name>PT2072</name></trkpt>
<trkpt lat="53.356480" lon="-1.946117"><ele>458</ele><time>2021-10-01T10:58:15Z</time><name>PT2073</name></trkpt>
<trkpt lat="53.356488" lon="-1.946121"><ele>458</ele><time>2021-10-01T10:58:16Z</time><name>PT2074</name></trkpt>
<trkpt lat="53.356497" lon="-1.946124"><ele>458</ele><time>2021-10-01T10:58:17Z</time><name>PT2075</name></trkpt>
<trkpt lat="53.356507" lon="-1.946127"><ele>458</ele><time>2021-10-01T10:58:18Z</time><name>PT2076</name></trkpt>
<trkpt lat="53.356516" lon="-1.946130"><ele>458</ele><time>2021-10-01T10:58:19Z</time><name>PT2077</name></trkpt>
<trkpt lat="53.356525" lon="-1.946130"><ele>457</ele><time>2021-10-01T10:58:20Z</time><name>PT2078</name></trkpt>
<trkpt lat="53.356535" lon="-1.946129"><ele>457</ele><time>2021-10-01T10:58:21Z</time><name>PT2079</name></trkpt>
<trkpt lat="53.356547" lon="-1.946124"><ele>457</ele><time>2021-10-01T10:58:22Z</time><name>PT2080</name></trkpt>
<trkpt lat="53.356559" lon="-1.946120"><ele>457</ele><time>2021-10-01T10:58:23Z</time><name>PT2081</name></trkpt>
<trkpt lat="53.356572" lon="-1.946115"><ele>457</ele><time>2021-10-01T10:58:24Z</time><name>PT2082</name></trkpt>
<trkpt lat="53.356584" lon="-1.946117"><ele>457</ele><time>2021-10-01T10:58:25Z</time><name>PT2083</name></trkpt>
<trkpt lat="53.356596" lon="-1.946118"><ele>457</ele><time>2021-10-01T10:58:26Z</time><name>PT2084</name></trkpt>
<trkpt lat="53.356609" lon="-1.946114"><ele>456</ele><time>2021-10-01T10:58:27Z</time><name>PT2085</name></trkpt>
<trkpt lat="53.356622" lon="-1.946110"><ele>456</ele><time>2021-10-01T10:58:28Z</time><name>PT2086</name></trkpt>
<trkpt lat="53.356671" lon="-1.946106"><ele>456</ele><time>2021-10-01T10:58:32Z</time><name>PT2087</name></trkpt>
<trkpt lat="53.356719" lon="-1.946102"><ele>456</ele><time>2021-10-01T10:58:36Z</time><name>PT2088</name></trkpt>
<trkpt lat="53.356751" lon="-1.946096"><ele>456</ele><time>2021-10-01T10:58:39Z</time><name>PT2089</name></trkpt>
<trkpt lat="53.356791" lon="-1.946089"><ele>455</ele><time>2021-10-01T10:58:42Z</time><name>PT2090</name></trkpt>
<trkpt lat="53.356829" lon="-1.946086"><ele>455</ele><time>2021-10-01T10:58:45Z</time><name>PT2091</name></trkpt>
<trkpt lat="53.356869" lon="-1.946084"><ele>455</ele><time>2021-10-01T10:58:48Z</time><name>PT2092</name></trkpt>
<trkpt lat="53.356919" lon="-1.946088"><ele>454</ele><time>2021-10-01T10:58:52Z</time><name>PT2093</name></trkpt>
<trkpt lat="53.356964" lon="-1.946084"><ele>452</ele><time>2021-10-01T10:58:56Z</time><name>PT2094</name></trkpt>
<trkpt lat="53.356976" lon="-1.946084"><ele>453</ele><time>2021-10-01T10:58:57Z</time><name>PT2095</name></trkpt>
<trkpt lat="53.356988" lon="-1.946084"><ele>453</ele><time>2021-10-01T10:58:58Z</time><name>PT2096</name></trkpt>
<trkpt lat="53.357003" lon="-1.946081"><ele>453</ele><time>2021-10-01T10:58:59Z</time><name>PT2097</name></trkpt>
<trkpt lat="53.357016" lon="-1.946081"><ele>453</ele><time>2021-10-01T10:59:00Z</time><name>PT2098</name></trkpt>
<trkpt lat="53.357029" lon="-1.946079"><ele>453</ele><time>2021-10-01T10:59:01Z</time><name>PT2099</name></trkpt>
<trkpt lat="53.357041" lon="-1.946075"><ele>454</ele><time>2021-10-01T10:59:02Z</time><name>PT2100</name></trkpt>
<trkpt lat="53.357053" lon="-1.946072"><ele>454</ele><time>2021-10-01T10:59:03Z</time><name>PT2101</name></trkpt>
<trkpt lat="53.357064" lon="-1.946072"><ele>454</ele><time>2021-10-01T10:59:04Z</time><name>PT2102</name></trkpt>
<trkpt lat="53.357075" lon="-1.946071"><ele>454</ele><time>2021-10-01T10:59:05Z</time><name>PT2103</name></trkpt>
<trkpt lat="53.357087" lon="-1.946067"><ele>454</ele><time>2021-10-01T10:59:06Z</time><name>PT2104</name></trkpt>
<trkpt lat="53.357097" lon="-1.946061"><ele>454</ele><time>2021-10-01T10:59:07Z</time><name>PT2105</name></trkpt>
<trkpt lat="53.357107" lon="-1.946055"><ele>454</ele><time>2021-10-01T10:59:08Z</time><name>PT2106</name></trkpt>
<trkpt lat="53.357117" lon="-1.946053"><ele>454</ele><time>2021-10-01T10:59:09Z</time><name>PT2107</name></trkpt>
<trkpt lat="53.357126" lon="-1.946055"><ele>454</ele><time>2021-10-01T10:59:10Z</time><name>PT2108</name></trkpt>
<trkpt lat="53.357135" lon="-1.946058"><ele>454</ele><time>2021-10-01T10:59:11Z</time><name>PT2109</name></trkpt>
<trkpt lat="53.357145" lon="-1.946063"><ele>454</ele><time>2021-10-01T10:59:12Z</time><name>PT2110</name></trkpt>
<trkpt lat="53.357157" lon="-1.946068"><ele>454</ele><time>2021-10-01T10:59:13Z</time><name>PT2111</name></trkpt>
<trkpt lat="53.357168" lon="-1.946066"><ele>454</ele><time>2021-10-01T10:59:14Z</time><name>PT2112</name></trkpt>
<trkpt lat="53.357180" lon="-1.946060"><ele>454</ele><time>2021-10-01T10:59:15Z</time><name>PT2113</name></trkpt>
<trkpt lat="53.357191" lon="-1.946055"><ele>454</ele><time>2021-10-01T10:59:16Z</time><name>PT2114</name></trkpt>
<trkpt lat="53.357202" lon="-1.946051"><ele>454</ele><time>2021-10-01T10:59:17Z</time><name>PT2115</name></trkpt>
<trkpt lat="53.357213" lon="-1.946044"><ele>454</ele><time>2021-10-01T10:59:18Z</time><name>PT2116</name></trkpt>
<trkpt lat="53.357225" lon="-1.946037"><ele>454</ele><time>2021-10-01T10:59:19Z</time><name>PT2117</name></trkpt>
<trkpt lat="53.357235" lon="-1.946031"><ele>454</ele><time>2021-10-01T10:59:20Z</time><name>PT2118</name></trkpt>
<trkpt lat="53.357246" lon="-1.946031"><ele>454</ele><time>2021-10-01T10:59:21Z</time><name>PT2119</name></trkpt>
<trkpt lat="53.357259" lon="-1.946030"><ele>454</ele><time>2021-10-01T10:59:22Z</time><name>PT2120</name></trkpt>
<trkpt lat="53.357270" lon="-1.946025"><ele>454</ele><time>2021-10-01T10:59:23Z</time><name>PT2121</name></trkpt>
<trkpt lat="53.357280" lon="-1.946020"><ele>453</ele><time>2021-10-01T10:59:24Z</time><name>PT2122</name></trkpt>
<trkpt lat="53.357290" lon="-1.946012"><ele>453</ele><time>2021-10-01T10:59:25Z</time><name>PT2123</name></trkpt>
<trkpt lat="53.357301" lon="-1.946009"><ele>453</ele><time>2021-10-01T10:59:26Z</time><name>PT2124</name></trkpt>
<trkpt lat="53.357311" lon="-1.946001"><ele>453</ele><time>2021-10-01T10:59:27Z</time><name>PT2125</name></trkpt>
<trkpt lat="53.357324" lon="-1.945991"><ele>452</ele><time>2021-10-01T10:59:28Z</time><name>PT2126</name></trkpt>
<trkpt lat="53.357337" lon="-1.945987"><ele>452</ele><time>2021-10-01T10:59:29Z</time><name>PT2127</name></trkpt>
<trkpt lat="53.357348" lon="-1.945980"><ele>452</ele><time>2021-10-01T10:59:30Z</time><name>PT2128</name></trkpt>
<trkpt lat="53.357359" lon="-1.945975"><ele>452</ele><time>2021-10-01T10:59:31Z</time><name>PT2129</name></trkpt>
<trkpt lat="53.357373" lon="-1.945973"><ele>452</ele><time>2021-10-01T10:59:32Z</time><name>PT2130</name></trkpt>
<trkpt lat="53.357383" lon="-1.945967"><ele>452</ele><time>2021-10-01T10:59:33Z</time><name>PT2131</name></trkpt>
<trkpt lat="53.357394" lon="-1.945962"><ele>452</ele><time>2021-10-01T10:59:34Z</time><name>PT2132</name></trkpt>
<trkpt lat="53.357407" lon="-1.945957"><ele>452</ele><time>2021-10-01T10:59:35Z</time><name>PT2133</name></trkpt>
<trkpt lat="53.357421" lon="-1.945951"><ele>452</ele><time>2021-10-01T10:59:36Z</time><name>PT2134</name></trkpt>
<trkpt lat="53.357431" lon="-1.945951"><ele>452</ele><time>2021-10-01T10:59:37Z</time><name>PT2135</name></trkpt>
<trkpt lat="53.357442" lon="-1.945949"><ele>451</ele><time>2021-10-01T10:59:38Z</time><name>PT2136</name></trkpt>
<trkpt lat="53.357455" lon="-1.945945"><ele>451</ele><time>2021-10-01T10:59:39Z</time><name>PT2137</name></trkpt>
<trkpt lat="53.357467" lon="-1.945940"><ele>451</ele><time>2021-10-01T10:59:40Z</time><name>PT2138</name></trkpt>
<trkpt lat="53.357475" lon="-1.945936"><ele>451</ele><time>2021-10-01T10:59:41Z</time><name>PT2139</name></trkpt>
<trkpt lat="53.357484" lon="-1.945933"><ele>450</ele><time>2021-10-01T10:59:42Z</time><name>PT2140</name></trkpt>
<trkpt lat="53.357492" lon="-1.945928"><ele>450</ele><time>2021-10-01T10:59:43Z</time><name>PT2141</name></trkpt>
<trkpt lat="53.357503" lon="-1.945921"><ele>450</ele><time>2021-10-01T10:59:44Z</time><name>PT2142</name></trkpt>
<trkpt lat="53.357515" lon="-1.945917"><ele>450</ele><time>2021-10-01T10:59:45Z</time><name>PT2143</name></trkpt>
<trkpt lat="53.357527" lon="-1.945913"><ele>450</ele><time>2021-10-01T10:59:46Z</time><name>PT2144</name></trkpt>
<trkpt lat="53.357538" lon="-1.945911"><ele>449</ele><time>2021-10-01T10:59:47Z</time><name>PT2145</name></trkpt>
<trkpt lat="53.357546" lon="-1.945912"><ele>449</ele><time>2021-10-01T10:59:48Z</time><name>PT2146</name></trkpt>
<trkpt lat="53.357556" lon="-1.945912"><ele>449</ele><time>2021-10-01T10:59:49Z</time><name>PT2147</name></trkpt>
<trkpt lat="53.357565" lon="-1.945911"><ele>448</ele><time>2021-10-01T10:59:50Z</time><name>PT2148</name></trkpt>
<trkpt lat="53.357576" lon="-1.945907"><ele>449</ele><time>2021-10-01T10:59:51Z</time><name>PT2149</name></trkpt>
<trkpt lat="53.357584" lon="-1.945897"><ele>448</ele><time>2021-10-01T10:59:52Z</time><name>PT2150</name></trkpt>
<trkpt lat="53.357591" lon="-1.945892"><ele>449</ele><time>2021-10-01T10:59:53Z</time><name>PT2151</name></trkpt>
<trkpt lat="53.357601" lon="-1.945888"><ele>448</ele><time>2021-10-01T10:59:54Z</time><name>PT2152</name></trkpt>
<trkpt lat="53.357612" lon="-1.945882"><ele>448</ele><time>2021-10-01T10:59:55Z</time><name>PT2153</name></trkpt>
<trkpt lat="53.357621" lon="-1.945879"><ele>447</ele><time>2021-10-01T10:59:56Z</time><name>PT2154</name></trkpt>
<trkpt lat="53.357632" lon="-1.945878"><ele>447</ele><time>2021-10-01T10:59:57Z</time><name>PT2155</name></trkpt>
<trkpt lat="53.357640" lon="-1.945877"><ele>447</ele><time>2021-10-01T10:59:58Z</time><name>PT2156</name></trkpt>
<trkpt lat="53.357650" lon="-1.945869"><ele>447</ele><time>2021-10-01T10:59:59Z</time><name>PT2157</name></trkpt>
<trkpt lat="53.357658" lon="-1.945862"><ele>446</ele><time>2021-10-01T11:00:00Z</time><name>PT2158</name></trkpt>
<trkpt lat="53.357665" lon="-1.945859"><ele>446</ele><time>2021-10-01T11:00:01Z</time><name>PT2159</name></trkpt>
<trkpt lat="53.357674" lon="-1.945853"><ele>446</ele><time>2021-10-01T11:00:02Z</time><name>PT2160</name></trkpt>
<trkpt lat="53.357684" lon="-1.945846"><ele>446</ele><time>2021-10-01T11:00:03Z</time><name>PT2161</name></trkpt>
<trkpt lat="53.357694" lon="-1.945839"><ele>446</ele><time>2021-10-01T11:00:04Z</time><name>PT2162</name></trkpt>
<trkpt lat="53.357703" lon="-1.945827"><ele>446</ele><time>2021-10-01T11:00:05Z</time><name>PT2163</name></trkpt>
<trkpt lat="53.357713" lon="-1.945816"><ele>446</ele><time>2021-10-01T11:00:06Z</time><name>PT2164</name></trkpt>
<trkpt lat="53.357725" lon="-1.945808"><ele>447</ele><time>2021-10-01T11:00:07Z</time><name>PT2165</name></trkpt>
<trkpt lat="53.357735" lon="-1.945800"><ele>446</ele><time>2021-10-01T11:00:08Z</time><name>PT2166</name></trkpt>
<trkpt lat="53.357742" lon="-1.945792"><ele>446</ele><time>2021-10-01T11:00:09Z</time><name>PT2167</name></trkpt>
<trkpt lat="53.357749" lon="-1.945785"><ele>446</ele><time>2021-10-01T11:00:10Z</time><name>PT2168</name></trkpt>
<trkpt lat="53.357758" lon="-1.945775"><ele>445</ele><time>2021-10-01T11:00:11Z</time><name>PT2169</name></trkpt>
<trkpt lat="53.357767" lon="-1.945764"><ele>445</ele><time>2021-10-01T11:00:12Z</time><name>PT2170</name></trkpt>
<trkpt lat="53.357775" lon="-1.945751"><ele>445</ele><time>2021-10-01T11:00:13Z</time><name>PT2171</name></trkpt>
<trkpt lat="53.357782" lon="-1.945741"><ele>444</ele><time>2021-10-01T11:00:14Z</time><name>PT2172</name></trkpt>
<trkpt lat="53.357791" lon="-1.945733"><ele>444</ele><time>2021-10-01T11:00:15Z</time><name>PT2173</name></trkpt>
<trkpt lat="53.357798" lon="-1.945726"><ele>444</ele><time>2021-10-01T11:00:16Z</time><name>PT2174</name></trkpt>
<trkpt lat="53.357810" lon="-1.945715"><ele>444</ele><time>2021-10-01T11:00:17Z</time><name>PT2175</name></trkpt>
<trkpt lat="53.357820" lon="-1.945703"><ele>444</ele><time>2021-10-01T11:00:18Z</time><name>PT2176</name></trkpt>
<trkpt lat="53.357831" lon="-1.945691"><ele>444</ele><time>2021-10-01T11:00:19Z</time><name>PT2177</name></trkpt>
<trkpt lat="53.357843" lon="-1.945678"><ele>444</ele><time>2021-10-01T11:00:20Z</time><name>PT2178</name></trkpt>
<trkpt lat="53.357855" lon="-1.945663"><ele>444</ele><time>2021-10-01T11:00:21Z</time><name>PT2179</name></trkpt>
<trkpt lat="53.357864" lon="-1.945656"><ele>444</ele><time>2021-10-01T11:00:22Z</time><name>PT2180</name></trkpt>
<trkpt lat="53.357874" lon="-1.945648"><ele>444</ele><time>2021-10-01T11:00:23Z</time><name>PT2181</name></trkpt>
<trkpt lat="53.357886" lon="-1.945643"><ele>444</ele><time>2021-10-01T11:00:24Z</time><name>PT2182</name></trkpt>
<trkpt lat="53.357898" lon="-1.945641"><ele>444</ele><time>2021-10-01T11:00:25Z</time><name>PT2183</name></trkpt>
<trkpt lat="53.357905" lon="-1.945642"><ele>444</ele><time>2021-10-01T11:00:26Z</time><name>PT2184</name></trkpt>
<trkpt lat="53.357912" lon="-1.945638"><ele>443</ele><time>2021-10-01T11:00:27Z</time><name>PT2185</name></trkpt>
<trkpt lat="53.357921" lon="-1.945631"><ele>443</ele><time>2021-10-01T11:00:28Z</time><name>PT2186</name></trkpt>
<trkpt lat="53.357931" lon="-1.945624"><ele>443</ele><time>2021-10-01T11:00:29Z</time><name>PT2187</name></trkpt>
<trkpt lat="53.357941" lon="-1.945616"><ele>443</ele><time>2021-10-01T11:00:30Z</time><name>PT2188</name></trkpt>
<trkpt lat="53.357951" lon="-1.945610"><ele>443</ele><time>2021-10-01T11:00:31Z</time><name>PT2189</name></trkpt>
<trkpt lat="53.357961" lon="-1.945607"><ele>442</ele><time>2021-10-01T11:00:32Z</time><name>PT2190</name></trkpt>
<trkpt lat="53.357971" lon="-1.945600"><ele>443</ele><time>2021-10-01T11:00:33Z</time><name>PT2191</name></trkpt>
<trkpt lat="53.357980" lon="-1.945588"><ele>442</ele><time>2021-10-01T11:00:34Z</time><name>PT2192</name></trkpt>
<trkpt lat="53.357993" lon="-1.945573"><ele>443</ele><time>2021-10-01T11:00:35Z</time><name>PT2193</name></trkpt>
<trkpt lat="53.358006" lon="-1.945563"><ele>443</ele><time>2021-10-01T11:00:36Z</time><name>PT2194</name></trkpt>
<trkpt lat="53.358014" lon="-1.945559"><ele>443</ele><time>2021-10-01T11:00:37Z</time><name>PT2195</name></trkpt>
<trkpt lat="53.358026" lon="-1.945552"><ele>444</ele><time>2021-10-01T11:00:38Z</time><name>PT2196</name></trkpt>
<trkpt lat="53.358034" lon="-1.945544"><ele>445</ele><time>2021-10-01T11:00:39Z</time><name>PT2197</name></trkpt>
<trkpt lat="53.358043" lon="-1.945531"><ele>445</ele><time>2021-10-01T11:00:40Z</time><name>PT2198</name></trkpt>
<trkpt lat="53.358048" lon="-1.945526"><ele>444</ele><time>2021-10-01T11:00:41Z</time><name>PT2199</name></trkpt>
<trkpt lat="53.358059" lon="-1.945518"><ele>444</ele><time>2021-10-01T11:00:42Z</time><name>PT2200</name></trkpt>
<trkpt lat="53.358069" lon="-1.945504"><ele>444</ele><time>2021-10-01T11:00:43Z</time><name>PT2201</name></trkpt>
<trkpt lat="53.358084" lon="-1.945489"><ele>445</ele><time>2021-10-01T11:00:44Z</time><name>PT2202</name></trkpt>
<trkpt lat="53.358095" lon="-1.945476"><ele>445</ele><time>2021-10-01T11:00:45Z</time><name>PT2203</name></trkpt>
<trkpt lat="53.358108" lon="-1.945465"><ele>444</ele><time>2021-10-01T11:00:46Z</time><name>PT2204</name></trkpt>
<trkpt lat="53.358122" lon="-1.945453"><ele>444</ele><time>2021-10-01T11:00:47Z</time><name>PT2205</name></trkpt>
<trkpt lat="53.358138" lon="-1.945442"><ele>445</ele><time>2021-10-01T11:00:48Z</time><name>PT2206</name></trkpt>
<trkpt lat="53.358150" lon="-1.945432"><ele>445</ele><time>2021-10-01T11:00:49Z</time><name>PT2207</name></trkpt>
<trkpt lat="53.358164" lon="-1.945419"><ele>445</ele><time>2021-10-01T11:00:50Z</time><name>PT2208</name></trkpt>
<trkpt lat="53.358173" lon="-1.945411"><ele>445</ele><time>2021-10-01T11:00:51Z</time><name>PT2209</name></trkpt>
<trkpt lat="53.358185" lon="-1.945402"><ele>445</ele><time>2021-10-01T11:00:52Z</time><name>PT2210</name></trkpt>
<trkpt lat="53.358197" lon="-1.945393"><ele>445</ele><time>2021-10-01T11:00:53Z</time><name>PT2211</name></trkpt>
<trkpt lat="53.358209" lon="-1.945386"><ele>446</ele><time>2021-10-01T11:00:54Z</time><name>PT2212</name></trkpt>
<trkpt lat="53.358223" lon="-1.945374"><ele>446</ele><time>2021-10-01T11:00:55Z</time><name>PT2213</name></trkpt>
<trkpt lat="53.358233" lon="-1.945361"><ele>447</ele><time>2021-10-01T11:00:56Z</time><name>PT2214</name></trkpt>
<trkpt lat="53.358242" lon="-1.945355"><ele>447</ele><time>2021-10-01T11:00:57Z</time><name>PT2215</name></trkpt>
<trkpt lat="53.358253" lon="-1.945345"><ele>447</ele><time>2021-10-01T11:00:58Z</time><name>PT2216</name></trkpt>
<trkpt lat="53.358267" lon="-1.945335"><ele>447</ele><time>2021-10-01T11:00:59Z</time><name>PT2217</name></trkpt>
<trkpt lat="53.358278" lon="-1.945325"><ele>448</ele><time>2021-10-01T11:01:00Z</time><name>PT2218</name></trkpt>
<trkpt lat="53.358284" lon="-1.945320"><ele>448</ele><time>2021-10-01T11:01:01Z</time><name>PT2219</name></trkpt>
<trkpt lat="53.358295" lon="-1.945309"><ele>448</ele><time>2021-10-01T11:01:02Z</time><name>PT2220</name></trkpt>
<trkpt lat="53.358303" lon="-1.945300"><ele>448</ele><time>2021-10-01T11:01:03Z</time><name>PT2221</name></trkpt>
<trkpt lat="53.358313" lon="-1.945289"><ele>448</ele><time>2021-10-01T11:01:04Z</time><name>PT2222</name></trkpt>
<trkpt lat="53.358324" lon="-1.945280"><ele>448</ele><time>2021-10-01T11:01:05Z</time><name>PT2223</name></trkpt>
<trkpt lat="53.358330" lon="-1.945274"><ele>448</ele><time>2021-10-01T11:01:06Z</time><name>PT2224</name></trkpt>
<trkpt lat="53.358341" lon="-1.945266"><ele>448</ele><time>2021-10-01T11:01:07Z</time><name>PT2225</name></trkpt>
<trkpt lat="53.358352" lon="-1.945261"><ele>448</ele><time>2021-10-01T11:01:08Z</time><name>PT2226</name></trkpt>
<trkpt lat="53.358363" lon="-1.945254"><ele>448</ele><time>2021-10-01T11:01:09Z</time><name>PT2227</name></trkpt>
<trkpt lat="53.358373" lon="-1.945248"><ele>448</ele><time>2021-10-01T11:01:10Z</time><name>PT2228</name></trkpt>
<trkpt lat="53.358384" lon="-1.945241"><ele>448</ele><time>2021-10-01T11:01:11Z</time><name>PT2229</name></trkpt>
<trkpt lat="53.358396" lon="-1.945233"><ele>448</ele><time>2021-10-01T11:01:12Z</time><name>PT2230</name></trkpt>
<trkpt lat="53.358406" lon="-1.945222"><ele>449</ele><time>2021-10-01T11:01:13Z</time><name>PT2231</name></trkpt>
<trkpt lat="53.358420" lon="-1.945211"><ele>449</ele><time>2021-10-01T11:01:14Z</time><name>PT2232</name></trkpt>
<trkpt lat="53.358425" lon="-1.945210"><ele>448</ele><time>2021-10-01T11:01:15Z</time><name>PT2233</name></trkpt>
<trkpt lat="53.358438" lon="-1.945203"><ele>448</ele><time>2021-10-01T11:01:16Z</time><name>PT2234</name></trkpt>
<trkpt lat="53.358453" lon="-1.945196"><ele>449</ele><time>2021-10-01T11:01:17Z</time><name>PT2235</name></trkpt>
<trkpt lat="53.358465" lon="-1.945192"><ele>449</ele><time>2021-10-01T11:01:18Z</time><name>PT2236</name></trkpt>
<trkpt lat="53.358476" lon="-1.945185"><ele>449</ele><time>2021-10-01T11:01:19Z</time><name>PT2237</name></trkpt>
<trkpt lat="53.358488" lon="-1.945182"><ele>449</ele><time>2021-10-01T11:01:20Z</time><name>PT2238</name></trkpt>
<trkpt lat="53.358495" lon="-1.945181"><ele>449</ele><time>2021-10-01T11:01:21Z</time><name>PT2239</name></trkpt>
<trkpt lat="53.358503" lon="-1.945179"><ele>449</ele><time>2021-10-01T11:01:22Z</time><name>PT2240</name></trkpt>
<trkpt lat="53.358509" lon="-1.945174"><ele>449</ele><time>2021-10-01T11:01:23Z</time><name>PT2241</name></trkpt>
<trkpt lat="53.358516" lon="-1.945167"><ele>449</ele><time>2021-10-01T11:01:24Z</time><name>PT2242</name></trkpt>
<trkpt lat="53.358521" lon="-1.945163"><ele>449</ele><time>2021-10-01T11:01:26Z</time><name>PT2243</name></trkpt>
<trkpt lat="53.358533" lon="-1.945152"><ele>449</ele><time>2021-10-01T11:01:27Z</time><name>PT2244</name></trkpt>
<trkpt lat="53.358542" lon="-1.945144"><ele>448</ele><time>2021-10-01T11:01:28Z</time><name>PT2245</name></trkpt>
<trkpt lat="53.358548" lon="-1.945132"><ele>448</ele><time>2021-10-01T11:01:29Z</time><name>PT2246</name></trkpt>
<trkpt lat="53.358560" lon="-1.945120"><ele>448</ele><time>2021-10-01T11:01:30Z</time><name>PT2247</name></trkpt>
<trkpt lat="53.358565" lon="-1.945111"><ele>447</ele><time>2021-10-01T11:01:31Z</time><name>PT2248</name></trkpt>
<trkpt lat="53.358574" lon="-1.945100"><ele>447</ele><time>2021-10-01T11:01:32Z</time><name>PT2249</name></trkpt>
<trkpt lat="53.358577" lon="-1.945093"><ele>446</ele><time>2021-10-01T11:01:33Z</time><name>PT2250</name></trkpt>
<trkpt lat="53.358584" lon="-1.945086"><ele>446</ele><time>2021-10-01T11:01:34Z</time><name>PT2251</name></trkpt>
<trkpt lat="53.358593" lon="-1.945085"><ele>446</ele><time>2021-10-01T11:01:35Z</time><name>PT2252</name></trkpt>
<trkpt lat="53.358597" lon="-1.945080"><ele>446</ele><time>2021-10-01T11:01:36Z</time><name>PT2253</name></trkpt>
<trkpt lat="53.358605" lon="-1.945071"><ele>445</ele><time>2021-10-01T11:01:37Z</time><name>PT2254</name></trkpt>
<trkpt lat="53.358614" lon="-1.945065"><ele>446</ele><time>2021-10-01T11:01:38Z</time><name>PT2255</name></trkpt>
<trkpt lat="53.358626" lon="-1.945059"><ele>445</ele><time>2021-10-01T11:01:39Z</time><name>PT2256</name></trkpt>
<trkpt lat="53.358636" lon="-1.945054"><ele>445</ele><time>2021-10-01T11:01:40Z</time><name>PT2257</name></trkpt>
<trkpt lat="53.358646" lon="-1.945049"><ele>445</ele><time>2021-10-01T11:01:41Z</time><name>PT2258</name></trkpt>
<trkpt lat="53.358658" lon="-1.945043"><ele>444</ele><time>2021-10-01T11:01:42Z</time><name>PT2259</name></trkpt>
<trkpt lat="53.358666" lon="-1.945036"><ele>444</ele><time>2021-10-01T11:01:43Z</time><name>PT2260</name></trkpt>
<trkpt lat="53.358679" lon="-1.945028"><ele>443</ele><time>2021-10-01T11:01:44Z</time><name>PT2261</name></trkpt>
<trkpt lat="53.358696" lon="-1.944998"><ele>443</ele><time>2021-10-01T11:01:45Z</time><name>PT2262</name></trkpt>
<trkpt lat="53.358728" lon="-1.944979"><ele>443</ele><time>2021-10-01T11:01:46Z</time><name>PT2263</name></trkpt>
<trkpt lat="53.358739" lon="-1.944947"><ele>443</ele><time>2021-10-01T11:01:47Z</time><name>PT2264</name></trkpt>
<trkpt lat="53.358750" lon="-1.944940"><ele>444</ele><time>2021-10-01T11:01:48Z</time><name>PT2265</name></trkpt>
<trkpt lat="53.358761" lon="-1.944927"><ele>444</ele><time>2021-10-01T11:01:49Z</time><name>PT2266</name></trkpt>
<trkpt lat="53.358775" lon="-1.944918"><ele>445</ele><time>2021-10-01T11:01:50Z</time><name>PT2267</name></trkpt>
<trkpt lat="53.358784" lon="-1.944913"><ele>445</ele><time>2021-10-01T11:01:51Z</time><name>PT2268</name></trkpt>
<trkpt lat="53.358797" lon="-1.944909"><ele>446</ele><time>2021-10-01T11:01:52Z</time><name>PT2269</name></trkpt>
<trkpt lat="53.358809" lon="-1.944905"><ele>446</ele><time>2021-10-01T11:01:53Z</time><name>PT2270</name></trkpt>
<trkpt lat="53.358820" lon="-1.944903"><ele>446</ele><time>2021-10-01T11:01:54Z</time><name>PT2271</name></trkpt>
<trkpt lat="53.358829" lon="-1.944900"><ele>446</ele><time>2021-10-01T11:01:55Z</time><name>PT2272</name></trkpt>
<trkpt lat="53.358837" lon="-1.944888"><ele>447</ele><time>2021-10-01T11:01:56Z</time><name>PT2273</name></trkpt>
<trkpt lat="53.358847" lon="-1.944877"><ele>447</ele><time>2021-10-01T11:01:57Z</time><name>PT2274</name></trkpt>
<trkpt lat="53.358857" lon="-1.944868"><ele>448</ele><time>2021-10-01T11:01:58Z</time><name>PT2275</name></trkpt>
<trkpt lat="53.358864" lon="-1.944857"><ele>448</ele><time>2021-10-01T11:01:59Z</time><name>PT2276</name></trkpt>
<trkpt lat="53.358871" lon="-1.944845"><ele>448</ele><time>2021-10-01T11:02:00Z</time><name>PT2277</name></trkpt>
<trkpt lat="53.358881" lon="-1.944836"><ele>448</ele><time>2021-10-01T11:02:01Z</time><name>PT2278</name></trkpt>
<trkpt lat="53.358891" lon="-1.944831"><ele>448</ele><time>2021-10-01T11:02:02Z</time><name>PT2279</name></trkpt>
<trkpt lat="53.358900" lon="-1.944829"><ele>449</ele><time>2021-10-01T11:02:03Z</time><name>PT2280</name></trkpt>
<trkpt lat="53.358909" lon="-1.944826"><ele>449</ele><time>2021-10-01T11:02:04Z</time><name>PT2281</name></trkpt>
<trkpt lat="53.358918" lon="-1.944823"><ele>449</ele><time>2021-10-01T11:02:05Z</time><name>PT2282</name></trkpt>
<trkpt lat="53.358924" lon="-1.944822"><ele>449</ele><time>2021-10-01T11:02:06Z</time><name>PT2283</name></trkpt>
<trkpt lat="53.358932" lon="-1.944824"><ele>449</ele><time>2021-10-01T11:02:07Z</time><name>PT2284</name></trkpt>
<trkpt lat="53.358941" lon="-1.944827"><ele>449</ele><time>2021-10-01T11:02:08Z</time><name>PT2285</name></trkpt>
<trkpt lat="53.358949" lon="-1.944825"><ele>449</ele><time>2021-10-01T11:02:09Z</time><name>PT2286</name></trkpt>
<trkpt lat="53.358958" lon="-1.944823"><ele>449</ele><time>2021-10-01T11:02:10Z</time><name>PT2287</name></trkpt>
<trkpt lat="53.358969" lon="-1.944823"><ele>450</ele><time>2021-10-01T11:02:11Z</time><name>PT2288</name></trkpt>
<trkpt lat="53.358979" lon="-1.944817"><ele>450</ele><time>2021-10-01T11:02:12Z</time><name>PT2289</name></trkpt>
<trkpt lat="53.358990" lon="-1.944806"><ele>450</ele><time>2021-10-01T11:02:13Z</time><name>PT2290</name></trkpt>
<trkpt lat="53.359001" lon="-1.944799"><ele>450</ele><time>2021-10-01T11:02:14Z</time><name>PT2291</name></trkpt>
<trkpt lat="53.359013" lon="-1.944795"><ele>450</ele><time>2021-10-01T11:02:15Z</time><name>PT2292</name></trkpt>
<trkpt lat="53.359024" lon="-1.944792"><ele>449</ele><time>2021-10-01T11:02:16Z</time><name>PT2293</name></trkpt>
<trkpt lat="53.359035" lon="-1.944786"><ele>450</ele><time>2021-10-01T11:02:17Z</time><name>PT2294</name></trkpt>
<trkpt lat="53.359045" lon="-1.944778"><ele>450</ele><time>2021-10-01T11:02:18Z</time><name>PT2295</name></trkpt>
<trkpt lat="53.359057" lon="-1.944772"><ele>450</ele><time>2021-10-01T11:02:19Z</time><name>PT2296</name></trkpt>
<trkpt lat="53.359069" lon="-1.944773"><ele>450</ele><time>2021-10-01T11:02:20Z</time><name>PT2297</name></trkpt>
<trkpt lat="53.359079" lon="-1.944776"><ele>450</ele><time>2021-10-01T11:02:21Z</time><name>PT2298</name></trkpt>
<trkpt lat="53.359091" lon="-1.944772"><ele>450</ele><time>2021-10-01T11:02:22Z</time><name>PT2299</name></trkpt>
<trkpt lat="53.359102" lon="-1.944770"><ele>450</ele><time>2021-10-01T11:02:23Z</time><name>PT2300</name></trkpt>
<trkpt lat="53.359114" lon="-1.944773"><ele>450</ele><time>2021-10-01T11:02:24Z</time><name>PT2301</name></trkpt>
<trkpt lat="53.359128" lon="-1.944774"><ele>451</ele><time>2021-10-01T11:02:25Z</time><name>PT2302</name></trkpt>
<trkpt lat="53.359139" lon="-1.944779"><ele>451</ele><time>2021-10-01T11:02:26Z</time><name>PT2303</name></trkpt>
<trkpt lat="53.359148" lon="-1.944778"><ele>451</ele><time>2021-10-01T11:02:27Z</time><name>PT2304</name></trkpt>
<trkpt lat="53.359161" lon="-1.944777"><ele>451</ele><time>2021-10-01T11:02:28Z</time><name>PT2305</name></trkpt>
<trkpt lat="53.359173" lon="-1.944781"><ele>451</ele><time>2021-10-01T11:02:29Z</time><name>PT2306</name></trkpt>
<trkpt lat="53.359185" lon="-1.944785"><ele>451</ele><time>2021-10-01T11:02:30Z</time><name>PT2307</name></trkpt>
<trkpt lat="53.359196" lon="-1.944788"><ele>451</ele><time>2021-10-01T11:02:31Z</time><name>PT2308</name></trkpt>
<trkpt lat="53.359206" lon="-1.944787"><ele>451</ele><time>2021-10-01T11:02:32Z</time><name>PT2309</name></trkpt>
<trkpt lat="53.359217" lon="-1.944790"><ele>451</ele><time>2021-10-01T11:02:33Z</time><name>PT2310</name></trkpt>
<trkpt lat="53.359230" lon="-1.944794"><ele>451</ele><time>2021-10-01T11:02:34Z</time><name>PT2311</name></trkpt>
<trkpt lat="53.359243" lon="-1.944800"><ele>451</ele><time>2021-10-01T11:02:35Z</time><name>PT2312</name></trkpt>
<trkpt lat="53.359254" lon="-1.944802"><ele>451</ele><time>2021-10-01T11:02:36Z</time><name>PT2313</name></trkpt>
<trkpt lat="53.359266" lon="-1.944800"><ele>452</ele><time>2021-10-01T11:02:37Z</time><name>PT2314</name></trkpt>
<trkpt lat="53.359277" lon="-1.944801"><ele>452</ele><time>2021-10-01T11:02:38Z</time><name>PT2315</name></trkpt>
<trkpt lat="53.359291" lon="-1.944803"><ele>452</ele><time>2021-10-01T11:02:39Z</time><name>PT2316</name></trkpt>
<trkpt lat="53.359303" lon="-1.944804"><ele>452</ele><time>2021-10-01T11:02:40Z</time><name>PT2317</name></trkpt>
<trkpt lat="53.359313" lon="-1.944800"><ele>452</ele><time>2021-10-01T11:02:41Z</time><name>PT2318</name></trkpt>
<trkpt lat="53.359325" lon="-1.944796"><ele>452</ele><time>2021-10-01T11:02:42Z</time><name>PT2319</name></trkpt>
<trkpt lat="53.359338" lon="-1.944795"><ele>452</ele><time>2021-10-01T11:02:43Z</time><name>PT2320</name></trkpt>
<trkpt lat="53.359351" lon="-1.944795"><ele>452</ele><time>2021-10-01T11:02:44Z</time><name>PT2321</name></trkpt>
<trkpt lat="53.359361" lon="-1.944796"><ele>452</ele><time>2021-10-01T11:02:45Z</time><name>PT2322</name></trkpt>
<trkpt lat="53.359372" lon="-1.944794"><ele>453</ele><time>2021-10-01T11:02:46Z</time><name>PT2323</name></trkpt>
<trkpt lat="53.359382" lon="-1.944794"><ele>452</ele><time>2021-10-01T11:02:47Z</time><name>PT2324</name></trkpt>
<trkpt lat="53.359396" lon="-1.944794"><ele>453</ele><time>2021-10-01T11:02:48Z</time><name>PT2325</name></trkpt>
<trkpt lat="53.359407" lon="-1.944793"><ele>453</ele><time>2021-10-01T11:02:49Z</time><name>PT2326</name></trkpt>
<trkpt lat="53.359418" lon="-1.944788"><ele>453</ele><time>2021-10-01T11:02:50Z</time><name>PT2327</name></trkpt>
<trkpt lat="53.359428" lon="-1.944783"><ele>453</ele><time>2021-10-01T11:02:51Z</time><name>PT2328</name></trkpt>
<trkpt lat="53.359439" lon="-1.944783"><ele>453</ele><time>2021-10-01T11:02:52Z</time><name>PT2329</name></trkpt>
<trkpt lat="53.359450" lon="-1.944783"><ele>452</ele><time>2021-10-01T11:02:53Z</time><name>PT2330</name></trkpt>
<trkpt lat="53.359459" lon="-1.944780"><ele>452</ele><time>2021-10-01T11:02:54Z</time><name>PT2331</name></trkpt>
<trkpt lat="53.359471" lon="-1.944777"><ele>452</ele><time>2021-10-01T11:02:55Z</time><name>PT2332</name></trkpt>
<trkpt lat="53.359482" lon="-1.944775"><ele>452</ele><time>2021-10-01T11:02:56Z</time><name>PT2333</name></trkpt>
<trkpt lat="53.359496" lon="-1.944775"><ele>453</ele><time>2021-10-01T11:02:57Z</time><name>PT2334</name></trkpt>
<trkpt lat="53.359509" lon="-1.944775"><ele>453</ele><time>2021-10-01T11:02:58Z</time><name>PT2335</name></trkpt>
<trkpt lat="53.359518" lon="-1.944771"><ele>452</ele><time>2021-10-01T11:02:59Z</time><name>PT2336</name></trkpt>
<trkpt lat="53.359531" lon="-1.944769"><ele>453</ele><time>2021-10-01T11:03:00Z</time><name>PT2337</name></trkpt>
<trkpt lat="53.359541" lon="-1.944767"><ele>453</ele><time>2021-10-01T11:03:01Z</time><name>PT2338</name></trkpt>
<trkpt lat="53.359552" lon="-1.944763"><ele>453</ele><time>2021-10-01T11:03:02Z</time><name>PT2339</name></trkpt>
<trkpt lat="53.359563" lon="-1.944760"><ele>453</ele><time>2021-10-01T11:03:03Z</time><name>PT2340</name></trkpt>
<trkpt lat="53.359574" lon="-1.944760"><ele>452</ele><time>2021-10-01T11:03:04Z</time><name>PT2341</name></trkpt>
<trkpt lat="53.359583" lon="-1.944760"><ele>452</ele><time>2021-10-01T11:03:05Z</time><name>PT2342</name></trkpt>
<trkpt lat="53.359597" lon="-1.944766"><ele>452</ele><time>2021-10-01T11:03:06Z</time><name>PT2343</name></trkpt>
<trkpt lat="53.359608" lon="-1.944772"><ele>452</ele><time>2021-10-01T11:03:07Z</time><name>PT2344</name></trkpt>
<trkpt lat="53.359621" lon="-1.944779"><ele>453</ele><time>2021-10-01T11:03:08Z</time><name>PT2345</name></trkpt>
<trkpt lat="53.359631" lon="-1.944783"><ele>453</ele><time>2021-10-01T11:03:09Z</time><name>PT2346</name></trkpt>
<trkpt lat="53.359641" lon="-1.944786"><ele>453</ele><time>2021-10-01T11:03:10Z</time><name>PT2347</name></trkpt>
<trkpt lat="53.359653" lon="-1.944787"><ele>453</ele><time>2021-10-01T11:03:11Z</time><name>PT2348</name></trkpt>
<trkpt lat="53.359685" lon="-1.944789"><ele>453</ele><time>2021-10-01T11:03:14Z</time><name>PT2349</name></trkpt>
<trkpt lat="53.359725" lon="-1.944795"><ele>452</ele><time>2021-10-01T11:03:18Z</time><name>PT2350</name></trkpt>
<trkpt lat="53.359762" lon="-1.944784"><ele>452</ele><time>2021-10-01T11:03:21Z</time><name>PT2351</name></trkpt>
<trkpt lat="53.359810" lon="-1.944786"><ele>452</ele><time>2021-10-01T11:03:25Z</time><name>PT2352</name></trkpt>
<trkpt lat="53.359851" lon="-1.944796"><ele>453</ele><time>2021-10-01T11:03:29Z</time><name>PT2353</name></trkpt>
<trkpt lat="53.359894" lon="-1.944793"><ele>453</ele><time>2021-10-01T11:03:33Z</time><name>PT2354</name></trkpt>
<trkpt lat="53.359940" lon="-1.944794"><ele>453</ele><time>2021-10-01T11:03:37Z</time><name>PT2355</name></trkpt>
<trkpt lat="53.359971" lon="-1.944790"><ele>453</ele><time>2021-10-01T11:03:40Z</time><name>PT2356</name></trkpt>
<trkpt lat="53.360007" lon="-1.944791"><ele>453</ele><time>2021-10-01T11:03:43Z</time><name>PT2357</name></trkpt>
<trkpt lat="53.360052" lon="-1.944801"><ele>453</ele><time>2021-10-01T11:03:47Z</time><name>PT2358</name></trkpt>
<trkpt lat="53.360099" lon="-1.944815"><ele>453</ele><time>2021-10-01T11:03:51Z</time><name>PT2359</name></trkpt>
<trkpt lat="53.360131" lon="-1.944835"><ele>453</ele><time>2021-10-01T11:03:54Z</time><name>PT2360</name></trkpt>
<trkpt lat="53.360175" lon="-1.944851"><ele>452</ele><time>2021-10-01T11:03:58Z</time><name>PT2361</name></trkpt>
<trkpt lat="53.360206" lon="-1.944869"><ele>452</ele><time>2021-10-01T11:04:01Z</time><name>PT2362</name></trkpt>
<trkpt lat="53.360251" lon="-1.944891"><ele>452</ele><time>2021-10-01T11:04:05Z</time><name>PT2363</name></trkpt>
<trkpt lat="53.360284" lon="-1.944905"><ele>452</ele><time>2021-10-01T11:04:08Z</time><name>PT2364</name></trkpt>
<trkpt lat="53.360325" lon="-1.944929"><ele>451</ele><time>2021-10-01T11:04:12Z</time><name>PT2365</name></trkpt>
<trkpt lat="53.360370" lon="-1.944957"><ele>452</ele><time>2021-10-01T11:04:16Z</time><name>PT2366</name></trkpt>
<trkpt lat="53.360405" lon="-1.944980"><ele>452</ele><time>2021-10-01T11:04:19Z</time><name>PT2367</name></trkpt>
<trkpt lat="53.360435" lon="-1.944994"><ele>451</ele><time>2021-10-01T11:04:22Z</time><name>PT2368</name></trkpt>
<trkpt lat="53.360470" lon="-1.944997"><ele>452</ele><time>2021-10-01T11:04:25Z</time><name>PT2369</name></trkpt>
<trkpt lat="53.360510" lon="-1.945006"><ele>451</ele><time>2021-10-01T11:04:29Z</time><name>PT2370</name></trkpt>
<trkpt lat="53.360539" lon="-1.945011"><ele>452</ele><time>2021-10-01T11:04:32Z</time><name>PT2371</name></trkpt>
<trkpt lat="53.360584" lon="-1.945012"><ele>452</ele><time>2021-10-01T11:04:36Z</time><name>PT2372</name></trkpt>
<trkpt lat="53.360613" lon="-1.945014"><ele>452</ele><time>2021-10-01T11:04:39Z</time><name>PT2373</name></trkpt>
<trkpt lat="53.360654" lon="-1.945013"><ele>451</ele><time>2021-10-01T11:04:43Z</time><name>PT2374</name></trkpt>
<trkpt lat="53.360680" lon="-1.945011"><ele>451</ele><time>2021-10-01T11:04:46Z</time><name>PT2375</name></trkpt>
<trkpt lat="53.360717" lon="-1.945010"><ele>451</ele><time>2021-10-01T11:04:49Z</time><name>PT2376</name></trkpt>
<trkpt lat="53.360761" lon="-1.945012"><ele>451</ele><time>2021-10-01T11:04:53Z</time><name>PT2377</name></trkpt>
<trkpt lat="53.360800" lon="-1.945012"><ele>451</ele><time>2021-10-01T11:04:57Z</time><name>PT2378</name></trkpt>
<trkpt lat="53.360843" lon="-1.945012"><ele>449</ele><time>2021-10-01T11:05:01Z</time><name>PT2379</name></trkpt>
<trkpt lat="53.360873" lon="-1.944999"><ele>449</ele><time>2021-10-01T11:05:04Z</time><name>PT2380</name></trkpt>
<trkpt lat="53.360907" lon="-1.944995"><ele>450</ele><time>2021-10-01T11:05:07Z</time><name>PT2381</name></trkpt>
<trkpt lat="53.360939" lon="-1.945004"><ele>449</ele><time>2021-10-01T11:05:10Z</time><name>PT2382</name></trkpt>
<trkpt lat="53.360983" lon="-1.945005"><ele>449</ele><time>2021-10-01T11:05:14Z</time><name>PT2383</name></trkpt>
<trkpt lat="53.361013" lon="-1.944997"><ele>449</ele><time>2021-10-01T11:05:17Z</time><name>PT2384</name></trkpt>
<trkpt lat="53.361047" lon="-1.944978"><ele>448</ele><time>2021-10-01T11:05:20Z</time><name>PT2385</name></trkpt>
<trkpt lat="53.361085" lon="-1.944936"><ele>449</ele><time>2021-10-01T11:05:24Z</time><name>PT2386</name></trkpt>
<trkpt lat="53.361127" lon="-1.944901"><ele>449</ele><time>2021-10-01T11:05:28Z</time><name>PT2387</name></trkpt>
<trkpt lat="53.361153" lon="-1.944865"><ele>449</ele><time>2021-10-01T11:05:31Z</time><name>PT2388</name></trkpt>
<trkpt lat="53.361189" lon="-1.944815"><ele>449</ele><time>2021-10-01T11:05:35Z</time><name>PT2389</name></trkpt>
<trkpt lat="53.361222" lon="-1.944769"><ele>449</ele><time>2021-10-01T11:05:39Z</time><name>PT2390</name></trkpt>
<trkpt lat="53.361242" lon="-1.944721"><ele>449</ele><time>2021-10-01T11:05:42Z</time><name>PT2391</name></trkpt>
<trkpt lat="53.361265" lon="-1.944673"><ele>449</ele><time>2021-10-01T11:05:45Z</time><name>PT2392</name></trkpt>
<trkpt lat="53.361280" lon="-1.944624"><ele>449</ele><time>2021-10-01T11:05:48Z</time><name>PT2393</name></trkpt>
<trkpt lat="53.361296" lon="-1.944560"><ele>449</ele><time>2021-10-01T11:05:52Z</time><name>PT2394</name></trkpt>
<trkpt lat="53.361311" lon="-1.944498"><ele>449</ele><time>2021-10-01T11:05:56Z</time><name>PT2395</name></trkpt>
<trkpt lat="53.361316" lon="-1.944450"><ele>448</ele><time>2021-10-01T11:05:59Z</time><name>PT2396</name></trkpt>
<trkpt lat="53.361319" lon="-1.944391"><ele>446</ele><time>2021-10-01T11:06:03Z</time><name>PT2397</name></trkpt>
<trkpt lat="53.361330" lon="-1.944338"><ele>445</ele><time>2021-10-01T11:06:07Z</time><name>PT2398</name></trkpt>
<trkpt lat="53.361338" lon="-1.944296"><ele>445</ele><time>2021-10-01T11:06:10Z</time><name>PT2399</name></trkpt>
<trkpt lat="53.361349" lon="-1.944269"><ele>444</ele><time>2021-10-01T11:06:13Z</time><name>PT2400</name></trkpt>
<trkpt lat="53.361363" lon="-1.944226"><ele>443</ele><time>2021-10-01T11:06:17Z</time><name>PT2401</name></trkpt>
<trkpt lat="53.361376" lon="-1.944211"><ele>443</ele><time>2021-10-01T11:06:20Z</time><name>PT2402</name></trkpt>
<trkpt lat="53.361397" lon="-1.944179"><ele>442</ele><time>2021-10-01T11:06:24Z</time><name>PT2403</name></trkpt>
<trkpt lat="53.361424" lon="-1.944158"><ele>442</ele><time>2021-10-01T11:06:28Z</time><name>PT2404</name></trkpt>
<trkpt lat="53.361442" lon="-1.944178"><ele>441</ele><time>2021-10-01T11:06:31Z</time><name>PT2405</name></trkpt>
<trkpt lat="53.361471" lon="-1.944169"><ele>441</ele><time>2021-10-01T11:06:34Z</time><name>PT2406</name></trkpt>
<trkpt lat="53.361510" lon="-1.944134"><ele>442</ele><time>2021-10-01T11:06:38Z</time><name>PT2407</name></trkpt>
<trkpt lat="53.361550" lon="-1.944122"><ele>443</ele><time>2021-10-01T11:06:41Z</time><name>PT2408</name></trkpt>
<trkpt lat="53.361593" lon="-1.944102"><ele>444</ele><time>2021-10-01T11:06:45Z</time><name>PT2409</name></trkpt>
<trkpt lat="53.361620" lon="-1.944095"><ele>445</ele><time>2021-10-01T11:06:48Z</time><name>PT2410</name></trkpt>
<trkpt lat="53.361645" lon="-1.944095"><ele>445</ele><time>2021-10-01T11:06:51Z</time><name>PT2411</name></trkpt>
<trkpt lat="53.361684" lon="-1.944101"><ele>446</ele><time>2021-10-01T11:06:55Z</time><name>PT2412</name></trkpt>
<trkpt lat="53.361715" lon="-1.944098"><ele>445</ele><time>2021-10-01T11:06:59Z</time><name>PT2413</name></trkpt>
<trkpt lat="53.361739" lon="-1.944105"><ele>446</ele><time>2021-10-01T11:07:02Z</time><name>PT2414</name></trkpt>
<trkpt lat="53.361771" lon="-1.944107"><ele>446</ele><time>2021-10-01T11:07:06Z</time><name>PT2415</name></trkpt>
<trkpt lat="53.361798" lon="-1.944099"><ele>446</ele><time>2021-10-01T11:07:09Z</time><name>PT2416</name></trkpt>
<trkpt lat="53.361823" lon="-1.944102"><ele>445</ele><time>2021-10-01T11:07:12Z</time><name>PT2417</name></trkpt>
<trkpt lat="53.361857" lon="-1.944103"><ele>446</ele><time>2021-10-01T11:07:16Z</time><name>PT2418</name></trkpt>
<trkpt lat="53.361891" lon="-1.944126"><ele>446</ele><time>2021-10-01T11:07:20Z</time><name>PT2419</name></trkpt>
<trkpt lat="53.361927" lon="-1.944137"><ele>446</ele><time>2021-10-01T11:07:24Z</time><name>PT2420</name></trkpt>
<trkpt lat="53.361973" lon="-1.944141"><ele>446</ele><time>2021-10-01T11:07:28Z</time><name>PT2421</name></trkpt>
<trkpt lat="53.362006" lon="-1.944146"><ele>446</ele><time>2021-10-01T11:07:31Z</time><name>PT2422</name></trkpt>
<trkpt lat="53.362034" lon="-1.944146"><ele>446</ele><time>2021-10-01T11:07:34Z</time><name>PT2423</name></trkpt>
<trkpt lat="53.362066" lon="-1.944147"><ele>446</ele><time>2021-10-01T11:07:37Z</time><name>PT2424</name></trkpt>
<trkpt lat="53.362106" lon="-1.944157"><ele>446</ele><time>2021-10-01T11:07:41Z</time><name>PT2425</name></trkpt>
<trkpt lat="53.362142" lon="-1.944182"><ele>445</ele><time>2021-10-01T11:07:45Z</time><name>PT2426</name></trkpt>
<trkpt lat="53.362189" lon="-1.944200"><ele>445</ele><time>2021-10-01T11:07:49Z</time><name>PT2427</name></trkpt>
<trkpt lat="53.362221" lon="-1.944224"><ele>445</ele><time>2021-10-01T11:07:52Z</time><name>PT2428</name></trkpt>
<trkpt lat="53.362252" lon="-1.944241"><ele>445</ele><time>2021-10-01T11:07:55Z</time><name>PT2429</name></trkpt>
<trkpt lat="53.362290" lon="-1.944251"><ele>444</ele><time>2021-10-01T11:07:59Z</time><name>PT2430</name></trkpt>
<trkpt lat="53.362309" lon="-1.944269"><ele>445</ele><time>2021-10-01T11:08:02Z</time><name>PT2431</name></trkpt>
<trkpt lat="53.362322" lon="-1.944293"><ele>444</ele><time>2021-10-01T11:08:05Z</time><name>PT2432</name></trkpt>
<trkpt lat="53.362340" lon="-1.944310"><ele>444</ele><time>2021-10-01T11:08:08Z</time><name>PT2433</name></trkpt>
<trkpt lat="53.362371" lon="-1.944308"><ele>444</ele><time>2021-10-01T11:08:12Z</time><name>PT2434</name></trkpt>
<trkpt lat="53.362386" lon="-1.944308"><ele>444</ele><time>2021-10-01T11:08:15Z</time><name>PT2435</name></trkpt>
<trkpt lat="53.362391" lon="-1.944310"><ele>445</ele><time>2021-10-01T11:08:18Z</time><name>PT2436</name></trkpt>
<trkpt lat="53.362395" lon="-1.944323"><ele>445</ele><time>2021-10-01T11:08:25Z</time><name>PT2437</name></trkpt>
<trkpt lat="53.362396" lon="-1.944322"><ele>444</ele><time>2021-10-01T11:08:44Z</time><name>PT2438</name></trkpt>
<trkpt lat="53.362396" lon="-1.944317"><ele>444</ele><time>2021-10-01T11:08:47Z</time><name>PT2439</name></trkpt>
<trkpt lat="53.362409" lon="-1.944302"><ele>444</ele><time>2021-10-01T11:08:51Z</time><name>PT2440</name></trkpt>
<trkpt lat="53.362421" lon="-1.944304"><ele>443</ele><time>2021-10-01T11:08:54Z</time><name>PT2441</name></trkpt>
<trkpt lat="53.362434" lon="-1.944304"><ele>443</ele><time>2021-10-01T11:08:57Z</time><name>PT2442</name></trkpt>
<trkpt lat="53.362446" lon="-1.944299"><ele>443</ele><time>2021-10-01T11:09:00Z</time><name>PT2443</name></trkpt>
<trkpt lat="53.362459" lon="-1.944269"><ele>443</ele><time>2021-10-01T11:09:04Z</time><name>PT2444</name></trkpt>
<trkpt lat="53.362457" lon="-1.944223"><ele>443</ele><time>2021-10-01T11:09:07Z</time><name>PT2445</name></trkpt>
<trkpt lat="53.362449" lon="-1.944181"><ele>443</ele><time>2021-10-01T11:09:10Z</time><name>PT2446</name></trkpt>
<trkpt lat="53.362442" lon="-1.944123"><ele>443</ele><time>2021-10-01T11:09:14Z</time><name>PT2447</name></trkpt>
<trkpt lat="53.362438" lon="-1.944083"><ele>442</ele><time>2021-10-01T11:09:17Z</time><name>PT2448</name></trkpt>
<trkpt lat="53.362425" lon="-1.944026"><ele>442</ele><time>2021-10-01T11:09:21Z</time><name>PT2449</name></trkpt>
<trkpt lat="53.362414" lon="-1.943962"><ele>441</ele><time>2021-10-01T11:09:25Z</time><name>PT2450</name></trkpt>
<trkpt lat="53.362408" lon="-1.943911"><ele>440</ele><time>2021-10-01T11:09:29Z</time><name>PT2451</name></trkpt>
<trkpt lat="53.362408" lon="-1.943877"><ele>439</ele><time>2021-10-01T11:09:32Z</time><name>PT2452</name></trkpt>
<trkpt lat="53.362416" lon="-1.943848"><ele>438</ele><time>2021-10-01T11:09:35Z</time><name>PT2453</name></trkpt>
<trkpt lat="53.362431" lon="-1.943787"><ele>437</ele><time>2021-10-01T11:09:39Z</time><name>PT2454</name></trkpt>
<trkpt lat="53.362430" lon="-1.943746"><ele>437</ele><time>2021-10-01T11:09:42Z</time><name>PT2455</name></trkpt>
<trkpt lat="53.362427" lon="-1.943701"><ele>436</ele><time>2021-10-01T11:09:45Z</time><name>PT2456</name></trkpt>
<trkpt lat="53.362428" lon="-1.943660"><ele>435</ele><time>2021-10-01T11:09:49Z</time><name>PT2457</name></trkpt>
<trkpt lat="53.362424" lon="-1.943607"><ele>435</ele><time>2021-10-01T11:09:52Z</time><name>PT2458</name></trkpt>
<trkpt lat="53.362427" lon="-1.943556"><ele>434</ele><time>2021-10-01T11:09:55Z</time><name>PT2459</name></trkpt>
<trkpt lat="53.362420" lon="-1.943495"><ele>433</ele><time>2021-10-01T11:09:59Z</time><name>PT2460</name></trkpt>
<trkpt lat="53.362423" lon="-1.943445"><ele>433</ele><time>2021-10-01T11:10:02Z</time><name>PT2461</name></trkpt>
<trkpt lat="53.362428" lon="-1.943391"><ele>432</ele><time>2021-10-01T11:10:06Z</time><name>PT2462</name></trkpt>
<trkpt lat="53.362424" lon="-1.943334"><ele>432</ele><time>2021-10-01T11:10:10Z</time><name>PT2463</name></trkpt>
<trkpt lat="53.362409" lon="-1.943296"><ele>432</ele><time>2021-10-01T11:10:13Z</time><name>PT2464</name></trkpt>
<trkpt lat="53.362385" lon="-1.943245"><ele>431</ele><time>2021-10-01T11:10:17Z</time><name>PT2465</name></trkpt>
<trkpt lat="53.362362" lon="-1.943212"><ele>431</ele><time>2021-10-01T11:10:20Z</time><name>PT2466</name></trkpt>
<trkpt lat="53.362334" lon="-1.943166"><ele>430</ele><time>2021-10-01T11:10:24Z</time><name>PT2467</name></trkpt>
<trkpt lat="53.362320" lon="-1.943147"><ele>430</ele><time>2021-10-01T11:10:27Z</time><name>PT2468</name></trkpt>
<trkpt lat="53.362292" lon="-1.943108"><ele>429</ele><time>2021-10-01T11:10:31Z</time><name>PT2469</name></trkpt>
<trkpt lat="53.362265" lon="-1.943084"><ele>429</ele><time>2021-10-01T11:10:34Z</time><name>PT2470</name></trkpt>
<trkpt lat="53.362231" lon="-1.943061"><ele>428</ele><time>2021-10-01T11:10:38Z</time><name>PT2471</name></trkpt>
<trkpt lat="53.362191" lon="-1.943043"><ele>429</ele><time>2021-10-01T11:10:42Z</time><name>PT2472</name></trkpt>
<trkpt lat="53.362164" lon="-1.943022"><ele>428</ele><time>2021-10-01T11:10:45Z</time><name>PT2473</name></trkpt>
<trkpt lat="53.362124" lon="-1.943003"><ele>427</ele><time>2021-10-01T11:10:49Z</time><name>PT2474</name></trkpt>
<trkpt lat="53.362099" lon="-1.942972"><ele>426</ele><time>2021-10-01T11:10:52Z</time><name>PT2475</name></trkpt>
<trkpt lat="53.362074" lon="-1.942960"><ele>426</ele><time>2021-10-01T11:10:55Z</time><name>PT2476</name></trkpt>
<trkpt lat="53.362036" lon="-1.942940"><ele>426</ele><time>2021-10-01T11:10:59Z</time><name>PT2477</name></trkpt>
<trkpt lat="53.362014" lon="-1.942928"><ele>425</ele><time>2021-10-01T11:11:02Z</time><name>PT2478</name></trkpt>
<trkpt lat="53.361996" lon="-1.942914"><ele>425</ele><time>2021-10-01T11:11:05Z</time><name>PT2479</name></trkpt>
<trkpt lat="53.361967" lon="-1.942895"><ele>424</ele><time>2021-10-01T11:11:09Z</time><name>PT2480</name></trkpt>
<trkpt lat="53.361931" lon="-1.942871"><ele>422</ele><time>2021-10-01T11:11:13Z</time><name>PT2481</name></trkpt>
<trkpt lat="53.361914" lon="-1.942857"><ele>421</ele><time>2021-10-01T11:11:16Z</time><name>PT2482</name></trkpt>
<trkpt lat="53.361881" lon="-1.942844"><ele>419</ele><time>2021-10-01T11:11:20Z</time><name>PT2483</name></trkpt>
<trkpt lat="53.361840" lon="-1.942817"><ele>418</ele><time>2021-10-01T11:11:24Z</time><name>PT2484</name></trkpt>
<trkpt lat="53.361815" lon="-1.942791"><ele>418</ele><time>2021-10-01T11:11:27Z</time><name>PT2485</name></trkpt>
<trkpt lat="53.361782" lon="-1.942769"><ele>417</ele><time>2021-10-01T11:11:31Z</time><name>PT2486</name></trkpt>
<trkpt lat="53.361734" lon="-1.942751"><ele>418</ele><time>2021-10-01T11:11:35Z</time><name>PT2487</name></trkpt>
<trkpt lat="53.361702" lon="-1.942743"><ele>418</ele><time>2021-10-01T11:11:38Z</time><name>PT2488</name></trkpt>
<trkpt lat="53.361672" lon="-1.942720"><ele>418</ele><time>2021-10-01T11:11:41Z</time><name>PT2489</name></trkpt>
<trkpt lat="53.361642" lon="-1.942678"><ele>417</ele><time>2021-10-01T11:11:45Z</time><name>PT2490</name></trkpt>
<trkpt lat="53.361610" lon="-1.942669"><ele>415</ele><time>2021-10-01T11:11:49Z</time><name>PT2491</name></trkpt>
<trkpt lat="53.361579" lon="-1.942653"><ele>415</ele><time>2021-10-01T11:11:53Z</time><name>PT2492</name></trkpt>
<trkpt lat="53.361561" lon="-1.942644"><ele>414</ele><time>2021-10-01T11:11:56Z</time><name>PT2493</name></trkpt>
<trkpt lat="53.361524" lon="-1.942637"><ele>415</ele><time>2021-10-01T11:12:00Z</time><name>PT2494</name></trkpt>
<trkpt lat="53.361490" lon="-1.942617"><ele>413</ele><time>2021-10-01T11:12:04Z</time><name>PT2495</name></trkpt>
<trkpt lat="53.361471" lon="-1.942607"><ele>412</ele><time>2021-10-01T11:12:07Z</time><name>PT2496</name></trkpt>
<trkpt lat="53.361457" lon="-1.942604"><ele>412</ele><time>2021-10-01T11:12:11Z</time><name>PT2497</name></trkpt>
<trkpt lat="53.361425" lon="-1.942592"><ele>412</ele><time>2021-10-01T11:12:36Z</time><name>PT2498</name></trkpt>
<trkpt lat="53.361388" lon="-1.942593"><ele>410</ele><time>2021-10-01T11:12:40Z</time><name>PT2499</name></trkpt>
<trkpt lat="53.361370" lon="-1.942572"><ele>409</ele><time>2021-10-01T11:12:43Z</time><name>PT2500</name></trkpt>
<trkpt lat="53.361341" lon="-1.942554"><ele>409</ele><time>2021-10-01T11:12:47Z</time><name>PT2501</name></trkpt>
<trkpt lat="53.361316" lon="-1.942523"><ele>407</ele><time>2021-10-01T11:12:51Z</time><name>PT2502</name></trkpt>
<trkpt lat="53.361293" lon="-1.942494"><ele>407</ele><time>2021-10-01T11:12:54Z</time><name>PT2503</name></trkpt>
<trkpt lat="53.361252" lon="-1.942450"><ele>410</ele><time>2021-10-01T11:12:57Z</time><name>PT2504</name></trkpt>
<trkpt lat="53.361231" lon="-1.942416"><ele>409</ele><time>2021-10-01T11:13:00Z</time><name>PT2505</name></trkpt>
<trkpt lat="53.361215" lon="-1.942353"><ele>409</ele><time>2021-10-01T11:13:04Z</time><name>PT2506</name></trkpt>
<trkpt lat="53.361206" lon="-1.942334"><ele>409</ele><time>2021-10-01T11:13:08Z</time><name>PT2507</name></trkpt>
<trkpt lat="53.361201" lon="-1.942331"><ele>409</ele><time>2021-10-01T11:13:11Z</time><name>PT2508</name></trkpt>
<trkpt lat="53.361173" lon="-1.942266"><ele>409</ele><time>2021-10-01T11:13:15Z</time><name>PT2509</name></trkpt>
<trkpt lat="53.361157" lon="-1.942211"><ele>410</ele><time>2021-10-01T11:13:18Z</time><name>PT2510</name></trkpt>
<trkpt lat="53.361143" lon="-1.942137"><ele>409</ele><time>2021-10-01T11:13:22Z</time><name>PT2511</name></trkpt>
<trkpt lat="53.361133" lon="-1.942063"><ele>408</ele><time>2021-10-01T11:13:26Z</time><name>PT2512</name></trkpt>
<trkpt lat="53.361128" lon="-1.942002"><ele>408</ele><time>2021-10-01T11:13:30Z</time><name>PT2513</name></trkpt>
<trkpt lat="53.361119" lon="-1.941954"><ele>407</ele><time>2021-10-01T11:13:33Z</time><name>PT2514</name></trkpt>
<trkpt lat="53.361112" lon="-1.941887"><ele>406</ele><time>2021-10-01T11:13:37Z</time><name>PT2515</name></trkpt>
<trkpt lat="53.361106" lon="-1.941834"><ele>406</ele><time>2021-10-01T11:13:40Z</time><name>PT2516</name></trkpt>
<trkpt lat="53.361097" lon="-1.941761"><ele>405</ele><time>2021-10-01T11:13:44Z</time><name>PT2517</name></trkpt>
<trkpt lat="53.361094" lon="-1.941725"><ele>405</ele><time>2021-10-01T11:13:47Z</time><name>PT2518</name></trkpt>
<trkpt lat="53.361087" lon="-1.941658"><ele>404</ele><time>2021-10-01T11:13:51Z</time><name>PT2519</name></trkpt>
<trkpt lat="53.361083" lon="-1.941614"><ele>404</ele><time>2021-10-01T11:13:54Z</time><name>PT2520</name></trkpt>
<trkpt lat="53.361076" lon="-1.941546"><ele>403</ele><time>2021-10-01T11:13:58Z</time><name>PT2521</name></trkpt>
<trkpt lat="53.361069" lon="-1.941500"><ele>403</ele><time>2021-10-01T11:14:01Z</time><name>PT2522</name></trkpt>
<trkpt lat="53.361061" lon="-1.941433"><ele>402</ele><time>2021-10-01T11:14:05Z</time><name>PT2523</name></trkpt>
<trkpt lat="53.361054" lon="-1.941379"><ele>402</ele><time>2021-10-01T11:14:08Z</time><name>PT2524</name></trkpt>
<trkpt lat="53.361046" lon="-1.941332"><ele>401</ele><time>2021-10-01T11:14:11Z</time><name>PT2525</name></trkpt>
<trkpt lat="53.361040" lon="-1.941299"><ele>400</ele><time>2021-10-01T11:14:14Z</time><name>PT2526</name></trkpt>
<trkpt lat="53.361035" lon="-1.941231"><ele>401</ele><time>2021-10-01T11:14:18Z</time><name>PT2527</name></trkpt>
<trkpt lat="53.361025" lon="-1.941179"><ele>400</ele><time>2021-10-01T11:14:21Z</time><name>PT2528</name></trkpt>
<trkpt lat="53.361018" lon="-1.941105"><ele>400</ele><time>2021-10-01T11:14:25Z</time><name>PT2529</name></trkpt>
<trkpt lat="53.361007" lon="-1.941039"><ele>399</ele><time>2021-10-01T11:14:29Z</time><name>PT2530</name></trkpt>
<trkpt lat="53.361002" lon="-1.940985"><ele>398</ele><time>2021-10-01T11:14:32Z</time><name>PT2531</name></trkpt>
<trkpt lat="53.360996" lon="-1.940936"><ele>397</ele><time>2021-10-01T11:14:35Z</time><name>PT2532</name></trkpt>
<trkpt lat="53.360986" lon="-1.940884"><ele>396</ele><time>2021-10-01T11:14:38Z</time><name>PT2533</name></trkpt>
<trkpt lat="53.360980" lon="-1.940810"><ele>395</ele><time>2021-10-01T11:14:42Z</time><name>PT2534</name></trkpt>
<trkpt lat="53.360969" lon="-1.940744"><ele>395</ele><time>2021-10-01T11:14:46Z</time><name>PT2535</name></trkpt>
<trkpt lat="53.360966" lon="-1.940693"><ele>394</ele><time>2021-10-01T11:14:49Z</time><name>PT2536</name></trkpt>
<trkpt lat="53.360959" lon="-1.940627"><ele>394</ele><time>2021-10-01T11:14:53Z</time><name>PT2537</name></trkpt>
<trkpt lat="53.360948" lon="-1.940570"><ele>393</ele><time>2021-10-01T11:14:56Z</time><name>PT2538</name></trkpt>
<trkpt lat="53.360943" lon="-1.940519"><ele>392</ele><time>2021-10-01T11:14:59Z</time><name>PT2539</name></trkpt>
<trkpt lat="53.360938" lon="-1.940460"><ele>392</ele><time>2021-10-01T11:15:02Z</time><name>PT2540</name></trkpt>
<trkpt lat="53.360928" lon="-1.940395"><ele>391</ele><time>2021-10-01T11:15:06Z</time><name>PT2541</name></trkpt>
<trkpt lat="53.360922" lon="-1.940317"><ele>391</ele><time>2021-10-01T11:15:10Z</time><name>PT2542</name></trkpt>
<trkpt lat="53.360914" lon="-1.940263"><ele>390</ele><time>2021-10-01T11:15:14Z</time><name>PT2543</name></trkpt>
<trkpt lat="53.360900" lon="-1.940203"><ele>389</ele><time>2021-10-01T11:15:17Z</time><name>PT2544</name></trkpt>
<trkpt lat="53.360896" lon="-1.940131"><ele>389</ele><time>2021-10-01T11:15:21Z</time><name>PT2545</name></trkpt>
<trkpt lat="53.360889" lon="-1.940061"><ele>389</ele><time>2021-10-01T11:15:25Z</time><name>PT2546</name></trkpt>
<trkpt lat="53.360880" lon="-1.940024"><ele>388</ele><time>2021-10-01T11:15:28Z</time><name>PT2547</name></trkpt>
<trkpt lat="53.360866" lon="-1.939961"><ele>388</ele><time>2021-10-01T11:15:32Z</time><name>PT2548</name></trkpt>
<trkpt lat="53.360852" lon="-1.939925"><ele>387</ele><time>2021-10-01T11:15:35Z</time><name>PT2549</name></trkpt>
<trkpt lat="53.360837" lon="-1.939871"><ele>386</ele><time>2021-10-01T11:15:39Z</time><name>PT2550</name></trkpt>
<trkpt lat="53.360821" lon="-1.939821"><ele>385</ele><time>2021-10-01T11:15:42Z</time><name>PT2551</name></trkpt>
<trkpt lat="53.360800" lon="-1.939786"><ele>384</ele><time>2021-10-01T11:15:46Z</time><name>PT2552</name></trkpt>
<trkpt lat="53.360800" lon="-1.939786"><ele>384</ele><time>2021-10-01T11:15:49Z</time><name>PT2553</name></trkpt>
<trkpt lat="53.360802" lon="-1.939786"><ele>385</ele><time>2021-10-01T11:15:57Z</time><name>PT2554</name></trkpt>
<trkpt lat="53.360818" lon="-1.939714"><ele>385</ele><time>2021-10-01T11:16:00Z</time><name>PT2555</name></trkpt>
<trkpt lat="53.360835" lon="-1.939612"><ele>385</ele><time>2021-10-01T11:16:04Z</time><name>PT2556</name></trkpt>
<trkpt lat="53.360838" lon="-1.939500"><ele>385</ele><time>2021-10-01T11:16:08Z</time><name>PT2557</name></trkpt>
<trkpt lat="53.360841" lon="-1.939425"><ele>385</ele><time>2021-10-01T11:16:11Z</time><name>PT2558</name></trkpt>
<trkpt lat="53.360832" lon="-1.939330"><ele>385</ele><time>2021-10-01T11:16:15Z</time><name>PT2559</name></trkpt>
<trkpt lat="53.360845" lon="-1.939257"><ele>386</ele><time>2021-10-01T11:16:18Z</time><name>PT2560</name></trkpt>
<trkpt lat="53.360856" lon="-1.939167"><ele>385</ele><time>2021-10-01T11:16:22Z</time><name>PT2561</name></trkpt>
<trkpt lat="53.360857" lon="-1.939098"><ele>385</ele><time>2021-10-01T11:16:25Z</time><name>PT2562</name></trkpt>
<trkpt lat="53.360872" lon="-1.939016"><ele>385</ele><time>2021-10-01T11:16:29Z</time><name>PT2563</name></trkpt>
<trkpt lat="53.360879" lon="-1.938943"><ele>386</ele><time>2021-10-01T11:16:32Z</time><name>PT2564</name></trkpt>
<trkpt lat="53.360882" lon="-1.938883"><ele>387</ele><time>2021-10-01T11:16:35Z</time><name>PT2565</name></trkpt>
<trkpt lat="53.360892" lon="-1.938800"><ele>387</ele><time>2021-10-01T11:16:39Z</time><name>PT2566</name></trkpt>
<trkpt lat="53.360912" lon="-1.938712"><ele>389</ele><time>2021-10-01T11:16:43Z</time><name>PT2567</name></trkpt>
<trkpt lat="53.360917" lon="-1.938653"><ele>389</ele><time>2021-10-01T11:16:46Z</time><name>PT2568</name></trkpt>
<trkpt lat="53.360931" lon="-1.938595"><ele>389</ele><time>2021-10-01T11:16:49Z</time><name>PT2569</name></trkpt>
<trkpt lat="53.360942" lon="-1.938518"><ele>389</ele><time>2021-10-01T11:16:53Z</time><name>PT2570</name></trkpt>
<trkpt lat="53.360955" lon="-1.938465"><ele>389</ele><time>2021-10-01T11:16:56Z</time><name>PT2571</name></trkpt>
<trkpt lat="53.360962" lon="-1.938390"><ele>389</ele><time>2021-10-01T11:17:00Z</time><name>PT2572</name></trkpt>
<trkpt lat="53.360976" lon="-1.938305"><ele>389</ele><time>2021-10-01T11:17:04Z</time><name>PT2573</name></trkpt>
<trkpt lat="53.360985" lon="-1.938241"><ele>389</ele><time>2021-10-01T11:17:07Z</time><name>PT2574</name></trkpt>
<trkpt lat="53.360995" lon="-1.938161"><ele>390</ele><time>2021-10-01T11:17:11Z</time><name>PT2575</name></trkpt>
<trkpt lat="53.361006" lon="-1.938105"><ele>390</ele><time>2021-10-01T11:17:14Z</time><name>PT2576</name></trkpt>
<trkpt lat="53.361017" lon="-1.938026"><ele>391</ele><time>2021-10-01T11:17:18Z</time><name>PT2577</name></trkpt>
<trkpt lat="53.361025" lon="-1.937969"><ele>390</ele><time>2021-10-01T11:17:21Z</time><name>PT2578</name></trkpt>
<trkpt lat="53.361039" lon="-1.937891"><ele>390</ele><time>2021-10-01T11:17:25Z</time><name>PT2579</name></trkpt>
<trkpt lat="53.361052" lon="-1.937836"><ele>390</ele><time>2021-10-01T11:17:28Z</time><name>PT2580</name></trkpt>
<trkpt lat="53.361077" lon="-1.937775"><ele>390</ele><time>2021-10-01T11:17:32Z</time><name>PT2581</name></trkpt>
<trkpt lat="53.361100" lon="-1.937746"><ele>390</ele><time>2021-10-01T11:17:35Z</time><name>PT2582</name></trkpt>
<trkpt lat="53.361131" lon="-1.937686"><ele>390</ele><time>2021-10-01T11:17:39Z</time><name>PT2583</name></trkpt>
<trkpt lat="53.361164" lon="-1.937625"><ele>391</ele><time>2021-10-01T11:17:43Z</time><name>PT2584</name></trkpt>
<trkpt lat="53.361186" lon="-1.937578"><ele>390</ele><time>2021-10-01T11:17:46Z</time><name>PT2585</name></trkpt>
<trkpt lat="53.361213" lon="-1.937546"><ele>390</ele><time>2021-10-01T11:17:49Z</time><name>PT2586</name></trkpt>
<trkpt lat="53.361241" lon="-1.937500"><ele>390</ele><time>2021-10-01T11:17:53Z</time><name>PT2587</name></trkpt>
<trkpt lat="53.361271" lon="-1.937453"><ele>390</ele><time>2021-10-01T11:17:57Z</time><name>PT2588</name></trkpt>
<trkpt lat="53.361294" lon="-1.937415"><ele>391</ele><time>2021-10-01T11:18:00Z</time><name>PT2589</name></trkpt>
<trkpt lat="53.361326" lon="-1.937374"><ele>391</ele><time>2021-10-01T11:18:04Z</time><name>PT2590</name></trkpt>
<trkpt lat="53.361359" lon="-1.937338"><ele>391</ele><time>2021-10-01T11:18:08Z</time><name>PT2591</name></trkpt>
<trkpt lat="53.361384" lon="-1.937311"><ele>391</ele><time>2021-10-01T11:18:11Z</time><name>PT2592</name></trkpt>
<trkpt lat="53.361386" lon="-1.937301"><ele>391</ele><time>2021-10-01T11:18:15Z</time><name>PT2593</name></trkpt>
<trkpt lat="53.361395" lon="-1.937288"><ele>391</ele><time>2021-10-01T11:18:22Z</time><name>PT2594</name></trkpt>
<trkpt lat="53.361387" lon="-1.937287"><ele>392</ele><time>2021-10-01T11:18:29Z</time><name>PT2595</name></trkpt>
<trkpt lat="53.361394" lon="-1.937274"><ele>392</ele><time>2021-10-01T11:18:33Z</time><name>PT2596</name></trkpt>
<trkpt lat="53.361395" lon="-1.937273"><ele>392</ele><time>2021-10-01T11:18:37Z</time><name>PT2597</name></trkpt>
<trkpt lat="53.361398" lon="-1.937268"><ele>392</ele><time>2021-10-01T11:18:45Z</time><name>PT2598</name></trkpt>
<trkpt lat="53.361399" lon="-1.937264"><ele>392</ele><time>2021-10-01T11:18:46Z</time><name>PT2599</name></trkpt>
<trkpt lat="53.361408" lon="-1.937239"><ele>393</ele><time>2021-10-01T11:18:47Z</time><name>PT2600</name></trkpt>
<trkpt lat="53.361407" lon="-1.937237"><ele>394</ele><time>2021-10-01T11:18:48Z</time><name>PT2601</name></trkpt>
<trkpt lat="53.361407" lon="-1.937238"><ele>394</ele><time>2021-10-01T11:18:49Z</time><name>PT2602</name></trkpt>
<trkpt lat="53.361406" lon="-1.937241"><ele>394</ele><time>2021-10-01T11:18:53Z</time><name>PT2603</name></trkpt>
<trkpt lat="53.361403" lon="-1.937239"><ele>394</ele><time>2021-10-01T11:18:54Z</time><name>PT2604</name></trkpt>
<trkpt lat="53.361404" lon="-1.937240"><ele>394</ele><time>2021-10-01T11:18:55Z</time><name>PT2605</name></trkpt>
<trkpt lat="53.361407" lon="-1.937242"><ele>394</ele><time>2021-10-01T11:18:56Z</time><name>PT2606</name></trkpt>
<trkpt lat="53.361409" lon="-1.937240"><ele>393</ele><time>2021-10-01T11:18:57Z</time><name>PT2607</name></trkpt>
<trkpt lat="53.361412" lon="-1.937231"><ele>393</ele><time>2021-10-01T11:18:58Z</time><name>PT2608</name></trkpt>
<trkpt lat="53.361416" lon="-1.937219"><ele>393</ele><time>2021-10-01T11:18:59Z</time><name>PT2609</name></trkpt>
<trkpt lat="53.361420" lon="-1.937208"><ele>393</ele><time>2021-10-01T11:19:00Z</time><name>PT2610</name></trkpt>
<trkpt lat="53.361424" lon="-1.937199"><ele>392</ele><time>2021-10-01T11:19:01Z</time><name>PT2611</name></trkpt>
<trkpt lat="53.361429" lon="-1.937188"><ele>392</ele><time>2021-10-01T11:19:02Z</time><name>PT2612</name></trkpt>
<trkpt lat="53.361431" lon="-1.937177"><ele>392</ele><time>2021-10-01T11:19:03Z</time><name>PT2613</name></trkpt>
<trkpt lat="53.361432" lon="-1.937168"><ele>392</ele><time>2021-10-01T11:19:04Z</time><name>PT2614</name></trkpt>
<trkpt lat="53.361434" lon="-1.937159"><ele>392</ele><time>2021-10-01T11:19:05Z</time><name>PT2615</name></trkpt>
<trkpt lat="53.361436" lon="-1.937150"><ele>392</ele><time>2021-10-01T11:19:06Z</time><name>PT2616</name></trkpt>
<trkpt lat="53.361439" lon="-1.937140"><ele>392</ele><time>2021-10-01T11:19:07Z</time><name>PT2617</name></trkpt>
<trkpt lat="53.361443" lon="-1.937129"><ele>392</ele><time>2021-10-01T11:19:08Z</time><name>PT2618</name></trkpt>
<trkpt lat="53.361445" lon="-1.937117"><ele>392</ele><time>2021-10-01T11:19:09Z</time><name>PT2619</name></trkpt>
<trkpt lat="53.361447" lon="-1.937106"><ele>392</ele><time>2021-10-01T11:19:10Z</time><name>PT2620</name></trkpt>
<trkpt lat="53.361448" lon="-1.937094"><ele>392</ele><time>2021-10-01T11:19:11Z</time><name>PT2621</name></trkpt>
<trkpt lat="53.361450" lon="-1.937078"><ele>392</ele><time>2021-10-01T11:19:12Z</time><name>PT2622</name></trkpt>
<trkpt lat="53.361454" lon="-1.937063"><ele>392</ele><time>2021-10-01T11:19:13Z</time><name>PT2623</name></trkpt>
<trkpt lat="53.361457" lon="-1.937050"><ele>392</ele><time>2021-10-01T11:19:14Z</time><name>PT2624</name></trkpt>
<trkpt lat="53.361463" lon="-1.937035"><ele>392</ele><time>2021-10-01T11:19:15Z</time><name>PT2625</name></trkpt>
<trkpt lat="53.361465" lon="-1.937016"><ele>392</ele><time>2021-10-01T11:19:16Z</time><name>PT2626</name></trkpt>
<trkpt lat="53.361466" lon="-1.937001"><ele>392</ele><time>2021-10-01T11:19:17Z</time><name>PT2627</name></trkpt>
<trkpt lat="53.361467" lon="-1.936985"><ele>392</ele><time>2021-10-01T11:19:18Z</time><name>PT2628</name></trkpt>
<trkpt lat="53.361470" lon="-1.936968"><ele>391</ele><time>2021-10-01T11:19:19Z</time><name>PT2629</name></trkpt>
<trkpt lat="53.361473" lon="-1.936955"><ele>391</ele><time>2021-10-01T11:19:20Z</time><name>PT2630</name></trkpt>
<trkpt lat="53.361474" lon="-1.936939"><ele>391</ele><time>2021-10-01T11:19:21Z</time><name>PT2631</name></trkpt>
<trkpt lat="53.361479" lon="-1.936910"><ele>392</ele><time>2021-10-01T11:19:22Z</time><name>PT2632</name></trkpt>
<trkpt lat="53.361478" lon="-1.936891"><ele>391</ele><time>2021-10-01T11:19:23Z</time><name>PT2633</name></trkpt>
<trkpt lat="53.361477" lon="-1.936875"><ele>392</ele><time>2021-10-01T11:19:24Z</time><name>PT2634</name></trkpt>
<trkpt lat="53.361478" lon="-1.936859"><ele>391</ele><time>2021-10-01T11:19:25Z</time><name>PT2635</name></trkpt>
<trkpt lat="53.361477" lon="-1.936845"><ele>391</ele><time>2021-10-01T11:19:26Z</time><name>PT2636</name></trkpt>
<trkpt lat="53.361478" lon="-1.936827"><ele>390</ele><time>2021-10-01T11:19:27Z</time><name>PT2637</name></trkpt>
<trkpt lat="53.361479" lon="-1.936806"><ele>390</ele><time>2021-10-01T11:19:28Z</time><name>PT2638</name></trkpt>
<trkpt lat="53.361482" lon="-1.936788"><ele>390</ele><time>2021-10-01T11:19:29Z</time><name>PT2639</name></trkpt>
<trkpt lat="53.361485" lon="-1.936767"><ele>390</ele><time>2021-10-01T11:19:30Z</time><name>PT2640</name></trkpt>
<trkpt lat="53.361485" lon="-1.936743"><ele>390</ele><time>2021-10-01T11:19:31Z</time><name>PT2641</name></trkpt>
<trkpt lat="53.361486" lon="-1.936726"><ele>390</ele><time>2021-10-01T11:19:32Z</time><name>PT2642</name></trkpt>
<trkpt lat="53.361486" lon="-1.936707"><ele>390</ele><time>2021-10-01T11:19:33Z</time><name>PT2643</name></trkpt>
<trkpt lat="53.361487" lon="-1.936691"><ele>390</ele><time>2021-10-01T11:19:34Z</time><name>PT2644</name></trkpt>
<trkpt lat="53.361488" lon="-1.936672"><ele>390</ele><time>2021-10-01T11:19:35Z</time><name>PT2645</name></trkpt>
<trkpt lat="53.361488" lon="-1.936656"><ele>389</ele><time>2021-10-01T11:19:36Z</time><name>PT2646</name></trkpt>
<trkpt lat="53.361491" lon="-1.936636"><ele>389</ele><time>2021-10-01T11:19:37Z</time><name>PT2647</name></trkpt>
<trkpt lat="53.361493" lon="-1.936614"><ele>389</ele><time>2021-10-01T11:19:38Z</time><name>PT2648</name></trkpt>
<trkpt lat="53.361494" lon="-1.936591"><ele>389</ele><time>2021-10-01T11:19:39Z</time><name>PT2649</name></trkpt>
<trkpt lat="53.361493" lon="-1.936575"><ele>389</ele><time>2021-10-01T11:19:40Z</time><name>PT2650</name></trkpt>
<trkpt lat="53.361494" lon="-1.936559"><ele>389</ele><time>2021-10-01T11:19:41Z</time><name>PT2651</name></trkpt>
<trkpt lat="53.361497" lon="-1.936540"><ele>388</ele><time>2021-10-01T11:19:42Z</time><name>PT2652</name></trkpt>
<trkpt lat="53.361499" lon="-1.936524"><ele>388</ele><time>2021-10-01T11:19:43Z</time><name>PT2653</name></trkpt>
<trkpt lat="53.361500" lon="-1.936507"><ele>388</ele><time>2021-10-01T11:19:44Z</time><name>PT2654</name></trkpt>
<trkpt lat="53.361501" lon="-1.936486"><ele>388</ele><time>2021-10-01T11:19:45Z</time><name>PT2655</name></trkpt>
<trkpt lat="53.361502" lon="-1.936466"><ele>387</ele><time>2021-10-01T11:19:46Z</time><name>PT2656</name></trkpt>
<trkpt lat="53.361505" lon="-1.936450"><ele>387</ele><time>2021-10-01T11:19:47Z</time><name>PT2657</name></trkpt>
<trkpt lat="53.361504" lon="-1.936429"><ele>387</ele><time>2021-10-01T11:19:48Z</time><name>PT2658</name></trkpt>
<trkpt lat="53.361508" lon="-1.936415"><ele>387</ele><time>2021-10-01T11:19:49Z</time><name>PT2659</name></trkpt>
<trkpt lat="53.361513" lon="-1.936400"><ele>387</ele><time>2021-10-01T11:19:50Z</time><name>PT2660</name></trkpt>
<trkpt lat="53.361514" lon="-1.936381"><ele>387</ele><time>2021-10-01T11:19:51Z</time><name>PT2661</name></trkpt>
<trkpt lat="53.361516" lon="-1.936364"><ele>387</ele><time>2021-10-01T11:19:52Z</time><name>PT2662</name></trkpt>
<trkpt lat="53.361515" lon="-1.936342"><ele>386</ele><time>2021-10-01T11:19:53Z</time><name>PT2663</name></trkpt>
<trkpt lat="53.361517" lon="-1.936321"><ele>385</ele><time>2021-10-01T11:19:54Z</time><name>PT2664</name></trkpt>
<trkpt lat="53.361517" lon="-1.936301"><ele>385</ele><time>2021-10-01T11:19:55Z</time><name>PT2665</name></trkpt>
<trkpt lat="53.361518" lon="-1.936280"><ele>385</ele><time>2021-10-01T11:19:56Z</time><name>PT2666</name></trkpt>
<trkpt lat="53.361520" lon="-1.936259"><ele>385</ele><time>2021-10-01T11:19:57Z</time><name>PT2667</name></trkpt>
<trkpt lat="53.361524" lon="-1.936239"><ele>385</ele><time>2021-10-01T11:19:58Z</time><name>PT2668</name></trkpt>
<trkpt lat="53.361528" lon="-1.936224"><ele>385</ele><time>2021-10-01T11:19:59Z</time><name>PT2669</name></trkpt>
<trkpt lat="53.361533" lon="-1.936211"><ele>385</ele><time>2021-10-01T11:20:00Z</time><name>PT2670</name></trkpt>
<trkpt lat="53.361537" lon="-1.936190"><ele>384</ele><time>2021-10-01T11:20:01Z</time><name>PT2671</name></trkpt>
<trkpt lat="53.361540" lon="-1.936166"><ele>384</ele><time>2021-10-01T11:20:02Z</time><name>PT2672</name></trkpt>
<trkpt lat="53.361542" lon="-1.936149"><ele>384</ele><time>2021-10-01T11:20:03Z</time><name>PT2673</name></trkpt>
<trkpt lat="53.361546" lon="-1.936129"><ele>384</ele><time>2021-10-01T11:20:04Z</time><name>PT2674</name></trkpt>
<trkpt lat="53.361553" lon="-1.936111"><ele>384</ele><time>2021-10-01T11:20:05Z</time><name>PT2675</name></trkpt>
<trkpt lat="53.361557" lon="-1.936094"><ele>384</ele><time>2021-10-01T11:20:06Z</time><name>PT2676</name></trkpt>
<trkpt lat="53.361563" lon="-1.936080"><ele>384</ele><time>2021-10-01T11:20:07Z</time><name>PT2677</name></trkpt>
<trkpt lat="53.361569" lon="-1.936064"><ele>384</ele><time>2021-10-01T11:20:08Z</time><name>PT2678</name></trkpt>
<trkpt lat="53.361575" lon="-1.936047"><ele>384</ele><time>2021-10-01T11:20:09Z</time><name>PT2679</name></trkpt>
<trkpt lat="53.361580" lon="-1.936031"><ele>384</ele><time>2021-10-01T11:20:10Z</time><name>PT2680</name></trkpt>
<trkpt lat="53.361587" lon="-1.936013"><ele>384</ele><time>2021-10-01T11:20:11Z</time><name>PT2681</name></trkpt>
<trkpt lat="53.361594" lon="-1.935992"><ele>384</ele><time>2021-10-01T11:20:12Z</time><name>PT2682</name></trkpt>
<trkpt lat="53.361600" lon="-1.935978"><ele>384</ele><time>2021-10-01T11:20:13Z</time><name>PT2683</name></trkpt>
<trkpt lat="53.361606" lon="-1.935967"><ele>383</ele><time>2021-10-01T11:20:14Z</time><name>PT2684</name></trkpt>
<trkpt lat="53.361615" lon="-1.935950"><ele>383</ele><time>2021-10-01T11:20:15Z</time><name>PT2685</name></trkpt>
<trkpt lat="53.361620" lon="-1.935935"><ele>382</ele><time>2021-10-01T11:20:16Z</time><name>PT2686</name></trkpt>
<trkpt lat="53.361626" lon="-1.935917"><ele>382</ele><time>2021-10-01T11:20:17Z</time><name>PT2687</name></trkpt>
<trkpt lat="53.361634" lon="-1.935901"><ele>383</ele><time>2021-10-01T11:20:18Z</time><name>PT2688</name></trkpt>
<trkpt lat="53.361640" lon="-1.935887"><ele>382</ele><time>2021-10-01T11:20:19Z</time><name>PT2689</name></trkpt>
<trkpt lat="53.361650" lon="-1.935869"><ele>382</ele><time>2021-10-01T11:20:20Z</time><name>PT2690</name></trkpt>
<trkpt lat="53.361655" lon="-1.935852"><ele>382</ele><time>2021-10-01T11:20:21Z</time><name>PT2691</name></trkpt>
<trkpt lat="53.361662" lon="-1.935842"><ele>382</ele><time>2021-10-01T11:20:22Z</time><name>PT2692</name></trkpt>
<trkpt lat="53.361670" lon="-1.935827"><ele>382</ele><time>2021-10-01T11:20:23Z</time><name>PT2693</name></trkpt>
<trkpt lat="53.361678" lon="-1.935809"><ele>382</ele><time>2021-10-01T11:20:24Z</time><name>PT2694</name></trkpt>
<trkpt lat="53.361685" lon="-1.935792"><ele>381</ele><time>2021-10-01T11:20:25Z</time><name>PT2695</name></trkpt>
<trkpt lat="53.361692" lon="-1.935779"><ele>382</ele><time>2021-10-01T11:20:26Z</time><name>PT2696</name></trkpt>
<trkpt lat="53.361698" lon="-1.935764"><ele>381</ele><time>2021-10-01T11:20:27Z</time><name>PT2697</name></trkpt>
<trkpt lat="53.361706" lon="-1.935746"><ele>381</ele><time>2021-10-01T11:20:28Z</time><name>PT2698</name></trkpt>
<trkpt lat="53.361711" lon="-1.935727"><ele>381</ele><time>2021-10-01T11:20:29Z</time><name>PT2699</name></trkpt>
<trkpt lat="53.361716" lon="-1.935712"><ele>381</ele><time>2021-10-01T11:20:30Z</time><name>PT2700</name></trkpt>
<trkpt lat="53.361721" lon="-1.935697"><ele>380</ele><time>2021-10-01T11:20:31Z</time><name>PT2701</name></trkpt>
<trkpt lat="53.361726" lon="-1.935682"><ele>380</ele><time>2021-10-01T11:20:32Z</time><name>PT2702</name></trkpt>
<trkpt lat="53.361734" lon="-1.935663"><ele>380</ele><time>2021-10-01T11:20:33Z</time><name>PT2703</name></trkpt>
<trkpt lat="53.361738" lon="-1.935648"><ele>380</ele><time>2021-10-01T11:20:34Z</time><name>PT2704</name></trkpt>
<trkpt lat="53.361743" lon="-1.935631"><ele>380</ele><time>2021-10-01T11:20:35Z</time><name>PT2705</name></trkpt>
<trkpt lat="53.361746" lon="-1.935612"><ele>380</ele><time>2021-10-01T11:20:36Z</time><name>PT2706</name></trkpt>
<trkpt lat="53.361752" lon="-1.935592"><ele>380</ele><time>2021-10-01T11:20:37Z</time><name>PT2707</name></trkpt>
<trkpt lat="53.361758" lon="-1.935574"><ele>379</ele><time>2021-10-01T11:20:38Z</time><name>PT2708</name></trkpt>
<trkpt lat="53.361762" lon="-1.935558"><ele>379</ele><time>2021-10-01T11:20:39Z</time><name>PT2709</name></trkpt>
<trkpt lat="53.361766" lon="-1.935540"><ele>379</ele><time>2021-10-01T11:20:40Z</time><name>PT2710</name></trkpt>
<trkpt lat="53.361768" lon="-1.935520"><ele>379</ele><time>2021-10-01T11:20:41Z</time><name>PT2711</name></trkpt>
<trkpt lat="53.361770" lon="-1.935504"><ele>378</ele><time>2021-10-01T11:20:42Z</time><name>PT2712</name></trkpt>
<trkpt lat="53.361774" lon="-1.935481"><ele>378</ele><time>2021-10-01T11:20:43Z</time><name>PT2713</name></trkpt>
<trkpt lat="53.361777" lon="-1.935463"><ele>378</ele><time>2021-10-01T11:20:44Z</time><name>PT2714</name></trkpt>
<trkpt lat="53.361782" lon="-1.935444"><ele>378</ele><time>2021-10-01T11:20:45Z</time><name>PT2715</name></trkpt>
<trkpt lat="53.361788" lon="-1.935424"><ele>378</ele><time>2021-10-01T11:20:46Z</time><name>PT2716</name></trkpt>
<trkpt lat="53.361793" lon="-1.935405"><ele>378</ele><time>2021-10-01T11:20:47Z</time><name>PT2717</name></trkpt>
<trkpt lat="53.361797" lon="-1.935389"><ele>378</ele><time>2021-10-01T11:20:48Z</time><name>PT2718</name></trkpt>
<trkpt lat="53.361798" lon="-1.935373"><ele>377</ele><time>2021-10-01T11:20:49Z</time><name>PT2719</name></trkpt>
<trkpt lat="53.361799" lon="-1.935350"><ele>376</ele><time>2021-10-01T11:20:50Z</time><name>PT2720</name></trkpt>
<trkpt lat="53.361802" lon="-1.935331"><ele>376</ele><time>2021-10-01T11:20:51Z</time><name>PT2721</name></trkpt>
<trkpt lat="53.361805" lon="-1.935310"><ele>376</ele><time>2021-10-01T11:20:52Z</time><name>PT2722</name></trkpt>
<trkpt lat="53.361806" lon="-1.935292"><ele>376</ele><time>2021-10-01T11:20:53Z</time><name>PT2723</name></trkpt>
<trkpt lat="53.361807" lon="-1.935275"><ele>376</ele><time>2021-10-01T11:20:54Z</time><name>PT2724</name></trkpt>
<trkpt lat="53.361812" lon="-1.935254"><ele>375</ele><time>2021-10-01T11:20:55Z</time><name>PT2725</name></trkpt>
<trkpt lat="53.361816" lon="-1.935230"><ele>375</ele><time>2021-10-01T11:20:56Z</time><name>PT2726</name></trkpt>
<trkpt lat="53.361822" lon="-1.935210"><ele>375</ele><time>2021-10-01T11:20:57Z</time><name>PT2727</name></trkpt>
<trkpt lat="53.361829" lon="-1.935194"><ele>375</ele><time>2021-10-01T11:20:58Z</time><name>PT2728</name></trkpt>
<trkpt lat="53.361833" lon="-1.935177"><ele>375</ele><time>2021-10-01T11:20:59Z</time><name>PT2729</name></trkpt>
<trkpt lat="53.361839" lon="-1.935153"><ele>376</ele><time>2021-10-01T11:21:00Z</time><name>PT2730</name></trkpt>
<trkpt lat="53.361840" lon="-1.935136"><ele>375</ele><time>2021-10-01T11:21:01Z</time><name>PT2731</name></trkpt>
<trkpt lat="53.361841" lon="-1.935120"><ele>375</ele><time>2021-10-01T11:21:02Z</time><name>PT2732</name></trkpt>
<trkpt lat="53.361844" lon="-1.935101"><ele>375</ele><time>2021-10-01T11:21:03Z</time><name>PT2733</name></trkpt>
<trkpt lat="53.361847" lon="-1.935078"><ele>375</ele><time>2021-10-01T11:21:04Z</time><name>PT2734</name></trkpt>
<trkpt lat="53.361853" lon="-1.935060"><ele>375</ele><time>2021-10-01T11:21:05Z</time><name>PT2735</name></trkpt>
<trkpt lat="53.361858" lon="-1.935046"><ele>375</ele><time>2021-10-01T11:21:06Z</time><name>PT2736</name></trkpt>
<trkpt lat="53.361862" lon="-1.935034"><ele>375</ele><time>2021-10-01T11:21:07Z</time><name>PT2737</name></trkpt>
<trkpt lat="53.361864" lon="-1.935023"><ele>374</ele><time>2021-10-01T11:21:08Z</time><name>PT2738</name></trkpt>
<trkpt lat="53.361865" lon="-1.935002"><ele>374</ele><time>2021-10-01T11:21:09Z</time><name>PT2739</name></trkpt>
<trkpt lat="53.361870" lon="-1.934979"><ele>374</ele><time>2021-10-01T11:21:10Z</time><name>PT2740</name></trkpt>
<trkpt lat="53.361876" lon="-1.934957"><ele>374</ele><time>2021-10-01T11:21:11Z</time><name>PT2741</name></trkpt>
<trkpt lat="53.361878" lon="-1.934940"><ele>374</ele><time>2021-10-01T11:21:12Z</time><name>PT2742</name></trkpt>
<trkpt lat="53.361882" lon="-1.934921"><ele>374</ele><time>2021-10-01T11:21:13Z</time><name>PT2743</name></trkpt>
<trkpt lat="53.361887" lon="-1.934896"><ele>374</ele><time>2021-10-01T11:21:14Z</time><name>PT2744</name></trkpt>
<trkpt lat="53.361889" lon="-1.934878"><ele>374</ele><time>2021-10-01T11:21:15Z</time><name>PT2745</name></trkpt>
<trkpt lat="53.361892" lon="-1.934857"><ele>374</ele><time>2021-10-01T11:21:16Z</time><name>PT2746</name></trkpt>
<trkpt lat="53.361895" lon="-1.934838"><ele>374</ele><time>2021-10-01T11:21:17Z</time><name>PT2747</name></trkpt>
<trkpt lat="53.361899" lon="-1.934815"><ele>374</ele><time>2021-10-01T11:21:18Z</time><name>PT2748</name></trkpt>
<trkpt lat="53.361903" lon="-1.934798"><ele>374</ele><time>2021-10-01T11:21:19Z</time><name>PT2749</name></trkpt>
<trkpt lat="53.361908" lon="-1.934780"><ele>374</ele><time>2021-10-01T11:21:20Z</time><name>PT2750</name></trkpt>
<trkpt lat="53.361911" lon="-1.934762"><ele>374</ele><time>2021-10-01T11:21:21Z</time><name>PT2751</name></trkpt>
<trkpt lat="53.361914" lon="-1.934740"><ele>374</ele><time>2021-10-01T11:21:22Z</time><name>PT2752</name></trkpt>
<trkpt lat="53.361914" lon="-1.934721"><ele>374</ele><time>2021-10-01T11:21:23Z</time><name>PT2753</name></trkpt>
<trkpt lat="53.361914" lon="-1.934701"><ele>374</ele><time>2021-10-01T11:21:24Z</time><name>PT2754</name></trkpt>
<trkpt lat="53.361916" lon="-1.934678"><ele>374</ele><time>2021-10-01T11:21:25Z</time><name>PT2755</name></trkpt>
<trkpt lat="53.361917" lon="-1.934653"><ele>374</ele><time>2021-10-01T11:21:26Z</time><name>PT2756</name></trkpt>
<trkpt lat="53.361917" lon="-1.934633"><ele>374</ele><time>2021-10-01T11:21:27Z</time><name>PT2757</name></trkpt>
<trkpt lat="53.361917" lon="-1.934616"><ele>373</ele><time>2021-10-01T11:21:28Z</time><name>PT2758</name></trkpt>
<trkpt lat="53.361913" lon="-1.934556"><ele>372</ele><time>2021-10-01T11:21:31Z</time><name>PT2759</name></trkpt>
<trkpt lat="53.361912" lon="-1.934498"><ele>372</ele><time>2021-10-01T11:21:34Z</time><name>PT2760</name></trkpt>
<trkpt lat="53.361911" lon="-1.934433"><ele>372</ele><time>2021-10-01T11:21:38Z</time><name>PT2761</name></trkpt>
<trkpt lat="53.361909" lon="-1.934382"><ele>370</ele><time>2021-10-01T11:21:41Z</time><name>PT2762</name></trkpt>
<trkpt lat="53.361901" lon="-1.934311"><ele>370</ele><time>2021-10-01T11:21:44Z</time><name>PT2763</name></trkpt>
<trkpt lat="53.361894" lon="-1.934235"><ele>369</ele><time>2021-10-01T11:21:48Z</time><name>PT2764</name></trkpt>
<trkpt lat="53.361884" lon="-1.934165"><ele>369</ele><time>2021-10-01T11:21:52Z</time><name>PT2765</name></trkpt>
<trkpt lat="53.361873" lon="-1.934112"><ele>368</ele><time>2021-10-01T11:21:55Z</time><name>PT2766</name></trkpt>
<trkpt lat="53.361856" lon="-1.934024"><ele>367</ele><time>2021-10-01T11:21:59Z</time><name>PT2767</name></trkpt>
<trkpt lat="53.361847" lon="-1.933937"><ele>366</ele><time>2021-10-01T11:22:03Z</time><name>PT2768</name></trkpt>
<trkpt lat="53.361834" lon="-1.933877"><ele>365</ele><time>2021-10-01T11:22:06Z</time><name>PT2769</name></trkpt>
<trkpt lat="53.361815" lon="-1.933789"><ele>365</ele><time>2021-10-01T11:22:10Z</time><name>PT2770</name></trkpt>
<trkpt lat="53.361803" lon="-1.933729"><ele>364</ele><time>2021-10-01T11:22:13Z</time><name>PT2771</name></trkpt>
<trkpt lat="53.361792" lon="-1.933645"><ele>365</ele><time>2021-10-01T11:22:17Z</time><name>PT2772</name></trkpt>
<trkpt lat="53.361790" lon="-1.933591"><ele>364</ele><time>2021-10-01T11:22:20Z</time><name>PT2773</name></trkpt>
<trkpt lat="53.361784" lon="-1.933521"><ele>365</ele><time>2021-10-01T11:22:23Z</time><name>PT2774</name></trkpt>
<trkpt lat="53.361782" lon="-1.933437"><ele>365</ele><time>2021-10-01T11:22:27Z</time><name>PT2775</name></trkpt>
<trkpt lat="53.361778" lon="-1.933370"><ele>364</ele><time>2021-10-01T11:22:30Z</time><name>PT2776</name></trkpt>
<trkpt lat="53.361775" lon="-1.933301"><ele>364</ele><time>2021-10-01T11:22:34Z</time><name>PT2777</name></trkpt>
<trkpt lat="53.361771" lon="-1.933239"><ele>363</ele><time>2021-10-01T11:22:37Z</time><name>PT2778</name></trkpt>
<trkpt lat="53.361763" lon="-1.933162"><ele>361</ele><time>2021-10-01T11:22:41Z</time><name>PT2779</name></trkpt>
<trkpt lat="53.361759" lon="-1.933080"><ele>361</ele><time>2021-10-01T11:22:45Z</time><name>PT2780</name></trkpt>
<trkpt lat="53.361751" lon="-1.933012"><ele>361</ele><time>2021-10-01T11:22:48Z</time><name>PT2781</name></trkpt>
<trkpt lat="53.361747" lon="-1.932934"><ele>361</ele><time>2021-10-01T11:22:52Z</time><name>PT2782</name></trkpt>
<trkpt lat="53.361742" lon="-1.932866"><ele>359</ele><time>2021-10-01T11:22:56Z</time><name>PT2783</name></trkpt>
<trkpt lat="53.361738" lon="-1.932791"><ele>358</ele><time>2021-10-01T11:23:00Z</time><name>PT2784</name></trkpt>
<trkpt lat="53.361731" lon="-1.932711"><ele>358</ele><time>2021-10-01T11:23:04Z</time><name>PT2785</name></trkpt>
<trkpt lat="53.361724" lon="-1.932641"><ele>358</ele><time>2021-10-01T11:23:08Z</time><name>PT2786</name></trkpt>
<trkpt lat="53.361720" lon="-1.932578"><ele>358</ele><time>2021-10-01T11:23:11Z</time><name>PT2787</name></trkpt>
<trkpt lat="53.361716" lon="-1.932524"><ele>358</ele><time>2021-10-01T11:23:14Z</time><name>PT2788</name></trkpt>
<trkpt lat="53.361705" lon="-1.932432"><ele>357</ele><time>2021-10-01T11:23:18Z</time><name>PT2789</name></trkpt>
<trkpt lat="53.361710" lon="-1.932346"><ele>357</ele><time>2021-10-01T11:23:22Z</time><name>PT2790</name></trkpt>
<trkpt lat="53.361704" lon="-1.932285"><ele>357</ele><time>2021-10-01T11:23:25Z</time><name>PT2791</name></trkpt>
<trkpt lat="53.361702" lon="-1.932201"><ele>357</ele><time>2021-10-01T11:23:29Z</time><name>PT2792</name></trkpt>
<trkpt lat="53.361690" lon="-1.932149"><ele>356</ele><time>2021-10-01T11:23:32Z</time><name>PT2793</name></trkpt>
<trkpt lat="53.361684" lon="-1.932097"><ele>356</ele><time>2021-10-01T11:23:35Z</time><name>PT2794</name></trkpt>
<trkpt lat="53.361678" lon="-1.932017"><ele>356</ele><time>2021-10-01T11:23:39Z</time><name>PT2795</name></trkpt>
<trkpt lat="53.361669" lon="-1.931954"><ele>355</ele><time>2021-10-01T11:23:42Z</time><name>PT2796</name></trkpt>
<trkpt lat="53.361661" lon="-1.931897"><ele>355</ele><time>2021-10-01T11:23:45Z</time><name>PT2797</name></trkpt>
<trkpt lat="53.361653" lon="-1.931845"><ele>354</ele><time>2021-10-01T11:23:49Z</time><name>PT2798</name></trkpt>
<trkpt lat="53.361651" lon="-1.931809"><ele>354</ele><time>2021-10-01T11:23:52Z</time><name>PT2799</name></trkpt>
<trkpt lat="53.361652" lon="-1.931795"><ele>353</ele><time>2021-10-01T11:23:56Z</time><name>PT2800</name></trkpt>
<trkpt lat="53.361654" lon="-1.931784"><ele>354</ele><time>2021-10-01T11:24:21Z</time><name>PT2801</name></trkpt>
<trkpt lat="53.361657" lon="-1.931776"><ele>354</ele><time>2021-10-01T11:24:22Z</time><name>PT2802</name></trkpt>
<trkpt lat="53.361655" lon="-1.931772"><ele>354</ele><time>2021-10-01T11:24:23Z</time><name>PT2803</name></trkpt>
<trkpt lat="53.361654" lon="-1.931769"><ele>354</ele><time>2021-10-01T11:24:24Z</time><name>PT2804</name></trkpt>
<trkpt lat="53.361653" lon="-1.931764"><ele>354</ele><time>2021-10-01T11:24:26Z</time><name>PT2805</name></trkpt>
<trkpt lat="53.361655" lon="-1.931744"><ele>353</ele><time>2021-10-01T11:24:27Z</time><name>PT2806</name></trkpt>
<trkpt lat="53.361655" lon="-1.931726"><ele>354</ele><time>2021-10-01T11:24:28Z</time><name>PT2807</name></trkpt>
<trkpt lat="53.361656" lon="-1.931710"><ele>353</ele><time>2021-10-01T11:24:29Z</time><name>PT2808</name></trkpt>
<trkpt lat="53.361658" lon="-1.931696"><ele>354</ele><time>2021-10-01T11:24:30Z</time><name>PT2809</name></trkpt>
<trkpt lat="53.361659" lon="-1.931682"><ele>354</ele><time>2021-10-01T11:24:31Z</time><name>PT2810</name></trkpt>
<trkpt lat="53.361659" lon="-1.931668"><ele>353</ele><time>2021-10-01T11:24:32Z</time><name>PT2811</name></trkpt>
<trkpt lat="53.361661" lon="-1.931656"><ele>353</ele><time>2021-10-01T11:24:33Z</time><name>PT2812</name></trkpt>
<trkpt lat="53.361660" lon="-1.931642"><ele>354</ele><time>2021-10-01T11:24:34Z</time><name>PT2813</name></trkpt>
<trkpt lat="53.361659" lon="-1.931631"><ele>354</ele><time>2021-10-01T11:24:35Z</time><name>PT2814</name></trkpt>
<trkpt lat="53.361657" lon="-1.931619"><ele>354</ele><time>2021-10-01T11:24:36Z</time><name>PT2815</name></trkpt>
<trkpt lat="53.361661" lon="-1.931602"><ele>354</ele><time>2021-10-01T11:24:37Z</time><name>PT2816</name></trkpt>
<trkpt lat="53.361662" lon="-1.931590"><ele>353</ele><time>2021-10-01T11:24:38Z</time><name>PT2817</name></trkpt>
<trkpt lat="53.361661" lon="-1.931582"><ele>353</ele><time>2021-10-01T11:24:39Z</time><name>PT2818</name></trkpt>
<trkpt lat="53.361661" lon="-1.931567"><ele>353</ele><time>2021-10-01T11:24:40Z</time><name>PT2819</name></trkpt>
<trkpt lat="53.361662" lon="-1.931552"><ele>353</ele><time>2021-10-01T11:24:41Z</time><name>PT2820</name></trkpt>
<trkpt lat="53.361661" lon="-1.931537"><ele>352</ele><time>2021-10-01T11:24:42Z</time><name>PT2821</name></trkpt>
<trkpt lat="53.361666" lon="-1.931524"><ele>353</ele><time>2021-10-01T11:24:43Z</time><name>PT2822</name></trkpt>
<trkpt lat="53.361668" lon="-1.931510"><ele>353</ele><time>2021-10-01T11:24:44Z</time><name>PT2823</name></trkpt>
<trkpt lat="53.361668" lon="-1.931496"><ele>353</ele><time>2021-10-01T11:24:45Z</time><name>PT2824</name></trkpt>
<trkpt lat="53.361669" lon="-1.931480"><ele>352</ele><time>2021-10-01T11:24:46Z</time><name>PT2825</name></trkpt>
<trkpt lat="53.361673" lon="-1.931465"><ele>352</ele><time>2021-10-01T11:24:47Z</time><name>PT2826</name></trkpt>
<trkpt lat="53.361674" lon="-1.931447"><ele>352</ele><time>2021-10-01T11:24:48Z</time><name>PT2827</name></trkpt>
<trkpt lat="53.361675" lon="-1.931433"><ele>351</ele><time>2021-10-01T11:24:49Z</time><name>PT2828</name></trkpt>
<trkpt lat="53.361677" lon="-1.931417"><ele>351</ele><time>2021-10-01T11:24:50Z</time><name>PT2829</name></trkpt>
<trkpt lat="53.361679" lon="-1.931398"><ele>351</ele><time>2021-10-01T11:24:51Z</time><name>PT2830</name></trkpt>
<trkpt lat="53.361680" lon="-1.931384"><ele>350</ele><time>2021-10-01T11:24:52Z</time><name>PT2831</name></trkpt>
<trkpt lat="53.361682" lon="-1.931369"><ele>350</ele><time>2021-10-01T11:24:53Z</time><name>PT2832</name></trkpt>
<trkpt lat="53.361682" lon="-1.931353"><ele>349</ele><time>2021-10-01T11:24:54Z</time><name>PT2833</name></trkpt>
<trkpt lat="53.361682" lon="-1.931340"><ele>349</ele><time>2021-10-01T11:24:55Z</time><name>PT2834</name></trkpt>
<trkpt lat="53.361681" lon="-1.931326"><ele>349</ele><time>2021-10-01T11:24:56Z</time><name>PT2835</name></trkpt>
<trkpt lat="53.361681" lon="-1.931311"><ele>349</ele><time>2021-10-01T11:24:57Z</time><name>PT2836</name></trkpt>
<trkpt lat="53.361683" lon="-1.931298"><ele>349</ele><time>2021-10-01T11:24:58Z</time><name>PT2837</name></trkpt>
<trkpt lat="53.361686" lon="-1.931284"><ele>348</ele><time>2021-10-01T11:24:59Z</time><name>PT2838</name></trkpt>
<trkpt lat="53.361688" lon="-1.931268"><ele>348</ele><time>2021-10-01T11:25:00Z</time><name>PT2839</name></trkpt>
<trkpt lat="53.361689" lon="-1.931256"><ele>348</ele><time>2021-10-01T11:25:01Z</time><name>PT2840</name></trkpt>
<trkpt lat="53.361692" lon="-1.931243"><ele>349</ele><time>2021-10-01T11:25:02Z</time><name>PT2841</name></trkpt>
<trkpt lat="53.361694" lon="-1.931229"><ele>348</ele><time>2021-10-01T11:25:03Z</time><name>PT2842</name></trkpt>
<trkpt lat="53.361696" lon="-1.931213"><ele>348</ele><time>2021-10-01T11:25:04Z</time><name>PT2843</name></trkpt>
<trkpt lat="53.361699" lon="-1.931198"><ele>348</ele><time>2021-10-01T11:25:05Z</time><name>PT2844</name></trkpt>
<trkpt lat="53.361702" lon="-1.931180"><ele>348</ele><time>2021-10-01T11:25:06Z</time><name>PT2845</name></trkpt>
<trkpt lat="53.361703" lon="-1.931160"><ele>348</ele><time>2021-10-01T11:25:07Z</time><name>PT2846</name></trkpt>
<trkpt lat="53.361703" lon="-1.931141"><ele>348</ele><time>2021-10-01T11:25:08Z</time><name>PT2847</name></trkpt>
<trkpt lat="53.361705" lon="-1.931125"><ele>348</ele><time>2021-10-01T11:25:09Z</time><name>PT2848</name></trkpt>
<trkpt lat="53.361707" lon="-1.931105"><ele>348</ele><time>2021-10-01T11:25:10Z</time><name>PT2849</name></trkpt>
<trkpt lat="53.361710" lon="-1.931089"><ele>348</ele><time>2021-10-01T11:25:11Z</time><name>PT2850</name></trkpt>
<trkpt lat="53.361713" lon="-1.931072"><ele>348</ele><time>2021-10-01T11:25:12Z</time><name>PT2851</name></trkpt>
<trkpt lat="53.361714" lon="-1.931057"><ele>347</ele><time>2021-10-01T11:25:13Z</time><name>PT2852</name></trkpt>
<trkpt lat="53.361713" lon="-1.931043"><ele>347</ele><time>2021-10-01T11:25:14Z</time><name>PT2853</name></trkpt>
<trkpt lat="53.361714" lon="-1.931025"><ele>347</ele><time>2021-10-01T11:25:15Z</time><name>PT2854</name></trkpt>
<trkpt lat="53.361717" lon="-1.931006"><ele>347</ele><time>2021-10-01T11:25:16Z</time><name>PT2855</name></trkpt>
<trkpt lat="53.361720" lon="-1.930991"><ele>347</ele><time>2021-10-01T11:25:17Z</time><name>PT2856</name></trkpt>
<trkpt lat="53.361724" lon="-1.930974"><ele>347</ele><time>2021-10-01T11:25:18Z</time><name>PT2857</name></trkpt>
<trkpt lat="53.361727" lon="-1.930957"><ele>347</ele><time>2021-10-01T11:25:19Z</time><name>PT2858</name></trkpt>
<trkpt lat="53.361731" lon="-1.930936"><ele>347</ele><time>2021-10-01T11:25:20Z</time><name>PT2859</name></trkpt>
<trkpt lat="53.361733" lon="-1.930921"><ele>346</ele><time>2021-10-01T11:25:21Z</time><name>PT2860</name></trkpt>
<trkpt lat="53.361734" lon="-1.930902"><ele>346</ele><time>2021-10-01T11:25:22Z</time><name>PT2861</name></trkpt>
<trkpt lat="53.361734" lon="-1.930885"><ele>346</ele><time>2021-10-01T11:25:23Z</time><name>PT2862</name></trkpt>
<trkpt lat="53.361736" lon="-1.930863"><ele>346</ele><time>2021-10-01T11:25:24Z</time><name>PT2863</name></trkpt>
<trkpt lat="53.361740" lon="-1.930838"><ele>345</ele><time>2021-10-01T11:25:25Z</time><name>PT2864</name></trkpt>
<trkpt lat="53.361743" lon="-1.930819"><ele>346</ele><time>2021-10-01T11:25:26Z</time><name>PT2865</name></trkpt>
<trkpt lat="53.361745" lon="-1.930799"><ele>345</ele><time>2021-10-01T11:25:27Z</time><name>PT2866</name></trkpt>
<trkpt lat="53.361748" lon="-1.930778"><ele>345</ele><time>2021-10-01T11:25:28Z</time><name>PT2867</name></trkpt>
<trkpt lat="53.361751" lon="-1.930754"><ele>345</ele><time>2021-10-01T11:25:29Z</time><name>PT2868</name></trkpt>
<trkpt lat="53.361754" lon="-1.930731"><ele>344</ele><time>2021-10-01T11:25:30Z</time><name>PT2869</name></trkpt>
<trkpt lat="53.361758" lon="-1.930710"><ele>345</ele><time>2021-10-01T11:25:31Z</time><name>PT2870</name></trkpt>
<trkpt lat="53.361761" lon="-1.930693"><ele>345</ele><time>2021-10-01T11:25:32Z</time><name>PT2871</name></trkpt>
<trkpt lat="53.361761" lon="-1.930674"><ele>344</ele><time>2021-10-01T11:25:33Z</time><name>PT2872</name></trkpt>
<trkpt lat="53.361761" lon="-1.930648"><ele>344</ele><time>2021-10-01T11:25:34Z</time><name>PT2873</name></trkpt>
<trkpt lat="53.361760" lon="-1.930625"><ele>344</ele><time>2021-10-01T11:25:35Z</time><name>PT2874</name></trkpt>
<trkpt lat="53.361762" lon="-1.930602"><ele>344</ele><time>2021-10-01T11:25:36Z</time><name>PT2875</name></trkpt>
<trkpt lat="53.361765" lon="-1.930576"><ele>344</ele><time>2021-10-01T11:25:37Z</time><name>PT2876</name></trkpt>
<trkpt lat="53.361766" lon="-1.930559"><ele>343</ele><time>2021-10-01T11:25:38Z</time><name>PT2877</name></trkpt>
<trkpt lat="53.361769" lon="-1.930537"><ele>343</ele><time>2021-10-01T11:25:39Z</time><name>PT2878</name></trkpt>
<trkpt lat="53.361772" lon="-1.930517"><ele>343</ele><time>2021-10-01T11:25:40Z</time><name>PT2879</name></trkpt>
<trkpt lat="53.361776" lon="-1.930494"><ele>343</ele><time>2021-10-01T11:25:41Z</time><name>PT2880</name></trkpt>
<trkpt lat="53.361781" lon="-1.930470"><ele>343</ele><time>2021-10-01T11:25:42Z</time><name>PT2881</name></trkpt>
<trkpt lat="53.361783" lon="-1.930447"><ele>343</ele><time>2021-10-01T11:25:43Z</time><name>PT2882</name></trkpt>
<trkpt lat="53.361786" lon="-1.930426"><ele>343</ele><time>2021-10-01T11:25:44Z</time><name>PT2883</name></trkpt>
<trkpt lat="53.361788" lon="-1.930409"><ele>343</ele><time>2021-10-01T11:25:45Z</time><name>PT2884</name></trkpt>
<trkpt lat="53.361786" lon="-1.930388"><ele>343</ele><time>2021-10-01T11:25:46Z</time><name>PT2885</name></trkpt>
<trkpt lat="53.361786" lon="-1.930374"><ele>343</ele><time>2021-10-01T11:25:47Z</time><name>PT2886</name></trkpt>
<trkpt lat="53.361789" lon="-1.930351"><ele>343</ele><time>2021-10-01T11:25:48Z</time><name>PT2887</name></trkpt>
<trkpt lat="53.361792" lon="-1.930331"><ele>343</ele><time>2021-10-01T11:25:49Z</time><name>PT2888</name></trkpt>
<trkpt lat="53.361796" lon="-1.930310"><ele>343</ele><time>2021-10-01T11:25:50Z</time><name>PT2889</name></trkpt>
<trkpt lat="53.361798" lon="-1.930289"><ele>343</ele><time>2021-10-01T11:25:51Z</time><name>PT2890</name></trkpt>
<trkpt lat="53.361802" lon="-1.930270"><ele>342</ele><time>2021-10-01T11:25:52Z</time><name>PT2891</name></trkpt>
<trkpt lat="53.361805" lon="-1.930247"><ele>342</ele><time>2021-10-01T11:25:53Z</time><name>PT2892</name></trkpt>
<trkpt lat="53.361809" lon="-1.930226"><ele>341</ele><time>2021-10-01T11:25:54Z</time><name>PT2893</name></trkpt>
<trkpt lat="53.361815" lon="-1.930207"><ele>341</ele><time>2021-10-01T11:25:55Z</time><name>PT2894</name></trkpt>
<trkpt lat="53.361820" lon="-1.930189"><ele>341</ele><time>2021-10-01T11:25:56Z</time><name>PT2895</name></trkpt>
<trkpt lat="53.361824" lon="-1.930170"><ele>341</ele><time>2021-10-01T11:25:57Z</time><name>PT2896</name></trkpt>
<trkpt lat="53.361830" lon="-1.930149"><ele>341</ele><time>2021-10-01T11:25:58Z</time><name>PT2897</name></trkpt>
<trkpt lat="53.361836" lon="-1.930130"><ele>341</ele><time>2021-10-01T11:25:59Z</time><name>PT2898</name></trkpt>
<trkpt lat="53.361838" lon="-1.930110"><ele>341</ele><time>2021-10-01T11:26:00Z</time><name>PT2899</name></trkpt>
<trkpt lat="53.361841" lon="-1.930094"><ele>341</ele><time>2021-10-01T11:26:01Z</time><name>PT2900</name></trkpt>
<trkpt lat="53.361843" lon="-1.930077"><ele>341</ele><time>2021-10-01T11:26:02Z</time><name>PT2901</name></trkpt>
<trkpt lat="53.361844" lon="-1.930062"><ele>341</ele><time>2021-10-01T11:26:03Z</time><name>PT2902</name></trkpt>
<trkpt lat="53.361846" lon="-1.930050"><ele>340</ele><time>2021-10-01T11:26:04Z</time><name>PT2903</name></trkpt>
<trkpt lat="53.361849" lon="-1.930040"><ele>340</ele><time>2021-10-01T11:26:05Z</time><name>PT2904</name></trkpt>
<trkpt lat="53.361849" lon="-1.930027"><ele>340</ele><time>2021-10-01T11:26:06Z</time><name>PT2905</name></trkpt>
<trkpt lat="53.361849" lon="-1.930018"><ele>340</ele><time>2021-10-01T11:26:07Z</time><name>PT2906</name></trkpt>
<trkpt lat="53.361840" lon="-1.930003"><ele>340</ele><time>2021-10-01T11:26:10Z</time><name>PT2907</name></trkpt>
<trkpt lat="53.361836" lon="-1.929992"><ele>341</ele><time>2021-10-01T11:26:14Z</time><name>PT2908</name></trkpt>
<trkpt lat="53.361835" lon="-1.929990"><ele>341</ele><time>2021-10-01T11:26:18Z</time><name>PT2909</name></trkpt>
<trkpt lat="53.361832" lon="-1.929978"><ele>341</ele><time>2021-10-01T11:26:21Z</time><name>PT2910</name></trkpt>
<trkpt lat="53.361831" lon="-1.929972"><ele>340</ele><time>2021-10-01T11:26:24Z</time><name>PT2911</name></trkpt>
<trkpt lat="53.361850" lon="-1.929924"><ele>340</ele><time>2021-10-01T11:26:28Z</time><name>PT2912</name></trkpt>
<trkpt lat="53.361882" lon="-1.929876"><ele>340</ele><time>2021-10-01T11:26:31Z</time><name>PT2913</name></trkpt>
<trkpt lat="53.361891" lon="-1.929856"><ele>340</ele><time>2021-10-01T11:26:32Z</time><name>PT2914</name></trkpt>
<trkpt lat="53.361895" lon="-1.929839"><ele>340</ele><time>2021-10-01T11:26:33Z</time><name>PT2915</name></trkpt>
<trkpt lat="53.361900" lon="-1.929815"><ele>340</ele><time>2021-10-01T11:26:34Z</time><name>PT2916</name></trkpt>
<trkpt lat="53.361906" lon="-1.929794"><ele>339</ele><time>2021-10-01T11:26:35Z</time><name>PT2917</name></trkpt>
<trkpt lat="53.361910" lon="-1.929779"><ele>339</ele><time>2021-10-01T11:26:36Z</time><name>PT2918</name></trkpt>
<trkpt lat="53.361914" lon="-1.929766"><ele>339</ele><time>2021-10-01T11:26:37Z</time><name>PT2919</name></trkpt>
<trkpt lat="53.361918" lon="-1.929749"><ele>338</ele><time>2021-10-01T11:26:38Z</time><name>PT2920</name></trkpt>
<trkpt lat="53.361920" lon="-1.929733"><ele>338</ele><time>2021-10-01T11:26:39Z</time><name>PT2921</name></trkpt>
<trkpt lat="53.361920" lon="-1.929721"><ele>338</ele><time>2021-10-01T11:26:40Z</time><name>PT2922</name></trkpt>
<trkpt lat="53.361922" lon="-1.929707"><ele>337</ele><time>2021-10-01T11:26:41Z</time><name>PT2923</name></trkpt>
<trkpt lat="53.361924" lon="-1.929700"><ele>337</ele><time>2021-10-01T11:26:42Z</time><name>PT2924</name></trkpt>
<trkpt lat="53.361925" lon="-1.929699"><ele>337</ele><time>2021-10-01T11:26:43Z</time><name>PT2925</name></trkpt>
<trkpt lat="53.361924" lon="-1.929678"><ele>336</ele><time>2021-10-01T11:26:44Z</time><name>PT2926</name></trkpt>
<trkpt lat="53.361926" lon="-1.929677"><ele>336</ele><time>2021-10-01T11:26:45Z</time><name>PT2927</name></trkpt>
<trkpt lat="53.361928" lon="-1.929679"><ele>335</ele><time>2021-10-01T11:26:46Z</time><name>PT2928</name></trkpt>
<trkpt lat="53.361928" lon="-1.929683"><ele>335</ele><time>2021-10-01T11:26:47Z</time><name>PT2929</name></trkpt>
<trkpt lat="53.361928" lon="-1.929682"><ele>335</ele><time>2021-10-01T11:26:49Z</time><name>PT2930</name></trkpt>
<trkpt lat="53.361927" lon="-1.929665"><ele>335</ele><time>2021-10-01T11:26:57Z</time><name>PT2931</name></trkpt>
<trkpt lat="53.361927" lon="-1.929647"><ele>335</ele><time>2021-10-01T11:26:58Z</time><name>PT2932</name></trkpt>
<trkpt lat="53.361930" lon="-1.929631"><ele>335</ele><time>2021-10-01T11:26:59Z</time><name>PT2933</name></trkpt>
<trkpt lat="53.361932" lon="-1.929623"><ele>334</ele><time>2021-10-01T11:27:00Z</time><name>PT2934</name></trkpt>
<trkpt lat="53.361938" lon="-1.929614"><ele>334</ele><time>2021-10-01T11:27:01Z</time><name>PT2935</name></trkpt>
<trkpt lat="53.361944" lon="-1.929601"><ele>334</ele><time>2021-10-01T11:27:02Z</time><name>PT2936</name></trkpt>
<trkpt lat="53.361946" lon="-1.929596"><ele>334</ele><time>2021-10-01T11:27:03Z</time><name>PT2937</name></trkpt>
<trkpt lat="53.361947" lon="-1.929589"><ele>334</ele><time>2021-10-01T11:27:04Z</time><name>PT2938</name></trkpt>
<trkpt lat="53.361948" lon="-1.929583"><ele>333</ele><time>2021-10-01T11:27:05Z</time><name>PT2939</name></trkpt>
<trkpt lat="53.361950" lon="-1.929576"><ele>333</ele><time>2021-10-01T11:27:09Z</time><name>PT2940</name></trkpt>
<trkpt lat="53.361954" lon="-1.929569"><ele>333</ele><time>2021-10-01T11:27:10Z</time><name>PT2941</name></trkpt>
<trkpt lat="53.361955" lon="-1.929547"><ele>334</ele><time>2021-10-01T11:27:38Z</time><name>PT2942</name></trkpt>
<trkpt lat="53.361955" lon="-1.929515"><ele>334</ele><time>2021-10-01T11:27:39Z</time><name>PT2943</name></trkpt>
<trkpt lat="53.361959" lon="-1.929489"><ele>334</ele><time>2021-10-01T11:27:40Z</time><name>PT2944</name></trkpt>
<trkpt lat="53.361965" lon="-1.929458"><ele>335</ele><time>2021-10-01T11:27:41Z</time><name>PT2945</name></trkpt>
<trkpt lat="53.361966" lon="-1.929429"><ele>335</ele><time>2021-10-01T11:27:42Z</time><name>PT2946</name></trkpt>
<trkpt lat="53.361963" lon="-1.929413"><ele>335</ele><time>2021-10-01T11:27:43Z</time><name>PT2947</name></trkpt>
<trkpt lat="53.361963" lon="-1.929394"><ele>336</ele><time>2021-10-01T11:27:44Z</time><name>PT2948</name></trkpt>
<trkpt lat="53.361962" lon="-1.929380"><ele>335</ele><time>2021-10-01T11:27:45Z</time><name>PT2949</name></trkpt>
<trkpt lat="53.361961" lon="-1.929363"><ele>335</ele><time>2021-10-01T11:27:46Z</time><name>PT2950</name></trkpt>
<trkpt lat="53.361953" lon="-1.929327"><ele>335</ele><time>2021-10-01T11:27:47Z</time><name>PT2951</name></trkpt>
<trkpt lat="53.361944" lon="-1.929311"><ele>335</ele><time>2021-10-01T11:27:48Z</time><name>PT2952</name></trkpt>
<trkpt lat="53.361941" lon="-1.929307"><ele>335</ele><time>2021-10-01T11:27:49Z</time><name>PT2953</name></trkpt>
<trkpt lat="53.361940" lon="-1.929306"><ele>335</ele><time>2021-10-01T11:27:50Z</time><name>PT2954</name></trkpt>
<trkpt lat="53.361940" lon="-1.929304"><ele>335</ele><time>2021-10-01T11:27:51Z</time><name>PT2955</name></trkpt>
<trkpt lat="53.361942" lon="-1.929314"><ele>335</ele><time>2021-10-01T11:27:52Z</time><name>PT2956</name></trkpt>
<trkpt lat="53.361938" lon="-1.929302"><ele>335</ele><time>2021-10-01T11:28:09Z</time><name>PT2957</name></trkpt>
<trkpt lat="53.361939" lon="-1.929290"><ele>335</ele><time>2021-10-01T11:28:10Z</time><name>PT2958</name></trkpt>
<trkpt lat="53.361940" lon="-1.929281"><ele>335</ele><time>2021-10-01T11:28:11Z</time><name>PT2959</name></trkpt>
<trkpt lat="53.361940" lon="-1.929270"><ele>335</ele><time>2021-10-01T11:28:12Z</time><name>PT2960</name></trkpt>
<trkpt lat="53.361938" lon="-1.929266"><ele>334</ele><time>2021-10-01T11:28:13Z</time><name>PT2961</name></trkpt>
<trkpt lat="53.361936" lon="-1.929263"><ele>334</ele><time>2021-10-01T11:28:14Z</time><name>PT2962</name></trkpt>
<trkpt lat="53.361934" lon="-1.929262"><ele>334</ele><time>2021-10-01T11:28:15Z</time><name>PT2963</name></trkpt>
<trkpt lat="53.361934" lon="-1.929259"><ele>334</ele><time>2021-10-01T11:28:16Z</time><name>PT2964</name></trkpt>
<trkpt lat="53.361932" lon="-1.929248"><ele>334</ele><time>2021-10-01T11:28:19Z</time><name>PT2965</name></trkpt>
<trkpt lat="53.361934" lon="-1.929225"><ele>334</ele><time>2021-10-01T11:28:20Z</time><name>PT2966</name></trkpt>
<trkpt lat="53.361941" lon="-1.929206"><ele>334</ele><time>2021-10-01T11:28:21Z</time><name>PT2967</name></trkpt>
<trkpt lat="53.361948" lon="-1.929185"><ele>334</ele><time>2021-10-01T11:28:22Z</time><name>PT2968</name></trkpt>
<trkpt lat="53.361949" lon="-1.929157"><ele>334</ele><time>2021-10-01T11:28:23Z</time><name>PT2969</name></trkpt>
<trkpt lat="53.361953" lon="-1.929136"><ele>334</ele><time>2021-10-01T11:28:24Z</time><name>PT2970</name></trkpt>
<trkpt lat="53.361956" lon="-1.929112"><ele>334</ele><time>2021-10-01T11:28:25Z</time><name>PT2971</name></trkpt>
<trkpt lat="53.361957" lon="-1.929091"><ele>334</ele><time>2021-10-01T11:28:26Z</time><name>PT2972</name></trkpt>
<trkpt lat="53.361961" lon="-1.929076"><ele>334</ele><time>2021-10-01T11:28:27Z</time><name>PT2973</name></trkpt>
<trkpt lat="53.361969" lon="-1.929061"><ele>334</ele><time>2021-10-01T11:28:28Z</time><name>PT2974</name></trkpt>
<trkpt lat="53.361974" lon="-1.929051"><ele>334</ele><time>2021-10-01T11:28:29Z</time><name>PT2975</name></trkpt>
<trkpt lat="53.361977" lon="-1.929040"><ele>334</ele><time>2021-10-01T11:28:30Z</time><name>PT2976</name></trkpt>
<trkpt lat="53.361981" lon="-1.929027"><ele>334</ele><time>2021-10-01T11:28:31Z</time><name>PT2977</name></trkpt>
<trkpt lat="53.361988" lon="-1.928972"><ele>334</ele><time>2021-10-01T11:28:34Z</time><name>PT2978</name></trkpt>
<trkpt lat="53.362003" lon="-1.928895"><ele>333</ele><time>2021-10-01T11:28:38Z</time><name>PT2979</name></trkpt>
<trkpt lat="53.362009" lon="-1.928829"><ele>333</ele><time>2021-10-01T11:28:41Z</time><name>PT2980</name></trkpt>
<trkpt lat="53.362028" lon="-1.928766"><ele>333</ele><time>2021-10-01T11:28:44Z</time><name>PT2981</name></trkpt>
<trkpt lat="53.362060" lon="-1.928682"><ele>333</ele><time>2021-10-01T11:28:48Z</time><name>PT2982</name></trkpt>
<trkpt lat="53.362101" lon="-1.928630"><ele>333</ele><time>2021-10-01T11:28:52Z</time><name>PT2983</name></trkpt>
<trkpt lat="53.362136" lon="-1.928585"><ele>334</ele><time>2021-10-01T11:28:55Z</time><name>PT2984</name></trkpt>
<trkpt lat="53.362172" lon="-1.928565"><ele>333</ele><time>2021-10-01T11:28:59Z</time><name>PT2985</name></trkpt>
<trkpt lat="53.362220" lon="-1.928572"><ele>334</ele><time>2021-10-01T11:29:03Z</time><name>PT2986</name></trkpt>
<trkpt lat="53.362253" lon="-1.928580"><ele>333</ele><time>2021-10-01T11:29:06Z</time><name>PT2987</name></trkpt>
<trkpt lat="53.362292" lon="-1.928585"><ele>330</ele><time>2021-10-01T11:29:10Z</time><name>PT2988</name></trkpt>
<trkpt lat="53.362329" lon="-1.928608"><ele>331</ele><time>2021-10-01T11:29:13Z</time><name>PT2989</name></trkpt>
<trkpt lat="53.362354" lon="-1.928617"><ele>330</ele><time>2021-10-01T11:29:16Z</time><name>PT2990</name></trkpt>
<trkpt lat="53.362393" lon="-1.928633"><ele>331</ele><time>2021-10-01T11:29:19Z</time><name>PT2991</name></trkpt>
<trkpt lat="53.362434" lon="-1.928648"><ele>332</ele><time>2021-10-01T11:29:22Z</time><name>PT2992</name></trkpt>
<trkpt lat="53.362488" lon="-1.928647"><ele>331</ele><time>2021-10-01T11:29:26Z</time><name>PT2993</name></trkpt>
<trkpt lat="53.362546" lon="-1.928625"><ele>330</ele><time>2021-10-01T11:29:30Z</time><name>PT2994</name></trkpt>
<trkpt lat="53.362585" lon="-1.928602"><ele>330</ele><time>2021-10-01T11:29:33Z</time><name>PT2995</name></trkpt>
<trkpt lat="53.362621" lon="-1.928615"><ele>331</ele><time>2021-10-01T11:29:36Z</time><name>PT2996</name></trkpt>
<trkpt lat="53.362663" lon="-1.928617"><ele>330</ele><time>2021-10-01T11:29:40Z</time><name>PT2997</name></trkpt>
<trkpt lat="53.362700" lon="-1.928637"><ele>330</ele><time>2021-10-01T11:29:43Z</time><name>PT2998</name></trkpt>
<trkpt lat="53.362741" lon="-1.928648"><ele>329</ele><time>2021-10-01T11:29:47Z</time><name>PT2999</name></trkpt>
<trkpt lat="53.362783" lon="-1.928657"><ele>329</ele><time>2021-10-01T11:29:50Z</time><name>PT3000</name></trkpt>
<trkpt lat="53.362830" lon="-1.928676"><ele>328</ele><time>2021-10-01T11:29:54Z</time><name>PT3001</name></trkpt>
<trkpt lat="53.362882" lon="-1.928692"><ele>329</ele><time>2021-10-01T11:29:58Z</time><name>PT3002</name></trkpt>
<trkpt lat="53.362944" lon="-1.928726"><ele>331</ele><time>2021-10-01T11:30:02Z</time><name>PT3003</name></trkpt>
<trkpt lat="53.362990" lon="-1.928749"><ele>331</ele><time>2021-10-01T11:30:06Z</time><name>PT3004</name></trkpt>
<trkpt lat="53.363033" lon="-1.928775"><ele>329</ele><time>2021-10-01T11:30:10Z</time><name>PT3005</name></trkpt>
<trkpt lat="53.363105" lon="-1.928744"><ele>333</ele><time>2021-10-01T11:30:14Z</time><name>PT3006</name></trkpt>
<trkpt lat="53.363132" lon="-1.928688"><ele>334</ele><time>2021-10-01T11:30:18Z</time><name>PT3007</name></trkpt>
<trkpt lat="53.363149" lon="-1.928620"><ele>333</ele><time>2021-10-01T11:30:22Z</time><name>PT3008</name></trkpt>
<trkpt lat="53.363169" lon="-1.928572"><ele>333</ele><time>2021-10-01T11:30:25Z</time><name>PT3009</name></trkpt>
<trkpt lat="53.363203" lon="-1.928511"><ele>332</ele><time>2021-10-01T11:30:29Z</time><name>PT3010</name></trkpt>
<trkpt lat="53.363228" lon="-1.928483"><ele>332</ele><time>2021-10-01T11:30:32Z</time><name>PT3011</name></trkpt>
<trkpt lat="53.363246" lon="-1.928456"><ele>330</ele><time>2021-10-01T11:30:35Z</time><name>PT3012</name></trkpt>
<trkpt lat="53.363278" lon="-1.928427"><ele>329</ele><time>2021-10-01T11:30:39Z</time><name>PT3013</name></trkpt>
<trkpt lat="53.363305" lon="-1.928408"><ele>330</ele><time>2021-10-01T11:30:43Z</time><name>PT3014</name></trkpt>
<trkpt lat="53.363336" lon="-1.928381"><ele>330</ele><time>2021-10-01T11:30:47Z</time><name>PT3015</name></trkpt>
<trkpt lat="53.363377" lon="-1.928348"><ele>331</ele><time>2021-10-01T11:30:51Z</time><name>PT3016</name></trkpt>
<trkpt lat="53.363416" lon="-1.928315"><ele>331</ele><time>2021-10-01T11:30:55Z</time><name>PT3017</name></trkpt>
<trkpt lat="53.363441" lon="-1.928289"><ele>330</ele><time>2021-10-01T11:30:58Z</time><name>PT3018</name></trkpt>
<trkpt lat="53.363474" lon="-1.928264"><ele>330</ele><time>2021-10-01T11:31:01Z</time><name>PT3019</name></trkpt>
<trkpt lat="53.363516" lon="-1.928203"><ele>332</ele><time>2021-10-01T11:31:05Z</time><name>PT3020</name></trkpt>
<trkpt lat="53.363548" lon="-1.928167"><ele>332</ele><time>2021-10-01T11:31:08Z</time><name>PT3021</name></trkpt>
<trkpt lat="53.363581" lon="-1.928134"><ele>333</ele><time>2021-10-01T11:31:11Z</time><name>PT3022</name></trkpt>
<trkpt lat="53.363615" lon="-1.928107"><ele>334</ele><time>2021-10-01T11:31:14Z</time><name>PT3023</name></trkpt>
<trkpt lat="53.363661" lon="-1.928070"><ele>335</ele><time>2021-10-01T11:31:18Z</time><name>PT3024</name></trkpt>
<trkpt lat="53.363700" lon="-1.928035"><ele>336</ele><time>2021-10-01T11:31:22Z</time><name>PT3025</name></trkpt>
<trkpt lat="53.363733" lon="-1.928015"><ele>336</ele><time>2021-10-01T11:31:25Z</time><name>PT3026</name></trkpt>
<trkpt lat="53.363773" lon="-1.927986"><ele>336</ele><time>2021-10-01T11:31:29Z</time><name>PT3027</name></trkpt>
<trkpt lat="53.363804" lon="-1.927956"><ele>337</ele><time>2021-10-01T11:31:32Z</time><name>PT3028</name></trkpt>
<trkpt lat="53.363840" lon="-1.927936"><ele>337</ele><time>2021-10-01T11:31:35Z</time><name>PT3029</name></trkpt>
<trkpt lat="53.363870" lon="-1.927904"><ele>338</ele><time>2021-10-01T11:31:38Z</time><name>PT3030</name></trkpt>
<trkpt lat="53.363912" lon="-1.927871"><ele>338</ele><time>2021-10-01T11:31:42Z</time><name>PT3031</name></trkpt>
<trkpt lat="53.363954" lon="-1.927841"><ele>338</ele><time>2021-10-01T11:31:46Z</time><name>PT3032</name></trkpt>
<trkpt lat="53.363985" lon="-1.927813"><ele>339</ele><time>2021-10-01T11:31:49Z</time><name>PT3033</name></trkpt>
<trkpt lat="53.364017" lon="-1.927780"><ele>339</ele><time>2021-10-01T11:31:52Z</time><name>PT3034</name></trkpt>
<trkpt lat="53.364051" lon="-1.927744"><ele>340</ele><time>2021-10-01T11:31:55Z</time><name>PT3035</name></trkpt>
<trkpt lat="53.364082" lon="-1.927720"><ele>340</ele><time>2021-10-01T11:31:58Z</time><name>PT3036</name></trkpt>
<trkpt lat="53.364113" lon="-1.927693"><ele>340</ele><time>2021-10-01T11:32:01Z</time><name>PT3037</name></trkpt>
<trkpt lat="53.364150" lon="-1.927673"><ele>340</ele><time>2021-10-01T11:32:04Z</time><name>PT3038</name></trkpt>
<trkpt lat="53.364193" lon="-1.927642"><ele>340</ele><time>2021-10-01T11:32:08Z</time><name>PT3039</name></trkpt>
<trkpt lat="53.364227" lon="-1.927628"><ele>340</ele><time>2021-10-01T11:32:11Z</time><name>PT3040</name></trkpt>
<trkpt lat="53.364270" lon="-1.927611"><ele>339</ele><time>2021-10-01T11:32:15Z</time><name>PT3041</name></trkpt>
<trkpt lat="53.364303" lon="-1.927593"><ele>340</ele><time>2021-10-01T11:32:18Z</time><name>PT3042</name></trkpt>
<trkpt lat="53.364336" lon="-1.927584"><ele>339</ele><time>2021-10-01T11:32:21Z</time><name>PT3043</name></trkpt>
<trkpt lat="53.364371" lon="-1.927567"><ele>340</ele><time>2021-10-01T11:32:24Z</time><name>PT3044</name></trkpt>
<trkpt lat="53.364424" lon="-1.927547"><ele>340</ele><time>2021-10-01T11:32:28Z</time><name>PT3045</name></trkpt>
<trkpt lat="53.364456" lon="-1.927525"><ele>339</ele><time>2021-10-01T11:32:31Z</time><name>PT3046</name></trkpt>
<trkpt lat="53.364493" lon="-1.927502"><ele>340</ele><time>2021-10-01T11:32:34Z</time><name>PT3047</name></trkpt>
<trkpt lat="53.364543" lon="-1.927475"><ele>340</ele><time>2021-10-01T11:32:38Z</time><name>PT3048</name></trkpt>
<trkpt lat="53.364580" lon="-1.927463"><ele>341</ele><time>2021-10-01T11:32:41Z</time><name>PT3049</name></trkpt>
<trkpt lat="53.364613" lon="-1.927450"><ele>341</ele><time>2021-10-01T11:32:44Z</time><name>PT3050</name></trkpt>
<trkpt lat="53.364642" lon="-1.927415"><ele>341</ele><time>2021-10-01T11:32:47Z</time><name>PT3051</name></trkpt>
<trkpt lat="53.364667" lon="-1.927386"><ele>341</ele><time>2021-10-01T11:32:50Z</time><name>PT3052</name></trkpt>
<trkpt lat="53.364704" lon="-1.927342"><ele>341</ele><time>2021-10-01T11:32:54Z</time><name>PT3053</name></trkpt>
<trkpt lat="53.364743" lon="-1.927299"><ele>342</ele><time>2021-10-01T11:32:58Z</time><name>PT3054</name></trkpt>
<trkpt lat="53.364779" lon="-1.927262"><ele>342</ele><time>2021-10-01T11:33:02Z</time><name>PT3055</name></trkpt>
<trkpt lat="53.364807" lon="-1.927226"><ele>342</ele><time>2021-10-01T11:33:05Z</time><name>PT3056</name></trkpt>
<trkpt lat="53.364829" lon="-1.927187"><ele>343</ele><time>2021-10-01T11:33:08Z</time><name>PT3057</name></trkpt>
<trkpt lat="53.364864" lon="-1.927136"><ele>344</ele><time>2021-10-01T11:33:12Z</time><name>PT3058</name></trkpt>
<trkpt lat="53.364894" lon="-1.927078"><ele>344</ele><time>2021-10-01T11:33:16Z</time><name>PT3059</name></trkpt>
<trkpt lat="53.364915" lon="-1.927036"><ele>343</ele><time>2021-10-01T11:33:19Z</time><name>PT3060</name></trkpt>
<trkpt lat="53.364946" lon="-1.926979"><ele>344</ele><time>2021-10-01T11:33:23Z</time><name>PT3061</name></trkpt>
<trkpt lat="53.364963" lon="-1.926941"><ele>343</ele><time>2021-10-01T11:33:26Z</time><name>PT3062</name></trkpt>
<trkpt lat="53.364981" lon="-1.926903"><ele>344</ele><time>2021-10-01T11:33:29Z</time><name>PT3063</name></trkpt>
<trkpt lat="53.365000" lon="-1.926865"><ele>345</ele><time>2021-10-01T11:33:32Z</time><name>PT3064</name></trkpt>
<trkpt lat="53.365014" lon="-1.926827"><ele>345</ele><time>2021-10-01T11:33:35Z</time><name>PT3065</name></trkpt>
<trkpt lat="53.365032" lon="-1.926777"><ele>344</ele><time>2021-10-01T11:33:39Z</time><name>PT3066</name></trkpt>
<trkpt lat="53.365043" lon="-1.926731"><ele>344</ele><time>2021-10-01T11:33:42Z</time><name>PT3067</name></trkpt>
<trkpt lat="53.365059" lon="-1.926655"><ele>345</ele><time>2021-10-01T11:33:46Z</time><name>PT3068</name></trkpt>
<trkpt lat="53.365072" lon="-1.926592"><ele>345</ele><time>2021-10-01T11:33:50Z</time><name>PT3069</name></trkpt>
<trkpt lat="53.365089" lon="-1.926522"><ele>346</ele><time>2021-10-01T11:33:54Z</time><name>PT3070</name></trkpt>
<trkpt lat="53.365097" lon="-1.926459"><ele>347</ele><time>2021-10-01T11:33:57Z</time><name>PT3071</name></trkpt>
<trkpt lat="53.365105" lon="-1.926404"><ele>348</ele><time>2021-10-01T11:34:00Z</time><name>PT3072</name></trkpt>
<trkpt lat="53.365110" lon="-1.926331"><ele>349</ele><time>2021-10-01T11:34:04Z</time><name>PT3073</name></trkpt>
<trkpt lat="53.365107" lon="-1.926277"><ele>350</ele><time>2021-10-01T11:34:07Z</time><name>PT3074</name></trkpt>
<trkpt lat="53.365098" lon="-1.926225"><ele>351</ele><time>2021-10-01T11:34:10Z</time><name>PT3075</name></trkpt>
<trkpt lat="53.365068" lon="-1.926174"><ele>353</ele><time>2021-10-01T11:34:14Z</time><name>PT3076</name></trkpt>
<trkpt lat="53.365061" lon="-1.926154"><ele>353</ele><time>2021-10-01T11:34:17Z</time><name>PT3077</name></trkpt>
<trkpt lat="53.365061" lon="-1.926148"><ele>353</ele><time>2021-10-01T11:34:20Z</time><name>PT3078</name></trkpt>
<trkpt lat="53.365040" lon="-1.926133"><ele>354</ele><time>2021-10-01T11:34:26Z</time><name>PT3079</name></trkpt>
<trkpt lat="53.365017" lon="-1.926116"><ele>354</ele><time>2021-10-01T11:34:29Z</time><name>PT3080</name></trkpt>
<trkpt lat="53.364976" lon="-1.926095"><ele>354</ele><time>2021-10-01T11:34:33Z</time><name>PT3081</name></trkpt>
<trkpt lat="53.364947" lon="-1.926078"><ele>355</ele><time>2021-10-01T11:34:36Z</time><name>PT3082</name></trkpt>
<trkpt lat="53.364920" lon="-1.926065"><ele>356</ele><time>2021-10-01T11:34:40Z</time><name>PT3083</name></trkpt>
<trkpt lat="53.364880" lon="-1.926035"><ele>357</ele><time>2021-10-01T11:34:44Z</time><name>PT3084</name></trkpt>
<trkpt lat="53.364842" lon="-1.926002"><ele>358</ele><time>2021-10-01T11:34:48Z</time><name>PT3085</name></trkpt>
<trkpt lat="53.364815" lon="-1.925973"><ele>359</ele><time>2021-10-01T11:34:51Z</time><name>PT3086</name></trkpt>
<trkpt lat="53.364777" lon="-1.925947"><ele>359</ele><time>2021-10-01T11:34:55Z</time><name>PT3087</name></trkpt>
<trkpt lat="53.364750" lon="-1.925924"><ele>359</ele><time>2021-10-01T11:34:58Z</time><name>PT3088</name></trkpt>
<trkpt lat="53.364718" lon="-1.925905"><ele>360</ele><time>2021-10-01T11:35:01Z</time><name>PT3089</name></trkpt>
<trkpt lat="53.364684" lon="-1.925885"><ele>361</ele><time>2021-10-01T11:35:05Z</time><name>PT3090</name></trkpt>
<trkpt lat="53.364659" lon="-1.925864"><ele>361</ele><time>2021-10-01T11:35:08Z</time><name>PT3091</name></trkpt>
<trkpt lat="53.364632" lon="-1.925840"><ele>362</ele><time>2021-10-01T11:35:11Z</time><name>PT3092</name></trkpt>
<trkpt lat="53.364603" lon="-1.925828"><ele>363</ele><time>2021-10-01T11:35:14Z</time><name>PT3093</name></trkpt>
<trkpt lat="53.364567" lon="-1.925799"><ele>364</ele><time>2021-10-01T11:35:18Z</time><name>PT3094</name></trkpt>
<trkpt lat="53.364535" lon="-1.925776"><ele>365</ele><time>2021-10-01T11:35:21Z</time><name>PT3095</name></trkpt>
<trkpt lat="53.364494" lon="-1.925761"><ele>366</ele><time>2021-10-01T11:35:25Z</time><name>PT3096</name></trkpt>
<trkpt lat="53.364466" lon="-1.925747"><ele>365</ele><time>2021-10-01T11:35:28Z</time><name>PT3097</name></trkpt>
<trkpt lat="53.364428" lon="-1.925709"><ele>366</ele><time>2021-10-01T11:35:32Z</time><name>PT3098</name></trkpt>
<trkpt lat="53.364396" lon="-1.925693"><ele>367</ele><time>2021-10-01T11:35:35Z</time><name>PT3099</name></trkpt>
<trkpt lat="53.364357" lon="-1.925669"><ele>367</ele><time>2021-10-01T11:35:39Z</time><name>PT3100</name></trkpt>
<trkpt lat="53.364318" lon="-1.925642"><ele>368</ele><time>2021-10-01T11:35:43Z</time><name>PT3101</name></trkpt>
<trkpt lat="53.364278" lon="-1.925609"><ele>367</ele><time>2021-10-01T11:35:47Z</time><name>PT3102</name></trkpt>
<trkpt lat="53.364246" lon="-1.925587"><ele>368</ele><time>2021-10-01T11:35:50Z</time><name>PT3103</name></trkpt>
<trkpt lat="53.364214" lon="-1.925572"><ele>368</ele><time>2021-10-01T11:35:53Z</time><name>PT3104</name></trkpt>
<trkpt lat="53.364174" lon="-1.925539"><ele>369</ele><time>2021-10-01T11:35:57Z</time><name>PT3105</name></trkpt>
<trkpt lat="53.364143" lon="-1.925528"><ele>369</ele><time>2021-10-01T11:36:00Z</time><name>PT3106</name></trkpt>
<trkpt lat="53.364115" lon="-1.925509"><ele>370</ele><time>2021-10-01T11:36:03Z</time><name>PT3107</name></trkpt>
<trkpt lat="53.364088" lon="-1.925490"><ele>370</ele><time>2021-10-01T11:36:06Z</time><name>PT3108</name></trkpt>
<trkpt lat="53.364050" lon="-1.925457"><ele>371</ele><time>2021-10-01T11:36:10Z</time><name>PT3109</name></trkpt>
<trkpt lat="53.364018" lon="-1.925435"><ele>371</ele><time>2021-10-01T11:36:13Z</time><name>PT3110</name></trkpt>
<trkpt lat="53.363978" lon="-1.925395"><ele>370</ele><time>2021-10-01T11:36:17Z</time><name>PT3111</name></trkpt>
<trkpt lat="53.363936" lon="-1.925364"><ele>371</ele><time>2021-10-01T11:36:21Z</time><name>PT3112</name></trkpt>
<trkpt lat="53.363893" lon="-1.925337"><ele>371</ele><time>2021-10-01T11:36:25Z</time><name>PT3113</name></trkpt>
<trkpt lat="53.363863" lon="-1.925312"><ele>370</ele><time>2021-10-01T11:36:28Z</time><name>PT3114</name></trkpt>
<trkpt lat="53.363825" lon="-1.925281"><ele>372</ele><time>2021-10-01T11:36:32Z</time><name>PT3115</name></trkpt>
<trkpt lat="53.363786" lon="-1.925256"><ele>372</ele><time>2021-10-01T11:36:36Z</time><name>PT3116</name></trkpt>
<trkpt lat="53.363757" lon="-1.925234"><ele>372</ele><time>2021-10-01T11:36:39Z</time><name>PT3117</name></trkpt>
<trkpt lat="53.363725" lon="-1.925210"><ele>372</ele><time>2021-10-01T11:36:42Z</time><name>PT3118</name></trkpt>
<trkpt lat="53.363687" lon="-1.925177"><ele>372</ele><time>2021-10-01T11:36:46Z</time><name>PT3119</name></trkpt>
<trkpt lat="53.363657" lon="-1.925151"><ele>372</ele><time>2021-10-01T11:36:50Z</time><name>PT3120</name></trkpt>
<trkpt lat="53.363629" lon="-1.925140"><ele>372</ele><time>2021-10-01T11:36:53Z</time><name>PT3121</name></trkpt>
<trkpt lat="53.363595" lon="-1.925112"><ele>372</ele><time>2021-10-01T11:36:57Z</time><name>PT3122</name></trkpt>
<trkpt lat="53.363566" lon="-1.925088"><ele>374</ele><time>2021-10-01T11:37:00Z</time><name>PT3123</name></trkpt>
<trkpt lat="53.363535" lon="-1.925065"><ele>375</ele><time>2021-10-01T11:37:03Z</time><name>PT3124</name></trkpt>
<trkpt lat="53.363500" lon="-1.925041"><ele>375</ele><time>2021-10-01T11:37:07Z</time><name>PT3125</name></trkpt>
<trkpt lat="53.363468" lon="-1.925024"><ele>375</ele><time>2021-10-01T11:37:10Z</time><name>PT3126</name></trkpt>
<trkpt lat="53.363435" lon="-1.924996"><ele>376</ele><time>2021-10-01T11:37:14Z</time><name>PT3127</name></trkpt>
<trkpt lat="53.363395" lon="-1.924965"><ele>378</ele><time>2021-10-01T11:37:18Z</time><name>PT3128</name></trkpt>
<trkpt lat="53.363369" lon="-1.924944"><ele>378</ele><time>2021-10-01T11:37:21Z</time><name>PT3129</name></trkpt>
<trkpt lat="53.363324" lon="-1.924924"><ele>378</ele><time>2021-10-01T11:37:25Z</time><name>PT3130</name></trkpt>
<trkpt lat="53.363287" lon="-1.924896"><ele>379</ele><time>2021-10-01T11:37:29Z</time><name>PT3131</name></trkpt>
<trkpt lat="53.363257" lon="-1.924881"><ele>378</ele><time>2021-10-01T11:37:32Z</time><name>PT3132</name></trkpt>
<trkpt lat="53.363227" lon="-1.924867"><ele>379</ele><time>2021-10-01T11:37:35Z</time><name>PT3133</name></trkpt>
<trkpt lat="53.363183" lon="-1.924841"><ele>380</ele><time>2021-10-01T11:37:39Z</time><name>PT3134</name></trkpt>
<trkpt lat="53.363156" lon="-1.924821"><ele>379</ele><time>2021-10-01T11:37:42Z</time><name>PT3135</name></trkpt>
<trkpt lat="53.363122" lon="-1.924806"><ele>381</ele><time>2021-10-01T11:37:45Z</time><name>PT3136</name></trkpt>
<trkpt lat="53.363076" lon="-1.924781"><ele>381</ele><time>2021-10-01T11:37:49Z</time><name>PT3137</name></trkpt>
<trkpt lat="53.363032" lon="-1.924752"><ele>381</ele><time>2021-10-01T11:37:53Z</time><name>PT3138</name></trkpt>
<trkpt lat="53.362998" lon="-1.924729"><ele>380</ele><time>2021-10-01T11:37:56Z</time><name>PT3139</name></trkpt>
<trkpt lat="53.362964" lon="-1.924707"><ele>380</ele><time>2021-10-01T11:37:59Z</time><name>PT3140</name></trkpt>
<trkpt lat="53.362926" lon="-1.924683"><ele>380</ele><time>2021-10-01T11:38:03Z</time><name>PT3141</name></trkpt>
<trkpt lat="53.362888" lon="-1.924662"><ele>380</ele><time>2021-10-01T11:38:07Z</time><name>PT3142</name></trkpt>
<trkpt lat="53.362861" lon="-1.924634"><ele>381</ele><time>2021-10-01T11:38:10Z</time><name>PT3143</name></trkpt>
<trkpt lat="53.362820" lon="-1.924607"><ele>381</ele><time>2021-10-01T11:38:14Z</time><name>PT3144</name></trkpt>
<trkpt lat="53.362780" lon="-1.924587"><ele>381</ele><time>2021-10-01T11:38:18Z</time><name>PT3145</name></trkpt>
<trkpt lat="53.362744" lon="-1.924553"><ele>381</ele><time>2021-10-01T11:38:22Z</time><name>PT3146</name></trkpt>
<trkpt lat="53.362705" lon="-1.924533"><ele>381</ele><time>2021-10-01T11:38:26Z</time><name>PT3147</name></trkpt>
<trkpt lat="53.362664" lon="-1.924508"><ele>382</ele><time>2021-10-01T11:38:30Z</time><name>PT3148</name></trkpt>
<trkpt lat="53.362628" lon="-1.924492"><ele>382</ele><time>2021-10-01T11:38:34Z</time><name>PT3149</name></trkpt>
<trkpt lat="53.362589" lon="-1.924468"><ele>384</ele><time>2021-10-01T11:38:38Z</time><name>PT3150</name></trkpt>
<trkpt lat="53.362551" lon="-1.924430"><ele>384</ele><time>2021-10-01T11:38:42Z</time><name>PT3151</name></trkpt>
<trkpt lat="53.362521" lon="-1.924411"><ele>385</ele><time>2021-10-01T11:38:45Z</time><name>PT3152</name></trkpt>
<trkpt lat="53.362488" lon="-1.924397"><ele>385</ele><time>2021-10-01T11:38:48Z</time><name>PT3153</name></trkpt>
<trkpt lat="53.362446" lon="-1.924375"><ele>385</ele><time>2021-10-01T11:38:52Z</time><name>PT3154</name></trkpt>
<trkpt lat="53.362411" lon="-1.924354"><ele>385</ele><time>2021-10-01T11:38:55Z</time><name>PT3155</name></trkpt>
<trkpt lat="53.362378" lon="-1.924332"><ele>386</ele><time>2021-10-01T11:38:58Z</time><name>PT3156</name></trkpt>
<trkpt lat="53.362339" lon="-1.924300"><ele>386</ele><time>2021-10-01T11:39:02Z</time><name>PT3157</name></trkpt>
<trkpt lat="53.362293" lon="-1.924279"><ele>388</ele><time>2021-10-01T11:39:06Z</time><name>PT3158</name></trkpt>
<trkpt lat="53.362262" lon="-1.924264"><ele>387</ele><time>2021-10-01T11:39:09Z</time><name>PT3159</name></trkpt>
<trkpt lat="53.362220" lon="-1.924231"><ele>387</ele><time>2021-10-01T11:39:13Z</time><name>PT3160</name></trkpt>
<trkpt lat="53.362170" lon="-1.924201"><ele>387</ele><time>2021-10-01T11:39:17Z</time><name>PT3161</name></trkpt>
<trkpt lat="53.362128" lon="-1.924187"><ele>387</ele><time>2021-10-01T11:39:21Z</time><name>PT3162</name></trkpt>
<trkpt lat="53.362091" lon="-1.924161"><ele>386</ele><time>2021-10-01T11:39:25Z</time><name>PT3163</name></trkpt>
<trkpt lat="53.362057" lon="-1.924138"><ele>386</ele><time>2021-10-01T11:39:28Z</time><name>PT3164</name></trkpt>
<trkpt lat="53.362027" lon="-1.924122"><ele>386</ele><time>2021-10-01T11:39:31Z</time><name>PT3165</name></trkpt>
<trkpt lat="53.361987" lon="-1.924092"><ele>387</ele><time>2021-10-01T11:39:35Z</time><name>PT3166</name></trkpt>
<trkpt lat="53.361954" lon="-1.924078"><ele>388</ele><time>2021-10-01T11:39:38Z</time><name>PT3167</name></trkpt>
<trkpt lat="53.361922" lon="-1.924064"><ele>389</ele><time>2021-10-01T11:39:41Z</time><name>PT3168</name></trkpt>
<trkpt lat="53.361894" lon="-1.924046"><ele>388</ele><time>2021-10-01T11:39:44Z</time><name>PT3169</name></trkpt>
<trkpt lat="53.361856" lon="-1.924024"><ele>389</ele><time>2021-10-01T11:39:48Z</time><name>PT3170</name></trkpt>
<trkpt lat="53.361826" lon="-1.924007"><ele>389</ele><time>2021-10-01T11:39:51Z</time><name>PT3171</name></trkpt>
<trkpt lat="53.361789" lon="-1.923979"><ele>389</ele><time>2021-10-01T11:39:55Z</time><name>PT3172</name></trkpt>
<trkpt lat="53.361755" lon="-1.923962"><ele>388</ele><time>2021-10-01T11:39:58Z</time><name>PT3173</name></trkpt>
<trkpt lat="53.361721" lon="-1.923938"><ele>389</ele><time>2021-10-01T11:40:01Z</time><name>PT3174</name></trkpt>
<trkpt lat="53.361680" lon="-1.923918"><ele>390</ele><time>2021-10-01T11:40:05Z</time><name>PT3175</name></trkpt>
<trkpt lat="53.361632" lon="-1.923888"><ele>389</ele><time>2021-10-01T11:40:09Z</time><name>PT3176</name></trkpt>
<trkpt lat="53.361602" lon="-1.923860"><ele>389</ele><time>2021-10-01T11:40:12Z</time><name>PT3177</name></trkpt>
<trkpt lat="53.361570" lon="-1.923838"><ele>390</ele><time>2021-10-01T11:40:15Z</time><name>PT3178</name></trkpt>
<trkpt lat="53.361538" lon="-1.923816"><ele>390</ele><time>2021-10-01T11:40:18Z</time><name>PT3179</name></trkpt>
<trkpt lat="53.361520" lon="-1.923794"><ele>388</ele><time>2021-10-01T11:40:22Z</time><name>PT3180</name></trkpt>
<trkpt lat="53.361515" lon="-1.923799"><ele>389</ele><time>2021-10-01T11:40:25Z</time><name>PT3181</name></trkpt>
<trkpt lat="53.361510" lon="-1.923799"><ele>389</ele><time>2021-10-01T11:40:48Z</time><name>PT3182</name></trkpt>
<trkpt lat="53.361497" lon="-1.923791"><ele>389</ele><time>2021-10-01T11:40:51Z</time><name>PT3183</name></trkpt>
<trkpt lat="53.361494" lon="-1.923790"><ele>389</ele><time>2021-10-01T11:40:54Z</time><name>PT3184</name></trkpt>
<trkpt lat="53.361484" lon="-1.923763"><ele>390</ele><time>2021-10-01T11:40:58Z</time><name>PT3185</name></trkpt>
<trkpt lat="53.361472" lon="-1.923744"><ele>390</ele><time>2021-10-01T11:41:01Z</time><name>PT3186</name></trkpt>
<trkpt lat="53.361468" lon="-1.923737"><ele>390</ele><time>2021-10-01T11:41:05Z</time><name>PT3187</name></trkpt>
<trkpt lat="53.361468" lon="-1.923736"><ele>390</ele><time>2021-10-01T11:41:08Z</time><name>PT3188</name></trkpt>
<trkpt lat="53.361463" lon="-1.923715"><ele>390</ele><time>2021-10-01T11:41:12Z</time><name>PT3189</name></trkpt>
<trkpt lat="53.361451" lon="-1.923671"><ele>390</ele><time>2021-10-01T11:41:15Z</time><name>PT3190</name></trkpt>
<trkpt lat="53.361437" lon="-1.923633"><ele>389</ele><time>2021-10-01T11:41:18Z</time><name>PT3191</name></trkpt>
<trkpt lat="53.361425" lon="-1.923597"><ele>390</ele><time>2021-10-01T11:41:21Z</time><name>PT3192</name></trkpt>
<trkpt lat="53.361402" lon="-1.923553"><ele>390</ele><time>2021-10-01T11:41:25Z</time><name>PT3193</name></trkpt>
<trkpt lat="53.361389" lon="-1.923497"><ele>391</ele><time>2021-10-01T11:41:29Z</time><name>PT3194</name></trkpt>
<trkpt lat="53.361370" lon="-1.923459"><ele>393</ele><time>2021-10-01T11:41:32Z</time><name>PT3195</name></trkpt>
<trkpt lat="53.361343" lon="-1.923400"><ele>394</ele><time>2021-10-01T11:41:36Z</time><name>PT3196</name></trkpt>
<trkpt lat="53.361330" lon="-1.923351"><ele>394</ele><time>2021-10-01T11:41:39Z</time><name>PT3197</name></trkpt>
<trkpt lat="53.361309" lon="-1.923287"><ele>394</ele><time>2021-10-01T11:41:43Z</time><name>PT3198</name></trkpt>
<trkpt lat="53.361290" lon="-1.923241"><ele>394</ele><time>2021-10-01T11:41:46Z</time><name>PT3199</name></trkpt>
<trkpt lat="53.361272" lon="-1.923173"><ele>394</ele><time>2021-10-01T11:41:50Z</time><name>PT3200</name></trkpt>
<trkpt lat="53.361260" lon="-1.923125"><ele>395</ele><time>2021-10-01T11:41:53Z</time><name>PT3201</name></trkpt>
<trkpt lat="53.361244" lon="-1.923065"><ele>396</ele><time>2021-10-01T11:41:57Z</time><name>PT3202</name></trkpt>
<trkpt lat="53.361234" lon="-1.923003"><ele>396</ele><time>2021-10-01T11:42:01Z</time><name>PT3203</name></trkpt>
<trkpt lat="53.361220" lon="-1.922965"><ele>396</ele><time>2021-10-01T11:42:04Z</time><name>PT3204</name></trkpt>
<trkpt lat="53.361215" lon="-1.922918"><ele>396</ele><time>2021-10-01T11:42:07Z</time><name>PT3205</name></trkpt>
<trkpt lat="53.361204" lon="-1.922881"><ele>396</ele><time>2021-10-01T11:42:11Z</time><name>PT3206</name></trkpt>
<trkpt lat="53.361202" lon="-1.922889"><ele>397</ele><time>2021-10-01T11:42:14Z</time><name>PT3207</name></trkpt>
<trkpt lat="53.361198" lon="-1.922856"><ele>397</ele><time>2021-10-01T11:42:18Z</time><name>PT3208</name></trkpt>
<trkpt lat="53.361189" lon="-1.922838"><ele>397</ele><time>2021-10-01T11:42:21Z</time><name>PT3209</name></trkpt>
<trkpt lat="53.361179" lon="-1.922806"><ele>397</ele><time>2021-10-01T11:42:24Z</time><name>PT3210</name></trkpt>
<trkpt lat="53.361184" lon="-1.922759"><ele>397</ele><time>2021-10-01T11:42:28Z</time><name>PT3211</name></trkpt>
<trkpt lat="53.361188" lon="-1.922745"><ele>397</ele><time>2021-10-01T11:42:32Z</time><name>PT3212</name></trkpt>
<trkpt lat="53.361186" lon="-1.922742"><ele>397</ele><time>2021-10-01T11:42:35Z</time><name>PT3213</name></trkpt>
<trkpt lat="53.361185" lon="-1.922740"><ele>397</ele><time>2021-10-01T11:42:46Z</time><name>PT3214</name></trkpt>
<trkpt lat="53.361167" lon="-1.922694"><ele>397</ele><time>2021-10-01T11:42:49Z</time><name>PT3215</name></trkpt>
<trkpt lat="53.361155" lon="-1.922659"><ele>397</ele><time>2021-10-01T11:42:52Z</time><name>PT3216</name></trkpt>
<trkpt lat="53.361141" lon="-1.922614"><ele>398</ele><time>2021-10-01T11:42:55Z</time><name>PT3217</name></trkpt>
<trkpt lat="53.361133" lon="-1.922561"><ele>399</ele><time>2021-10-01T11:42:59Z</time><name>PT3218</name></trkpt>
<trkpt lat="53.361104" lon="-1.922498"><ele>400</ele><time>2021-10-01T11:43:03Z</time><name>PT3219</name></trkpt>
<trkpt lat="53.361077" lon="-1.922475"><ele>400</ele><time>2021-10-01T11:43:06Z</time><name>PT3220</name></trkpt>
<trkpt lat="53.361042" lon="-1.922449"><ele>400</ele><time>2021-10-01T11:43:10Z</time><name>PT3221</name></trkpt>
<trkpt lat="53.361008" lon="-1.922417"><ele>400</ele><time>2021-10-01T11:43:14Z</time><name>PT3222</name></trkpt>
<trkpt lat="53.360973" lon="-1.922361"><ele>401</ele><time>2021-10-01T11:43:18Z</time><name>PT3223</name></trkpt>
<trkpt lat="53.360942" lon="-1.922313"><ele>402</ele><time>2021-10-01T11:43:22Z</time><name>PT3224</name></trkpt>
<trkpt lat="53.360924" lon="-1.922303"><ele>402</ele><time>2021-10-01T11:43:26Z</time><name>PT3225</name></trkpt>
<trkpt lat="53.360924" lon="-1.922304"><ele>402</ele><time>2021-10-01T11:43:30Z</time><name>PT3226</name></trkpt>
<trkpt lat="53.360912" lon="-1.922258"><ele>403</ele><time>2021-10-01T11:43:33Z</time><name>PT3227</name></trkpt>
<trkpt lat="53.360874" lon="-1.922201"><ele>402</ele><time>2021-10-01T11:43:37Z</time><name>PT3228</name></trkpt>
<trkpt lat="53.360849" lon="-1.922139"><ele>403</ele><time>2021-10-01T11:43:41Z</time><name>PT3229</name></trkpt>
<trkpt lat="53.360830" lon="-1.922101"><ele>402</ele><time>2021-10-01T11:43:44Z</time><name>PT3230</name></trkpt>
<trkpt lat="53.360824" lon="-1.922056"><ele>402</ele><time>2021-10-01T11:43:48Z</time><name>PT3231</name></trkpt>
<trkpt lat="53.360839" lon="-1.922035"><ele>403</ele><time>2021-10-01T11:43:51Z</time><name>PT3232</name></trkpt>
<trkpt lat="53.360846" lon="-1.922007"><ele>404</ele><time>2021-10-01T11:43:55Z</time><name>PT3233</name></trkpt>
<trkpt lat="53.360845" lon="-1.921969"><ele>405</ele><time>2021-10-01T11:43:59Z</time><name>PT3234</name></trkpt>
<trkpt lat="53.360839" lon="-1.921935"><ele>405</ele><time>2021-10-01T11:44:02Z</time><name>PT3235</name></trkpt>
<trkpt lat="53.360837" lon="-1.921903"><ele>406</ele><time>2021-10-01T11:44:06Z</time><name>PT3236</name></trkpt>
<trkpt lat="53.360843" lon="-1.921873"><ele>406</ele><time>2021-10-01T11:44:09Z</time><name>PT3237</name></trkpt>
<trkpt lat="53.360844" lon="-1.921846"><ele>407</ele><time>2021-10-01T11:44:12Z</time><name>PT3238</name></trkpt>
<trkpt lat="53.360845" lon="-1.921842"><ele>407</ele><time>2021-10-01T11:44:15Z</time><name>PT3239</name></trkpt>
<trkpt lat="53.360858" lon="-1.921788"><ele>408</ele><time>2021-10-01T11:44:23Z</time><name>PT3240</name></trkpt>
<trkpt lat="53.360868" lon="-1.921753"><ele>408</ele><time>2021-10-01T11:44:26Z</time><name>PT3241</name></trkpt>
<trkpt lat="53.360880" lon="-1.921731"><ele>409</ele><time>2021-10-01T11:44:29Z</time><name>PT3242</name></trkpt>
<trkpt lat="53.360892" lon="-1.921691"><ele>409</ele><time>2021-10-01T11:44:33Z</time><name>PT3243</name></trkpt>
<trkpt lat="53.360903" lon="-1.921643"><ele>409</ele><time>2021-10-01T11:44:37Z</time><name>PT3244</name></trkpt>
<trkpt lat="53.360911" lon="-1.921600"><ele>410</ele><time>2021-10-01T11:44:41Z</time><name>PT3245</name></trkpt>
<trkpt lat="53.360918" lon="-1.921562"><ele>410</ele><time>2021-10-01T11:44:44Z</time><name>PT3246</name></trkpt>
<trkpt lat="53.360925" lon="-1.921518"><ele>410</ele><time>2021-10-01T11:44:48Z</time><name>PT3247</name></trkpt>
<trkpt lat="53.360934" lon="-1.921472"><ele>412</ele><time>2021-10-01T11:44:52Z</time><name>PT3248</name></trkpt>
<trkpt lat="53.360942" lon="-1.921439"><ele>412</ele><time>2021-10-01T11:44:56Z</time><name>PT3249</name></trkpt>
<trkpt lat="53.360949" lon="-1.921391"><ele>413</ele><time>2021-10-01T11:44:59Z</time><name>PT3250</name></trkpt>
<trkpt lat="53.360955" lon="-1.921358"><ele>413</ele><time>2021-10-01T11:45:02Z</time><name>PT3251</name></trkpt>
<trkpt lat="53.360968" lon="-1.921296"><ele>413</ele><time>2021-10-01T11:45:06Z</time><name>PT3252</name></trkpt>
<trkpt lat="53.360971" lon="-1.921240"><ele>414</ele><time>2021-10-01T11:45:10Z</time><name>PT3253</name></trkpt>
<trkpt lat="53.360976" lon="-1.921198"><ele>415</ele><time>2021-10-01T11:45:14Z</time><name>PT3254</name></trkpt>
<trkpt lat="53.360987" lon="-1.921151"><ele>415</ele><time>2021-10-01T11:45:18Z</time><name>PT3255</name></trkpt>
<trkpt lat="53.360993" lon="-1.921113"><ele>415</ele><time>2021-10-01T11:45:21Z</time><name>PT3256</name></trkpt>
<trkpt lat="53.360999" lon="-1.921079"><ele>416</ele><time>2021-10-01T11:45:24Z</time><name>PT3257</name></trkpt>
<trkpt lat="53.361005" lon="-1.921035"><ele>418</ele><time>2021-10-01T11:45:28Z</time><name>PT3258</name></trkpt>
<trkpt lat="53.361014" lon="-1.920998"><ele>418</ele><time>2021-10-01T11:45:31Z</time><name>PT3259</name></trkpt>
<trkpt lat="53.361026" lon="-1.920959"><ele>419</ele><time>2021-10-01T11:45:35Z</time><name>PT3260</name></trkpt>
<trkpt lat="53.361035" lon="-1.920928"><ele>420</ele><time>2021-10-01T11:45:38Z</time><name>PT3261</name></trkpt>
<trkpt lat="53.361046" lon="-1.920889"><ele>420</ele><time>2021-10-01T11:45:42Z</time><name>PT3262</name></trkpt>
<trkpt lat="53.361052" lon="-1.920862"><ele>421</ele><time>2021-10-01T11:45:45Z</time><name>PT3263</name></trkpt>
<trkpt lat="53.361060" lon="-1.920816"><ele>421</ele><time>2021-10-01T11:45:49Z</time><name>PT3264</name></trkpt>
<trkpt lat="53.361064" lon="-1.920788"><ele>422</ele><time>2021-10-01T11:45:52Z</time><name>PT3265</name></trkpt>
<trkpt lat="53.361074" lon="-1.920744"><ele>423</ele><time>2021-10-01T11:45:56Z</time><name>PT3266</name></trkpt>
<trkpt lat="53.361079" lon="-1.920713"><ele>424</ele><time>2021-10-01T11:45:59Z</time><name>PT3267</name></trkpt>
<trkpt lat="53.361084" lon="-1.920668"><ele>425</ele><time>2021-10-01T11:46:03Z</time><name>PT3268</name></trkpt>
<trkpt lat="53.361091" lon="-1.920636"><ele>425</ele><time>2021-10-01T11:46:07Z</time><name>PT3269</name></trkpt>
<trkpt lat="53.361095" lon="-1.920596"><ele>426</ele><time>2021-10-01T11:46:11Z</time><name>PT3270</name></trkpt>
<trkpt lat="53.361094" lon="-1.920560"><ele>426</ele><time>2021-10-01T11:46:15Z</time><name>PT3271</name></trkpt>
<trkpt lat="53.361093" lon="-1.920541"><ele>426</ele><time>2021-10-01T11:46:18Z</time><name>PT3272</name></trkpt>
<trkpt lat="53.361095" lon="-1.920511"><ele>427</ele><time>2021-10-01T11:46:22Z</time><name>PT3273</name></trkpt>
<trkpt lat="53.361099" lon="-1.920487"><ele>428</ele><time>2021-10-01T11:46:25Z</time><name>PT3274</name></trkpt>
<trkpt lat="53.361102" lon="-1.920458"><ele>428</ele><time>2021-10-01T11:46:28Z</time><name>PT3275</name></trkpt>
<trkpt lat="53.361108" lon="-1.920419"><ele>427</ele><time>2021-10-01T11:46:32Z</time><name>PT3276</name></trkpt>
<trkpt lat="53.361112" lon="-1.920394"><ele>428</ele><time>2021-10-01T11:46:35Z</time><name>PT3277</name></trkpt>
<trkpt lat="53.361114" lon="-1.920361"><ele>429</ele><time>2021-10-01T11:46:39Z</time><name>PT3278</name></trkpt>
<trkpt lat="53.361114" lon="-1.920352"><ele>429</ele><time>2021-10-01T11:46:40Z</time><name>PT3279</name></trkpt>
<trkpt lat="53.361116" lon="-1.920341"><ele>429</ele><time>2021-10-01T11:46:41Z</time><name>PT3280</name></trkpt>
<trkpt lat="53.361118" lon="-1.920335"><ele>429</ele><time>2021-10-01T11:46:42Z</time><name>PT3281</name></trkpt>
<trkpt lat="53.361120" lon="-1.920327"><ele>429</ele><time>2021-10-01T11:46:43Z</time><name>PT3282</name></trkpt>
<trkpt lat="53.361122" lon="-1.920316"><ele>430</ele><time>2021-10-01T11:46:44Z</time><name>PT3283</name></trkpt>
<trkpt lat="53.361124" lon="-1.920309"><ele>430</ele><time>2021-10-01T11:46:45Z</time><name>PT3284</name></trkpt>
<trkpt lat="53.361126" lon="-1.920303"><ele>431</ele><time>2021-10-01T11:46:46Z</time><name>PT3285</name></trkpt>
<trkpt lat="53.361128" lon="-1.920292"><ele>431</ele><time>2021-10-01T11:46:47Z</time><name>PT3286</name></trkpt>
<trkpt lat="53.361128" lon="-1.920284"><ele>431</ele><time>2021-10-01T11:46:48Z</time><name>PT3287</name></trkpt>
<trkpt lat="53.361128" lon="-1.920278"><ele>431</ele><time>2021-10-01T11:46:49Z</time><name>PT3288</name></trkpt>
<trkpt lat="53.361129" lon="-1.920270"><ele>431</ele><time>2021-10-01T11:46:50Z</time><name>PT3289</name></trkpt>
<trkpt lat="53.361130" lon="-1.920258"><ele>431</ele><time>2021-10-01T11:46:51Z</time><name>PT3290</name></trkpt>
<trkpt lat="53.361131" lon="-1.920248"><ele>431</ele><time>2021-10-01T11:46:52Z</time><name>PT3291</name></trkpt>
<trkpt lat="53.361132" lon="-1.920238"><ele>431</ele><time>2021-10-01T11:46:53Z</time><name>PT3292</name></trkpt>
<trkpt lat="53.361132" lon="-1.920231"><ele>431</ele><time>2021-10-01T11:46:54Z</time><name>PT3293</name></trkpt>
<trkpt lat="53.361133" lon="-1.920221"><ele>432</ele><time>2021-10-01T11:46:55Z</time><name>PT3294</name></trkpt>
<trkpt lat="53.361134" lon="-1.920209"><ele>432</ele><time>2021-10-01T11:46:56Z</time><name>PT3295</name></trkpt>
<trkpt lat="53.361134" lon="-1.920196"><ele>432</ele><time>2021-10-01T11:46:57Z</time><name>PT3296</name></trkpt>
<trkpt lat="53.361136" lon="-1.920186"><ele>432</ele><time>2021-10-01T11:46:58Z</time><name>PT3297</name></trkpt>
<trkpt lat="53.361136" lon="-1.920175"><ele>432</ele><time>2021-10-01T11:46:59Z</time><name>PT3298</name></trkpt>
<trkpt lat="53.361137" lon="-1.920165"><ele>432</ele><time>2021-10-01T11:47:00Z</time><name>PT3299</name></trkpt>
<trkpt lat="53.361137" lon="-1.920155"><ele>432</ele><time>2021-10-01T11:47:01Z</time><name>PT3300</name></trkpt>
<trkpt lat="53.361138" lon="-1.920140"><ele>432</ele><time>2021-10-01T11:47:02Z</time><name>PT3301</name></trkpt>
<trkpt lat="53.361139" lon="-1.920130"><ele>432</ele><time>2021-10-01T11:47:03Z</time><name>PT3302</name></trkpt>
<trkpt lat="53.361141" lon="-1.920119"><ele>432</ele><time>2021-10-01T11:47:04Z</time><name>PT3303</name></trkpt>
<trkpt lat="53.361140" lon="-1.920107"><ele>432</ele><time>2021-10-01T11:47:05Z</time><name>PT3304</name></trkpt>
<trkpt lat="53.361140" lon="-1.920093"><ele>432</ele><time>2021-10-01T11:47:06Z</time><name>PT3305</name></trkpt>
<trkpt lat="53.361141" lon="-1.920082"><ele>433</ele><time>2021-10-01T11:47:07Z</time><name>PT3306</name></trkpt>
<trkpt lat="53.361142" lon="-1.920073"><ele>433</ele><time>2021-10-01T11:47:08Z</time><name>PT3307</name></trkpt>
<trkpt lat="53.361142" lon="-1.920062"><ele>433</ele><time>2021-10-01T11:47:09Z</time><name>PT3308</name></trkpt>
<trkpt lat="53.361143" lon="-1.920056"><ele>433</ele><time>2021-10-01T11:47:10Z</time><name>PT3309</name></trkpt>
<trkpt lat="53.361144" lon="-1.920051"><ele>434</ele><time>2021-10-01T11:47:11Z</time><name>PT3310</name></trkpt>
<trkpt lat="53.361146" lon="-1.920043"><ele>434</ele><time>2021-10-01T11:47:12Z</time><name>PT3311</name></trkpt>
<trkpt lat="53.361147" lon="-1.920034"><ele>434</ele><time>2021-10-01T11:47:13Z</time><name>PT3312</name></trkpt>
<trkpt lat="53.361146" lon="-1.920025"><ele>435</ele><time>2021-10-01T11:47:14Z</time><name>PT3313</name></trkpt>
<trkpt lat="53.361147" lon="-1.920013"><ele>435</ele><time>2021-10-01T11:47:15Z</time><name>PT3314</name></trkpt>
<trkpt lat="53.361147" lon="-1.920003"><ele>436</ele><time>2021-10-01T11:47:16Z</time><name>PT3315</name></trkpt>
<trkpt lat="53.361148" lon="-1.919994"><ele>436</ele><time>2021-10-01T11:47:17Z</time><name>PT3316</name></trkpt>
<trkpt lat="53.361149" lon="-1.919984"><ele>436</ele><time>2021-10-01T11:47:18Z</time><name>PT3317</name></trkpt>
<trkpt lat="53.361150" lon="-1.919973"><ele>436</ele><time>2021-10-01T11:47:19Z</time><name>PT3318</name></trkpt>
<trkpt lat="53.361152" lon="-1.919968"><ele>436</ele><time>2021-10-01T11:47:20Z</time><name>PT3319</name></trkpt>
<trkpt lat="53.361152" lon="-1.919964"><ele>436</ele><time>2021-10-01T11:47:21Z</time><name>PT3320</name></trkpt>
<trkpt lat="53.361152" lon="-1.919958"><ele>436</ele><time>2021-10-01T11:47:22Z</time><name>PT3321</name></trkpt>
<trkpt lat="53.361160" lon="-1.919948"><ele>437</ele><time>2021-10-01T11:47:47Z</time><name>PT3322</name></trkpt>
<trkpt lat="53.361165" lon="-1.919933"><ele>437</ele><time>2021-10-01T11:47:48Z</time><name>PT3323</name></trkpt>
<trkpt lat="53.361167" lon="-1.919925"><ele>437</ele><time>2021-10-01T11:47:49Z</time><name>PT3324</name></trkpt>
<trkpt lat="53.361172" lon="-1.919911"><ele>436</ele><time>2021-10-01T11:47:50Z</time><name>PT3325</name></trkpt>
<trkpt lat="53.361177" lon="-1.919899"><ele>437</ele><time>2021-10-01T11:47:59Z</time><name>PT3326</name></trkpt>
<trkpt lat="53.361182" lon="-1.919886"><ele>437</ele><time>2021-10-01T11:48:00Z</time><name>PT3327</name></trkpt>
<trkpt lat="53.361185" lon="-1.919872"><ele>438</ele><time>2021-10-01T11:48:01Z</time><name>PT3328</name></trkpt>
<trkpt lat="53.361186" lon="-1.919857"><ele>438</ele><time>2021-10-01T11:48:02Z</time><name>PT3329</name></trkpt>
<trkpt lat="53.361189" lon="-1.919845"><ele>438</ele><time>2021-10-01T11:48:03Z</time><name>PT3330</name></trkpt>
<trkpt lat="53.361191" lon="-1.919836"><ele>438</ele><time>2021-10-01T11:48:04Z</time><name>PT3331</name></trkpt>
<trkpt lat="53.361195" lon="-1.919824"><ele>438</ele><time>2021-10-01T11:48:05Z</time><name>PT3332</name></trkpt>
<trkpt lat="53.361198" lon="-1.919816"><ele>438</ele><time>2021-10-01T11:48:06Z</time><name>PT3333</name></trkpt>
<trkpt lat="53.361201" lon="-1.919812"><ele>438</ele><time>2021-10-01T11:48:07Z</time><name>PT3334</name></trkpt>
<trkpt lat="53.361201" lon="-1.919808"><ele>438</ele><time>2021-10-01T11:48:08Z</time><name>PT3335</name></trkpt>
<trkpt lat="53.361201" lon="-1.919806"><ele>438</ele><time>2021-10-01T11:48:09Z</time><name>PT3336</name></trkpt>
<trkpt lat="53.361201" lon="-1.919805"><ele>438</ele><time>2021-10-01T11:48:10Z</time><name>PT3337</name></trkpt>
<trkpt lat="53.361202" lon="-1.919803"><ele>438</ele><time>2021-10-01T11:48:11Z</time><name>PT3338</name></trkpt>
<trkpt lat="53.361207" lon="-1.919799"><ele>438</ele><time>2021-10-01T11:48:17Z</time><name>PT3339</name></trkpt>
<trkpt lat="53.361209" lon="-1.919794"><ele>439</ele><time>2021-10-01T11:48:18Z</time><name>PT3340</name></trkpt>
<trkpt lat="53.361208" lon="-1.919792"><ele>439</ele><time>2021-10-01T11:48:19Z</time><name>PT3341</name></trkpt>
<trkpt lat="53.361208" lon="-1.919793"><ele>439</ele><time>2021-10-01T11:48:20Z</time><name>PT3342</name></trkpt>
<trkpt lat="53.361211" lon="-1.919790"><ele>439</ele><time>2021-10-01T11:48:21Z</time><name>PT3343</name></trkpt>
<trkpt lat="53.361215" lon="-1.919773"><ele>439</ele><time>2021-10-01T11:48:53Z</time><name>PT3344</name></trkpt>
<trkpt lat="53.361209" lon="-1.919748"><ele>439</ele><time>2021-10-01T11:48:57Z</time><name>PT3345</name></trkpt>
<trkpt lat="53.361203" lon="-1.919701"><ele>439</ele><time>2021-10-01T11:49:00Z</time><name>PT3346</name></trkpt>
<trkpt lat="53.361203" lon="-1.919642"><ele>440</ele><time>2021-10-01T11:49:03Z</time><name>PT3347</name></trkpt>
<trkpt lat="53.361200" lon="-1.919607"><ele>440</ele><time>2021-10-01T11:49:06Z</time><name>PT3348</name></trkpt>
<trkpt lat="53.361196" lon="-1.919555"><ele>440</ele><time>2021-10-01T11:49:10Z</time><name>PT3349</name></trkpt>
<trkpt lat="53.361197" lon="-1.919507"><ele>441</ele><time>2021-10-01T11:49:14Z</time><name>PT3350</name></trkpt>
<trkpt lat="53.361195" lon="-1.919461"><ele>441</ele><time>2021-10-01T11:49:17Z</time><name>PT3351</name></trkpt>
<trkpt lat="53.361195" lon="-1.919394"><ele>442</ele><time>2021-10-01T11:49:21Z</time><name>PT3352</name></trkpt>
<trkpt lat="53.361186" lon="-1.919346"><ele>442</ele><time>2021-10-01T11:49:25Z</time><name>PT3353</name></trkpt>
<trkpt lat="53.361184" lon="-1.919306"><ele>443</ele><time>2021-10-01T11:49:28Z</time><name>PT3354</name></trkpt>
<trkpt lat="53.361176" lon="-1.919260"><ele>443</ele><time>2021-10-01T11:49:32Z</time><name>PT3355</name></trkpt>
<trkpt lat="53.361173" lon="-1.919228"><ele>443</ele><time>2021-10-01T11:49:35Z</time><name>PT3356</name></trkpt>
<trkpt lat="53.361179" lon="-1.919192"><ele>443</ele><time>2021-10-01T11:49:39Z</time><name>PT3357</name></trkpt>
<trkpt lat="53.361179" lon="-1.919154"><ele>443</ele><time>2021-10-01T11:49:42Z</time><name>PT3358</name></trkpt>
<trkpt lat="53.361181" lon="-1.919121"><ele>444</ele><time>2021-10-01T11:49:45Z</time><name>PT3359</name></trkpt>
<trkpt lat="53.361178" lon="-1.919081"><ele>444</ele><time>2021-10-01T11:49:49Z</time><name>PT3360</name></trkpt>
<trkpt lat="53.361180" lon="-1.919047"><ele>444</ele><time>2021-10-01T11:49:52Z</time><name>PT3361</name></trkpt>
<trkpt lat="53.361181" lon="-1.919011"><ele>444</ele><time>2021-10-01T11:49:55Z</time><name>PT3362</name></trkpt>
<trkpt lat="53.361178" lon="-1.918985"><ele>445</ele><time>2021-10-01T11:49:58Z</time><name>PT3363</name></trkpt>
<trkpt lat="53.361180" lon="-1.918951"><ele>445</ele><time>2021-10-01T11:50:02Z</time><name>PT3364</name></trkpt>
<trkpt lat="53.361180" lon="-1.918924"><ele>446</ele><time>2021-10-01T11:50:05Z</time><name>PT3365</name></trkpt>
<trkpt lat="53.361179" lon="-1.918904"><ele>446</ele><time>2021-10-01T11:50:08Z</time><name>PT3366</name></trkpt>
<trkpt lat="53.361171" lon="-1.918860"><ele>447</ele><time>2021-10-01T11:50:14Z</time><name>PT3367</name></trkpt>
<trkpt lat="53.361170" lon="-1.918815"><ele>448</ele><time>2021-10-01T11:50:18Z</time><name>PT3368</name></trkpt>
<trkpt lat="53.361162" lon="-1.918766"><ele>450</ele><time>2021-10-01T11:50:28Z</time><name>PT3369</name></trkpt>
<trkpt lat="53.361154" lon="-1.918716"><ele>450</ele><time>2021-10-01T11:50:31Z</time><name>PT3370</name></trkpt>
<trkpt lat="53.361143" lon="-1.918679"><ele>450</ele><time>2021-10-01T11:50:34Z</time><name>PT3371</name></trkpt>
<trkpt lat="53.361137" lon="-1.918654"><ele>450</ele><time>2021-10-01T11:50:37Z</time><name>PT3372</name></trkpt>
<trkpt lat="53.361128" lon="-1.918626"><ele>451</ele><time>2021-10-01T11:50:40Z</time><name>PT3373</name></trkpt>
<trkpt lat="53.361113" lon="-1.918593"><ele>452</ele><time>2021-10-01T11:50:44Z</time><name>PT3374</name></trkpt>
<trkpt lat="53.361092" lon="-1.918571"><ele>453</ele><time>2021-10-01T11:50:47Z</time><name>PT3375</name></trkpt>
<trkpt lat="53.361072" lon="-1.918526"><ele>454</ele><time>2021-10-01T11:50:51Z</time><name>PT3376</name></trkpt>
<trkpt lat="53.361057" lon="-1.918482"><ele>454</ele><time>2021-10-01T11:50:55Z</time><name>PT3377</name></trkpt>
<trkpt lat="53.361049" lon="-1.918453"><ele>455</ele><time>2021-10-01T11:50:58Z</time><name>PT3378</name></trkpt>
<trkpt lat="53.361034" lon="-1.918422"><ele>455</ele><time>2021-10-01T11:51:01Z</time><name>PT3379</name></trkpt>
<trkpt lat="53.361023" lon="-1.918389"><ele>455</ele><time>2021-10-01T11:51:04Z</time><name>PT3380</name></trkpt>
<trkpt lat="53.361010" lon="-1.918348"><ele>455</ele><time>2021-10-01T11:51:08Z</time><name>PT3381</name></trkpt>
<trkpt lat="53.361002" lon="-1.918312"><ele>456</ele><time>2021-10-01T11:51:11Z</time><name>PT3382</name></trkpt>
<trkpt lat="53.360990" lon="-1.918276"><ele>456</ele><time>2021-10-01T11:51:14Z</time><name>PT3383</name></trkpt>
<trkpt lat="53.360980" lon="-1.918228"><ele>456</ele><time>2021-10-01T11:51:18Z</time><name>PT3384</name></trkpt>
<trkpt lat="53.360975" lon="-1.918193"><ele>457</ele><time>2021-10-01T11:51:21Z</time><name>PT3385</name></trkpt>
<trkpt lat="53.360974" lon="-1.918179"><ele>457</ele><time>2021-10-01T11:51:24Z</time><name>PT3386</name></trkpt>
<trkpt lat="53.360974" lon="-1.918175"><ele>457</ele><time>2021-10-01T11:51:28Z</time><name>PT3387</name></trkpt>
<trkpt lat="53.360960" lon="-1.918131"><ele>458</ele><time>2021-10-01T11:51:34Z</time><name>PT3388</name></trkpt>
<trkpt lat="53.360960" lon="-1.918085"><ele>459</ele><time>2021-10-01T11:51:37Z</time><name>PT3389</name></trkpt>
<trkpt lat="53.360957" lon="-1.918025"><ele>460</ele><time>2021-10-01T11:51:41Z</time><name>PT3390</name></trkpt>
<trkpt lat="53.360955" lon="-1.917984"><ele>461</ele><time>2021-10-01T11:51:44Z</time><name>PT3391</name></trkpt>
<trkpt lat="53.360955" lon="-1.917938"><ele>461</ele><time>2021-10-01T11:51:47Z</time><name>PT3392</name></trkpt>
<trkpt lat="53.360954" lon="-1.917896"><ele>462</ele><time>2021-10-01T11:51:50Z</time><name>PT3393</name></trkpt>
<trkpt lat="53.360947" lon="-1.917848"><ele>462</ele><time>2021-10-01T11:51:54Z</time><name>PT3394</name></trkpt>
<trkpt lat="53.360948" lon="-1.917805"><ele>463</ele><time>2021-10-01T11:51:58Z</time><name>PT3395</name></trkpt>
<trkpt lat="53.360946" lon="-1.917765"><ele>463</ele><time>2021-10-01T11:52:02Z</time><name>PT3396</name></trkpt>
<trkpt lat="53.360940" lon="-1.917717"><ele>464</ele><time>2021-10-01T11:52:06Z</time><name>PT3397</name></trkpt>
<trkpt lat="53.360936" lon="-1.917682"><ele>464</ele><time>2021-10-01T11:52:09Z</time><name>PT3398</name></trkpt>
<trkpt lat="53.360933" lon="-1.917641"><ele>464</ele><time>2021-10-01T11:52:13Z</time><name>PT3399</name></trkpt>
<trkpt lat="53.360925" lon="-1.917596"><ele>465</ele><time>2021-10-01T11:52:17Z</time><name>PT3400</name></trkpt>
<trkpt lat="53.360920" lon="-1.917538"><ele>465</ele><time>2021-10-01T11:52:21Z</time><name>PT3401</name></trkpt>
<trkpt lat="53.360912" lon="-1.917481"><ele>466</ele><time>2021-10-01T11:52:25Z</time><name>PT3402</name></trkpt>
<trkpt lat="53.360906" lon="-1.917455"><ele>467</ele><time>2021-10-01T11:52:28Z</time><name>PT3403</name></trkpt>
<trkpt lat="53.360896" lon="-1.917433"><ele>467</ele><time>2021-10-01T11:52:31Z</time><name>PT3404</name></trkpt>
<trkpt lat="53.360880" lon="-1.917387"><ele>467</ele><time>2021-10-01T11:52:35Z</time><name>PT3405</name></trkpt>
<trkpt lat="53.360872" lon="-1.917350"><ele>468</ele><time>2021-10-01T11:52:38Z</time><name>PT3406</name></trkpt>
<trkpt lat="53.360861" lon="-1.917315"><ele>469</ele><time>2021-10-01T11:52:41Z</time><name>PT3407</name></trkpt>
<trkpt lat="53.360847" lon="-1.917270"><ele>469</ele><time>2021-10-01T11:52:45Z</time><name>PT3408</name></trkpt>
<trkpt lat="53.360832" lon="-1.917224"><ele>470</ele><time>2021-10-01T11:52:49Z</time><name>PT3409</name></trkpt>
<trkpt lat="53.360830" lon="-1.917196"><ele>471</ele><time>2021-10-01T11:52:52Z</time><name>PT3410</name></trkpt>
<trkpt lat="53.360822" lon="-1.917160"><ele>471</ele><time>2021-10-01T11:52:56Z</time><name>PT3411</name></trkpt>
<trkpt lat="53.360801" lon="-1.917134"><ele>471</ele><time>2021-10-01T11:52:59Z</time><name>PT3412</name></trkpt>
<trkpt lat="53.360779" lon="-1.917111"><ele>471</ele><time>2021-10-01T11:53:02Z</time><name>PT3413</name></trkpt>
<trkpt lat="53.360757" lon="-1.917091"><ele>471</ele><time>2021-10-01T11:53:05Z</time><name>PT3414</name></trkpt>
<trkpt lat="53.360728" lon="-1.917058"><ele>471</ele><time>2021-10-01T11:53:09Z</time><name>PT3415</name></trkpt>
<trkpt lat="53.360702" lon="-1.917021"><ele>470</ele><time>2021-10-01T11:53:13Z</time><name>PT3416</name></trkpt>
<trkpt lat="53.360684" lon="-1.916994"><ele>470</ele><time>2021-10-01T11:53:16Z</time><name>PT3417</name></trkpt>
<trkpt lat="53.360652" lon="-1.916953"><ele>470</ele><time>2021-10-01T11:53:20Z</time><name>PT3418</name></trkpt>
<trkpt lat="53.360633" lon="-1.916923"><ele>470</ele><time>2021-10-01T11:53:23Z</time><name>PT3419</name></trkpt>
<trkpt lat="53.360612" lon="-1.916891"><ele>469</ele><time>2021-10-01T11:53:27Z</time><name>PT3420</name></trkpt>
<trkpt lat="53.360595" lon="-1.916868"><ele>469</ele><time>2021-10-01T11:53:30Z</time><name>PT3421</name></trkpt>
<trkpt lat="53.360577" lon="-1.916842"><ele>469</ele><time>2021-10-01T11:53:34Z</time><name>PT3422</name></trkpt>
<trkpt lat="53.360575" lon="-1.916842"><ele>469</ele><time>2021-10-01T11:53:37Z</time><name>PT3423</name></trkpt>
<trkpt lat="53.360568" lon="-1.916842"><ele>470</ele><time>2021-10-01T11:53:41Z</time><name>PT3424</name></trkpt>
<trkpt lat="53.360569" lon="-1.916838"><ele>469</ele><time>2021-10-01T11:53:44Z</time><name>PT3425</name></trkpt>
<trkpt lat="53.360564" lon="-1.916838"><ele>469</ele><time>2021-10-01T11:53:48Z</time><name>PT3426</name></trkpt>
<trkpt lat="53.360559" lon="-1.916839"><ele>469</ele><time>2021-10-01T11:53:58Z</time><name>PT3427</name></trkpt>
<trkpt lat="53.360547" lon="-1.916823"><ele>470</ele><time>2021-10-01T11:54:02Z</time><name>PT3428</name></trkpt>
<trkpt lat="53.360542" lon="-1.916815"><ele>470</ele><time>2021-10-01T11:55:19Z</time><name>PT3429</name></trkpt>
<trkpt lat="53.360565" lon="-1.916800"><ele>468</ele><time>2021-10-01T11:55:23Z</time><name>PT3430</name></trkpt>
<trkpt lat="53.360599" lon="-1.916800"><ele>468</ele><time>2021-10-01T11:55:26Z</time><name>PT3431</name></trkpt>
<trkpt lat="53.360636" lon="-1.916776"><ele>468</ele><time>2021-10-01T11:55:30Z</time><name>PT3432</name></trkpt>
<trkpt lat="53.360675" lon="-1.916772"><ele>468</ele><time>2021-10-01T11:55:34Z</time><name>PT3433</name></trkpt>
<trkpt lat="53.360690" lon="-1.916769"><ele>469</ele><time>2021-10-01T11:55:37Z</time><name>PT3434</name></trkpt>
<trkpt lat="53.360719" lon="-1.916765"><ele>470</ele><time>2021-10-01T11:55:41Z</time><name>PT3435</name></trkpt>
<trkpt lat="53.360743" lon="-1.916742"><ele>470</ele><time>2021-10-01T11:55:45Z</time><name>PT3436</name></trkpt>
<trkpt lat="53.360768" lon="-1.916747"><ele>471</ele><time>2021-10-01T11:55:48Z</time><name>PT3437</name></trkpt>
<trkpt lat="53.360794" lon="-1.916761"><ele>472</ele><time>2021-10-01T11:55:52Z</time><name>PT3438</name></trkpt>
<trkpt lat="53.360814" lon="-1.916755"><ele>472</ele><time>2021-10-01T11:55:55Z</time><name>PT3439</name></trkpt>
<trkpt lat="53.360818" lon="-1.916741"><ele>472</ele><time>2021-10-01T11:55:59Z</time><name>PT3440</name></trkpt>
<trkpt lat="53.360831" lon="-1.916731"><ele>472</ele><time>2021-10-01T11:56:02Z</time><name>PT3441</name></trkpt>
<trkpt lat="53.360833" lon="-1.916719"><ele>469</ele><time>2021-10-01T11:56:06Z</time><name>PT3442</name></trkpt>
<trkpt lat="53.360843" lon="-1.916708"><ele>468</ele><time>2021-10-01T11:56:10Z</time><name>PT3443</name></trkpt>
<trkpt lat="53.360855" lon="-1.916702"><ele>466</ele><time>2021-10-01T11:56:13Z</time><name>PT3444</name></trkpt>
<trkpt lat="53.360876" lon="-1.916686"><ele>466</ele><time>2021-10-01T11:56:17Z</time><name>PT3445</name></trkpt>
<trkpt lat="53.360891" lon="-1.916697"><ele>466</ele><time>2021-10-01T11:56:21Z</time><name>PT3446</name></trkpt>
<trkpt lat="53.360899" lon="-1.916698"><ele>465</ele><time>2021-10-01T11:56:24Z</time><name>PT3447</name></trkpt>
<trkpt lat="53.360910" lon="-1.916692"><ele>465</ele><time>2021-10-01T11:56:27Z</time><name>PT3448</name></trkpt>
<trkpt lat="53.360919" lon="-1.916688"><ele>465</ele><time>2021-10-01T11:56:31Z</time><name>PT3449</name></trkpt>
<trkpt lat="53.360921" lon="-1.916693"><ele>465</ele><time>2021-10-01T11:56:35Z</time><name>PT3450</name></trkpt>
<trkpt lat="53.360923" lon="-1.916680"><ele>465</ele><time>2021-10-01T11:56:40Z</time><name>PT3451</name></trkpt>
<trkpt lat="53.360921" lon="-1.916695"><ele>465</ele><time>2021-10-01T11:56:41Z</time><name>PT3452</name></trkpt>
<trkpt lat="53.360918" lon="-1.916696"><ele>465</ele><time>2021-10-01T11:56:42Z</time><name>PT3453</name></trkpt>
<trkpt lat="53.360920" lon="-1.916692"><ele>465</ele><time>2021-10-01T11:56:43Z</time><name>PT3454</name></trkpt>
<trkpt lat="53.360920" lon="-1.916690"><ele>465</ele><time>2021-10-01T11:56:44Z</time><name>PT3455</name></trkpt>
<trkpt lat="53.360919" lon="-1.916689"><ele>465</ele><time>2021-10-01T11:56:45Z</time><name>PT3456</name></trkpt>
<trkpt lat="53.360922" lon="-1.916691"><ele>465</ele><time>2021-10-01T11:56:46Z</time><name>PT3457</name></trkpt>
<trkpt lat="53.360925" lon="-1.916692"><ele>465</ele><time>2021-10-01T11:56:47Z</time><name>PT3458</name></trkpt>
<trkpt lat="53.360931" lon="-1.916696"><ele>466</ele><time>2021-10-01T11:56:48Z</time><name>PT3459</name></trkpt>
<trkpt lat="53.360937" lon="-1.916694"><ele>466</ele><time>2021-10-01T11:56:49Z</time><name>PT3460</name></trkpt>
<trkpt lat="53.360943" lon="-1.916693"><ele>466</ele><time>2021-10-01T11:56:50Z</time><name>PT3461</name></trkpt>
<trkpt lat="53.360957" lon="-1.916688"><ele>466</ele><time>2021-10-01T11:56:51Z</time><name>PT3462</name></trkpt>
<trkpt lat="53.360961" lon="-1.916686"><ele>467</ele><time>2021-10-01T11:56:52Z</time><name>PT3463</name></trkpt>
<trkpt lat="53.360965" lon="-1.916687"><ele>467</ele><time>2021-10-01T11:56:53Z</time><name>PT3464</name></trkpt>
<trkpt lat="53.360970" lon="-1.916686"><ele>468</ele><time>2021-10-01T11:56:54Z</time><name>PT3465</name></trkpt>
<trkpt lat="53.360972" lon="-1.916684"><ele>469</ele><time>2021-10-01T11:56:55Z</time><name>PT3466</name></trkpt>
<trkpt lat="53.360975" lon="-1.916688"><ele>469</ele><time>2021-10-01T11:57:03Z</time><name>PT3467</name></trkpt>
<trkpt lat="53.360977" lon="-1.916695"><ele>468</ele><time>2021-10-01T11:57:04Z</time><name>PT3468</name></trkpt>
<trkpt lat="53.360977" lon="-1.916695"><ele>468</ele><time>2021-10-01T11:57:05Z</time><name>PT3469</name></trkpt>
<trkpt lat="53.360980" lon="-1.916696"><ele>468</ele><time>2021-10-01T11:57:06Z</time><name>PT3470</name></trkpt>
<trkpt lat="53.360978" lon="-1.916694"><ele>469</ele><time>2021-10-01T11:57:07Z</time><name>PT3471</name></trkpt>
<trkpt lat="53.360982" lon="-1.916691"><ele>470</ele><time>2021-10-01T11:58:06Z</time><name>PT3472</name></trkpt>
<trkpt lat="53.360985" lon="-1.916692"><ele>470</ele><time>2021-10-01T11:58:07Z</time><name>PT3473</name></trkpt>
<trkpt lat="53.360986" lon="-1.916693"><ele>470</ele><time>2021-10-01T11:58:08Z</time><name>PT3474</name></trkpt>
<trkpt lat="53.360985" lon="-1.916689"><ele>470</ele><time>2021-10-01T11:58:38Z</time><name>PT3475</name></trkpt>
<trkpt lat="53.360985" lon="-1.916682"><ele>470</ele><time>2021-10-01T11:58:39Z</time><name>PT3476</name></trkpt>
<trkpt lat="53.360988" lon="-1.916686"><ele>470</ele><time>2021-10-01T11:58:40Z</time><name>PT3477</name></trkpt>
<trkpt lat="53.360990" lon="-1.916688"><ele>470</ele><time>2021-10-01T11:58:41Z</time><name>PT3478</name></trkpt>
<trkpt lat="53.360991" lon="-1.916692"><ele>470</ele><time>2021-10-01T11:58:42Z</time><name>PT3479</name></trkpt>
<trkpt lat="53.360989" lon="-1.916697"><ele>471</ele><time>2021-10-01T11:58:43Z</time><name>PT3480</name></trkpt>
<trkpt lat="53.360991" lon="-1.916704"><ele>471</ele><time>2021-10-01T11:58:44Z</time><name>PT3481</name></trkpt>
<trkpt lat="53.360992" lon="-1.916705"><ele>470</ele><time>2021-10-01T11:59:13Z</time><name>PT3482</name></trkpt>
<trkpt lat="53.360987" lon="-1.916705"><ele>470</ele><time>2021-10-01T11:59:14Z</time><name>PT3483</name></trkpt>
<trkpt lat="53.360985" lon="-1.916703"><ele>470</ele><time>2021-10-01T11:59:15Z</time><name>PT3484</name></trkpt>
<trkpt lat="53.360985" lon="-1.916699"><ele>470</ele><time>2021-10-01T11:59:16Z</time><name>PT3485</name></trkpt>
<trkpt lat="53.360984" lon="-1.916699"><ele>470</ele><time>2021-10-01T12:00:01Z</time><name>PT3486</name></trkpt>
<trkpt lat="53.360984" lon="-1.916697"><ele>470</ele><time>2021-10-01T12:00:02Z</time><name>PT3487</name></trkpt>
<trkpt lat="53.360981" lon="-1.916699"><ele>470</ele><time>2021-10-01T12:00:03Z</time><name>PT3488</name></trkpt>
<trkpt lat="53.360975" lon="-1.916696"><ele>470</ele><time>2021-10-01T12:00:05Z</time><name>PT3489</name></trkpt>
<trkpt lat="53.360978" lon="-1.916698"><ele>470</ele><time>2021-10-01T12:00:06Z</time><name>PT3490</name></trkpt>
<trkpt lat="53.360984" lon="-1.916702"><ele>470</ele><time>2021-10-01T12:00:07Z</time><name>PT3491</name></trkpt>
<trkpt lat="53.360985" lon="-1.916694"><ele>470</ele><time>2021-10-01T12:03:56Z</time><name>PT3492</name></trkpt>
<trkpt lat="53.360992" lon="-1.916660"><ele>471</ele><time>2021-10-01T12:04:00Z</time><name>PT3493</name></trkpt>
<trkpt lat="53.360993" lon="-1.916656"><ele>471</ele><time>2021-10-01T12:04:04Z</time><name>PT3494</name></trkpt>
<trkpt lat="53.360993" lon="-1.916669"><ele>472</ele><time>2021-10-01T12:04:08Z</time><name>PT3495</name></trkpt>
<trkpt lat="53.360989" lon="-1.916690"><ele>472</ele><time>2021-10-01T12:04:12Z</time><name>PT3496</name></trkpt>
<trkpt lat="53.360992" lon="-1.916690"><ele>473</ele><time>2021-10-01T12:04:15Z</time><name>PT3497</name></trkpt>
<trkpt lat="53.360991" lon="-1.916693"><ele>472</ele><time>2021-10-01T12:04:37Z</time><name>PT3498</name></trkpt>
<trkpt lat="53.360987" lon="-1.916695"><ele>473</ele><time>2021-10-01T12:04:41Z</time><name>PT3499</name></trkpt>
<trkpt lat="53.360999" lon="-1.916712"><ele>473</ele><time>2021-10-01T12:04:45Z</time><name>PT3500</name></trkpt>
<trkpt lat="53.361008" lon="-1.916665"><ele>471</ele><time>2021-10-01T12:04:48Z</time><name>PT3501</name></trkpt>
<trkpt lat="53.360993" lon="-1.916663"><ele>469</ele><time>2021-10-01T12:04:51Z</time><name>PT3502</name></trkpt>
<trkpt lat="53.360998" lon="-1.916662"><ele>469</ele><time>2021-10-01T12:04:55Z</time><name>PT3503</name></trkpt>
<trkpt lat="53.360990" lon="-1.916653"><ele>471</ele><time>2021-10-01T12:09:35Z</time><name>PT3504</name></trkpt>
<trkpt lat="53.360993" lon="-1.916647"><ele>472</ele><time>2021-10-01T12:09:45Z</time><name>PT3505</name></trkpt>
<trkpt lat="53.360995" lon="-1.916649"><ele>472</ele><time>2021-10-01T12:09:49Z</time><name>PT3506</name></trkpt>
<trkpt lat="53.360995" lon="-1.916647"><ele>472</ele><time>2021-10-01T12:12:19Z</time><name>PT3507</name></trkpt>
<trkpt lat="53.360995" lon="-1.916642"><ele>471</ele><time>2021-10-01T12:12:20Z</time><name>PT3508</name></trkpt>
<trkpt lat="53.360993" lon="-1.916641"><ele>471</ele><time>2021-10-01T12:12:21Z</time><name>PT3509</name></trkpt>
<trkpt lat="53.360991" lon="-1.916639"><ele>471</ele><time>2021-10-01T12:12:22Z</time><name>PT3510</name></trkpt>
<trkpt lat="53.360992" lon="-1.916640"><ele>472</ele><time>2021-10-01T12:12:23Z</time><name>PT3511</name></trkpt>
<trkpt lat="53.360991" lon="-1.916640"><ele>471</ele><time>2021-10-01T12:12:24Z</time><name>PT3512</name></trkpt>
<trkpt lat="53.360992" lon="-1.916640"><ele>471</ele><time>2021-10-01T12:12:25Z</time><name>PT3513</name></trkpt>
<trkpt lat="53.360987" lon="-1.916647"><ele>471</ele><time>2021-10-01T12:13:57Z</time><name>PT3514</name></trkpt>
<trkpt lat="53.360986" lon="-1.916650"><ele>471</ele><time>2021-10-01T12:13:58Z</time><name>PT3515</name></trkpt>
<trkpt lat="53.360985" lon="-1.916650"><ele>471</ele><time>2021-10-01T12:13:59Z</time><name>PT3516</name></trkpt>
<trkpt lat="53.360986" lon="-1.916648"><ele>471</ele><time>2021-10-01T12:15:38Z</time><name>PT3517</name></trkpt>
<trkpt lat="53.360990" lon="-1.916641"><ele>471</ele><time>2021-10-01T12:15:42Z</time><name>PT3518</name></trkpt>
<trkpt lat="53.360982" lon="-1.916653"><ele>470</ele><time>2021-10-01T12:15:45Z</time><name>PT3519</name></trkpt>
<trkpt lat="53.360978" lon="-1.916658"><ele>470</ele><time>2021-10-01T12:17:00Z</time><name>PT3520</name></trkpt>
<trkpt lat="53.360977" lon="-1.916662"><ele>470</ele><time>2021-10-01T12:17:03Z</time><name>PT3521</name></trkpt>
<trkpt lat="53.360976" lon="-1.916669"><ele>470</ele><time>2021-10-01T12:17:27Z</time><name>PT3522</name></trkpt>
<trkpt lat="53.360968" lon="-1.916683"><ele>470</ele><time>2021-10-01T12:17:30Z</time><name>PT3523</name></trkpt>
<trkpt lat="53.360957" lon="-1.916691"><ele>472</ele><time>2021-10-01T12:17:34Z</time><name>PT3524</name></trkpt>
<trkpt lat="53.360952" lon="-1.916695"><ele>472</ele><time>2021-10-01T12:17:37Z</time><name>PT3525</name></trkpt>
<trkpt lat="53.360952" lon="-1.916697"><ele>473</ele><time>2021-10-01T12:18:04Z</time><name>PT3526</name></trkpt>
<trkpt lat="53.360977" lon="-1.916702"><ele>473</ele><time>2021-10-01T12:18:07Z</time><name>PT3527</name></trkpt>
<trkpt lat="53.360969" lon="-1.916696"><ele>474</ele><time>2021-10-01T12:18:17Z</time><name>PT3528</name></trkpt>
<trkpt lat="53.360970" lon="-1.916699"><ele>475</ele><time>2021-10-01T12:18:21Z</time><name>PT3529</name></trkpt>
<trkpt lat="53.360976" lon="-1.916688"><ele>475</ele><time>2021-10-01T12:18:29Z</time><name>PT3530</name></trkpt>
<trkpt lat="53.360975" lon="-1.916673"><ele>475</ele><time>2021-10-01T12:19:28Z</time><name>PT3531</name></trkpt>
<trkpt lat="53.360968" lon="-1.916660"><ele>475</ele><time>2021-10-01T12:19:29Z</time><name>PT3532</name></trkpt>
<trkpt lat="53.360958" lon="-1.916655"><ele>474</ele><time>2021-10-01T12:19:30Z</time><name>PT3533</name></trkpt>
<trkpt lat="53.360948" lon="-1.916647"><ele>474</ele><time>2021-10-01T12:19:31Z</time><name>PT3534</name></trkpt>
<trkpt lat="53.360934" lon="-1.916626"><ele>474</ele><time>2021-10-01T12:19:32Z</time><name>PT3535</name></trkpt>
<trkpt lat="53.360923" lon="-1.916618"><ele>474</ele><time>2021-10-01T12:19:33Z</time><name>PT3536</name></trkpt>
<trkpt lat="53.360917" lon="-1.916618"><ele>473</ele><time>2021-10-01T12:19:34Z</time><name>PT3537</name></trkpt>
<trkpt lat="53.360912" lon="-1.916622"><ele>472</ele><time>2021-10-01T12:19:35Z</time><name>PT3538</name></trkpt>
<trkpt lat="53.360907" lon="-1.916623"><ele>472</ele><time>2021-10-01T12:19:36Z</time><name>PT3539</name></trkpt>
<trkpt lat="53.360901" lon="-1.916628"><ele>472</ele><time>2021-10-01T12:19:37Z</time><name>PT3540</name></trkpt>
<trkpt lat="53.360893" lon="-1.916632"><ele>472</ele><time>2021-10-01T12:19:38Z</time><name>PT3541</name></trkpt>
<trkpt lat="53.360887" lon="-1.916632"><ele>472</ele><time>2021-10-01T12:19:39Z</time><name>PT3542</name></trkpt>
<trkpt lat="53.360881" lon="-1.916630"><ele>472</ele><time>2021-10-01T12:19:40Z</time><name>PT3543</name></trkpt>
<trkpt lat="53.360877" lon="-1.916637"><ele>471</ele><time>2021-10-01T12:19:41Z</time><name>PT3544</name></trkpt>
<trkpt lat="53.360874" lon="-1.916641"><ele>472</ele><time>2021-10-01T12:19:42Z</time><name>PT3545</name></trkpt>
<trkpt lat="53.360868" lon="-1.916644"><ele>472</ele><time>2021-10-01T12:19:43Z</time><name>PT3546</name></trkpt>
<trkpt lat="53.360858" lon="-1.916643"><ele>472</ele><time>2021-10-01T12:19:44Z</time><name>PT3547</name></trkpt>
<trkpt lat="53.360852" lon="-1.916646"><ele>472</ele><time>2021-10-01T12:19:45Z</time><name>PT3548</name></trkpt>
<trkpt lat="53.360844" lon="-1.916654"><ele>472</ele><time>2021-10-01T12:19:46Z</time><name>PT3549</name></trkpt>
<trkpt lat="53.360841" lon="-1.916659"><ele>471</ele><time>2021-10-01T12:19:47Z</time><name>PT3550</name></trkpt>
<trkpt lat="53.360838" lon="-1.916670"><ele>471</ele><time>2021-10-01T12:19:48Z</time><name>PT3551</name></trkpt>
<trkpt lat="53.360832" lon="-1.916677"><ele>472</ele><time>2021-10-01T12:19:49Z</time><name>PT3552</name></trkpt>
<trkpt lat="53.360829" lon="-1.916687"><ele>472</ele><time>2021-10-01T12:19:50Z</time><name>PT3553</name></trkpt>
<trkpt lat="53.360824" lon="-1.916687"><ele>474</ele><time>2021-10-01T12:19:51Z</time><name>PT3554</name></trkpt>
<trkpt lat="53.360821" lon="-1.916694"><ele>474</ele><time>2021-10-01T12:19:52Z</time><name>PT3555</name></trkpt>
<trkpt lat="53.360817" lon="-1.916704"><ele>474</ele><time>2021-10-01T12:19:53Z</time><name>PT3556</name></trkpt>
<trkpt lat="53.360815" lon="-1.916712"><ele>474</ele><time>2021-10-01T12:19:54Z</time><name>PT3557</name></trkpt>
<trkpt lat="53.360809" lon="-1.916717"><ele>473</ele><time>2021-10-01T12:19:55Z</time><name>PT3558</name></trkpt>
<trkpt lat="53.360807" lon="-1.916719"><ele>472</ele><time>2021-10-01T12:19:56Z</time><name>PT3559</name></trkpt>
<trkpt lat="53.360796" lon="-1.916723"><ele>473</ele><time>2021-10-01T12:19:57Z</time><name>PT3560</name></trkpt>
<trkpt lat="53.360792" lon="-1.916728"><ele>473</ele><time>2021-10-01T12:19:58Z</time><name>PT3561</name></trkpt>
<trkpt lat="53.360790" lon="-1.916728"><ele>474</ele><time>2021-10-01T12:20:02Z</time><name>PT3562</name></trkpt>
<trkpt lat="53.360790" lon="-1.916731"><ele>474</ele><time>2021-10-01T12:20:03Z</time><name>PT3563</name></trkpt>
<trkpt lat="53.360789" lon="-1.916732"><ele>474</ele><time>2021-10-01T12:20:04Z</time><name>PT3564</name></trkpt>
<trkpt lat="53.360789" lon="-1.916735"><ele>473</ele><time>2021-10-01T12:20:05Z</time><name>PT3565</name></trkpt>
<trkpt lat="53.360788" lon="-1.916735"><ele>473</ele><time>2021-10-01T12:20:06Z</time><name>PT3566</name></trkpt>
<trkpt lat="53.360785" lon="-1.916731"><ele>473</ele><time>2021-10-01T12:20:07Z</time><name>PT3567</name></trkpt>
<trkpt lat="53.360783" lon="-1.916728"><ele>473</ele><time>2021-10-01T12:20:08Z</time><name>PT3568</name></trkpt>
<trkpt lat="53.360779" lon="-1.916732"><ele>473</ele><time>2021-10-01T12:20:09Z</time><name>PT3569</name></trkpt>
<trkpt lat="53.360778" lon="-1.916735"><ele>473</ele><time>2021-10-01T12:20:10Z</time><name>PT3570</name></trkpt>
<trkpt lat="53.360777" lon="-1.916732"><ele>473</ele><time>2021-10-01T12:20:11Z</time><name>PT3571</name></trkpt>
<trkpt lat="53.360781" lon="-1.916730"><ele>472</ele><time>2021-10-01T12:20:36Z</time><name>PT3572</name></trkpt>
<trkpt lat="53.360780" lon="-1.916731"><ele>473</ele><time>2021-10-01T12:20:37Z</time><name>PT3573</name></trkpt>
<trkpt lat="53.360779" lon="-1.916725"><ele>473</ele><time>2021-10-01T12:20:38Z</time><name>PT3574</name></trkpt>
<trkpt lat="53.360769" lon="-1.916705"><ele>474</ele><time>2021-10-01T12:20:41Z</time><name>PT3575</name></trkpt>
<trkpt lat="53.360765" lon="-1.916692"><ele>474</ele><time>2021-10-01T12:20:42Z</time><name>PT3576</name></trkpt>
<trkpt lat="53.360762" lon="-1.916697"><ele>473</ele><time>2021-10-01T12:20:43Z</time><name>PT3577</name></trkpt>
<trkpt lat="53.360756" lon="-1.916700"><ele>472</ele><time>2021-10-01T12:20:44Z</time><name>PT3578</name></trkpt>
<trkpt lat="53.360754" lon="-1.916693"><ele>472</ele><time>2021-10-01T12:20:45Z</time><name>PT3579</name></trkpt>
<trkpt lat="53.360747" lon="-1.916697"><ele>472</ele><time>2021-10-01T12:20:46Z</time><name>PT3580</name></trkpt>
<trkpt lat="53.360738" lon="-1.916697"><ele>472</ele><time>2021-10-01T12:20:47Z</time><name>PT3581</name></trkpt>
<trkpt lat="53.360732" lon="-1.916694"><ele>472</ele><time>2021-10-01T12:20:48Z</time><name>PT3582</name></trkpt>
<trkpt lat="53.360723" lon="-1.916698"><ele>472</ele><time>2021-10-01T12:20:49Z</time><name>PT3583</name></trkpt>
<trkpt lat="53.360721" lon="-1.916699"><ele>472</ele><time>2021-10-01T12:20:50Z</time><name>PT3584</name></trkpt>
<trkpt lat="53.360714" lon="-1.916702"><ele>471</ele><time>2021-10-01T12:20:51Z</time><name>PT3585</name></trkpt>
<trkpt lat="53.360706" lon="-1.916709"><ele>471</ele><time>2021-10-01T12:20:52Z</time><name>PT3586</name></trkpt>
<trkpt lat="53.360703" lon="-1.916715"><ele>471</ele><time>2021-10-01T12:20:53Z</time><name>PT3587</name></trkpt>
<trkpt lat="53.360697" lon="-1.916724"><ele>470</ele><time>2021-10-01T12:20:54Z</time><name>PT3588</name></trkpt>
<trkpt lat="53.360690" lon="-1.916727"><ele>470</ele><time>2021-10-01T12:20:55Z</time><name>PT3589</name></trkpt>
<trkpt lat="53.360687" lon="-1.916731"><ele>470</ele><time>2021-10-01T12:20:56Z</time><name>PT3590</name></trkpt>
<trkpt lat="53.360683" lon="-1.916728"><ele>470</ele><time>2021-10-01T12:20:57Z</time><name>PT3591</name></trkpt>
<trkpt lat="53.360677" lon="-1.916725"><ele>470</ele><time>2021-10-01T12:20:58Z</time><name>PT3592</name></trkpt>
<trkpt lat="53.360669" lon="-1.916727"><ele>469</ele><time>2021-10-01T12:20:59Z</time><name>PT3593</name></trkpt>
<trkpt lat="53.360656" lon="-1.916731"><ele>469</ele><time>2021-10-01T12:21:00Z</time><name>PT3594</name></trkpt>
<trkpt lat="53.360648" lon="-1.916734"><ele>469</ele><time>2021-10-01T12:21:01Z</time><name>PT3595</name></trkpt>
<trkpt lat="53.360639" lon="-1.916738"><ele>469</ele><time>2021-10-01T12:21:02Z</time><name>PT3596</name></trkpt>
<trkpt lat="53.360629" lon="-1.916745"><ele>469</ele><time>2021-10-01T12:21:03Z</time><name>PT3597</name></trkpt>
<trkpt lat="53.360619" lon="-1.916749"><ele>468</ele><time>2021-10-01T12:21:04Z</time><name>PT3598</name></trkpt>
<trkpt lat="53.360612" lon="-1.916753"><ele>468</ele><time>2021-10-01T12:21:05Z</time><name>PT3599</name></trkpt>
<trkpt lat="53.360605" lon="-1.916757"><ele>468</ele><time>2021-10-01T12:21:06Z</time><name>PT3600</name></trkpt>
<trkpt lat="53.360599" lon="-1.916759"><ele>467</ele><time>2021-10-01T12:21:07Z</time><name>PT3601</name></trkpt>
<trkpt lat="53.360592" lon="-1.916761"><ele>467</ele><time>2021-10-01T12:21:08Z</time><name>PT3602</name></trkpt>
<trkpt lat="53.360584" lon="-1.916761"><ele>467</ele><time>2021-10-01T12:21:09Z</time><name>PT3603</name></trkpt>
<trkpt lat="53.360580" lon="-1.916762"><ele>467</ele><time>2021-10-01T12:21:10Z</time><name>PT3604</name></trkpt>
<trkpt lat="53.360579" lon="-1.916768"><ele>466</ele><time>2021-10-01T12:21:11Z</time><name>PT3605</name></trkpt>
<trkpt lat="53.360577" lon="-1.916770"><ele>466</ele><time>2021-10-01T12:21:12Z</time><name>PT3606</name></trkpt>
<trkpt lat="53.360575" lon="-1.916770"><ele>466</ele><time>2021-10-01T12:21:13Z</time><name>PT3607</name></trkpt>
<trkpt lat="53.360572" lon="-1.916770"><ele>466</ele><time>2021-10-01T12:21:14Z</time><name>PT3608</name></trkpt>
<trkpt lat="53.360571" lon="-1.916770"><ele>466</ele><time>2021-10-01T12:21:15Z</time><name>PT3609</name></trkpt>
<trkpt lat="53.360570" lon="-1.916769"><ele>466</ele><time>2021-10-01T12:21:16Z</time><name>PT3610</name></trkpt>
<trkpt lat="53.360572" lon="-1.916774"><ele>466</ele><time>2021-10-01T12:21:17Z</time><name>PT3611</name></trkpt>
<trkpt lat="53.360558" lon="-1.916767"><ele>466</ele><time>2021-10-01T12:21:31Z</time><name>PT3612</name></trkpt>
<trkpt lat="53.360549" lon="-1.916771"><ele>466</ele><time>2021-10-01T12:21:32Z</time><name>PT3613</name></trkpt>
<trkpt lat="53.360540" lon="-1.916773"><ele>465</ele><time>2021-10-01T12:21:33Z</time><name>PT3614</name></trkpt>
<trkpt lat="53.360536" lon="-1.916777"><ele>465</ele><time>2021-10-01T12:21:34Z</time><name>PT3615</name></trkpt>
<trkpt lat="53.360534" lon="-1.916776"><ele>465</ele><time>2021-10-01T12:21:35Z</time><name>PT3616</name></trkpt>
<trkpt lat="53.360532" lon="-1.916772"><ele>465</ele><time>2021-10-01T12:21:36Z</time><name>PT3617</name></trkpt>
<trkpt lat="53.360526" lon="-1.916770"><ele>465</ele><time>2021-10-01T12:21:37Z</time><name>PT3618</name></trkpt>
<trkpt lat="53.360516" lon="-1.916770"><ele>465</ele><time>2021-10-01T12:21:38Z</time><name>PT3619</name></trkpt>
<trkpt lat="53.360507" lon="-1.916772"><ele>465</ele><time>2021-10-01T12:21:39Z</time><name>PT3620</name></trkpt>
<trkpt lat="53.360500" lon="-1.916765"><ele>465</ele><time>2021-10-01T12:21:40Z</time><name>PT3621</name></trkpt>
<trkpt lat="53.360494" lon="-1.916760"><ele>465</ele><time>2021-10-01T12:21:41Z</time><name>PT3622</name></trkpt>
<trkpt lat="53.360486" lon="-1.916754"><ele>465</ele><time>2021-10-01T12:21:42Z</time><name>PT3623</name></trkpt>
<trkpt lat="53.360479" lon="-1.916753"><ele>465</ele><time>2021-10-01T12:21:43Z</time><name>PT3624</name></trkpt>
<trkpt lat="53.360468" lon="-1.916750"><ele>464</ele><time>2021-10-01T12:21:44Z</time><name>PT3625</name></trkpt>
<trkpt lat="53.360458" lon="-1.916750"><ele>464</ele><time>2021-10-01T12:21:45Z</time><name>PT3626</name></trkpt>
<trkpt lat="53.360447" lon="-1.916753"><ele>463</ele><time>2021-10-01T12:21:46Z</time><name>PT3627</name></trkpt>
<trkpt lat="53.360438" lon="-1.916761"><ele>463</ele><time>2021-10-01T12:21:47Z</time><name>PT3628</name></trkpt>
<trkpt lat="53.360430" lon="-1.916765"><ele>463</ele><time>2021-10-01T12:21:48Z</time><name>PT3629</name></trkpt>
<trkpt lat="53.360422" lon="-1.916765"><ele>463</ele><time>2021-10-01T12:21:49Z</time><name>PT3630</name></trkpt>
<trkpt lat="53.360413" lon="-1.916762"><ele>463</ele><time>2021-10-01T12:21:50Z</time><name>PT3631</name></trkpt>
<trkpt lat="53.360401" lon="-1.916752"><ele>462</ele><time>2021-10-01T12:21:51Z</time><name>PT3632</name></trkpt>
<trkpt lat="53.360390" lon="-1.916741"><ele>461</ele><time>2021-10-01T12:21:52Z</time><name>PT3633</name></trkpt>
<trkpt lat="53.360379" lon="-1.916729"><ele>461</ele><time>2021-10-01T12:21:53Z</time><name>PT3634</name></trkpt>
<trkpt lat="53.360369" lon="-1.916715"><ele>461</ele><time>2021-10-01T12:21:54Z</time><name>PT3635</name></trkpt>
<trkpt lat="53.360361" lon="-1.916705"><ele>461</ele><time>2021-10-01T12:21:55Z</time><name>PT3636</name></trkpt>
<trkpt lat="53.360349" lon="-1.916696"><ele>461</ele><time>2021-10-01T12:21:56Z</time><name>PT3637</name></trkpt>
<trkpt lat="53.360339" lon="-1.916688"><ele>460</ele><time>2021-10-01T12:21:57Z</time><name>PT3638</name></trkpt>
<trkpt lat="53.360326" lon="-1.916681"><ele>460</ele><time>2021-10-01T12:21:58Z</time><name>PT3639</name></trkpt>
<trkpt lat="53.360291" lon="-1.916662"><ele>460</ele><time>2021-10-01T12:22:01Z</time><name>PT3640</name></trkpt>
<trkpt lat="53.360238" lon="-1.916635"><ele>459</ele><time>2021-10-01T12:22:05Z</time><name>PT3641</name></trkpt>
<trkpt lat="53.360179" lon="-1.916626"><ele>459</ele><time>2021-10-01T12:22:09Z</time><name>PT3642</name></trkpt>
<trkpt lat="53.360130" lon="-1.916598"><ele>458</ele><time>2021-10-01T12:22:13Z</time><name>PT3643</name></trkpt>
<trkpt lat="53.360093" lon="-1.916583"><ele>457</ele><time>2021-10-01T12:22:16Z</time><name>PT3644</name></trkpt>
<trkpt lat="53.360055" lon="-1.916568"><ele>458</ele><time>2021-10-01T12:22:19Z</time><name>PT3645</name></trkpt>
<trkpt lat="53.360012" lon="-1.916530"><ele>458</ele><time>2021-10-01T12:22:23Z</time><name>PT3646</name></trkpt>
<trkpt lat="53.359980" lon="-1.916476"><ele>458</ele><time>2021-10-01T12:22:27Z</time><name>PT3647</name></trkpt>
<trkpt lat="53.359954" lon="-1.916452"><ele>459</ele><time>2021-10-01T12:22:30Z</time><name>PT3648</name></trkpt>
<trkpt lat="53.359906" lon="-1.916414"><ele>459</ele><time>2021-10-01T12:22:34Z</time><name>PT3649</name></trkpt>
<trkpt lat="53.359880" lon="-1.916388"><ele>458</ele><time>2021-10-01T12:22:37Z</time><name>PT3650</name></trkpt>
<trkpt lat="53.359843" lon="-1.916338"><ele>459</ele><time>2021-10-01T12:22:41Z</time><name>PT3651</name></trkpt>
<trkpt lat="53.359819" lon="-1.916299"><ele>459</ele><time>2021-10-01T12:22:44Z</time><name>PT3652</name></trkpt>
<trkpt lat="53.359807" lon="-1.916290"><ele>459</ele><time>2021-10-01T12:22:45Z</time><name>PT3653</name></trkpt>
<trkpt lat="53.359795" lon="-1.916281"><ele>459</ele><time>2021-10-01T12:22:46Z</time><name>PT3654</name></trkpt>
<trkpt lat="53.359789" lon="-1.916271"><ele>459</ele><time>2021-10-01T12:22:47Z</time><name>PT3655</name></trkpt>
<trkpt lat="53.359782" lon="-1.916256"><ele>459</ele><time>2021-10-01T12:22:48Z</time><name>PT3656</name></trkpt>
<trkpt lat="53.359773" lon="-1.916243"><ele>459</ele><time>2021-10-01T12:22:49Z</time><name>PT3657</name></trkpt>
<trkpt lat="53.359765" lon="-1.916231"><ele>459</ele><time>2021-10-01T12:22:50Z</time><name>PT3658</name></trkpt>
<trkpt lat="53.359758" lon="-1.916221"><ele>459</ele><time>2021-10-01T12:22:51Z</time><name>PT3659</name></trkpt>
<trkpt lat="53.359752" lon="-1.916208"><ele>459</ele><time>2021-10-01T12:22:52Z</time><name>PT3660</name></trkpt>
<trkpt lat="53.359747" lon="-1.916196"><ele>459</ele><time>2021-10-01T12:22:53Z</time><name>PT3661</name></trkpt>
<trkpt lat="53.359741" lon="-1.916172"><ele>459</ele><time>2021-10-01T12:22:54Z</time><name>PT3662</name></trkpt>
<trkpt lat="53.359735" lon="-1.916161"><ele>459</ele><time>2021-10-01T12:22:55Z</time><name>PT3663</name></trkpt>
<trkpt lat="53.359726" lon="-1.916150"><ele>459</ele><time>2021-10-01T12:22:56Z</time><name>PT3664</name></trkpt>
<trkpt lat="53.359718" lon="-1.916144"><ele>459</ele><time>2021-10-01T12:22:57Z</time><name>PT3665</name></trkpt>
<trkpt lat="53.359707" lon="-1.916135"><ele>459</ele><time>2021-10-01T12:22:58Z</time><name>PT3666</name></trkpt>
<trkpt lat="53.359698" lon="-1.916122"><ele>459</ele><time>2021-10-01T12:22:59Z</time><name>PT3667</name></trkpt>
<trkpt lat="53.359693" lon="-1.916111"><ele>459</ele><time>2021-10-01T12:23:00Z</time><name>PT3668</name></trkpt>
<trkpt lat="53.359690" lon="-1.916100"><ele>459</ele><time>2021-10-01T12:23:01Z</time><name>PT3669</name></trkpt>
<trkpt lat="53.359686" lon="-1.916087"><ele>459</ele><time>2021-10-01T12:23:02Z</time><name>PT3670</name></trkpt>
<trkpt lat="53.359682" lon="-1.916077"><ele>459</ele><time>2021-10-01T12:23:03Z</time><name>PT3671</name></trkpt>
<trkpt lat="53.359677" lon="-1.916065"><ele>459</ele><time>2021-10-01T12:23:04Z</time><name>PT3672</name></trkpt>
<trkpt lat="53.359670" lon="-1.916051"><ele>459</ele><time>2021-10-01T12:23:05Z</time><name>PT3673</name></trkpt>
<trkpt lat="53.359663" lon="-1.916039"><ele>459</ele><time>2021-10-01T12:23:06Z</time><name>PT3674</name></trkpt>
<trkpt lat="53.359658" lon="-1.916029"><ele>459</ele><time>2021-10-01T12:23:07Z</time><name>PT3675</name></trkpt>
<trkpt lat="53.359652" lon="-1.916018"><ele>459</ele><time>2021-10-01T12:23:08Z</time><name>PT3676</name></trkpt>
<trkpt lat="53.359643" lon="-1.915998"><ele>459</ele><time>2021-10-01T12:23:09Z</time><name>PT3677</name></trkpt>
<trkpt lat="53.359637" lon="-1.915982"><ele>459</ele><time>2021-10-01T12:23:10Z</time><name>PT3678</name></trkpt>
<trkpt lat="53.359629" lon="-1.915965"><ele>458</ele><time>2021-10-01T12:23:11Z</time><name>PT3679</name></trkpt>
<trkpt lat="53.359621" lon="-1.915948"><ele>458</ele><time>2021-10-01T12:23:12Z</time><name>PT3680</name></trkpt>
<trkpt lat="53.359615" lon="-1.915931"><ele>458</ele><time>2021-10-01T12:23:13Z</time><name>PT3681</name></trkpt>
<trkpt lat="53.359608" lon="-1.915915"><ele>458</ele><time>2021-10-01T12:23:14Z</time><name>PT3682</name></trkpt>
<trkpt lat="53.359604" lon="-1.915900"><ele>457</ele><time>2021-10-01T12:23:15Z</time><name>PT3683</name></trkpt>
<trkpt lat="53.359601" lon="-1.915880"><ele>457</ele><time>2021-10-01T12:23:16Z</time><name>PT3684</name></trkpt>
<trkpt lat="53.359595" lon="-1.915863"><ele>457</ele><time>2021-10-01T12:23:17Z</time><name>PT3685</name></trkpt>
<trkpt lat="53.359590" lon="-1.915850"><ele>457</ele><time>2021-10-01T12:23:18Z</time><name>PT3686</name></trkpt>
<trkpt lat="53.359583" lon="-1.915833"><ele>457</ele><time>2021-10-01T12:23:19Z</time><name>PT3687</name></trkpt>
<trkpt lat="53.359577" lon="-1.915814"><ele>456</ele><time>2021-10-01T12:23:20Z</time><name>PT3688</name></trkpt>
<trkpt lat="53.359573" lon="-1.915792"><ele>456</ele><time>2021-10-01T12:23:21Z</time><name>PT3689</name></trkpt>
<trkpt lat="53.359569" lon="-1.915771"><ele>456</ele><time>2021-10-01T12:23:22Z</time><name>PT3690</name></trkpt>
<trkpt lat="53.359560" lon="-1.915752"><ele>455</ele><time>2021-10-01T12:23:23Z</time><name>PT3691</name></trkpt>
<trkpt lat="53.359555" lon="-1.915738"><ele>456</ele><time>2021-10-01T12:23:24Z</time><name>PT3692</name></trkpt>
<trkpt lat="53.359549" lon="-1.915719"><ele>455</ele><time>2021-10-01T12:23:25Z</time><name>PT3693</name></trkpt>
<trkpt lat="53.359547" lon="-1.915701"><ele>456</ele><time>2021-10-01T12:23:26Z</time><name>PT3694</name></trkpt>
<trkpt lat="53.359545" lon="-1.915685"><ele>455</ele><time>2021-10-01T12:23:27Z</time><name>PT3695</name></trkpt>
<trkpt lat="53.359542" lon="-1.915670"><ele>455</ele><time>2021-10-01T12:23:28Z</time><name>PT3696</name></trkpt>
<trkpt lat="53.359540" lon="-1.915655"><ele>455</ele><time>2021-10-01T12:23:29Z</time><name>PT3697</name></trkpt>
<trkpt lat="53.359541" lon="-1.915641"><ele>455</ele><time>2021-10-01T12:23:30Z</time><name>PT3698</name></trkpt>
<trkpt lat="53.359536" lon="-1.915624"><ele>455</ele><time>2021-10-01T12:23:31Z</time><name>PT3699</name></trkpt>
<trkpt lat="53.359531" lon="-1.915608"><ele>456</ele><time>2021-10-01T12:23:32Z</time><name>PT3700</name></trkpt>
<trkpt lat="53.359525" lon="-1.915592"><ele>456</ele><time>2021-10-01T12:23:33Z</time><name>PT3701</name></trkpt>
<trkpt lat="53.359525" lon="-1.915577"><ele>455</ele><time>2021-10-01T12:23:34Z</time><name>PT3702</name></trkpt>
<trkpt lat="53.359520" lon="-1.915559"><ele>455</ele><time>2021-10-01T12:23:35Z</time><name>PT3703</name></trkpt>
<trkpt lat="53.359518" lon="-1.915545"><ele>455</ele><time>2021-10-01T12:23:36Z</time><name>PT3704</name></trkpt>
<trkpt lat="53.359515" lon="-1.915527"><ele>456</ele><time>2021-10-01T12:23:37Z</time><name>PT3705</name></trkpt>
<trkpt lat="53.359511" lon="-1.915498"><ele>456</ele><time>2021-10-01T12:23:38Z</time><name>PT3706</name></trkpt>
<trkpt lat="53.359508" lon="-1.915481"><ele>456</ele><time>2021-10-01T12:23:39Z</time><name>PT3707</name></trkpt>
<trkpt lat="53.359499" lon="-1.915468"><ele>456</ele><time>2021-10-01T12:23:40Z</time><name>PT3708</name></trkpt>
<trkpt lat="53.359491" lon="-1.915454"><ele>456</ele><time>2021-10-01T12:23:41Z</time><name>PT3709</name></trkpt>
<trkpt lat="53.359483" lon="-1.915438"><ele>456</ele><time>2021-10-01T12:23:42Z</time><name>PT3710</name></trkpt>
<trkpt lat="53.359477" lon="-1.915418"><ele>456</ele><time>2021-10-01T12:23:43Z</time><name>PT3711</name></trkpt>
<trkpt lat="53.359475" lon="-1.915403"><ele>456</ele><time>2021-10-01T12:23:44Z</time><name>PT3712</name></trkpt>
<trkpt lat="53.359470" lon="-1.915385"><ele>456</ele><time>2021-10-01T12:23:45Z</time><name>PT3713</name></trkpt>
<trkpt lat="53.359463" lon="-1.915368"><ele>456</ele><time>2021-10-01T12:23:46Z</time><name>PT3714</name></trkpt>
<trkpt lat="53.359453" lon="-1.915347"><ele>456</ele><time>2021-10-01T12:23:47Z</time><name>PT3715</name></trkpt>
<trkpt lat="53.359448" lon="-1.915329"><ele>456</ele><time>2021-10-01T12:23:48Z</time><name>PT3716</name></trkpt>
<trkpt lat="53.359444" lon="-1.915312"><ele>456</ele><time>2021-10-01T12:23:49Z</time><name>PT3717</name></trkpt>
<trkpt lat="53.359438" lon="-1.915297"><ele>456</ele><time>2021-10-01T12:23:50Z</time><name>PT3718</name></trkpt>
<trkpt lat="53.359431" lon="-1.915284"><ele>455</ele><time>2021-10-01T12:23:51Z</time><name>PT3719</name></trkpt>
<trkpt lat="53.359424" lon="-1.915268"><ele>455</ele><time>2021-10-01T12:23:52Z</time><name>PT3720</name></trkpt>
<trkpt lat="53.359423" lon="-1.915255"><ele>455</ele><time>2021-10-01T12:23:53Z</time><name>PT3721</name></trkpt>
<trkpt lat="53.359418" lon="-1.915245"><ele>455</ele><time>2021-10-01T12:23:54Z</time><name>PT3722</name></trkpt>
<trkpt lat="53.359413" lon="-1.915232"><ele>455</ele><time>2021-10-01T12:23:55Z</time><name>PT3723</name></trkpt>
<trkpt lat="53.359406" lon="-1.915221"><ele>454</ele><time>2021-10-01T12:23:56Z</time><name>PT3724</name></trkpt>
<trkpt lat="53.359401" lon="-1.915215"><ele>454</ele><time>2021-10-01T12:23:57Z</time><name>PT3725</name></trkpt>
<trkpt lat="53.359392" lon="-1.915210"><ele>454</ele><time>2021-10-01T12:23:58Z</time><name>PT3726</name></trkpt>
<trkpt lat="53.359383" lon="-1.915202"><ele>454</ele><time>2021-10-01T12:23:59Z</time><name>PT3727</name></trkpt>
<trkpt lat="53.359374" lon="-1.915188"><ele>453</ele><time>2021-10-01T12:24:00Z</time><name>PT3728</name></trkpt>
<trkpt lat="53.359367" lon="-1.915179"><ele>452</ele><time>2021-10-01T12:24:01Z</time><name>PT3729</name></trkpt>
<trkpt lat="53.359362" lon="-1.915174"><ele>453</ele><time>2021-10-01T12:24:02Z</time><name>PT3730</name></trkpt>
<trkpt lat="53.359357" lon="-1.915164"><ele>452</ele><time>2021-10-01T12:24:03Z</time><name>PT3731</name></trkpt>
<trkpt lat="53.359348" lon="-1.915156"><ele>452</ele><time>2021-10-01T12:24:04Z</time><name>PT3732</name></trkpt>
<trkpt lat="53.359338" lon="-1.915145"><ele>452</ele><time>2021-10-01T12:24:05Z</time><name>PT3733</name></trkpt>
<trkpt lat="53.359333" lon="-1.915135"><ele>452</ele><time>2021-10-01T12:24:06Z</time><name>PT3734</name></trkpt>
<trkpt lat="53.359326" lon="-1.915124"><ele>451</ele><time>2021-10-01T12:24:07Z</time><name>PT3735</name></trkpt>
<trkpt lat="53.359320" lon="-1.915118"><ele>451</ele><time>2021-10-01T12:24:08Z</time><name>PT3736</name></trkpt>
<trkpt lat="53.359314" lon="-1.915112"><ele>450</ele><time>2021-10-01T12:24:09Z</time><name>PT3737</name></trkpt>
<trkpt lat="53.359309" lon="-1.915110"><ele>449</ele><time>2021-10-01T12:24:10Z</time><name>PT3738</name></trkpt>
<trkpt lat="53.359300" lon="-1.915103"><ele>448</ele><time>2021-10-01T12:24:11Z</time><name>PT3739</name></trkpt>
<trkpt lat="53.359293" lon="-1.915095"><ele>448</ele><time>2021-10-01T12:24:12Z</time><name>PT3740</name></trkpt>
<trkpt lat="53.359288" lon="-1.915086"><ele>447</ele><time>2021-10-01T12:24:13Z</time><name>PT3741</name></trkpt>
<trkpt lat="53.359284" lon="-1.915078"><ele>447</ele><time>2021-10-01T12:24:14Z</time><name>PT3742</name></trkpt>
<trkpt lat="53.359277" lon="-1.915070"><ele>447</ele><time>2021-10-01T12:24:15Z</time><name>PT3743</name></trkpt>
<trkpt lat="53.359272" lon="-1.915067"><ele>446</ele><time>2021-10-01T12:24:16Z</time><name>PT3744</name></trkpt>
<trkpt lat="53.359266" lon="-1.915062"><ele>446</ele><time>2021-10-01T12:24:17Z</time><name>PT3745</name></trkpt>
<trkpt lat="53.359255" lon="-1.915053"><ele>445</ele><time>2021-10-01T12:24:18Z</time><name>PT3746</name></trkpt>
<trkpt lat="53.359246" lon="-1.915044"><ele>445</ele><time>2021-10-01T12:24:19Z</time><name>PT3747</name></trkpt>
<trkpt lat="53.359240" lon="-1.915036"><ele>444</ele><time>2021-10-01T12:24:20Z</time><name>PT3748</name></trkpt>
<trkpt lat="53.359231" lon="-1.915028"><ele>444</ele><time>2021-10-01T12:24:21Z</time><name>PT3749</name></trkpt>
<trkpt lat="53.359223" lon="-1.915020"><ele>443</ele><time>2021-10-01T12:24:22Z</time><name>PT3750</name></trkpt>
<trkpt lat="53.359214" lon="-1.915010"><ele>443</ele><time>2021-10-01T12:24:23Z</time><name>PT3751</name></trkpt>
<trkpt lat="53.359204" lon="-1.915000"><ele>443</ele><time>2021-10-01T12:24:24Z</time><name>PT3752</name></trkpt>
<trkpt lat="53.359193" lon="-1.914990"><ele>443</ele><time>2021-10-01T12:24:25Z</time><name>PT3753</name></trkpt>
<trkpt lat="53.359185" lon="-1.914982"><ele>443</ele><time>2021-10-01T12:24:26Z</time><name>PT3754</name></trkpt>
<trkpt lat="53.359176" lon="-1.914973"><ele>443</ele><time>2021-10-01T12:24:27Z</time><name>PT3755</name></trkpt>
<trkpt lat="53.359168" lon="-1.914967"><ele>442</ele><time>2021-10-01T12:24:28Z</time><name>PT3756</name></trkpt>
<trkpt lat="53.359158" lon="-1.914959"><ele>442</ele><time>2021-10-01T12:24:29Z</time><name>PT3757</name></trkpt>
<trkpt lat="53.359149" lon="-1.914949"><ele>442</ele><time>2021-10-01T12:24:30Z</time><name>PT3758</name></trkpt>
<trkpt lat="53.359140" lon="-1.914941"><ele>442</ele><time>2021-10-01T12:24:31Z</time><name>PT3759</name></trkpt>
<trkpt lat="53.359132" lon="-1.914933"><ele>442</ele><time>2021-10-01T12:24:32Z</time><name>PT3760</name></trkpt>
<trkpt lat="53.359123" lon="-1.914925"><ele>441</ele><time>2021-10-01T12:24:33Z</time><name>PT3761</name></trkpt>
<trkpt lat="53.359111" lon="-1.914917"><ele>441</ele><time>2021-10-01T12:24:34Z</time><name>PT3762</name></trkpt>
<trkpt lat="53.359102" lon="-1.914908"><ele>441</ele><time>2021-10-01T12:24:35Z</time><name>PT3763</name></trkpt>
<trkpt lat="53.359093" lon="-1.914898"><ele>441</ele><time>2021-10-01T12:24:36Z</time><name>PT3764</name></trkpt>
<trkpt lat="53.359085" lon="-1.914889"><ele>441</ele><time>2021-10-01T12:24:37Z</time><name>PT3765</name></trkpt>
<trkpt lat="53.359075" lon="-1.914875"><ele>441</ele><time>2021-10-01T12:24:38Z</time><name>PT3766</name></trkpt>
<trkpt lat="53.359067" lon="-1.914866"><ele>440</ele><time>2021-10-01T12:24:39Z</time><name>PT3767</name></trkpt>
<trkpt lat="53.359059" lon="-1.914856"><ele>440</ele><time>2021-10-01T12:24:40Z</time><name>PT3768</name></trkpt>
<trkpt lat="53.359049" lon="-1.914848"><ele>440</ele><time>2021-10-01T12:24:41Z</time><name>PT3769</name></trkpt>
<trkpt lat="53.359041" lon="-1.914842"><ele>440</ele><time>2021-10-01T12:24:42Z</time><name>PT3770</name></trkpt>
<trkpt lat="53.359035" lon="-1.914835"><ele>440</ele><time>2021-10-01T12:24:43Z</time><name>PT3771</name></trkpt>
<trkpt lat="53.359029" lon="-1.914833"><ele>439</ele><time>2021-10-01T12:24:44Z</time><name>PT3772</name></trkpt>
<trkpt lat="53.359021" lon="-1.914826"><ele>439</ele><time>2021-10-01T12:24:45Z</time><name>PT3773</name></trkpt>
<trkpt lat="53.359010" lon="-1.914817"><ele>439</ele><time>2021-10-01T12:24:46Z</time><name>PT3774</name></trkpt>
<trkpt lat="53.359003" lon="-1.914814"><ele>439</ele><time>2021-10-01T12:24:47Z</time><name>PT3775</name></trkpt>
<trkpt lat="53.358996" lon="-1.914812"><ele>437</ele><time>2021-10-01T12:24:48Z</time><name>PT3776</name></trkpt>
<trkpt lat="53.358986" lon="-1.914805"><ele>437</ele><time>2021-10-01T12:24:49Z</time><name>PT3777</name></trkpt>
<trkpt lat="53.358976" lon="-1.914797"><ele>437</ele><time>2021-10-01T12:24:50Z</time><name>PT3778</name></trkpt>
<trkpt lat="53.358967" lon="-1.914789"><ele>437</ele><time>2021-10-01T12:24:51Z</time><name>PT3779</name></trkpt>
<trkpt lat="53.358958" lon="-1.914780"><ele>437</ele><time>2021-10-01T12:24:52Z</time><name>PT3780</name></trkpt>
<trkpt lat="53.358953" lon="-1.914774"><ele>437</ele><time>2021-10-01T12:24:53Z</time><name>PT3781</name></trkpt>
<trkpt lat="53.358944" lon="-1.914765"><ele>436</ele><time>2021-10-01T12:24:54Z</time><name>PT3782</name></trkpt>
<trkpt lat="53.358936" lon="-1.914759"><ele>436</ele><time>2021-10-01T12:24:55Z</time><name>PT3783</name></trkpt>
<trkpt lat="53.358926" lon="-1.914752"><ele>435</ele><time>2021-10-01T12:24:56Z</time><name>PT3784</name></trkpt>
<trkpt lat="53.358916" lon="-1.914746"><ele>435</ele><time>2021-10-01T12:24:57Z</time><name>PT3785</name></trkpt>
<trkpt lat="53.358908" lon="-1.914738"><ele>434</ele><time>2021-10-01T12:24:58Z</time><name>PT3786</name></trkpt>
<trkpt lat="53.358900" lon="-1.914732"><ele>434</ele><time>2021-10-01T12:24:59Z</time><name>PT3787</name></trkpt>
<trkpt lat="53.358890" lon="-1.914721"><ele>434</ele><time>2021-10-01T12:25:00Z</time><name>PT3788</name></trkpt>
<trkpt lat="53.358882" lon="-1.914711"><ele>434</ele><time>2021-10-01T12:25:01Z</time><name>PT3789</name></trkpt>
<trkpt lat="53.358869" lon="-1.914700"><ele>434</ele><time>2021-10-01T12:25:02Z</time><name>PT3790</name></trkpt>
<trkpt lat="53.358857" lon="-1.914688"><ele>433</ele><time>2021-10-01T12:25:03Z</time><name>PT3791</name></trkpt>
<trkpt lat="53.358846" lon="-1.914677"><ele>432</ele><time>2021-10-01T12:25:04Z</time><name>PT3792</name></trkpt>
<trkpt lat="53.358834" lon="-1.914666"><ele>432</ele><time>2021-10-01T12:25:05Z</time><name>PT3793</name></trkpt>
<trkpt lat="53.358823" lon="-1.914654"><ele>432</ele><time>2021-10-01T12:25:06Z</time><name>PT3794</name></trkpt>
<trkpt lat="53.358815" lon="-1.914644"><ele>432</ele><time>2021-10-01T12:25:07Z</time><name>PT3795</name></trkpt>
<trkpt lat="53.358806" lon="-1.914635"><ele>432</ele><time>2021-10-01T12:25:08Z</time><name>PT3796</name></trkpt>
<trkpt lat="53.358793" lon="-1.914628"><ele>433</ele><time>2021-10-01T12:25:09Z</time><name>PT3797</name></trkpt>
<trkpt lat="53.358783" lon="-1.914618"><ele>433</ele><time>2021-10-01T12:25:10Z</time><name>PT3798</name></trkpt>
<trkpt lat="53.358773" lon="-1.914607"><ele>431</ele><time>2021-10-01T12:25:11Z</time><name>PT3799</name></trkpt>
<trkpt lat="53.358764" lon="-1.914598"><ele>431</ele><time>2021-10-01T12:25:12Z</time><name>PT3800</name></trkpt>
<trkpt lat="53.358755" lon="-1.914586"><ele>431</ele><time>2021-10-01T12:25:13Z</time><name>PT3801</name></trkpt>
<trkpt lat="53.358748" lon="-1.914574"><ele>430</ele><time>2021-10-01T12:25:14Z</time><name>PT3802</name></trkpt>
<trkpt lat="53.358739" lon="-1.914561"><ele>429</ele><time>2021-10-01T12:25:15Z</time><name>PT3803</name></trkpt>
<trkpt lat="53.358733" lon="-1.914550"><ele>428</ele><time>2021-10-01T12:25:16Z</time><name>PT3804</name></trkpt>
<trkpt lat="53.358723" lon="-1.914538"><ele>428</ele><time>2021-10-01T12:25:17Z</time><name>PT3805</name></trkpt>
<trkpt lat="53.358718" lon="-1.914529"><ele>428</ele><time>2021-10-01T12:25:18Z</time><name>PT3806</name></trkpt>
<trkpt lat="53.358706" lon="-1.914516"><ele>431</ele><time>2021-10-01T12:25:19Z</time><name>PT3807</name></trkpt>
<trkpt lat="53.358696" lon="-1.914491"><ele>431</ele><time>2021-10-01T12:25:20Z</time><name>PT3808</name></trkpt>
<trkpt lat="53.358688" lon="-1.914481"><ele>432</ele><time>2021-10-01T12:25:21Z</time><name>PT3809</name></trkpt>
<trkpt lat="53.358682" lon="-1.914474"><ele>433</ele><time>2021-10-01T12:25:22Z</time><name>PT3810</name></trkpt>
<trkpt lat="53.358677" lon="-1.914458"><ele>433</ele><time>2021-10-01T12:25:23Z</time><name>PT3811</name></trkpt>
<trkpt lat="53.358664" lon="-1.914439"><ele>433</ele><time>2021-10-01T12:25:24Z</time><name>PT3812</name></trkpt>
<trkpt lat="53.358666" lon="-1.914419"><ele>434</ele><time>2021-10-01T12:25:25Z</time><name>PT3813</name></trkpt>
<trkpt lat="53.358669" lon="-1.914400"><ele>434</ele><time>2021-10-01T12:25:26Z</time><name>PT3814</name></trkpt>
<trkpt lat="53.358672" lon="-1.914382"><ele>433</ele><time>2021-10-01T12:25:27Z</time><name>PT3815</name></trkpt>
<trkpt lat="53.358678" lon="-1.914365"><ele>434</ele><time>2021-10-01T12:25:28Z</time><name>PT3816</name></trkpt>
<trkpt lat="53.358682" lon="-1.914352"><ele>434</ele><time>2021-10-01T12:25:29Z</time><name>PT3817</name></trkpt>
<trkpt lat="53.358686" lon="-1.914343"><ele>433</ele><time>2021-10-01T12:25:30Z</time><name>PT3818</name></trkpt>
<trkpt lat="53.358690" lon="-1.914325"><ele>433</ele><time>2021-10-01T12:25:31Z</time><name>PT3819</name></trkpt>
<trkpt lat="53.358692" lon="-1.914312"><ele>433</ele><time>2021-10-01T12:25:32Z</time><name>PT3820</name></trkpt>
<trkpt lat="53.358693" lon="-1.914300"><ele>432</ele><time>2021-10-01T12:25:33Z</time><name>PT3821</name></trkpt>
<trkpt lat="53.358694" lon="-1.914288"><ele>433</ele><time>2021-10-01T12:25:34Z</time><name>PT3822</name></trkpt>
<trkpt lat="53.358696" lon="-1.914279"><ele>433</ele><time>2021-10-01T12:25:35Z</time><name>PT3823</name></trkpt>
<trkpt lat="53.358695" lon="-1.914272"><ele>432</ele><time>2021-10-01T12:25:36Z</time><name>PT3824</name></trkpt>
<trkpt lat="53.358694" lon="-1.914268"><ele>432</ele><time>2021-10-01T12:25:38Z</time><name>PT3825</name></trkpt>
<trkpt lat="53.358695" lon="-1.914255"><ele>432</ele><time>2021-10-01T12:25:39Z</time><name>PT3826</name></trkpt>
<trkpt lat="53.358700" lon="-1.914246"><ele>432</ele><time>2021-10-01T12:25:40Z</time><name>PT3827</name></trkpt>
<trkpt lat="53.358703" lon="-1.914239"><ele>432</ele><time>2021-10-01T12:25:41Z</time><name>PT3828</name></trkpt>
<trkpt lat="53.358702" lon="-1.914229"><ele>432</ele><time>2021-10-01T12:25:42Z</time><name>PT3829</name></trkpt>
<trkpt lat="53.358705" lon="-1.914225"><ele>432</ele><time>2021-10-01T12:25:43Z</time><name>PT3830</name></trkpt>
<trkpt lat="53.358712" lon="-1.914228"><ele>432</ele><time>2021-10-01T12:25:44Z</time><name>PT3831</name></trkpt>
<trkpt lat="53.358719" lon="-1.914230"><ele>432</ele><time>2021-10-01T12:25:45Z</time><name>PT3832</name></trkpt>
<trkpt lat="53.358725" lon="-1.914226"><ele>432</ele><time>2021-10-01T12:25:46Z</time><name>PT3833</name></trkpt>
<trkpt lat="53.358730" lon="-1.914224"><ele>432</ele><time>2021-10-01T12:25:47Z</time><name>PT3834</name></trkpt>
<trkpt lat="53.358732" lon="-1.914223"><ele>432</ele><time>2021-10-01T12:25:48Z</time><name>PT3835</name></trkpt>
<trkpt lat="53.358733" lon="-1.914223"><ele>432</ele><time>2021-10-01T12:25:49Z</time><name>PT3836</name></trkpt>
<trkpt lat="53.358734" lon="-1.914224"><ele>432</ele><time>2021-10-01T12:25:50Z</time><name>PT3837</name></trkpt>
<trkpt lat="53.358731" lon="-1.914226"><ele>432</ele><time>2021-10-01T12:25:55Z</time><name>PT3838</name></trkpt>
<trkpt lat="53.358722" lon="-1.914238"><ele>432</ele><time>2021-10-01T12:25:56Z</time><name>PT3839</name></trkpt>
<trkpt lat="53.358717" lon="-1.914247"><ele>432</ele><time>2021-10-01T12:25:57Z</time><name>PT3840</name></trkpt>
<trkpt lat="53.358710" lon="-1.914256"><ele>432</ele><time>2021-10-01T12:25:58Z</time><name>PT3841</name></trkpt>
<trkpt lat="53.358708" lon="-1.914252"><ele>432</ele><time>2021-10-01T12:25:59Z</time><name>PT3842</name></trkpt>
<trkpt lat="53.358709" lon="-1.914244"><ele>432</ele><time>2021-10-01T12:26:00Z</time><name>PT3843</name></trkpt>
<trkpt lat="53.358710" lon="-1.914231"><ele>432</ele><time>2021-10-01T12:26:01Z</time><name>PT3844</name></trkpt>
<trkpt lat="53.358710" lon="-1.914216"><ele>432</ele><time>2021-10-01T12:26:02Z</time><name>PT3845</name></trkpt>
<trkpt lat="53.358709" lon="-1.914198"><ele>431</ele><time>2021-10-01T12:26:03Z</time><name>PT3846</name></trkpt>
<trkpt lat="53.358711" lon="-1.914180"><ele>431</ele><time>2021-10-01T12:26:04Z</time><name>PT3847</name></trkpt>
<trkpt lat="53.358712" lon="-1.914164"><ele>431</ele><time>2021-10-01T12:26:05Z</time><name>PT3848</name></trkpt>
<trkpt lat="53.358714" lon="-1.914144"><ele>431</ele><time>2021-10-01T12:26:06Z</time><name>PT3849</name></trkpt>
<trkpt lat="53.358714" lon="-1.914132"><ele>431</ele><time>2021-10-01T12:26:07Z</time><name>PT3850</name></trkpt>
<trkpt lat="53.358715" lon="-1.914119"><ele>431</ele><time>2021-10-01T12:26:08Z</time><name>PT3851</name></trkpt>
<trkpt lat="53.358717" lon="-1.914103"><ele>431</ele><time>2021-10-01T12:26:09Z</time><name>PT3852</name></trkpt>
<trkpt lat="53.358719" lon="-1.914084"><ele>431</ele><time>2021-10-01T12:26:10Z</time><name>PT3853</name></trkpt>
<trkpt lat="53.358718" lon="-1.914070"><ele>431</ele><time>2021-10-01T12:26:11Z</time><name>PT3854</name></trkpt>
<trkpt lat="53.358718" lon="-1.914056"><ele>431</ele><time>2021-10-01T12:26:12Z</time><name>PT3855</name></trkpt>
<trkpt lat="53.358718" lon="-1.914038"><ele>431</ele><time>2021-10-01T12:26:13Z</time><name>PT3856</name></trkpt>
<trkpt lat="53.358720" lon="-1.914018"><ele>431</ele><time>2021-10-01T12:26:14Z</time><name>PT3857</name></trkpt>
<trkpt lat="53.358722" lon="-1.913999"><ele>431</ele><time>2021-10-01T12:26:15Z</time><name>PT3858</name></trkpt>
<trkpt lat="53.358722" lon="-1.913980"><ele>431</ele><time>2021-10-01T12:26:16Z</time><name>PT3859</name></trkpt>
<trkpt lat="53.358724" lon="-1.913963"><ele>432</ele><time>2021-10-01T12:26:17Z</time><name>PT3860</name></trkpt>
<trkpt lat="53.358726" lon="-1.913948"><ele>431</ele><time>2021-10-01T12:26:18Z</time><name>PT3861</name></trkpt>
<trkpt lat="53.358728" lon="-1.913932"><ele>432</ele><time>2021-10-01T12:26:19Z</time><name>PT3862</name></trkpt>
<trkpt lat="53.358730" lon="-1.913915"><ele>431</ele><time>2021-10-01T12:26:20Z</time><name>PT3863</name></trkpt>
<trkpt lat="53.358731" lon="-1.913902"><ele>431</ele><time>2021-10-01T12:26:21Z</time><name>PT3864</name></trkpt>
<trkpt lat="53.358729" lon="-1.913891"><ele>431</ele><time>2021-10-01T12:26:22Z</time><name>PT3865</name></trkpt>
<trkpt lat="53.358727" lon="-1.913873"><ele>431</ele><time>2021-10-01T12:26:23Z</time><name>PT3866</name></trkpt>
<trkpt lat="53.358726" lon="-1.913868"><ele>431</ele><time>2021-10-01T12:26:24Z</time><name>PT3867</name></trkpt>
<trkpt lat="53.358724" lon="-1.913861"><ele>431</ele><time>2021-10-01T12:26:25Z</time><name>PT3868</name></trkpt>
<trkpt lat="53.358721" lon="-1.913853"><ele>431</ele><time>2021-10-01T12:26:26Z</time><name>PT3869</name></trkpt>
<trkpt lat="53.358714" lon="-1.913839"><ele>430</ele><time>2021-10-01T12:26:27Z</time><name>PT3870</name></trkpt>
<trkpt lat="53.358712" lon="-1.913834"><ele>430</ele><time>2021-10-01T12:26:28Z</time><name>PT3871</name></trkpt>
<trkpt lat="53.358707" lon="-1.913820"><ele>430</ele><time>2021-10-01T12:26:29Z</time><name>PT3872</name></trkpt>
<trkpt lat="53.358703" lon="-1.913808"><ele>430</ele><time>2021-10-01T12:26:30Z</time><name>PT3873</name></trkpt>
<trkpt lat="53.358699" lon="-1.913806"><ele>430</ele><time>2021-10-01T12:26:31Z</time><name>PT3874</name></trkpt>
<trkpt lat="53.358695" lon="-1.913802"><ele>430</ele><time>2021-10-01T12:26:32Z</time><name>PT3875</name></trkpt>
<trkpt lat="53.358686" lon="-1.913793"><ele>429</ele><time>2021-10-01T12:26:33Z</time><name>PT3876</name></trkpt>
<trkpt lat="53.358678" lon="-1.913785"><ele>429</ele><time>2021-10-01T12:26:34Z</time><name>PT3877</name></trkpt>
<trkpt lat="53.358671" lon="-1.913781"><ele>429</ele><time>2021-10-01T12:26:35Z</time><name>PT3878</name></trkpt>
<trkpt lat="53.358665" lon="-1.913776"><ele>429</ele><time>2021-10-01T12:26:36Z</time><name>PT3879</name></trkpt>
<trkpt lat="53.358659" lon="-1.913771"><ele>429</ele><time>2021-10-01T12:26:37Z</time><name>PT3880</name></trkpt>
<trkpt lat="53.358655" lon="-1.913769"><ele>430</ele><time>2021-10-01T12:26:38Z</time><name>PT3881</name></trkpt>
<trkpt lat="53.358649" lon="-1.913764"><ele>429</ele><time>2021-10-01T12:26:39Z</time><name>PT3882</name></trkpt>
<trkpt lat="53.358643" lon="-1.913756"><ele>429</ele><time>2021-10-01T12:26:40Z</time><name>PT3883</name></trkpt>
<trkpt lat="53.358637" lon="-1.913749"><ele>430</ele><time>2021-10-01T12:26:41Z</time><name>PT3884</name></trkpt>
<trkpt lat="53.358631" lon="-1.913735"><ele>431</ele><time>2021-10-01T12:26:42Z</time><name>PT3885</name></trkpt>
<trkpt lat="53.358628" lon="-1.913718"><ele>431</ele><time>2021-10-01T12:26:43Z</time><name>PT3886</name></trkpt>
<trkpt lat="53.358625" lon="-1.913706"><ele>431</ele><time>2021-10-01T12:26:44Z</time><name>PT3887</name></trkpt>
<trkpt lat="53.358623" lon="-1.913697"><ele>431</ele><time>2021-10-01T12:26:45Z</time><name>PT3888</name></trkpt>
<trkpt lat="53.358621" lon="-1.913687"><ele>431</ele><time>2021-10-01T12:26:46Z</time><name>PT3889</name></trkpt>
<trkpt lat="53.358618" lon="-1.913678"><ele>431</ele><time>2021-10-01T12:26:47Z</time><name>PT3890</name></trkpt>
<trkpt lat="53.358616" lon="-1.913666"><ele>431</ele><time>2021-10-01T12:26:48Z</time><name>PT3891</name></trkpt>
<trkpt lat="53.358610" lon="-1.913655"><ele>431</ele><time>2021-10-01T12:26:49Z</time><name>PT3892</name></trkpt>
<trkpt lat="53.358608" lon="-1.913643"><ele>431</ele><time>2021-10-01T12:26:50Z</time><name>PT3893</name></trkpt>
<trkpt lat="53.358605" lon="-1.913628"><ele>431</ele><time>2021-10-01T12:26:51Z</time><name>PT3894</name></trkpt>
<trkpt lat="53.358601" lon="-1.913620"><ele>432</ele><time>2021-10-01T12:26:52Z</time><name>PT3895</name></trkpt>
<trkpt lat="53.358595" lon="-1.913614"><ele>431</ele><time>2021-10-01T12:26:53Z</time><name>PT3896</name></trkpt>
<trkpt lat="53.358592" lon="-1.913602"><ele>431</ele><time>2021-10-01T12:26:54Z</time><name>PT3897</name></trkpt>
<trkpt lat="53.358586" lon="-1.913568"><ele>432</ele><time>2021-10-01T12:26:55Z</time><name>PT3898</name></trkpt>
<trkpt lat="53.358578" lon="-1.913558"><ele>431</ele><time>2021-10-01T12:26:56Z</time><name>PT3899</name></trkpt>
<trkpt lat="53.358571" lon="-1.913550"><ele>431</ele><time>2021-10-01T12:26:57Z</time><name>PT3900</name></trkpt>
<trkpt lat="53.358566" lon="-1.913542"><ele>432</ele><time>2021-10-01T12:26:58Z</time><name>PT3901</name></trkpt>
<trkpt lat="53.358561" lon="-1.913528"><ele>433</ele><time>2021-10-01T12:26:59Z</time><name>PT3902</name></trkpt>
<trkpt lat="53.358554" lon="-1.913520"><ele>433</ele><time>2021-10-01T12:27:00Z</time><name>PT3903</name></trkpt>
<trkpt lat="53.358546" lon="-1.913510"><ele>434</ele><time>2021-10-01T12:27:01Z</time><name>PT3904</name></trkpt>
<trkpt lat="53.358540" lon="-1.913502"><ele>434</ele><time>2021-10-01T12:27:02Z</time><name>PT3905</name></trkpt>
<trkpt lat="53.358534" lon="-1.913492"><ele>435</ele><time>2021-10-01T12:27:03Z</time><name>PT3906</name></trkpt>
<trkpt lat="53.358526" lon="-1.913485"><ele>435</ele><time>2021-10-01T12:27:04Z</time><name>PT3907</name></trkpt>
<trkpt lat="53.358517" lon="-1.913474"><ele>436</ele><time>2021-10-01T12:27:05Z</time><name>PT3908</name></trkpt>
<trkpt lat="53.358510" lon="-1.913462"><ele>435</ele><time>2021-10-01T12:27:06Z</time><name>PT3909</name></trkpt>
<trkpt lat="53.358504" lon="-1.913451"><ele>436</ele><time>2021-10-01T12:27:07Z</time><name>PT3910</name></trkpt>
<trkpt lat="53.358498" lon="-1.913441"><ele>436</ele><time>2021-10-01T12:27:08Z</time><name>PT3911</name></trkpt>
<trkpt lat="53.358491" lon="-1.913431"><ele>436</ele><time>2021-10-01T12:27:09Z</time><name>PT3912</name></trkpt>
<trkpt lat="53.358481" lon="-1.913421"><ele>437</ele><time>2021-10-01T12:27:10Z</time><name>PT3913</name></trkpt>
<trkpt lat="53.358473" lon="-1.913409"><ele>437</ele><time>2021-10-01T12:27:11Z</time><name>PT3914</name></trkpt>
<trkpt lat="53.358467" lon="-1.913397"><ele>437</ele><time>2021-10-01T12:27:12Z</time><name>PT3915</name></trkpt>
<trkpt lat="53.358460" lon="-1.913386"><ele>437</ele><time>2021-10-01T12:27:13Z</time><name>PT3916</name></trkpt>
<trkpt lat="53.358453" lon="-1.913375"><ele>437</ele><time>2021-10-01T12:27:14Z</time><name>PT3917</name></trkpt>
<trkpt lat="53.358447" lon="-1.913363"><ele>438</ele><time>2021-10-01T12:27:15Z</time><name>PT3918</name></trkpt>
<trkpt lat="53.358439" lon="-1.913351"><ele>438</ele><time>2021-10-01T12:27:16Z</time><name>PT3919</name></trkpt>
<trkpt lat="53.358431" lon="-1.913342"><ele>438</ele><time>2021-10-01T12:27:17Z</time><name>PT3920</name></trkpt>
<trkpt lat="53.358425" lon="-1.913331"><ele>439</ele><time>2021-10-01T12:27:18Z</time><name>PT3921</name></trkpt>
<trkpt lat="53.358420" lon="-1.913320"><ele>439</ele><time>2021-10-01T12:27:19Z</time><name>PT3922</name></trkpt>
<trkpt lat="53.358415" lon="-1.913308"><ele>440</ele><time>2021-10-01T12:27:20Z</time><name>PT3923</name></trkpt>
<trkpt lat="53.358410" lon="-1.913303"><ele>440</ele><time>2021-10-01T12:27:21Z</time><name>PT3924</name></trkpt>
<trkpt lat="53.358403" lon="-1.913293"><ele>440</ele><time>2021-10-01T12:27:22Z</time><name>PT3925</name></trkpt>
<trkpt lat="53.358395" lon="-1.913281"><ele>440</ele><time>2021-10-01T12:27:23Z</time><name>PT3926</name></trkpt>
<trkpt lat="53.358389" lon="-1.913271"><ele>440</ele><time>2021-10-01T12:27:24Z</time><name>PT3927</name></trkpt>
<trkpt lat="53.358383" lon="-1.913260"><ele>440</ele><time>2021-10-01T12:27:25Z</time><name>PT3928</name></trkpt>
<trkpt lat="53.358378" lon="-1.913250"><ele>440</ele><time>2021-10-01T12:27:26Z</time><name>PT3929</name></trkpt>
<trkpt lat="53.358373" lon="-1.913241"><ele>441</ele><time>2021-10-01T12:27:27Z</time><name>PT3930</name></trkpt>
<trkpt lat="53.358370" lon="-1.913232"><ele>441</ele><time>2021-10-01T12:27:28Z</time><name>PT3931</name></trkpt>
<trkpt lat="53.358365" lon="-1.913223"><ele>441</ele><time>2021-10-01T12:27:29Z</time><name>PT3932</name></trkpt>
<trkpt lat="53.358356" lon="-1.913212"><ele>441</ele><time>2021-10-01T12:27:30Z</time><name>PT3933</name></trkpt>
<trkpt lat="53.358352" lon="-1.913204"><ele>441</ele><time>2021-10-01T12:27:31Z</time><name>PT3934</name></trkpt>
<trkpt lat="53.358347" lon="-1.913196"><ele>441</ele><time>2021-10-01T12:27:32Z</time><name>PT3935</name></trkpt>
<trkpt lat="53.358339" lon="-1.913188"><ele>442</ele><time>2021-10-01T12:27:33Z</time><name>PT3936</name></trkpt>
<trkpt lat="53.358333" lon="-1.913177"><ele>442</ele><time>2021-10-01T12:27:34Z</time><name>PT3937</name></trkpt>
<trkpt lat="53.358329" lon="-1.913164"><ele>443</ele><time>2021-10-01T12:27:35Z</time><name>PT3938</name></trkpt>
<trkpt lat="53.358322" lon="-1.913154"><ele>443</ele><time>2021-10-01T12:27:36Z</time><name>PT3939</name></trkpt>
<trkpt lat="53.358316" lon="-1.913143"><ele>443</ele><time>2021-10-01T12:27:37Z</time><name>PT3940</name></trkpt>
<trkpt lat="53.358309" lon="-1.913130"><ele>443</ele><time>2021-10-01T12:27:38Z</time><name>PT3941</name></trkpt>
<trkpt lat="53.358304" lon="-1.913118"><ele>444</ele><time>2021-10-01T12:27:39Z</time><name>PT3942</name></trkpt>
<trkpt lat="53.358302" lon="-1.913105"><ele>443</ele><time>2021-10-01T12:27:40Z</time><name>PT3943</name></trkpt>
<trkpt lat="53.358299" lon="-1.913093"><ele>444</ele><time>2021-10-01T12:27:41Z</time><name>PT3944</name></trkpt>
<trkpt lat="53.358295" lon="-1.913079"><ele>444</ele><time>2021-10-01T12:27:42Z</time><name>PT3945</name></trkpt>
<trkpt lat="53.358294" lon="-1.913064"><ele>444</ele><time>2021-10-01T12:27:43Z</time><name>PT3946</name></trkpt>
<trkpt lat="53.358292" lon="-1.913048"><ele>444</ele><time>2021-10-01T12:27:44Z</time><name>PT3947</name></trkpt>
<trkpt lat="53.358290" lon="-1.913033"><ele>444</ele><time>2021-10-01T12:27:45Z</time><name>PT3948</name></trkpt>
<trkpt lat="53.358287" lon="-1.913019"><ele>444</ele><time>2021-10-01T12:27:46Z</time><name>PT3949</name></trkpt>
<trkpt lat="53.358285" lon="-1.913004"><ele>444</ele><time>2021-10-01T12:27:47Z</time><name>PT3950</name></trkpt>
<trkpt lat="53.358284" lon="-1.912993"><ele>445</ele><time>2021-10-01T12:27:48Z</time><name>PT3951</name></trkpt>
<trkpt lat="53.358282" lon="-1.912980"><ele>444</ele><time>2021-10-01T12:27:49Z</time><name>PT3952</name></trkpt>
<trkpt lat="53.358280" lon="-1.912964"><ele>445</ele><time>2021-10-01T12:27:50Z</time><name>PT3953</name></trkpt>
<trkpt lat="53.358276" lon="-1.912950"><ele>445</ele><time>2021-10-01T12:27:51Z</time><name>PT3954</name></trkpt>
<trkpt lat="53.358276" lon="-1.912940"><ele>445</ele><time>2021-10-01T12:27:52Z</time><name>PT3955</name></trkpt>
<trkpt lat="53.358275" lon="-1.912924"><ele>445</ele><time>2021-10-01T12:27:53Z</time><name>PT3956</name></trkpt>
<trkpt lat="53.358273" lon="-1.912903"><ele>445</ele><time>2021-10-01T12:27:54Z</time><name>PT3957</name></trkpt>
<trkpt lat="53.358270" lon="-1.912882"><ele>445</ele><time>2021-10-01T12:27:55Z</time><name>PT3958</name></trkpt>
<trkpt lat="53.358268" lon="-1.912869"><ele>445</ele><time>2021-10-01T12:27:56Z</time><name>PT3959</name></trkpt>
<trkpt lat="53.358267" lon="-1.912854"><ele>445</ele><time>2021-10-01T12:27:57Z</time><name>PT3960</name></trkpt>
<trkpt lat="53.358269" lon="-1.912838"><ele>445</ele><time>2021-10-01T12:27:58Z</time><name>PT3961</name></trkpt>
<trkpt lat="53.358274" lon="-1.912821"><ele>445</ele><time>2021-10-01T12:27:59Z</time><name>PT3962</name></trkpt>
<trkpt lat="53.358277" lon="-1.912811"><ele>445</ele><time>2021-10-01T12:28:00Z</time><name>PT3963</name></trkpt>
<trkpt lat="53.358282" lon="-1.912796"><ele>445</ele><time>2021-10-01T12:28:01Z</time><name>PT3964</name></trkpt>
<trkpt lat="53.358287" lon="-1.912778"><ele>446</ele><time>2021-10-01T12:28:02Z</time><name>PT3965</name></trkpt>
<trkpt lat="53.358288" lon="-1.912760"><ele>446</ele><time>2021-10-01T12:28:03Z</time><name>PT3966</name></trkpt>
<trkpt lat="53.358287" lon="-1.912742"><ele>446</ele><time>2021-10-01T12:28:04Z</time><name>PT3967</name></trkpt>
<trkpt lat="53.358287" lon="-1.912723"><ele>446</ele><time>2021-10-01T12:28:05Z</time><name>PT3968</name></trkpt>
<trkpt lat="53.358289" lon="-1.912703"><ele>446</ele><time>2021-10-01T12:28:06Z</time><name>PT3969</name></trkpt>
<trkpt lat="53.358294" lon="-1.912687"><ele>446</ele><time>2021-10-01T12:28:07Z</time><name>PT3970</name></trkpt>
<trkpt lat="53.358296" lon="-1.912670"><ele>446</ele><time>2021-10-01T12:28:08Z</time><name>PT3971</name></trkpt>
<trkpt lat="53.358298" lon="-1.912652"><ele>446</ele><time>2021-10-01T12:28:09Z</time><name>PT3972</name></trkpt>
<trkpt lat="53.358301" lon="-1.912635"><ele>446</ele><time>2021-10-01T12:28:10Z</time><name>PT3973</name></trkpt>
<trkpt lat="53.358307" lon="-1.912618"><ele>446</ele><time>2021-10-01T12:28:11Z</time><name>PT3974</name></trkpt>
<trkpt lat="53.358313" lon="-1.912602"><ele>447</ele><time>2021-10-01T12:28:12Z</time><name>PT3975</name></trkpt>
<trkpt lat="53.358317" lon="-1.912585"><ele>447</ele><time>2021-10-01T12:28:13Z</time><name>PT3976</name></trkpt>
<trkpt lat="53.358320" lon="-1.912565"><ele>447</ele><time>2021-10-01T12:28:14Z</time><name>PT3977</name></trkpt>
<trkpt lat="53.358323" lon="-1.912550"><ele>447</ele><time>2021-10-01T12:28:15Z</time><name>PT3978</name></trkpt>
<trkpt lat="53.358327" lon="-1.912533"><ele>447</ele><time>2021-10-01T12:28:16Z</time><name>PT3979</name></trkpt>
<trkpt lat="53.358327" lon="-1.912518"><ele>447</ele><time>2021-10-01T12:28:17Z</time><name>PT3980</name></trkpt>
<trkpt lat="53.358324" lon="-1.912501"><ele>447</ele><time>2021-10-01T12:28:18Z</time><name>PT3981</name></trkpt>
<trkpt lat="53.358320" lon="-1.912482"><ele>447</ele><time>2021-10-01T12:28:19Z</time><name>PT3982</name></trkpt>
<trkpt lat="53.358317" lon="-1.912462"><ele>447</ele><time>2021-10-01T12:28:20Z</time><name>PT3983</name></trkpt>
<trkpt lat="53.358316" lon="-1.912442"><ele>448</ele><time>2021-10-01T12:28:21Z</time><name>PT3984</name></trkpt>
<trkpt lat="53.358314" lon="-1.912426"><ele>448</ele><time>2021-10-01T12:28:22Z</time><name>PT3985</name></trkpt>
<trkpt lat="53.358309" lon="-1.912412"><ele>447</ele><time>2021-10-01T12:28:23Z</time><name>PT3986</name></trkpt>
<trkpt lat="53.358304" lon="-1.912395"><ele>448</ele><time>2021-10-01T12:28:24Z</time><name>PT3987</name></trkpt>
<trkpt lat="53.358299" lon="-1.912380"><ele>448</ele><time>2021-10-01T12:28:25Z</time><name>PT3988</name></trkpt>
<trkpt lat="53.358294" lon="-1.912366"><ele>448</ele><time>2021-10-01T12:28:26Z</time><name>PT3989</name></trkpt>
<trkpt lat="53.358288" lon="-1.912353"><ele>448</ele><time>2021-10-01T12:28:27Z</time><name>PT3990</name></trkpt>
<trkpt lat="53.358284" lon="-1.912339"><ele>448</ele><time>2021-10-01T12:28:28Z</time><name>PT3991</name></trkpt>
<trkpt lat="53.358281" lon="-1.912323"><ele>448</ele><time>2021-10-01T12:28:29Z</time><name>PT3992</name></trkpt>
<trkpt lat="53.358276" lon="-1.912304"><ele>448</ele><time>2021-10-01T12:28:30Z</time><name>PT3993</name></trkpt>
<trkpt lat="53.358271" lon="-1.912291"><ele>448</ele><time>2021-10-01T12:28:31Z</time><name>PT3994</name></trkpt>
<trkpt lat="53.358266" lon="-1.912277"><ele>448</ele><time>2021-10-01T12:28:32Z</time><name>PT3995</name></trkpt>
<trkpt lat="53.358260" lon="-1.912263"><ele>448</ele><time>2021-10-01T12:28:33Z</time><name>PT3996</name></trkpt>
<trkpt lat="53.358258" lon="-1.912249"><ele>449</ele><time>2021-10-01T12:28:34Z</time><name>PT3997</name></trkpt>
<trkpt lat="53.358254" lon="-1.912236"><ele>449</ele><time>2021-10-01T12:28:35Z</time><name>PT3998</name></trkpt>
<trkpt lat="53.358252" lon="-1.912225"><ele>449</ele><time>2021-10-01T12:28:36Z</time><name>PT3999</name></trkpt>
<trkpt lat="53.358248" lon="-1.912210"><ele>449</ele><time>2021-10-01T12:28:37Z</time><name>PT4000</name></trkpt>
<trkpt lat="53.358246" lon="-1.912197"><ele>449</ele><time>2021-10-01T12:28:38Z</time><name>PT4001</name></trkpt>
<trkpt lat="53.358244" lon="-1.912182"><ele>449</ele><time>2021-10-01T12:28:39Z</time><name>PT4002</name></trkpt>
<trkpt lat="53.358242" lon="-1.912169"><ele>449</ele><time>2021-10-01T12:28:40Z</time><name>PT4003</name></trkpt>
<trkpt lat="53.358238" lon="-1.912156"><ele>449</ele><time>2021-10-01T12:28:41Z</time><name>PT4004</name></trkpt>
<trkpt lat="53.358235" lon="-1.912143"><ele>449</ele><time>2021-10-01T12:28:42Z</time><name>PT4005</name></trkpt>
<trkpt lat="53.358233" lon="-1.912130"><ele>449</ele><time>2021-10-01T12:28:43Z</time><name>PT4006</name></trkpt>
<trkpt lat="53.358232" lon="-1.912118"><ele>449</ele><time>2021-10-01T12:28:44Z</time><name>PT4007</name></trkpt>
<trkpt lat="53.358227" lon="-1.912105"><ele>450</ele><time>2021-10-01T12:28:45Z</time><name>PT4008</name></trkpt>
<trkpt lat="53.358224" lon="-1.912089"><ele>450</ele><time>2021-10-01T12:28:46Z</time><name>PT4009</name></trkpt>
<trkpt lat="53.358223" lon="-1.912073"><ele>450</ele><time>2021-10-01T12:28:47Z</time><name>PT4010</name></trkpt>
<trkpt lat="53.358219" lon="-1.912060"><ele>450</ele><time>2021-10-01T12:28:48Z</time><name>PT4011</name></trkpt>
<trkpt lat="53.358217" lon="-1.912047"><ele>450</ele><time>2021-10-01T12:28:49Z</time><name>PT4012</name></trkpt>
<trkpt lat="53.358217" lon="-1.912033"><ele>451</ele><time>2021-10-01T12:28:50Z</time><name>PT4013</name></trkpt>
<trkpt lat="53.358216" lon="-1.912022"><ele>451</ele><time>2021-10-01T12:28:51Z</time><name>PT4014</name></trkpt>
<trkpt lat="53.358214" lon="-1.912008"><ele>451</ele><time>2021-10-01T12:28:52Z</time><name>PT4015</name></trkpt>
<trkpt lat="53.358211" lon="-1.911995"><ele>451</ele><time>2021-10-01T12:28:53Z</time><name>PT4016</name></trkpt>
<trkpt lat="53.358205" lon="-1.911952"><ele>452</ele><time>2021-10-01T12:28:56Z</time><name>PT4017</name></trkpt>
<trkpt lat="53.358201" lon="-1.911910"><ele>453</ele><time>2021-10-01T12:28:59Z</time><name>PT4018</name></trkpt>
<trkpt lat="53.358198" lon="-1.911868"><ele>454</ele><time>2021-10-01T12:29:02Z</time><name>PT4019</name></trkpt>
<trkpt lat="53.358194" lon="-1.911826"><ele>454</ele><time>2021-10-01T12:29:06Z</time><name>PT4020</name></trkpt>
<trkpt lat="53.358187" lon="-1.911798"><ele>454</ele><time>2021-10-01T12:29:09Z</time><name>PT4021</name></trkpt>
<trkpt lat="53.358185" lon="-1.911790"><ele>453</ele><time>2021-10-01T12:29:10Z</time><name>PT4022</name></trkpt>
<trkpt lat="53.358183" lon="-1.911780"><ele>454</ele><time>2021-10-01T12:29:11Z</time><name>PT4023</name></trkpt>
<trkpt lat="53.358180" lon="-1.911770"><ele>454</ele><time>2021-10-01T12:29:12Z</time><name>PT4024</name></trkpt>
<trkpt lat="53.358177" lon="-1.911763"><ele>454</ele><time>2021-10-01T12:29:13Z</time><name>PT4025</name></trkpt>
<trkpt lat="53.358174" lon="-1.911751"><ele>454</ele><time>2021-10-01T12:29:14Z</time><name>PT4026</name></trkpt>
<trkpt lat="53.358172" lon="-1.911739"><ele>454</ele><time>2021-10-01T12:29:15Z</time><name>PT4027</name></trkpt>
<trkpt lat="53.358171" lon="-1.911728"><ele>455</ele><time>2021-10-01T12:29:16Z</time><name>PT4028</name></trkpt>
<trkpt lat="53.358167" lon="-1.911719"><ele>454</ele><time>2021-10-01T12:29:17Z</time><name>PT4029</name></trkpt>
<trkpt lat="53.358165" lon="-1.911712"><ele>455</ele><time>2021-10-01T12:29:18Z</time><name>PT4030</name></trkpt>
<trkpt lat="53.358162" lon="-1.911704"><ele>455</ele><time>2021-10-01T12:29:19Z</time><name>PT4031</name></trkpt>
<trkpt lat="53.358160" lon="-1.911693"><ele>455</ele><time>2021-10-01T12:29:20Z</time><name>PT4032</name></trkpt>
<trkpt lat="53.358158" lon="-1.911683"><ele>455</ele><time>2021-10-01T12:29:21Z</time><name>PT4033</name></trkpt>
<trkpt lat="53.358154" lon="-1.911672"><ele>455</ele><time>2021-10-01T12:29:22Z</time><name>PT4034</name></trkpt>
<trkpt lat="53.358152" lon="-1.911664"><ele>456</ele><time>2021-10-01T12:29:23Z</time><name>PT4035</name></trkpt>
<trkpt lat="53.358148" lon="-1.911656"><ele>456</ele><time>2021-10-01T12:29:24Z</time><name>PT4036</name></trkpt>
<trkpt lat="53.358146" lon="-1.911650"><ele>456</ele><time>2021-10-01T12:29:25Z</time><name>PT4037</name></trkpt>
<trkpt lat="53.358144" lon="-1.911641"><ele>457</ele><time>2021-10-01T12:29:26Z</time><name>PT4038</name></trkpt>
<trkpt lat="53.358141" lon="-1.911635"><ele>457</ele><time>2021-10-01T12:29:27Z</time><name>PT4039</name></trkpt>
<trkpt lat="53.358139" lon="-1.911630"><ele>457</ele><time>2021-10-01T12:29:28Z</time><name>PT4040</name></trkpt>
<trkpt lat="53.358138" lon="-1.911624"><ele>457</ele><time>2021-10-01T12:29:29Z</time><name>PT4041</name></trkpt>
<trkpt lat="53.358135" lon="-1.911615"><ele>458</ele><time>2021-10-01T12:29:30Z</time><name>PT4042</name></trkpt>
<trkpt lat="53.358133" lon="-1.911607"><ele>458</ele><time>2021-10-01T12:29:31Z</time><name>PT4043</name></trkpt>
<trkpt lat="53.358131" lon="-1.911600"><ele>458</ele><time>2021-10-01T12:29:32Z</time><name>PT4044</name></trkpt>
<trkpt lat="53.358128" lon="-1.911592"><ele>458</ele><time>2021-10-01T12:29:33Z</time><name>PT4045</name></trkpt>
<trkpt lat="53.358124" lon="-1.911582"><ele>459</ele><time>2021-10-01T12:29:34Z</time><name>PT4046</name></trkpt>
<trkpt lat="53.358120" lon="-1.911571"><ele>459</ele><time>2021-10-01T12:29:35Z</time><name>PT4047</name></trkpt>
<trkpt lat="53.358115" lon="-1.911561"><ele>460</ele><time>2021-10-01T12:29:36Z</time><name>PT4048</name></trkpt>
<trkpt lat="53.358112" lon="-1.911554"><ele>460</ele><time>2021-10-01T12:29:37Z</time><name>PT4049</name></trkpt>
<trkpt lat="53.358110" lon="-1.911547"><ele>460</ele><time>2021-10-01T12:29:38Z</time><name>PT4050</name></trkpt>
<trkpt lat="53.358106" lon="-1.911540"><ele>460</ele><time>2021-10-01T12:29:39Z</time><name>PT4051</name></trkpt>
<trkpt lat="53.358103" lon="-1.911533"><ele>460</ele><time>2021-10-01T12:29:40Z</time><name>PT4052</name></trkpt>
<trkpt lat="53.358099" lon="-1.911526"><ele>460</ele><time>2021-10-01T12:29:41Z</time><name>PT4053</name></trkpt>
<trkpt lat="53.358095" lon="-1.911517"><ele>460</ele><time>2021-10-01T12:29:42Z</time><name>PT4054</name></trkpt>
<trkpt lat="53.358092" lon="-1.911507"><ele>460</ele><time>2021-10-01T12:29:43Z</time><name>PT4055</name></trkpt>
<trkpt lat="53.358089" lon="-1.911501"><ele>460</ele><time>2021-10-01T12:29:44Z</time><name>PT4056</name></trkpt>
<trkpt lat="53.358087" lon="-1.911495"><ele>460</ele><time>2021-10-01T12:29:45Z</time><name>PT4057</name></trkpt>
<trkpt lat="53.358079" lon="-1.911485"><ele>460</ele><time>2021-10-01T12:29:46Z</time><name>PT4058</name></trkpt>
<trkpt lat="53.358074" lon="-1.911480"><ele>460</ele><time>2021-10-01T12:29:47Z</time><name>PT4059</name></trkpt>
<trkpt lat="53.358070" lon="-1.911474"><ele>460</ele><time>2021-10-01T12:29:48Z</time><name>PT4060</name></trkpt>
<trkpt lat="53.358066" lon="-1.911468"><ele>460</ele><time>2021-10-01T12:29:49Z</time><name>PT4061</name></trkpt>
<trkpt lat="53.358061" lon="-1.911459"><ele>460</ele><time>2021-10-01T12:29:50Z</time><name>PT4062</name></trkpt>
<trkpt lat="53.358058" lon="-1.911454"><ele>461</ele><time>2021-10-01T12:29:51Z</time><name>PT4063</name></trkpt>
<trkpt lat="53.358056" lon="-1.911447"><ele>461</ele><time>2021-10-01T12:29:52Z</time><name>PT4064</name></trkpt>
<trkpt lat="53.358052" lon="-1.911439"><ele>461</ele><time>2021-10-01T12:29:53Z</time><name>PT4065</name></trkpt>
<trkpt lat="53.358048" lon="-1.911429"><ele>462</ele><time>2021-10-01T12:29:54Z</time><name>PT4066</name></trkpt>
<trkpt lat="53.358044" lon="-1.911422"><ele>463</ele><time>2021-10-01T12:29:55Z</time><name>PT4067</name></trkpt>
<trkpt lat="53.358040" lon="-1.911414"><ele>463</ele><time>2021-10-01T12:29:56Z</time><name>PT4068</name></trkpt>
<trkpt lat="53.358037" lon="-1.911410"><ele>463</ele><time>2021-10-01T12:29:57Z</time><name>PT4069</name></trkpt>
<trkpt lat="53.358032" lon="-1.911410"><ele>463</ele><time>2021-10-01T12:29:58Z</time><name>PT4070</name></trkpt>
<trkpt lat="53.358029" lon="-1.911402"><ele>463</ele><time>2021-10-01T12:29:59Z</time><name>PT4071</name></trkpt>
<trkpt lat="53.358025" lon="-1.911394"><ele>463</ele><time>2021-10-01T12:30:00Z</time><name>PT4072</name></trkpt>
<trkpt lat="53.358022" lon="-1.911384"><ele>464</ele><time>2021-10-01T12:30:01Z</time><name>PT4073</name></trkpt>
<trkpt lat="53.358018" lon="-1.911380"><ele>464</ele><time>2021-10-01T12:30:02Z</time><name>PT4074</name></trkpt>
<trkpt lat="53.358015" lon="-1.911374"><ele>464</ele><time>2021-10-01T12:30:03Z</time><name>PT4075</name></trkpt>
<trkpt lat="53.358011" lon="-1.911365"><ele>464</ele><time>2021-10-01T12:30:04Z</time><name>PT4076</name></trkpt>
<trkpt lat="53.358006" lon="-1.911356"><ele>464</ele><time>2021-10-01T12:30:05Z</time><name>PT4077</name></trkpt>
<trkpt lat="53.358002" lon="-1.911346"><ele>464</ele><time>2021-10-01T12:30:06Z</time><name>PT4078</name></trkpt>
<trkpt lat="53.358001" lon="-1.911337"><ele>464</ele><time>2021-10-01T12:30:07Z</time><name>PT4079</name></trkpt>
<trkpt lat="53.357993" lon="-1.911322"><ele>464</ele><time>2021-10-01T12:30:08Z</time><name>PT4080</name></trkpt>
<trkpt lat="53.357992" lon="-1.911313"><ele>465</ele><time>2021-10-01T12:30:09Z</time><name>PT4081</name></trkpt>
<trkpt lat="53.357989" lon="-1.911299"><ele>465</ele><time>2021-10-01T12:30:10Z</time><name>PT4082</name></trkpt>
<trkpt lat="53.357987" lon="-1.911287"><ele>465</ele><time>2021-10-01T12:30:11Z</time><name>PT4083</name></trkpt>
<trkpt lat="53.357985" lon="-1.911282"><ele>465</ele><time>2021-10-01T12:30:12Z</time><name>PT4084</name></trkpt>
<trkpt lat="53.357981" lon="-1.911276"><ele>465</ele><time>2021-10-01T12:30:13Z</time><name>PT4085</name></trkpt>
<trkpt lat="53.357979" lon="-1.911272"><ele>466</ele><time>2021-10-01T12:30:14Z</time><name>PT4086</name></trkpt>
<trkpt lat="53.357975" lon="-1.911261"><ele>466</ele><time>2021-10-01T12:30:15Z</time><name>PT4087</name></trkpt>
<trkpt lat="53.357973" lon="-1.911251"><ele>466</ele><time>2021-10-01T12:30:16Z</time><name>PT4088</name></trkpt>
<trkpt lat="53.357972" lon="-1.911240"><ele>467</ele><time>2021-10-01T12:30:17Z</time><name>PT4089</name></trkpt>
<trkpt lat="53.357971" lon="-1.911230"><ele>467</ele><time>2021-10-01T12:30:18Z</time><name>PT4090</name></trkpt>
<trkpt lat="53.357968" lon="-1.911224"><ele>467</ele><time>2021-10-01T12:30:19Z</time><name>PT4091</name></trkpt>
<trkpt lat="53.357965" lon="-1.911219"><ele>467</ele><time>2021-10-01T12:30:20Z</time><name>PT4092</name></trkpt>
<trkpt lat="53.357966" lon="-1.911216"><ele>468</ele><time>2021-10-01T12:30:21Z</time><name>PT4093</name></trkpt>
<trkpt lat="53.357963" lon="-1.911212"><ele>468</ele><time>2021-10-01T12:30:22Z</time><name>PT4094</name></trkpt>
<trkpt lat="53.357960" lon="-1.911200"><ele>468</ele><time>2021-10-01T12:30:23Z</time><name>PT4095</name></trkpt>
<trkpt lat="53.357958" lon="-1.911190"><ele>468</ele><time>2021-10-01T12:30:24Z</time><name>PT4096</name></trkpt>
<trkpt lat="53.357954" lon="-1.911184"><ele>468</ele><time>2021-10-01T12:30:25Z</time><name>PT4097</name></trkpt>
<trkpt lat="53.357953" lon="-1.911181"><ele>468</ele><time>2021-10-01T12:30:26Z</time><name>PT4098</name></trkpt>
<trkpt lat="53.357951" lon="-1.911173"><ele>469</ele><time>2021-10-01T12:30:27Z</time><name>PT4099</name></trkpt>
<trkpt lat="53.357949" lon="-1.911167"><ele>469</ele><time>2021-10-01T12:30:28Z</time><name>PT4100</name></trkpt>
<trkpt lat="53.357947" lon="-1.911162"><ele>468</ele><time>2021-10-01T12:30:29Z</time><name>PT4101</name></trkpt>
<trkpt lat="53.357943" lon="-1.911157"><ele>468</ele><time>2021-10-01T12:30:30Z</time><name>PT4102</name></trkpt>
<trkpt lat="53.357942" lon="-1.911152"><ele>468</ele><time>2021-10-01T12:30:31Z</time><name>PT4103</name></trkpt>
<trkpt lat="53.357941" lon="-1.911142"><ele>469</ele><time>2021-10-01T12:30:32Z</time><name>PT4104</name></trkpt>
<trkpt lat="53.357939" lon="-1.911137"><ele>469</ele><time>2021-10-01T12:30:33Z</time><name>PT4105</name></trkpt>
<trkpt lat="53.357938" lon="-1.911131"><ele>469</ele><time>2021-10-01T12:30:34Z</time><name>PT4106</name></trkpt>
<trkpt lat="53.357935" lon="-1.911120"><ele>469</ele><time>2021-10-01T12:30:35Z</time><name>PT4107</name></trkpt>
<trkpt lat="53.357933" lon="-1.911111"><ele>469</ele><time>2021-10-01T12:30:36Z</time><name>PT4108</name></trkpt>
<trkpt lat="53.357933" lon="-1.911099"><ele>470</ele><time>2021-10-01T12:30:37Z</time><name>PT4109</name></trkpt>
<trkpt lat="53.357931" lon="-1.911092"><ele>470</ele><time>2021-10-01T12:30:38Z</time><name>PT4110</name></trkpt>
<trkpt lat="53.357929" lon="-1.911082"><ele>470</ele><time>2021-10-01T12:30:39Z</time><name>PT4111</name></trkpt>
<trkpt lat="53.357928" lon="-1.911069"><ele>470</ele><time>2021-10-01T12:30:40Z</time><name>PT4112</name></trkpt>
<trkpt lat="53.357927" lon="-1.911059"><ele>470</ele><time>2021-10-01T12:30:41Z</time><name>PT4113</name></trkpt>
<trkpt lat="53.357926" lon="-1.911052"><ele>470</ele><time>2021-10-01T12:30:42Z</time><name>PT4114</name></trkpt>
<trkpt lat="53.357926" lon="-1.911044"><ele>470</ele><time>2021-10-01T12:30:43Z</time><name>PT4115</name></trkpt>
<trkpt lat="53.357925" lon="-1.911036"><ele>470</ele><time>2021-10-01T12:30:44Z</time><name>PT4116</name></trkpt>
<trkpt lat="53.357924" lon="-1.911029"><ele>470</ele><time>2021-10-01T12:30:45Z</time><name>PT4117</name></trkpt>
<trkpt lat="53.357919" lon="-1.911024"><ele>470</ele><time>2021-10-01T12:30:46Z</time><name>PT4118</name></trkpt>
<trkpt lat="53.357913" lon="-1.911023"><ele>470</ele><time>2021-10-01T12:30:47Z</time><name>PT4119</name></trkpt>
<trkpt lat="53.357905" lon="-1.911020"><ele>471</ele><time>2021-10-01T12:30:48Z</time><name>PT4120</name></trkpt>
<trkpt lat="53.357900" lon="-1.911013"><ele>471</ele><time>2021-10-01T12:30:49Z</time><name>PT4121</name></trkpt>
<trkpt lat="53.357897" lon="-1.911006"><ele>471</ele><time>2021-10-01T12:30:50Z</time><name>PT4122</name></trkpt>
<trkpt lat="53.357893" lon="-1.910997"><ele>472</ele><time>2021-10-01T12:30:51Z</time><name>PT4123</name></trkpt>
<trkpt lat="53.357891" lon="-1.910986"><ele>472</ele><time>2021-10-01T12:30:52Z</time><name>PT4124</name></trkpt>
<trkpt lat="53.357890" lon="-1.910976"><ele>472</ele><time>2021-10-01T12:30:53Z</time><name>PT4125</name></trkpt>
<trkpt lat="53.357886" lon="-1.910964"><ele>472</ele><time>2021-10-01T12:30:54Z</time><name>PT4126</name></trkpt>
<trkpt lat="53.357881" lon="-1.910949"><ele>472</ele><time>2021-10-01T12:30:55Z</time><name>PT4127</name></trkpt>
<trkpt lat="53.357877" lon="-1.910939"><ele>473</ele><time>2021-10-01T12:30:56Z</time><name>PT4128</name></trkpt>
<trkpt lat="53.357875" lon="-1.910932"><ele>473</ele><time>2021-10-01T12:30:57Z</time><name>PT4129</name></trkpt>
<trkpt lat="53.357873" lon="-1.910922"><ele>473</ele><time>2021-10-01T12:30:58Z</time><name>PT4130</name></trkpt>
<trkpt lat="53.357870" lon="-1.910915"><ele>473</ele><time>2021-10-01T12:30:59Z</time><name>PT4131</name></trkpt>
<trkpt lat="53.357868" lon="-1.910908"><ele>474</ele><time>2021-10-01T12:31:00Z</time><name>PT4132</name></trkpt>
<trkpt lat="53.357866" lon="-1.910905"><ele>474</ele><time>2021-10-01T12:31:01Z</time><name>PT4133</name></trkpt>
<trkpt lat="53.357863" lon="-1.910897"><ele>474</ele><time>2021-10-01T12:31:02Z</time><name>PT4134</name></trkpt>
<trkpt lat="53.357862" lon="-1.910886"><ele>475</ele><time>2021-10-01T12:31:03Z</time><name>PT4135</name></trkpt>
<trkpt lat="53.357864" lon="-1.910875"><ele>475</ele><time>2021-10-01T12:31:04Z</time><name>PT4136</name></trkpt>
<trkpt lat="53.357864" lon="-1.910862"><ele>475</ele><time>2021-10-01T12:31:05Z</time><name>PT4137</name></trkpt>
<trkpt lat="53.357864" lon="-1.910858"><ele>475</ele><time>2021-10-01T12:31:06Z</time><name>PT4138</name></trkpt>
<trkpt lat="53.357864" lon="-1.910852"><ele>476</ele><time>2021-10-01T12:31:07Z</time><name>PT4139</name></trkpt>
<trkpt lat="53.357863" lon="-1.910840"><ele>476</ele><time>2021-10-01T12:31:08Z</time><name>PT4140</name></trkpt>
<trkpt lat="53.357864" lon="-1.910844"><ele>476</ele><time>2021-10-01T12:31:09Z</time><name>PT4141</name></trkpt>
<trkpt lat="53.357870" lon="-1.910863"><ele>477</ele><time>2021-10-01T12:31:12Z</time><name>PT4142</name></trkpt>
<trkpt lat="53.357861" lon="-1.910842"><ele>477</ele><time>2021-10-01T12:31:15Z</time><name>PT4143</name></trkpt>
<trkpt lat="53.357859" lon="-1.910817"><ele>476</ele><time>2021-10-01T12:31:18Z</time><name>PT4144</name></trkpt>
<trkpt lat="53.357863" lon="-1.910771"><ele>479</ele><time>2021-10-01T12:31:22Z</time><name>PT4145</name></trkpt>
<trkpt lat="53.357852" lon="-1.910667"><ele>479</ele><time>2021-10-01T12:31:26Z</time><name>PT4146</name></trkpt>
<trkpt lat="53.357840" lon="-1.910626"><ele>480</ele><time>2021-10-01T12:31:29Z</time><name>PT4147</name></trkpt>
<trkpt lat="53.357841" lon="-1.910619"><ele>480</ele><time>2021-10-01T12:31:32Z</time><name>PT4148</name></trkpt>
<trkpt lat="53.357846" lon="-1.910571"><ele>482</ele><time>2021-10-01T12:31:39Z</time><name>PT4149</name></trkpt>
<trkpt lat="53.357845" lon="-1.910532"><ele>481</ele><time>2021-10-01T12:31:43Z</time><name>PT4150</name></trkpt>
<trkpt lat="53.357838" lon="-1.910498"><ele>482</ele><time>2021-10-01T12:31:47Z</time><name>PT4151</name></trkpt>
<trkpt lat="53.357839" lon="-1.910492"><ele>482</ele><time>2021-10-01T12:31:51Z</time><name>PT4152</name></trkpt>
<trkpt lat="53.357833" lon="-1.910461"><ele>483</ele><time>2021-10-01T12:31:55Z</time><name>PT4153</name></trkpt>
<trkpt lat="53.357828" lon="-1.910424"><ele>485</ele><time>2021-10-01T12:32:13Z</time><name>PT4154</name></trkpt>
<trkpt lat="53.357833" lon="-1.910401"><ele>485</ele><time>2021-10-01T12:32:14Z</time><name>PT4155</name></trkpt>
<trkpt lat="53.357834" lon="-1.910383"><ele>486</ele><time>2021-10-01T12:32:15Z</time><name>PT4156</name></trkpt>
<trkpt lat="53.357833" lon="-1.910368"><ele>486</ele><time>2021-10-01T12:32:16Z</time><name>PT4157</name></trkpt>
<trkpt lat="53.357836" lon="-1.910359"><ele>487</ele><time>2021-10-01T12:32:17Z</time><name>PT4158</name></trkpt>
<trkpt lat="53.357840" lon="-1.910349"><ele>487</ele><time>2021-10-01T12:32:18Z</time><name>PT4159</name></trkpt>
<trkpt lat="53.357843" lon="-1.910335"><ele>488</ele><time>2021-10-01T12:32:19Z</time><name>PT4160</name></trkpt>
<trkpt lat="53.357846" lon="-1.910326"><ele>488</ele><time>2021-10-01T12:32:20Z</time><name>PT4161</name></trkpt>
<trkpt lat="53.357846" lon="-1.910309"><ele>488</ele><time>2021-10-01T12:32:21Z</time><name>PT4162</name></trkpt>
<trkpt lat="53.357846" lon="-1.910293"><ele>489</ele><time>2021-10-01T12:32:22Z</time><name>PT4163</name></trkpt>
<trkpt lat="53.357848" lon="-1.910274"><ele>489</ele><time>2021-10-01T12:32:23Z</time><name>PT4164</name></trkpt>
<trkpt lat="53.357849" lon="-1.910262"><ele>489</ele><time>2021-10-01T12:32:24Z</time><name>PT4165</name></trkpt>
<trkpt lat="53.357848" lon="-1.910250"><ele>489</ele><time>2021-10-01T12:32:25Z</time><name>PT4166</name></trkpt>
<trkpt lat="53.357848" lon="-1.910239"><ele>489</ele><time>2021-10-01T12:32:26Z</time><name>PT4167</name></trkpt>
<trkpt lat="53.357845" lon="-1.910226"><ele>490</ele><time>2021-10-01T12:32:27Z</time><name>PT4168</name></trkpt>
<trkpt lat="53.357858" lon="-1.910149"><ele>492</ele><time>2021-10-01T12:32:48Z</time><name>PT4169</name></trkpt>
<trkpt lat="53.357853" lon="-1.910109"><ele>493</ele><time>2021-10-01T12:32:49Z</time><name>PT4170</name></trkpt>
<trkpt lat="53.357852" lon="-1.910080"><ele>493</ele><time>2021-10-01T12:32:50Z</time><name>PT4171</name></trkpt>
<trkpt lat="53.357845" lon="-1.910052"><ele>494</ele><time>2021-10-01T12:32:51Z</time><name>PT4172</name></trkpt>
<trkpt lat="53.357840" lon="-1.910036"><ele>494</ele><time>2021-10-01T12:32:52Z</time><name>PT4173</name></trkpt>
<trkpt lat="53.357838" lon="-1.910020"><ele>494</ele><time>2021-10-01T12:32:53Z</time><name>PT4174</name></trkpt>
<trkpt lat="53.357837" lon="-1.910009"><ele>494</ele><time>2021-10-01T12:32:54Z</time><name>PT4175</name></trkpt>
<trkpt lat="53.357834" lon="-1.909995"><ele>495</ele><time>2021-10-01T12:32:55Z</time><name>PT4176</name></trkpt>
<trkpt lat="53.357832" lon="-1.909981"><ele>495</ele><time>2021-10-01T12:32:56Z</time><name>PT4177</name></trkpt>
<trkpt lat="53.357831" lon="-1.909972"><ele>495</ele><time>2021-10-01T12:32:57Z</time><name>PT4178</name></trkpt>
<trkpt lat="53.357828" lon="-1.909963"><ele>496</ele><time>2021-10-01T12:32:58Z</time><name>PT4179</name></trkpt>
<trkpt lat="53.357826" lon="-1.909956"><ele>496</ele><time>2021-10-01T12:32:59Z</time><name>PT4180</name></trkpt>
<trkpt lat="53.357827" lon="-1.909932"><ele>495</ele><time>2021-10-01T12:33:09Z</time><name>PT4181</name></trkpt>
<trkpt lat="53.357828" lon="-1.909929"><ele>495</ele><time>2021-10-01T12:33:10Z</time><name>PT4182</name></trkpt>
<trkpt lat="53.357830" lon="-1.909928"><ele>495</ele><time>2021-10-01T12:33:11Z</time><name>PT4183</name></trkpt>
<trkpt lat="53.357830" lon="-1.909924"><ele>496</ele><time>2021-10-01T12:33:12Z</time><name>PT4184</name></trkpt>
<trkpt lat="53.357828" lon="-1.909922"><ele>496</ele><time>2021-10-01T12:33:13Z</time><name>PT4185</name></trkpt>
<trkpt lat="53.357825" lon="-1.909909"><ele>495</ele><time>2021-10-01T12:33:22Z</time><name>PT4186</name></trkpt>
<trkpt lat="53.357826" lon="-1.909897"><ele>495</ele><time>2021-10-01T12:33:23Z</time><name>PT4187</name></trkpt>
<trkpt lat="53.357826" lon="-1.909885"><ele>495</ele><time>2021-10-01T12:33:24Z</time><name>PT4188</name></trkpt>
<trkpt lat="53.357826" lon="-1.909881"><ele>495</ele><time>2021-10-01T12:33:32Z</time><name>PT4189</name></trkpt>
<trkpt lat="53.357828" lon="-1.909882"><ele>496</ele><time>2021-10-01T12:33:33Z</time><name>PT4190</name></trkpt>
<trkpt lat="53.357832" lon="-1.909879"><ele>496</ele><time>2021-10-01T12:33:34Z</time><name>PT4191</name></trkpt>
<trkpt lat="53.357833" lon="-1.909877"><ele>496</ele><time>2021-10-01T12:33:35Z</time><name>PT4192</name></trkpt>
<trkpt lat="53.357831" lon="-1.909871"><ele>496</ele><time>2021-10-01T12:33:43Z</time><name>PT4193</name></trkpt>
<trkpt lat="53.357832" lon="-1.909868"><ele>496</ele><time>2021-10-01T12:33:44Z</time><name>PT4194</name></trkpt>
<trkpt lat="53.357840" lon="-1.909871"><ele>496</ele><time>2021-10-01T12:33:45Z</time><name>PT4195</name></trkpt>
<trkpt lat="53.357846" lon="-1.909864"><ele>496</ele><time>2021-10-01T12:33:46Z</time><name>PT4196</name></trkpt>
<trkpt lat="53.357848" lon="-1.909859"><ele>496</ele><time>2021-10-01T12:33:47Z</time><name>PT4197</name></trkpt>
<trkpt lat="53.357852" lon="-1.909852"><ele>496</ele><time>2021-10-01T12:33:48Z</time><name>PT4198</name></trkpt>
<trkpt lat="53.357857" lon="-1.909845"><ele>496</ele><time>2021-10-01T12:33:49Z</time><name>PT4199</name></trkpt>
<trkpt lat="53.357860" lon="-1.909836"><ele>496</ele><time>2021-10-01T12:33:50Z</time><name>PT4200</name></trkpt>
<trkpt lat="53.357862" lon="-1.909831"><ele>496</ele><time>2021-10-01T12:33:51Z</time><name>PT4201</name></trkpt>
<trkpt lat="53.357863" lon="-1.909827"><ele>496</ele><time>2021-10-01T12:33:52Z</time><name>PT4202</name></trkpt>
<trkpt lat="53.357864" lon="-1.909824"><ele>496</ele><time>2021-10-01T12:33:53Z</time><name>PT4203</name></trkpt>
<trkpt lat="53.357864" lon="-1.909824"><ele>496</ele><time>2021-10-01T12:33:54Z</time><name>PT4204</name></trkpt>
<trkpt lat="53.357864" lon="-1.909820"><ele>496</ele><time>2021-10-01T12:34:00Z</time><name>PT4205</name></trkpt>
<trkpt lat="53.357858" lon="-1.909820"><ele>497</ele><time>2021-10-01T12:34:01Z</time><name>PT4206</name></trkpt>
<trkpt lat="53.357854" lon="-1.909821"><ele>497</ele><time>2021-10-01T12:34:02Z</time><name>PT4207</name></trkpt>
<trkpt lat="53.357852" lon="-1.909819"><ele>497</ele><time>2021-10-01T12:34:03Z</time><name>PT4208</name></trkpt>
<trkpt lat="53.357850" lon="-1.909820"><ele>497</ele><time>2021-10-01T12:34:04Z</time><name>PT4209</name></trkpt>
<trkpt lat="53.357849" lon="-1.909821"><ele>497</ele><time>2021-10-01T12:34:05Z</time><name>PT4210</name></trkpt>
<trkpt lat="53.357847" lon="-1.909818"><ele>498</ele><time>2021-10-01T12:34:06Z</time><name>PT4211</name></trkpt>
<trkpt lat="53.357841" lon="-1.909816"><ele>497</ele><time>2021-10-01T12:34:13Z</time><name>PT4212</name></trkpt>
<trkpt lat="53.357840" lon="-1.909814"><ele>498</ele><time>2021-10-01T12:34:14Z</time><name>PT4213</name></trkpt>
<trkpt lat="53.357838" lon="-1.909810"><ele>498</ele><time>2021-10-01T12:34:15Z</time><name>PT4214</name></trkpt>
<trkpt lat="53.357837" lon="-1.909811"><ele>498</ele><time>2021-10-01T12:34:16Z</time><name>PT4215</name></trkpt>
<trkpt lat="53.357837" lon="-1.909813"><ele>498</ele><time>2021-10-01T12:34:26Z</time><name>PT4216</name></trkpt>
<trkpt lat="53.357838" lon="-1.909808"><ele>498</ele><time>2021-10-01T12:34:27Z</time><name>PT4217</name></trkpt>
<trkpt lat="53.357842" lon="-1.909802"><ele>498</ele><time>2021-10-01T12:34:28Z</time><name>PT4218</name></trkpt>
<trkpt lat="53.357842" lon="-1.909801"><ele>498</ele><time>2021-10-01T12:34:29Z</time><name>PT4219</name></trkpt>
<trkpt lat="53.357843" lon="-1.909801"><ele>498</ele><time>2021-10-01T12:34:30Z</time><name>PT4220</name></trkpt>
<trkpt lat="53.357851" lon="-1.909807"><ele>499</ele><time>2021-10-01T12:35:13Z</time><name>PT4221</name></trkpt>
<trkpt lat="53.357853" lon="-1.909812"><ele>499</ele><time>2021-10-01T12:35:14Z</time><name>PT4222</name></trkpt>
<trkpt lat="53.357856" lon="-1.909813"><ele>499</ele><time>2021-10-01T12:35:15Z</time><name>PT4223</name></trkpt>
<trkpt lat="53.357858" lon="-1.909812"><ele>499</ele><time>2021-10-01T12:35:16Z</time><name>PT4224</name></trkpt>
<trkpt lat="53.357860" lon="-1.909811"><ele>499</ele><time>2021-10-01T12:35:17Z</time><name>PT4225</name></trkpt>
<trkpt lat="53.357860" lon="-1.909811"><ele>499</ele><time>2021-10-01T12:35:24Z</time><name>PT4226</name></trkpt>
<trkpt lat="53.357855" lon="-1.909804"><ele>499</ele><time>2021-10-01T12:35:25Z</time><name>PT4227</name></trkpt>
<trkpt lat="53.357853" lon="-1.909799"><ele>499</ele><time>2021-10-01T12:35:26Z</time><name>PT4228</name></trkpt>
<trkpt lat="53.357849" lon="-1.909791"><ele>499</ele><time>2021-10-01T12:35:27Z</time><name>PT4229</name></trkpt>
<trkpt lat="53.357845" lon="-1.909784"><ele>499</ele><time>2021-10-01T12:35:28Z</time><name>PT4230</name></trkpt>
<trkpt lat="53.357844" lon="-1.909782"><ele>499</ele><time>2021-10-01T12:35:29Z</time><name>PT4231</name></trkpt>
<trkpt lat="53.357846" lon="-1.909786"><ele>499</ele><time>2021-10-01T12:35:30Z</time><name>PT4232</name></trkpt>
<trkpt lat="53.357845" lon="-1.909789"><ele>499</ele><time>2021-10-01T12:35:31Z</time><name>PT4233</name></trkpt>
<trkpt lat="53.357842" lon="-1.909788"><ele>499</ele><time>2021-10-01T12:35:34Z</time><name>PT4234</name></trkpt>
<trkpt lat="53.357842" lon="-1.909789"><ele>499</ele><time>2021-10-01T12:35:35Z</time><name>PT4235</name></trkpt>
<trkpt lat="53.357843" lon="-1.909790"><ele>499</ele><time>2021-10-01T12:35:36Z</time><name>PT4236</name></trkpt>
<trkpt lat="53.357845" lon="-1.909785"><ele>499</ele><time>2021-10-01T12:35:43Z</time><name>PT4237</name></trkpt>
<trkpt lat="53.357852" lon="-1.909776"><ele>499</ele><time>2021-10-01T12:35:44Z</time><name>PT4238</name></trkpt>
<trkpt lat="53.357858" lon="-1.909766"><ele>499</ele><time>2021-10-01T12:35:45Z</time><name>PT4239</name></trkpt>
<trkpt lat="53.357866" lon="-1.909764"><ele>499</ele><time>2021-10-01T12:35:46Z</time><name>PT4240</name></trkpt>
<trkpt lat="53.357874" lon="-1.909767"><ele>499</ele><time>2021-10-01T12:35:47Z</time><name>PT4241</name></trkpt>
<trkpt lat="53.357881" lon="-1.909770"><ele>499</ele><time>2021-10-01T12:35:48Z</time><name>PT4242</name></trkpt>
<trkpt lat="53.357887" lon="-1.909770"><ele>499</ele><time>2021-10-01T12:35:49Z</time><name>PT4243</name></trkpt>
<trkpt lat="53.357893" lon="-1.909766"><ele>499</ele><time>2021-10-01T12:35:50Z</time><name>PT4244</name></trkpt>
<trkpt lat="53.357898" lon="-1.909762"><ele>498</ele><time>2021-10-01T12:35:51Z</time><name>PT4245</name></trkpt>
<trkpt lat="53.357903" lon="-1.909754"><ele>498</ele><time>2021-10-01T12:35:52Z</time><name>PT4246</name></trkpt>
<trkpt lat="53.357907" lon="-1.909743"><ele>498</ele><time>2021-10-01T12:35:53Z</time><name>PT4247</name></trkpt>
<trkpt lat="53.357909" lon="-1.909732"><ele>498</ele><time>2021-10-01T12:35:54Z</time><name>PT4248</name></trkpt>
<trkpt lat="53.357910" lon="-1.909718"><ele>498</ele><time>2021-10-01T12:35:55Z</time><name>PT4249</name></trkpt>
<trkpt lat="53.357911" lon="-1.909707"><ele>497</ele><time>2021-10-01T12:35:56Z</time><name>PT4250</name></trkpt>
<trkpt lat="53.357908" lon="-1.909696"><ele>497</ele><time>2021-10-01T12:35:57Z</time><name>PT4251</name></trkpt>
<trkpt lat="53.357909" lon="-1.909681"><ele>497</ele><time>2021-10-01T12:35:58Z</time><name>PT4252</name></trkpt>
<trkpt lat="53.357911" lon="-1.909676"><ele>497</ele><time>2021-10-01T12:35:59Z</time><name>PT4253</name></trkpt>
<trkpt lat="53.357912" lon="-1.909668"><ele>496</ele><time>2021-10-01T12:36:00Z</time><name>PT4254</name></trkpt>
<trkpt lat="53.357915" lon="-1.909664"><ele>496</ele><time>2021-10-01T12:36:01Z</time><name>PT4255</name></trkpt>
<trkpt lat="53.357917" lon="-1.909655"><ele>496</ele><time>2021-10-01T12:36:02Z</time><name>PT4256</name></trkpt>
<trkpt lat="53.357915" lon="-1.909642"><ele>495</ele><time>2021-10-01T12:36:03Z</time><name>PT4257</name></trkpt>
<trkpt lat="53.357912" lon="-1.909628"><ele>495</ele><time>2021-10-01T12:36:04Z</time><name>PT4258</name></trkpt>
<trkpt lat="53.357910" lon="-1.909614"><ele>495</ele><time>2021-10-01T12:36:05Z</time><name>PT4259</name></trkpt>
<trkpt lat="53.357910" lon="-1.909603"><ele>494</ele><time>2021-10-01T12:36:06Z</time><name>PT4260</name></trkpt>
<trkpt lat="53.357911" lon="-1.909590"><ele>494</ele><time>2021-10-01T12:36:07Z</time><name>PT4261</name></trkpt>
<trkpt lat="53.357910" lon="-1.909580"><ele>493</ele><time>2021-10-01T12:36:08Z</time><name>PT4262</name></trkpt>
<trkpt lat="53.357908" lon="-1.909572"><ele>493</ele><time>2021-10-01T12:36:09Z</time><name>PT4263</name></trkpt>
<trkpt lat="53.357906" lon="-1.909561"><ele>493</ele><time>2021-10-01T12:36:10Z</time><name>PT4264</name></trkpt>
<trkpt lat="53.357903" lon="-1.909548"><ele>492</ele><time>2021-10-01T12:36:11Z</time><name>PT4265</name></trkpt>
<trkpt lat="53.357904" lon="-1.909536"><ele>492</ele><time>2021-10-01T12:36:12Z</time><name>PT4266</name></trkpt>
<trkpt lat="53.357905" lon="-1.909523"><ele>491</ele><time>2021-10-01T12:36:13Z</time><name>PT4267</name></trkpt>
<trkpt lat="53.357906" lon="-1.909509"><ele>491</ele><time>2021-10-01T12:36:14Z</time><name>PT4268</name></trkpt>
<trkpt lat="53.357908" lon="-1.909497"><ele>491</ele><time>2021-10-01T12:36:15Z</time><name>PT4269</name></trkpt>
<trkpt lat="53.357912" lon="-1.909485"><ele>491</ele><time>2021-10-01T12:36:16Z</time><name>PT4270</name></trkpt>
<trkpt lat="53.357915" lon="-1.909473"><ele>491</ele><time>2021-10-01T12:36:17Z</time><name>PT4271</name></trkpt>
<trkpt lat="53.357918" lon="-1.909463"><ele>491</ele><time>2021-10-01T12:36:18Z</time><name>PT4272</name></trkpt>
<trkpt lat="53.357919" lon="-1.909452"><ele>490</ele><time>2021-10-01T12:36:19Z</time><name>PT4273</name></trkpt>
<trkpt lat="53.357919" lon="-1.909444"><ele>490</ele><time>2021-10-01T12:36:20Z</time><name>PT4274</name></trkpt>
<trkpt lat="53.357920" lon="-1.909433"><ele>490</ele><time>2021-10-01T12:36:21Z</time><name>PT4275</name></trkpt>
<trkpt lat="53.357923" lon="-1.909423"><ele>490</ele><time>2021-10-01T12:36:22Z</time><name>PT4276</name></trkpt>
<trkpt lat="53.357928" lon="-1.909414"><ele>490</ele><time>2021-10-01T12:36:23Z</time><name>PT4277</name></trkpt>
<trkpt lat="53.357929" lon="-1.909405"><ele>489</ele><time>2021-10-01T12:36:24Z</time><name>PT4278</name></trkpt>
<trkpt lat="53.357930" lon="-1.909395"><ele>489</ele><time>2021-10-01T12:36:25Z</time><name>PT4279</name></trkpt>
<trkpt lat="53.357931" lon="-1.909387"><ele>489</ele><time>2021-10-01T12:36:26Z</time><name>PT4280</name></trkpt>
<trkpt lat="53.357933" lon="-1.909378"><ele>489</ele><time>2021-10-01T12:36:27Z</time><name>PT4281</name></trkpt>
<trkpt lat="53.357936" lon="-1.909371"><ele>488</ele><time>2021-10-01T12:36:28Z</time><name>PT4282</name></trkpt>
<trkpt lat="53.357939" lon="-1.909361"><ele>489</ele><time>2021-10-01T12:36:29Z</time><name>PT4283</name></trkpt>
<trkpt lat="53.357941" lon="-1.909350"><ele>488</ele><time>2021-10-01T12:36:30Z</time><name>PT4284</name></trkpt>
<trkpt lat="53.357943" lon="-1.909342"><ele>488</ele><time>2021-10-01T12:36:31Z</time><name>PT4285</name></trkpt>
<trkpt lat="53.357943" lon="-1.909331"><ele>488</ele><time>2021-10-01T12:36:32Z</time><name>PT4286</name></trkpt>
<trkpt lat="53.357944" lon="-1.909318"><ele>487</ele><time>2021-10-01T12:36:33Z</time><name>PT4287</name></trkpt>
<trkpt lat="53.357948" lon="-1.909306"><ele>487</ele><time>2021-10-01T12:36:34Z</time><name>PT4288</name></trkpt>
<trkpt lat="53.357951" lon="-1.909298"><ele>487</ele><time>2021-10-01T12:36:35Z</time><name>PT4289</name></trkpt>
<trkpt lat="53.357953" lon="-1.909288"><ele>487</ele><time>2021-10-01T12:36:36Z</time><name>PT4290</name></trkpt>
<trkpt lat="53.357955" lon="-1.909279"><ele>486</ele><time>2021-10-01T12:36:37Z</time><name>PT4291</name></trkpt>
<trkpt lat="53.357958" lon="-1.909274"><ele>486</ele><time>2021-10-01T12:36:38Z</time><name>PT4292</name></trkpt>
<trkpt lat="53.357961" lon="-1.909263"><ele>486</ele><time>2021-10-01T12:36:39Z</time><name>PT4293</name></trkpt>
<trkpt lat="53.357965" lon="-1.909250"><ele>486</ele><time>2021-10-01T12:36:40Z</time><name>PT4294</name></trkpt>
<trkpt lat="53.357966" lon="-1.909236"><ele>486</ele><time>2021-10-01T12:36:41Z</time><name>PT4295</name></trkpt>
<trkpt lat="53.357969" lon="-1.909226"><ele>486</ele><time>2021-10-01T12:36:42Z</time><name>PT4296</name></trkpt>
<trkpt lat="53.357970" lon="-1.909213"><ele>485</ele><time>2021-10-01T12:36:43Z</time><name>PT4297</name></trkpt>
<trkpt lat="53.357972" lon="-1.909200"><ele>485</ele><time>2021-10-01T12:36:44Z</time><name>PT4298</name></trkpt>
<trkpt lat="53.357975" lon="-1.909185"><ele>485</ele><time>2021-10-01T12:36:45Z</time><name>PT4299</name></trkpt>
<trkpt lat="53.357978" lon="-1.909171"><ele>484</ele><time>2021-10-01T12:36:46Z</time><name>PT4300</name></trkpt>
<trkpt lat="53.357979" lon="-1.909163"><ele>484</ele><time>2021-10-01T12:36:47Z</time><name>PT4301</name></trkpt>
<trkpt lat="53.357979" lon="-1.909161"><ele>484</ele><time>2021-10-01T12:36:48Z</time><name>PT4302</name></trkpt>
<trkpt lat="53.357979" lon="-1.909159"><ele>484</ele><time>2021-10-01T12:36:49Z</time><name>PT4303</name></trkpt>
<trkpt lat="53.357979" lon="-1.909158"><ele>484</ele><time>2021-10-01T12:36:50Z</time><name>PT4304</name></trkpt>
<trkpt lat="53.357980" lon="-1.909155"><ele>484</ele><time>2021-10-01T12:36:57Z</time><name>PT4305</name></trkpt>
<trkpt lat="53.357984" lon="-1.909140"><ele>484</ele><time>2021-10-01T12:36:58Z</time><name>PT4306</name></trkpt>
<trkpt lat="53.357984" lon="-1.909128"><ele>484</ele><time>2021-10-01T12:36:59Z</time><name>PT4307</name></trkpt>
<trkpt lat="53.357985" lon="-1.909113"><ele>483</ele><time>2021-10-01T12:37:00Z</time><name>PT4308</name></trkpt>
<trkpt lat="53.357990" lon="-1.909103"><ele>483</ele><time>2021-10-01T12:37:01Z</time><name>PT4309</name></trkpt>
<trkpt lat="53.357997" lon="-1.909090"><ele>483</ele><time>2021-10-01T12:37:02Z</time><name>PT4310</name></trkpt>
<trkpt lat="53.358001" lon="-1.909075"><ele>483</ele><time>2021-10-01T12:37:03Z</time><name>PT4311</name></trkpt>
<trkpt lat="53.358002" lon="-1.909059"><ele>482</ele><time>2021-10-01T12:37:04Z</time><name>PT4312</name></trkpt>
<trkpt lat="53.358003" lon="-1.909043"><ele>482</ele><time>2021-10-01T12:37:05Z</time><name>PT4313</name></trkpt>
<trkpt lat="53.358003" lon="-1.909031"><ele>482</ele><time>2021-10-01T12:37:06Z</time><name>PT4314</name></trkpt>
<trkpt lat="53.358004" lon="-1.909018"><ele>481</ele><time>2021-10-01T12:37:07Z</time><name>PT4315</name></trkpt>
<trkpt lat="53.358004" lon="-1.909006"><ele>481</ele><time>2021-10-01T12:37:08Z</time><name>PT4316</name></trkpt>
<trkpt lat="53.358004" lon="-1.908992"><ele>481</ele><time>2021-10-01T12:37:09Z</time><name>PT4317</name></trkpt>
<trkpt lat="53.358004" lon="-1.908975"><ele>480</ele><time>2021-10-01T12:37:10Z</time><name>PT4318</name></trkpt>
<trkpt lat="53.358008" lon="-1.908960"><ele>480</ele><time>2021-10-01T12:37:11Z</time><name>PT4319</name></trkpt>
<trkpt lat="53.358008" lon="-1.908947"><ele>479</ele><time>2021-10-01T12:37:12Z</time><name>PT4320</name></trkpt>
<trkpt lat="53.358008" lon="-1.908935"><ele>479</ele><time>2021-10-01T12:37:13Z</time><name>PT4321</name></trkpt>
<trkpt lat="53.358009" lon="-1.908929"><ele>479</ele><time>2021-10-01T12:37:14Z</time><name>PT4322</name></trkpt>
<trkpt lat="53.358008" lon="-1.908916"><ele>478</ele><time>2021-10-01T12:37:15Z</time><name>PT4323</name></trkpt>
<trkpt lat="53.358006" lon="-1.908908"><ele>478</ele><time>2021-10-01T12:37:16Z</time><name>PT4324</name></trkpt>
<trkpt lat="53.358005" lon="-1.908897"><ele>478</ele><time>2021-10-01T12:37:17Z</time><name>PT4325</name></trkpt>
<trkpt lat="53.358004" lon="-1.908886"><ele>477</ele><time>2021-10-01T12:37:18Z</time><name>PT4326</name></trkpt>
<trkpt lat="53.358005" lon="-1.908875"><ele>477</ele><time>2021-10-01T12:37:19Z</time><name>PT4327</name></trkpt>
<trkpt lat="53.358007" lon="-1.908863"><ele>476</ele><time>2021-10-01T12:37:20Z</time><name>PT4328</name></trkpt>
<trkpt lat="53.358007" lon="-1.908855"><ele>476</ele><time>2021-10-01T12:37:21Z</time><name>PT4329</name></trkpt>
<trkpt lat="53.358010" lon="-1.908847"><ele>476</ele><time>2021-10-01T12:37:22Z</time><name>PT4330</name></trkpt>
<trkpt lat="53.358013" lon="-1.908838"><ele>476</ele><time>2021-10-01T12:37:23Z</time><name>PT4331</name></trkpt>
<trkpt lat="53.358015" lon="-1.908827"><ele>475</ele><time>2021-10-01T12:37:24Z</time><name>PT4332</name></trkpt>
<trkpt lat="53.358017" lon="-1.908815"><ele>475</ele><time>2021-10-01T12:37:25Z</time><name>PT4333</name></trkpt>
<trkpt lat="53.358020" lon="-1.908806"><ele>475</ele><time>2021-10-01T12:37:26Z</time><name>PT4334</name></trkpt>
<trkpt lat="53.358024" lon="-1.908795"><ele>475</ele><time>2021-10-01T12:37:27Z</time><name>PT4335</name></trkpt>
<trkpt lat="53.358027" lon="-1.908782"><ele>474</ele><time>2021-10-01T12:37:28Z</time><name>PT4336</name></trkpt>
<trkpt lat="53.358029" lon="-1.908770"><ele>474</ele><time>2021-10-01T12:37:29Z</time><name>PT4337</name></trkpt>
<trkpt lat="53.358030" lon="-1.908759"><ele>473</ele><time>2021-10-01T12:37:30Z</time><name>PT4338</name></trkpt>
<trkpt lat="53.358032" lon="-1.908749"><ele>473</ele><time>2021-10-01T12:37:31Z</time><name>PT4339</name></trkpt>
<trkpt lat="53.358034" lon="-1.908738"><ele>473</ele><time>2021-10-01T12:37:32Z</time><name>PT4340</name></trkpt>
<trkpt lat="53.358038" lon="-1.908728"><ele>473</ele><time>2021-10-01T12:37:33Z</time><name>PT4341</name></trkpt>
<trkpt lat="53.358041" lon="-1.908716"><ele>473</ele><time>2021-10-01T12:37:34Z</time><name>PT4342</name></trkpt>
<trkpt lat="53.358042" lon="-1.908705"><ele>472</ele><time>2021-10-01T12:37:35Z</time><name>PT4343</name></trkpt>
<trkpt lat="53.358042" lon="-1.908693"><ele>472</ele><time>2021-10-01T12:37:36Z</time><name>PT4344</name></trkpt>
<trkpt lat="53.358042" lon="-1.908681"><ele>472</ele><time>2021-10-01T12:37:37Z</time><name>PT4345</name></trkpt>
<trkpt lat="53.358045" lon="-1.908670"><ele>472</ele><time>2021-10-01T12:37:38Z</time><name>PT4346</name></trkpt>
<trkpt lat="53.358048" lon="-1.908662"><ele>471</ele><time>2021-10-01T12:37:39Z</time><name>PT4347</name></trkpt>
<trkpt lat="53.358050" lon="-1.908653"><ele>471</ele><time>2021-10-01T12:37:40Z</time><name>PT4348</name></trkpt>
<trkpt lat="53.358055" lon="-1.908643"><ele>471</ele><time>2021-10-01T12:37:41Z</time><name>PT4349</name></trkpt>
<trkpt lat="53.358057" lon="-1.908635"><ele>471</ele><time>2021-10-01T12:37:42Z</time><name>PT4350</name></trkpt>
<trkpt lat="53.358059" lon="-1.908623"><ele>471</ele><time>2021-10-01T12:37:43Z</time><name>PT4351</name></trkpt>
<trkpt lat="53.358060" lon="-1.908610"><ele>470</ele><time>2021-10-01T12:37:44Z</time><name>PT4352</name></trkpt>
<trkpt lat="53.358062" lon="-1.908596"><ele>470</ele><time>2021-10-01T12:37:45Z</time><name>PT4353</name></trkpt>
<trkpt lat="53.358066" lon="-1.908586"><ele>469</ele><time>2021-10-01T12:37:46Z</time><name>PT4354</name></trkpt>
<trkpt lat="53.358069" lon="-1.908579"><ele>469</ele><time>2021-10-01T12:37:47Z</time><name>PT4355</name></trkpt>
<trkpt lat="53.358072" lon="-1.908570"><ele>469</ele><time>2021-10-01T12:37:48Z</time><name>PT4356</name></trkpt>
<trkpt lat="53.358076" lon="-1.908560"><ele>468</ele><time>2021-10-01T12:37:49Z</time><name>PT4357</name></trkpt>
<trkpt lat="53.358083" lon="-1.908522"><ele>468</ele><time>2021-10-01T12:37:52Z</time><name>PT4358</name></trkpt>
<trkpt lat="53.358101" lon="-1.908484"><ele>467</ele><time>2021-10-01T12:37:55Z</time><name>PT4359</name></trkpt>
<trkpt lat="53.358118" lon="-1.908427"><ele>466</ele><time>2021-10-01T12:37:59Z</time><name>PT4360</name></trkpt>
<trkpt lat="53.358134" lon="-1.908375"><ele>465</ele><time>2021-10-01T12:38:02Z</time><name>PT4361</name></trkpt>
<trkpt lat="53.358146" lon="-1.908314"><ele>464</ele><time>2021-10-01T12:38:06Z</time><name>PT4362</name></trkpt>
<trkpt lat="53.358164" lon="-1.908248"><ele>463</ele><time>2021-10-01T12:38:10Z</time><name>PT4363</name></trkpt>
<trkpt lat="53.358183" lon="-1.908176"><ele>462</ele><time>2021-10-01T12:38:14Z</time><name>PT4364</name></trkpt>
<trkpt lat="53.358197" lon="-1.908126"><ele>462</ele><time>2021-10-01T12:38:17Z</time><name>PT4365</name></trkpt>
<trkpt lat="53.358215" lon="-1.908065"><ele>461</ele><time>2021-10-01T12:38:20Z</time><name>PT4366</name></trkpt>
<trkpt lat="53.358222" lon="-1.908003"><ele>461</ele><time>2021-10-01T12:38:23Z</time><name>PT4367</name></trkpt>
<trkpt lat="53.358219" lon="-1.907920"><ele>460</ele><time>2021-10-01T12:38:27Z</time><name>PT4368</name></trkpt>
<trkpt lat="53.358222" lon="-1.907864"><ele>460</ele><time>2021-10-01T12:38:30Z</time><name>PT4369</name></trkpt>
<trkpt lat="53.358234" lon="-1.907807"><ele>460</ele><time>2021-10-01T12:38:34Z</time><name>PT4370</name></trkpt>
<trkpt lat="53.358245" lon="-1.907763"><ele>461</ele><time>2021-10-01T12:38:37Z</time><name>PT4371</name></trkpt>
<trkpt lat="53.358243" lon="-1.907714"><ele>461</ele><time>2021-10-01T12:38:40Z</time><name>PT4372</name></trkpt>
<trkpt lat="53.358251" lon="-1.907675"><ele>460</ele><time>2021-10-01T12:38:44Z</time><name>PT4373</name></trkpt>
<trkpt lat="53.358262" lon="-1.907652"><ele>459</ele><time>2021-10-01T12:38:48Z</time><name>PT4374</name></trkpt>
<trkpt lat="53.358252" lon="-1.907612"><ele>459</ele><time>2021-10-01T12:38:52Z</time><name>PT4375</name></trkpt>
<trkpt lat="53.358240" lon="-1.907579"><ele>458</ele><time>2021-10-01T12:38:55Z</time><name>PT4376</name></trkpt>
<trkpt lat="53.358223" lon="-1.907529"><ele>458</ele><time>2021-10-01T12:38:59Z</time><name>PT4377</name></trkpt>
<trkpt lat="53.358206" lon="-1.907491"><ele>457</ele><time>2021-10-01T12:39:02Z</time><name>PT4378</name></trkpt>
<trkpt lat="53.358191" lon="-1.907457"><ele>457</ele><time>2021-10-01T12:39:05Z</time><name>PT4379</name></trkpt>
<trkpt lat="53.358167" lon="-1.907417"><ele>457</ele><time>2021-10-01T12:39:08Z</time><name>PT4380</name></trkpt>
<trkpt lat="53.358153" lon="-1.907387"><ele>456</ele><time>2021-10-01T12:39:11Z</time><name>PT4381</name></trkpt>
<trkpt lat="53.358123" lon="-1.907356"><ele>456</ele><time>2021-10-01T12:39:15Z</time><name>PT4382</name></trkpt>
<trkpt lat="53.358101" lon="-1.907336"><ele>456</ele><time>2021-10-01T12:39:18Z</time><name>PT4383</name></trkpt>
<trkpt lat="53.358079" lon="-1.907302"><ele>455</ele><time>2021-10-01T12:39:21Z</time><name>PT4384</name></trkpt>
<trkpt lat="53.358030" lon="-1.907271"><ele>455</ele><time>2021-10-01T12:39:25Z</time><name>PT4385</name></trkpt>
<trkpt lat="53.358006" lon="-1.907251"><ele>454</ele><time>2021-10-01T12:39:28Z</time><name>PT4386</name></trkpt>
<trkpt lat="53.357980" lon="-1.907231"><ele>453</ele><time>2021-10-01T12:39:31Z</time><name>PT4387</name></trkpt>
<trkpt lat="53.357949" lon="-1.907201"><ele>452</ele><time>2021-10-01T12:39:35Z</time><name>PT4388</name></trkpt>
<trkpt lat="53.357923" lon="-1.907170"><ele>452</ele><time>2021-10-01T12:39:39Z</time><name>PT4389</name></trkpt>
<trkpt lat="53.357921" lon="-1.907166"><ele>452</ele><time>2021-10-01T12:39:43Z</time><name>PT4390</name></trkpt>
<trkpt lat="53.357910" lon="-1.907145"><ele>452</ele><time>2021-10-01T12:39:52Z</time><name>PT4391</name></trkpt>
<trkpt lat="53.357882" lon="-1.907106"><ele>451</ele><time>2021-10-01T12:39:55Z</time><name>PT4392</name></trkpt>
<trkpt lat="53.357866" lon="-1.907049"><ele>450</ele><time>2021-10-01T12:39:58Z</time><name>PT4393</name></trkpt>
<trkpt lat="53.357846" lon="-1.906999"><ele>450</ele><time>2021-10-01T12:40:01Z</time><name>PT4394</name></trkpt>
<trkpt lat="53.357821" lon="-1.906925"><ele>449</ele><time>2021-10-01T12:40:05Z</time><name>PT4395</name></trkpt>
<trkpt lat="53.357796" lon="-1.906849"><ele>448</ele><time>2021-10-01T12:40:09Z</time><name>PT4396</name></trkpt>
<trkpt lat="53.357773" lon="-1.906805"><ele>447</ele><time>2021-10-01T12:40:12Z</time><name>PT4397</name></trkpt>
<trkpt lat="53.357735" lon="-1.906739"><ele>446</ele><time>2021-10-01T12:40:16Z</time><name>PT4398</name></trkpt>
<trkpt lat="53.357706" lon="-1.906675"><ele>446</ele><time>2021-10-01T12:40:20Z</time><name>PT4399</name></trkpt>
<trkpt lat="53.357678" lon="-1.906626"><ele>445</ele><time>2021-10-01T12:40:23Z</time><name>PT4400</name></trkpt>
<trkpt lat="53.357654" lon="-1.906593"><ele>445</ele><time>2021-10-01T12:40:26Z</time><name>PT4401</name></trkpt>
<trkpt lat="53.357617" lon="-1.906536"><ele>444</ele><time>2021-10-01T12:40:30Z</time><name>PT4402</name></trkpt>
<trkpt lat="53.357584" lon="-1.906472"><ele>443</ele><time>2021-10-01T12:40:34Z</time><name>PT4403</name></trkpt>
<trkpt lat="53.357557" lon="-1.906426"><ele>443</ele><time>2021-10-01T12:40:37Z</time><name>PT4404</name></trkpt>
<trkpt lat="53.357532" lon="-1.906377"><ele>443</ele><time>2021-10-01T12:40:40Z</time><name>PT4405</name></trkpt>
<trkpt lat="53.357495" lon="-1.906324"><ele>443</ele><time>2021-10-01T12:40:44Z</time><name>PT4406</name></trkpt>
<trkpt lat="53.357468" lon="-1.906272"><ele>442</ele><time>2021-10-01T12:40:47Z</time><name>PT4407</name></trkpt>
<trkpt lat="53.357430" lon="-1.906224"><ele>442</ele><time>2021-10-01T12:40:51Z</time><name>PT4408</name></trkpt>
<trkpt lat="53.357395" lon="-1.906172"><ele>441</ele><time>2021-10-01T12:40:55Z</time><name>PT4409</name></trkpt>
<trkpt lat="53.357363" lon="-1.906108"><ele>441</ele><time>2021-10-01T12:40:59Z</time><name>PT4410</name></trkpt>
<trkpt lat="53.357339" lon="-1.906069"><ele>441</ele><time>2021-10-01T12:41:02Z</time><name>PT4411</name></trkpt>
<trkpt lat="53.357297" lon="-1.906016"><ele>440</ele><time>2021-10-01T12:41:06Z</time><name>PT4412</name></trkpt>
<trkpt lat="53.357268" lon="-1.905971"><ele>440</ele><time>2021-10-01T12:41:09Z</time><name>PT4413</name></trkpt>
<trkpt lat="53.357245" lon="-1.905936"><ele>440</ele><time>2021-10-01T12:41:12Z</time><name>PT4414</name></trkpt>
<trkpt lat="53.357212" lon="-1.905878"><ele>439</ele><time>2021-10-01T12:41:16Z</time><name>PT4415</name></trkpt>
<trkpt lat="53.357182" lon="-1.905834"><ele>438</ele><time>2021-10-01T12:41:20Z</time><name>PT4416</name></trkpt>
<trkpt lat="53.357160" lon="-1.905795"><ele>438</ele><time>2021-10-01T12:41:23Z</time><name>PT4417</name></trkpt>
<trkpt lat="53.357133" lon="-1.905744"><ele>437</ele><time>2021-10-01T12:41:27Z</time><name>PT4418</name></trkpt>
<trkpt lat="53.357108" lon="-1.905700"><ele>437</ele><time>2021-10-01T12:41:30Z</time><name>PT4419</name></trkpt>
<trkpt lat="53.357081" lon="-1.905659"><ele>437</ele><time>2021-10-01T12:41:33Z</time><name>PT4420</name></trkpt>
<trkpt lat="53.357047" lon="-1.905610"><ele>436</ele><time>2021-10-01T12:41:37Z</time><name>PT4421</name></trkpt>
<trkpt lat="53.357018" lon="-1.905555"><ele>436</ele><time>2021-10-01T12:41:41Z</time><name>PT4422</name></trkpt>
<trkpt lat="53.356986" lon="-1.905497"><ele>435</ele><time>2021-10-01T12:41:45Z</time><name>PT4423</name></trkpt>
<trkpt lat="53.356963" lon="-1.905449"><ele>435</ele><time>2021-10-01T12:41:48Z</time><name>PT4424</name></trkpt>
<trkpt lat="53.356932" lon="-1.905408"><ele>434</ele><time>2021-10-01T12:41:52Z</time><name>PT4425</name></trkpt>
<trkpt lat="53.356913" lon="-1.905361"><ele>435</ele><time>2021-10-01T12:41:55Z</time><name>PT4426</name></trkpt>
<trkpt lat="53.356874" lon="-1.905312"><ele>434</ele><time>2021-10-01T12:41:59Z</time><name>PT4427</name></trkpt>
<trkpt lat="53.356848" lon="-1.905262"><ele>434</ele><time>2021-10-01T12:42:02Z</time><name>PT4428</name></trkpt>
<trkpt lat="53.356817" lon="-1.905224"><ele>433</ele><time>2021-10-01T12:42:05Z</time><name>PT4429</name></trkpt>
<trkpt lat="53.356793" lon="-1.905172"><ele>433</ele><time>2021-10-01T12:42:08Z</time><name>PT4430</name></trkpt>
<trkpt lat="53.356766" lon="-1.905138"><ele>433</ele><time>2021-10-01T12:42:11Z</time><name>PT4431</name></trkpt>
<trkpt lat="53.356725" lon="-1.905079"><ele>432</ele><time>2021-10-01T12:42:15Z</time><name>PT4432</name></trkpt>
<trkpt lat="53.356696" lon="-1.905045"><ele>432</ele><time>2021-10-01T12:42:18Z</time><name>PT4433</name></trkpt>
<trkpt lat="53.356653" lon="-1.904996"><ele>430</ele><time>2021-10-01T12:42:22Z</time><name>PT4434</name></trkpt>
<trkpt lat="53.356623" lon="-1.904966"><ele>430</ele><time>2021-10-01T12:42:25Z</time><name>PT4435</name></trkpt>
<trkpt lat="53.356586" lon="-1.904914"><ele>429</ele><time>2021-10-01T12:42:29Z</time><name>PT4436</name></trkpt>
<trkpt lat="53.356555" lon="-1.904895"><ele>428</ele><time>2021-10-01T12:42:32Z</time><name>PT4437</name></trkpt>
<trkpt lat="53.356519" lon="-1.904852"><ele>427</ele><time>2021-10-01T12:42:36Z</time><name>PT4438</name></trkpt>
<trkpt lat="53.356494" lon="-1.904802"><ele>427</ele><time>2021-10-01T12:42:40Z</time><name>PT4439</name></trkpt>
<trkpt lat="53.356486" lon="-1.904777"><ele>427</ele><time>2021-10-01T12:42:43Z</time><name>PT4440</name></trkpt>
<trkpt lat="53.356484" lon="-1.904774"><ele>427</ele><time>2021-10-01T12:42:46Z</time><name>PT4441</name></trkpt>
<trkpt lat="53.356480" lon="-1.904759"><ele>428</ele><time>2021-10-01T12:42:54Z</time><name>PT4442</name></trkpt>
<trkpt lat="53.356478" lon="-1.904735"><ele>428</ele><time>2021-10-01T12:42:57Z</time><name>PT4443</name></trkpt>
<trkpt lat="53.356469" lon="-1.904729"><ele>428</ele><time>2021-10-01T12:43:01Z</time><name>PT4444</name></trkpt>
<trkpt lat="53.356449" lon="-1.904704"><ele>427</ele><time>2021-10-01T12:43:05Z</time><name>PT4445</name></trkpt>
<trkpt lat="53.356445" lon="-1.904698"><ele>427</ele><time>2021-10-01T12:43:08Z</time><name>PT4446</name></trkpt>
<trkpt lat="53.356419" lon="-1.904644"><ele>426</ele><time>2021-10-01T12:43:12Z</time><name>PT4447</name></trkpt>
<trkpt lat="53.356401" lon="-1.904608"><ele>426</ele><time>2021-10-01T12:43:15Z</time><name>PT4448</name></trkpt>
<trkpt lat="53.356372" lon="-1.904548"><ele>426</ele><time>2021-10-01T12:43:19Z</time><name>PT4449</name></trkpt>
<trkpt lat="53.356341" lon="-1.904500"><ele>426</ele><time>2021-10-01T12:43:23Z</time><name>PT4450</name></trkpt>
<trkpt lat="53.356316" lon="-1.904452"><ele>425</ele><time>2021-10-01T12:43:27Z</time><name>PT4451</name></trkpt>
<trkpt lat="53.356296" lon="-1.904404"><ele>426</ele><time>2021-10-01T12:43:30Z</time><name>PT4452</name></trkpt>
<trkpt lat="53.356276" lon="-1.904372"><ele>425</ele><time>2021-10-01T12:43:33Z</time><name>PT4453</name></trkpt>
<trkpt lat="53.356260" lon="-1.904332"><ele>426</ele><time>2021-10-01T12:43:36Z</time><name>PT4454</name></trkpt>
<trkpt lat="53.356232" lon="-1.904281"><ele>425</ele><time>2021-10-01T12:43:40Z</time><name>PT4455</name></trkpt>
<trkpt lat="53.356203" lon="-1.904234"><ele>424</ele><time>2021-10-01T12:43:44Z</time><name>PT4456</name></trkpt>
<trkpt lat="53.356182" lon="-1.904183"><ele>425</ele><time>2021-10-01T12:43:47Z</time><name>PT4457</name></trkpt>
<trkpt lat="53.356151" lon="-1.904121"><ele>425</ele><time>2021-10-01T12:43:51Z</time><name>PT4458</name></trkpt>
<trkpt lat="53.356117" lon="-1.904069"><ele>424</ele><time>2021-10-01T12:43:55Z</time><name>PT4459</name></trkpt>
<trkpt lat="53.356095" lon="-1.904015"><ele>423</ele><time>2021-10-01T12:43:58Z</time><name>PT4460</name></trkpt>
<trkpt lat="53.356068" lon="-1.903958"><ele>423</ele><time>2021-10-01T12:44:02Z</time><name>PT4461</name></trkpt>
<trkpt lat="53.356046" lon="-1.903912"><ele>422</ele><time>2021-10-01T12:44:05Z</time><name>PT4462</name></trkpt>
<trkpt lat="53.356016" lon="-1.903858"><ele>422</ele><time>2021-10-01T12:44:09Z</time><name>PT4463</name></trkpt>
<trkpt lat="53.355989" lon="-1.903792"><ele>422</ele><time>2021-10-01T12:44:13Z</time><name>PT4464</name></trkpt>
<trkpt lat="53.355966" lon="-1.903732"><ele>421</ele><time>2021-10-01T12:44:17Z</time><name>PT4465</name></trkpt>
<trkpt lat="53.355944" lon="-1.903683"><ele>421</ele><time>2021-10-01T12:44:20Z</time><name>PT4466</name></trkpt>
<trkpt lat="53.355927" lon="-1.903640"><ele>421</ele><time>2021-10-01T12:44:23Z</time><name>PT4467</name></trkpt>
<trkpt lat="53.355908" lon="-1.903600"><ele>420</ele><time>2021-10-01T12:44:26Z</time><name>PT4468</name></trkpt>
<trkpt lat="53.355878" lon="-1.903551"><ele>420</ele><time>2021-10-01T12:44:30Z</time><name>PT4469</name></trkpt>
<trkpt lat="53.355858" lon="-1.903510"><ele>420</ele><time>2021-10-01T12:44:33Z</time><name>PT4470</name></trkpt>
<trkpt lat="53.355836" lon="-1.903466"><ele>420</ele><time>2021-10-01T12:44:36Z</time><name>PT4471</name></trkpt>
<trkpt lat="53.355808" lon="-1.903404"><ele>420</ele><time>2021-10-01T12:44:40Z</time><name>PT4472</name></trkpt>
<trkpt lat="53.355781" lon="-1.903344"><ele>420</ele><time>2021-10-01T12:44:44Z</time><name>PT4473</name></trkpt>
<trkpt lat="53.355754" lon="-1.903282"><ele>421</ele><time>2021-10-01T12:44:48Z</time><name>PT4474</name></trkpt>
<trkpt lat="53.355742" lon="-1.903233"><ele>421</ele><time>2021-10-01T12:44:51Z</time><name>PT4475</name></trkpt>
<trkpt lat="53.355721" lon="-1.903174"><ele>421</ele><time>2021-10-01T12:44:55Z</time><name>PT4476</name></trkpt>
<trkpt lat="53.355704" lon="-1.903133"><ele>420</ele><time>2021-10-01T12:44:58Z</time><name>PT4477</name></trkpt>
<trkpt lat="53.355683" lon="-1.903078"><ele>419</ele><time>2021-10-01T12:45:01Z</time><name>PT4478</name></trkpt>
<trkpt lat="53.355649" lon="-1.903020"><ele>418</ele><time>2021-10-01T12:45:05Z</time><name>PT4479</name></trkpt>
<trkpt lat="53.355627" lon="-1.902979"><ele>418</ele><time>2021-10-01T12:45:08Z</time><name>PT4480</name></trkpt>
<trkpt lat="53.355598" lon="-1.902919"><ele>417</ele><time>2021-10-01T12:45:12Z</time><name>PT4481</name></trkpt>
<trkpt lat="53.355576" lon="-1.902870"><ele>417</ele><time>2021-10-01T12:45:15Z</time><name>PT4482</name></trkpt>
<trkpt lat="53.355546" lon="-1.902807"><ele>417</ele><time>2021-10-01T12:45:19Z</time><name>PT4483</name></trkpt>
<trkpt lat="53.355532" lon="-1.902770"><ele>417</ele><time>2021-10-01T12:45:22Z</time><name>PT4484</name></trkpt>
<trkpt lat="53.355513" lon="-1.902732"><ele>417</ele><time>2021-10-01T12:45:25Z</time><name>PT4485</name></trkpt>
<trkpt lat="53.355497" lon="-1.902697"><ele>417</ele><time>2021-10-01T12:45:28Z</time><name>PT4486</name></trkpt>
<trkpt lat="53.355488" lon="-1.902681"><ele>417</ele><time>2021-10-01T12:45:32Z</time><name>PT4487</name></trkpt>
<trkpt lat="53.355486" lon="-1.902672"><ele>417</ele><time>2021-10-01T12:45:36Z</time><name>PT4488</name></trkpt>
<trkpt lat="53.355486" lon="-1.902663"><ele>417</ele><time>2021-10-01T12:45:54Z</time><name>PT4489</name></trkpt>
<trkpt lat="53.355465" lon="-1.902685"><ele>418</ele><time>2021-10-01T12:46:27Z</time><name>PT4490</name></trkpt>
<trkpt lat="53.355440" lon="-1.902713"><ele>417</ele><time>2021-10-01T12:46:30Z</time><name>PT4491</name></trkpt>
<trkpt lat="53.355420" lon="-1.902754"><ele>416</ele><time>2021-10-01T12:46:33Z</time><name>PT4492</name></trkpt>
<trkpt lat="53.355393" lon="-1.902821"><ele>415</ele><time>2021-10-01T12:46:37Z</time><name>PT4493</name></trkpt>
<trkpt lat="53.355375" lon="-1.902879"><ele>414</ele><time>2021-10-01T12:46:41Z</time><name>PT4494</name></trkpt>
<trkpt lat="53.355357" lon="-1.902926"><ele>413</ele><time>2021-10-01T12:46:44Z</time><name>PT4495</name></trkpt>
<trkpt lat="53.355337" lon="-1.902981"><ele>411</ele><time>2021-10-01T12:46:48Z</time><name>PT4496</name></trkpt>
<trkpt lat="53.355318" lon="-1.903032"><ele>410</ele><time>2021-10-01T12:46:52Z</time><name>PT4497</name></trkpt>
<trkpt lat="53.355299" lon="-1.903076"><ele>409</ele><time>2021-10-01T12:46:55Z</time><name>PT4498</name></trkpt>
<trkpt lat="53.355275" lon="-1.903136"><ele>409</ele><time>2021-10-01T12:46:59Z</time><name>PT4499</name></trkpt>
<trkpt lat="53.355249" lon="-1.903194"><ele>409</ele><time>2021-10-01T12:47:03Z</time><name>PT4500</name></trkpt>
<trkpt lat="53.355226" lon="-1.903248"><ele>407</ele><time>2021-10-01T12:47:07Z</time><name>PT4501</name></trkpt>
<trkpt lat="53.355207" lon="-1.903294"><ele>407</ele><time>2021-10-01T12:47:10Z</time><name>PT4502</name></trkpt>
<trkpt lat="53.355186" lon="-1.903349"><ele>406</ele><time>2021-10-01T12:47:14Z</time><name>PT4503</name></trkpt>
<trkpt lat="53.355166" lon="-1.903388"><ele>405</ele><time>2021-10-01T12:47:17Z</time><name>PT4504</name></trkpt>
<trkpt lat="53.355150" lon="-1.903435"><ele>404</ele><time>2021-10-01T12:47:21Z</time><name>PT4505</name></trkpt>
<trkpt lat="53.355134" lon="-1.903475"><ele>404</ele><time>2021-10-01T12:47:25Z</time><name>PT4506</name></trkpt>
<trkpt lat="53.355113" lon="-1.903518"><ele>403</ele><time>2021-10-01T12:47:29Z</time><name>PT4507</name></trkpt>
<trkpt lat="53.355089" lon="-1.903560"><ele>402</ele><time>2021-10-01T12:47:33Z</time><name>PT4508</name></trkpt>
<trkpt lat="53.355065" lon="-1.903588"><ele>401</ele><time>2021-10-01T12:47:36Z</time><name>PT4509</name></trkpt>
<trkpt lat="53.355040" lon="-1.903642"><ele>400</ele><time>2021-10-01T12:47:40Z</time><name>PT4510</name></trkpt>
<trkpt lat="53.355012" lon="-1.903694"><ele>400</ele><time>2021-10-01T12:47:44Z</time><name>PT4511</name></trkpt>
<trkpt lat="53.354987" lon="-1.903748"><ele>400</ele><time>2021-10-01T12:47:47Z</time><name>PT4512</name></trkpt>
<trkpt lat="53.354955" lon="-1.903818"><ele>400</ele><time>2021-10-01T12:47:51Z</time><name>PT4513</name></trkpt>
<trkpt lat="53.354927" lon="-1.903876"><ele>400</ele><time>2021-10-01T12:47:55Z</time><name>PT4514</name></trkpt>
<trkpt lat="53.354901" lon="-1.903919"><ele>400</ele><time>2021-10-01T12:47:58Z</time><name>PT4515</name></trkpt>
<trkpt lat="53.354863" lon="-1.903967"><ele>399</ele><time>2021-10-01T12:48:02Z</time><name>PT4516</name></trkpt>
<trkpt lat="53.354840" lon="-1.903999"><ele>400</ele><time>2021-10-01T12:48:05Z</time><name>PT4517</name></trkpt>
<trkpt lat="53.354814" lon="-1.904039"><ele>399</ele><time>2021-10-01T12:48:08Z</time><name>PT4518</name></trkpt>
<trkpt lat="53.354783" lon="-1.904098"><ele>398</ele><time>2021-10-01T12:48:12Z</time><name>PT4519</name></trkpt>
<trkpt lat="53.354753" lon="-1.904146"><ele>398</ele><time>2021-10-01T12:48:16Z</time><name>PT4520</name></trkpt>
<trkpt lat="53.354729" lon="-1.904190"><ele>398</ele><time>2021-10-01T12:48:19Z</time><name>PT4521</name></trkpt>
<trkpt lat="53.354693" lon="-1.904255"><ele>398</ele><time>2021-10-01T12:48:23Z</time><name>PT4522</name></trkpt>
<trkpt lat="53.354671" lon="-1.904295"><ele>398</ele><time>2021-10-01T12:48:26Z</time><name>PT4523</name></trkpt>
<trkpt lat="53.354635" lon="-1.904343"><ele>396</ele><time>2021-10-01T12:48:30Z</time><name>PT4524</name></trkpt>
<trkpt lat="53.354602" lon="-1.904388"><ele>396</ele><time>2021-10-01T12:48:34Z</time><name>PT4525</name></trkpt>
<trkpt lat="53.354576" lon="-1.904422"><ele>396</ele><time>2021-10-01T12:48:37Z</time><name>PT4526</name></trkpt>
<trkpt lat="53.354552" lon="-1.904454"><ele>396</ele><time>2021-10-01T12:48:40Z</time><name>PT4527</name></trkpt>
<trkpt lat="53.354528" lon="-1.904485"><ele>395</ele><time>2021-10-01T12:48:43Z</time><name>PT4528</name></trkpt>
<trkpt lat="53.354497" lon="-1.904535"><ele>394</ele><time>2021-10-01T12:48:47Z</time><name>PT4529</name></trkpt>
<trkpt lat="53.354474" lon="-1.904576"><ele>394</ele><time>2021-10-01T12:48:50Z</time><name>PT4530</name></trkpt>
<trkpt lat="53.354436" lon="-1.904634"><ele>394</ele><time>2021-10-01T12:48:54Z</time><name>PT4531</name></trkpt>
<trkpt lat="53.354412" lon="-1.904688"><ele>394</ele><time>2021-10-01T12:48:58Z</time><name>PT4532</name></trkpt>
<trkpt lat="53.354373" lon="-1.904737"><ele>393</ele><time>2021-10-01T12:49:02Z</time><name>PT4533</name></trkpt>
<trkpt lat="53.354354" lon="-1.904776"><ele>392</ele><time>2021-10-01T12:49:05Z</time><name>PT4534</name></trkpt>
<trkpt lat="53.354333" lon="-1.904814"><ele>392</ele><time>2021-10-01T12:49:08Z</time><name>PT4535</name></trkpt>
<trkpt lat="53.354300" lon="-1.904871"><ele>391</ele><time>2021-10-01T12:49:12Z</time><name>PT4536</name></trkpt>
<trkpt lat="53.354276" lon="-1.904912"><ele>390</ele><time>2021-10-01T12:49:15Z</time><name>PT4537</name></trkpt>
<trkpt lat="53.354245" lon="-1.904962"><ele>389</ele><time>2021-10-01T12:49:19Z</time><name>PT4538</name></trkpt>
<trkpt lat="53.354215" lon="-1.905013"><ele>388</ele><time>2021-10-01T12:49:23Z</time><name>PT4539</name></trkpt>
<trkpt lat="53.354194" lon="-1.905050"><ele>387</ele><time>2021-10-01T12:49:26Z</time><name>PT4540</name></trkpt>
<trkpt lat="53.354165" lon="-1.905102"><ele>386</ele><time>2021-10-01T12:49:30Z</time><name>PT4541</name></trkpt>
<trkpt lat="53.354137" lon="-1.905151"><ele>385</ele><time>2021-10-01T12:49:34Z</time><name>PT4542</name></trkpt>
<trkpt lat="53.354109" lon="-1.905207"><ele>385</ele><time>2021-10-01T12:49:38Z</time><name>PT4543</name></trkpt>
<trkpt lat="53.354089" lon="-1.905249"><ele>384</ele><time>2021-10-01T12:49:41Z</time><name>PT4544</name></trkpt>
<trkpt lat="53.354056" lon="-1.905310"><ele>384</ele><time>2021-10-01T12:49:45Z</time><name>PT4545</name></trkpt>
<trkpt lat="53.354037" lon="-1.905343"><ele>383</ele><time>2021-10-01T12:49:48Z</time><name>PT4546</name></trkpt>
<trkpt lat="53.354013" lon="-1.905396"><ele>382</ele><time>2021-10-01T12:49:51Z</time><name>PT4547</name></trkpt>
<trkpt lat="53.353986" lon="-1.905444"><ele>382</ele><time>2021-10-01T12:49:54Z</time><name>PT4548</name></trkpt>
<trkpt lat="53.353961" lon="-1.905504"><ele>381</ele><time>2021-10-01T12:49:58Z</time><name>PT4549</name></trkpt>
<trkpt lat="53.353934" lon="-1.905569"><ele>382</ele><time>2021-10-01T12:50:02Z</time><name>PT4550</name></trkpt>
<trkpt lat="53.353903" lon="-1.905635"><ele>381</ele><time>2021-10-01T12:50:06Z</time><name>PT4551</name></trkpt>
<trkpt lat="53.353880" lon="-1.905700"><ele>381</ele><time>2021-10-01T12:50:10Z</time><name>PT4552</name></trkpt>
<trkpt lat="53.353856" lon="-1.905772"><ele>380</ele><time>2021-10-01T12:50:14Z</time><name>PT4553</name></trkpt>
<trkpt lat="53.353836" lon="-1.905842"><ele>380</ele><time>2021-10-01T12:50:18Z</time><name>PT4554</name></trkpt>
<trkpt lat="53.353811" lon="-1.905913"><ele>379</ele><time>2021-10-01T12:50:22Z</time><name>PT4555</name></trkpt>
<trkpt lat="53.353791" lon="-1.905970"><ele>380</ele><time>2021-10-01T12:50:25Z</time><name>PT4556</name></trkpt>
<trkpt lat="53.353768" lon="-1.906027"><ele>380</ele><time>2021-10-01T12:50:28Z</time><name>PT4557</name></trkpt>
<trkpt lat="53.353753" lon="-1.906078"><ele>380</ele><time>2021-10-01T12:50:31Z</time><name>PT4558</name></trkpt>
<trkpt lat="53.353737" lon="-1.906127"><ele>380</ele><time>2021-10-01T12:50:34Z</time><name>PT4559</name></trkpt>
<trkpt lat="53.353713" lon="-1.906188"><ele>381</ele><time>2021-10-01T12:50:38Z</time><name>PT4560</name></trkpt>
<trkpt lat="53.353686" lon="-1.906259"><ele>381</ele><time>2021-10-01T12:50:42Z</time><name>PT4561</name></trkpt>
<trkpt lat="53.353671" lon="-1.906309"><ele>382</ele><time>2021-10-01T12:50:45Z</time><name>PT4562</name></trkpt>
<trkpt lat="53.353645" lon="-1.906388"><ele>380</ele><time>2021-10-01T12:50:49Z</time><name>PT4563</name></trkpt>
<trkpt lat="53.353627" lon="-1.906462"><ele>379</ele><time>2021-10-01T12:50:53Z</time><name>PT4564</name></trkpt>
<trkpt lat="53.353615" lon="-1.906522"><ele>378</ele><time>2021-10-01T12:50:56Z</time><name>PT4565</name></trkpt>
<trkpt lat="53.353599" lon="-1.906602"><ele>378</ele><time>2021-10-01T12:51:00Z</time><name>PT4566</name></trkpt>
<trkpt lat="53.353588" lon="-1.906661"><ele>377</ele><time>2021-10-01T12:51:03Z</time><name>PT4567</name></trkpt>
<trkpt lat="53.353576" lon="-1.906739"><ele>377</ele><time>2021-10-01T12:51:07Z</time><name>PT4568</name></trkpt>
<trkpt lat="53.353565" lon="-1.906824"><ele>377</ele><time>2021-10-01T12:51:11Z</time><name>PT4569</name></trkpt>
<trkpt lat="53.353563" lon="-1.906882"><ele>377</ele><time>2021-10-01T12:51:14Z</time><name>PT4570</name></trkpt>
<trkpt lat="53.353564" lon="-1.906964"><ele>377</ele><time>2021-10-01T12:51:18Z</time><name>PT4571</name></trkpt>
<trkpt lat="53.353572" lon="-1.907026"><ele>376</ele><time>2021-10-01T12:51:21Z</time><name>PT4572</name></trkpt>
<trkpt lat="53.353583" lon="-1.907106"><ele>376</ele><time>2021-10-01T12:51:25Z</time><name>PT4573</name></trkpt>
<trkpt lat="53.353599" lon="-1.907173"><ele>375</ele><time>2021-10-01T12:51:29Z</time><name>PT4574</name></trkpt>
<trkpt lat="53.353613" lon="-1.907230"><ele>375</ele><time>2021-10-01T12:51:32Z</time><name>PT4575</name></trkpt>
<trkpt lat="53.353626" lon="-1.907291"><ele>375</ele><time>2021-10-01T12:51:35Z</time><name>PT4576</name></trkpt>
<trkpt lat="53.353636" lon="-1.907345"><ele>375</ele><time>2021-10-01T12:51:38Z</time><name>PT4577</name></trkpt>
<trkpt lat="53.353651" lon="-1.907434"><ele>375</ele><time>2021-10-01T12:51:42Z</time><name>PT4578</name></trkpt>
<trkpt lat="53.353657" lon="-1.907499"><ele>374</ele><time>2021-10-01T12:51:45Z</time><name>PT4579</name></trkpt>
<trkpt lat="53.353649" lon="-1.907567"><ele>373</ele><time>2021-10-01T12:51:48Z</time><name>PT4580</name></trkpt>
<trkpt lat="53.353614" lon="-1.907631"><ele>374</ele><time>2021-10-01T12:51:52Z</time><name>PT4581</name></trkpt>
<trkpt lat="53.353578" lon="-1.907661"><ele>372</ele><time>2021-10-01T12:51:55Z</time><name>PT4582</name></trkpt>
<trkpt lat="53.353535" lon="-1.907712"><ele>372</ele><time>2021-10-01T12:51:59Z</time><name>PT4583</name></trkpt>
<trkpt lat="53.353492" lon="-1.907756"><ele>372</ele><time>2021-10-01T12:52:03Z</time><name>PT4584</name></trkpt>
<trkpt lat="53.353454" lon="-1.907801"><ele>371</ele><time>2021-10-01T12:52:07Z</time><name>PT4585</name></trkpt>
<trkpt lat="53.353428" lon="-1.907839"><ele>370</ele><time>2021-10-01T12:52:10Z</time><name>PT4586</name></trkpt>
<trkpt lat="53.353397" lon="-1.907871"><ele>369</ele><time>2021-10-01T12:52:13Z</time><name>PT4587</name></trkpt>
<trkpt lat="53.353371" lon="-1.907899"><ele>369</ele><time>2021-10-01T12:52:16Z</time><name>PT4588</name></trkpt>
<trkpt lat="53.353344" lon="-1.907938"><ele>369</ele><time>2021-10-01T12:52:19Z</time><name>PT4589</name></trkpt>
<trkpt lat="53.353300" lon="-1.907989"><ele>369</ele><time>2021-10-01T12:52:23Z</time><name>PT4590</name></trkpt>
<trkpt lat="53.353277" lon="-1.908028"><ele>368</ele><time>2021-10-01T12:52:26Z</time><name>PT4591</name></trkpt>
<trkpt lat="53.353236" lon="-1.908079"><ele>366</ele><time>2021-10-01T12:52:30Z</time><name>PT4592</name></trkpt>
<trkpt lat="53.353192" lon="-1.908126"><ele>366</ele><time>2021-10-01T12:52:34Z</time><name>PT4593</name></trkpt>
<trkpt lat="53.353161" lon="-1.908158"><ele>366</ele><time>2021-10-01T12:52:37Z</time><name>PT4594</name></trkpt>
<trkpt lat="53.353121" lon="-1.908192"><ele>365</ele><time>2021-10-01T12:52:41Z</time><name>PT4595</name></trkpt>
<trkpt lat="53.353068" lon="-1.908221"><ele>365</ele><time>2021-10-01T12:52:45Z</time><name>PT4596</name></trkpt>
<trkpt lat="53.353023" lon="-1.908239"><ele>365</ele><time>2021-10-01T12:52:49Z</time><name>PT4597</name></trkpt>
<trkpt lat="53.352994" lon="-1.908257"><ele>364</ele><time>2021-10-01T12:52:52Z</time><name>PT4598</name></trkpt>
<trkpt lat="53.352952" lon="-1.908280"><ele>363</ele><time>2021-10-01T12:52:56Z</time><name>PT4599</name></trkpt>
<trkpt lat="53.352920" lon="-1.908300"><ele>363</ele><time>2021-10-01T12:52:59Z</time><name>PT4600</name></trkpt>
<trkpt lat="53.352886" lon="-1.908316"><ele>362</ele><time>2021-10-01T12:53:02Z</time><name>PT4601</name></trkpt>
<trkpt lat="53.352833" lon="-1.908345"><ele>361</ele><time>2021-10-01T12:53:06Z</time><name>PT4602</name></trkpt>
<trkpt lat="53.352789" lon="-1.908369"><ele>360</ele><time>2021-10-01T12:53:10Z</time><name>PT4603</name></trkpt>
<trkpt lat="53.352741" lon="-1.908387"><ele>360</ele><time>2021-10-01T12:53:14Z</time><name>PT4604</name></trkpt>
<trkpt lat="53.352712" lon="-1.908407"><ele>359</ele><time>2021-10-01T12:53:17Z</time><name>PT4605</name></trkpt>
<trkpt lat="53.352674" lon="-1.908420"><ele>358</ele><time>2021-10-01T12:53:20Z</time><name>PT4606</name></trkpt>
<trkpt lat="53.352619" lon="-1.908424"><ele>358</ele><time>2021-10-01T12:53:24Z</time><name>PT4607</name></trkpt>
<trkpt lat="53.352570" lon="-1.908435"><ele>358</ele><time>2021-10-01T12:53:28Z</time><name>PT4608</name></trkpt>
<trkpt lat="53.352519" lon="-1.908445"><ele>357</ele><time>2021-10-01T12:53:32Z</time><name>PT4609</name></trkpt>
<trkpt lat="53.352483" lon="-1.908449"><ele>357</ele><time>2021-10-01T12:53:35Z</time><name>PT4610</name></trkpt>
<trkpt lat="53.352431" lon="-1.908456"><ele>357</ele><time>2021-10-01T12:53:39Z</time><name>PT4611</name></trkpt>
<trkpt lat="53.352382" lon="-1.908448"><ele>356</ele><time>2021-10-01T12:53:43Z</time><name>PT4612</name></trkpt>
<trkpt lat="53.352352" lon="-1.908448"><ele>355</ele><time>2021-10-01T12:53:46Z</time><name>PT4613</name></trkpt>
<trkpt lat="53.352303" lon="-1.908442"><ele>354</ele><time>2021-10-01T12:53:50Z</time><name>PT4614</name></trkpt>
<trkpt lat="53.352250" lon="-1.908442"><ele>355</ele><time>2021-10-01T12:53:54Z</time><name>PT4615</name></trkpt>
<trkpt lat="53.352210" lon="-1.908440"><ele>354</ele><time>2021-10-01T12:53:57Z</time><name>PT4616</name></trkpt>
<trkpt lat="53.352156" lon="-1.908425"><ele>355</ele><time>2021-10-01T12:54:01Z</time><name>PT4617</name></trkpt>
<trkpt lat="53.352115" lon="-1.908441"><ele>355</ele><time>2021-10-01T12:54:05Z</time><name>PT4618</name></trkpt>
<trkpt lat="53.352065" lon="-1.908441"><ele>354</ele><time>2021-10-01T12:54:09Z</time><name>PT4619</name></trkpt>
<trkpt lat="53.352009" lon="-1.908451"><ele>355</ele><time>2021-10-01T12:54:13Z</time><name>PT4620</name></trkpt>
<trkpt lat="53.351969" lon="-1.908458"><ele>355</ele><time>2021-10-01T12:54:16Z</time><name>PT4621</name></trkpt>
<trkpt lat="53.351935" lon="-1.908457"><ele>355</ele><time>2021-10-01T12:54:19Z</time><name>PT4622</name></trkpt>
<trkpt lat="53.351899" lon="-1.908458"><ele>355</ele><time>2021-10-01T12:54:22Z</time><name>PT4623</name></trkpt>
<trkpt lat="53.351865" lon="-1.908455"><ele>355</ele><time>2021-10-01T12:54:26Z</time><name>PT4624</name></trkpt>
<trkpt lat="53.351853" lon="-1.908446"><ele>355</ele><time>2021-10-01T12:54:29Z</time><name>PT4625</name></trkpt>
<trkpt lat="53.351833" lon="-1.908452"><ele>354</ele><time>2021-10-01T12:54:32Z</time><name>PT4626</name></trkpt>
<trkpt lat="53.351791" lon="-1.908477"><ele>354</ele><time>2021-10-01T12:54:36Z</time><name>PT4627</name></trkpt>
<trkpt lat="53.351766" lon="-1.908493"><ele>353</ele><time>2021-10-01T12:54:39Z</time><name>PT4628</name></trkpt>
<trkpt lat="53.351736" lon="-1.908509"><ele>352</ele><time>2021-10-01T12:54:43Z</time><name>PT4629</name></trkpt>
<trkpt lat="53.351718" lon="-1.908507"><ele>352</ele><time>2021-10-01T12:54:47Z</time><name>PT4630</name></trkpt>
<trkpt lat="53.351717" lon="-1.908507"><ele>352</ele><time>2021-10-01T12:54:51Z</time><name>PT4631</name></trkpt>
<trkpt lat="53.351720" lon="-1.908508"><ele>353</ele><time>2021-10-01T12:55:09Z</time><name>PT4632</name></trkpt>
<trkpt lat="53.351753" lon="-1.908492"><ele>353</ele><time>2021-10-01T12:55:12Z</time><name>PT4633</name></trkpt>
<trkpt lat="53.351792" lon="-1.908466"><ele>353</ele><time>2021-10-01T12:55:16Z</time><name>PT4634</name></trkpt>
<trkpt lat="53.351819" lon="-1.908446"><ele>355</ele><time>2021-10-01T12:55:19Z</time><name>PT4635</name></trkpt>
<trkpt lat="53.351824" lon="-1.908423"><ele>354</ele><time>2021-10-01T12:55:22Z</time><name>PT4636</name></trkpt>
<trkpt lat="53.351836" lon="-1.908387"><ele>354</ele><time>2021-10-01T12:55:30Z</time><name>PT4637</name></trkpt>
<trkpt lat="53.351853" lon="-1.908353"><ele>354</ele><time>2021-10-01T12:55:34Z</time><name>PT4638</name></trkpt>
<trkpt lat="53.351870" lon="-1.908311"><ele>353</ele><time>2021-10-01T12:55:38Z</time><name>PT4639</name></trkpt>
<trkpt lat="53.351881" lon="-1.908284"><ele>353</ele><time>2021-10-01T12:55:42Z</time><name>PT4640</name></trkpt>
<trkpt lat="53.351886" lon="-1.908271"><ele>353</ele><time>2021-10-01T12:55:45Z</time><name>PT4641</name></trkpt>
<trkpt lat="53.351922" lon="-1.908226"><ele>352</ele><time>2021-10-01T12:55:56Z</time><name>PT4642</name></trkpt>
<trkpt lat="53.351950" lon="-1.908211"><ele>352</ele><time>2021-10-01T12:55:59Z</time><name>PT4643</name></trkpt>
<trkpt lat="53.351995" lon="-1.908198"><ele>353</ele><time>2021-10-01T12:56:03Z</time><name>PT4644</name></trkpt>
<trkpt lat="53.352016" lon="-1.908183"><ele>353</ele><time>2021-10-01T12:56:06Z</time><name>PT4645</name></trkpt>
<trkpt lat="53.352044" lon="-1.908161"><ele>352</ele><time>2021-10-01T12:56:10Z</time><name>PT4646</name></trkpt>
<trkpt lat="53.352074" lon="-1.908147"><ele>351</ele><time>2021-10-01T12:56:13Z</time><name>PT4647</name></trkpt>
<trkpt lat="53.352081" lon="-1.908143"><ele>350</ele><time>2021-10-01T12:56:17Z</time><name>PT4648</name></trkpt>
<trkpt lat="53.352082" lon="-1.908135"><ele>351</ele><time>2021-10-01T12:56:20Z</time><name>PT4649</name></trkpt>
<trkpt lat="53.352101" lon="-1.908092"><ele>350</ele><time>2021-10-01T12:56:27Z</time><name>PT4650</name></trkpt>
<trkpt lat="53.352105" lon="-1.908061"><ele>350</ele><time>2021-10-01T12:56:30Z</time><name>PT4651</name></trkpt>
<trkpt lat="53.352125" lon="-1.908030"><ele>350</ele><time>2021-10-01T12:56:34Z</time><name>PT4652</name></trkpt>
<trkpt lat="53.352141" lon="-1.907988"><ele>351</ele><time>2021-10-01T12:56:37Z</time><name>PT4653</name></trkpt>
<trkpt lat="53.352151" lon="-1.907963"><ele>351</ele><time>2021-10-01T12:56:41Z</time><name>PT4654</name></trkpt>
<trkpt lat="53.352170" lon="-1.907934"><ele>351</ele><time>2021-10-01T12:56:45Z</time><name>PT4655</name></trkpt>
<trkpt lat="53.352187" lon="-1.907906"><ele>352</ele><time>2021-10-01T12:56:48Z</time><name>PT4656</name></trkpt>
<trkpt lat="53.352204" lon="-1.907880"><ele>353</ele><time>2021-10-01T12:56:51Z</time><name>PT4657</name></trkpt>
<trkpt lat="53.352218" lon="-1.907848"><ele>354</ele><time>2021-10-01T12:56:55Z</time><name>PT4658</name></trkpt>
<trkpt lat="53.352230" lon="-1.907832"><ele>354</ele><time>2021-10-01T12:56:57Z</time><name>PT4659</name></trkpt>
<trkpt lat="53.352236" lon="-1.907825"><ele>354</ele><time>2021-10-01T12:56:58Z</time><name>PT4660</name></trkpt>
<trkpt lat="53.352241" lon="-1.907817"><ele>354</ele><time>2021-10-01T12:56:59Z</time><name>PT4661</name></trkpt>
<trkpt lat="53.352248" lon="-1.907809"><ele>354</ele><time>2021-10-01T12:57:00Z</time><name>PT4662</name></trkpt>
<trkpt lat="53.352255" lon="-1.907801"><ele>354</ele><time>2021-10-01T12:57:01Z</time><name>PT4663</name></trkpt>
<trkpt lat="53.352262" lon="-1.907792"><ele>355</ele><time>2021-10-01T12:57:02Z</time><name>PT4664</name></trkpt>
<trkpt lat="53.352267" lon="-1.907784"><ele>355</ele><time>2021-10-01T12:57:03Z</time><name>PT4665</name></trkpt>
<trkpt lat="53.352272" lon="-1.907772"><ele>356</ele><time>2021-10-01T12:57:04Z</time><name>PT4666</name></trkpt>
<trkpt lat="53.352277" lon="-1.907763"><ele>356</ele><time>2021-10-01T12:57:05Z</time><name>PT4667</name></trkpt>
<trkpt lat="53.352283" lon="-1.907754"><ele>356</ele><time>2021-10-01T12:57:06Z</time><name>PT4668</name></trkpt>
<trkpt lat="53.352288" lon="-1.907748"><ele>356</ele><time>2021-10-01T12:57:07Z</time><name>PT4669</name></trkpt>
<trkpt lat="53.352293" lon="-1.907737"><ele>356</ele><time>2021-10-01T12:57:08Z</time><name>PT4670</name></trkpt>
<trkpt lat="53.352297" lon="-1.907730"><ele>356</ele><time>2021-10-01T12:57:09Z</time><name>PT4671</name></trkpt>
<trkpt lat="53.352302" lon="-1.907720"><ele>356</ele><time>2021-10-01T12:57:10Z</time><name>PT4672</name></trkpt>
<trkpt lat="53.352307" lon="-1.907710"><ele>356</ele><time>2021-10-01T12:57:11Z</time><name>PT4673</name></trkpt>
<trkpt lat="53.352310" lon="-1.907701"><ele>357</ele><time>2021-10-01T12:57:12Z</time><name>PT4674</name></trkpt>
<trkpt lat="53.352313" lon="-1.907688"><ele>357</ele><time>2021-10-01T12:57:13Z</time><name>PT4675</name></trkpt>
<trkpt lat="53.352317" lon="-1.907670"><ele>358</ele><time>2021-10-01T12:57:14Z</time><name>PT4676</name></trkpt>
<trkpt lat="53.352322" lon="-1.907657"><ele>359</ele><time>2021-10-01T12:57:15Z</time><name>PT4677</name></trkpt>
<trkpt lat="53.352325" lon="-1.907644"><ele>359</ele><time>2021-10-01T12:57:16Z</time><name>PT4678</name></trkpt>
<trkpt lat="53.352328" lon="-1.907633"><ele>359</ele><time>2021-10-01T12:57:17Z</time><name>PT4679</name></trkpt>
<trkpt lat="53.352331" lon="-1.907620"><ele>359</ele><time>2021-10-01T12:57:18Z</time><name>PT4680</name></trkpt>
<trkpt lat="53.352333" lon="-1.907606"><ele>359</ele><time>2021-10-01T12:57:19Z</time><name>PT4681</name></trkpt>
<trkpt lat="53.352337" lon="-1.907594"><ele>359</ele><time>2021-10-01T12:57:20Z</time><name>PT4682</name></trkpt>
<trkpt lat="53.352341" lon="-1.907582"><ele>360</ele><time>2021-10-01T12:57:21Z</time><name>PT4683</name></trkpt>
<trkpt lat="53.352344" lon="-1.907577"><ele>359</ele><time>2021-10-01T12:57:22Z</time><name>PT4684</name></trkpt>
<trkpt lat="53.352344" lon="-1.907573"><ele>359</ele><time>2021-10-01T12:57:23Z</time><name>PT4685</name></trkpt>
<trkpt lat="53.352346" lon="-1.907569"><ele>359</ele><time>2021-10-01T12:57:24Z</time><name>PT4686</name></trkpt>
<trkpt lat="53.352346" lon="-1.907557"><ele>360</ele><time>2021-10-01T12:58:07Z</time><name>PT4687</name></trkpt>
<trkpt lat="53.352345" lon="-1.907543"><ele>360</ele><time>2021-10-01T12:58:08Z</time><name>PT4688</name></trkpt>
<trkpt lat="53.352339" lon="-1.907541"><ele>359</ele><time>2021-10-01T12:58:09Z</time><name>PT4689</name></trkpt>
<trkpt lat="53.352342" lon="-1.907545"><ele>359</ele><time>2021-10-01T12:58:10Z</time><name>PT4690</name></trkpt>
<trkpt lat="53.352343" lon="-1.907538"><ele>360</ele><time>2021-10-01T12:58:24Z</time><name>PT4691</name></trkpt>
<trkpt lat="53.352342" lon="-1.907522"><ele>360</ele><time>2021-10-01T12:58:25Z</time><name>PT4692</name></trkpt>
<trkpt lat="53.352340" lon="-1.907518"><ele>360</ele><time>2021-10-01T12:58:26Z</time><name>PT4693</name></trkpt>
<trkpt lat="53.352342" lon="-1.907514"><ele>360</ele><time>2021-10-01T12:58:27Z</time><name>PT4694</name></trkpt>
<trkpt lat="53.352346" lon="-1.907507"><ele>360</ele><time>2021-10-01T12:58:32Z</time><name>PT4695</name></trkpt>
<trkpt lat="53.352348" lon="-1.907496"><ele>360</ele><time>2021-10-01T12:58:33Z</time><name>PT4696</name></trkpt>
<trkpt lat="53.352348" lon="-1.907480"><ele>360</ele><time>2021-10-01T12:58:34Z</time><name>PT4697</name></trkpt>
<trkpt lat="53.352350" lon="-1.907469"><ele>360</ele><time>2021-10-01T12:58:35Z</time><name>PT4698</name></trkpt>
<trkpt lat="53.352351" lon="-1.907457"><ele>360</ele><time>2021-10-01T12:58:36Z</time><name>PT4699</name></trkpt>
<trkpt lat="53.352357" lon="-1.907448"><ele>359</ele><time>2021-10-01T12:58:37Z</time><name>PT4700</name></trkpt>
<trkpt lat="53.352363" lon="-1.907434"><ele>359</ele><time>2021-10-01T12:58:38Z</time><name>PT4701</name></trkpt>
<trkpt lat="53.352371" lon="-1.907423"><ele>359</ele><time>2021-10-01T12:58:39Z</time><name>PT4702</name></trkpt>
<trkpt lat="53.352379" lon="-1.907414"><ele>359</ele><time>2021-10-01T12:58:40Z</time><name>PT4703</name></trkpt>
<trkpt lat="53.352386" lon="-1.907404"><ele>359</ele><time>2021-10-01T12:58:41Z</time><name>PT4704</name></trkpt>
<trkpt lat="53.352392" lon="-1.907390"><ele>359</ele><time>2021-10-01T12:58:42Z</time><name>PT4705</name></trkpt>
<trkpt lat="53.352396" lon="-1.907376"><ele>359</ele><time>2021-10-01T12:58:43Z</time><name>PT4706</name></trkpt>
<trkpt lat="53.352399" lon="-1.907367"><ele>359</ele><time>2021-10-01T12:58:44Z</time><name>PT4707</name></trkpt>
<trkpt lat="53.352404" lon="-1.907355"><ele>359</ele><time>2021-10-01T12:58:45Z</time><name>PT4708</name></trkpt>
<trkpt lat="53.352410" lon="-1.907342"><ele>359</ele><time>2021-10-01T12:58:46Z</time><name>PT4709</name></trkpt>
<trkpt lat="53.352414" lon="-1.907330"><ele>359</ele><time>2021-10-01T12:58:47Z</time><name>PT4710</name></trkpt>
<trkpt lat="53.352419" lon="-1.907317"><ele>359</ele><time>2021-10-01T12:58:48Z</time><name>PT4711</name></trkpt>
<trkpt lat="53.352421" lon="-1.907302"><ele>359</ele><time>2021-10-01T12:58:49Z</time><name>PT4712</name></trkpt>
<trkpt lat="53.352425" lon="-1.907289"><ele>359</ele><time>2021-10-01T12:58:50Z</time><name>PT4713</name></trkpt>
<trkpt lat="53.352430" lon="-1.907276"><ele>359</ele><time>2021-10-01T12:58:51Z</time><name>PT4714</name></trkpt>
<trkpt lat="53.352435" lon="-1.907263"><ele>359</ele><time>2021-10-01T12:58:52Z</time><name>PT4715</name></trkpt>
<trkpt lat="53.352440" lon="-1.907249"><ele>359</ele><time>2021-10-01T12:58:53Z</time><name>PT4716</name></trkpt>
<trkpt lat="53.352445" lon="-1.907236"><ele>359</ele><time>2021-10-01T12:58:54Z</time><name>PT4717</name></trkpt>
<trkpt lat="53.352450" lon="-1.907226"><ele>359</ele><time>2021-10-01T12:58:55Z</time><name>PT4718</name></trkpt>
<trkpt lat="53.352457" lon="-1.907215"><ele>360</ele><time>2021-10-01T12:58:56Z</time><name>PT4719</name></trkpt>
<trkpt lat="53.352464" lon="-1.907205"><ele>360</ele><time>2021-10-01T12:58:57Z</time><name>PT4720</name></trkpt>
<trkpt lat="53.352470" lon="-1.907191"><ele>360</ele><time>2021-10-01T12:58:58Z</time><name>PT4721</name></trkpt>
<trkpt lat="53.352477" lon="-1.907178"><ele>360</ele><time>2021-10-01T12:58:59Z</time><name>PT4722</name></trkpt>
<trkpt lat="53.352483" lon="-1.907166"><ele>360</ele><time>2021-10-01T12:59:00Z</time><name>PT4723</name></trkpt>
<trkpt lat="53.352488" lon="-1.907153"><ele>360</ele><time>2021-10-01T12:59:01Z</time><name>PT4724</name></trkpt>
<trkpt lat="53.352496" lon="-1.907140"><ele>360</ele><time>2021-10-01T12:59:02Z</time><name>PT4725</name></trkpt>
<trkpt lat="53.352502" lon="-1.907128"><ele>359</ele><time>2021-10-01T12:59:03Z</time><name>PT4726</name></trkpt>
<trkpt lat="53.352508" lon="-1.907120"><ele>359</ele><time>2021-10-01T12:59:04Z</time><name>PT4727</name></trkpt>
<trkpt lat="53.352519" lon="-1.907111"><ele>359</ele><time>2021-10-01T12:59:05Z</time><name>PT4728</name></trkpt>
<trkpt lat="53.352526" lon="-1.907098"><ele>359</ele><time>2021-10-01T12:59:06Z</time><name>PT4729</name></trkpt>
<trkpt lat="53.352533" lon="-1.907085"><ele>359</ele><time>2021-10-01T12:59:07Z</time><name>PT4730</name></trkpt>
<trkpt lat="53.352539" lon="-1.907074"><ele>359</ele><time>2021-10-01T12:59:08Z</time><name>PT4731</name></trkpt>
<trkpt lat="53.352544" lon="-1.907060"><ele>359</ele><time>2021-10-01T12:59:09Z</time><name>PT4732</name></trkpt>
<trkpt lat="53.352548" lon="-1.907047"><ele>360</ele><time>2021-10-01T12:59:10Z</time><name>PT4733</name></trkpt>
<trkpt lat="53.352555" lon="-1.907036"><ele>360</ele><time>2021-10-01T12:59:11Z</time><name>PT4734</name></trkpt>
<trkpt lat="53.352561" lon="-1.907027"><ele>359</ele><time>2021-10-01T12:59:12Z</time><name>PT4735</name></trkpt>
<trkpt lat="53.352565" lon="-1.907017"><ele>360</ele><time>2021-10-01T12:59:13Z</time><name>PT4736</name></trkpt>
<trkpt lat="53.352572" lon="-1.907006"><ele>359</ele><time>2021-10-01T12:59:14Z</time><name>PT4737</name></trkpt>
<trkpt lat="53.352579" lon="-1.906994"><ele>359</ele><time>2021-10-01T12:59:15Z</time><name>PT4738</name></trkpt>
<trkpt lat="53.352586" lon="-1.906983"><ele>359</ele><time>2021-10-01T12:59:16Z</time><name>PT4739</name></trkpt>
<trkpt lat="53.352591" lon="-1.906970"><ele>359</ele><time>2021-10-01T12:59:17Z</time><name>PT4740</name></trkpt>
<trkpt lat="53.352595" lon="-1.906959"><ele>359</ele><time>2021-10-01T12:59:18Z</time><name>PT4741</name></trkpt>
<trkpt lat="53.352605" lon="-1.906947"><ele>360</ele><time>2021-10-01T12:59:19Z</time><name>PT4742</name></trkpt>
<trkpt lat="53.352610" lon="-1.906935"><ele>360</ele><time>2021-10-01T12:59:20Z</time><name>PT4743</name></trkpt>
<trkpt lat="53.352615" lon="-1.906921"><ele>360</ele><time>2021-10-01T12:59:21Z</time><name>PT4744</name></trkpt>
<trkpt lat="53.352622" lon="-1.906907"><ele>360</ele><time>2021-10-01T12:59:22Z</time><name>PT4745</name></trkpt>
<trkpt lat="53.352628" lon="-1.906895"><ele>360</ele><time>2021-10-01T12:59:23Z</time><name>PT4746</name></trkpt>
<trkpt lat="53.352632" lon="-1.906882"><ele>360</ele><time>2021-10-01T12:59:24Z</time><name>PT4747</name></trkpt>
<trkpt lat="53.352637" lon="-1.906869"><ele>361</ele><time>2021-10-01T12:59:25Z</time><name>PT4748</name></trkpt>
<trkpt lat="53.352643" lon="-1.906858"><ele>361</ele><time>2021-10-01T12:59:26Z</time><name>PT4749</name></trkpt>
<trkpt lat="53.352647" lon="-1.906850"><ele>360</ele><time>2021-10-01T12:59:27Z</time><name>PT4750</name></trkpt>
<trkpt lat="53.352652" lon="-1.906838"><ele>360</ele><time>2021-10-01T12:59:28Z</time><name>PT4751</name></trkpt>
<trkpt lat="53.352657" lon="-1.906826"><ele>361</ele><time>2021-10-01T12:59:29Z</time><name>PT4752</name></trkpt>
<trkpt lat="53.352661" lon="-1.906813"><ele>361</ele><time>2021-10-01T12:59:30Z</time><name>PT4753</name></trkpt>
<trkpt lat="53.352667" lon="-1.906802"><ele>361</ele><time>2021-10-01T12:59:31Z</time><name>PT4754</name></trkpt>
<trkpt lat="53.352674" lon="-1.906790"><ele>361</ele><time>2021-10-01T12:59:32Z</time><name>PT4755</name></trkpt>
<trkpt lat="53.352681" lon="-1.906778"><ele>361</ele><time>2021-10-01T12:59:33Z</time><name>PT4756</name></trkpt>
<trkpt lat="53.352685" lon="-1.906763"><ele>361</ele><time>2021-10-01T12:59:34Z</time><name>PT4757</name></trkpt>
<trkpt lat="53.352689" lon="-1.906750"><ele>361</ele><time>2021-10-01T12:59:35Z</time><name>PT4758</name></trkpt>
<trkpt lat="53.352694" lon="-1.906736"><ele>361</ele><time>2021-10-01T12:59:36Z</time><name>PT4759</name></trkpt>
<trkpt lat="53.352697" lon="-1.906722"><ele>361</ele><time>2021-10-01T12:59:37Z</time><name>PT4760</name></trkpt>
<trkpt lat="53.352701" lon="-1.906707"><ele>361</ele><time>2021-10-01T12:59:38Z</time><name>PT4761</name></trkpt>
<trkpt lat="53.352706" lon="-1.906696"><ele>361</ele><time>2021-10-01T12:59:39Z</time><name>PT4762</name></trkpt>
<trkpt lat="53.352708" lon="-1.906683"><ele>361</ele><time>2021-10-01T12:59:40Z</time><name>PT4763</name></trkpt>
<trkpt lat="53.352710" lon="-1.906669"><ele>361</ele><time>2021-10-01T12:59:41Z</time><name>PT4764</name></trkpt>
<trkpt lat="53.352714" lon="-1.906655"><ele>361</ele><time>2021-10-01T12:59:42Z</time><name>PT4765</name></trkpt>
<trkpt lat="53.352722" lon="-1.906639"><ele>362</ele><time>2021-10-01T12:59:43Z</time><name>PT4766</name></trkpt>
<trkpt lat="53.352726" lon="-1.906627"><ele>362</ele><time>2021-10-01T12:59:44Z</time><name>PT4767</name></trkpt>
<trkpt lat="53.352732" lon="-1.906612"><ele>362</ele><time>2021-10-01T12:59:45Z</time><name>PT4768</name></trkpt>
<trkpt lat="53.352738" lon="-1.906597"><ele>362</ele><time>2021-10-01T12:59:46Z</time><name>PT4769</name></trkpt>
<trkpt lat="53.352742" lon="-1.906587"><ele>362</ele><time>2021-10-01T12:59:47Z</time><name>PT4770</name></trkpt>
<trkpt lat="53.352747" lon="-1.906573"><ele>362</ele><time>2021-10-01T12:59:48Z</time><name>PT4771</name></trkpt>
<trkpt lat="53.352752" lon="-1.906561"><ele>362</ele><time>2021-10-01T12:59:49Z</time><name>PT4772</name></trkpt>
<trkpt lat="53.352770" lon="-1.906516"><ele>361</ele><time>2021-10-01T12:59:53Z</time><name>PT4773</name></trkpt>
<trkpt lat="53.352784" lon="-1.906486"><ele>360</ele><time>2021-10-01T12:59:56Z</time><name>PT4774</name></trkpt>
<trkpt lat="53.352795" lon="-1.906453"><ele>360</ele><time>2021-10-01T12:59:59Z</time><name>PT4775</name></trkpt>
<trkpt lat="53.352815" lon="-1.906409"><ele>359</ele><time>2021-10-01T13:00:03Z</time><name>PT4776</name></trkpt>
<trkpt lat="53.352832" lon="-1.906383"><ele>359</ele><time>2021-10-01T13:00:06Z</time><name>PT4777</name></trkpt>
<trkpt lat="53.352861" lon="-1.906345"><ele>358</ele><time>2021-10-01T13:00:10Z</time><name>PT4778</name></trkpt>
<trkpt lat="53.352874" lon="-1.906304"><ele>358</ele><time>2021-10-01T13:00:13Z</time><name>PT4779</name></trkpt>
<trkpt lat="53.352885" lon="-1.906223"><ele>358</ele><time>2021-10-01T13:00:17Z</time><name>PT4780</name></trkpt>
<trkpt lat="53.352875" lon="-1.906156"><ele>357</ele><time>2021-10-01T13:00:21Z</time><name>PT4781</name></trkpt>
<trkpt lat="53.352865" lon="-1.906107"><ele>357</ele><time>2021-10-01T13:00:24Z</time><name>PT4782</name></trkpt>
<trkpt lat="53.352836" lon="-1.906073"><ele>357</ele><time>2021-10-01T13:00:28Z</time><name>PT4783</name></trkpt>
<trkpt lat="53.352816" lon="-1.906053"><ele>357</ele><time>2021-10-01T13:00:31Z</time><name>PT4784</name></trkpt>
<trkpt lat="53.352782" lon="-1.906035"><ele>358</ele><time>2021-10-01T13:00:35Z</time><name>PT4785</name></trkpt>
<trkpt lat="53.352763" lon="-1.906020"><ele>358</ele><time>2021-10-01T13:00:38Z</time><name>PT4786</name></trkpt>
<trkpt lat="53.352732" lon="-1.905987"><ele>358</ele><time>2021-10-01T13:00:42Z</time><name>PT4787</name></trkpt>
<trkpt lat="53.352699" lon="-1.905958"><ele>356</ele><time>2021-10-01T13:00:46Z</time><name>PT4788</name></trkpt>
<trkpt lat="53.352668" lon="-1.905942"><ele>356</ele><time>2021-10-01T13:00:49Z</time><name>PT4789</name></trkpt>
<trkpt lat="53.352628" lon="-1.905925"><ele>356</ele><time>2021-10-01T13:00:53Z</time><name>PT4790</name></trkpt>
<trkpt lat="53.352594" lon="-1.905899"><ele>357</ele><time>2021-10-01T13:00:56Z</time><name>PT4791</name></trkpt>
<trkpt lat="53.352556" lon="-1.905865"><ele>358</ele><time>2021-10-01T13:01:00Z</time><name>PT4792</name></trkpt>
<trkpt lat="53.352531" lon="-1.905850"><ele>357</ele><time>2021-10-01T13:01:03Z</time><name>PT4793</name></trkpt>
<trkpt lat="53.352509" lon="-1.905830"><ele>358</ele><time>2021-10-01T13:01:06Z</time><name>PT4794</name></trkpt>
<trkpt lat="53.352487" lon="-1.905835"><ele>357</ele><time>2021-10-01T13:01:09Z</time><name>PT4795</name></trkpt>
<trkpt lat="53.352469" lon="-1.905842"><ele>356</ele><time>2021-10-01T13:01:13Z</time><name>PT4796</name></trkpt>
<trkpt lat="53.352471" lon="-1.905842"><ele>356</ele><time>2021-10-01T13:01:17Z</time><name>PT4797</name></trkpt>
<trkpt lat="53.352485" lon="-1.905827"><ele>357</ele><time>2021-10-01T13:01:20Z</time><name>PT4798</name></trkpt>
<trkpt lat="53.352485" lon="-1.905787"><ele>357</ele><time>2021-10-01T13:01:24Z</time><name>PT4799</name></trkpt>
<trkpt lat="53.352479" lon="-1.905772"><ele>357</ele><time>2021-10-01T13:01:26Z</time><name>PT4800</name></trkpt>
<trkpt lat="53.352476" lon="-1.905767"><ele>358</ele><time>2021-10-01T13:01:27Z</time><name>PT4801</name></trkpt>
<trkpt lat="53.352473" lon="-1.905761"><ele>358</ele><time>2021-10-01T13:01:28Z</time><name>PT4802</name></trkpt>
<trkpt lat="53.352476" lon="-1.905760"><ele>358</ele><time>2021-10-01T13:01:29Z</time><name>PT4803</name></trkpt>
<trkpt lat="53.352475" lon="-1.905761"><ele>358</ele><time>2021-10-01T13:01:30Z</time><name>PT4804</name></trkpt>
<trkpt lat="53.352473" lon="-1.905760"><ele>358</ele><time>2021-10-01T13:01:31Z</time><name>PT4805</name></trkpt>
<trkpt lat="53.352473" lon="-1.905757"><ele>358</ele><time>2021-10-01T13:01:38Z</time><name>PT4806</name></trkpt>
<trkpt lat="53.352471" lon="-1.905740"><ele>359</ele><time>2021-10-01T13:01:39Z</time><name>PT4807</name></trkpt>
<trkpt lat="53.352461" lon="-1.905725"><ele>358</ele><time>2021-10-01T13:01:40Z</time><name>PT4808</name></trkpt>
<trkpt lat="53.352451" lon="-1.905709"><ele>359</ele><time>2021-10-01T13:01:41Z</time><name>PT4809</name></trkpt>
<trkpt lat="53.352442" lon="-1.905694"><ele>359</ele><time>2021-10-01T13:01:42Z</time><name>PT4810</name></trkpt>
<trkpt lat="53.352430" lon="-1.905676"><ele>358</ele><time>2021-10-01T13:01:43Z</time><name>PT4811</name></trkpt>
<trkpt lat="53.352422" lon="-1.905661"><ele>358</ele><time>2021-10-01T13:01:44Z</time><name>PT4812</name></trkpt>
<trkpt lat="53.352413" lon="-1.905643"><ele>358</ele><time>2021-10-01T13:01:45Z</time><name>PT4813</name></trkpt>
<trkpt lat="53.352405" lon="-1.905626"><ele>358</ele><time>2021-10-01T13:01:46Z</time><name>PT4814</name></trkpt>
<trkpt lat="53.352397" lon="-1.905608"><ele>358</ele><time>2021-10-01T13:01:47Z</time><name>PT4815</name></trkpt>
<trkpt lat="53.352390" lon="-1.905588"><ele>358</ele><time>2021-10-01T13:01:48Z</time><name>PT4816</name></trkpt>
<trkpt lat="53.352380" lon="-1.905570"><ele>358</ele><time>2021-10-01T13:01:49Z</time><name>PT4817</name></trkpt>
<trkpt lat="53.352373" lon="-1.905555"><ele>358</ele><time>2021-10-01T13:01:50Z</time><name>PT4818</name></trkpt>
<trkpt lat="53.352365" lon="-1.905538"><ele>357</ele><time>2021-10-01T13:01:51Z</time><name>PT4819</name></trkpt>
<trkpt lat="53.352357" lon="-1.905521"><ele>357</ele><time>2021-10-01T13:01:52Z</time><name>PT4820</name></trkpt>
<trkpt lat="53.352349" lon="-1.905505"><ele>357</ele><time>2021-10-01T13:01:53Z</time><name>PT4821</name></trkpt>
<trkpt lat="53.352338" lon="-1.905486"><ele>357</ele><time>2021-10-01T13:01:54Z</time><name>PT4822</name></trkpt>
<trkpt lat="53.352328" lon="-1.905465"><ele>357</ele><time>2021-10-01T13:01:55Z</time><name>PT4823</name></trkpt>
<trkpt lat="53.352322" lon="-1.905451"><ele>357</ele><time>2021-10-01T13:01:56Z</time><name>PT4824</name></trkpt>
<trkpt lat="53.352316" lon="-1.905434"><ele>356</ele><time>2021-10-01T13:01:57Z</time><name>PT4825</name></trkpt>
<trkpt lat="53.352309" lon="-1.905414"><ele>356</ele><time>2021-10-01T13:01:58Z</time><name>PT4826</name></trkpt>
<trkpt lat="53.352302" lon="-1.905397"><ele>356</ele><time>2021-10-01T13:01:59Z</time><name>PT4827</name></trkpt>
<trkpt lat="53.352296" lon="-1.905379"><ele>357</ele><time>2021-10-01T13:02:00Z</time><name>PT4828</name></trkpt>
<trkpt lat="53.352291" lon="-1.905357"><ele>357</ele><time>2021-10-01T13:02:01Z</time><name>PT4829</name></trkpt>
<trkpt lat="53.352287" lon="-1.905341"><ele>356</ele><time>2021-10-01T13:02:02Z</time><name>PT4830</name></trkpt>
<trkpt lat="53.352282" lon="-1.905325"><ele>356</ele><time>2021-10-01T13:02:03Z</time><name>PT4831</name></trkpt>
<trkpt lat="53.352278" lon="-1.905308"><ele>356</ele><time>2021-10-01T13:02:04Z</time><name>PT4832</name></trkpt>
<trkpt lat="53.352274" lon="-1.905288"><ele>356</ele><time>2021-10-01T13:02:05Z</time><name>PT4833</name></trkpt>
<trkpt lat="53.352268" lon="-1.905268"><ele>356</ele><time>2021-10-01T13:02:06Z</time><name>PT4834</name></trkpt>
<trkpt lat="53.352261" lon="-1.905253"><ele>356</ele><time>2021-10-01T13:02:07Z</time><name>PT4835</name></trkpt>
<trkpt lat="53.352253" lon="-1.905236"><ele>357</ele><time>2021-10-01T13:02:08Z</time><name>PT4836</name></trkpt>
<trkpt lat="53.352244" lon="-1.905217"><ele>357</ele><time>2021-10-01T13:02:09Z</time><name>PT4837</name></trkpt>
<trkpt lat="53.352236" lon="-1.905200"><ele>356</ele><time>2021-10-01T13:02:10Z</time><name>PT4838</name></trkpt>
<trkpt lat="53.352228" lon="-1.905181"><ele>356</ele><time>2021-10-01T13:02:11Z</time><name>PT4839</name></trkpt>
<trkpt lat="53.352223" lon="-1.905161"><ele>356</ele><time>2021-10-01T13:02:12Z</time><name>PT4840</name></trkpt>
<trkpt lat="53.352217" lon="-1.905136"><ele>356</ele><time>2021-10-01T13:02:13Z</time><name>PT4841</name></trkpt>
<trkpt lat="53.352211" lon="-1.905116"><ele>356</ele><time>2021-10-01T13:02:14Z</time><name>PT4842</name></trkpt>
<trkpt lat="53.352204" lon="-1.905096"><ele>357</ele><time>2021-10-01T13:02:15Z</time><name>PT4843</name></trkpt>
<trkpt lat="53.352200" lon="-1.905076"><ele>357</ele><time>2021-10-01T13:02:16Z</time><name>PT4844</name></trkpt>
<trkpt lat="53.352197" lon="-1.905055"><ele>357</ele><time>2021-10-01T13:02:17Z</time><name>PT4845</name></trkpt>
<trkpt lat="53.352193" lon="-1.905039"><ele>356</ele><time>2021-10-01T13:02:18Z</time><name>PT4846</name></trkpt>
<trkpt lat="53.352189" lon="-1.905023"><ele>356</ele><time>2021-10-01T13:02:19Z</time><name>PT4847</name></trkpt>
<trkpt lat="53.352185" lon="-1.905005"><ele>356</ele><time>2021-10-01T13:02:20Z</time><name>PT4848</name></trkpt>
<trkpt lat="53.352181" lon="-1.904985"><ele>356</ele><time>2021-10-01T13:02:21Z</time><name>PT4849</name></trkpt>
<trkpt lat="53.352179" lon="-1.904967"><ele>356</ele><time>2021-10-01T13:02:22Z</time><name>PT4850</name></trkpt>
<trkpt lat="53.352175" lon="-1.904946"><ele>356</ele><time>2021-10-01T13:02:23Z</time><name>PT4851</name></trkpt>
<trkpt lat="53.352171" lon="-1.904925"><ele>356</ele><time>2021-10-01T13:02:24Z</time><name>PT4852</name></trkpt>
<trkpt lat="53.352167" lon="-1.904906"><ele>356</ele><time>2021-10-01T13:02:25Z</time><name>PT4853</name></trkpt>
<trkpt lat="53.352164" lon="-1.904891"><ele>356</ele><time>2021-10-01T13:02:26Z</time><name>PT4854</name></trkpt>
<trkpt lat="53.352161" lon="-1.904875"><ele>356</ele><time>2021-10-01T13:02:27Z</time><name>PT4855</name></trkpt>
<trkpt lat="53.352158" lon="-1.904860"><ele>356</ele><time>2021-10-01T13:02:28Z</time><name>PT4856</name></trkpt>
<trkpt lat="53.352154" lon="-1.904843"><ele>356</ele><time>2021-10-01T13:02:29Z</time><name>PT4857</name></trkpt>
<trkpt lat="53.352150" lon="-1.904823"><ele>356</ele><time>2021-10-01T13:02:30Z</time><name>PT4858</name></trkpt>
<trkpt lat="53.352145" lon="-1.904807"><ele>357</ele><time>2021-10-01T13:02:31Z</time><name>PT4859</name></trkpt>
<trkpt lat="53.352142" lon="-1.904794"><ele>357</ele><time>2021-10-01T13:02:32Z</time><name>PT4860</name></trkpt>
<trkpt lat="53.352138" lon="-1.904786"><ele>357</ele><time>2021-10-01T13:02:33Z</time><name>PT4861</name></trkpt>
<trkpt lat="53.352131" lon="-1.904776"><ele>357</ele><time>2021-10-01T13:02:34Z</time><name>PT4862</name></trkpt>
<trkpt lat="53.352123" lon="-1.904763"><ele>356</ele><time>2021-10-01T13:02:35Z</time><name>PT4863</name></trkpt>
<trkpt lat="53.352116" lon="-1.904752"><ele>356</ele><time>2021-10-01T13:02:36Z</time><name>PT4864</name></trkpt>
<trkpt lat="53.352108" lon="-1.904746"><ele>356</ele><time>2021-10-01T13:02:37Z</time><name>PT4865</name></trkpt>
<trkpt lat="53.352099" lon="-1.904742"><ele>356</ele><time>2021-10-01T13:02:38Z</time><name>PT4866</name></trkpt>
<trkpt lat="53.352090" lon="-1.904734"><ele>356</ele><time>2021-10-01T13:02:39Z</time><name>PT4867</name></trkpt>
<trkpt lat="53.352079" lon="-1.904729"><ele>356</ele><time>2021-10-01T13:02:40Z</time><name>PT4868</name></trkpt>
<trkpt lat="53.352069" lon="-1.904725"><ele>356</ele><time>2021-10-01T13:02:41Z</time><name>PT4869</name></trkpt>
<trkpt lat="53.352058" lon="-1.904718"><ele>356</ele><time>2021-10-01T13:02:42Z</time><name>PT4870</name></trkpt>
<trkpt lat="53.352048" lon="-1.904707"><ele>356</ele><time>2021-10-01T13:02:43Z</time><name>PT4871</name></trkpt>
<trkpt lat="53.352038" lon="-1.904692"><ele>356</ele><time>2021-10-01T13:02:44Z</time><name>PT4872</name></trkpt>
<trkpt lat="53.352027" lon="-1.904676"><ele>356</ele><time>2021-10-01T13:02:45Z</time><name>PT4873</name></trkpt>
<trkpt lat="53.352017" lon="-1.904664"><ele>356</ele><time>2021-10-01T13:02:46Z</time><name>PT4874</name></trkpt>
<trkpt lat="53.352007" lon="-1.904650"><ele>356</ele><time>2021-10-01T13:02:47Z</time><name>PT4875</name></trkpt>
<trkpt lat="53.351995" lon="-1.904638"><ele>356</ele><time>2021-10-01T13:02:48Z</time><name>PT4876</name></trkpt>
<trkpt lat="53.351985" lon="-1.904626"><ele>356</ele><time>2021-10-01T13:02:49Z</time><name>PT4877</name></trkpt>
<trkpt lat="53.351974" lon="-1.904610"><ele>356</ele><time>2021-10-01T13:02:50Z</time><name>PT4878</name></trkpt>
<trkpt lat="53.351963" lon="-1.904596"><ele>356</ele><time>2021-10-01T13:02:51Z</time><name>PT4879</name></trkpt>
<trkpt lat="53.351949" lon="-1.904583"><ele>356</ele><time>2021-10-01T13:02:52Z</time><name>PT4880</name></trkpt>
<trkpt lat="53.351938" lon="-1.904573"><ele>356</ele><time>2021-10-01T13:02:53Z</time><name>PT4881</name></trkpt>
<trkpt lat="53.351927" lon="-1.904560"><ele>356</ele><time>2021-10-01T13:02:54Z</time><name>PT4882</name></trkpt>
<trkpt lat="53.351920" lon="-1.904551"><ele>356</ele><time>2021-10-01T13:02:55Z</time><name>PT4883</name></trkpt>
<trkpt lat="53.351909" lon="-1.904539"><ele>356</ele><time>2021-10-01T13:02:56Z</time><name>PT4884</name></trkpt>
<trkpt lat="53.351899" lon="-1.904526"><ele>356</ele><time>2021-10-01T13:02:57Z</time><name>PT4885</name></trkpt>
<trkpt lat="53.351889" lon="-1.904515"><ele>356</ele><time>2021-10-01T13:02:58Z</time><name>PT4886</name></trkpt>
<trkpt lat="53.351880" lon="-1.904506"><ele>356</ele><time>2021-10-01T13:02:59Z</time><name>PT4887</name></trkpt>
<trkpt lat="53.351872" lon="-1.904496"><ele>356</ele><time>2021-10-01T13:03:00Z</time><name>PT4888</name></trkpt>
<trkpt lat="53.351864" lon="-1.904483"><ele>356</ele><time>2021-10-01T13:03:01Z</time><name>PT4889</name></trkpt>
<trkpt lat="53.351857" lon="-1.904472"><ele>356</ele><time>2021-10-01T13:03:02Z</time><name>PT4890</name></trkpt>
<trkpt lat="53.351854" lon="-1.904467"><ele>356</ele><time>2021-10-01T13:03:03Z</time><name>PT4891</name></trkpt>
<trkpt lat="53.351852" lon="-1.904464"><ele>356</ele><time>2021-10-01T13:03:04Z</time><name>PT4892</name></trkpt>
<trkpt lat="53.351852" lon="-1.904464"><ele>356</ele><time>2021-10-01T13:03:05Z</time><name>PT4893</name></trkpt>
<trkpt lat="53.351853" lon="-1.904465"><ele>356</ele><time>2021-10-01T13:03:06Z</time><name>PT4894</name></trkpt>
<trkpt lat="53.351854" lon="-1.904466"><ele>355</ele><time>2021-10-01T13:03:07Z</time><name>PT4895</name></trkpt>
<trkpt lat="53.351853" lon="-1.904465"><ele>355</ele><time>2021-10-01T13:03:12Z</time><name>PT4896</name></trkpt>
<trkpt lat="53.351848" lon="-1.904459"><ele>355</ele><time>2021-10-01T13:03:13Z</time><name>PT4897</name></trkpt>
<trkpt lat="53.351845" lon="-1.904452"><ele>355</ele><time>2021-10-01T13:03:14Z</time><name>PT4898</name></trkpt>
<trkpt lat="53.351842" lon="-1.904444"><ele>355</ele><time>2021-10-01T13:03:15Z</time><name>PT4899</name></trkpt>
<trkpt lat="53.351836" lon="-1.904445"><ele>355</ele><time>2021-10-01T13:03:16Z</time><name>PT4900</name></trkpt>
<trkpt lat="53.351834" lon="-1.904448"><ele>355</ele><time>2021-10-01T13:03:17Z</time><name>PT4901</name></trkpt>
<trkpt lat="53.351833" lon="-1.904456"><ele>355</ele><time>2021-10-01T13:03:18Z</time><name>PT4902</name></trkpt>
<trkpt lat="53.351831" lon="-1.904462"><ele>355</ele><time>2021-10-01T13:03:19Z</time><name>PT4903</name></trkpt>
<trkpt lat="53.351831" lon="-1.904470"><ele>355</ele><time>2021-10-01T13:03:20Z</time><name>PT4904</name></trkpt>
<trkpt lat="53.351827" lon="-1.904477"><ele>354</ele><time>2021-10-01T13:03:21Z</time><name>PT4905</name></trkpt>
<trkpt lat="53.351824" lon="-1.904484"><ele>354</ele><time>2021-10-01T13:03:22Z</time><name>PT4906</name></trkpt>
<trkpt lat="53.351823" lon="-1.904490"><ele>354</ele><time>2021-10-01T13:03:23Z</time><name>PT4907</name></trkpt>
<trkpt lat="53.351821" lon="-1.904492"><ele>354</ele><time>2021-10-01T13:03:24Z</time><name>PT4908</name></trkpt>
<trkpt lat="53.351818" lon="-1.904494"><ele>354</ele><time>2021-10-01T13:03:25Z</time><name>PT4909</name></trkpt>
<trkpt lat="53.351802" lon="-1.904497"><ele>354</ele><time>2021-10-01T13:03:29Z</time><name>PT4910</name></trkpt>
<trkpt lat="53.351789" lon="-1.904489"><ele>353</ele><time>2021-10-01T13:03:33Z</time><name>PT4911</name></trkpt>
<trkpt lat="53.351784" lon="-1.904485"><ele>353</ele><time>2021-10-01T13:03:37Z</time><name>PT4912</name></trkpt>
<trkpt lat="53.351779" lon="-1.904476"><ele>353</ele><time>2021-10-01T13:03:44Z</time><name>PT4913</name></trkpt>
<trkpt lat="53.351754" lon="-1.904460"><ele>353</ele><time>2021-10-01T13:03:48Z</time><name>PT4914</name></trkpt>
<trkpt lat="53.351759" lon="-1.904446"><ele>353</ele><time>2021-10-01T13:03:52Z</time><name>PT4915</name></trkpt>
<trkpt lat="53.351752" lon="-1.904423"><ele>354</ele><time>2021-10-01T13:03:55Z</time><name>PT4916</name></trkpt>
<trkpt lat="53.351732" lon="-1.904376"><ele>354</ele><time>2021-10-01T13:03:59Z</time><name>PT4917</name></trkpt>
<trkpt lat="53.351717" lon="-1.904325"><ele>354</ele><time>2021-10-01T13:04:02Z</time><name>PT4918</name></trkpt>
<trkpt lat="53.351689" lon="-1.904258"><ele>355</ele><time>2021-10-01T13:04:06Z</time><name>PT4919</name></trkpt>
<trkpt lat="53.351652" lon="-1.904204"><ele>355</ele><time>2021-10-01T13:04:10Z</time><name>PT4920</name></trkpt>
<trkpt lat="53.351629" lon="-1.904151"><ele>355</ele><time>2021-10-01T13:04:14Z</time><name>PT4921</name></trkpt>
<trkpt lat="53.351614" lon="-1.904104"><ele>355</ele><time>2021-10-01T13:04:17Z</time><name>PT4922</name></trkpt>
<trkpt lat="53.351587" lon="-1.904038"><ele>355</ele><time>2021-10-01T13:04:21Z</time><name>PT4923</name></trkpt>
<trkpt lat="53.351572" lon="-1.903995"><ele>354</ele><time>2021-10-01T13:04:24Z</time><name>PT4924</name></trkpt>
<trkpt lat="53.351557" lon="-1.903927"><ele>354</ele><time>2021-10-01T13:04:28Z</time><name>PT4925</name></trkpt>
<trkpt lat="53.351536" lon="-1.903878"><ele>354</ele><time>2021-10-01T13:04:31Z</time><name>PT4926</name></trkpt>
<trkpt lat="53.351516" lon="-1.903830"><ele>354</ele><time>2021-10-01T13:04:34Z</time><name>PT4927</name></trkpt>
<trkpt lat="53.351492" lon="-1.903793"><ele>351</ele><time>2021-10-01T13:04:38Z</time><name>PT4928</name></trkpt>
<trkpt lat="53.351471" lon="-1.903710"><ele>351</ele><time>2021-10-01T13:04:42Z</time><name>PT4929</name></trkpt>
<trkpt lat="53.351447" lon="-1.903629"><ele>352</ele><time>2021-10-01T13:04:46Z</time><name>PT4930</name></trkpt>
<trkpt lat="53.351430" lon="-1.903564"><ele>352</ele><time>2021-10-01T13:04:49Z</time><name>PT4931</name></trkpt>
<trkpt lat="53.351405" lon="-1.903488"><ele>353</ele><time>2021-10-01T13:04:53Z</time><name>PT4932</name></trkpt>
<trkpt lat="53.351389" lon="-1.903421"><ele>353</ele><time>2021-10-01T13:04:56Z</time><name>PT4933</name></trkpt>
<trkpt lat="53.351365" lon="-1.903351"><ele>354</ele><time>2021-10-01T13:05:00Z</time><name>PT4934</name></trkpt>
<trkpt lat="53.351341" lon="-1.903287"><ele>354</ele><time>2021-10-01T13:05:04Z</time><name>PT4935</name></trkpt>
<trkpt lat="53.351318" lon="-1.903220"><ele>353</ele><time>2021-10-01T13:05:08Z</time><name>PT4936</name></trkpt>
<trkpt lat="53.351301" lon="-1.903182"><ele>353</ele><time>2021-10-01T13:05:11Z</time><name>PT4937</name></trkpt>
<trkpt lat="53.351290" lon="-1.903160"><ele>353</ele><time>2021-10-01T13:05:14Z</time><name>PT4938</name></trkpt>
<trkpt lat="53.351287" lon="-1.903158"><ele>353</ele><time>2021-10-01T13:05:17Z</time><name>PT4939</name></trkpt>
<trkpt lat="53.351287" lon="-1.903155"><ele>353</ele><time>2021-10-01T13:05:18Z</time><name>PT4940</name></trkpt>
<trkpt lat="53.351287" lon="-1.903154"><ele>353</ele><time>2021-10-01T13:05:19Z</time><name>PT4941</name></trkpt>
<trkpt lat="53.351286" lon="-1.903153"><ele>353</ele><time>2021-10-01T13:05:20Z</time><name>PT4942</name></trkpt>
<trkpt lat="53.351285" lon="-1.903149"><ele>353</ele><time>2021-10-01T13:05:22Z</time><name>PT4943</name></trkpt>
<trkpt lat="53.351282" lon="-1.903138"><ele>354</ele><time>2021-10-01T13:05:23Z</time><name>PT4944</name></trkpt>
<trkpt lat="53.351280" lon="-1.903144"><ele>354</ele><time>2021-10-01T13:05:24Z</time><name>PT4945</name></trkpt>
<trkpt lat="53.351281" lon="-1.903139"><ele>354</ele><time>2021-10-01T13:05:32Z</time><name>PT4946</name></trkpt>
<trkpt lat="53.351277" lon="-1.903131"><ele>354</ele><time>2021-10-01T13:05:33Z</time><name>PT4947</name></trkpt>
<trkpt lat="53.351272" lon="-1.903121"><ele>354</ele><time>2021-10-01T13:05:34Z</time><name>PT4948</name></trkpt>
<trkpt lat="53.351265" lon="-1.903111"><ele>354</ele><time>2021-10-01T13:05:35Z</time><name>PT4949</name></trkpt>
<trkpt lat="53.351258" lon="-1.903102"><ele>354</ele><time>2021-10-01T13:05:36Z</time><name>PT4950</name></trkpt>
<trkpt lat="53.351250" lon="-1.903091"><ele>354</ele><time>2021-10-01T13:05:37Z</time><name>PT4951</name></trkpt>
<trkpt lat="53.351243" lon="-1.903067"><ele>354</ele><time>2021-10-01T13:05:38Z</time><name>PT4952</name></trkpt>
<trkpt lat="53.351236" lon="-1.903047"><ele>355</ele><time>2021-10-01T13:05:39Z</time><name>PT4953</name></trkpt>
<trkpt lat="53.351228" lon="-1.903039"><ele>354</ele><time>2021-10-01T13:05:40Z</time><name>PT4954</name></trkpt>
<trkpt lat="53.351220" lon="-1.903027"><ele>354</ele><time>2021-10-01T13:05:41Z</time><name>PT4955</name></trkpt>
<trkpt lat="53.351211" lon="-1.903016"><ele>354</ele><time>2021-10-01T13:05:42Z</time><name>PT4956</name></trkpt>
<trkpt lat="53.351202" lon="-1.902999"><ele>354</ele><time>2021-10-01T13:05:43Z</time><name>PT4957</name></trkpt>
<trkpt lat="53.351194" lon="-1.902986"><ele>354</ele><time>2021-10-01T13:05:44Z</time><name>PT4958</name></trkpt>
<trkpt lat="53.351187" lon="-1.902973"><ele>354</ele><time>2021-10-01T13:05:45Z</time><name>PT4959</name></trkpt>
<trkpt lat="53.351179" lon="-1.902961"><ele>354</ele><time>2021-10-01T13:05:46Z</time><name>PT4960</name></trkpt>
<trkpt lat="53.351172" lon="-1.902954"><ele>353</ele><time>2021-10-01T13:05:47Z</time><name>PT4961</name></trkpt>
<trkpt lat="53.351165" lon="-1.902944"><ele>354</ele><time>2021-10-01T13:05:48Z</time><name>PT4962</name></trkpt>
<trkpt lat="53.351158" lon="-1.902930"><ele>354</ele><time>2021-10-01T13:05:49Z</time><name>PT4963</name></trkpt>
<trkpt lat="53.351153" lon="-1.902917"><ele>354</ele><time>2021-10-01T13:05:50Z</time><name>PT4964</name></trkpt>
<trkpt lat="53.351147" lon="-1.902903"><ele>354</ele><time>2021-10-01T13:05:51Z</time><name>PT4965</name></trkpt>
<trkpt lat="53.351141" lon="-1.902892"><ele>354</ele><time>2021-10-01T13:05:52Z</time><name>PT4966</name></trkpt>
<trkpt lat="53.351134" lon="-1.902882"><ele>354</ele><time>2021-10-01T13:05:53Z</time><name>PT4967</name></trkpt>
<trkpt lat="53.351126" lon="-1.902872"><ele>354</ele><time>2021-10-01T13:05:54Z</time><name>PT4968</name></trkpt>
<trkpt lat="53.351119" lon="-1.902863"><ele>354</ele><time>2021-10-01T13:05:55Z</time><name>PT4969</name></trkpt>
<trkpt lat="53.351112" lon="-1.902861"><ele>354</ele><time>2021-10-01T13:05:56Z</time><name>PT4970</name></trkpt>
<trkpt lat="53.351102" lon="-1.902857"><ele>354</ele><time>2021-10-01T13:05:57Z</time><name>PT4971</name></trkpt>
<trkpt lat="53.351093" lon="-1.902849"><ele>354</ele><time>2021-10-01T13:05:58Z</time><name>PT4972</name></trkpt>
<trkpt lat="53.351083" lon="-1.902840"><ele>354</ele><time>2021-10-01T13:05:59Z</time><name>PT4973</name></trkpt>
<trkpt lat="53.351075" lon="-1.902828"><ele>354</ele><time>2021-10-01T13:06:00Z</time><name>PT4974</name></trkpt>
<trkpt lat="53.351067" lon="-1.902814"><ele>354</ele><time>2021-10-01T13:06:01Z</time><name>PT4975</name></trkpt>
<trkpt lat="53.351058" lon="-1.902798"><ele>354</ele><time>2021-10-01T13:06:02Z</time><name>PT4976</name></trkpt>
<trkpt lat="53.351052" lon="-1.902784"><ele>354</ele><time>2021-10-01T13:06:03Z</time><name>PT4977</name></trkpt>
<trkpt lat="53.351039" lon="-1.902770"><ele>353</ele><time>2021-10-01T13:06:04Z</time><name>PT4978</name></trkpt>
<trkpt lat="53.351029" lon="-1.902752"><ele>354</ele><time>2021-10-01T13:06:05Z</time><name>PT4979</name></trkpt>
<trkpt lat="53.351022" lon="-1.902736"><ele>354</ele><time>2021-10-01T13:06:06Z</time><name>PT4980</name></trkpt>
<trkpt lat="53.351019" lon="-1.902724"><ele>354</ele><time>2021-10-01T13:06:07Z</time><name>PT4981</name></trkpt>
<trkpt lat="53.351013" lon="-1.902705"><ele>353</ele><time>2021-10-01T13:06:08Z</time><name>PT4982</name></trkpt>
<trkpt lat="53.351006" lon="-1.902689"><ele>353</ele><time>2021-10-01T13:06:09Z</time><name>PT4983</name></trkpt>
<trkpt lat="53.351000" lon="-1.902674"><ele>353</ele><time>2021-10-01T13:06:10Z</time><name>PT4984</name></trkpt>
<trkpt lat="53.350995" lon="-1.902656"><ele>353</ele><time>2021-10-01T13:06:11Z</time><name>PT4985</name></trkpt>
<trkpt lat="53.350989" lon="-1.902640"><ele>353</ele><time>2021-10-01T13:06:12Z</time><name>PT4986</name></trkpt>
<trkpt lat="53.350985" lon="-1.902625"><ele>353</ele><time>2021-10-01T13:06:13Z</time><name>PT4987</name></trkpt>
<trkpt lat="53.350981" lon="-1.902609"><ele>353</ele><time>2021-10-01T13:06:14Z</time><name>PT4988</name></trkpt>
<trkpt lat="53.350977" lon="-1.902595"><ele>353</ele><time>2021-10-01T13:06:15Z</time><name>PT4989</name></trkpt>
<trkpt lat="53.350973" lon="-1.902580"><ele>353</ele><time>2021-10-01T13:06:16Z</time><name>PT4990</name></trkpt>
<trkpt lat="53.350966" lon="-1.902564"><ele>353</ele><time>2021-10-01T13:06:17Z</time><name>PT4991</name></trkpt>
<trkpt lat="53.350959" lon="-1.902547"><ele>353</ele><time>2021-10-01T13:06:18Z</time><name>PT4992</name></trkpt>
<trkpt lat="53.350953" lon="-1.902529"><ele>353</ele><time>2021-10-01T13:06:19Z</time><name>PT4993</name></trkpt>
<trkpt lat="53.350945" lon="-1.902511"><ele>353</ele><time>2021-10-01T13:06:20Z</time><name>PT4994</name></trkpt>
<trkpt lat="53.350937" lon="-1.902495"><ele>353</ele><time>2021-10-01T13:06:21Z</time><name>PT4995</name></trkpt>
<trkpt lat="53.350928" lon="-1.902482"><ele>353</ele><time>2021-10-01T13:06:22Z</time><name>PT4996</name></trkpt>
<trkpt lat="53.350919" lon="-1.902467"><ele>353</ele><time>2021-10-01T13:06:23Z</time><name>PT4997</name></trkpt>
<trkpt lat="53.350911" lon="-1.902454"><ele>353</ele><time>2021-10-01T13:06:24Z</time><name>PT4998</name></trkpt>
<trkpt lat="53.350903" lon="-1.902438"><ele>353</ele><time>2021-10-01T13:06:25Z</time><name>PT4999</name></trkpt>
<trkpt lat="53.350898" lon="-1.902422"><ele>352</ele><time>2021-10-01T13:06:26Z</time><name>PT5000</name></trkpt>
<trkpt lat="53.350893" lon="-1.902407"><ele>353</ele><time>2021-10-01T13:06:27Z</time><name>PT5001</name></trkpt>
<trkpt lat="53.350889" lon="-1.902392"><ele>352</ele><time>2021-10-01T13:06:28Z</time><name>PT5002</name></trkpt>
<trkpt lat="53.350885" lon="-1.902375"><ele>352</ele><time>2021-10-01T13:06:29Z</time><name>PT5003</name></trkpt>
<trkpt lat="53.350881" lon="-1.902361"><ele>352</ele><time>2021-10-01T13:06:30Z</time><name>PT5004</name></trkpt>
<trkpt lat="53.350874" lon="-1.902347"><ele>352</ele><time>2021-10-01T13:06:31Z</time><name>PT5005</name></trkpt>
<trkpt lat="53.350870" lon="-1.902334"><ele>352</ele><time>2021-10-01T13:06:32Z</time><name>PT5006</name></trkpt>
<trkpt lat="53.350866" lon="-1.902322"><ele>352</ele><time>2021-10-01T13:06:33Z</time><name>PT5007</name></trkpt>
<trkpt lat="53.350862" lon="-1.902312"><ele>352</ele><time>2021-10-01T13:06:34Z</time><name>PT5008</name></trkpt>
<trkpt lat="53.350859" lon="-1.902304"><ele>352</ele><time>2021-10-01T13:06:35Z</time><name>PT5009</name></trkpt>
<trkpt lat="53.350858" lon="-1.902296"><ele>353</ele><time>2021-10-01T13:06:36Z</time><name>PT5010</name></trkpt>
<trkpt lat="53.350858" lon="-1.902293"><ele>353</ele><time>2021-10-01T13:06:37Z</time><name>PT5011</name></trkpt>
<trkpt lat="53.350854" lon="-1.902290"><ele>352</ele><time>2021-10-01T13:06:38Z</time><name>PT5012</name></trkpt>
<trkpt lat="53.350850" lon="-1.902286"><ele>353</ele><time>2021-10-01T13:06:39Z</time><name>PT5013</name></trkpt>
<trkpt lat="53.350846" lon="-1.902283"><ele>353</ele><time>2021-10-01T13:06:40Z</time><name>PT5014</name></trkpt>
<trkpt lat="53.350847" lon="-1.902293"><ele>353</ele><time>2021-10-01T13:06:43Z</time><name>PT5015</name></trkpt>
<trkpt lat="53.350849" lon="-1.902288"><ele>353</ele><time>2021-10-01T13:06:44Z</time><name>PT5016</name></trkpt>
<trkpt lat="53.350849" lon="-1.902286"><ele>352</ele><time>2021-10-01T13:06:45Z</time><name>PT5017</name></trkpt>
<trkpt lat="53.350844" lon="-1.902283"><ele>353</ele><time>2021-10-01T13:06:46Z</time><name>PT5018</name></trkpt>
<trkpt lat="53.350837" lon="-1.902284"><ele>352</ele><time>2021-10-01T13:06:47Z</time><name>PT5019</name></trkpt>
<trkpt lat="53.350833" lon="-1.902285"><ele>352</ele><time>2021-10-01T13:06:48Z</time><name>PT5020</name></trkpt>
<trkpt lat="53.350827" lon="-1.902282"><ele>351</ele><time>2021-10-01T13:06:49Z</time><name>PT5021</name></trkpt>
<trkpt lat="53.350826" lon="-1.902271"><ele>351</ele><time>2021-10-01T13:06:50Z</time><name>PT5022</name></trkpt>
<trkpt lat="53.350824" lon="-1.902269"><ele>351</ele><time>2021-10-01T13:06:51Z</time><name>PT5023</name></trkpt>
<trkpt lat="53.350822" lon="-1.902258"><ele>351</ele><time>2021-10-01T13:06:52Z</time><name>PT5024</name></trkpt>
<trkpt lat="53.350813" lon="-1.902245"><ele>351</ele><time>2021-10-01T13:06:53Z</time><name>PT5025</name></trkpt>
<trkpt lat="53.350803" lon="-1.902236"><ele>351</ele><time>2021-10-01T13:06:54Z</time><name>PT5026</name></trkpt>
<trkpt lat="53.350796" lon="-1.902231"><ele>351</ele><time>2021-10-01T13:06:55Z</time><name>PT5027</name></trkpt>
<trkpt lat="53.350797" lon="-1.902238"><ele>351</ele><time>2021-10-01T13:06:56Z</time><name>PT5028</name></trkpt>
<trkpt lat="53.350793" lon="-1.902237"><ele>351</ele><time>2021-10-01T13:06:57Z</time><name>PT5029</name></trkpt>
<trkpt lat="53.350794" lon="-1.902236"><ele>351</ele><time>2021-10-01T13:06:58Z</time><name>PT5030</name></trkpt>
<trkpt lat="53.350800" lon="-1.902238"><ele>351</ele><time>2021-10-01T13:07:20Z</time><name>PT5031</name></trkpt>
<trkpt lat="53.350799" lon="-1.902239"><ele>351</ele><time>2021-10-01T13:07:21Z</time><name>PT5032</name></trkpt>
<trkpt lat="53.350798" lon="-1.902237"><ele>351</ele><time>2021-10-01T13:07:22Z</time><name>PT5033</name></trkpt>
<trkpt lat="53.350798" lon="-1.902238"><ele>352</ele><time>2021-10-01T13:07:23Z</time><name>PT5034</name></trkpt>
<trkpt lat="53.350800" lon="-1.902242"><ele>352</ele><time>2021-10-01T13:07:25Z</time><name>PT5035</name></trkpt>
<trkpt lat="53.350798" lon="-1.902238"><ele>351</ele><time>2021-10-01T13:07:26Z</time><name>PT5036</name></trkpt>
<trkpt lat="53.350798" lon="-1.902244"><ele>351</ele><time>2021-10-01T13:07:27Z</time><name>PT5037</name></trkpt>
<trkpt lat="53.350798" lon="-1.902253"><ele>351</ele><time>2021-10-01T13:07:28Z</time><name>PT5038</name></trkpt>
<trkpt lat="53.350799" lon="-1.902246"><ele>352</ele><time>2021-10-01T13:07:29Z</time><name>PT5039</name></trkpt>
<trkpt lat="53.350797" lon="-1.902255"><ele>351</ele><time>2021-10-01T13:07:30Z</time><name>PT5040</name></trkpt>
<trkpt lat="53.350792" lon="-1.902252"><ele>352</ele><time>2021-10-01T13:07:31Z</time><name>PT5041</name></trkpt>
<trkpt lat="53.350786" lon="-1.902249"><ele>352</ele><time>2021-10-01T13:07:32Z</time><name>PT5042</name></trkpt>
<trkpt lat="53.350779" lon="-1.902256"><ele>352</ele><time>2021-10-01T13:07:33Z</time><name>PT5043</name></trkpt>
<trkpt lat="53.350774" lon="-1.902262"><ele>352</ele><time>2021-10-01T13:07:34Z</time><name>PT5044</name></trkpt>
<trkpt lat="53.350768" lon="-1.902266"><ele>353</ele><time>2021-10-01T13:07:35Z</time><name>PT5045</name></trkpt>
<trkpt lat="53.350760" lon="-1.902274"><ele>352</ele><time>2021-10-01T13:07:38Z</time><name>PT5046</name></trkpt>
<trkpt lat="53.350755" lon="-1.902283"><ele>352</ele><time>2021-10-01T13:07:39Z</time><name>PT5047</name></trkpt>
<trkpt lat="53.350751" lon="-1.902292"><ele>352</ele><time>2021-10-01T13:07:40Z</time><name>PT5048</name></trkpt>
<trkpt lat="53.350744" lon="-1.902301"><ele>352</ele><time>2021-10-01T13:07:41Z</time><name>PT5049</name></trkpt>
<trkpt lat="53.350733" lon="-1.902310"><ele>352</ele><time>2021-10-01T13:07:42Z</time><name>PT5050</name></trkpt>
<trkpt lat="53.350723" lon="-1.902322"><ele>352</ele><time>2021-10-01T13:07:43Z</time><name>PT5051</name></trkpt>
<trkpt lat="53.350716" lon="-1.902329"><ele>352</ele><time>2021-10-01T13:07:44Z</time><name>PT5052</name></trkpt>
<trkpt lat="53.350709" lon="-1.902335"><ele>352</ele><time>2021-10-01T13:07:45Z</time><name>PT5053</name></trkpt>
<trkpt lat="53.350702" lon="-1.902343"><ele>352</ele><time>2021-10-01T13:07:46Z</time><name>PT5054</name></trkpt>
<trkpt lat="53.350696" lon="-1.902348"><ele>352</ele><time>2021-10-01T13:07:47Z</time><name>PT5055</name></trkpt>
<trkpt lat="53.350689" lon="-1.902355"><ele>352</ele><time>2021-10-01T13:07:48Z</time><name>PT5056</name></trkpt>
<trkpt lat="53.350682" lon="-1.902362"><ele>352</ele><time>2021-10-01T13:07:49Z</time><name>PT5057</name></trkpt>
<trkpt lat="53.350674" lon="-1.902370"><ele>351</ele><time>2021-10-01T13:07:50Z</time><name>PT5058</name></trkpt>
<trkpt lat="53.350666" lon="-1.902378"><ele>351</ele><time>2021-10-01T13:07:51Z</time><name>PT5059</name></trkpt>
<trkpt lat="53.350658" lon="-1.902385"><ele>351</ele><time>2021-10-01T13:07:52Z</time><name>PT5060</name></trkpt>
<trkpt lat="53.350650" lon="-1.902391"><ele>350</ele><time>2021-10-01T13:07:53Z</time><name>PT5061</name></trkpt>
<trkpt lat="53.350642" lon="-1.902399"><ele>350</ele><time>2021-10-01T13:07:54Z</time><name>PT5062</name></trkpt>
<trkpt lat="53.350633" lon="-1.902407"><ele>350</ele><time>2021-10-01T13:07:55Z</time><name>PT5063</name></trkpt>
<trkpt lat="53.350624" lon="-1.902416"><ele>350</ele><time>2021-10-01T13:07:56Z</time><name>PT5064</name></trkpt>
<trkpt lat="53.350616" lon="-1.902422"><ele>350</ele><time>2021-10-01T13:07:57Z</time><name>PT5065</name></trkpt>
<trkpt lat="53.350607" lon="-1.902429"><ele>350</ele><time>2021-10-01T13:07:58Z</time><name>PT5066</name></trkpt>
<trkpt lat="53.350600" lon="-1.902436"><ele>349</ele><time>2021-10-01T13:07:59Z</time><name>PT5067</name></trkpt>
<trkpt lat="53.350593" lon="-1.902441"><ele>349</ele><time>2021-10-01T13:08:00Z</time><name>PT5068</name></trkpt>
<trkpt lat="53.350585" lon="-1.902450"><ele>349</ele><time>2021-10-01T13:08:01Z</time><name>PT5069</name></trkpt>
<trkpt lat="53.350574" lon="-1.902459"><ele>349</ele><time>2021-10-01T13:08:02Z</time><name>PT5070</name></trkpt>
<trkpt lat="53.350566" lon="-1.902465"><ele>349</ele><time>2021-10-01T13:08:03Z</time><name>PT5071</name></trkpt>
<trkpt lat="53.350556" lon="-1.902475"><ele>349</ele><time>2021-10-01T13:08:04Z</time><name>PT5072</name></trkpt>
<trkpt lat="53.350551" lon="-1.902487"><ele>348</ele><time>2021-10-01T13:08:05Z</time><name>PT5073</name></trkpt>
<trkpt lat="53.350544" lon="-1.902493"><ele>348</ele><time>2021-10-01T13:08:06Z</time><name>PT5074</name></trkpt>
<trkpt lat="53.350535" lon="-1.902505"><ele>348</ele><time>2021-10-01T13:08:07Z</time><name>PT5075</name></trkpt>
<trkpt lat="53.350527" lon="-1.902516"><ele>347</ele><time>2021-10-01T13:08:08Z</time><name>PT5076</name></trkpt>
<trkpt lat="53.350517" lon="-1.902524"><ele>346</ele><time>2021-10-01T13:08:09Z</time><name>PT5077</name></trkpt>
<trkpt lat="53.350508" lon="-1.902533"><ele>346</ele><time>2021-10-01T13:08:10Z</time><name>PT5078</name></trkpt>
<trkpt lat="53.350495" lon="-1.902541"><ele>346</ele><time>2021-10-01T13:08:11Z</time><name>PT5079</name></trkpt>
<trkpt lat="53.350486" lon="-1.902550"><ele>345</ele><time>2021-10-01T13:08:12Z</time><name>PT5080</name></trkpt>
<trkpt lat="53.350475" lon="-1.902558"><ele>346</ele><time>2021-10-01T13:08:13Z</time><name>PT5081</name></trkpt>
<trkpt lat="53.350463" lon="-1.902567"><ele>346</ele><time>2021-10-01T13:08:14Z</time><name>PT5082</name></trkpt>
<trkpt lat="53.350450" lon="-1.902576"><ele>346</ele><time>2021-10-01T13:08:15Z</time><name>PT5083</name></trkpt>
<trkpt lat="53.350438" lon="-1.902585"><ele>346</ele><time>2021-10-01T13:08:16Z</time><name>PT5084</name></trkpt>
<trkpt lat="53.350423" lon="-1.902592"><ele>346</ele><time>2021-10-01T13:08:17Z</time><name>PT5085</name></trkpt>
<trkpt lat="53.350409" lon="-1.902599"><ele>347</ele><time>2021-10-01T13:08:18Z</time><name>PT5086</name></trkpt>
<trkpt lat="53.350399" lon="-1.902606"><ele>347</ele><time>2021-10-01T13:08:19Z</time><name>PT5087</name></trkpt>
<trkpt lat="53.350391" lon="-1.902616"><ele>346</ele><time>2021-10-01T13:08:20Z</time><name>PT5088</name></trkpt>
<trkpt lat="53.350383" lon="-1.902628"><ele>346</ele><time>2021-10-01T13:08:21Z</time><name>PT5089</name></trkpt>
<trkpt lat="53.350373" lon="-1.902637"><ele>345</ele><time>2021-10-01T13:08:22Z</time><name>PT5090</name></trkpt>
<trkpt lat="53.350364" lon="-1.902644"><ele>345</ele><time>2021-10-01T13:08:23Z</time><name>PT5091</name></trkpt>
<trkpt lat="53.350356" lon="-1.902651"><ele>344</ele><time>2021-10-01T13:08:24Z</time><name>PT5092</name></trkpt>
<trkpt lat="53.350346" lon="-1.902659"><ele>344</ele><time>2021-10-01T13:08:25Z</time><name>PT5093</name></trkpt>
<trkpt lat="53.350335" lon="-1.902670"><ele>344</ele><time>2021-10-01T13:08:26Z</time><name>PT5094</name></trkpt>
<trkpt lat="53.350325" lon="-1.902679"><ele>344</ele><time>2021-10-01T13:08:27Z</time><name>PT5095</name></trkpt>
<trkpt lat="53.350313" lon="-1.902688"><ele>344</ele><time>2021-10-01T13:08:28Z</time><name>PT5096</name></trkpt>
<trkpt lat="53.350303" lon="-1.902697"><ele>344</ele><time>2021-10-01T13:08:29Z</time><name>PT5097</name></trkpt>
<trkpt lat="53.350291" lon="-1.902706"><ele>344</ele><time>2021-10-01T13:08:30Z</time><name>PT5098</name></trkpt>
<trkpt lat="53.350278" lon="-1.902713"><ele>344</ele><time>2021-10-01T13:08:31Z</time><name>PT5099</name></trkpt>
<trkpt lat="53.350269" lon="-1.902721"><ele>344</ele><time>2021-10-01T13:08:32Z</time><name>PT5100</name></trkpt>
<trkpt lat="53.350260" lon="-1.902729"><ele>343</ele><time>2021-10-01T13:08:33Z</time><name>PT5101</name></trkpt>
<trkpt lat="53.350249" lon="-1.902738"><ele>343</ele><time>2021-10-01T13:08:34Z</time><name>PT5102</name></trkpt>
<trkpt lat="53.350239" lon="-1.902747"><ele>343</ele><time>2021-10-01T13:08:35Z</time><name>PT5103</name></trkpt>
<trkpt lat="53.350231" lon="-1.902755"><ele>342</ele><time>2021-10-01T13:08:36Z</time><name>PT5104</name></trkpt>
<trkpt lat="53.350224" lon="-1.902765"><ele>342</ele><time>2021-10-01T13:08:37Z</time><name>PT5105</name></trkpt>
<trkpt lat="53.350214" lon="-1.902774"><ele>342</ele><time>2021-10-01T13:08:38Z</time><name>PT5106</name></trkpt>
<trkpt lat="53.350205" lon="-1.902783"><ele>341</ele><time>2021-10-01T13:08:39Z</time><name>PT5107</name></trkpt>
<trkpt lat="53.350196" lon="-1.902793"><ele>341</ele><time>2021-10-01T13:08:40Z</time><name>PT5108</name></trkpt>
<trkpt lat="53.350184" lon="-1.902804"><ele>342</ele><time>2021-10-01T13:08:41Z</time><name>PT5109</name></trkpt>
<trkpt lat="53.350172" lon="-1.902812"><ele>341</ele><time>2021-10-01T13:08:42Z</time><name>PT5110</name></trkpt>
<trkpt lat="53.350161" lon="-1.902818"><ele>341</ele><time>2021-10-01T13:08:43Z</time><name>PT5111</name></trkpt>
<trkpt lat="53.350150" lon="-1.902825"><ele>341</ele><time>2021-10-01T13:08:44Z</time><name>PT5112</name></trkpt>
<trkpt lat="53.350137" lon="-1.902832"><ele>341</ele><time>2021-10-01T13:08:45Z</time><name>PT5113</name></trkpt>
<trkpt lat="53.350127" lon="-1.902839"><ele>340</ele><time>2021-10-01T13:08:46Z</time><name>PT5114</name></trkpt>
<trkpt lat="53.350117" lon="-1.902847"><ele>340</ele><time>2021-10-01T13:08:47Z</time><name>PT5115</name></trkpt>
<trkpt lat="53.350108" lon="-1.902856"><ele>340</ele><time>2021-10-01T13:08:48Z</time><name>PT5116</name></trkpt>
<trkpt lat="53.350100" lon="-1.902860"><ele>340</ele><time>2021-10-01T13:08:49Z</time><name>PT5117</name></trkpt>
<trkpt lat="53.350090" lon="-1.902867"><ele>340</ele><time>2021-10-01T13:08:50Z</time><name>PT5118</name></trkpt>
<trkpt lat="53.350081" lon="-1.902876"><ele>340</ele><time>2021-10-01T13:08:51Z</time><name>PT5119</name></trkpt>
<trkpt lat="53.350073" lon="-1.902885"><ele>340</ele><time>2021-10-01T13:08:52Z</time><name>PT5120</name></trkpt>
<trkpt lat="53.350067" lon="-1.902895"><ele>339</ele><time>2021-10-01T13:08:53Z</time><name>PT5121</name></trkpt>
<trkpt lat="53.350060" lon="-1.902903"><ele>339</ele><time>2021-10-01T13:08:54Z</time><name>PT5122</name></trkpt>
<trkpt lat="53.350050" lon="-1.902911"><ele>339</ele><time>2021-10-01T13:08:55Z</time><name>PT5123</name></trkpt>
<trkpt lat="53.350039" lon="-1.902923"><ele>339</ele><time>2021-10-01T13:08:56Z</time><name>PT5124</name></trkpt>
<trkpt lat="53.350029" lon="-1.902937"><ele>338</ele><time>2021-10-01T13:08:57Z</time><name>PT5125</name></trkpt>
<trkpt lat="53.350020" lon="-1.902948"><ele>338</ele><time>2021-10-01T13:08:58Z</time><name>PT5126</name></trkpt>
<trkpt lat="53.350012" lon="-1.902958"><ele>338</ele><time>2021-10-01T13:08:59Z</time><name>PT5127</name></trkpt>
<trkpt lat="53.350003" lon="-1.902969"><ele>338</ele><time>2021-10-01T13:09:00Z</time><name>PT5128</name></trkpt>
<trkpt lat="53.349994" lon="-1.902981"><ele>338</ele><time>2021-10-01T13:09:01Z</time><name>PT5129</name></trkpt>
<trkpt lat="53.349985" lon="-1.902993"><ele>337</ele><time>2021-10-01T13:09:02Z</time><name>PT5130</name></trkpt>
<trkpt lat="53.349976" lon="-1.903005"><ele>337</ele><time>2021-10-01T13:09:03Z</time><name>PT5131</name></trkpt>
<trkpt lat="53.349968" lon="-1.903019"><ele>337</ele><time>2021-10-01T13:09:04Z</time><name>PT5132</name></trkpt>
<trkpt lat="53.349958" lon="-1.903031"><ele>337</ele><time>2021-10-01T13:09:05Z</time><name>PT5133</name></trkpt>
<trkpt lat="53.349949" lon="-1.903045"><ele>336</ele><time>2021-10-01T13:09:06Z</time><name>PT5134</name></trkpt>
<trkpt lat="53.349942" lon="-1.903058"><ele>336</ele><time>2021-10-01T13:09:07Z</time><name>PT5135</name></trkpt>
<trkpt lat="53.349933" lon="-1.903071"><ele>336</ele><time>2021-10-01T13:09:08Z</time><name>PT5136</name></trkpt>
<trkpt lat="53.349924" lon="-1.903084"><ele>336</ele><time>2021-10-01T13:09:09Z</time><name>PT5137</name></trkpt>
<trkpt lat="53.349915" lon="-1.903099"><ele>336</ele><time>2021-10-01T13:09:10Z</time><name>PT5138</name></trkpt>
<trkpt lat="53.349906" lon="-1.903112"><ele>336</ele><time>2021-10-01T13:09:11Z</time><name>PT5139</name></trkpt>
<trkpt lat="53.349898" lon="-1.903125"><ele>336</ele><time>2021-10-01T13:09:12Z</time><name>PT5140</name></trkpt>
<trkpt lat="53.349891" lon="-1.903145"><ele>335</ele><time>2021-10-01T13:09:13Z</time><name>PT5141</name></trkpt>
<trkpt lat="53.349884" lon="-1.903160"><ele>335</ele><time>2021-10-01T13:09:14Z</time><name>PT5142</name></trkpt>
<trkpt lat="53.349875" lon="-1.903173"><ele>335</ele><time>2021-10-01T13:09:15Z</time><name>PT5143</name></trkpt>
<trkpt lat="53.349868" lon="-1.903188"><ele>335</ele><time>2021-10-01T13:09:16Z</time><name>PT5144</name></trkpt>
<trkpt lat="53.349859" lon="-1.903205"><ele>334</ele><time>2021-10-01T13:09:17Z</time><name>PT5145</name></trkpt>
<trkpt lat="53.349853" lon="-1.903220"><ele>334</ele><time>2021-10-01T13:09:18Z</time><name>PT5146</name></trkpt>
<trkpt lat="53.349846" lon="-1.903236"><ele>334</ele><time>2021-10-01T13:09:19Z</time><name>PT5147</name></trkpt>
<trkpt lat="53.349840" lon="-1.903252"><ele>333</ele><time>2021-10-01T13:09:20Z</time><name>PT5148</name></trkpt>
<trkpt lat="53.349832" lon="-1.903267"><ele>333</ele><time>2021-10-01T13:09:21Z</time><name>PT5149</name></trkpt>
<trkpt lat="53.349824" lon="-1.903280"><ele>333</ele><time>2021-10-01T13:09:22Z</time><name>PT5150</name></trkpt>
<trkpt lat="53.349816" lon="-1.903295"><ele>333</ele><time>2021-10-01T13:09:23Z</time><name>PT5151</name></trkpt>
<trkpt lat="53.349807" lon="-1.903312"><ele>332</ele><time>2021-10-01T13:09:24Z</time><name>PT5152</name></trkpt>
<trkpt lat="53.349798" lon="-1.903326"><ele>332</ele><time>2021-10-01T13:09:25Z</time><name>PT5153</name></trkpt>
<trkpt lat="53.349790" lon="-1.903341"><ele>332</ele><time>2021-10-01T13:09:26Z</time><name>PT5154</name></trkpt>
<trkpt lat="53.349782" lon="-1.903356"><ele>332</ele><time>2021-10-01T13:09:27Z</time><name>PT5155</name></trkpt>
<trkpt lat="53.349774" lon="-1.903371"><ele>332</ele><time>2021-10-01T13:09:28Z</time><name>PT5156</name></trkpt>
<trkpt lat="53.349770" lon="-1.903388"><ele>331</ele><time>2021-10-01T13:09:29Z</time><name>PT5157</name></trkpt>
<trkpt lat="53.349765" lon="-1.903405"><ele>332</ele><time>2021-10-01T13:09:30Z</time><name>PT5158</name></trkpt>
<trkpt lat="53.349758" lon="-1.903423"><ele>331</ele><time>2021-10-01T13:09:31Z</time><name>PT5159</name></trkpt>
<trkpt lat="53.349751" lon="-1.903436"><ele>331</ele><time>2021-10-01T13:09:32Z</time><name>PT5160</name></trkpt>
<trkpt lat="53.349743" lon="-1.903452"><ele>331</ele><time>2021-10-01T13:09:33Z</time><name>PT5161</name></trkpt>
<trkpt lat="53.349736" lon="-1.903468"><ele>331</ele><time>2021-10-01T13:09:34Z</time><name>PT5162</name></trkpt>
<trkpt lat="53.349730" lon="-1.903485"><ele>331</ele><time>2021-10-01T13:09:35Z</time><name>PT5163</name></trkpt>
<trkpt lat="53.349724" lon="-1.903502"><ele>331</ele><time>2021-10-01T13:09:36Z</time><name>PT5164</name></trkpt>
<trkpt lat="53.349717" lon="-1.903518"><ele>331</ele><time>2021-10-01T13:09:37Z</time><name>PT5165</name></trkpt>
<trkpt lat="53.349712" lon="-1.903531"><ele>331</ele><time>2021-10-01T13:09:38Z</time><name>PT5166</name></trkpt>
<trkpt lat="53.349708" lon="-1.903546"><ele>330</ele><time>2021-10-01T13:09:39Z</time><name>PT5167</name></trkpt>
<trkpt lat="53.349700" lon="-1.903558"><ele>330</ele><time>2021-10-01T13:09:40Z</time><name>PT5168</name></trkpt>
<trkpt lat="53.349695" lon="-1.903572"><ele>330</ele><time>2021-10-01T13:09:41Z</time><name>PT5169</name></trkpt>
<trkpt lat="53.349689" lon="-1.903587"><ele>330</ele><time>2021-10-01T13:09:42Z</time><name>PT5170</name></trkpt>
<trkpt lat="53.349682" lon="-1.903603"><ele>330</ele><time>2021-10-01T13:09:43Z</time><name>PT5171</name></trkpt>
<trkpt lat="53.349676" lon="-1.903616"><ele>330</ele><time>2021-10-01T13:09:44Z</time><name>PT5172</name></trkpt>
<trkpt lat="53.349669" lon="-1.903630"><ele>329</ele><time>2021-10-01T13:09:45Z</time><name>PT5173</name></trkpt>
<trkpt lat="53.349661" lon="-1.903642"><ele>329</ele><time>2021-10-01T13:09:46Z</time><name>PT5174</name></trkpt>
<trkpt lat="53.349652" lon="-1.903651"><ele>329</ele><time>2021-10-01T13:09:47Z</time><name>PT5175</name></trkpt>
<trkpt lat="53.349644" lon="-1.903663"><ele>329</ele><time>2021-10-01T13:09:48Z</time><name>PT5176</name></trkpt>
<trkpt lat="53.349634" lon="-1.903671"><ele>329</ele><time>2021-10-01T13:09:49Z</time><name>PT5177</name></trkpt>
<trkpt lat="53.349623" lon="-1.903675"><ele>329</ele><time>2021-10-01T13:09:50Z</time><name>PT5178</name></trkpt>
<trkpt lat="53.349611" lon="-1.903677"><ele>329</ele><time>2021-10-01T13:09:51Z</time><name>PT5179</name></trkpt>
<trkpt lat="53.349601" lon="-1.903679"><ele>328</ele><time>2021-10-01T13:09:52Z</time><name>PT5180</name></trkpt>
<trkpt lat="53.349589" lon="-1.903685"><ele>328</ele><time>2021-10-01T13:09:53Z</time><name>PT5181</name></trkpt>
<trkpt lat="53.349580" lon="-1.903692"><ele>328</ele><time>2021-10-01T13:09:54Z</time><name>PT5182</name></trkpt>
<trkpt lat="53.349569" lon="-1.903698"><ele>327</ele><time>2021-10-01T13:09:55Z</time><name>PT5183</name></trkpt>
<trkpt lat="53.349557" lon="-1.903703"><ele>327</ele><time>2021-10-01T13:09:56Z</time><name>PT5184</name></trkpt>
<trkpt lat="53.349545" lon="-1.903704"><ele>327</ele><time>2021-10-01T13:09:57Z</time><name>PT5185</name></trkpt>
<trkpt lat="53.349533" lon="-1.903702"><ele>327</ele><time>2021-10-01T13:09:58Z</time><name>PT5186</name></trkpt>
<trkpt lat="53.349516" lon="-1.903699"><ele>328</ele><time>2021-10-01T13:09:59Z</time><name>PT5187</name></trkpt>
<trkpt lat="53.349507" lon="-1.903693"><ele>328</ele><time>2021-10-01T13:10:00Z</time><name>PT5188</name></trkpt>
<trkpt lat="53.349490" lon="-1.903690"><ele>327</ele><time>2021-10-01T13:10:01Z</time><name>PT5189</name></trkpt>
<trkpt lat="53.349476" lon="-1.903687"><ele>327</ele><time>2021-10-01T13:10:02Z</time><name>PT5190</name></trkpt>
<trkpt lat="53.349466" lon="-1.903685"><ele>327</ele><time>2021-10-01T13:10:03Z</time><name>PT5191</name></trkpt>
<trkpt lat="53.349455" lon="-1.903685"><ele>327</ele><time>2021-10-01T13:10:04Z</time><name>PT5192</name></trkpt>
<trkpt lat="53.349441" lon="-1.903679"><ele>326</ele><time>2021-10-01T13:10:05Z</time><name>PT5193</name></trkpt>
<trkpt lat="53.349428" lon="-1.903673"><ele>326</ele><time>2021-10-01T13:10:06Z</time><name>PT5194</name></trkpt>
<trkpt lat="53.349418" lon="-1.903665"><ele>326</ele><time>2021-10-01T13:10:07Z</time><name>PT5195</name></trkpt>
<trkpt lat="53.349407" lon="-1.903661"><ele>326</ele><time>2021-10-01T13:10:08Z</time><name>PT5196</name></trkpt>
<trkpt lat="53.349392" lon="-1.903662"><ele>327</ele><time>2021-10-01T13:10:09Z</time><name>PT5197</name></trkpt>
<trkpt lat="53.349382" lon="-1.903656"><ele>327</ele><time>2021-10-01T13:10:10Z</time><name>PT5198</name></trkpt>
<trkpt lat="53.349373" lon="-1.903648"><ele>328</ele><time>2021-10-01T13:10:11Z</time><name>PT5199</name></trkpt>
<trkpt lat="53.349364" lon="-1.903644"><ele>327</ele><time>2021-10-01T13:10:12Z</time><name>PT5200</name></trkpt>
<trkpt lat="53.349353" lon="-1.903641"><ele>327</ele><time>2021-10-01T13:10:13Z</time><name>PT5201</name></trkpt>
<trkpt lat="53.349342" lon="-1.903640"><ele>327</ele><time>2021-10-01T13:10:14Z</time><name>PT5202</name></trkpt>
<trkpt lat="53.349330" lon="-1.903641"><ele>327</ele><time>2021-10-01T13:10:15Z</time><name>PT5203</name></trkpt>
<trkpt lat="53.349320" lon="-1.903638"><ele>326</ele><time>2021-10-01T13:10:16Z</time><name>PT5204</name></trkpt>
<trkpt lat="53.349312" lon="-1.903630"><ele>326</ele><time>2021-10-01T13:10:17Z</time><name>PT5205</name></trkpt>
<trkpt lat="53.349302" lon="-1.903620"><ele>326</ele><time>2021-10-01T13:10:18Z</time><name>PT5206</name></trkpt>
<trkpt lat="53.349290" lon="-1.903616"><ele>326</ele><time>2021-10-01T13:10:19Z</time><name>PT5207</name></trkpt>
<trkpt lat="53.349281" lon="-1.903615"><ele>326</ele><time>2021-10-01T13:10:20Z</time><name>PT5208</name></trkpt>
<trkpt lat="53.349272" lon="-1.903616"><ele>325</ele><time>2021-10-01T13:10:21Z</time><name>PT5209</name></trkpt>
<trkpt lat="53.349263" lon="-1.903615"><ele>325</ele><time>2021-10-01T13:10:22Z</time><name>PT5210</name></trkpt>
<trkpt lat="53.349254" lon="-1.903615"><ele>324</ele><time>2021-10-01T13:10:23Z</time><name>PT5211</name></trkpt>
<trkpt lat="53.349245" lon="-1.903615"><ele>324</ele><time>2021-10-01T13:10:24Z</time><name>PT5212</name></trkpt>
<trkpt lat="53.349238" lon="-1.903614"><ele>324</ele><time>2021-10-01T13:10:25Z</time><name>PT5213</name></trkpt>
<trkpt lat="53.349234" lon="-1.903614"><ele>323</ele><time>2021-10-01T13:10:26Z</time><name>PT5214</name></trkpt>
<trkpt lat="53.349231" lon="-1.903614"><ele>323</ele><time>2021-10-01T13:10:27Z</time><name>PT5215</name></trkpt>
<trkpt lat="53.349229" lon="-1.903613"><ele>323</ele><time>2021-10-01T13:10:28Z</time><name>PT5216</name></trkpt>
<trkpt lat="53.349229" lon="-1.903610"><ele>323</ele><time>2021-10-01T13:10:29Z</time><name>PT5217</name></trkpt>
<trkpt lat="53.349223" lon="-1.903607"><ele>324</ele><time>2021-10-01T13:10:30Z</time><name>PT5218</name></trkpt>
<trkpt lat="53.349220" lon="-1.903607"><ele>324</ele><time>2021-10-01T13:10:31Z</time><name>PT5219</name></trkpt>
<trkpt lat="53.349220" lon="-1.903614"><ele>323</ele><time>2021-10-01T13:10:32Z</time><name>PT5220</name></trkpt>
<trkpt lat="53.349225" lon="-1.903619"><ele>323</ele><time>2021-10-01T13:10:33Z</time><name>PT5221</name></trkpt>
<trkpt lat="53.349225" lon="-1.903621"><ele>324</ele><time>2021-10-01T13:10:34Z</time><name>PT5222</name></trkpt>
<trkpt lat="53.349224" lon="-1.903620"><ele>324</ele><time>2021-10-01T13:10:35Z</time><name>PT5223</name></trkpt>
<trkpt lat="53.349224" lon="-1.903620"><ele>324</ele><time>2021-10-01T13:10:36Z</time><name>PT5224</name></trkpt>
<trkpt lat="53.349209" lon="-1.903631"><ele>324</ele><time>2021-10-01T13:10:41Z</time><name>PT5225</name></trkpt>
<trkpt lat="53.349206" lon="-1.903644"><ele>323</ele><time>2021-10-01T13:10:42Z</time><name>PT5226</name></trkpt>
<trkpt lat="53.349196" lon="-1.903658"><ele>322</ele><time>2021-10-01T13:10:43Z</time><name>PT5227</name></trkpt>
<trkpt lat="53.349191" lon="-1.903674"><ele>322</ele><time>2021-10-01T13:10:44Z</time><name>PT5228</name></trkpt>
<trkpt lat="53.349194" lon="-1.903704"><ele>322</ele><time>2021-10-01T13:10:45Z</time><name>PT5229</name></trkpt>
<trkpt lat="53.349195" lon="-1.903720"><ele>322</ele><time>2021-10-01T13:10:46Z</time><name>PT5230</name></trkpt>
<trkpt lat="53.349185" lon="-1.903724"><ele>322</ele><time>2021-10-01T13:10:47Z</time><name>PT5231</name></trkpt>
<trkpt lat="53.349184" lon="-1.903743"><ele>321</ele><time>2021-10-01T13:10:48Z</time><name>PT5232</name></trkpt>
<trkpt lat="53.349186" lon="-1.903754"><ele>320</ele><time>2021-10-01T13:10:49Z</time><name>PT5233</name></trkpt>
<trkpt lat="53.349184" lon="-1.903773"><ele>320</ele><time>2021-10-01T13:10:50Z</time><name>PT5234</name></trkpt>
<trkpt lat="53.349182" lon="-1.903791"><ele>320</ele><time>2021-10-01T13:10:51Z</time><name>PT5235</name></trkpt>
<trkpt lat="53.349181" lon="-1.903816"><ele>320</ele><time>2021-10-01T13:10:52Z</time><name>PT5236</name></trkpt>
<trkpt lat="53.349180" lon="-1.903833"><ele>320</ele><time>2021-10-01T13:10:53Z</time><name>PT5237</name></trkpt>
<trkpt lat="53.349177" lon="-1.903852"><ele>319</ele><time>2021-10-01T13:10:54Z</time><name>PT5238</name></trkpt>
<trkpt lat="53.349172" lon="-1.903868"><ele>319</ele><time>2021-10-01T13:10:55Z</time><name>PT5239</name></trkpt>
<trkpt lat="53.349169" lon="-1.903886"><ele>319</ele><time>2021-10-01T13:10:56Z</time><name>PT5240</name></trkpt>
<trkpt lat="53.349167" lon="-1.903906"><ele>319</ele><time>2021-10-01T13:10:57Z</time><name>PT5241</name></trkpt>
<trkpt lat="53.349165" lon="-1.903933"><ele>318</ele><time>2021-10-01T13:10:58Z</time><name>PT5242</name></trkpt>
<trkpt lat="53.349162" lon="-1.903953"><ele>318</ele><time>2021-10-01T13:10:59Z</time><name>PT5243</name></trkpt>
<trkpt lat="53.349159" lon="-1.903972"><ele>318</ele><time>2021-10-01T13:11:00Z</time><name>PT5244</name></trkpt>
<trkpt lat="53.349156" lon="-1.903992"><ele>318</ele><time>2021-10-01T13:11:01Z</time><name>PT5245</name></trkpt>
<trkpt lat="53.349155" lon="-1.904008"><ele>318</ele><time>2021-10-01T13:11:02Z</time><name>PT5246</name></trkpt>
<trkpt lat="53.349152" lon="-1.904025"><ele>318</ele><time>2021-10-01T13:11:03Z</time><name>PT5247</name></trkpt>
<trkpt lat="53.349151" lon="-1.904043"><ele>318</ele><time>2021-10-01T13:11:04Z</time><name>PT5248</name></trkpt>
<trkpt lat="53.349149" lon="-1.904059"><ele>318</ele><time>2021-10-01T13:11:05Z</time><name>PT5249</name></trkpt>
<trkpt lat="53.349146" lon="-1.904074"><ele>318</ele><time>2021-10-01T13:11:06Z</time><name>PT5250</name></trkpt>
<trkpt lat="53.349142" lon="-1.904092"><ele>317</ele><time>2021-10-01T13:11:07Z</time><name>PT5251</name></trkpt>
<trkpt lat="53.349140" lon="-1.904109"><ele>317</ele><time>2021-10-01T13:11:08Z</time><name>PT5252</name></trkpt>
<trkpt lat="53.349139" lon="-1.904127"><ele>317</ele><time>2021-10-01T13:11:09Z</time><name>PT5253</name></trkpt>
<trkpt lat="53.349136" lon="-1.904147"><ele>317</ele><time>2021-10-01T13:11:10Z</time><name>PT5254</name></trkpt>
<trkpt lat="53.349132" lon="-1.904168"><ele>317</ele><time>2021-10-01T13:11:11Z</time><name>PT5255</name></trkpt>
<trkpt lat="53.349130" lon="-1.904186"><ele>316</ele><time>2021-10-01T13:11:12Z</time><name>PT5256</name></trkpt>
<trkpt lat="53.349127" lon="-1.904200"><ele>316</ele><time>2021-10-01T13:11:13Z</time><name>PT5257</name></trkpt>
<trkpt lat="53.349124" lon="-1.904215"><ele>316</ele><time>2021-10-01T13:11:14Z</time><name>PT5258</name></trkpt>
<trkpt lat="53.349120" lon="-1.904229"><ele>316</ele><time>2021-10-01T13:11:15Z</time><name>PT5259</name></trkpt>
<trkpt lat="53.349116" lon="-1.904246"><ele>316</ele><time>2021-10-01T13:11:16Z</time><name>PT5260</name></trkpt>
<trkpt lat="53.349113" lon="-1.904262"><ele>316</ele><time>2021-10-01T13:11:17Z</time><name>PT5261</name></trkpt>
<trkpt lat="53.349110" lon="-1.904281"><ele>315</ele><time>2021-10-01T13:11:18Z</time><name>PT5262</name></trkpt>
<trkpt lat="53.349109" lon="-1.904301"><ele>315</ele><time>2021-10-01T13:11:19Z</time><name>PT5263</name></trkpt>
<trkpt lat="53.349108" lon="-1.904318"><ele>315</ele><time>2021-10-01T13:11:20Z</time><name>PT5264</name></trkpt>
<trkpt lat="53.349106" lon="-1.904333"><ele>315</ele><time>2021-10-01T13:11:21Z</time><name>PT5265</name></trkpt>
<trkpt lat="53.349103" lon="-1.904352"><ele>315</ele><time>2021-10-01T13:11:22Z</time><name>PT5266</name></trkpt>
<trkpt lat="53.349097" lon="-1.904370"><ele>315</ele><time>2021-10-01T13:11:23Z</time><name>PT5267</name></trkpt>
<trkpt lat="53.349095" lon="-1.904387"><ele>315</ele><time>2021-10-01T13:11:24Z</time><name>PT5268</name></trkpt>
<trkpt lat="53.349091" lon="-1.904407"><ele>315</ele><time>2021-10-01T13:11:25Z</time><name>PT5269</name></trkpt>
<trkpt lat="53.349087" lon="-1.904423"><ele>315</ele><time>2021-10-01T13:11:26Z</time><name>PT5270</name></trkpt>
<trkpt lat="53.349083" lon="-1.904438"><ele>315</ele><time>2021-10-01T13:11:27Z</time><name>PT5271</name></trkpt>
<trkpt lat="53.349081" lon="-1.904454"><ele>314</ele><time>2021-10-01T13:11:28Z</time><name>PT5272</name></trkpt>
<trkpt lat="53.349079" lon="-1.904471"><ele>314</ele><time>2021-10-01T13:11:29Z</time><name>PT5273</name></trkpt>
<trkpt lat="53.349077" lon="-1.904489"><ele>314</ele><time>2021-10-01T13:11:30Z</time><name>PT5274</name></trkpt>
<trkpt lat="53.349075" lon="-1.904507"><ele>314</ele><time>2021-10-01T13:11:31Z</time><name>PT5275</name></trkpt>
<trkpt lat="53.349074" lon="-1.904525"><ele>314</ele><time>2021-10-01T13:11:32Z</time><name>PT5276</name></trkpt>
<trkpt lat="53.349071" lon="-1.904544"><ele>314</ele><time>2021-10-01T13:11:33Z</time><name>PT5277</name></trkpt>
<trkpt lat="53.349068" lon="-1.904561"><ele>314</ele><time>2021-10-01T13:11:34Z</time><name>PT5278</name></trkpt>
<trkpt lat="53.349064" lon="-1.904578"><ele>314</ele><time>2021-10-01T13:11:35Z</time><name>PT5279</name></trkpt>
<trkpt lat="53.349062" lon="-1.904597"><ele>314</ele><time>2021-10-01T13:11:36Z</time><name>PT5280</name></trkpt>
<trkpt lat="53.349059" lon="-1.904615"><ele>314</ele><time>2021-10-01T13:11:37Z</time><name>PT5281</name></trkpt>
<trkpt lat="53.349057" lon="-1.904635"><ele>314</ele><time>2021-10-01T13:11:38Z</time><name>PT5282</name></trkpt>
<trkpt lat="53.349055" lon="-1.904652"><ele>313</ele><time>2021-10-01T13:11:39Z</time><name>PT5283</name></trkpt>
<trkpt lat="53.349056" lon="-1.904670"><ele>313</ele><time>2021-10-01T13:11:40Z</time><name>PT5284</name></trkpt>
<trkpt lat="53.349057" lon="-1.904685"><ele>313</ele><time>2021-10-01T13:11:41Z</time><name>PT5285</name></trkpt>
<trkpt lat="53.349056" lon="-1.904700"><ele>313</ele><time>2021-10-01T13:11:42Z</time><name>PT5286</name></trkpt>
<trkpt lat="53.349054" lon="-1.904718"><ele>313</ele><time>2021-10-01T13:11:43Z</time><name>PT5287</name></trkpt>
<trkpt lat="53.349051" lon="-1.904735"><ele>313</ele><time>2021-10-01T13:11:44Z</time><name>PT5288</name></trkpt>
<trkpt lat="53.349049" lon="-1.904751"><ele>313</ele><time>2021-10-01T13:11:45Z</time><name>PT5289</name></trkpt>
<trkpt lat="53.349051" lon="-1.904767"><ele>313</ele><time>2021-10-01T13:11:46Z</time><name>PT5290</name></trkpt>
<trkpt lat="53.349052" lon="-1.904781"><ele>313</ele><time>2021-10-01T13:11:47Z</time><name>PT5291</name></trkpt>
<trkpt lat="53.349052" lon="-1.904800"><ele>312</ele><time>2021-10-01T13:11:48Z</time><name>PT5292</name></trkpt>
<trkpt lat="53.349053" lon="-1.904814"><ele>312</ele><time>2021-10-01T13:11:49Z</time><name>PT5293</name></trkpt>
<trkpt lat="53.349054" lon="-1.904835"><ele>313</ele><time>2021-10-01T13:11:50Z</time><name>PT5294</name></trkpt>
<trkpt lat="53.349054" lon="-1.904851"><ele>312</ele><time>2021-10-01T13:11:51Z</time><name>PT5295</name></trkpt>
<trkpt lat="53.349054" lon="-1.904867"><ele>313</ele><time>2021-10-01T13:11:52Z</time><name>PT5296</name></trkpt>
<trkpt lat="53.349054" lon="-1.904882"><ele>313</ele><time>2021-10-01T13:11:53Z</time><name>PT5297</name></trkpt>
<trkpt lat="53.349055" lon="-1.904897"><ele>312</ele><time>2021-10-01T13:11:54Z</time><name>PT5298</name></trkpt>
<trkpt lat="53.349054" lon="-1.904914"><ele>312</ele><time>2021-10-01T13:11:55Z</time><name>PT5299</name></trkpt>
<trkpt lat="53.349055" lon="-1.904932"><ele>312</ele><time>2021-10-01T13:11:56Z</time><name>PT5300</name></trkpt>
<trkpt lat="53.349047" lon="-1.904947"><ele>312</ele><time>2021-10-01T13:11:57Z</time><name>PT5301</name></trkpt>
<trkpt lat="53.349045" lon="-1.904962"><ele>313</ele><time>2021-10-01T13:11:58Z</time><name>PT5302</name></trkpt>
<trkpt lat="53.349046" lon="-1.904960"><ele>313</ele><time>2021-10-01T13:11:59Z</time><name>PT5303</name></trkpt>
<trkpt lat="53.349046" lon="-1.904960"><ele>313</ele><time>2021-10-01T13:12:00Z</time><name>PT5304</name></trkpt>
<trkpt lat="53.349043" lon="-1.904961"><ele>313</ele><time>2021-10-01T13:12:01Z</time><name>PT5305</name></trkpt>
<trkpt lat="53.349043" lon="-1.904965"><ele>313</ele><time>2021-10-01T13:12:02Z</time><name>PT5306</name></trkpt>
<trkpt lat="53.349045" lon="-1.904974"><ele>313</ele><time>2021-10-01T13:12:03Z</time><name>PT5307</name></trkpt>
<trkpt lat="53.349047" lon="-1.904987"><ele>313</ele><time>2021-10-01T13:12:04Z</time><name>PT5308</name></trkpt>
<trkpt lat="53.349048" lon="-1.904999"><ele>313</ele><time>2021-10-01T13:12:05Z</time><name>PT5309</name></trkpt>
<trkpt lat="53.349046" lon="-1.905013"><ele>312</ele><time>2021-10-01T13:12:06Z</time><name>PT5310</name></trkpt>
<trkpt lat="53.349043" lon="-1.905022"><ele>312</ele><time>2021-10-01T13:12:07Z</time><name>PT5311</name></trkpt>
<trkpt lat="53.349042" lon="-1.905029"><ele>312</ele><time>2021-10-01T13:12:08Z</time><name>PT5312</name></trkpt>
<trkpt lat="53.349041" lon="-1.905037"><ele>312</ele><time>2021-10-01T13:12:09Z</time><name>PT5313</name></trkpt>
<trkpt lat="53.349041" lon="-1.905041"><ele>312</ele><time>2021-10-01T13:12:10Z</time><name>PT5314</name></trkpt>
<trkpt lat="53.349041" lon="-1.905041"><ele>312</ele><time>2021-10-01T13:12:11Z</time><name>PT5315</name></trkpt>
<trkpt lat="53.349041" lon="-1.905041"><ele>312</ele><time>2021-10-01T13:12:12Z</time><name>PT5316</name></trkpt>
<trkpt lat="53.349043" lon="-1.905038"><ele>311</ele><time>2021-10-01T13:12:13Z</time><name>PT5317</name></trkpt>
<trkpt lat="53.349041" lon="-1.905041"><ele>311</ele><time>2021-10-01T13:12:18Z</time><name>PT5318</name></trkpt>
<trkpt lat="53.349040" lon="-1.905043"><ele>311</ele><time>2021-10-01T13:12:19Z</time><name>PT5319</name></trkpt>
<trkpt lat="53.349041" lon="-1.905042"><ele>311</ele><time>2021-10-01T13:12:20Z</time><name>PT5320</name></trkpt>
<trkpt lat="53.349046" lon="-1.905043"><ele>311</ele><time>2021-10-01T13:12:21Z</time><name>PT5321</name></trkpt>
<trkpt lat="53.349045" lon="-1.905042"><ele>311</ele><time>2021-10-01T13:12:22Z</time><name>PT5322</name></trkpt>
<trkpt lat="53.349043" lon="-1.905046"><ele>311</ele><time>2021-10-01T13:12:23Z</time><name>PT5323</name></trkpt>
<trkpt lat="53.349042" lon="-1.905048"><ele>311</ele><time>2021-10-01T13:12:24Z</time><name>PT5324</name></trkpt>
<trkpt lat="53.349041" lon="-1.905048"><ele>312</ele><time>2021-10-01T13:12:25Z</time><name>PT5325</name></trkpt>
<trkpt lat="53.349039" lon="-1.905046"><ele>312</ele><time>2021-10-01T13:12:26Z</time><name>PT5326</name></trkpt>
<trkpt lat="53.349037" lon="-1.905044"><ele>312</ele><time>2021-10-01T13:12:27Z</time><name>PT5327</name></trkpt>
<trkpt lat="53.349036" lon="-1.905040"><ele>312</ele><time>2021-10-01T13:12:28Z</time><name>PT5328</name></trkpt>
<trkpt lat="53.349051" lon="-1.905043"><ele>312</ele><time>2021-10-01T13:12:31Z</time><name>PT5329</name></trkpt>
<trkpt lat="53.349051" lon="-1.905043"><ele>312</ele><time>2021-10-01T13:12:32Z</time><name>PT5330</name></trkpt>
<trkpt lat="53.349052" lon="-1.905041"><ele>312</ele><time>2021-10-01T13:12:33Z</time><name>PT5331</name></trkpt>
<trkpt lat="53.349051" lon="-1.905042"><ele>312</ele><time>2021-10-01T13:12:34Z</time><name>PT5332</name></trkpt>
<trkpt lat="53.349049" lon="-1.905037"><ele>312</ele><time>2021-10-01T13:12:40Z</time><name>PT5333</name></trkpt>
<trkpt lat="53.349043" lon="-1.905029"><ele>312</ele><time>2021-10-01T13:12:41Z</time><name>PT5334</name></trkpt>
<trkpt lat="53.349031" lon="-1.905009"><ele>312</ele><time>2021-10-01T13:12:42Z</time><name>PT5335</name></trkpt>
<trkpt lat="53.349022" lon="-1.904986"><ele>312</ele><time>2021-10-01T13:12:43Z</time><name>PT5336</name></trkpt>
<trkpt lat="53.349013" lon="-1.904973"><ele>312</ele><time>2021-10-01T13:12:44Z</time><name>PT5337</name></trkpt>
<trkpt lat="53.349006" lon="-1.904956"><ele>312</ele><time>2021-10-01T13:12:45Z</time><name>PT5338</name></trkpt>
<trkpt lat="53.348998" lon="-1.904948"><ele>311</ele><time>2021-10-01T13:12:46Z</time><name>PT5339</name></trkpt>
<trkpt lat="53.348990" lon="-1.904941"><ele>311</ele><time>2021-10-01T13:12:47Z</time><name>PT5340</name></trkpt>
<trkpt lat="53.348981" lon="-1.904933"><ele>311</ele><time>2021-10-01T13:12:48Z</time><name>PT5341</name></trkpt>
<trkpt lat="53.348974" lon="-1.904932"><ele>310</ele><time>2021-10-01T13:12:49Z</time><name>PT5342</name></trkpt>
<trkpt lat="53.348963" lon="-1.904931"><ele>310</ele><time>2021-10-01T13:12:50Z</time><name>PT5343</name></trkpt>
<trkpt lat="53.348958" lon="-1.904930"><ele>310</ele><time>2021-10-01T13:12:51Z</time><name>PT5344</name></trkpt>
<trkpt lat="53.348948" lon="-1.904923"><ele>310</ele><time>2021-10-01T13:12:52Z</time><name>PT5345</name></trkpt>
<trkpt lat="53.348938" lon="-1.904921"><ele>310</ele><time>2021-10-01T13:12:53Z</time><name>PT5346</name></trkpt>
<trkpt lat="53.348928" lon="-1.904921"><ele>310</ele><time>2021-10-01T13:12:54Z</time><name>PT5347</name></trkpt>
<trkpt lat="53.348917" lon="-1.904921"><ele>310</ele><time>2021-10-01T13:12:55Z</time><name>PT5348</name></trkpt>
<trkpt lat="53.348909" lon="-1.904928"><ele>309</ele><time>2021-10-01T13:12:56Z</time><name>PT5349</name></trkpt>
<trkpt lat="53.348902" lon="-1.904935"><ele>309</ele><time>2021-10-01T13:12:57Z</time><name>PT5350</name></trkpt>
<trkpt lat="53.348895" lon="-1.904936"><ele>309</ele><time>2021-10-01T13:12:58Z</time><name>PT5351</name></trkpt>
<trkpt lat="53.348893" lon="-1.904936"><ele>309</ele><time>2021-10-01T13:12:59Z</time><name>PT5352</name></trkpt>
<trkpt lat="53.348898" lon="-1.904932"><ele>309</ele><time>2021-10-01T13:13:00Z</time><name>PT5353</name></trkpt>
<trkpt lat="53.348897" lon="-1.904936"><ele>310</ele><time>2021-10-01T13:13:01Z</time><name>PT5354</name></trkpt>
<trkpt lat="53.348898" lon="-1.904938"><ele>310</ele><time>2021-10-01T13:13:02Z</time><name>PT5355</name></trkpt>
<trkpt lat="53.348900" lon="-1.904936"><ele>310</ele><time>2021-10-01T13:13:03Z</time><name>PT5356</name></trkpt>
<trkpt lat="53.348903" lon="-1.904937"><ele>310</ele><time>2021-10-01T13:13:04Z</time><name>PT5357</name></trkpt>
<trkpt lat="53.348908" lon="-1.904936"><ele>310</ele><time>2021-10-01T13:13:05Z</time><name>PT5358</name></trkpt>
<trkpt lat="53.348911" lon="-1.904926"><ele>310</ele><time>2021-10-01T13:13:06Z</time><name>PT5359</name></trkpt>
<trkpt lat="53.348912" lon="-1.904921"><ele>310</ele><time>2021-10-01T13:13:07Z</time><name>PT5360</name></trkpt>
<trkpt lat="53.348918" lon="-1.904918"><ele>310</ele><time>2021-10-01T13:13:08Z</time><name>PT5361</name></trkpt>
<trkpt lat="53.348926" lon="-1.904919"><ele>310</ele><time>2021-10-01T13:13:09Z</time><name>PT5362</name></trkpt>
<trkpt lat="53.348932" lon="-1.904919"><ele>310</ele><time>2021-10-01T13:13:10Z</time><name>PT5363</name></trkpt>
<trkpt lat="53.348940" lon="-1.904923"><ele>310</ele><time>2021-10-01T13:13:11Z</time><name>PT5364</name></trkpt>
<trkpt lat="53.348955" lon="-1.904920"><ele>311</ele><time>2021-10-01T13:13:12Z</time><name>PT5365</name></trkpt>
<trkpt lat="53.348960" lon="-1.904925"><ele>311</ele><time>2021-10-01T13:13:13Z</time><name>PT5366</name></trkpt>
<trkpt lat="53.348962" lon="-1.904933"><ele>311</ele><time>2021-10-01T13:13:14Z</time><name>PT5367</name></trkpt>
<trkpt lat="53.348963" lon="-1.904941"><ele>311</ele><time>2021-10-01T13:13:15Z</time><name>PT5368</name></trkpt>
<trkpt lat="53.348965" lon="-1.904951"><ele>311</ele><time>2021-10-01T13:13:16Z</time><name>PT5369</name></trkpt>
<trkpt lat="53.348969" lon="-1.904964"><ele>311</ele><time>2021-10-01T13:13:17Z</time><name>PT5370</name></trkpt>
<trkpt lat="53.348970" lon="-1.904977"><ele>310</ele><time>2021-10-01T13:13:18Z</time><name>PT5371</name></trkpt>
<trkpt lat="53.348968" lon="-1.904985"><ele>310</ele><time>2021-10-01T13:13:19Z</time><name>PT5372</name></trkpt>
<trkpt lat="53.348965" lon="-1.904987"><ele>310</ele><time>2021-10-01T13:13:20Z</time><name>PT5373</name></trkpt>
<trkpt lat="53.348963" lon="-1.904986"><ele>310</ele><time>2021-10-01T13:13:21Z</time><name>PT5374</name></trkpt>
<trkpt lat="53.348961" lon="-1.904987"><ele>310</ele><time>2021-10-01T13:13:22Z</time><name>PT5375</name></trkpt>
<trkpt lat="53.348959" lon="-1.904990"><ele>310</ele><time>2021-10-01T13:13:23Z</time><name>PT5376</name></trkpt>
<trkpt lat="53.348955" lon="-1.904988"><ele>309</ele><time>2021-10-01T13:13:24Z</time><name>PT5377</name></trkpt>
<trkpt lat="53.348955" lon="-1.904988"><ele>309</ele><time>2021-10-01T13:13:25Z</time><name>PT5378</name></trkpt>
<trkpt lat="53.348955" lon="-1.904997"><ele>309</ele><time>2021-10-01T13:13:26Z</time><name>PT5379</name></trkpt>
<trkpt lat="53.348957" lon="-1.905010"><ele>309</ele><time>2021-10-01T13:13:27Z</time><name>PT5380</name></trkpt>
<trkpt lat="53.348960" lon="-1.905026"><ele>309</ele><time>2021-10-01T13:13:28Z</time><name>PT5381</name></trkpt>
<trkpt lat="53.348960" lon="-1.905033"><ele>310</ele><time>2021-10-01T13:13:29Z</time><name>PT5382</name></trkpt>
<trkpt lat="53.348965" lon="-1.905038"><ele>310</ele><time>2021-10-01T13:13:30Z</time><name>PT5383</name></trkpt>
<trkpt lat="53.348970" lon="-1.905047"><ele>310</ele><time>2021-10-01T13:13:31Z</time><name>PT5384</name></trkpt>
<trkpt lat="53.348975" lon="-1.905060"><ele>311</ele><time>2021-10-01T13:13:32Z</time><name>PT5385</name></trkpt>
<trkpt lat="53.348972" lon="-1.905072"><ele>312</ele><time>2021-10-01T13:13:33Z</time><name>PT5386</name></trkpt>
<trkpt lat="53.348973" lon="-1.905088"><ele>312</ele><time>2021-10-01T13:13:34Z</time><name>PT5387</name></trkpt>
<trkpt lat="53.348973" lon="-1.905098"><ele>312</ele><time>2021-10-01T13:13:35Z</time><name>PT5388</name></trkpt>
<trkpt lat="53.348972" lon="-1.905106"><ele>312</ele><time>2021-10-01T13:13:36Z</time><name>PT5389</name></trkpt>
<trkpt lat="53.348971" lon="-1.905112"><ele>312</ele><time>2021-10-01T13:13:37Z</time><name>PT5390</name></trkpt>
<trkpt lat="53.348968" lon="-1.905118"><ele>312</ele><time>2021-10-01T13:13:48Z</time><name>PT5391</name></trkpt>
<trkpt lat="53.348964" lon="-1.905124"><ele>312</ele><time>2021-10-01T13:13:49Z</time><name>PT5392</name></trkpt>
<trkpt lat="53.348958" lon="-1.905124"><ele>311</ele><time>2021-10-01T13:14:17Z</time><name>PT5393</name></trkpt>
<trkpt lat="53.348954" lon="-1.905132"><ele>311</ele><time>2021-10-01T13:14:18Z</time><name>PT5394</name></trkpt>
<trkpt lat="53.348947" lon="-1.905141"><ele>310</ele><time>2021-10-01T13:14:19Z</time><name>PT5395</name></trkpt>
<trkpt lat="53.348937" lon="-1.905148"><ele>310</ele><time>2021-10-01T13:14:20Z</time><name>PT5396</name></trkpt>
<trkpt lat="53.348927" lon="-1.905157"><ele>310</ele><time>2021-10-01T13:14:21Z</time><name>PT5397</name></trkpt>
<trkpt lat="53.348922" lon="-1.905161"><ele>309</ele><time>2021-10-01T13:14:22Z</time><name>PT5398</name></trkpt>
<trkpt lat="53.348917" lon="-1.905167"><ele>309</ele><time>2021-10-01T13:14:23Z</time><name>PT5399</name></trkpt>
<trkpt lat="53.348912" lon="-1.905174"><ele>309</ele><time>2021-10-01T13:14:24Z</time><name>PT5400</name></trkpt>
<trkpt lat="53.348906" lon="-1.905180"><ele>308</ele><time>2021-10-01T13:14:25Z</time><name>PT5401</name></trkpt>
<trkpt lat="53.348898" lon="-1.905185"><ele>308</ele><time>2021-10-01T13:14:26Z</time><name>PT5402</name></trkpt>
<trkpt lat="53.348890" lon="-1.905189"><ele>308</ele><time>2021-10-01T13:14:27Z</time><name>PT5403</name></trkpt>
<trkpt lat="53.348883" lon="-1.905190"><ele>308</ele><time>2021-10-01T13:14:28Z</time><name>PT5404</name></trkpt>
<trkpt lat="53.348875" lon="-1.905190"><ele>308</ele><time>2021-10-01T13:14:29Z</time><name>PT5405</name></trkpt>
<trkpt lat="53.348869" lon="-1.905193"><ele>308</ele><time>2021-10-01T13:14:30Z</time><name>PT5406</name></trkpt>
<trkpt lat="53.348862" lon="-1.905197"><ele>308</ele><time>2021-10-01T13:14:31Z</time><name>PT5407</name></trkpt>
<trkpt lat="53.348856" lon="-1.905202"><ele>308</ele><time>2021-10-01T13:14:32Z</time><name>PT5408</name></trkpt>
<trkpt lat="53.348849" lon="-1.905207"><ele>308</ele><time>2021-10-01T13:14:33Z</time><name>PT5409</name></trkpt>
<trkpt lat="53.348842" lon="-1.905214"><ele>307</ele><time>2021-10-01T13:14:34Z</time><name>PT5410</name></trkpt>
<trkpt lat="53.348834" lon="-1.905224"><ele>307</ele><time>2021-10-01T13:14:35Z</time><name>PT5411</name></trkpt>
<trkpt lat="53.348827" lon="-1.905233"><ele>307</ele><time>2021-10-01T13:14:36Z</time><name>PT5412</name></trkpt>
<trkpt lat="53.348816" lon="-1.905240"><ele>307</ele><time>2021-10-01T13:14:37Z</time><name>PT5413</name></trkpt>
<trkpt lat="53.348807" lon="-1.905248"><ele>307</ele><time>2021-10-01T13:14:38Z</time><name>PT5414</name></trkpt>
<trkpt lat="53.348797" lon="-1.905254"><ele>307</ele><time>2021-10-01T13:14:39Z</time><name>PT5415</name></trkpt>
<trkpt lat="53.348786" lon="-1.905262"><ele>307</ele><time>2021-10-01T13:14:40Z</time><name>PT5416</name></trkpt>
<trkpt lat="53.348776" lon="-1.905267"><ele>307</ele><time>2021-10-01T13:14:41Z</time><name>PT5417</name></trkpt>
<trkpt lat="53.348766" lon="-1.905271"><ele>307</ele><time>2021-10-01T13:14:42Z</time><name>PT5418</name></trkpt>
<trkpt lat="53.348762" lon="-1.905283"><ele>306</ele><time>2021-10-01T13:14:43Z</time><name>PT5419</name></trkpt>
<trkpt lat="53.348758" lon="-1.905293"><ele>306</ele><time>2021-10-01T13:14:44Z</time><name>PT5420</name></trkpt>
<trkpt lat="53.348756" lon="-1.905305"><ele>306</ele><time>2021-10-01T13:14:45Z</time><name>PT5421</name></trkpt>
<trkpt lat="53.348753" lon="-1.905321"><ele>306</ele><time>2021-10-01T13:14:46Z</time><name>PT5422</name></trkpt>
<trkpt lat="53.348754" lon="-1.905339"><ele>306</ele><time>2021-10-01T13:14:47Z</time><name>PT5423</name></trkpt>
<trkpt lat="53.348756" lon="-1.905355"><ele>306</ele><time>2021-10-01T13:14:48Z</time><name>PT5424</name></trkpt>
<trkpt lat="53.348759" lon="-1.905373"><ele>306</ele><time>2021-10-01T13:14:49Z</time><name>PT5425</name></trkpt>
<trkpt lat="53.348757" lon="-1.905385"><ele>305</ele><time>2021-10-01T13:14:50Z</time><name>PT5426</name></trkpt>
<trkpt lat="53.348751" lon="-1.905395"><ele>305</ele><time>2021-10-01T13:14:51Z</time><name>PT5427</name></trkpt>
<trkpt lat="53.348743" lon="-1.905405"><ele>305</ele><time>2021-10-01T13:14:52Z</time><name>PT5428</name></trkpt>
<trkpt lat="53.348734" lon="-1.905413"><ele>305</ele><time>2021-10-01T13:14:53Z</time><name>PT5429</name></trkpt>
<trkpt lat="53.348723" lon="-1.905417"><ele>305</ele><time>2021-10-01T13:14:54Z</time><name>PT5430</name></trkpt>
<trkpt lat="53.348711" lon="-1.905419"><ele>305</ele><time>2021-10-01T13:14:55Z</time><name>PT5431</name></trkpt>
<trkpt lat="53.348701" lon="-1.905422"><ele>305</ele><time>2021-10-01T13:14:56Z</time><name>PT5432</name></trkpt>
<trkpt lat="53.348691" lon="-1.905424"><ele>305</ele><time>2021-10-01T13:14:57Z</time><name>PT5433</name></trkpt>
<trkpt lat="53.348687" lon="-1.905427"><ele>305</ele><time>2021-10-01T13:14:58Z</time><name>PT5434</name></trkpt>
<trkpt lat="53.348681" lon="-1.905424"><ele>304</ele><time>2021-10-01T13:14:59Z</time><name>PT5435</name></trkpt>
<trkpt lat="53.348665" lon="-1.905429"><ele>305</ele><time>2021-10-01T13:15:00Z</time><name>PT5436</name></trkpt>
<trkpt lat="53.348649" lon="-1.905436"><ele>305</ele><time>2021-10-01T13:15:01Z</time><name>PT5437</name></trkpt>
<trkpt lat="53.348636" lon="-1.905440"><ele>304</ele><time>2021-10-01T13:15:02Z</time><name>PT5438</name></trkpt>
<trkpt lat="53.348631" lon="-1.905444"><ele>304</ele><time>2021-10-01T13:15:03Z</time><name>PT5439</name></trkpt>
<trkpt lat="53.348626" lon="-1.905450"><ele>304</ele><time>2021-10-01T13:15:04Z</time><name>PT5440</name></trkpt>
<trkpt lat="53.348613" lon="-1.905459"><ele>304</ele><time>2021-10-01T13:15:05Z</time><name>PT5441</name></trkpt>
<trkpt lat="53.348595" lon="-1.905475"><ele>304</ele><time>2021-10-01T13:15:06Z</time><name>PT5442</name></trkpt>
<trkpt lat="53.348579" lon="-1.905492"><ele>304</ele><time>2021-10-01T13:15:07Z</time><name>PT5443</name></trkpt>
<trkpt lat="53.348568" lon="-1.905499"><ele>304</ele><time>2021-10-01T13:15:08Z</time><name>PT5444</name></trkpt>
<trkpt lat="53.348562" lon="-1.905503"><ele>304</ele><time>2021-10-01T13:15:09Z</time><name>PT5445</name></trkpt>
<trkpt lat="53.348553" lon="-1.905506"><ele>304</ele><time>2021-10-01T13:15:10Z</time><name>PT5446</name></trkpt>
<trkpt lat="53.348541" lon="-1.905513"><ele>304</ele><time>2021-10-01T13:15:11Z</time><name>PT5447</name></trkpt>
<trkpt lat="53.348525" lon="-1.905526"><ele>304</ele><time>2021-10-01T13:15:12Z</time><name>PT5448</name></trkpt>
<trkpt lat="53.348509" lon="-1.905534"><ele>304</ele><time>2021-10-01T13:15:13Z</time><name>PT5449</name></trkpt>
<trkpt lat="53.348499" lon="-1.905537"><ele>304</ele><time>2021-10-01T13:15:14Z</time><name>PT5450</name></trkpt>
<trkpt lat="53.348493" lon="-1.905537"><ele>304</ele><time>2021-10-01T13:15:15Z</time><name>PT5451</name></trkpt>
<trkpt lat="53.348487" lon="-1.905541"><ele>303</ele><time>2021-10-01T13:15:16Z</time><name>PT5452</name></trkpt>
<trkpt lat="53.348475" lon="-1.905550"><ele>304</ele><time>2021-10-01T13:15:17Z</time><name>PT5453</name></trkpt>
<trkpt lat="53.348461" lon="-1.905561"><ele>303</ele><time>2021-10-01T13:15:18Z</time><name>PT5454</name></trkpt>
<trkpt lat="53.348450" lon="-1.905571"><ele>303</ele><time>2021-10-01T13:15:19Z</time><name>PT5455</name></trkpt>
<trkpt lat="53.348442" lon="-1.905573"><ele>303</ele><time>2021-10-01T13:15:20Z</time><name>PT5456</name></trkpt>
<trkpt lat="53.348438" lon="-1.905573"><ele>303</ele><time>2021-10-01T13:15:21Z</time><name>PT5457</name></trkpt>
<trkpt lat="53.348428" lon="-1.905587"><ele>303</ele><time>2021-10-01T13:15:22Z</time><name>PT5458</name></trkpt>
<trkpt lat="53.348417" lon="-1.905610"><ele>303</ele><time>2021-10-01T13:15:23Z</time><name>PT5459</name></trkpt>
<trkpt lat="53.348408" lon="-1.905626"><ele>303</ele><time>2021-10-01T13:15:24Z</time><name>PT5460</name></trkpt>
<trkpt lat="53.348400" lon="-1.905629"><ele>302</ele><time>2021-10-01T13:15:25Z</time><name>PT5461</name></trkpt>
<trkpt lat="53.348392" lon="-1.905631"><ele>302</ele><time>2021-10-01T13:15:26Z</time><name>PT5462</name></trkpt>
<trkpt lat="53.348380" lon="-1.905631"><ele>302</ele><time>2021-10-01T13:15:27Z</time><name>PT5463</name></trkpt>
<trkpt lat="53.348370" lon="-1.905634"><ele>302</ele><time>2021-10-01T13:15:28Z</time><name>PT5464</name></trkpt>
<trkpt lat="53.348357" lon="-1.905638"><ele>302</ele><time>2021-10-01T13:15:29Z</time><name>PT5465</name></trkpt>
<trkpt lat="53.348349" lon="-1.905648"><ele>301</ele><time>2021-10-01T13:15:30Z</time><name>PT5466</name></trkpt>
<trkpt lat="53.348342" lon="-1.905662"><ele>301</ele><time>2021-10-01T13:15:31Z</time><name>PT5467</name></trkpt>
<trkpt lat="53.348335" lon="-1.905678"><ele>301</ele><time>2021-10-01T13:15:32Z</time><name>PT5468</name></trkpt>
<trkpt lat="53.348327" lon="-1.905693"><ele>301</ele><time>2021-10-01T13:15:33Z</time><name>PT5469</name></trkpt>
<trkpt lat="53.348319" lon="-1.905709"><ele>301</ele><time>2021-10-01T13:15:34Z</time><name>PT5470</name></trkpt>
<trkpt lat="53.348313" lon="-1.905726"><ele>300</ele><time>2021-10-01T13:15:35Z</time><name>PT5471</name></trkpt>
<trkpt lat="53.348309" lon="-1.905748"><ele>300</ele><time>2021-10-01T13:15:36Z</time><name>PT5472</name></trkpt>
<trkpt lat="53.348304" lon="-1.905772"><ele>300</ele><time>2021-10-01T13:15:37Z</time><name>PT5473</name></trkpt>
<trkpt lat="53.348294" lon="-1.905794"><ele>299</ele><time>2021-10-01T13:15:38Z</time><name>PT5474</name></trkpt>
<trkpt lat="53.348291" lon="-1.905809"><ele>299</ele><time>2021-10-01T13:15:39Z</time><name>PT5475</name></trkpt>
<trkpt lat="53.348280" lon="-1.905829"><ele>299</ele><time>2021-10-01T13:15:40Z</time><name>PT5476</name></trkpt>
<trkpt lat="53.348272" lon="-1.905851"><ele>298</ele><time>2021-10-01T13:15:41Z</time><name>PT5477</name></trkpt>
<trkpt lat="53.348271" lon="-1.905865"><ele>298</ele><time>2021-10-01T13:15:42Z</time><name>PT5478</name></trkpt>
<trkpt lat="53.348271" lon="-1.905880"><ele>298</ele><time>2021-10-01T13:15:43Z</time><name>PT5479</name></trkpt>
<trkpt lat="53.348269" lon="-1.905903"><ele>298</ele><time>2021-10-01T13:15:44Z</time><name>PT5480</name></trkpt>
<trkpt lat="53.348266" lon="-1.905919"><ele>298</ele><time>2021-10-01T13:15:45Z</time><name>PT5481</name></trkpt>
<trkpt lat="53.348262" lon="-1.905932"><ele>297</ele><time>2021-10-01T13:15:46Z</time><name>PT5482</name></trkpt>
<trkpt lat="53.348258" lon="-1.905952"><ele>298</ele><time>2021-10-01T13:15:47Z</time><name>PT5483</name></trkpt>
<trkpt lat="53.348255" lon="-1.905969"><ele>297</ele><time>2021-10-01T13:15:48Z</time><name>PT5484</name></trkpt>
<trkpt lat="53.348253" lon="-1.905986"><ele>297</ele><time>2021-10-01T13:15:49Z</time><name>PT5485</name></trkpt>
<trkpt lat="53.348249" lon="-1.906002"><ele>297</ele><time>2021-10-01T13:15:50Z</time><name>PT5486</name></trkpt>
<trkpt lat="53.348242" lon="-1.906019"><ele>297</ele><time>2021-10-01T13:15:51Z</time><name>PT5487</name></trkpt>
<trkpt lat="53.348236" lon="-1.906035"><ele>297</ele><time>2021-10-01T13:15:52Z</time><name>PT5488</name></trkpt>
<trkpt lat="53.348233" lon="-1.906052"><ele>297</ele><time>2021-10-01T13:15:53Z</time><name>PT5489</name></trkpt>
<trkpt lat="53.348229" lon="-1.906073"><ele>296</ele><time>2021-10-01T13:15:54Z</time><name>PT5490</name></trkpt>
<trkpt lat="53.348225" lon="-1.906089"><ele>296</ele><time>2021-10-01T13:15:55Z</time><name>PT5491</name></trkpt>
<trkpt lat="53.348224" lon="-1.906108"><ele>296</ele><time>2021-10-01T13:15:56Z</time><name>PT5492</name></trkpt>
<trkpt lat="53.348220" lon="-1.906130"><ele>296</ele><time>2021-10-01T13:15:57Z</time><name>PT5493</name></trkpt>
<trkpt lat="53.348216" lon="-1.906147"><ele>295</ele><time>2021-10-01T13:15:58Z</time><name>PT5494</name></trkpt>
<trkpt lat="53.348212" lon="-1.906160"><ele>295</ele><time>2021-10-01T13:15:59Z</time><name>PT5495</name></trkpt>
<trkpt lat="53.348208" lon="-1.906177"><ele>295</ele><time>2021-10-01T13:16:00Z</time><name>PT5496</name></trkpt>
<trkpt lat="53.348203" lon="-1.906194"><ele>294</ele><time>2021-10-01T13:16:01Z</time><name>PT5497</name></trkpt>
<trkpt lat="53.348200" lon="-1.906211"><ele>294</ele><time>2021-10-01T13:16:02Z</time><name>PT5498</name></trkpt>
<trkpt lat="53.348197" lon="-1.906232"><ele>294</ele><time>2021-10-01T13:16:03Z</time><name>PT5499</name></trkpt>
<trkpt lat="53.348193" lon="-1.906251"><ele>294</ele><time>2021-10-01T13:16:04Z</time><name>PT5500</name></trkpt>
<trkpt lat="53.348190" lon="-1.906268"><ele>294</ele><time>2021-10-01T13:16:05Z</time><name>PT5501</name></trkpt>
<trkpt lat="53.348185" lon="-1.906287"><ele>294</ele><time>2021-10-01T13:16:06Z</time><name>PT5502</name></trkpt>
<trkpt lat="53.348181" lon="-1.906308"><ele>294</ele><time>2021-10-01T13:16:07Z</time><name>PT5503</name></trkpt>
<trkpt lat="53.348179" lon="-1.906329"><ele>294</ele><time>2021-10-01T13:16:08Z</time><name>PT5504</name></trkpt>
<trkpt lat="53.348176" lon="-1.906348"><ele>294</ele><time>2021-10-01T13:16:09Z</time><name>PT5505</name></trkpt>
<trkpt lat="53.348173" lon="-1.906369"><ele>294</ele><time>2021-10-01T13:16:10Z</time><name>PT5506</name></trkpt>
<trkpt lat="53.348169" lon="-1.906387"><ele>294</ele><time>2021-10-01T13:16:11Z</time><name>PT5507</name></trkpt>
<trkpt lat="53.348163" lon="-1.906409"><ele>293</ele><time>2021-10-01T13:16:12Z</time><name>PT5508</name></trkpt>
<trkpt lat="53.348157" lon="-1.906430"><ele>293</ele><time>2021-10-01T13:16:13Z</time><name>PT5509</name></trkpt>
<trkpt lat="53.348153" lon="-1.906447"><ele>293</ele><time>2021-10-01T13:16:14Z</time><name>PT5510</name></trkpt>
<trkpt lat="53.348150" lon="-1.906453"><ele>292</ele><time>2021-10-01T13:16:15Z</time><name>PT5511</name></trkpt>
<trkpt lat="53.348147" lon="-1.906474"><ele>292</ele><time>2021-10-01T13:16:16Z</time><name>PT5512</name></trkpt>
<trkpt lat="53.348142" lon="-1.906494"><ele>292</ele><time>2021-10-01T13:16:17Z</time><name>PT5513</name></trkpt>
<trkpt lat="53.348136" lon="-1.906510"><ele>292</ele><time>2021-10-01T13:16:18Z</time><name>PT5514</name></trkpt>
<trkpt lat="53.348130" lon="-1.906524"><ele>291</ele><time>2021-10-01T13:16:19Z</time><name>PT5515</name></trkpt>
<trkpt lat="53.348125" lon="-1.906537"><ele>291</ele><time>2021-10-01T13:16:20Z</time><name>PT5516</name></trkpt>
<trkpt lat="53.348119" lon="-1.906549"><ele>291</ele><time>2021-10-01T13:16:21Z</time><name>PT5517</name></trkpt>
<trkpt lat="53.348113" lon="-1.906556"><ele>291</ele><time>2021-10-01T13:16:22Z</time><name>PT5518</name></trkpt>
<trkpt lat="53.348105" lon="-1.906551"><ele>290</ele><time>2021-10-01T13:16:23Z</time><name>PT5519</name></trkpt>
<trkpt lat="53.348095" lon="-1.906550"><ele>290</ele><time>2021-10-01T13:16:24Z</time><name>PT5520</name></trkpt>
<trkpt lat="53.348088" lon="-1.906547"><ele>290</ele><time>2021-10-01T13:16:25Z</time><name>PT5521</name></trkpt>
<trkpt lat="53.348082" lon="-1.906548"><ele>290</ele><time>2021-10-01T13:16:26Z</time><name>PT5522</name></trkpt>
<trkpt lat="53.348077" lon="-1.906551"><ele>290</ele><time>2021-10-01T13:16:27Z</time><name>PT5523</name></trkpt>
<trkpt lat="53.348066" lon="-1.906558"><ele>290</ele><time>2021-10-01T13:16:28Z</time><name>PT5524</name></trkpt>
<trkpt lat="53.348048" lon="-1.906567"><ele>291</ele><time>2021-10-01T13:16:29Z</time><name>PT5525</name></trkpt>
<trkpt lat="53.348034" lon="-1.906582"><ele>291</ele><time>2021-10-01T13:16:30Z</time><name>PT5526</name></trkpt>
<trkpt lat="53.348024" lon="-1.906591"><ele>291</ele><time>2021-10-01T13:16:31Z</time><name>PT5527</name></trkpt>
<trkpt lat="53.348016" lon="-1.906596"><ele>291</ele><time>2021-10-01T13:16:32Z</time><name>PT5528</name></trkpt>
<trkpt lat="53.348008" lon="-1.906601"><ele>291</ele><time>2021-10-01T13:16:33Z</time><name>PT5529</name></trkpt>
<trkpt lat="53.347999" lon="-1.906606"><ele>290</ele><time>2021-10-01T13:16:34Z</time><name>PT5530</name></trkpt>
<trkpt lat="53.347987" lon="-1.906612"><ele>290</ele><time>2021-10-01T13:16:35Z</time><name>PT5531</name></trkpt>
<trkpt lat="53.347976" lon="-1.906617"><ele>290</ele><time>2021-10-01T13:16:36Z</time><name>PT5532</name></trkpt>
<trkpt lat="53.347966" lon="-1.906623"><ele>290</ele><time>2021-10-01T13:16:37Z</time><name>PT5533</name></trkpt>
<trkpt lat="53.347957" lon="-1.906629"><ele>290</ele><time>2021-10-01T13:16:38Z</time><name>PT5534</name></trkpt>
<trkpt lat="53.347948" lon="-1.906635"><ele>290</ele><time>2021-10-01T13:16:39Z</time><name>PT5535</name></trkpt>
<trkpt lat="53.347937" lon="-1.906639"><ele>289</ele><time>2021-10-01T13:16:40Z</time><name>PT5536</name></trkpt>
<trkpt lat="53.347927" lon="-1.906644"><ele>289</ele><time>2021-10-01T13:16:41Z</time><name>PT5537</name></trkpt>
<trkpt lat="53.347916" lon="-1.906650"><ele>289</ele><time>2021-10-01T13:16:42Z</time><name>PT5538</name></trkpt>
<trkpt lat="53.347905" lon="-1.906656"><ele>289</ele><time>2021-10-01T13:16:43Z</time><name>PT5539</name></trkpt>
<trkpt lat="53.347894" lon="-1.906662"><ele>289</ele><time>2021-10-01T13:16:44Z</time><name>PT5540</name></trkpt>
<trkpt lat="53.347883" lon="-1.906667"><ele>289</ele><time>2021-10-01T13:16:45Z</time><name>PT5541</name></trkpt>
<trkpt lat="53.347870" lon="-1.906672"><ele>289</ele><time>2021-10-01T13:16:46Z</time><name>PT5542</name></trkpt>
<trkpt lat="53.347858" lon="-1.906678"><ele>288</ele><time>2021-10-01T13:16:47Z</time><name>PT5543</name></trkpt>
<trkpt lat="53.347847" lon="-1.906684"><ele>288</ele><time>2021-10-01T13:16:48Z</time><name>PT5544</name></trkpt>
<trkpt lat="53.347836" lon="-1.906690"><ele>288</ele><time>2021-10-01T13:16:49Z</time><name>PT5545</name></trkpt>
<trkpt lat="53.347825" lon="-1.906697"><ele>288</ele><time>2021-10-01T13:16:50Z</time><name>PT5546</name></trkpt>
<trkpt lat="53.347813" lon="-1.906703"><ele>288</ele><time>2021-10-01T13:16:51Z</time><name>PT5547</name></trkpt>
<trkpt lat="53.347801" lon="-1.906706"><ele>288</ele><time>2021-10-01T13:16:52Z</time><name>PT5548</name></trkpt>
<trkpt lat="53.347789" lon="-1.906712"><ele>287</ele><time>2021-10-01T13:16:53Z</time><name>PT5549</name></trkpt>
<trkpt lat="53.347778" lon="-1.906717"><ele>287</ele><time>2021-10-01T13:16:54Z</time><name>PT5550</name></trkpt>
<trkpt lat="53.347767" lon="-1.906723"><ele>287</ele><time>2021-10-01T13:16:55Z</time><name>PT5551</name></trkpt>
<trkpt lat="53.347758" lon="-1.906731"><ele>287</ele><time>2021-10-01T13:16:56Z</time><name>PT5552</name></trkpt>
<trkpt lat="53.347747" lon="-1.906738"><ele>287</ele><time>2021-10-01T13:16:57Z</time><name>PT5553</name></trkpt>
<trkpt lat="53.347737" lon="-1.906742"><ele>287</ele><time>2021-10-01T13:16:58Z</time><name>PT5554</name></trkpt>
<trkpt lat="53.347726" lon="-1.906747"><ele>287</ele><time>2021-10-01T13:16:59Z</time><name>PT5555</name></trkpt>
<trkpt lat="53.347715" lon="-1.906750"><ele>287</ele><time>2021-10-01T13:17:00Z</time><name>PT5556</name></trkpt>
<trkpt lat="53.347703" lon="-1.906754"><ele>287</ele><time>2021-10-01T13:17:01Z</time><name>PT5557</name></trkpt>
<trkpt lat="53.347691" lon="-1.906758"><ele>287</ele><time>2021-10-01T13:17:02Z</time><name>PT5558</name></trkpt>
<trkpt lat="53.347679" lon="-1.906761"><ele>286</ele><time>2021-10-01T13:17:03Z</time><name>PT5559</name></trkpt>
<trkpt lat="53.347666" lon="-1.906765"><ele>286</ele><time>2021-10-01T13:17:04Z</time><name>PT5560</name></trkpt>
<trkpt lat="53.347654" lon="-1.906770"><ele>286</ele><time>2021-10-01T13:17:05Z</time><name>PT5561</name></trkpt>
<trkpt lat="53.347643" lon="-1.906774"><ele>286</ele><time>2021-10-01T13:17:06Z</time><name>PT5562</name></trkpt>
<trkpt lat="53.347633" lon="-1.906783"><ele>286</ele><time>2021-10-01T13:17:07Z</time><name>PT5563</name></trkpt>
<trkpt lat="53.347622" lon="-1.906790"><ele>286</ele><time>2021-10-01T13:17:08Z</time><name>PT5564</name></trkpt>
<trkpt lat="53.347611" lon="-1.906796"><ele>286</ele><time>2021-10-01T13:17:09Z</time><name>PT5565</name></trkpt>
<trkpt lat="53.347601" lon="-1.906805"><ele>285</ele><time>2021-10-01T13:17:10Z</time><name>PT5566</name></trkpt>
<trkpt lat="53.347592" lon="-1.906812"><ele>285</ele><time>2021-10-01T13:17:11Z</time><name>PT5567</name></trkpt>
<trkpt lat="53.347588" lon="-1.906824"><ele>285</ele><time>2021-10-01T13:17:12Z</time><name>PT5568</name></trkpt>
<trkpt lat="53.347585" lon="-1.906834"><ele>284</ele><time>2021-10-01T13:17:13Z</time><name>PT5569</name></trkpt>
<trkpt lat="53.347577" lon="-1.906839"><ele>284</ele><time>2021-10-01T13:17:14Z</time><name>PT5570</name></trkpt>
<trkpt lat="53.347567" lon="-1.906850"><ele>284</ele><time>2021-10-01T13:17:15Z</time><name>PT5571</name></trkpt>
<trkpt lat="53.347554" lon="-1.906860"><ele>284</ele><time>2021-10-01T13:17:16Z</time><name>PT5572</name></trkpt>
<trkpt lat="53.347539" lon="-1.906870"><ele>283</ele><time>2021-10-01T13:17:17Z</time><name>PT5573</name></trkpt>
<trkpt lat="53.347527" lon="-1.906878"><ele>283</ele><time>2021-10-01T13:17:18Z</time><name>PT5574</name></trkpt>
<trkpt lat="53.347517" lon="-1.906887"><ele>284</ele><time>2021-10-01T13:17:19Z</time><name>PT5575</name></trkpt>
<trkpt lat="53.347508" lon="-1.906897"><ele>284</ele><time>2021-10-01T13:17:20Z</time><name>PT5576</name></trkpt>
<trkpt lat="53.347496" lon="-1.906906"><ele>284</ele><time>2021-10-01T13:17:21Z</time><name>PT5577</name></trkpt>
<trkpt lat="53.347482" lon="-1.906914"><ele>284</ele><time>2021-10-01T13:17:22Z</time><name>PT5578</name></trkpt>
<trkpt lat="53.347471" lon="-1.906923"><ele>284</ele><time>2021-10-01T13:17:23Z</time><name>PT5579</name></trkpt>
<trkpt lat="53.347462" lon="-1.906930"><ele>283</ele><time>2021-10-01T13:17:24Z</time><name>PT5580</name></trkpt>
<trkpt lat="53.347454" lon="-1.906939"><ele>283</ele><time>2021-10-01T13:17:25Z</time><name>PT5581</name></trkpt>
<trkpt lat="53.347444" lon="-1.906952"><ele>283</ele><time>2021-10-01T13:17:26Z</time><name>PT5582</name></trkpt>
<trkpt lat="53.347437" lon="-1.906951"><ele>282</ele><time>2021-10-01T13:17:27Z</time><name>PT5583</name></trkpt>
<trkpt lat="53.347426" lon="-1.906957"><ele>282</ele><time>2021-10-01T13:17:28Z</time><name>PT5584</name></trkpt>
<trkpt lat="53.347413" lon="-1.906969"><ele>282</ele><time>2021-10-01T13:17:29Z</time><name>PT5585</name></trkpt>
<trkpt lat="53.347402" lon="-1.906976"><ele>282</ele><time>2021-10-01T13:17:30Z</time><name>PT5586</name></trkpt>
<trkpt lat="53.347397" lon="-1.906981"><ele>281</ele><time>2021-10-01T13:17:31Z</time><name>PT5587</name></trkpt>
<trkpt lat="53.347394" lon="-1.906986"><ele>280</ele><time>2021-10-01T13:17:32Z</time><name>PT5588</name></trkpt>
<trkpt lat="53.347382" lon="-1.906991"><ele>279</ele><time>2021-10-01T13:17:33Z</time><name>PT5589</name></trkpt>
<trkpt lat="53.347368" lon="-1.907001"><ele>279</ele><time>2021-10-01T13:17:34Z</time><name>PT5590</name></trkpt>
<trkpt lat="53.347355" lon="-1.907007"><ele>279</ele><time>2021-10-01T13:17:35Z</time><name>PT5591</name></trkpt>
<trkpt lat="53.347343" lon="-1.907007"><ele>278</ele><time>2021-10-01T13:17:36Z</time><name>PT5592</name></trkpt>
<trkpt lat="53.347335" lon="-1.907011"><ele>278</ele><time>2021-10-01T13:17:37Z</time><name>PT5593</name></trkpt>
<trkpt lat="53.347329" lon="-1.907010"><ele>277</ele><time>2021-10-01T13:17:38Z</time><name>PT5594</name></trkpt>
<trkpt lat="53.347322" lon="-1.907008"><ele>277</ele><time>2021-10-01T13:17:39Z</time><name>PT5595</name></trkpt>
<trkpt lat="53.347312" lon="-1.907011"><ele>277</ele><time>2021-10-01T13:17:40Z</time><name>PT5596</name></trkpt>
<trkpt lat="53.347297" lon="-1.907017"><ele>277</ele><time>2021-10-01T13:17:41Z</time><name>PT5597</name></trkpt>
<trkpt lat="53.347276" lon="-1.907032"><ele>277</ele><time>2021-10-01T13:17:42Z</time><name>PT5598</name></trkpt>
<trkpt lat="53.347259" lon="-1.907043"><ele>277</ele><time>2021-10-01T13:17:43Z</time><name>PT5599</name></trkpt>
<trkpt lat="53.347250" lon="-1.907047"><ele>277</ele><time>2021-10-01T13:17:44Z</time><name>PT5600</name></trkpt>
<trkpt lat="53.347238" lon="-1.907052"><ele>278</ele><time>2021-10-01T13:17:45Z</time><name>PT5601</name></trkpt>
<trkpt lat="53.347231" lon="-1.907065"><ele>278</ele><time>2021-10-01T13:17:46Z</time><name>PT5602</name></trkpt>
<trkpt lat="53.347223" lon="-1.907072"><ele>278</ele><time>2021-10-01T13:17:47Z</time><name>PT5603</name></trkpt>
<trkpt lat="53.347212" lon="-1.907075"><ele>278</ele><time>2021-10-01T13:17:48Z</time><name>PT5604</name></trkpt>
<trkpt lat="53.347198" lon="-1.907079"><ele>278</ele><time>2021-10-01T13:17:49Z</time><name>PT5605</name></trkpt>
<trkpt lat="53.347187" lon="-1.907082"><ele>277</ele><time>2021-10-01T13:17:50Z</time><name>PT5606</name></trkpt>
<trkpt lat="53.347178" lon="-1.907086"><ele>277</ele><time>2021-10-01T13:17:51Z</time><name>PT5607</name></trkpt>
<trkpt lat="53.347172" lon="-1.907089"><ele>277</ele><time>2021-10-01T13:17:52Z</time><name>PT5608</name></trkpt>
<trkpt lat="53.347166" lon="-1.907101"><ele>277</ele><time>2021-10-01T13:17:53Z</time><name>PT5609</name></trkpt>
<trkpt lat="53.347157" lon="-1.907114"><ele>277</ele><time>2021-10-01T13:17:54Z</time><name>PT5610</name></trkpt>
<trkpt lat="53.347148" lon="-1.907115"><ele>277</ele><time>2021-10-01T13:17:55Z</time><name>PT5611</name></trkpt>
<trkpt lat="53.347139" lon="-1.907120"><ele>277</ele><time>2021-10-01T13:17:56Z</time><name>PT5612</name></trkpt>
<trkpt lat="53.347132" lon="-1.907120"><ele>276</ele><time>2021-10-01T13:17:57Z</time><name>PT5613</name></trkpt>
<trkpt lat="53.347127" lon="-1.907122"><ele>276</ele><time>2021-10-01T13:17:58Z</time><name>PT5614</name></trkpt>
<trkpt lat="53.347125" lon="-1.907129"><ele>276</ele><time>2021-10-01T13:17:59Z</time><name>PT5615</name></trkpt>
<trkpt lat="53.347124" lon="-1.907134"><ele>276</ele><time>2021-10-01T13:18:00Z</time><name>PT5616</name></trkpt>
<trkpt lat="53.347123" lon="-1.907137"><ele>275</ele><time>2021-10-01T13:18:01Z</time><name>PT5617</name></trkpt>
<trkpt lat="53.347122" lon="-1.907139"><ele>275</ele><time>2021-10-01T13:18:02Z</time><name>PT5618</name></trkpt>
<trkpt lat="53.347123" lon="-1.907140"><ele>275</ele><time>2021-10-01T13:18:03Z</time><name>PT5619</name></trkpt>
<trkpt lat="53.347124" lon="-1.907141"><ele>275</ele><time>2021-10-01T13:18:04Z</time><name>PT5620</name></trkpt>
<trkpt lat="53.347121" lon="-1.907143"><ele>275</ele><time>2021-10-01T13:18:10Z</time><name>PT5621</name></trkpt>
<trkpt lat="53.347120" lon="-1.907140"><ele>275</ele><time>2021-10-01T13:18:11Z</time><name>PT5622</name></trkpt>
<trkpt lat="53.347117" lon="-1.907140"><ele>275</ele><time>2021-10-01T13:18:12Z</time><name>PT5623</name></trkpt>
<trkpt lat="53.347116" lon="-1.907145"><ele>275</ele><time>2021-10-01T13:18:13Z</time><name>PT5624</name></trkpt>
<trkpt lat="53.347117" lon="-1.907152"><ele>276</ele><time>2021-10-01T13:18:26Z</time><name>PT5625</name></trkpt>
<trkpt lat="53.347121" lon="-1.907171"><ele>275</ele><time>2021-10-01T13:18:27Z</time><name>PT5626</name></trkpt>
<trkpt lat="53.347126" lon="-1.907182"><ele>275</ele><time>2021-10-01T13:18:28Z</time><name>PT5627</name></trkpt>
<trkpt lat="53.347131" lon="-1.907190"><ele>275</ele><time>2021-10-01T13:18:29Z</time><name>PT5628</name></trkpt>
<trkpt lat="53.347135" lon="-1.907193"><ele>275</ele><time>2021-10-01T13:18:30Z</time><name>PT5629</name></trkpt>
<trkpt lat="53.347140" lon="-1.907204"><ele>274</ele><time>2021-10-01T13:18:31Z</time><name>PT5630</name></trkpt>
<trkpt lat="53.347148" lon="-1.907219"><ele>274</ele><time>2021-10-01T13:18:32Z</time><name>PT5631</name></trkpt>
<trkpt lat="53.347150" lon="-1.907225"><ele>274</ele><time>2021-10-01T13:18:33Z</time><name>PT5632</name></trkpt>
<trkpt lat="53.347152" lon="-1.907229"><ele>274</ele><time>2021-10-01T13:18:34Z</time><name>PT5633</name></trkpt>
<trkpt lat="53.347155" lon="-1.907238"><ele>274</ele><time>2021-10-01T13:18:35Z</time><name>PT5634</name></trkpt>
<trkpt lat="53.347162" lon="-1.907239"><ele>275</ele><time>2021-10-01T13:18:36Z</time><name>PT5635</name></trkpt>
<trkpt lat="53.347162" lon="-1.907244"><ele>276</ele><time>2021-10-01T13:18:37Z</time><name>PT5636</name></trkpt>
<trkpt lat="53.347159" lon="-1.907246"><ele>275</ele><time>2021-10-01T13:18:38Z</time><name>PT5637</name></trkpt>
<trkpt lat="53.347162" lon="-1.907250"><ele>274</ele><time>2021-10-01T13:18:39Z</time><name>PT5638</name></trkpt>
<trkpt lat="53.347163" lon="-1.907263"><ele>274</ele><time>2021-10-01T13:18:40Z</time><name>PT5639</name></trkpt>
<trkpt lat="53.347164" lon="-1.907272"><ele>274</ele><time>2021-10-01T13:18:41Z</time><name>PT5640</name></trkpt>
<trkpt lat="53.347169" lon="-1.907272"><ele>274</ele><time>2021-10-01T13:18:42Z</time><name>PT5641</name></trkpt>
<trkpt lat="53.347173" lon="-1.907280"><ele>274</ele><time>2021-10-01T13:18:43Z</time><name>PT5642</name></trkpt>
<trkpt lat="53.347177" lon="-1.907289"><ele>274</ele><time>2021-10-01T13:18:44Z</time><name>PT5643</name></trkpt>
<trkpt lat="53.347181" lon="-1.907300"><ele>274</ele><time>2021-10-01T13:18:45Z</time><name>PT5644</name></trkpt>
<trkpt lat="53.347182" lon="-1.907310"><ele>274</ele><time>2021-10-01T13:18:46Z</time><name>PT5645</name></trkpt>
<trkpt lat="53.347182" lon="-1.907321"><ele>274</ele><time>2021-10-01T13:18:47Z</time><name>PT5646</name></trkpt>
<trkpt lat="53.347184" lon="-1.907331"><ele>274</ele><time>2021-10-01T13:18:48Z</time><name>PT5647</name></trkpt>
<trkpt lat="53.347175" lon="-1.907332"><ele>275</ele><time>2021-10-01T13:18:49Z</time><name>PT5648</name></trkpt>
<trkpt lat="53.347174" lon="-1.907336"><ele>275</ele><time>2021-10-01T13:18:50Z</time><name>PT5649</name></trkpt>
<trkpt lat="53.347176" lon="-1.907338"><ele>276</ele><time>2021-10-01T13:18:51Z</time><name>PT5650</name></trkpt>
<trkpt lat="53.347180" lon="-1.907340"><ele>275</ele><time>2021-10-01T13:18:56Z</time><name>PT5651</name></trkpt>
<trkpt lat="53.347168" lon="-1.907340"><ele>275</ele><time>2021-10-01T13:18:57Z</time><name>PT5652</name></trkpt>
<trkpt lat="53.347160" lon="-1.907345"><ele>275</ele><time>2021-10-01T13:18:58Z</time><name>PT5653</name></trkpt>
<trkpt lat="53.347157" lon="-1.907349"><ele>275</ele><time>2021-10-01T13:18:59Z</time><name>PT5654</name></trkpt>
<trkpt lat="53.347153" lon="-1.907358"><ele>275</ele><time>2021-10-01T13:19:00Z</time><name>PT5655</name></trkpt>
<trkpt lat="53.347148" lon="-1.907366"><ele>274</ele><time>2021-10-01T13:19:01Z</time><name>PT5656</name></trkpt>
<trkpt lat="53.347139" lon="-1.907374"><ele>275</ele><time>2021-10-01T13:19:02Z</time><name>PT5657</name></trkpt>
<trkpt lat="53.347138" lon="-1.907380"><ele>275</ele><time>2021-10-01T13:19:03Z</time><name>PT5658</name></trkpt>
<trkpt lat="53.347135" lon="-1.907383"><ele>274</ele><time>2021-10-01T13:19:04Z</time><name>PT5659</name></trkpt>
<trkpt lat="53.347130" lon="-1.907392"><ele>274</ele><time>2021-10-01T13:19:05Z</time><name>PT5660</name></trkpt>
<trkpt lat="53.347126" lon="-1.907395"><ele>273</ele><time>2021-10-01T13:19:06Z</time><name>PT5661</name></trkpt>
<trkpt lat="53.347121" lon="-1.907399"><ele>273</ele><time>2021-10-01T13:19:07Z</time><name>PT5662</name></trkpt>
<trkpt lat="53.347119" lon="-1.907408"><ele>274</ele><time>2021-10-01T13:19:08Z</time><name>PT5663</name></trkpt>
<trkpt lat="53.347112" lon="-1.907408"><ele>273</ele><time>2021-10-01T13:19:09Z</time><name>PT5664</name></trkpt>
<trkpt lat="53.347105" lon="-1.907408"><ele>273</ele><time>2021-10-01T13:19:10Z</time><name>PT5665</name></trkpt>
<trkpt lat="53.347100" lon="-1.907408"><ele>272</ele><time>2021-10-01T13:19:11Z</time><name>PT5666</name></trkpt>
<trkpt lat="53.347098" lon="-1.907414"><ele>272</ele><time>2021-10-01T13:19:12Z</time><name>PT5667</name></trkpt>
<trkpt lat="53.347092" lon="-1.907420"><ele>272</ele><time>2021-10-01T13:19:13Z</time><name>PT5668</name></trkpt>
<trkpt lat="53.347093" lon="-1.907437"><ele>272</ele><time>2021-10-01T13:19:14Z</time><name>PT5669</name></trkpt>
<trkpt lat="53.347091" lon="-1.907449"><ele>271</ele><time>2021-10-01T13:19:15Z</time><name>PT5670</name></trkpt>
<trkpt lat="53.347091" lon="-1.907458"><ele>271</ele><time>2021-10-01T13:19:16Z</time><name>PT5671</name></trkpt>
<trkpt lat="53.347091" lon="-1.907462"><ele>271</ele><time>2021-10-01T13:19:17Z</time><name>PT5672</name></trkpt>
<trkpt lat="53.347088" lon="-1.907466"><ele>270</ele><time>2021-10-01T13:19:18Z</time><name>PT5673</name></trkpt>
<trkpt lat="53.347092" lon="-1.907470"><ele>271</ele><time>2021-10-01T13:19:19Z</time><name>PT5674</name></trkpt>
<trkpt lat="53.347093" lon="-1.907471"><ele>271</ele><time>2021-10-01T13:19:20Z</time><name>PT5675</name></trkpt>
<trkpt lat="53.347094" lon="-1.907471"><ele>271</ele><time>2021-10-01T13:19:21Z</time><name>PT5676</name></trkpt>
<trkpt lat="53.347095" lon="-1.907480"><ele>270</ele><time>2021-10-01T13:19:22Z</time><name>PT5677</name></trkpt>
<trkpt lat="53.347093" lon="-1.907483"><ele>270</ele><time>2021-10-01T13:19:23Z</time><name>PT5678</name></trkpt>
<trkpt lat="53.347093" lon="-1.907487"><ele>270</ele><time>2021-10-01T13:19:24Z</time><name>PT5679</name></trkpt>
<trkpt lat="53.347093" lon="-1.907486"><ele>270</ele><time>2021-10-01T13:19:25Z</time><name>PT5680</name></trkpt>
<trkpt lat="53.347093" lon="-1.907489"><ele>270</ele><time>2021-10-01T13:19:26Z</time><name>PT5681</name></trkpt>
<trkpt lat="53.347093" lon="-1.907492"><ele>269</ele><time>2021-10-01T13:19:27Z</time><name>PT5682</name></trkpt>
<trkpt lat="53.347087" lon="-1.907494"><ele>269</ele><time>2021-10-01T13:19:28Z</time><name>PT5683</name></trkpt>
<trkpt lat="53.347082" lon="-1.907496"><ele>269</ele><time>2021-10-01T13:19:29Z</time><name>PT5684</name></trkpt>
<trkpt lat="53.347078" lon="-1.907499"><ele>270</ele><time>2021-10-01T13:19:30Z</time><name>PT5685</name></trkpt>
<trkpt lat="53.347072" lon="-1.907505"><ele>270</ele><time>2021-10-01T13:19:31Z</time><name>PT5686</name></trkpt>
<trkpt lat="53.347068" lon="-1.907516"><ele>270</ele><time>2021-10-01T13:19:32Z</time><name>PT5687</name></trkpt>
<trkpt lat="53.347058" lon="-1.907524"><ele>270</ele><time>2021-10-01T13:19:33Z</time><name>PT5688</name></trkpt>
<trkpt lat="53.347049" lon="-1.907542"><ele>270</ele><time>2021-10-01T13:19:34Z</time><name>PT5689</name></trkpt>
<trkpt lat="53.347044" lon="-1.907552"><ele>272</ele><time>2021-10-01T13:19:35Z</time><name>PT5690</name></trkpt>
<trkpt lat="53.347037" lon="-1.907555"><ele>273</ele><time>2021-10-01T13:19:36Z</time><name>PT5691</name></trkpt>
<trkpt lat="53.347035" lon="-1.907554"><ele>273</ele><time>2021-10-01T13:19:37Z</time><name>PT5692</name></trkpt>
<trkpt lat="53.347035" lon="-1.907557"><ele>274</ele><time>2021-10-01T13:19:38Z</time><name>PT5693</name></trkpt>
<trkpt lat="53.347038" lon="-1.907561"><ele>273</ele><time>2021-10-01T13:19:39Z</time><name>PT5694</name></trkpt>
<trkpt lat="53.347039" lon="-1.907555"><ele>273</ele><time>2021-10-01T13:19:44Z</time><name>PT5695</name></trkpt>
<trkpt lat="53.347037" lon="-1.907565"><ele>273</ele><time>2021-10-01T13:19:45Z</time><name>PT5696</name></trkpt>
<trkpt lat="53.347038" lon="-1.907571"><ele>273</ele><time>2021-10-01T13:19:46Z</time><name>PT5697</name></trkpt>
<trkpt lat="53.347033" lon="-1.907582"><ele>273</ele><time>2021-10-01T13:19:47Z</time><name>PT5698</name></trkpt>
<trkpt lat="53.347049" lon="-1.907596"><ele>273</ele><time>2021-10-01T13:19:48Z</time><name>PT5699</name></trkpt>
<trkpt lat="53.347050" lon="-1.907603"><ele>273</ele><time>2021-10-01T13:19:49Z</time><name>PT5700</name></trkpt>
<trkpt lat="53.347049" lon="-1.907609"><ele>273</ele><time>2021-10-01T13:19:50Z</time><name>PT5701</name></trkpt>
<trkpt lat="53.347048" lon="-1.907608"><ele>274</ele><time>2021-10-01T13:19:51Z</time><name>PT5702</name></trkpt>
<trkpt lat="53.347047" lon="-1.907605"><ele>273</ele><time>2021-10-01T13:19:54Z</time><name>PT5703</name></trkpt>
<trkpt lat="53.347047" lon="-1.907609"><ele>273</ele><time>2021-10-01T13:19:55Z</time><name>PT5704</name></trkpt>
<trkpt lat="53.347046" lon="-1.907609"><ele>273</ele><time>2021-10-01T13:19:56Z</time><name>PT5705</name></trkpt>
<trkpt lat="53.347049" lon="-1.907610"><ele>273</ele><time>2021-10-01T13:19:58Z</time><name>PT5706</name></trkpt>
<trkpt lat="53.347048" lon="-1.907612"><ele>273</ele><time>2021-10-01T13:19:59Z</time><name>PT5707</name></trkpt>
<trkpt lat="53.347048" lon="-1.907615"><ele>273</ele><time>2021-10-01T13:20:00Z</time><name>PT5708</name></trkpt>
<trkpt lat="53.347049" lon="-1.907619"><ele>273</ele><time>2021-10-01T13:20:01Z</time><name>PT5709</name></trkpt>
<trkpt lat="53.347051" lon="-1.907625"><ele>274</ele><time>2021-10-01T13:20:02Z</time><name>PT5710</name></trkpt>
<trkpt lat="53.347051" lon="-1.907628"><ele>274</ele><time>2021-10-01T13:20:03Z</time><name>PT5711</name></trkpt>
<trkpt lat="53.347050" lon="-1.907631"><ele>275</ele><time>2021-10-01T13:20:04Z</time><name>PT5712</name></trkpt>
<trkpt lat="53.347050" lon="-1.907635"><ele>275</ele><time>2021-10-01T13:20:05Z</time><name>PT5713</name></trkpt>
<trkpt lat="53.347050" lon="-1.907635"><ele>274</ele><time>2021-10-01T13:20:06Z</time><name>PT5714</name></trkpt>
<trkpt lat="53.347050" lon="-1.907632"><ele>274</ele><time>2021-10-01T13:20:07Z</time><name>PT5715</name></trkpt>
<trkpt lat="53.347054" lon="-1.907626"><ele>273</ele><time>2021-10-01T13:20:08Z</time><name>PT5716</name></trkpt>
<trkpt lat="53.347062" lon="-1.907638"><ele>274</ele><time>2021-10-01T13:20:10Z</time><name>PT5717</name></trkpt>
<trkpt lat="53.347052" lon="-1.907637"><ele>274</ele><time>2021-10-01T13:20:11Z</time><name>PT5718</name></trkpt>
<trkpt lat="53.347047" lon="-1.907639"><ele>274</ele><time>2021-10-01T13:20:12Z</time><name>PT5719</name></trkpt>
<trkpt lat="53.347049" lon="-1.907652"><ele>273</ele><time>2021-10-01T13:20:13Z</time><name>PT5720</name></trkpt>
<trkpt lat="53.347047" lon="-1.907659"><ele>274</ele><time>2021-10-01T13:20:14Z</time><name>PT5721</name></trkpt>
<trkpt lat="53.347041" lon="-1.907658"><ele>273</ele><time>2021-10-01T13:20:16Z</time><name>PT5722</name></trkpt>
<trkpt lat="53.347040" lon="-1.907660"><ele>273</ele><time>2021-10-01T13:20:17Z</time><name>PT5723</name></trkpt>
<trkpt lat="53.347034" lon="-1.907665"><ele>273</ele><time>2021-10-01T13:20:18Z</time><name>PT5724</name></trkpt>
<trkpt lat="53.347023" lon="-1.907672"><ele>273</ele><time>2021-10-01T13:20:19Z</time><name>PT5725</name></trkpt>
<trkpt lat="53.347014" lon="-1.907670"><ele>272</ele><time>2021-10-01T13:20:20Z</time><name>PT5726</name></trkpt>
<trkpt lat="53.347008" lon="-1.907668"><ele>272</ele><time>2021-10-01T13:20:21Z</time><name>PT5727</name></trkpt>
<trkpt lat="53.346993" lon="-1.907675"><ele>272</ele><time>2021-10-01T13:20:23Z</time><name>PT5728</name></trkpt>
<trkpt lat="53.346987" lon="-1.907685"><ele>272</ele><time>2021-10-01T13:20:24Z</time><name>PT5729</name></trkpt>
<trkpt lat="53.346979" lon="-1.907699"><ele>273</ele><time>2021-10-01T13:20:25Z</time><name>PT5730</name></trkpt>
<trkpt lat="53.346971" lon="-1.907717"><ele>273</ele><time>2021-10-01T13:20:26Z</time><name>PT5731</name></trkpt>
<trkpt lat="53.346970" lon="-1.907730"><ele>273</ele><time>2021-10-01T13:20:27Z</time><name>PT5732</name></trkpt>
<trkpt lat="53.346977" lon="-1.907742"><ele>273</ele><time>2021-10-01T13:20:28Z</time><name>PT5733</name></trkpt>
<trkpt lat="53.346978" lon="-1.907744"><ele>272</ele><time>2021-10-01T13:20:29Z</time><name>PT5734</name></trkpt>
<trkpt lat="53.346979" lon="-1.907749"><ele>273</ele><time>2021-10-01T13:20:30Z</time><name>PT5735</name></trkpt>
<trkpt lat="53.346980" lon="-1.907751"><ele>272</ele><time>2021-10-01T13:20:59Z</time><name>PT5736</name></trkpt>
<trkpt lat="53.347004" lon="-1.907743"><ele>269</ele><time>2021-10-01T13:21:00Z</time><name>PT5737</name></trkpt>
<trkpt lat="53.347016" lon="-1.907752"><ele>270</ele><time>2021-10-01T13:21:01Z</time><name>PT5738</name></trkpt>
<trkpt lat="53.347015" lon="-1.907755"><ele>269</ele><time>2021-10-01T13:21:02Z</time><name>PT5739</name></trkpt>
<trkpt lat="53.347016" lon="-1.907758"><ele>269</ele><time>2021-10-01T13:21:03Z</time><name>PT5740</name></trkpt>
<trkpt lat="53.347019" lon="-1.907762"><ele>269</ele><time>2021-10-01T13:21:04Z</time><name>PT5741</name></trkpt>
<trkpt lat="53.347023" lon="-1.907767"><ele>269</ele><time>2021-10-01T13:21:05Z</time><name>PT5742</name></trkpt>
<trkpt lat="53.347028" lon="-1.907768"><ele>269</ele><time>2021-10-01T13:21:06Z</time><name>PT5743</name></trkpt>
<trkpt lat="53.347032" lon="-1.907771"><ele>270</ele><time>2021-10-01T13:21:07Z</time><name>PT5744</name></trkpt>
<trkpt lat="53.347038" lon="-1.907774"><ele>270</ele><time>2021-10-01T13:21:08Z</time><name>PT5745</name></trkpt>
<trkpt lat="53.347044" lon="-1.907779"><ele>270</ele><time>2021-10-01T13:21:09Z</time><name>PT5746</name></trkpt>
<trkpt lat="53.347047" lon="-1.907789"><ele>270</ele><time>2021-10-01T13:21:10Z</time><name>PT5747</name></trkpt>
<trkpt lat="53.347053" lon="-1.907798"><ele>269</ele><time>2021-10-01T13:21:11Z</time><name>PT5748</name></trkpt>
<trkpt lat="53.347059" lon="-1.907802"><ele>270</ele><time>2021-10-01T13:21:12Z</time><name>PT5749</name></trkpt>
<trkpt lat="53.347064" lon="-1.907812"><ele>270</ele><time>2021-10-01T13:21:13Z</time><name>PT5750</name></trkpt>
<trkpt lat="53.347062" lon="-1.907829"><ele>270</ele><time>2021-10-01T13:21:14Z</time><name>PT5751</name></trkpt>
<trkpt lat="53.347067" lon="-1.907841"><ele>270</ele><time>2021-10-01T13:21:15Z</time><name>PT5752</name></trkpt>
<trkpt lat="53.347071" lon="-1.907853"><ele>271</ele><time>2021-10-01T13:21:16Z</time><name>PT5753</name></trkpt>
<trkpt lat="53.347073" lon="-1.907868"><ele>271</ele><time>2021-10-01T13:21:17Z</time><name>PT5754</name></trkpt>
<trkpt lat="53.347073" lon="-1.907877"><ele>272</ele><time>2021-10-01T13:21:18Z</time><name>PT5755</name></trkpt>
<trkpt lat="53.347073" lon="-1.907888"><ele>272</ele><time>2021-10-01T13:21:19Z</time><name>PT5756</name></trkpt>
<trkpt lat="53.347072" lon="-1.907901"><ele>273</ele><time>2021-10-01T13:21:20Z</time><name>PT5757</name></trkpt>
<trkpt lat="53.347070" lon="-1.907909"><ele>274</ele><time>2021-10-01T13:21:21Z</time><name>PT5758</name></trkpt>
<trkpt lat="53.347068" lon="-1.907911"><ele>275</ele><time>2021-10-01T13:21:22Z</time><name>PT5759</name></trkpt>
<trkpt lat="53.347068" lon="-1.907918"><ele>276</ele><time>2021-10-01T13:21:23Z</time><name>PT5760</name></trkpt>
<trkpt lat="53.347068" lon="-1.907926"><ele>276</ele><time>2021-10-01T13:21:24Z</time><name>PT5761</name></trkpt>
<trkpt lat="53.347070" lon="-1.907937"><ele>276</ele><time>2021-10-01T13:21:25Z</time><name>PT5762</name></trkpt>
<trkpt lat="53.347074" lon="-1.907949"><ele>276</ele><time>2021-10-01T13:21:26Z</time><name>PT5763</name></trkpt>
<trkpt lat="53.347078" lon="-1.907960"><ele>276</ele><time>2021-10-01T13:21:27Z</time><name>PT5764</name></trkpt>
<trkpt lat="53.347079" lon="-1.907969"><ele>276</ele><time>2021-10-01T13:21:28Z</time><name>PT5765</name></trkpt>
<trkpt lat="53.347084" lon="-1.907976"><ele>276</ele><time>2021-10-01T13:21:29Z</time><name>PT5766</name></trkpt>
<trkpt lat="53.347087" lon="-1.907982"><ele>276</ele><time>2021-10-01T13:21:30Z</time><name>PT5767</name></trkpt>
<trkpt lat="53.347089" lon="-1.907991"><ele>276</ele><time>2021-10-01T13:21:31Z</time><name>PT5768</name></trkpt>
<trkpt lat="53.347092" lon="-1.907999"><ele>277</ele><time>2021-10-01T13:21:32Z</time><name>PT5769</name></trkpt>
<trkpt lat="53.347095" lon="-1.908004"><ele>277</ele><time>2021-10-01T13:21:33Z</time><name>PT5770</name></trkpt>
<trkpt lat="53.347101" lon="-1.908014"><ele>278</ele><time>2021-10-01T13:21:37Z</time><name>PT5771</name></trkpt>
<trkpt lat="53.347107" lon="-1.908022"><ele>278</ele><time>2021-10-01T13:21:38Z</time><name>PT5772</name></trkpt>
<trkpt lat="53.347107" lon="-1.908041"><ele>278</ele><time>2021-10-01T13:21:39Z</time><name>PT5773</name></trkpt>
<trkpt lat="53.347106" lon="-1.908055"><ele>278</ele><time>2021-10-01T13:21:40Z</time><name>PT5774</name></trkpt>
<trkpt lat="53.347108" lon="-1.908066"><ele>278</ele><time>2021-10-01T13:21:41Z</time><name>PT5775</name></trkpt>
<trkpt lat="53.347108" lon="-1.908071"><ele>278</ele><time>2021-10-01T13:21:42Z</time><name>PT5776</name></trkpt>
<trkpt lat="53.347109" lon="-1.908082"><ele>278</ele><time>2021-10-01T13:21:43Z</time><name>PT5777</name></trkpt>
<trkpt lat="53.347111" lon="-1.908090"><ele>278</ele><time>2021-10-01T13:21:44Z</time><name>PT5778</name></trkpt>
<trkpt lat="53.347110" lon="-1.908098"><ele>279</ele><time>2021-10-01T13:21:45Z</time><name>PT5779</name></trkpt>
<trkpt lat="53.347110" lon="-1.908106"><ele>279</ele><time>2021-10-01T13:21:46Z</time><name>PT5780</name></trkpt>
<trkpt lat="53.347111" lon="-1.908113"><ele>279</ele><time>2021-10-01T13:21:47Z</time><name>PT5781</name></trkpt>
<trkpt lat="53.347112" lon="-1.908114"><ele>279</ele><time>2021-10-01T13:21:48Z</time><name>PT5782</name></trkpt>
<trkpt lat="53.347112" lon="-1.908113"><ele>279</ele><time>2021-10-01T13:21:49Z</time><name>PT5783</name></trkpt>
<trkpt lat="53.347112" lon="-1.908112"><ele>279</ele><time>2021-10-01T13:21:50Z</time><name>PT5784</name></trkpt>
<trkpt lat="53.347113" lon="-1.908118"><ele>279</ele><time>2021-10-01T13:21:54Z</time><name>PT5785</name></trkpt>
<trkpt lat="53.347115" lon="-1.908128"><ele>279</ele><time>2021-10-01T13:21:55Z</time><name>PT5786</name></trkpt>
<trkpt lat="53.347116" lon="-1.908141"><ele>280</ele><time>2021-10-01T13:21:56Z</time><name>PT5787</name></trkpt>
<trkpt lat="53.347116" lon="-1.908154"><ele>280</ele><time>2021-10-01T13:21:57Z</time><name>PT5788</name></trkpt>
<trkpt lat="53.347116" lon="-1.908163"><ele>280</ele><time>2021-10-01T13:21:58Z</time><name>PT5789</name></trkpt>
<trkpt lat="53.347117" lon="-1.908178"><ele>280</ele><time>2021-10-01T13:21:59Z</time><name>PT5790</name></trkpt>
<trkpt lat="53.347118" lon="-1.908191"><ele>281</ele><time>2021-10-01T13:22:00Z</time><name>PT5791</name></trkpt>
<trkpt lat="53.347118" lon="-1.908201"><ele>281</ele><time>2021-10-01T13:22:01Z</time><name>PT5792</name></trkpt>
<trkpt lat="53.347117" lon="-1.908214"><ele>281</ele><time>2021-10-01T13:22:02Z</time><name>PT5793</name></trkpt>
<trkpt lat="53.347118" lon="-1.908229"><ele>281</ele><time>2021-10-01T13:22:03Z</time><name>PT5794</name></trkpt>
<trkpt lat="53.347118" lon="-1.908244"><ele>281</ele><time>2021-10-01T13:22:04Z</time><name>PT5795</name></trkpt>
<trkpt lat="53.347116" lon="-1.908259"><ele>281</ele><time>2021-10-01T13:22:05Z</time><name>PT5796</name></trkpt>
<trkpt lat="53.347114" lon="-1.908279"><ele>282</ele><time>2021-10-01T13:22:06Z</time><name>PT5797</name></trkpt>
<trkpt lat="53.347111" lon="-1.908298"><ele>282</ele><time>2021-10-01T13:22:07Z</time><name>PT5798</name></trkpt>
<trkpt lat="53.347109" lon="-1.908313"><ele>282</ele><time>2021-10-01T13:22:08Z</time><name>PT5799</name></trkpt>
<trkpt lat="53.347107" lon="-1.908333"><ele>282</ele><time>2021-10-01T13:22:09Z</time><name>PT5800</name></trkpt>
<trkpt lat="53.347106" lon="-1.908350"><ele>282</ele><time>2021-10-01T13:22:10Z</time><name>PT5801</name></trkpt>
<trkpt lat="53.347106" lon="-1.908366"><ele>282</ele><time>2021-10-01T13:22:11Z</time><name>PT5802</name></trkpt>
<trkpt lat="53.347104" lon="-1.908380"><ele>282</ele><time>2021-10-01T13:22:12Z</time><name>PT5803</name></trkpt>
<trkpt lat="53.347101" lon="-1.908394"><ele>282</ele><time>2021-10-01T13:22:13Z</time><name>PT5804</name></trkpt>
<trkpt lat="53.347097" lon="-1.908409"><ele>282</ele><time>2021-10-01T13:22:14Z</time><name>PT5805</name></trkpt>
<trkpt lat="53.347094" lon="-1.908424"><ele>282</ele><time>2021-10-01T13:22:15Z</time><name>PT5806</name></trkpt>
<trkpt lat="53.347091" lon="-1.908437"><ele>282</ele><time>2021-10-01T13:22:16Z</time><name>PT5807</name></trkpt>
<trkpt lat="53.347088" lon="-1.908450"><ele>282</ele><time>2021-10-01T13:22:17Z</time><name>PT5808</name></trkpt>
<trkpt lat="53.347084" lon="-1.908466"><ele>282</ele><time>2021-10-01T13:22:18Z</time><name>PT5809</name></trkpt>
<trkpt lat="53.347079" lon="-1.908480"><ele>282</ele><time>2021-10-01T13:22:19Z</time><name>PT5810</name></trkpt>
<trkpt lat="53.347076" lon="-1.908494"><ele>281</ele><time>2021-10-01T13:22:20Z</time><name>PT5811</name></trkpt>
<trkpt lat="53.347071" lon="-1.908509"><ele>281</ele><time>2021-10-01T13:22:21Z</time><name>PT5812</name></trkpt>
<trkpt lat="53.347067" lon="-1.908521"><ele>281</ele><time>2021-10-01T13:22:22Z</time><name>PT5813</name></trkpt>
<trkpt lat="53.347059" lon="-1.908536"><ele>281</ele><time>2021-10-01T13:22:23Z</time><name>PT5814</name></trkpt>
<trkpt lat="53.347052" lon="-1.908552"><ele>281</ele><time>2021-10-01T13:22:24Z</time><name>PT5815</name></trkpt>
<trkpt lat="53.347048" lon="-1.908567"><ele>281</ele><time>2021-10-01T13:22:25Z</time><name>PT5816</name></trkpt>
<trkpt lat="53.347045" lon="-1.908581"><ele>281</ele><time>2021-10-01T13:22:26Z</time><name>PT5817</name></trkpt>
<trkpt lat="53.347041" lon="-1.908597"><ele>281</ele><time>2021-10-01T13:22:27Z</time><name>PT5818</name></trkpt>
<trkpt lat="53.347036" lon="-1.908610"><ele>281</ele><time>2021-10-01T13:22:28Z</time><name>PT5819</name></trkpt>
<trkpt lat="53.347031" lon="-1.908624"><ele>281</ele><time>2021-10-01T13:22:29Z</time><name>PT5820</name></trkpt>
<trkpt lat="53.347026" lon="-1.908636"><ele>281</ele><time>2021-10-01T13:22:30Z</time><name>PT5821</name></trkpt>
<trkpt lat="53.347021" lon="-1.908650"><ele>280</ele><time>2021-10-01T13:22:31Z</time><name>PT5822</name></trkpt>
<trkpt lat="53.347017" lon="-1.908664"><ele>280</ele><time>2021-10-01T13:22:32Z</time><name>PT5823</name></trkpt>
<trkpt lat="53.347013" lon="-1.908678"><ele>280</ele><time>2021-10-01T13:22:33Z</time><name>PT5824</name></trkpt>
<trkpt lat="53.347009" lon="-1.908693"><ele>280</ele><time>2021-10-01T13:22:34Z</time><name>PT5825</name></trkpt>
<trkpt lat="53.347004" lon="-1.908706"><ele>280</ele><time>2021-10-01T13:22:35Z</time><name>PT5826</name></trkpt>
<trkpt lat="53.346999" lon="-1.908719"><ele>280</ele><time>2021-10-01T13:22:36Z</time><name>PT5827</name></trkpt>
<trkpt lat="53.346994" lon="-1.908732"><ele>280</ele><time>2021-10-01T13:22:37Z</time><name>PT5828</name></trkpt>
<trkpt lat="53.346989" lon="-1.908747"><ele>280</ele><time>2021-10-01T13:22:38Z</time><name>PT5829</name></trkpt>
<trkpt lat="53.346984" lon="-1.908761"><ele>280</ele><time>2021-10-01T13:22:39Z</time><name>PT5830</name></trkpt>
<trkpt lat="53.346979" lon="-1.908774"><ele>280</ele><time>2021-10-01T13:22:40Z</time><name>PT5831</name></trkpt>
<trkpt lat="53.346974" lon="-1.908790"><ele>280</ele><time>2021-10-01T13:22:41Z</time><name>PT5832</name></trkpt>
<trkpt lat="53.346969" lon="-1.908807"><ele>280</ele><time>2021-10-01T13:22:42Z</time><name>PT5833</name></trkpt>
<trkpt lat="53.346965" lon="-1.908825"><ele>280</ele><time>2021-10-01T13:22:43Z</time><name>PT5834</name></trkpt>
<trkpt lat="53.346960" lon="-1.908840"><ele>280</ele><time>2021-10-01T13:22:44Z</time><name>PT5835</name></trkpt>
<trkpt lat="53.346955" lon="-1.908857"><ele>280</ele><time>2021-10-01T13:22:45Z</time><name>PT5836</name></trkpt>
<trkpt lat="53.346949" lon="-1.908872"><ele>280</ele><time>2021-10-01T13:22:46Z</time><name>PT5837</name></trkpt>
<trkpt lat="53.346944" lon="-1.908885"><ele>280</ele><time>2021-10-01T13:22:47Z</time><name>PT5838</name></trkpt>
<trkpt lat="53.346938" lon="-1.908898"><ele>280</ele><time>2021-10-01T13:22:48Z</time><name>PT5839</name></trkpt>
<trkpt lat="53.346932" lon="-1.908912"><ele>280</ele><time>2021-10-01T13:22:49Z</time><name>PT5840</name></trkpt>
<trkpt lat="53.346925" lon="-1.908924"><ele>280</ele><time>2021-10-01T13:22:50Z</time><name>PT5841</name></trkpt>
<trkpt lat="53.346918" lon="-1.908937"><ele>279</ele><time>2021-10-01T13:22:51Z</time><name>PT5842</name></trkpt>
<trkpt lat="53.346911" lon="-1.908950"><ele>279</ele><time>2021-10-01T13:22:52Z</time><name>PT5843</name></trkpt>
<trkpt lat="53.346904" lon="-1.908964"><ele>279</ele><time>2021-10-01T13:22:53Z</time><name>PT5844</name></trkpt>
<trkpt lat="53.346903" lon="-1.908979"><ele>279</ele><time>2021-10-01T13:22:54Z</time><name>PT5845</name></trkpt>
<trkpt lat="53.346897" lon="-1.908993"><ele>279</ele><time>2021-10-01T13:22:55Z</time><name>PT5846</name></trkpt>
<trkpt lat="53.346892" lon="-1.909007"><ele>278</ele><time>2021-10-01T13:22:56Z</time><name>PT5847</name></trkpt>
<trkpt lat="53.346886" lon="-1.909021"><ele>279</ele><time>2021-10-01T13:22:57Z</time><name>PT5848</name></trkpt>
<trkpt lat="53.346877" lon="-1.909037"><ele>278</ele><time>2021-10-01T13:22:58Z</time><name>PT5849</name></trkpt>
<trkpt lat="53.346869" lon="-1.909043"><ele>278</ele><time>2021-10-01T13:22:59Z</time><name>PT5850</name></trkpt>
<trkpt lat="53.346864" lon="-1.909047"><ele>278</ele><time>2021-10-01T13:23:00Z</time><name>PT5851</name></trkpt>
<trkpt lat="53.346861" lon="-1.909053"><ele>278</ele><time>2021-10-01T13:23:01Z</time><name>PT5852</name></trkpt>
<trkpt lat="53.346858" lon="-1.909061"><ele>278</ele><time>2021-10-01T13:23:02Z</time><name>PT5853</name></trkpt>
<trkpt lat="53.346853" lon="-1.909069"><ele>278</ele><time>2021-10-01T13:23:03Z</time><name>PT5854</name></trkpt>
<trkpt lat="53.346848" lon="-1.909081"><ele>278</ele><time>2021-10-01T13:23:04Z</time><name>PT5855</name></trkpt>
<trkpt lat="53.346843" lon="-1.909092"><ele>278</ele><time>2021-10-01T13:23:05Z</time><name>PT5856</name></trkpt>
<trkpt lat="53.346839" lon="-1.909106"><ele>278</ele><time>2021-10-01T13:23:06Z</time><name>PT5857</name></trkpt>
<trkpt lat="53.346837" lon="-1.909117"><ele>277</ele><time>2021-10-01T13:23:07Z</time><name>PT5858</name></trkpt>
<trkpt lat="53.346834" lon="-1.909132"><ele>278</ele><time>2021-10-01T13:23:08Z</time><name>PT5859</name></trkpt>
<trkpt lat="53.346832" lon="-1.909144"><ele>278</ele><time>2021-10-01T13:23:09Z</time><name>PT5860</name></trkpt>
<trkpt lat="53.346829" lon="-1.909160"><ele>278</ele><time>2021-10-01T13:23:10Z</time><name>PT5861</name></trkpt>
<trkpt lat="53.346823" lon="-1.909174"><ele>278</ele><time>2021-10-01T13:23:11Z</time><name>PT5862</name></trkpt>
<trkpt lat="53.346817" lon="-1.909189"><ele>278</ele><time>2021-10-01T13:23:12Z</time><name>PT5863</name></trkpt>
<trkpt lat="53.346811" lon="-1.909201"><ele>277</ele><time>2021-10-01T13:23:13Z</time><name>PT5864</name></trkpt>
<trkpt lat="53.346806" lon="-1.909213"><ele>277</ele><time>2021-10-01T13:23:14Z</time><name>PT5865</name></trkpt>
<trkpt lat="53.346800" lon="-1.909225"><ele>277</ele><time>2021-10-01T13:23:15Z</time><name>PT5866</name></trkpt>
<trkpt lat="53.346793" lon="-1.909236"><ele>277</ele><time>2021-10-01T13:23:16Z</time><name>PT5867</name></trkpt>
<trkpt lat="53.346787" lon="-1.909248"><ele>277</ele><time>2021-10-01T13:23:17Z</time><name>PT5868</name></trkpt>
<trkpt lat="53.346779" lon="-1.909262"><ele>276</ele><time>2021-10-01T13:23:18Z</time><name>PT5869</name></trkpt>
<trkpt lat="53.346773" lon="-1.909278"><ele>276</ele><time>2021-10-01T13:23:19Z</time><name>PT5870</name></trkpt>
<trkpt lat="53.346769" lon="-1.909293"><ele>276</ele><time>2021-10-01T13:23:20Z</time><name>PT5871</name></trkpt>
<trkpt lat="53.346764" lon="-1.909308"><ele>276</ele><time>2021-10-01T13:23:21Z</time><name>PT5872</name></trkpt>
<trkpt lat="53.346759" lon="-1.909323"><ele>276</ele><time>2021-10-01T13:23:22Z</time><name>PT5873</name></trkpt>
<trkpt lat="53.346754" lon="-1.909338"><ele>276</ele><time>2021-10-01T13:23:23Z</time><name>PT5874</name></trkpt>
<trkpt lat="53.346749" lon="-1.909352"><ele>275</ele><time>2021-10-01T13:23:24Z</time><name>PT5875</name></trkpt>
<trkpt lat="53.346743" lon="-1.909365"><ele>275</ele><time>2021-10-01T13:23:25Z</time><name>PT5876</name></trkpt>
<trkpt lat="53.346736" lon="-1.909375"><ele>275</ele><time>2021-10-01T13:23:26Z</time><name>PT5877</name></trkpt>
<trkpt lat="53.346729" lon="-1.909386"><ele>275</ele><time>2021-10-01T13:23:27Z</time><name>PT5878</name></trkpt>
<trkpt lat="53.346721" lon="-1.909398"><ele>275</ele><time>2021-10-01T13:23:28Z</time><name>PT5879</name></trkpt>
<trkpt lat="53.346713" lon="-1.909407"><ele>275</ele><time>2021-10-01T13:23:29Z</time><name>PT5880</name></trkpt>
<trkpt lat="53.346706" lon="-1.909413"><ele>275</ele><time>2021-10-01T13:23:30Z</time><name>PT5881</name></trkpt>
<trkpt lat="53.346698" lon="-1.909424"><ele>275</ele><time>2021-10-01T13:23:31Z</time><name>PT5882</name></trkpt>
<trkpt lat="53.346691" lon="-1.909436"><ele>274</ele><time>2021-10-01T13:23:32Z</time><name>PT5883</name></trkpt>
<trkpt lat="53.346684" lon="-1.909446"><ele>274</ele><time>2021-10-01T13:23:33Z</time><name>PT5884</name></trkpt>
<trkpt lat="53.346677" lon="-1.909457"><ele>274</ele><time>2021-10-01T13:23:34Z</time><name>PT5885</name></trkpt>
<trkpt lat="53.346670" lon="-1.909469"><ele>274</ele><time>2021-10-01T13:23:35Z</time><name>PT5886</name></trkpt>
<trkpt lat="53.346662" lon="-1.909484"><ele>274</ele><time>2021-10-01T13:23:36Z</time><name>PT5887</name></trkpt>
<trkpt lat="53.346654" lon="-1.909497"><ele>274</ele><time>2021-10-01T13:23:37Z</time><name>PT5888</name></trkpt>
<trkpt lat="53.346647" lon="-1.909510"><ele>274</ele><time>2021-10-01T13:23:38Z</time><name>PT5889</name></trkpt>
<trkpt lat="53.346639" lon="-1.909523"><ele>274</ele><time>2021-10-01T13:23:39Z</time><name>PT5890</name></trkpt>
<trkpt lat="53.346633" lon="-1.909536"><ele>273</ele><time>2021-10-01T13:23:40Z</time><name>PT5891</name></trkpt>
<trkpt lat="53.346627" lon="-1.909550"><ele>273</ele><time>2021-10-01T13:23:41Z</time><name>PT5892</name></trkpt>
<trkpt lat="53.346620" lon="-1.909562"><ele>273</ele><time>2021-10-01T13:23:42Z</time><name>PT5893</name></trkpt>
<trkpt lat="53.346613" lon="-1.909572"><ele>273</ele><time>2021-10-01T13:23:43Z</time><name>PT5894</name></trkpt>
<trkpt lat="53.346605" lon="-1.909584"><ele>273</ele><time>2021-10-01T13:23:44Z</time><name>PT5895</name></trkpt>
<trkpt lat="53.346598" lon="-1.909595"><ele>273</ele><time>2021-10-01T13:23:45Z</time><name>PT5896</name></trkpt>
<trkpt lat="53.346591" lon="-1.909607"><ele>273</ele><time>2021-10-01T13:23:46Z</time><name>PT5897</name></trkpt>
<trkpt lat="53.346584" lon="-1.909617"><ele>273</ele><time>2021-10-01T13:23:47Z</time><name>PT5898</name></trkpt>
<trkpt lat="53.346576" lon="-1.909629"><ele>273</ele><time>2021-10-01T13:23:48Z</time><name>PT5899</name></trkpt>
<trkpt lat="53.346568" lon="-1.909642"><ele>273</ele><time>2021-10-01T13:23:49Z</time><name>PT5900</name></trkpt>
<trkpt lat="53.346561" lon="-1.909654"><ele>273</ele><time>2021-10-01T13:23:50Z</time><name>PT5901</name></trkpt>
<trkpt lat="53.346553" lon="-1.909668"><ele>273</ele><time>2021-10-01T13:23:51Z</time><name>PT5902</name></trkpt>
<trkpt lat="53.346546" lon="-1.909680"><ele>273</ele><time>2021-10-01T13:23:52Z</time><name>PT5903</name></trkpt>
<trkpt lat="53.346540" lon="-1.909688"><ele>272</ele><time>2021-10-01T13:23:53Z</time><name>PT5904</name></trkpt>
<trkpt lat="53.346534" lon="-1.909696"><ele>272</ele><time>2021-10-01T13:23:54Z</time><name>PT5905</name></trkpt>
<trkpt lat="53.346528" lon="-1.909705"><ele>272</ele><time>2021-10-01T13:23:55Z</time><name>PT5906</name></trkpt>
<trkpt lat="53.346524" lon="-1.909710"><ele>272</ele><time>2021-10-01T13:23:56Z</time><name>PT5907</name></trkpt>
<trkpt lat="53.346523" lon="-1.909716"><ele>272</ele><time>2021-10-01T13:23:57Z</time><name>PT5908</name></trkpt>
<trkpt lat="53.346522" lon="-1.909720"><ele>272</ele><time>2021-10-01T13:23:58Z</time><name>PT5909</name></trkpt>
<trkpt lat="53.346523" lon="-1.909718"><ele>272</ele><time>2021-10-01T13:23:59Z</time><name>PT5910</name></trkpt>
<trkpt lat="53.346523" lon="-1.909717"><ele>272</ele><time>2021-10-01T13:24:00Z</time><name>PT5911</name></trkpt>
<trkpt lat="53.346524" lon="-1.909716"><ele>272</ele><time>2021-10-01T13:24:01Z</time><name>PT5912</name></trkpt>
<trkpt lat="53.346520" lon="-1.909721"><ele>272</ele><time>2021-10-01T13:24:05Z</time><name>PT5913</name></trkpt>
<trkpt lat="53.346516" lon="-1.909735"><ele>272</ele><time>2021-10-01T13:24:06Z</time><name>PT5914</name></trkpt>
<trkpt lat="53.346516" lon="-1.909745"><ele>272</ele><time>2021-10-01T13:24:07Z</time><name>PT5915</name></trkpt>
<trkpt lat="53.346515" lon="-1.909757"><ele>272</ele><time>2021-10-01T13:24:08Z</time><name>PT5916</name></trkpt>
<trkpt lat="53.346511" lon="-1.909770"><ele>271</ele><time>2021-10-01T13:24:09Z</time><name>PT5917</name></trkpt>
<trkpt lat="53.346507" lon="-1.909784"><ele>272</ele><time>2021-10-01T13:24:10Z</time><name>PT5918</name></trkpt>
<trkpt lat="53.346503" lon="-1.909798"><ele>271</ele><time>2021-10-01T13:24:11Z</time><name>PT5919</name></trkpt>
<trkpt lat="53.346498" lon="-1.909809"><ele>271</ele><time>2021-10-01T13:24:12Z</time><name>PT5920</name></trkpt>
<trkpt lat="53.346496" lon="-1.909817"><ele>271</ele><time>2021-10-01T13:24:13Z</time><name>PT5921</name></trkpt>
<trkpt lat="53.346496" lon="-1.909823"><ele>271</ele><time>2021-10-01T13:24:14Z</time><name>PT5922</name></trkpt>
<trkpt lat="53.346496" lon="-1.909825"><ele>271</ele><time>2021-10-01T13:24:15Z</time><name>PT5923</name></trkpt>
<trkpt lat="53.346496" lon="-1.909827"><ele>271</ele><time>2021-10-01T13:24:16Z</time><name>PT5924</name></trkpt>
<trkpt lat="53.346495" lon="-1.909829"><ele>271</ele><time>2021-10-01T13:24:17Z</time><name>PT5925</name></trkpt>
<trkpt lat="53.346492" lon="-1.909835"><ele>271</ele><time>2021-10-01T13:24:20Z</time><name>PT5926</name></trkpt>
<trkpt lat="53.346490" lon="-1.909849"><ele>271</ele><time>2021-10-01T13:24:21Z</time><name>PT5927</name></trkpt>
<trkpt lat="53.346488" lon="-1.909861"><ele>271</ele><time>2021-10-01T13:24:22Z</time><name>PT5928</name></trkpt>
<trkpt lat="53.346485" lon="-1.909871"><ele>271</ele><time>2021-10-01T13:24:23Z</time><name>PT5929</name></trkpt>
<trkpt lat="53.346485" lon="-1.909874"><ele>271</ele><time>2021-10-01T13:24:24Z</time><name>PT5930</name></trkpt>
<trkpt lat="53.346485" lon="-1.909874"><ele>271</ele><time>2021-10-01T13:24:25Z</time><name>PT5931</name></trkpt>
<trkpt lat="53.346485" lon="-1.909873"><ele>271</ele><time>2021-10-01T13:24:26Z</time><name>PT5932</name></trkpt>
<trkpt lat="53.346482" lon="-1.909874"><ele>271</ele><time>2021-10-01T13:24:30Z</time><name>PT5933</name></trkpt>
<trkpt lat="53.346479" lon="-1.909884"><ele>271</ele><time>2021-10-01T13:24:31Z</time><name>PT5934</name></trkpt>
<trkpt lat="53.346479" lon="-1.909893"><ele>270</ele><time>2021-10-01T13:24:32Z</time><name>PT5935</name></trkpt>
<trkpt lat="53.346478" lon="-1.909910"><ele>270</ele><time>2021-10-01T13:24:33Z</time><name>PT5936</name></trkpt>
<trkpt lat="53.346475" lon="-1.909928"><ele>270</ele><time>2021-10-01T13:24:34Z</time><name>PT5937</name></trkpt>
<trkpt lat="53.346470" lon="-1.909945"><ele>270</ele><time>2021-10-01T13:24:35Z</time><name>PT5938</name></trkpt>
<trkpt lat="53.346468" lon="-1.909965"><ele>270</ele><time>2021-10-01T13:24:36Z</time><name>PT5939</name></trkpt>
<trkpt lat="53.346465" lon="-1.909983"><ele>270</ele><time>2021-10-01T13:24:37Z</time><name>PT5940</name></trkpt>
<trkpt lat="53.346464" lon="-1.910004"><ele>270</ele><time>2021-10-01T13:24:38Z</time><name>PT5941</name></trkpt>
<trkpt lat="53.346462" lon="-1.910023"><ele>270</ele><time>2021-10-01T13:24:39Z</time><name>PT5942</name></trkpt>
<trkpt lat="53.346459" lon="-1.910042"><ele>269</ele><time>2021-10-01T13:24:40Z</time><name>PT5943</name></trkpt>
<trkpt lat="53.346455" lon="-1.910060"><ele>269</ele><time>2021-10-01T13:24:41Z</time><name>PT5944</name></trkpt>
<trkpt lat="53.346452" lon="-1.910081"><ele>269</ele><time>2021-10-01T13:24:42Z</time><name>PT5945</name></trkpt>
<trkpt lat="53.346448" lon="-1.910101"><ele>268</ele><time>2021-10-01T13:24:43Z</time><name>PT5946</name></trkpt>
<trkpt lat="53.346445" lon="-1.910119"><ele>268</ele><time>2021-10-01T13:24:44Z</time><name>PT5947</name></trkpt>
<trkpt lat="53.346442" lon="-1.910138"><ele>268</ele><time>2021-10-01T13:24:45Z</time><name>PT5948</name></trkpt>
<trkpt lat="53.346439" lon="-1.910157"><ele>268</ele><time>2021-10-01T13:24:46Z</time><name>PT5949</name></trkpt>
<trkpt lat="53.346435" lon="-1.910177"><ele>268</ele><time>2021-10-01T13:24:47Z</time><name>PT5950</name></trkpt>
<trkpt lat="53.346431" lon="-1.910198"><ele>268</ele><time>2021-10-01T13:24:48Z</time><name>PT5951</name></trkpt>
<trkpt lat="53.346428" lon="-1.910217"><ele>268</ele><time>2021-10-01T13:24:49Z</time><name>PT5952</name></trkpt>
<trkpt lat="53.346424" lon="-1.910238"><ele>268</ele><time>2021-10-01T13:24:50Z</time><name>PT5953</name></trkpt>
<trkpt lat="53.346421" lon="-1.910257"><ele>267</ele><time>2021-10-01T13:24:51Z</time><name>PT5954</name></trkpt>
<trkpt lat="53.346418" lon="-1.910277"><ele>267</ele><time>2021-10-01T13:24:52Z</time><name>PT5955</name></trkpt>
<trkpt lat="53.346415" lon="-1.910297"><ele>267</ele><time>2021-10-01T13:24:53Z</time><name>PT5956</name></trkpt>
<trkpt lat="53.346411" lon="-1.910318"><ele>267</ele><time>2021-10-01T13:24:54Z</time><name>PT5957</name></trkpt>
<trkpt lat="53.346409" lon="-1.910338"><ele>267</ele><time>2021-10-01T13:24:55Z</time><name>PT5958</name></trkpt>
<trkpt lat="53.346407" lon="-1.910360"><ele>267</ele><time>2021-10-01T13:24:56Z</time><name>PT5959</name></trkpt>
<trkpt lat="53.346405" lon="-1.910380"><ele>267</ele><time>2021-10-01T13:24:57Z</time><name>PT5960</name></trkpt>
<trkpt lat="53.346404" lon="-1.910401"><ele>267</ele><time>2021-10-01T13:24:58Z</time><name>PT5961</name></trkpt>
<trkpt lat="53.346402" lon="-1.910424"><ele>267</ele><time>2021-10-01T13:24:59Z</time><name>PT5962</name></trkpt>
<trkpt lat="53.346400" lon="-1.910444"><ele>267</ele><time>2021-10-01T13:25:00Z</time><name>PT5963</name></trkpt>
<trkpt lat="53.346398" lon="-1.910466"><ele>267</ele><time>2021-10-01T13:25:01Z</time><name>PT5964</name></trkpt>
<trkpt lat="53.346396" lon="-1.910485"><ele>267</ele><time>2021-10-01T13:25:02Z</time><name>PT5965</name></trkpt>
<trkpt lat="53.346393" lon="-1.910506"><ele>267</ele><time>2021-10-01T13:25:03Z</time><name>PT5966</name></trkpt>
<trkpt lat="53.346391" lon="-1.910527"><ele>266</ele><time>2021-10-01T13:25:04Z</time><name>PT5967</name></trkpt>
<trkpt lat="53.346388" lon="-1.910547"><ele>267</ele><time>2021-10-01T13:25:05Z</time><name>PT5968</name></trkpt>
<trkpt lat="53.346386" lon="-1.910568"><ele>266</ele><time>2021-10-01T13:25:06Z</time><name>PT5969</name></trkpt>
<trkpt lat="53.346382" lon="-1.910587"><ele>266</ele><time>2021-10-01T13:25:07Z</time><name>PT5970</name></trkpt>
<trkpt lat="53.346379" lon="-1.910608"><ele>266</ele><time>2021-10-01T13:25:08Z</time><name>PT5971</name></trkpt>
<trkpt lat="53.346378" lon="-1.910630"><ele>266</ele><time>2021-10-01T13:25:09Z</time><name>PT5972</name></trkpt>
<trkpt lat="53.346377" lon="-1.910650"><ele>266</ele><time>2021-10-01T13:25:10Z</time><name>PT5973</name></trkpt>
<trkpt lat="53.346376" lon="-1.910668"><ele>266</ele><time>2021-10-01T13:25:11Z</time><name>PT5974</name></trkpt>
<trkpt lat="53.346373" lon="-1.910687"><ele>266</ele><time>2021-10-01T13:25:12Z</time><name>PT5975</name></trkpt>
<trkpt lat="53.346370" lon="-1.910706"><ele>266</ele><time>2021-10-01T13:25:13Z</time><name>PT5976</name></trkpt>
<trkpt lat="53.346368" lon="-1.910727"><ele>266</ele><time>2021-10-01T13:25:14Z</time><name>PT5977</name></trkpt>
<trkpt lat="53.346366" lon="-1.910747"><ele>266</ele><time>2021-10-01T13:25:15Z</time><name>PT5978</name></trkpt>
<trkpt lat="53.346364" lon="-1.910766"><ele>266</ele><time>2021-10-01T13:25:16Z</time><name>PT5979</name></trkpt>
<trkpt lat="53.346361" lon="-1.910787"><ele>266</ele><time>2021-10-01T13:25:17Z</time><name>PT5980</name></trkpt>
<trkpt lat="53.346357" lon="-1.910806"><ele>266</ele><time>2021-10-01T13:25:18Z</time><name>PT5981</name></trkpt>
<trkpt lat="53.346353" lon="-1.910827"><ele>266</ele><time>2021-10-01T13:25:19Z</time><name>PT5982</name></trkpt>
<trkpt lat="53.346350" lon="-1.910847"><ele>266</ele><time>2021-10-01T13:25:20Z</time><name>PT5983</name></trkpt>
<trkpt lat="53.346345" lon="-1.910865"><ele>266</ele><time>2021-10-01T13:25:21Z</time><name>PT5984</name></trkpt>
<trkpt lat="53.346341" lon="-1.910881"><ele>266</ele><time>2021-10-01T13:25:22Z</time><name>PT5985</name></trkpt>
<trkpt lat="53.346337" lon="-1.910899"><ele>266</ele><time>2021-10-01T13:25:23Z</time><name>PT5986</name></trkpt>
<trkpt lat="53.346331" lon="-1.910919"><ele>266</ele><time>2021-10-01T13:25:24Z</time><name>PT5987</name></trkpt>
<trkpt lat="53.346326" lon="-1.910935"><ele>266</ele><time>2021-10-01T13:25:25Z</time><name>PT5988</name></trkpt>
<trkpt lat="53.346320" lon="-1.910951"><ele>266</ele><time>2021-10-01T13:25:26Z</time><name>PT5989</name></trkpt>
<trkpt lat="53.346314" lon="-1.910968"><ele>266</ele><time>2021-10-01T13:25:27Z</time><name>PT5990</name></trkpt>
<trkpt lat="53.346310" lon="-1.910985"><ele>266</ele><time>2021-10-01T13:25:28Z</time><name>PT5991</name></trkpt>
<trkpt lat="53.346305" lon="-1.911003"><ele>266</ele><time>2021-10-01T13:25:29Z</time><name>PT5992</name></trkpt>
<trkpt lat="53.346300" lon="-1.911019"><ele>266</ele><time>2021-10-01T13:25:30Z</time><name>PT5993</name></trkpt>
<trkpt lat="53.346296" lon="-1.911038"><ele>266</ele><time>2021-10-01T13:25:31Z</time><name>PT5994</name></trkpt>
<trkpt lat="53.346292" lon="-1.911056"><ele>266</ele><time>2021-10-01T13:25:32Z</time><name>PT5995</name></trkpt>
<trkpt lat="53.346288" lon="-1.911074"><ele>266</ele><time>2021-10-01T13:25:33Z</time><name>PT5996</name></trkpt>
<trkpt lat="53.346284" lon="-1.911093"><ele>266</ele><time>2021-10-01T13:25:34Z</time><name>PT5997</name></trkpt>
<trkpt lat="53.346279" lon="-1.911109"><ele>266</ele><time>2021-10-01T13:25:35Z</time><name>PT5998</name></trkpt>
<trkpt lat="53.346272" lon="-1.911124"><ele>266</ele><time>2021-10-01T13:25:36Z</time><name>PT5999</name></trkpt>
<trkpt lat="53.346266" lon="-1.911140"><ele>266</ele><time>2021-10-01T13:25:37Z</time><name>PT6000</name></trkpt>
<trkpt lat="53.346259" lon="-1.911157"><ele>266</ele><time>2021-10-01T13:25:38Z</time><name>PT6001</name></trkpt>
<trkpt lat="53.346252" lon="-1.911174"><ele>266</ele><time>2021-10-01T13:25:39Z</time><name>PT6002</name></trkpt>
<trkpt lat="53.346245" lon="-1.911190"><ele>266</ele><time>2021-10-01T13:25:40Z</time><name>PT6003</name></trkpt>
<trkpt lat="53.346238" lon="-1.911205"><ele>266</ele><time>2021-10-01T13:25:41Z</time><name>PT6004</name></trkpt>
<trkpt lat="53.346230" lon="-1.911218"><ele>266</ele><time>2021-10-01T13:25:42Z</time><name>PT6005</name></trkpt>
<trkpt lat="53.346222" lon="-1.911233"><ele>266</ele><time>2021-10-01T13:25:43Z</time><name>PT6006</name></trkpt>
<trkpt lat="53.346214" lon="-1.911247"><ele>265</ele><time>2021-10-01T13:25:44Z</time><name>PT6007</name></trkpt>
<trkpt lat="53.346205" lon="-1.911261"><ele>265</ele><time>2021-10-01T13:25:45Z</time><name>PT6008</name></trkpt>
<trkpt lat="53.346196" lon="-1.911274"><ele>265</ele><time>2021-10-01T13:25:46Z</time><name>PT6009</name></trkpt>
<trkpt lat="53.346189" lon="-1.911289"><ele>265</ele><time>2021-10-01T13:25:47Z</time><name>PT6010</name></trkpt>
<trkpt lat="53.346182" lon="-1.911307"><ele>265</ele><time>2021-10-01T13:25:48Z</time><name>PT6011</name></trkpt>
<trkpt lat="53.346176" lon="-1.911324"><ele>265</ele><time>2021-10-01T13:25:49Z</time><name>PT6012</name></trkpt>
<trkpt lat="53.346169" lon="-1.911340"><ele>265</ele><time>2021-10-01T13:25:50Z</time><name>PT6013</name></trkpt>
<trkpt lat="53.346162" lon="-1.911356"><ele>265</ele><time>2021-10-01T13:25:51Z</time><name>PT6014</name></trkpt>
<trkpt lat="53.346155" lon="-1.911372"><ele>265</ele><time>2021-10-01T13:25:52Z</time><name>PT6015</name></trkpt>
<trkpt lat="53.346146" lon="-1.911394"><ele>264</ele><time>2021-10-01T13:25:53Z</time><name>PT6016</name></trkpt>
<trkpt lat="53.346138" lon="-1.911408"><ele>264</ele><time>2021-10-01T13:25:54Z</time><name>PT6017</name></trkpt>
<trkpt lat="53.346128" lon="-1.911424"><ele>264</ele><time>2021-10-01T13:25:55Z</time><name>PT6018</name></trkpt>
<trkpt lat="53.346121" lon="-1.911441"><ele>264</ele><time>2021-10-01T13:25:56Z</time><name>PT6019</name></trkpt>
<trkpt lat="53.346113" lon="-1.911458"><ele>264</ele><time>2021-10-01T13:25:57Z</time><name>PT6020</name></trkpt>
<trkpt lat="53.346107" lon="-1.911474"><ele>264</ele><time>2021-10-01T13:25:58Z</time><name>PT6021</name></trkpt>
<trkpt lat="53.346099" lon="-1.911490"><ele>264</ele><time>2021-10-01T13:25:59Z</time><name>PT6022</name></trkpt>
<trkpt lat="53.346090" lon="-1.911505"><ele>264</ele><time>2021-10-01T13:26:00Z</time><name>PT6023</name></trkpt>
<trkpt lat="53.346081" lon="-1.911519"><ele>264</ele><time>2021-10-01T13:26:01Z</time><name>PT6024</name></trkpt>
<trkpt lat="53.346072" lon="-1.911535"><ele>264</ele><time>2021-10-01T13:26:02Z</time><name>PT6025</name></trkpt>
<trkpt lat="53.346064" lon="-1.911552"><ele>264</ele><time>2021-10-01T13:26:03Z</time><name>PT6026</name></trkpt>
<trkpt lat="53.346057" lon="-1.911564"><ele>264</ele><time>2021-10-01T13:26:04Z</time><name>PT6027</name></trkpt>
<trkpt lat="53.346049" lon="-1.911576"><ele>264</ele><time>2021-10-01T13:26:05Z</time><name>PT6028</name></trkpt>
<trkpt lat="53.346040" lon="-1.911587"><ele>263</ele><time>2021-10-01T13:26:06Z</time><name>PT6029</name></trkpt>
<trkpt lat="53.346030" lon="-1.911599"><ele>263</ele><time>2021-10-01T13:26:07Z</time><name>PT6030</name></trkpt>
<trkpt lat="53.346021" lon="-1.911614"><ele>263</ele><time>2021-10-01T13:26:08Z</time><name>PT6031</name></trkpt>
<trkpt lat="53.346013" lon="-1.911630"><ele>263</ele><time>2021-10-01T13:26:09Z</time><name>PT6032</name></trkpt>
<trkpt lat="53.346004" lon="-1.911644"><ele>263</ele><time>2021-10-01T13:26:10Z</time><name>PT6033</name></trkpt>
<trkpt lat="53.345995" lon="-1.911660"><ele>263</ele><time>2021-10-01T13:26:11Z</time><name>PT6034</name></trkpt>
<trkpt lat="53.345987" lon="-1.911674"><ele>263</ele><time>2021-10-01T13:26:12Z</time><name>PT6035</name></trkpt>
<trkpt lat="53.345978" lon="-1.911687"><ele>263</ele><time>2021-10-01T13:26:13Z</time><name>PT6036</name></trkpt>
<trkpt lat="53.345970" lon="-1.911702"><ele>263</ele><time>2021-10-01T13:26:14Z</time><name>PT6037</name></trkpt>
<trkpt lat="53.345962" lon="-1.911715"><ele>263</ele><time>2021-10-01T13:26:15Z</time><name>PT6038</name></trkpt>
<trkpt lat="53.345953" lon="-1.911729"><ele>263</ele><time>2021-10-01T13:26:16Z</time><name>PT6039</name></trkpt>
<trkpt lat="53.345944" lon="-1.911743"><ele>263</ele><time>2021-10-01T13:26:17Z</time><name>PT6040</name></trkpt>
<trkpt lat="53.345935" lon="-1.911757"><ele>263</ele><time>2021-10-01T13:26:18Z</time><name>PT6041</name></trkpt>
<trkpt lat="53.345927" lon="-1.911774"><ele>263</ele><time>2021-10-01T13:26:19Z</time><name>PT6042</name></trkpt>
<trkpt lat="53.345919" lon="-1.911790"><ele>263</ele><time>2021-10-01T13:26:20Z</time><name>PT6043</name></trkpt>
<trkpt lat="53.345912" lon="-1.911807"><ele>262</ele><time>2021-10-01T13:26:21Z</time><name>PT6044</name></trkpt>
<trkpt lat="53.345904" lon="-1.911821"><ele>262</ele><time>2021-10-01T13:26:22Z</time><name>PT6045</name></trkpt>
<trkpt lat="53.345896" lon="-1.911835"><ele>262</ele><time>2021-10-01T13:26:23Z</time><name>PT6046</name></trkpt>
<trkpt lat="53.345889" lon="-1.911851"><ele>262</ele><time>2021-10-01T13:26:24Z</time><name>PT6047</name></trkpt>
<trkpt lat="53.345881" lon="-1.911866"><ele>262</ele><time>2021-10-01T13:26:25Z</time><name>PT6048</name></trkpt>
<trkpt lat="53.345873" lon="-1.911879"><ele>262</ele><time>2021-10-01T13:26:26Z</time><name>PT6049</name></trkpt>
<trkpt lat="53.345866" lon="-1.911893"><ele>262</ele><time>2021-10-01T13:26:27Z</time><name>PT6050</name></trkpt>
<trkpt lat="53.345860" lon="-1.911909"><ele>262</ele><time>2021-10-01T13:26:28Z</time><name>PT6051</name></trkpt>
<trkpt lat="53.345854" lon="-1.911924"><ele>263</ele><time>2021-10-01T13:26:29Z</time><name>PT6052</name></trkpt>
<trkpt lat="53.345845" lon="-1.911939"><ele>263</ele><time>2021-10-01T13:26:30Z</time><name>PT6053</name></trkpt>
<trkpt lat="53.345837" lon="-1.911953"><ele>262</ele><time>2021-10-01T13:26:31Z</time><name>PT6054</name></trkpt>
<trkpt lat="53.345830" lon="-1.911967"><ele>262</ele><time>2021-10-01T13:26:32Z</time><name>PT6055</name></trkpt>
<trkpt lat="53.345824" lon="-1.911983"><ele>262</ele><time>2021-10-01T13:26:33Z</time><name>PT6056</name></trkpt>
<trkpt lat="53.345817" lon="-1.911998"><ele>262</ele><time>2021-10-01T13:26:34Z</time><name>PT6057</name></trkpt>
<trkpt lat="53.345809" lon="-1.912013"><ele>262</ele><time>2021-10-01T13:26:35Z</time><name>PT6058</name></trkpt>
<trkpt lat="53.345802" lon="-1.912026"><ele>262</ele><time>2021-10-01T13:26:36Z</time><name>PT6059</name></trkpt>
<trkpt lat="53.345793" lon="-1.912039"><ele>262</ele><time>2021-10-01T13:26:37Z</time><name>PT6060</name></trkpt>
<trkpt lat="53.345784" lon="-1.912050"><ele>262</ele><time>2021-10-01T13:26:38Z</time><name>PT6061</name></trkpt>
<trkpt lat="53.345774" lon="-1.912062"><ele>262</ele><time>2021-10-01T13:26:39Z</time><name>PT6062</name></trkpt>
<trkpt lat="53.345765" lon="-1.912069"><ele>262</ele><time>2021-10-01T13:26:40Z</time><name>PT6063</name></trkpt>
<trkpt lat="53.345758" lon="-1.912076"><ele>262</ele><time>2021-10-01T13:26:41Z</time><name>PT6064</name></trkpt>
<trkpt lat="53.345747" lon="-1.912084"><ele>262</ele><time>2021-10-01T13:26:42Z</time><name>PT6065</name></trkpt>
<trkpt lat="53.345735" lon="-1.912094"><ele>261</ele><time>2021-10-01T13:26:43Z</time><name>PT6066</name></trkpt>
<trkpt lat="53.345725" lon="-1.912106"><ele>261</ele><time>2021-10-01T13:26:44Z</time><name>PT6067</name></trkpt>
<trkpt lat="53.345717" lon="-1.912119"><ele>261</ele><time>2021-10-01T13:26:45Z</time><name>PT6068</name></trkpt>
<trkpt lat="53.345709" lon="-1.912130"><ele>261</ele><time>2021-10-01T13:26:46Z</time><name>PT6069</name></trkpt>
<trkpt lat="53.345703" lon="-1.912143"><ele>261</ele><time>2021-10-01T13:26:47Z</time><name>PT6070</name></trkpt>
<trkpt lat="53.345696" lon="-1.912156"><ele>261</ele><time>2021-10-01T13:26:48Z</time><name>PT6071</name></trkpt>
<trkpt lat="53.345688" lon="-1.912171"><ele>261</ele><time>2021-10-01T13:26:49Z</time><name>PT6072</name></trkpt>
<trkpt lat="53.345681" lon="-1.912184"><ele>261</ele><time>2021-10-01T13:26:50Z</time><name>PT6073</name></trkpt>
<trkpt lat="53.345674" lon="-1.912196"><ele>261</ele><time>2021-10-01T13:26:51Z</time><name>PT6074</name></trkpt>
<trkpt lat="53.345667" lon="-1.912210"><ele>261</ele><time>2021-10-01T13:26:52Z</time><name>PT6075</name></trkpt>
<trkpt lat="53.345659" lon="-1.912225"><ele>261</ele><time>2021-10-01T13:26:53Z</time><name>PT6076</name></trkpt>
<trkpt lat="53.345651" lon="-1.912237"><ele>261</ele><time>2021-10-01T13:26:54Z</time><name>PT6077</name></trkpt>
<trkpt lat="53.345642" lon="-1.912248"><ele>260</ele><time>2021-10-01T13:26:55Z</time><name>PT6078</name></trkpt>
<trkpt lat="53.345634" lon="-1.912263"><ele>260</ele><time>2021-10-01T13:26:56Z</time><name>PT6079</name></trkpt>
<trkpt lat="53.345626" lon="-1.912277"><ele>260</ele><time>2021-10-01T13:26:57Z</time><name>PT6080</name></trkpt>
<trkpt lat="53.345618" lon="-1.912291"><ele>261</ele><time>2021-10-01T13:26:58Z</time><name>PT6081</name></trkpt>
<trkpt lat="53.345609" lon="-1.912304"><ele>260</ele><time>2021-10-01T13:26:59Z</time><name>PT6082</name></trkpt>
<trkpt lat="53.345599" lon="-1.912315"><ele>260</ele><time>2021-10-01T13:27:00Z</time><name>PT6083</name></trkpt>
<trkpt lat="53.345590" lon="-1.912328"><ele>260</ele><time>2021-10-01T13:27:01Z</time><name>PT6084</name></trkpt>
<trkpt lat="53.345582" lon="-1.912340"><ele>261</ele><time>2021-10-01T13:27:02Z</time><name>PT6085</name></trkpt>
<trkpt lat="53.345573" lon="-1.912353"><ele>261</ele><time>2021-10-01T13:27:03Z</time><name>PT6086</name></trkpt>
<trkpt lat="53.345566" lon="-1.912366"><ele>260</ele><time>2021-10-01T13:27:04Z</time><name>PT6087</name></trkpt>
<trkpt lat="53.345558" lon="-1.912380"><ele>260</ele><time>2021-10-01T13:27:05Z</time><name>PT6088</name></trkpt>
<trkpt lat="53.345552" lon="-1.912395"><ele>260</ele><time>2021-10-01T13:27:06Z</time><name>PT6089</name></trkpt>
<trkpt lat="53.345545" lon="-1.912410"><ele>260</ele><time>2021-10-01T13:27:07Z</time><name>PT6090</name></trkpt>
<trkpt lat="53.345537" lon="-1.912424"><ele>260</ele><time>2021-10-01T13:27:08Z</time><name>PT6091</name></trkpt>
<trkpt lat="53.345530" lon="-1.912439"><ele>260</ele><time>2021-10-01T13:27:09Z</time><name>PT6092</name></trkpt>
<trkpt lat="53.345525" lon="-1.912451"><ele>260</ele><time>2021-10-01T13:27:10Z</time><name>PT6093</name></trkpt>
<trkpt lat="53.345520" lon="-1.912463"><ele>259</ele><time>2021-10-01T13:27:11Z</time><name>PT6094</name></trkpt>
<trkpt lat="53.345512" lon="-1.912481"><ele>259</ele><time>2021-10-01T13:27:12Z</time><name>PT6095</name></trkpt>
<trkpt lat="53.345502" lon="-1.912501"><ele>260</ele><time>2021-10-01T13:27:13Z</time><name>PT6096</name></trkpt>
<trkpt lat="53.345493" lon="-1.912518"><ele>260</ele><time>2021-10-01T13:27:14Z</time><name>PT6097</name></trkpt>
<trkpt lat="53.345488" lon="-1.912535"><ele>260</ele><time>2021-10-01T13:27:15Z</time><name>PT6098</name></trkpt>
<trkpt lat="53.345485" lon="-1.912548"><ele>260</ele><time>2021-10-01T13:27:16Z</time><name>PT6099</name></trkpt>
<trkpt lat="53.345478" lon="-1.912565"><ele>260</ele><time>2021-10-01T13:27:17Z</time><name>PT6100</name></trkpt>
<trkpt lat="53.345468" lon="-1.912583"><ele>260</ele><time>2021-10-01T13:27:18Z</time><name>PT6101</name></trkpt>
<trkpt lat="53.345460" lon="-1.912602"><ele>260</ele><time>2021-10-01T13:27:19Z</time><name>PT6102</name></trkpt>
<trkpt lat="53.345452" lon="-1.912616"><ele>260</ele><time>2021-10-01T13:27:20Z</time><name>PT6103</name></trkpt>
<trkpt lat="53.345448" lon="-1.912626"><ele>260</ele><time>2021-10-01T13:27:21Z</time><name>PT6104</name></trkpt>
<trkpt lat="53.345441" lon="-1.912640"><ele>260</ele><time>2021-10-01T13:27:22Z</time><name>PT6105</name></trkpt>
<trkpt lat="53.345431" lon="-1.912655"><ele>261</ele><time>2021-10-01T13:27:23Z</time><name>PT6106</name></trkpt>
<trkpt lat="53.345423" lon="-1.912668"><ele>261</ele><time>2021-10-01T13:27:24Z</time><name>PT6107</name></trkpt>
<trkpt lat="53.345418" lon="-1.912682"><ele>261</ele><time>2021-10-01T13:27:25Z</time><name>PT6108</name></trkpt>
<trkpt lat="53.345414" lon="-1.912693"><ele>261</ele><time>2021-10-01T13:27:26Z</time><name>PT6109</name></trkpt>
<trkpt lat="53.345407" lon="-1.912710"><ele>261</ele><time>2021-10-01T13:27:27Z</time><name>PT6110</name></trkpt>
<trkpt lat="53.345400" lon="-1.912730"><ele>262</ele><time>2021-10-01T13:27:28Z</time><name>PT6111</name></trkpt>
<trkpt lat="53.345394" lon="-1.912749"><ele>262</ele><time>2021-10-01T13:27:29Z</time><name>PT6112</name></trkpt>
<trkpt lat="53.345395" lon="-1.912764"><ele>262</ele><time>2021-10-01T13:27:30Z</time><name>PT6113</name></trkpt>
<trkpt lat="53.345394" lon="-1.912793"><ele>262</ele><time>2021-10-01T13:27:31Z</time><name>PT6114</name></trkpt>
<trkpt lat="53.345397" lon="-1.912820"><ele>262</ele><time>2021-10-01T13:27:32Z</time><name>PT6115</name></trkpt>
<trkpt lat="53.345399" lon="-1.912836"><ele>262</ele><time>2021-10-01T13:27:33Z</time><name>PT6116</name></trkpt>
<trkpt lat="53.345402" lon="-1.912844"><ele>262</ele><time>2021-10-01T13:27:34Z</time><name>PT6117</name></trkpt>
<trkpt lat="53.345403" lon="-1.912858"><ele>261</ele><time>2021-10-01T13:27:35Z</time><name>PT6118</name></trkpt>
<trkpt lat="53.345402" lon="-1.912878"><ele>261</ele><time>2021-10-01T13:27:36Z</time><name>PT6119</name></trkpt>
<trkpt lat="53.345404" lon="-1.912890"><ele>261</ele><time>2021-10-01T13:27:37Z</time><name>PT6120</name></trkpt>
<trkpt lat="53.345404" lon="-1.912900"><ele>261</ele><time>2021-10-01T13:27:38Z</time><name>PT6121</name></trkpt>
<trkpt lat="53.345405" lon="-1.912905"><ele>262</ele><time>2021-10-01T13:27:39Z</time><name>PT6122</name></trkpt>
<trkpt lat="53.345405" lon="-1.912912"><ele>262</ele><time>2021-10-01T13:27:40Z</time><name>PT6123</name></trkpt>
<trkpt lat="53.345409" lon="-1.912911"><ele>262</ele><time>2021-10-01T13:27:41Z</time><name>PT6124</name></trkpt>
<trkpt lat="53.345408" lon="-1.912908"><ele>262</ele><time>2021-10-01T13:27:42Z</time><name>PT6125</name></trkpt>
<trkpt lat="53.345409" lon="-1.912899"><ele>262</ele><time>2021-10-01T13:27:43Z</time><name>PT6126</name></trkpt>
<trkpt lat="53.345409" lon="-1.912893"><ele>262</ele><time>2021-10-01T13:27:44Z</time><name>PT6127</name></trkpt>
<trkpt lat="53.345410" lon="-1.912896"><ele>262</ele><time>2021-10-01T13:27:45Z</time><name>PT6128</name></trkpt>
<trkpt lat="53.345410" lon="-1.912901"><ele>262</ele><time>2021-10-01T13:27:46Z</time><name>PT6129</name></trkpt>
<trkpt lat="53.345410" lon="-1.912905"><ele>262</ele><time>2021-10-01T13:27:47Z</time><name>PT6130</name></trkpt>
<trkpt lat="53.345408" lon="-1.912918"><ele>261</ele><time>2021-10-01T13:27:48Z</time><name>PT6131</name></trkpt>
<trkpt lat="53.345402" lon="-1.912922"><ele>262</ele><time>2021-10-01T13:27:49Z</time><name>PT6132</name></trkpt>
<trkpt lat="53.345404" lon="-1.912937"><ele>262</ele><time>2021-10-01T13:27:50Z</time><name>PT6133</name></trkpt>
<trkpt lat="53.345404" lon="-1.912948"><ele>262</ele><time>2021-10-01T13:27:51Z</time><name>PT6134</name></trkpt>
<trkpt lat="53.345403" lon="-1.912959"><ele>261</ele><time>2021-10-01T13:27:52Z</time><name>PT6135</name></trkpt>
<trkpt lat="53.345401" lon="-1.912964"><ele>261</ele><time>2021-10-01T13:27:53Z</time><name>PT6136</name></trkpt>
<trkpt lat="53.345402" lon="-1.912962"><ele>261</ele><time>2021-10-01T13:27:54Z</time><name>PT6137</name></trkpt>
<trkpt lat="53.345400" lon="-1.912961"><ele>261</ele><time>2021-10-01T13:27:55Z</time><name>PT6138</name></trkpt>
<trkpt lat="53.345401" lon="-1.912960"><ele>261</ele><time>2021-10-01T13:27:56Z</time><name>PT6139</name></trkpt>
<trkpt lat="53.345399" lon="-1.912965"><ele>261</ele><time>2021-10-01T13:27:57Z</time><name>PT6140</name></trkpt>
<trkpt lat="53.345398" lon="-1.912969"><ele>261</ele><time>2021-10-01T13:27:58Z</time><name>PT6141</name></trkpt>
<trkpt lat="53.345396" lon="-1.912969"><ele>261</ele><time>2021-10-01T13:27:59Z</time><name>PT6142</name></trkpt>
<trkpt lat="53.345395" lon="-1.912969"><ele>261</ele><time>2021-10-01T13:28:00Z</time><name>PT6143</name></trkpt>
<trkpt lat="53.345397" lon="-1.912969"><ele>261</ele><time>2021-10-01T13:28:01Z</time><name>PT6144</name></trkpt>
<trkpt lat="53.345397" lon="-1.912970"><ele>261</ele><time>2021-10-01T13:28:02Z</time><name>PT6145</name></trkpt>
<trkpt lat="53.345396" lon="-1.912969"><ele>261</ele><time>2021-10-01T13:28:03Z</time><name>PT6146</name></trkpt>
<trkpt lat="53.345397" lon="-1.912971"><ele>261</ele><time>2021-10-01T13:28:04Z</time><name>PT6147</name></trkpt>
<trkpt lat="53.345391" lon="-1.912975"><ele>262</ele><time>2021-10-01T13:28:27Z</time><name>PT6148</name></trkpt>
<trkpt lat="53.345384" lon="-1.912977"><ele>262</ele><time>2021-10-01T13:28:28Z</time><name>PT6149</name></trkpt>
<trkpt lat="53.345378" lon="-1.912980"><ele>262</ele><time>2021-10-01T13:28:29Z</time><name>PT6150</name></trkpt>
<trkpt lat="53.345374" lon="-1.912989"><ele>262</ele><time>2021-10-01T13:28:36Z</time><name>PT6151</name></trkpt>
<trkpt lat="53.345370" lon="-1.912993"><ele>262</ele><time>2021-10-01T13:28:37Z</time><name>PT6152</name></trkpt>
<trkpt lat="53.345365" lon="-1.912993"><ele>262</ele><time>2021-10-01T13:28:39Z</time><name>PT6153</name></trkpt>
<trkpt lat="53.345361" lon="-1.912990"><ele>263</ele><time>2021-10-01T13:28:40Z</time><name>PT6154</name></trkpt>
<trkpt lat="53.345357" lon="-1.912990"><ele>262</ele><time>2021-10-01T13:28:41Z</time><name>PT6155</name></trkpt>
<trkpt lat="53.345358" lon="-1.912989"><ele>262</ele><time>2021-10-01T13:28:42Z</time><name>PT6156</name></trkpt>
<trkpt lat="53.345345" lon="-1.913006"><ele>263</ele><time>2021-10-01T13:29:00Z</time><name>PT6157</name></trkpt>
<trkpt lat="53.345336" lon="-1.913008"><ele>263</ele><time>2021-10-01T13:29:01Z</time><name>PT6158</name></trkpt>
<trkpt lat="53.345326" lon="-1.913009"><ele>262</ele><time>2021-10-01T13:29:02Z</time><name>PT6159</name></trkpt>
<trkpt lat="53.345316" lon="-1.913011"><ele>262</ele><time>2021-10-01T13:29:03Z</time><name>PT6160</name></trkpt>
<trkpt lat="53.345299" lon="-1.913009"><ele>262</ele><time>2021-10-01T13:29:04Z</time><name>PT6161</name></trkpt>
<trkpt lat="53.345285" lon="-1.913016"><ele>262</ele><time>2021-10-01T13:29:05Z</time><name>PT6162</name></trkpt>
<trkpt lat="53.345275" lon="-1.913020"><ele>261</ele><time>2021-10-01T13:29:06Z</time><name>PT6163</name></trkpt>
<trkpt lat="53.345259" lon="-1.913023"><ele>261</ele><time>2021-10-01T13:29:07Z</time><name>PT6164</name></trkpt>
<trkpt lat="53.345250" lon="-1.913030"><ele>260</ele><time>2021-10-01T13:29:08Z</time><name>PT6165</name></trkpt>
<trkpt lat="53.345242" lon="-1.913037"><ele>260</ele><time>2021-10-01T13:29:09Z</time><name>PT6166</name></trkpt>
<trkpt lat="53.345235" lon="-1.913046"><ele>259</ele><time>2021-10-01T13:29:10Z</time><name>PT6167</name></trkpt>
<trkpt lat="53.345224" lon="-1.913052"><ele>259</ele><time>2021-10-01T13:29:11Z</time><name>PT6168</name></trkpt>
<trkpt lat="53.345214" lon="-1.913056"><ele>259</ele><time>2021-10-01T13:29:12Z</time><name>PT6169</name></trkpt>
<trkpt lat="53.345204" lon="-1.913055"><ele>259</ele><time>2021-10-01T13:29:13Z</time><name>PT6170</name></trkpt>
<trkpt lat="53.345192" lon="-1.913061"><ele>258</ele><time>2021-10-01T13:29:14Z</time><name>PT6171</name></trkpt>
<trkpt lat="53.345179" lon="-1.913063"><ele>258</ele><time>2021-10-01T13:29:15Z</time><name>PT6172</name></trkpt>
<trkpt lat="53.345165" lon="-1.913068"><ele>258</ele><time>2021-10-01T13:29:16Z</time><name>PT6173</name></trkpt>
<trkpt lat="53.345152" lon="-1.913074"><ele>258</ele><time>2021-10-01T13:29:17Z</time><name>PT6174</name></trkpt>
<trkpt lat="53.345138" lon="-1.913077"><ele>257</ele><time>2021-10-01T13:29:18Z</time><name>PT6175</name></trkpt>
<trkpt lat="53.345123" lon="-1.913080"><ele>257</ele><time>2021-10-01T13:29:19Z</time><name>PT6176</name></trkpt>
<trkpt lat="53.345087" lon="-1.913077"><ele>259</ele><time>2021-10-01T13:29:20Z</time><name>PT6177</name></trkpt>
<trkpt lat="53.345064" lon="-1.913090"><ele>259</ele><time>2021-10-01T13:29:21Z</time><name>PT6178</name></trkpt>
<trkpt lat="53.345041" lon="-1.913111"><ele>259</ele><time>2021-10-01T13:29:22Z</time><name>PT6179</name></trkpt>
<trkpt lat="53.345024" lon="-1.913125"><ele>258</ele><time>2021-10-01T13:29:23Z</time><name>PT6180</name></trkpt>
<trkpt lat="53.345008" lon="-1.913135"><ele>258</ele><time>2021-10-01T13:29:24Z</time><name>PT6181</name></trkpt>
<trkpt lat="53.344994" lon="-1.913141"><ele>258</ele><time>2021-10-01T13:29:25Z</time><name>PT6182</name></trkpt>
<trkpt lat="53.344979" lon="-1.913146"><ele>258</ele><time>2021-10-01T13:29:26Z</time><name>PT6183</name></trkpt>
<trkpt lat="53.344964" lon="-1.913154"><ele>258</ele><time>2021-10-01T13:29:27Z</time><name>PT6184</name></trkpt>
<trkpt lat="53.344952" lon="-1.913163"><ele>258</ele><time>2021-10-01T13:29:28Z</time><name>PT6185</name></trkpt>
<trkpt lat="53.344941" lon="-1.913173"><ele>258</ele><time>2021-10-01T13:29:29Z</time><name>PT6186</name></trkpt>
<trkpt lat="53.344930" lon="-1.913184"><ele>258</ele><time>2021-10-01T13:29:30Z</time><name>PT6187</name></trkpt>
<trkpt lat="53.344919" lon="-1.913194"><ele>258</ele><time>2021-10-01T13:29:31Z</time><name>PT6188</name></trkpt>
<trkpt lat="53.344907" lon="-1.913204"><ele>258</ele><time>2021-10-01T13:29:32Z</time><name>PT6189</name></trkpt>
<trkpt lat="53.344894" lon="-1.913214"><ele>258</ele><time>2021-10-01T13:29:33Z</time><name>PT6190</name></trkpt>
<trkpt lat="53.344882" lon="-1.913226"><ele>258</ele><time>2021-10-01T13:29:34Z</time><name>PT6191</name></trkpt>
<trkpt lat="53.344872" lon="-1.913236"><ele>258</ele><time>2021-10-01T13:29:35Z</time><name>PT6192</name></trkpt>
<trkpt lat="53.344861" lon="-1.913245"><ele>258</ele><time>2021-10-01T13:29:36Z</time><name>PT6193</name></trkpt>
<trkpt lat="53.344850" lon="-1.913255"><ele>258</ele><time>2021-10-01T13:29:37Z</time><name>PT6194</name></trkpt>
<trkpt lat="53.344840" lon="-1.913260"><ele>258</ele><time>2021-10-01T13:29:38Z</time><name>PT6195</name></trkpt>
<trkpt lat="53.344829" lon="-1.913262"><ele>258</ele><time>2021-10-01T13:29:39Z</time><name>PT6196</name></trkpt>
<trkpt lat="53.344821" lon="-1.913270"><ele>258</ele><time>2021-10-01T13:29:40Z</time><name>PT6197</name></trkpt>
<trkpt lat="53.344810" lon="-1.913276"><ele>258</ele><time>2021-10-01T13:29:41Z</time><name>PT6198</name></trkpt>
<trkpt lat="53.344800" lon="-1.913278"><ele>258</ele><time>2021-10-01T13:29:42Z</time><name>PT6199</name></trkpt>
<trkpt lat="53.344794" lon="-1.913283"><ele>257</ele><time>2021-10-01T13:29:43Z</time><name>PT6200</name></trkpt>
<trkpt lat="53.344785" lon="-1.913292"><ele>257</ele><time>2021-10-01T13:29:44Z</time><name>PT6201</name></trkpt>
<trkpt lat="53.344775" lon="-1.913296"><ele>257</ele><time>2021-10-01T13:29:45Z</time><name>PT6202</name></trkpt>
<trkpt lat="53.344769" lon="-1.913303"><ele>256</ele><time>2021-10-01T13:29:46Z</time><name>PT6203</name></trkpt>
<trkpt lat="53.344761" lon="-1.913312"><ele>256</ele><time>2021-10-01T13:29:47Z</time><name>PT6204</name></trkpt>
<trkpt lat="53.344749" lon="-1.913319"><ele>256</ele><time>2021-10-01T13:29:48Z</time><name>PT6205</name></trkpt>
<trkpt lat="53.344736" lon="-1.913322"><ele>256</ele><time>2021-10-01T13:29:49Z</time><name>PT6206</name></trkpt>
<trkpt lat="53.344726" lon="-1.913327"><ele>256</ele><time>2021-10-01T13:29:50Z</time><name>PT6207</name></trkpt>
<trkpt lat="53.344721" lon="-1.913334"><ele>256</ele><time>2021-10-01T13:29:51Z</time><name>PT6208</name></trkpt>
<trkpt lat="53.344707" lon="-1.913342"><ele>256</ele><time>2021-10-01T13:29:52Z</time><name>PT6209</name></trkpt>
<trkpt lat="53.344699" lon="-1.913347"><ele>256</ele><time>2021-10-01T13:29:53Z</time><name>PT6210</name></trkpt>
<trkpt lat="53.344689" lon="-1.913347"><ele>257</ele><time>2021-10-01T13:29:54Z</time><name>PT6211</name></trkpt>
<trkpt lat="53.344679" lon="-1.913347"><ele>258</ele><time>2021-10-01T13:29:55Z</time><name>PT6212</name></trkpt>
<trkpt lat="53.344670" lon="-1.913346"><ele>258</ele><time>2021-10-01T13:29:56Z</time><name>PT6213</name></trkpt>
<trkpt lat="53.344664" lon="-1.913341"><ele>257</ele><time>2021-10-01T13:29:57Z</time><name>PT6214</name></trkpt>
<trkpt lat="53.344656" lon="-1.913344"><ele>256</ele><time>2021-10-01T13:29:58Z</time><name>PT6215</name></trkpt>
<trkpt lat="53.344640" lon="-1.913345"><ele>255</ele><time>2021-10-01T13:29:59Z</time><name>PT6216</name></trkpt>
<trkpt lat="53.344625" lon="-1.913343"><ele>255</ele><time>2021-10-01T13:30:00Z</time><name>PT6217</name></trkpt>
<trkpt lat="53.344612" lon="-1.913341"><ele>256</ele><time>2021-10-01T13:30:01Z</time><name>PT6218</name></trkpt>
<trkpt lat="53.344597" lon="-1.913349"><ele>256</ele><time>2021-10-01T13:30:02Z</time><name>PT6219</name></trkpt>
<trkpt lat="53.344581" lon="-1.913356"><ele>256</ele><time>2021-10-01T13:30:03Z</time><name>PT6220</name></trkpt>
<trkpt lat="53.344565" lon="-1.913356"><ele>256</ele><time>2021-10-01T13:30:04Z</time><name>PT6221</name></trkpt>
<trkpt lat="53.344554" lon="-1.913356"><ele>256</ele><time>2021-10-01T13:30:05Z</time><name>PT6222</name></trkpt>
<trkpt lat="53.344538" lon="-1.913361"><ele>256</ele><time>2021-10-01T13:30:06Z</time><name>PT6223</name></trkpt>
<trkpt lat="53.344520" lon="-1.913362"><ele>256</ele><time>2021-10-01T13:30:07Z</time><name>PT6224</name></trkpt>
<trkpt lat="53.344508" lon="-1.913359"><ele>256</ele><time>2021-10-01T13:30:08Z</time><name>PT6225</name></trkpt>
<trkpt lat="53.344496" lon="-1.913357"><ele>256</ele><time>2021-10-01T13:30:09Z</time><name>PT6226</name></trkpt>
<trkpt lat="53.344480" lon="-1.913360"><ele>257</ele><time>2021-10-01T13:30:10Z</time><name>PT6227</name></trkpt>
<trkpt lat="53.344462" lon="-1.913360"><ele>257</ele><time>2021-10-01T13:30:11Z</time><name>PT6228</name></trkpt>
<trkpt lat="53.344448" lon="-1.913359"><ele>257</ele><time>2021-10-01T13:30:12Z</time><name>PT6229</name></trkpt>
<trkpt lat="53.344435" lon="-1.913356"><ele>257</ele><time>2021-10-01T13:30:13Z</time><name>PT6230</name></trkpt>
<trkpt lat="53.344418" lon="-1.913365"><ele>257</ele><time>2021-10-01T13:30:14Z</time><name>PT6231</name></trkpt>
<trkpt lat="53.344404" lon="-1.913365"><ele>258</ele><time>2021-10-01T13:30:15Z</time><name>PT6232</name></trkpt>
<trkpt lat="53.344390" lon="-1.913364"><ele>258</ele><time>2021-10-01T13:30:16Z</time><name>PT6233</name></trkpt>
<trkpt lat="53.344377" lon="-1.913366"><ele>258</ele><time>2021-10-01T13:30:17Z</time><name>PT6234</name></trkpt>
<trkpt lat="53.344363" lon="-1.913372"><ele>259</ele><time>2021-10-01T13:30:18Z</time><name>PT6235</name></trkpt>
<trkpt lat="53.344353" lon="-1.913380"><ele>259</ele><time>2021-10-01T13:30:19Z</time><name>PT6236</name></trkpt>
<trkpt lat="53.344345" lon="-1.913387"><ele>259</ele><time>2021-10-01T13:30:20Z</time><name>PT6237</name></trkpt>
<trkpt lat="53.344328" lon="-1.913389"><ele>259</ele><time>2021-10-01T13:30:21Z</time><name>PT6238</name></trkpt>
<trkpt lat="53.344316" lon="-1.913391"><ele>258</ele><time>2021-10-01T13:30:22Z</time><name>PT6239</name></trkpt>
<trkpt lat="53.344297" lon="-1.913393"><ele>259</ele><time>2021-10-01T13:30:23Z</time><name>PT6240</name></trkpt>
<trkpt lat="53.344273" lon="-1.913391"><ele>261</ele><time>2021-10-01T13:30:24Z</time><name>PT6241</name></trkpt>
<trkpt lat="53.344255" lon="-1.913393"><ele>261</ele><time>2021-10-01T13:30:25Z</time><name>PT6242</name></trkpt>
<trkpt lat="53.344243" lon="-1.913395"><ele>261</ele><time>2021-10-01T13:30:26Z</time><name>PT6243</name></trkpt>
<trkpt lat="53.344228" lon="-1.913396"><ele>262</ele><time>2021-10-01T13:30:27Z</time><name>PT6244</name></trkpt>
<trkpt lat="53.344211" lon="-1.913398"><ele>262</ele><time>2021-10-01T13:30:28Z</time><name>PT6245</name></trkpt>
<trkpt lat="53.344200" lon="-1.913403"><ele>262</ele><time>2021-10-01T13:30:29Z</time><name>PT6246</name></trkpt>
<trkpt lat="53.344189" lon="-1.913406"><ele>262</ele><time>2021-10-01T13:30:30Z</time><name>PT6247</name></trkpt>
<trkpt lat="53.344178" lon="-1.913411"><ele>262</ele><time>2021-10-01T13:30:31Z</time><name>PT6248</name></trkpt>
<trkpt lat="53.344167" lon="-1.913418"><ele>262</ele><time>2021-10-01T13:30:32Z</time><name>PT6249</name></trkpt>
<trkpt lat="53.344154" lon="-1.913418"><ele>262</ele><time>2021-10-01T13:30:33Z</time><name>PT6250</name></trkpt>
<trkpt lat="53.344138" lon="-1.913419"><ele>262</ele><time>2021-10-01T13:30:34Z</time><name>PT6251</name></trkpt>
<trkpt lat="53.344120" lon="-1.913414"><ele>262</ele><time>2021-10-01T13:30:35Z</time><name>PT6252</name></trkpt>
<trkpt lat="53.344108" lon="-1.913421"><ele>261</ele><time>2021-10-01T13:30:36Z</time><name>PT6253</name></trkpt>
<trkpt lat="53.344096" lon="-1.913427"><ele>261</ele><time>2021-10-01T13:30:37Z</time><name>PT6254</name></trkpt>
<trkpt lat="53.344082" lon="-1.913431"><ele>261</ele><time>2021-10-01T13:30:38Z</time><name>PT6255</name></trkpt>
<trkpt lat="53.344060" lon="-1.913431"><ele>262</ele><time>2021-10-01T13:30:39Z</time><name>PT6256</name></trkpt>
<trkpt lat="53.344044" lon="-1.913426"><ele>262</ele><time>2021-10-01T13:30:40Z</time><name>PT6257</name></trkpt>
<trkpt lat="53.344029" lon="-1.913430"><ele>261</ele><time>2021-10-01T13:30:41Z</time><name>PT6258</name></trkpt>
<trkpt lat="53.344016" lon="-1.913426"><ele>261</ele><time>2021-10-01T13:30:42Z</time><name>PT6259</name></trkpt>
<trkpt lat="53.343999" lon="-1.913421"><ele>261</ele><time>2021-10-01T13:30:43Z</time><name>PT6260</name></trkpt>
<trkpt lat="53.343987" lon="-1.913415"><ele>261</ele><time>2021-10-01T13:30:44Z</time><name>PT6261</name></trkpt>
<trkpt lat="53.343972" lon="-1.913410"><ele>261</ele><time>2021-10-01T13:30:45Z</time><name>PT6262</name></trkpt>
<trkpt lat="53.343948" lon="-1.913395"><ele>262</ele><time>2021-10-01T13:30:46Z</time><name>PT6263</name></trkpt>
<trkpt lat="53.343931" lon="-1.913394"><ele>261</ele><time>2021-10-01T13:30:47Z</time><name>PT6264</name></trkpt>
<trkpt lat="53.343919" lon="-1.913389"><ele>262</ele><time>2021-10-01T13:30:48Z</time><name>PT6265</name></trkpt>
<trkpt lat="53.343911" lon="-1.913386"><ele>262</ele><time>2021-10-01T13:30:49Z</time><name>PT6266</name></trkpt>
<trkpt lat="53.343901" lon="-1.913384"><ele>262</ele><time>2021-10-01T13:30:50Z</time><name>PT6267</name></trkpt>
<trkpt lat="53.343893" lon="-1.913380"><ele>262</ele><time>2021-10-01T13:30:51Z</time><name>PT6268</name></trkpt>
<trkpt lat="53.343880" lon="-1.913376"><ele>262</ele><time>2021-10-01T13:30:52Z</time><name>PT6269</name></trkpt>
<trkpt lat="53.343876" lon="-1.913383"><ele>261</ele><time>2021-10-01T13:30:53Z</time><name>PT6270</name></trkpt>
<trkpt lat="53.343860" lon="-1.913378"><ele>261</ele><time>2021-10-01T13:30:54Z</time><name>PT6271</name></trkpt>
<trkpt lat="53.343858" lon="-1.913378"><ele>261</ele><time>2021-10-01T13:30:55Z</time><name>PT6272</name></trkpt>
<trkpt lat="53.343862" lon="-1.913382"><ele>260</ele><time>2021-10-01T13:30:56Z</time><name>PT6273</name></trkpt>
<trkpt lat="53.343856" lon="-1.913379"><ele>260</ele><time>2021-10-01T13:30:57Z</time><name>PT6274</name></trkpt>
<trkpt lat="53.343848" lon="-1.913375"><ele>260</ele><time>2021-10-01T13:30:58Z</time><name>PT6275</name></trkpt>
<trkpt lat="53.343838" lon="-1.913367"><ele>260</ele><time>2021-10-01T13:30:59Z</time><name>PT6276</name></trkpt>
<trkpt lat="53.343829" lon="-1.913362"><ele>260</ele><time>2021-10-01T13:31:00Z</time><name>PT6277</name></trkpt>
<trkpt lat="53.343819" lon="-1.913360"><ele>260</ele><time>2021-10-01T13:31:01Z</time><name>PT6278</name></trkpt>
<trkpt lat="53.343811" lon="-1.913362"><ele>260</ele><time>2021-10-01T13:31:02Z</time><name>PT6279</name></trkpt>
<trkpt lat="53.343802" lon="-1.913362"><ele>260</ele><time>2021-10-01T13:31:03Z</time><name>PT6280</name></trkpt>
<trkpt lat="53.343793" lon="-1.913364"><ele>260</ele><time>2021-10-01T13:31:04Z</time><name>PT6281</name></trkpt>
<trkpt lat="53.343791" lon="-1.913364"><ele>260</ele><time>2021-10-01T13:31:05Z</time><name>PT6282</name></trkpt>
<trkpt lat="53.343790" lon="-1.913365"><ele>260</ele><time>2021-10-01T13:31:06Z</time><name>PT6283</name></trkpt>
<trkpt lat="53.343784" lon="-1.913366"><ele>260</ele><time>2021-10-01T13:31:07Z</time><name>PT6284</name></trkpt>
<trkpt lat="53.343776" lon="-1.913363"><ele>260</ele><time>2021-10-01T13:31:08Z</time><name>PT6285</name></trkpt>
<trkpt lat="53.343769" lon="-1.913360"><ele>260</ele><time>2021-10-01T13:31:09Z</time><name>PT6286</name></trkpt>
<trkpt lat="53.343764" lon="-1.913356"><ele>260</ele><time>2021-10-01T13:31:10Z</time><name>PT6287</name></trkpt>
<trkpt lat="53.343760" lon="-1.913352"><ele>261</ele><time>2021-10-01T13:31:11Z</time><name>PT6288</name></trkpt>
<trkpt lat="53.343752" lon="-1.913350"><ele>260</ele><time>2021-10-01T13:31:12Z</time><name>PT6289</name></trkpt>
<trkpt lat="53.343743" lon="-1.913344"><ele>260</ele><time>2021-10-01T13:31:13Z</time><name>PT6290</name></trkpt>
<trkpt lat="53.343733" lon="-1.913337"><ele>260</ele><time>2021-10-01T13:31:14Z</time><name>PT6291</name></trkpt>
<trkpt lat="53.343726" lon="-1.913331"><ele>260</ele><time>2021-10-01T13:31:15Z</time><name>PT6292</name></trkpt>
<trkpt lat="53.343720" lon="-1.913328"><ele>260</ele><time>2021-10-01T13:31:16Z</time><name>PT6293</name></trkpt>
<trkpt lat="53.343711" lon="-1.913319"><ele>260</ele><time>2021-10-01T13:31:17Z</time><name>PT6294</name></trkpt>
<trkpt lat="53.343698" lon="-1.913314"><ele>260</ele><time>2021-10-01T13:31:18Z</time><name>PT6295</name></trkpt>
<trkpt lat="53.343689" lon="-1.913309"><ele>261</ele><time>2021-10-01T13:31:19Z</time><name>PT6296</name></trkpt>
<trkpt lat="53.343687" lon="-1.913305"><ele>261</ele><time>2021-10-01T13:31:21Z</time><name>PT6297</name></trkpt>
<trkpt lat="53.343685" lon="-1.913305"><ele>261</ele><time>2021-10-01T13:31:22Z</time><name>PT6298</name></trkpt>
<trkpt lat="53.343677" lon="-1.913307"><ele>260</ele><time>2021-10-01T13:31:23Z</time><name>PT6299</name></trkpt>
<trkpt lat="53.343669" lon="-1.913306"><ele>260</ele><time>2021-10-01T13:31:24Z</time><name>PT6300</name></trkpt>
<trkpt lat="53.343659" lon="-1.913300"><ele>261</ele><time>2021-10-01T13:31:25Z</time><name>PT6301</name></trkpt>
<trkpt lat="53.343647" lon="-1.913291"><ele>261</ele><time>2021-10-01T13:31:26Z</time><name>PT6302</name></trkpt>
<trkpt lat="53.343637" lon="-1.913285"><ele>261</ele><time>2021-10-01T13:31:27Z</time><name>PT6303</name></trkpt>
<trkpt lat="53.343619" lon="-1.913273"><ele>260</ele><time>2021-10-01T13:31:28Z</time><name>PT6304</name></trkpt>
<trkpt lat="53.343606" lon="-1.913257"><ele>260</ele><time>2021-10-01T13:31:29Z</time><name>PT6305</name></trkpt>
<trkpt lat="53.343597" lon="-1.913251"><ele>260</ele><time>2021-10-01T13:31:30Z</time><name>PT6306</name></trkpt>
<trkpt lat="53.343588" lon="-1.913245"><ele>259</ele><time>2021-10-01T13:31:31Z</time><name>PT6307</name></trkpt>
<trkpt lat="53.343563" lon="-1.913229"><ele>258</ele><time>2021-10-01T13:31:32Z</time><name>PT6308</name></trkpt>
<trkpt lat="53.343550" lon="-1.913220"><ele>257</ele><time>2021-10-01T13:31:33Z</time><name>PT6309</name></trkpt>
<trkpt lat="53.343544" lon="-1.913200"><ele>258</ele><time>2021-10-01T13:31:34Z</time><name>PT6310</name></trkpt>
<trkpt lat="53.343543" lon="-1.913199"><ele>258</ele><time>2021-10-01T13:31:35Z</time><name>PT6311</name></trkpt>
<trkpt lat="53.343541" lon="-1.913200"><ele>257</ele><time>2021-10-01T13:31:36Z</time><name>PT6312</name></trkpt>
<trkpt lat="53.343537" lon="-1.913201"><ele>257</ele><time>2021-10-01T13:31:37Z</time><name>PT6313</name></trkpt>
<trkpt lat="53.343533" lon="-1.913209"><ele>257</ele><time>2021-10-01T13:31:56Z</time><name>PT6314</name></trkpt>
<trkpt lat="53.343540" lon="-1.913213"><ele>256</ele><time>2021-10-01T13:31:57Z</time><name>PT6315</name></trkpt>
<trkpt lat="53.343550" lon="-1.913218"><ele>255</ele><time>2021-10-01T13:31:58Z</time><name>PT6316</name></trkpt>
<trkpt lat="53.343557" lon="-1.913216"><ele>255</ele><time>2021-10-01T13:31:59Z</time><name>PT6317</name></trkpt>
<trkpt lat="53.343561" lon="-1.913217"><ele>254</ele><time>2021-10-01T13:32:00Z</time><name>PT6318</name></trkpt>
<trkpt lat="53.343568" lon="-1.913220"><ele>254</ele><time>2021-10-01T13:32:01Z</time><name>PT6319</name></trkpt>
<trkpt lat="53.343572" lon="-1.913223"><ele>253</ele><time>2021-10-01T13:32:02Z</time><name>PT6320</name></trkpt>
<trkpt lat="53.343580" lon="-1.913230"><ele>254</ele><time>2021-10-01T13:32:03Z</time><name>PT6321</name></trkpt>
<trkpt lat="53.343585" lon="-1.913235"><ele>254</ele><time>2021-10-01T13:32:04Z</time><name>PT6322</name></trkpt>
<trkpt lat="53.343592" lon="-1.913238"><ele>253</ele><time>2021-10-01T13:32:05Z</time><name>PT6323</name></trkpt>
<trkpt lat="53.343605" lon="-1.913237"><ele>253</ele><time>2021-10-01T13:32:06Z</time><name>PT6324</name></trkpt>
<trkpt lat="53.343614" lon="-1.913242"><ele>253</ele><time>2021-10-01T13:32:07Z</time><name>PT6325</name></trkpt>
<trkpt lat="53.343630" lon="-1.913259"><ele>253</ele><time>2021-10-01T13:32:08Z</time><name>PT6326</name></trkpt>
<trkpt lat="53.343644" lon="-1.913275"><ele>252</ele><time>2021-10-01T13:32:09Z</time><name>PT6327</name></trkpt>
<trkpt lat="53.343647" lon="-1.913282"><ele>252</ele><time>2021-10-01T13:32:10Z</time><name>PT6328</name></trkpt>
<trkpt lat="53.343656" lon="-1.913291"><ele>252</ele><time>2021-10-01T13:32:11Z</time><name>PT6329</name></trkpt>
<trkpt lat="53.343666" lon="-1.913299"><ele>252</ele><time>2021-10-01T13:32:12Z</time><name>PT6330</name></trkpt>
<trkpt lat="53.343675" lon="-1.913306"><ele>251</ele><time>2021-10-01T13:32:13Z</time><name>PT6331</name></trkpt>
<trkpt lat="53.343686" lon="-1.913310"><ele>250</ele><time>2021-10-01T13:32:14Z</time><name>PT6332</name></trkpt>
<trkpt lat="53.343696" lon="-1.913318"><ele>250</ele><time>2021-10-01T13:32:15Z</time><name>PT6333</name></trkpt>
<trkpt lat="53.343703" lon="-1.913326"><ele>249</ele><time>2021-10-01T13:32:16Z</time><name>PT6334</name></trkpt>
<trkpt lat="53.343713" lon="-1.913332"><ele>248</ele><time>2021-10-01T13:32:17Z</time><name>PT6335</name></trkpt>
<trkpt lat="53.343723" lon="-1.913333"><ele>247</ele><time>2021-10-01T13:32:18Z</time><name>PT6336</name></trkpt>
<trkpt lat="53.343740" lon="-1.913336"><ele>248</ele><time>2021-10-01T13:32:19Z</time><name>PT6337</name></trkpt>
<trkpt lat="53.343756" lon="-1.913341"><ele>249</ele><time>2021-10-01T13:32:20Z</time><name>PT6338</name></trkpt>
<trkpt lat="53.343766" lon="-1.913346"><ele>248</ele><time>2021-10-01T13:32:21Z</time><name>PT6339</name></trkpt>
<trkpt lat="53.343775" lon="-1.913351"><ele>248</ele><time>2021-10-01T13:32:22Z</time><name>PT6340</name></trkpt>
<trkpt lat="53.343786" lon="-1.913349"><ele>248</ele><time>2021-10-01T13:32:23Z</time><name>PT6341</name></trkpt>
<trkpt lat="53.343804" lon="-1.913354"><ele>249</ele><time>2021-10-01T13:32:24Z</time><name>PT6342</name></trkpt>
<trkpt lat="53.343815" lon="-1.913365"><ele>250</ele><time>2021-10-01T13:32:25Z</time><name>PT6343</name></trkpt>
<trkpt lat="53.343829" lon="-1.913375"><ele>250</ele><time>2021-10-01T13:32:26Z</time><name>PT6344</name></trkpt>
<trkpt lat="53.343844" lon="-1.913387"><ele>251</ele><time>2021-10-01T13:32:27Z</time><name>PT6345</name></trkpt>
<trkpt lat="53.343860" lon="-1.913392"><ele>251</ele><time>2021-10-01T13:32:28Z</time><name>PT6346</name></trkpt>
<trkpt lat="53.343874" lon="-1.913396"><ele>251</ele><time>2021-10-01T13:32:29Z</time><name>PT6347</name></trkpt>
<trkpt lat="53.343891" lon="-1.913396"><ele>252</ele><time>2021-10-01T13:32:30Z</time><name>PT6348</name></trkpt>
<trkpt lat="53.343907" lon="-1.913403"><ele>253</ele><time>2021-10-01T13:32:31Z</time><name>PT6349</name></trkpt>
<trkpt lat="53.343920" lon="-1.913406"><ele>252</ele><time>2021-10-01T13:32:32Z</time><name>PT6350</name></trkpt>
<trkpt lat="53.343933" lon="-1.913410"><ele>253</ele><time>2021-10-01T13:32:33Z</time><name>PT6351</name></trkpt>
<trkpt lat="53.343944" lon="-1.913416"><ele>252</ele><time>2021-10-01T13:32:34Z</time><name>PT6352</name></trkpt>
<trkpt lat="53.343955" lon="-1.913419"><ele>252</ele><time>2021-10-01T13:32:35Z</time><name>PT6353</name></trkpt>
<trkpt lat="53.343957" lon="-1.913421"><ele>251</ele><time>2021-10-01T13:32:36Z</time><name>PT6354</name></trkpt>
<trkpt lat="53.343970" lon="-1.913423"><ele>251</ele><time>2021-10-01T13:32:37Z</time><name>PT6355</name></trkpt>
<trkpt lat="53.343983" lon="-1.913426"><ele>251</ele><time>2021-10-01T13:32:38Z</time><name>PT6356</name></trkpt>
<trkpt lat="53.343998" lon="-1.913427"><ele>250</ele><time>2021-10-01T13:32:39Z</time><name>PT6357</name></trkpt>
<trkpt lat="53.344015" lon="-1.913424"><ele>251</ele><time>2021-10-01T13:32:40Z</time><name>PT6358</name></trkpt>
<trkpt lat="53.344030" lon="-1.913427"><ele>252</ele><time>2021-10-01T13:32:41Z</time><name>PT6359</name></trkpt>
<trkpt lat="53.344042" lon="-1.913428"><ele>252</ele><time>2021-10-01T13:32:42Z</time><name>PT6360</name></trkpt>
<trkpt lat="53.344051" lon="-1.913429"><ele>252</ele><time>2021-10-01T13:32:43Z</time><name>PT6361</name></trkpt>
<trkpt lat="53.344057" lon="-1.913428"><ele>252</ele><time>2021-10-01T13:32:44Z</time><name>PT6362</name></trkpt>
<trkpt lat="53.344068" lon="-1.913429"><ele>252</ele><time>2021-10-01T13:32:45Z</time><name>PT6363</name></trkpt>
<trkpt lat="53.344080" lon="-1.913432"><ele>253</ele><time>2021-10-01T13:32:46Z</time><name>PT6364</name></trkpt>
<trkpt lat="53.344092" lon="-1.913434"><ele>253</ele><time>2021-10-01T13:32:47Z</time><name>PT6365</name></trkpt>
<trkpt lat="53.344101" lon="-1.913434"><ele>254</ele><time>2021-10-01T13:32:48Z</time><name>PT6366</name></trkpt>
<trkpt lat="53.344114" lon="-1.913432"><ele>255</ele><time>2021-10-01T13:32:49Z</time><name>PT6367</name></trkpt>
<trkpt lat="53.344130" lon="-1.913427"><ele>255</ele><time>2021-10-01T13:32:50Z</time><name>PT6368</name></trkpt>
<trkpt lat="53.344137" lon="-1.913425"><ele>255</ele><time>2021-10-01T13:32:51Z</time><name>PT6369</name></trkpt>
<trkpt lat="53.344146" lon="-1.913430"><ele>255</ele><time>2021-10-01T13:32:52Z</time><name>PT6370</name></trkpt>
<trkpt lat="53.344166" lon="-1.913430"><ele>254</ele><time>2021-10-01T13:32:53Z</time><name>PT6371</name></trkpt>
<trkpt lat="53.344172" lon="-1.913436"><ele>254</ele><time>2021-10-01T13:32:54Z</time><name>PT6372</name></trkpt>
<trkpt lat="53.344174" lon="-1.913442"><ele>254</ele><time>2021-10-01T13:32:55Z</time><name>PT6373</name></trkpt>
<trkpt lat="53.344178" lon="-1.913444"><ele>254</ele><time>2021-10-01T13:32:56Z</time><name>PT6374</name></trkpt>
<trkpt lat="53.344189" lon="-1.913451"><ele>255</ele><time>2021-10-01T13:32:57Z</time><name>PT6375</name></trkpt>
<trkpt lat="53.344189" lon="-1.913462"><ele>255</ele><time>2021-10-01T13:32:58Z</time><name>PT6376</name></trkpt>
<trkpt lat="53.344205" lon="-1.913473"><ele>255</ele><time>2021-10-01T13:32:59Z</time><name>PT6377</name></trkpt>
<trkpt lat="53.344206" lon="-1.913487"><ele>256</ele><time>2021-10-01T13:33:00Z</time><name>PT6378</name></trkpt>
<trkpt lat="53.344226" lon="-1.913495"><ele>257</ele><time>2021-10-01T13:33:01Z</time><name>PT6379</name></trkpt>
<trkpt lat="53.344235" lon="-1.913507"><ele>257</ele><time>2021-10-01T13:33:02Z</time><name>PT6380</name></trkpt>
<trkpt lat="53.344234" lon="-1.913520"><ele>256</ele><time>2021-10-01T13:33:03Z</time><name>PT6381</name></trkpt>
<trkpt lat="53.344233" lon="-1.913536"><ele>256</ele><time>2021-10-01T13:33:04Z</time><name>PT6382</name></trkpt>
<trkpt lat="53.344227" lon="-1.913554"><ele>255</ele><time>2021-10-01T13:33:05Z</time><name>PT6383</name></trkpt>
<trkpt lat="53.344228" lon="-1.913570"><ele>254</ele><time>2021-10-01T13:33:06Z</time><name>PT6384</name></trkpt>
<trkpt lat="53.344229" lon="-1.913586"><ele>254</ele><time>2021-10-01T13:33:07Z</time><name>PT6385</name></trkpt>
<trkpt lat="53.344238" lon="-1.913601"><ele>256</ele><time>2021-10-01T13:33:08Z</time><name>PT6386</name></trkpt>
<trkpt lat="53.344242" lon="-1.913617"><ele>256</ele><time>2021-10-01T13:33:09Z</time><name>PT6387</name></trkpt>
<trkpt lat="53.344244" lon="-1.913633"><ele>257</ele><time>2021-10-01T13:33:10Z</time><name>PT6388</name></trkpt>
<trkpt lat="53.344246" lon="-1.913648"><ele>257</ele><time>2021-10-01T13:33:11Z</time><name>PT6389</name></trkpt>
<trkpt lat="53.344247" lon="-1.913664"><ele>257</ele><time>2021-10-01T13:33:12Z</time><name>PT6390</name></trkpt>
<trkpt lat="53.344246" lon="-1.913682"><ele>257</ele><time>2021-10-01T13:33:13Z</time><name>PT6391</name></trkpt>
<trkpt lat="53.344243" lon="-1.913699"><ele>256</ele><time>2021-10-01T13:33:14Z</time><name>PT6392</name></trkpt>
<trkpt lat="53.344242" lon="-1.913715"><ele>257</ele><time>2021-10-01T13:33:15Z</time><name>PT6393</name></trkpt>
<trkpt lat="53.344242" lon="-1.913733"><ele>256</ele><time>2021-10-01T13:33:16Z</time><name>PT6394</name></trkpt>
<trkpt lat="53.344251" lon="-1.913762"><ele>259</ele><time>2021-10-01T13:33:17Z</time><name>PT6395</name></trkpt>
<trkpt lat="53.344252" lon="-1.913780"><ele>259</ele><time>2021-10-01T13:33:18Z</time><name>PT6396</name></trkpt>
<trkpt lat="53.344254" lon="-1.913795"><ele>259</ele><time>2021-10-01T13:33:19Z</time><name>PT6397</name></trkpt>
<trkpt lat="53.344257" lon="-1.913808"><ele>259</ele><time>2021-10-01T13:33:20Z</time><name>PT6398</name></trkpt>
<trkpt lat="53.344261" lon="-1.913825"><ele>259</ele><time>2021-10-01T13:33:21Z</time><name>PT6399</name></trkpt>
<trkpt lat="53.344265" lon="-1.913843"><ele>260</ele><time>2021-10-01T13:33:22Z</time><name>PT6400</name></trkpt>
<trkpt lat="53.344269" lon="-1.913853"><ele>260</ele><time>2021-10-01T13:33:23Z</time><name>PT6401</name></trkpt>
<trkpt lat="53.344272" lon="-1.913857"><ele>261</ele><time>2021-10-01T13:33:24Z</time><name>PT6402</name></trkpt>
<trkpt lat="53.344276" lon="-1.913866"><ele>261</ele><time>2021-10-01T13:33:25Z</time><name>PT6403</name></trkpt>
<trkpt lat="53.344281" lon="-1.913873"><ele>261</ele><time>2021-10-01T13:33:26Z</time><name>PT6404</name></trkpt>
<trkpt lat="53.344286" lon="-1.913874"><ele>261</ele><time>2021-10-01T13:33:27Z</time><name>PT6405</name></trkpt>
<trkpt lat="53.344290" lon="-1.913879"><ele>262</ele><time>2021-10-01T13:33:28Z</time><name>PT6406</name></trkpt>
<trkpt lat="53.344295" lon="-1.913878"><ele>262</ele><time>2021-10-01T13:33:29Z</time><name>PT6407</name></trkpt>
<trkpt lat="53.344304" lon="-1.913872"><ele>262</ele><time>2021-10-01T13:33:30Z</time><name>PT6408</name></trkpt>
<trkpt lat="53.344312" lon="-1.913868"><ele>262</ele><time>2021-10-01T13:33:31Z</time><name>PT6409</name></trkpt>
<trkpt lat="53.344316" lon="-1.913869"><ele>262</ele><time>2021-10-01T13:33:32Z</time><name>PT6410</name></trkpt>
<trkpt lat="53.344316" lon="-1.913868"><ele>262</ele><time>2021-10-01T13:33:33Z</time><name>PT6411</name></trkpt>
<trkpt lat="53.344319" lon="-1.913866"><ele>262</ele><time>2021-10-01T13:33:34Z</time><name>PT6412</name></trkpt>
<trkpt lat="53.344324" lon="-1.913868"><ele>262</ele><time>2021-10-01T13:33:35Z</time><name>PT6413</name></trkpt>
<trkpt lat="53.344327" lon="-1.913872"><ele>262</ele><time>2021-10-01T13:33:36Z</time><name>PT6414</name></trkpt>
<trkpt lat="53.344336" lon="-1.913880"><ele>262</ele><time>2021-10-01T13:33:37Z</time><name>PT6415</name></trkpt>
<trkpt lat="53.344343" lon="-1.913887"><ele>262</ele><time>2021-10-01T13:33:38Z</time><name>PT6416</name></trkpt>
<trkpt lat="53.344346" lon="-1.913897"><ele>263</ele><time>2021-10-01T13:33:39Z</time><name>PT6417</name></trkpt>
<trkpt lat="53.344351" lon="-1.913908"><ele>262</ele><time>2021-10-01T13:33:40Z</time><name>PT6418</name></trkpt>
<trkpt lat="53.344355" lon="-1.913922"><ele>262</ele><time>2021-10-01T13:33:41Z</time><name>PT6419</name></trkpt>
<trkpt lat="53.344361" lon="-1.913929"><ele>263</ele><time>2021-10-01T13:33:42Z</time><name>PT6420</name></trkpt>
<trkpt lat="53.344372" lon="-1.913937"><ele>264</ele><time>2021-10-01T13:33:43Z</time><name>PT6421</name></trkpt>
<trkpt lat="53.344378" lon="-1.913949"><ele>265</ele><time>2021-10-01T13:33:44Z</time><name>PT6422</name></trkpt>
<trkpt lat="53.344382" lon="-1.913963"><ele>264</ele><time>2021-10-01T13:33:45Z</time><name>PT6423</name></trkpt>
<trkpt lat="53.344381" lon="-1.913978"><ele>264</ele><time>2021-10-01T13:33:46Z</time><name>PT6424</name></trkpt>
<trkpt lat="53.344380" lon="-1.913992"><ele>265</ele><time>2021-10-01T13:33:47Z</time><name>PT6425</name></trkpt>
<trkpt lat="53.344380" lon="-1.914006"><ele>265</ele><time>2021-10-01T13:33:48Z</time><name>PT6426</name></trkpt>
<trkpt lat="53.344378" lon="-1.914019"><ele>265</ele><time>2021-10-01T13:33:49Z</time><name>PT6427</name></trkpt>
<trkpt lat="53.344377" lon="-1.914034"><ele>265</ele><time>2021-10-01T13:33:50Z</time><name>PT6428</name></trkpt>
<trkpt lat="53.344379" lon="-1.914044"><ele>265</ele><time>2021-10-01T13:33:51Z</time><name>PT6429</name></trkpt>
<trkpt lat="53.344379" lon="-1.914058"><ele>265</ele><time>2021-10-01T13:33:52Z</time><name>PT6430</name></trkpt>
<trkpt lat="53.344377" lon="-1.914071"><ele>265</ele><time>2021-10-01T13:33:53Z</time><name>PT6431</name></trkpt>
<trkpt lat="53.344374" lon="-1.914085"><ele>265</ele><time>2021-10-01T13:33:54Z</time><name>PT6432</name></trkpt>
<trkpt lat="53.344372" lon="-1.914101"><ele>265</ele><time>2021-10-01T13:33:55Z</time><name>PT6433</name></trkpt>
<trkpt lat="53.344369" lon="-1.914114"><ele>265</ele><time>2021-10-01T13:33:56Z</time><name>PT6434</name></trkpt>
<trkpt lat="53.344366" lon="-1.914129"><ele>265</ele><time>2021-10-01T13:33:57Z</time><name>PT6435</name></trkpt>
<trkpt lat="53.344368" lon="-1.914142"><ele>266</ele><time>2021-10-01T13:33:58Z</time><name>PT6436</name></trkpt>
<trkpt lat="53.344366" lon="-1.914152"><ele>266</ele><time>2021-10-01T13:33:59Z</time><name>PT6437</name></trkpt>
<trkpt lat="53.344364" lon="-1.914169"><ele>266</ele><time>2021-10-01T13:34:00Z</time><name>PT6438</name></trkpt>
<trkpt lat="53.344365" lon="-1.914183"><ele>266</ele><time>2021-10-01T13:34:01Z</time><name>PT6439</name></trkpt>
<trkpt lat="53.344366" lon="-1.914198"><ele>266</ele><time>2021-10-01T13:34:02Z</time><name>PT6440</name></trkpt>
<trkpt lat="53.344371" lon="-1.914215"><ele>267</ele><time>2021-10-01T13:34:03Z</time><name>PT6441</name></trkpt>
<trkpt lat="53.344377" lon="-1.914223"><ele>267</ele><time>2021-10-01T13:34:04Z</time><name>PT6442</name></trkpt>
<trkpt lat="53.344383" lon="-1.914233"><ele>267</ele><time>2021-10-01T13:34:05Z</time><name>PT6443</name></trkpt>
<trkpt lat="53.344390" lon="-1.914240"><ele>267</ele><time>2021-10-01T13:34:06Z</time><name>PT6444</name></trkpt>
<trkpt lat="53.344399" lon="-1.914247"><ele>267</ele><time>2021-10-01T13:34:07Z</time><name>PT6445</name></trkpt>
<trkpt lat="53.344406" lon="-1.914251"><ele>267</ele><time>2021-10-01T13:34:08Z</time><name>PT6446</name></trkpt>
<trkpt lat="53.344413" lon="-1.914258"><ele>267</ele><time>2021-10-01T13:34:09Z</time><name>PT6447</name></trkpt>
<trkpt lat="53.344419" lon="-1.914266"><ele>268</ele><time>2021-10-01T13:34:10Z</time><name>PT6448</name></trkpt>
<trkpt lat="53.344425" lon="-1.914274"><ele>268</ele><time>2021-10-01T13:34:11Z</time><name>PT6449</name></trkpt>
<trkpt lat="53.344431" lon="-1.914281"><ele>268</ele><time>2021-10-01T13:34:12Z</time><name>PT6450</name></trkpt>
<trkpt lat="53.344435" lon="-1.914285"><ele>268</ele><time>2021-10-01T13:34:13Z</time><name>PT6451</name></trkpt>
<trkpt lat="53.344441" lon="-1.914287"><ele>268</ele><time>2021-10-01T13:34:14Z</time><name>PT6452</name></trkpt>
<trkpt lat="53.344447" lon="-1.914298"><ele>268</ele><time>2021-10-01T13:34:15Z</time><name>PT6453</name></trkpt>
<trkpt lat="53.344453" lon="-1.914306"><ele>268</ele><time>2021-10-01T13:34:16Z</time><name>PT6454</name></trkpt>
<trkpt lat="53.344461" lon="-1.914310"><ele>268</ele><time>2021-10-01T13:34:17Z</time><name>PT6455</name></trkpt>
<trkpt lat="53.344467" lon="-1.914314"><ele>269</ele><time>2021-10-01T13:34:18Z</time><name>PT6456</name></trkpt>
<trkpt lat="53.344477" lon="-1.914322"><ele>269</ele><time>2021-10-01T13:34:19Z</time><name>PT6457</name></trkpt>
<trkpt lat="53.344485" lon="-1.914330"><ele>270</ele><time>2021-10-01T13:34:20Z</time><name>PT6458</name></trkpt>
<trkpt lat="53.344491" lon="-1.914342"><ele>270</ele><time>2021-10-01T13:34:21Z</time><name>PT6459</name></trkpt>
<trkpt lat="53.344498" lon="-1.914352"><ele>270</ele><time>2021-10-01T13:34:22Z</time><name>PT6460</name></trkpt>
<trkpt lat="53.344506" lon="-1.914357"><ele>270</ele><time>2021-10-01T13:34:23Z</time><name>PT6461</name></trkpt>
<trkpt lat="53.344513" lon="-1.914366"><ele>270</ele><time>2021-10-01T13:34:24Z</time><name>PT6462</name></trkpt>
<trkpt lat="53.344517" lon="-1.914378"><ele>269</ele><time>2021-10-01T13:34:25Z</time><name>PT6463</name></trkpt>
<trkpt lat="53.344527" lon="-1.914390"><ele>270</ele><time>2021-10-01T13:34:26Z</time><name>PT6464</name></trkpt>
<trkpt lat="53.344540" lon="-1.914394"><ele>271</ele><time>2021-10-01T13:34:27Z</time><name>PT6465</name></trkpt>
<trkpt lat="53.344548" lon="-1.914398"><ele>271</ele><time>2021-10-01T13:34:28Z</time><name>PT6466</name></trkpt>
<trkpt lat="53.344556" lon="-1.914410"><ele>271</ele><time>2021-10-01T13:34:29Z</time><name>PT6467</name></trkpt>
<trkpt lat="53.344564" lon="-1.914421"><ele>271</ele><time>2021-10-01T13:34:30Z</time><name>PT6468</name></trkpt>
<trkpt lat="53.344571" lon="-1.914432"><ele>272</ele><time>2021-10-01T13:34:31Z</time><name>PT6469</name></trkpt>
<trkpt lat="53.344579" lon="-1.914438"><ele>273</ele><time>2021-10-01T13:34:32Z</time><name>PT6470</name></trkpt>
<trkpt lat="53.344587" lon="-1.914442"><ele>273</ele><time>2021-10-01T13:34:33Z</time><name>PT6471</name></trkpt>
<trkpt lat="53.344593" lon="-1.914448"><ele>273</ele><time>2021-10-01T13:34:34Z</time><name>PT6472</name></trkpt>
<trkpt lat="53.344595" lon="-1.914457"><ele>273</ele><time>2021-10-01T13:34:35Z</time><name>PT6473</name></trkpt>
<trkpt lat="53.344603" lon="-1.914464"><ele>272</ele><time>2021-10-01T13:34:36Z</time><name>PT6474</name></trkpt>
<trkpt lat="53.344610" lon="-1.914473"><ele>273</ele><time>2021-10-01T13:34:37Z</time><name>PT6475</name></trkpt>
<trkpt lat="53.344616" lon="-1.914483"><ele>273</ele><time>2021-10-01T13:34:38Z</time><name>PT6476</name></trkpt>
<trkpt lat="53.344622" lon="-1.914491"><ele>273</ele><time>2021-10-01T13:34:39Z</time><name>PT6477</name></trkpt>
<trkpt lat="53.344624" lon="-1.914502"><ele>274</ele><time>2021-10-01T13:34:40Z</time><name>PT6478</name></trkpt>
<trkpt lat="53.344628" lon="-1.914510"><ele>274</ele><time>2021-10-01T13:34:41Z</time><name>PT6479</name></trkpt>
<trkpt lat="53.344632" lon="-1.914516"><ele>274</ele><time>2021-10-01T13:34:42Z</time><name>PT6480</name></trkpt>
<trkpt lat="53.344629" lon="-1.914526"><ele>272</ele><time>2021-10-01T13:34:43Z</time><name>PT6481</name></trkpt>
<trkpt lat="53.344637" lon="-1.914528"><ele>272</ele><time>2021-10-01T13:34:44Z</time><name>PT6482</name></trkpt>
<trkpt lat="53.344641" lon="-1.914524"><ele>272</ele><time>2021-10-01T13:34:45Z</time><name>PT6483</name></trkpt>
<trkpt lat="53.344643" lon="-1.914519"><ele>272</ele><time>2021-10-01T13:34:46Z</time><name>PT6484</name></trkpt>
<trkpt lat="53.344646" lon="-1.914520"><ele>273</ele><time>2021-10-01T13:34:47Z</time><name>PT6485</name></trkpt>
<trkpt lat="53.344648" lon="-1.914516"><ele>273</ele><time>2021-10-01T13:34:48Z</time><name>PT6486</name></trkpt>
<trkpt lat="53.344649" lon="-1.914528"><ele>272</ele><time>2021-10-01T13:34:51Z</time><name>PT6487</name></trkpt>
<trkpt lat="53.344653" lon="-1.914541"><ele>272</ele><time>2021-10-01T13:34:52Z</time><name>PT6488</name></trkpt>
<trkpt lat="53.344667" lon="-1.914554"><ele>272</ele><time>2021-10-01T13:34:53Z</time><name>PT6489</name></trkpt>
<trkpt lat="53.344671" lon="-1.914563"><ele>272</ele><time>2021-10-01T13:34:54Z</time><name>PT6490</name></trkpt>
<trkpt lat="53.344679" lon="-1.914561"><ele>272</ele><time>2021-10-01T13:34:55Z</time><name>PT6491</name></trkpt>
<trkpt lat="53.344684" lon="-1.914549"><ele>272</ele><time>2021-10-01T13:34:56Z</time><name>PT6492</name></trkpt>
<trkpt lat="53.344684" lon="-1.914549"><ele>272</ele><time>2021-10-01T13:34:57Z</time><name>PT6493</name></trkpt>
<trkpt lat="53.344691" lon="-1.914549"><ele>273</ele><time>2021-10-01T13:34:58Z</time><name>PT6494</name></trkpt>
<trkpt lat="53.344697" lon="-1.914545"><ele>273</ele><time>2021-10-01T13:34:59Z</time><name>PT6495</name></trkpt>
<trkpt lat="53.344700" lon="-1.914544"><ele>273</ele><time>2021-10-01T13:35:00Z</time><name>PT6496</name></trkpt>
<trkpt lat="53.344706" lon="-1.914548"><ele>273</ele><time>2021-10-01T13:35:01Z</time><name>PT6497</name></trkpt>
<trkpt lat="53.344710" lon="-1.914552"><ele>274</ele><time>2021-10-01T13:35:02Z</time><name>PT6498</name></trkpt>
<trkpt lat="53.344712" lon="-1.914558"><ele>274</ele><time>2021-10-01T13:35:03Z</time><name>PT6499</name></trkpt>
<trkpt lat="53.344715" lon="-1.914565"><ele>274</ele><time>2021-10-01T13:35:04Z</time><name>PT6500</name></trkpt>
<trkpt lat="53.344721" lon="-1.914565"><ele>274</ele><time>2021-10-01T13:35:05Z</time><name>PT6501</name></trkpt>
<trkpt lat="53.344727" lon="-1.914567"><ele>274</ele><time>2021-10-01T13:35:06Z</time><name>PT6502</name></trkpt>
<trkpt lat="53.344730" lon="-1.914566"><ele>275</ele><time>2021-10-01T13:35:07Z</time><name>PT6503</name></trkpt>
<trkpt lat="53.344735" lon="-1.914569"><ele>275</ele><time>2021-10-01T13:35:08Z</time><name>PT6504</name></trkpt>
<trkpt lat="53.344741" lon="-1.914574"><ele>275</ele><time>2021-10-01T13:35:09Z</time><name>PT6505</name></trkpt>
<trkpt lat="53.344748" lon="-1.914577"><ele>275</ele><time>2021-10-01T13:35:10Z</time><name>PT6506</name></trkpt>
<trkpt lat="53.344754" lon="-1.914582"><ele>275</ele><time>2021-10-01T13:35:11Z</time><name>PT6507</name></trkpt>
<trkpt lat="53.344760" lon="-1.914585"><ele>276</ele><time>2021-10-01T13:35:12Z</time><name>PT6508</name></trkpt>
<trkpt lat="53.344764" lon="-1.914591"><ele>276</ele><time>2021-10-01T13:35:13Z</time><name>PT6509</name></trkpt>
<trkpt lat="53.344771" lon="-1.914597"><ele>277</ele><time>2021-10-01T13:35:14Z</time><name>PT6510</name></trkpt>
<trkpt lat="53.344777" lon="-1.914601"><ele>277</ele><time>2021-10-01T13:35:15Z</time><name>PT6511</name></trkpt>
<trkpt lat="53.344783" lon="-1.914606"><ele>277</ele><time>2021-10-01T13:35:16Z</time><name>PT6512</name></trkpt>
<trkpt lat="53.344789" lon="-1.914611"><ele>277</ele><time>2021-10-01T13:35:17Z</time><name>PT6513</name></trkpt>
<trkpt lat="53.344796" lon="-1.914615"><ele>277</ele><time>2021-10-01T13:35:18Z</time><name>PT6514</name></trkpt>
<trkpt lat="53.344803" lon="-1.914619"><ele>278</ele><time>2021-10-01T13:35:19Z</time><name>PT6515</name></trkpt>
<trkpt lat="53.344810" lon="-1.914626"><ele>278</ele><time>2021-10-01T13:35:20Z</time><name>PT6516</name></trkpt>
<trkpt lat="53.344816" lon="-1.914632"><ele>278</ele><time>2021-10-01T13:35:21Z</time><name>PT6517</name></trkpt>
<trkpt lat="53.344822" lon="-1.914639"><ele>278</ele><time>2021-10-01T13:35:22Z</time><name>PT6518</name></trkpt>
<trkpt lat="53.344829" lon="-1.914647"><ele>278</ele><time>2021-10-01T13:35:23Z</time><name>PT6519</name></trkpt>
<trkpt lat="53.344834" lon="-1.914655"><ele>278</ele><time>2021-10-01T13:35:24Z</time><name>PT6520</name></trkpt>
<trkpt lat="53.344841" lon="-1.914664"><ele>278</ele><time>2021-10-01T13:35:25Z</time><name>PT6521</name></trkpt>
<trkpt lat="53.344849" lon="-1.914674"><ele>278</ele><time>2021-10-01T13:35:26Z</time><name>PT6522</name></trkpt>
<trkpt lat="53.344857" lon="-1.914682"><ele>278</ele><time>2021-10-01T13:35:27Z</time><name>PT6523</name></trkpt>
<trkpt lat="53.344864" lon="-1.914690"><ele>279</ele><time>2021-10-01T13:35:28Z</time><name>PT6524</name></trkpt>
<trkpt lat="53.344870" lon="-1.914699"><ele>279</ele><time>2021-10-01T13:35:29Z</time><name>PT6525</name></trkpt>
<trkpt lat="53.344877" lon="-1.914708"><ele>279</ele><time>2021-10-01T13:35:30Z</time><name>PT6526</name></trkpt>
<trkpt lat="53.344883" lon="-1.914713"><ele>279</ele><time>2021-10-01T13:35:31Z</time><name>PT6527</name></trkpt>
<trkpt lat="53.344890" lon="-1.914719"><ele>279</ele><time>2021-10-01T13:35:32Z</time><name>PT6528</name></trkpt>
<trkpt lat="53.344898" lon="-1.914728"><ele>279</ele><time>2021-10-01T13:35:33Z</time><name>PT6529</name></trkpt>
<trkpt lat="53.344905" lon="-1.914739"><ele>280</ele><time>2021-10-01T13:35:34Z</time><name>PT6530</name></trkpt>
<trkpt lat="53.344914" lon="-1.914746"><ele>280</ele><time>2021-10-01T13:35:35Z</time><name>PT6531</name></trkpt>
<trkpt lat="53.344922" lon="-1.914753"><ele>280</ele><time>2021-10-01T13:35:36Z</time><name>PT6532</name></trkpt>
<trkpt lat="53.344931" lon="-1.914757"><ele>280</ele><time>2021-10-01T13:35:37Z</time><name>PT6533</name></trkpt>
<trkpt lat="53.344938" lon="-1.914765"><ele>281</ele><time>2021-10-01T13:35:38Z</time><name>PT6534</name></trkpt>
<trkpt lat="53.344946" lon="-1.914774"><ele>281</ele><time>2021-10-01T13:35:39Z</time><name>PT6535</name></trkpt>
<trkpt lat="53.344953" lon="-1.914781"><ele>281</ele><time>2021-10-01T13:35:40Z</time><name>PT6536</name></trkpt>
<trkpt lat="53.344961" lon="-1.914785"><ele>282</ele><time>2021-10-01T13:35:41Z</time><name>PT6537</name></trkpt>
<trkpt lat="53.344968" lon="-1.914792"><ele>282</ele><time>2021-10-01T13:35:42Z</time><name>PT6538</name></trkpt>
<trkpt lat="53.344979" lon="-1.914801"><ele>282</ele><time>2021-10-01T13:35:43Z</time><name>PT6539</name></trkpt>
<trkpt lat="53.344993" lon="-1.914805"><ele>282</ele><time>2021-10-01T13:35:44Z</time><name>PT6540</name></trkpt>
<trkpt lat="53.345007" lon="-1.914809"><ele>282</ele><time>2021-10-01T13:35:45Z</time><name>PT6541</name></trkpt>
<trkpt lat="53.345014" lon="-1.914817"><ele>282</ele><time>2021-10-01T13:35:46Z</time><name>PT6542</name></trkpt>
<trkpt lat="53.345024" lon="-1.914822"><ele>282</ele><time>2021-10-01T13:35:47Z</time><name>PT6543</name></trkpt>
<trkpt lat="53.345030" lon="-1.914827"><ele>282</ele><time>2021-10-01T13:35:48Z</time><name>PT6544</name></trkpt>
<trkpt lat="53.345037" lon="-1.914830"><ele>283</ele><time>2021-10-01T13:35:49Z</time><name>PT6545</name></trkpt>
<trkpt lat="53.345044" lon="-1.914834"><ele>283</ele><time>2021-10-01T13:35:50Z</time><name>PT6546</name></trkpt>
<trkpt lat="53.345047" lon="-1.914840"><ele>283</ele><time>2021-10-01T13:35:51Z</time><name>PT6547</name></trkpt>
<trkpt lat="53.345052" lon="-1.914850"><ele>282</ele><time>2021-10-01T13:35:52Z</time><name>PT6548</name></trkpt>
<trkpt lat="53.345060" lon="-1.914856"><ele>283</ele><time>2021-10-01T13:35:53Z</time><name>PT6549</name></trkpt>
<trkpt lat="53.345068" lon="-1.914861"><ele>282</ele><time>2021-10-01T13:35:54Z</time><name>PT6550</name></trkpt>
<trkpt lat="53.345076" lon="-1.914869"><ele>283</ele><time>2021-10-01T13:35:55Z</time><name>PT6551</name></trkpt>
<trkpt lat="53.345084" lon="-1.914877"><ele>283</ele><time>2021-10-01T13:35:56Z</time><name>PT6552</name></trkpt>
<trkpt lat="53.345092" lon="-1.914884"><ele>284</ele><time>2021-10-01T13:35:57Z</time><name>PT6553</name></trkpt>
<trkpt lat="53.345099" lon="-1.914892"><ele>284</ele><time>2021-10-01T13:35:58Z</time><name>PT6554</name></trkpt>
<trkpt lat="53.345105" lon="-1.914902"><ele>285</ele><time>2021-10-01T13:35:59Z</time><name>PT6555</name></trkpt>
<trkpt lat="53.345111" lon="-1.914912"><ele>284</ele><time>2021-10-01T13:36:00Z</time><name>PT6556</name></trkpt>
<trkpt lat="53.345118" lon="-1.914917"><ele>285</ele><time>2021-10-01T13:36:01Z</time><name>PT6557</name></trkpt>
<trkpt lat="53.345128" lon="-1.914924"><ele>284</ele><time>2021-10-01T13:36:02Z</time><name>PT6558</name></trkpt>
<trkpt lat="53.345136" lon="-1.914933"><ele>284</ele><time>2021-10-01T13:36:03Z</time><name>PT6559</name></trkpt>
<trkpt lat="53.345143" lon="-1.914942"><ele>284</ele><time>2021-10-01T13:36:04Z</time><name>PT6560</name></trkpt>
<trkpt lat="53.345150" lon="-1.914944"><ele>284</ele><time>2021-10-01T13:36:05Z</time><name>PT6561</name></trkpt>
<trkpt lat="53.345157" lon="-1.914948"><ele>284</ele><time>2021-10-01T13:36:06Z</time><name>PT6562</name></trkpt>
<trkpt lat="53.345162" lon="-1.914957"><ele>284</ele><time>2021-10-01T13:36:07Z</time><name>PT6563</name></trkpt>
<trkpt lat="53.345167" lon="-1.914972"><ele>284</ele><time>2021-10-01T13:36:08Z</time><name>PT6564</name></trkpt>
<trkpt lat="53.345168" lon="-1.914981"><ele>285</ele><time>2021-10-01T13:36:09Z</time><name>PT6565</name></trkpt>
<trkpt lat="53.345171" lon="-1.914996"><ele>285</ele><time>2021-10-01T13:36:10Z</time><name>PT6566</name></trkpt>
<trkpt lat="53.345178" lon="-1.915011"><ele>286</ele><time>2021-10-01T13:36:11Z</time><name>PT6567</name></trkpt>
<trkpt lat="53.345185" lon="-1.915018"><ele>286</ele><time>2021-10-01T13:36:12Z</time><name>PT6568</name></trkpt>
<trkpt lat="53.345194" lon="-1.915023"><ele>286</ele><time>2021-10-01T13:36:13Z</time><name>PT6569</name></trkpt>
<trkpt lat="53.345199" lon="-1.915029"><ele>286</ele><time>2021-10-01T13:36:14Z</time><name>PT6570</name></trkpt>
<trkpt lat="53.345207" lon="-1.915035"><ele>287</ele><time>2021-10-01T13:36:15Z</time><name>PT6571</name></trkpt>
<trkpt lat="53.345214" lon="-1.915044"><ele>287</ele><time>2021-10-01T13:36:16Z</time><name>PT6572</name></trkpt>
<trkpt lat="53.345221" lon="-1.915053"><ele>287</ele><time>2021-10-01T13:36:17Z</time><name>PT6573</name></trkpt>
<trkpt lat="53.345228" lon="-1.915061"><ele>287</ele><time>2021-10-01T13:36:18Z</time><name>PT6574</name></trkpt>
<trkpt lat="53.345235" lon="-1.915068"><ele>287</ele><time>2021-10-01T13:36:19Z</time><name>PT6575</name></trkpt>
<trkpt lat="53.345243" lon="-1.915073"><ele>287</ele><time>2021-10-01T13:36:20Z</time><name>PT6576</name></trkpt>
<trkpt lat="53.345249" lon="-1.915080"><ele>287</ele><time>2021-10-01T13:36:21Z</time><name>PT6577</name></trkpt>
<trkpt lat="53.345256" lon="-1.915088"><ele>287</ele><time>2021-10-01T13:36:22Z</time><name>PT6578</name></trkpt>
<trkpt lat="53.345265" lon="-1.915095"><ele>288</ele><time>2021-10-01T13:36:23Z</time><name>PT6579</name></trkpt>
<trkpt lat="53.345273" lon="-1.915102"><ele>288</ele><time>2021-10-01T13:36:24Z</time><name>PT6580</name></trkpt>
<trkpt lat="53.345282" lon="-1.915111"><ele>288</ele><time>2021-10-01T13:36:25Z</time><name>PT6581</name></trkpt>
<trkpt lat="53.345289" lon="-1.915118"><ele>288</ele><time>2021-10-01T13:36:26Z</time><name>PT6582</name></trkpt>
<trkpt lat="53.345295" lon="-1.915128"><ele>288</ele><time>2021-10-01T13:36:27Z</time><name>PT6583</name></trkpt>
<trkpt lat="53.345302" lon="-1.915139"><ele>289</ele><time>2021-10-01T13:36:28Z</time><name>PT6584</name></trkpt>
<trkpt lat="53.345311" lon="-1.915151"><ele>289</ele><time>2021-10-01T13:36:29Z</time><name>PT6585</name></trkpt>
<trkpt lat="53.345319" lon="-1.915162"><ele>289</ele><time>2021-10-01T13:36:30Z</time><name>PT6586</name></trkpt>
<trkpt lat="53.345327" lon="-1.915174"><ele>289</ele><time>2021-10-01T13:36:31Z</time><name>PT6587</name></trkpt>
<trkpt lat="53.345336" lon="-1.915183"><ele>289</ele><time>2021-10-01T13:36:32Z</time><name>PT6588</name></trkpt>
<trkpt lat="53.345344" lon="-1.915192"><ele>289</ele><time>2021-10-01T13:36:33Z</time><name>PT6589</name></trkpt>
<trkpt lat="53.345351" lon="-1.915203"><ele>289</ele><time>2021-10-01T13:36:34Z</time><name>PT6590</name></trkpt>
<trkpt lat="53.345359" lon="-1.915214"><ele>290</ele><time>2021-10-01T13:36:35Z</time><name>PT6591</name></trkpt>
<trkpt lat="53.345368" lon="-1.915222"><ele>290</ele><time>2021-10-01T13:36:36Z</time><name>PT6592</name></trkpt>
<trkpt lat="53.345376" lon="-1.915232"><ele>290</ele><time>2021-10-01T13:36:37Z</time><name>PT6593</name></trkpt>
<trkpt lat="53.345384" lon="-1.915239"><ele>290</ele><time>2021-10-01T13:36:38Z</time><name>PT6594</name></trkpt>
<trkpt lat="53.345393" lon="-1.915247"><ele>290</ele><time>2021-10-01T13:36:39Z</time><name>PT6595</name></trkpt>
<trkpt lat="53.345403" lon="-1.915254"><ele>290</ele><time>2021-10-01T13:36:40Z</time><name>PT6596</name></trkpt>
<trkpt lat="53.345410" lon="-1.915262"><ele>290</ele><time>2021-10-01T13:36:41Z</time><name>PT6597</name></trkpt>
<trkpt lat="53.345418" lon="-1.915272"><ele>291</ele><time>2021-10-01T13:36:42Z</time><name>PT6598</name></trkpt>
<trkpt lat="53.345425" lon="-1.915280"><ele>291</ele><time>2021-10-01T13:36:43Z</time><name>PT6599</name></trkpt>
<trkpt lat="53.345431" lon="-1.915292"><ele>291</ele><time>2021-10-01T13:36:44Z</time><name>PT6600</name></trkpt>
<trkpt lat="53.345435" lon="-1.915305"><ele>291</ele><time>2021-10-01T13:36:45Z</time><name>PT6601</name></trkpt>
<trkpt lat="53.345434" lon="-1.915315"><ele>291</ele><time>2021-10-01T13:36:46Z</time><name>PT6602</name></trkpt>
<trkpt lat="53.345437" lon="-1.915323"><ele>291</ele><time>2021-10-01T13:36:47Z</time><name>PT6603</name></trkpt>
<trkpt lat="53.345436" lon="-1.915331"><ele>291</ele><time>2021-10-01T13:36:48Z</time><name>PT6604</name></trkpt>
<trkpt lat="53.345439" lon="-1.915343"><ele>291</ele><time>2021-10-01T13:36:49Z</time><name>PT6605</name></trkpt>
<trkpt lat="53.345445" lon="-1.915356"><ele>291</ele><time>2021-10-01T13:36:50Z</time><name>PT6606</name></trkpt>
<trkpt lat="53.345447" lon="-1.915369"><ele>291</ele><time>2021-10-01T13:36:51Z</time><name>PT6607</name></trkpt>
<trkpt lat="53.345452" lon="-1.915381"><ele>291</ele><time>2021-10-01T13:36:52Z</time><name>PT6608</name></trkpt>
<trkpt lat="53.345454" lon="-1.915395"><ele>292</ele><time>2021-10-01T13:36:53Z</time><name>PT6609</name></trkpt>
<trkpt lat="53.345459" lon="-1.915408"><ele>292</ele><time>2021-10-01T13:36:54Z</time><name>PT6610</name></trkpt>
<trkpt lat="53.345462" lon="-1.915427"><ele>292</ele><time>2021-10-01T13:36:55Z</time><name>PT6611</name></trkpt>
<trkpt lat="53.345464" lon="-1.915444"><ele>293</ele><time>2021-10-01T13:36:56Z</time><name>PT6612</name></trkpt>
<trkpt lat="53.345467" lon="-1.915460"><ele>293</ele><time>2021-10-01T13:36:57Z</time><name>PT6613</name></trkpt>
<trkpt lat="53.345467" lon="-1.915479"><ele>293</ele><time>2021-10-01T13:36:58Z</time><name>PT6614</name></trkpt>
<trkpt lat="53.345467" lon="-1.915499"><ele>294</ele><time>2021-10-01T13:36:59Z</time><name>PT6615</name></trkpt>
<trkpt lat="53.345469" lon="-1.915515"><ele>293</ele><time>2021-10-01T13:37:00Z</time><name>PT6616</name></trkpt>
<trkpt lat="53.345473" lon="-1.915529"><ele>294</ele><time>2021-10-01T13:37:01Z</time><name>PT6617</name></trkpt>
<trkpt lat="53.345474" lon="-1.915548"><ele>294</ele><time>2021-10-01T13:37:02Z</time><name>PT6618</name></trkpt>
<trkpt lat="53.345474" lon="-1.915567"><ele>294</ele><time>2021-10-01T13:37:03Z</time><name>PT6619</name></trkpt>
<trkpt lat="53.345475" lon="-1.915584"><ele>294</ele><time>2021-10-01T13:37:04Z</time><name>PT6620</name></trkpt>
<trkpt lat="53.345478" lon="-1.915597"><ele>294</ele><time>2021-10-01T13:37:05Z</time><name>PT6621</name></trkpt>
<trkpt lat="53.345477" lon="-1.915619"><ele>294</ele><time>2021-10-01T13:37:06Z</time><name>PT6622</name></trkpt>
<trkpt lat="53.345477" lon="-1.915637"><ele>294</ele><time>2021-10-01T13:37:07Z</time><name>PT6623</name></trkpt>
<trkpt lat="53.345478" lon="-1.915658"><ele>294</ele><time>2021-10-01T13:37:08Z</time><name>PT6624</name></trkpt>
<trkpt lat="53.345480" lon="-1.915675"><ele>294</ele><time>2021-10-01T13:37:09Z</time><name>PT6625</name></trkpt>
<trkpt lat="53.345482" lon="-1.915694"><ele>294</ele><time>2021-10-01T13:37:10Z</time><name>PT6626</name></trkpt>
<trkpt lat="53.345482" lon="-1.915711"><ele>294</ele><time>2021-10-01T13:37:11Z</time><name>PT6627</name></trkpt>
<trkpt lat="53.345481" lon="-1.915729"><ele>294</ele><time>2021-10-01T13:37:12Z</time><name>PT6628</name></trkpt>
<trkpt lat="53.345481" lon="-1.915742"><ele>294</ele><time>2021-10-01T13:37:13Z</time><name>PT6629</name></trkpt>
<trkpt lat="53.345482" lon="-1.915757"><ele>294</ele><time>2021-10-01T13:37:14Z</time><name>PT6630</name></trkpt>
<trkpt lat="53.345482" lon="-1.915771"><ele>295</ele><time>2021-10-01T13:37:15Z</time><name>PT6631</name></trkpt>
<trkpt lat="53.345484" lon="-1.915780"><ele>294</ele><time>2021-10-01T13:37:16Z</time><name>PT6632</name></trkpt>
<trkpt lat="53.345484" lon="-1.915786"><ele>294</ele><time>2021-10-01T13:37:17Z</time><name>PT6633</name></trkpt>
<trkpt lat="53.345484" lon="-1.915797"><ele>294</ele><time>2021-10-01T13:37:18Z</time><name>PT6634</name></trkpt>
<trkpt lat="53.345486" lon="-1.915808"><ele>294</ele><time>2021-10-01T13:37:19Z</time><name>PT6635</name></trkpt>
<trkpt lat="53.345489" lon="-1.915824"><ele>294</ele><time>2021-10-01T13:37:20Z</time><name>PT6636</name></trkpt>
<trkpt lat="53.345490" lon="-1.915839"><ele>294</ele><time>2021-10-01T13:37:21Z</time><name>PT6637</name></trkpt>
<trkpt lat="53.345491" lon="-1.915852"><ele>294</ele><time>2021-10-01T13:37:22Z</time><name>PT6638</name></trkpt>
<trkpt lat="53.345494" lon="-1.915858"><ele>294</ele><time>2021-10-01T13:37:23Z</time><name>PT6639</name></trkpt>
<trkpt lat="53.345493" lon="-1.915852"><ele>294</ele><time>2021-10-01T13:37:24Z</time><name>PT6640</name></trkpt>
<trkpt lat="53.345494" lon="-1.915853"><ele>294</ele><time>2021-10-01T13:37:25Z</time><name>PT6641</name></trkpt>
<trkpt lat="53.345494" lon="-1.915854"><ele>294</ele><time>2021-10-01T13:37:26Z</time><name>PT6642</name></trkpt>
<trkpt lat="53.345494" lon="-1.915857"><ele>294</ele><time>2021-10-01T13:37:27Z</time><name>PT6643</name></trkpt>
<trkpt lat="53.345494" lon="-1.915859"><ele>294</ele><time>2021-10-01T13:37:28Z</time><name>PT6644</name></trkpt>
<trkpt lat="53.345492" lon="-1.915860"><ele>294</ele><time>2021-10-01T13:37:35Z</time><name>PT6645</name></trkpt>
<trkpt lat="53.345492" lon="-1.915867"><ele>294</ele><time>2021-10-01T13:37:36Z</time><name>PT6646</name></trkpt>
<trkpt lat="53.345494" lon="-1.915882"><ele>294</ele><time>2021-10-01T13:37:37Z</time><name>PT6647</name></trkpt>
<trkpt lat="53.345495" lon="-1.915901"><ele>294</ele><time>2021-10-01T13:37:38Z</time><name>PT6648</name></trkpt>
<trkpt lat="53.345495" lon="-1.915920"><ele>294</ele><time>2021-10-01T13:37:39Z</time><name>PT6649</name></trkpt>
<trkpt lat="53.345496" lon="-1.915938"><ele>294</ele><time>2021-10-01T13:37:40Z</time><name>PT6650</name></trkpt>
<trkpt lat="53.345498" lon="-1.915955"><ele>294</ele><time>2021-10-01T13:37:41Z</time><name>PT6651</name></trkpt>
<trkpt lat="53.345500" lon="-1.915974"><ele>293</ele><time>2021-10-01T13:37:42Z</time><name>PT6652</name></trkpt>
<trkpt lat="53.345501" lon="-1.915995"><ele>293</ele><time>2021-10-01T13:37:43Z</time><name>PT6653</name></trkpt>
<trkpt lat="53.345503" lon="-1.916014"><ele>293</ele><time>2021-10-01T13:37:44Z</time><name>PT6654</name></trkpt>
<trkpt lat="53.345505" lon="-1.916033"><ele>293</ele><time>2021-10-01T13:37:45Z</time><name>PT6655</name></trkpt>
<trkpt lat="53.345509" lon="-1.916053"><ele>293</ele><time>2021-10-01T13:37:46Z</time><name>PT6656</name></trkpt>
<trkpt lat="53.345509" lon="-1.916071"><ele>293</ele><time>2021-10-01T13:37:47Z</time><name>PT6657</name></trkpt>
<trkpt lat="53.345510" lon="-1.916091"><ele>293</ele><time>2021-10-01T13:37:48Z</time><name>PT6658</name></trkpt>
<trkpt lat="53.345511" lon="-1.916111"><ele>293</ele><time>2021-10-01T13:37:49Z</time><name>PT6659</name></trkpt>
<trkpt lat="53.345512" lon="-1.916129"><ele>292</ele><time>2021-10-01T13:37:50Z</time><name>PT6660</name></trkpt>
<trkpt lat="53.345514" lon="-1.916147"><ele>292</ele><time>2021-10-01T13:37:51Z</time><name>PT6661</name></trkpt>
<trkpt lat="53.345514" lon="-1.916169"><ele>292</ele><time>2021-10-01T13:37:52Z</time><name>PT6662</name></trkpt>
<trkpt lat="53.345515" lon="-1.916186"><ele>292</ele><time>2021-10-01T13:37:53Z</time><name>PT6663</name></trkpt>
<trkpt lat="53.345514" lon="-1.916204"><ele>292</ele><time>2021-10-01T13:37:54Z</time><name>PT6664</name></trkpt>
<trkpt lat="53.345515" lon="-1.916223"><ele>291</ele><time>2021-10-01T13:37:55Z</time><name>PT6665</name></trkpt>
<trkpt lat="53.345516" lon="-1.916235"><ele>291</ele><time>2021-10-01T13:37:56Z</time><name>PT6666</name></trkpt>
<trkpt lat="53.345516" lon="-1.916249"><ele>291</ele><time>2021-10-01T13:37:57Z</time><name>PT6667</name></trkpt>
<trkpt lat="53.345514" lon="-1.916258"><ele>291</ele><time>2021-10-01T13:37:58Z</time><name>PT6668</name></trkpt>
<trkpt lat="53.345516" lon="-1.916266"><ele>291</ele><time>2021-10-01T13:37:59Z</time><name>PT6669</name></trkpt>
<trkpt lat="53.345516" lon="-1.916271"><ele>291</ele><time>2021-10-01T13:38:00Z</time><name>PT6670</name></trkpt>
<trkpt lat="53.345516" lon="-1.916273"><ele>290</ele><time>2021-10-01T13:38:01Z</time><name>PT6671</name></trkpt>
<trkpt lat="53.345517" lon="-1.916279"><ele>290</ele><time>2021-10-01T13:38:02Z</time><name>PT6672</name></trkpt>
<trkpt lat="53.345518" lon="-1.916281"><ele>290</ele><time>2021-10-01T13:38:03Z</time><name>PT6673</name></trkpt>
<trkpt lat="53.345520" lon="-1.916282"><ele>290</ele><time>2021-10-01T13:38:04Z</time><name>PT6674</name></trkpt>
<trkpt lat="53.345520" lon="-1.916281"><ele>290</ele><time>2021-10-01T13:38:05Z</time><name>PT6675</name></trkpt>
<trkpt lat="53.345521" lon="-1.916283"><ele>290</ele><time>2021-10-01T13:38:06Z</time><name>PT6676</name></trkpt>
<trkpt lat="53.345525" lon="-1.916294"><ele>290</ele><time>2021-10-01T13:38:07Z</time><name>PT6677</name></trkpt>
<trkpt lat="53.345525" lon="-1.916303"><ele>290</ele><time>2021-10-01T13:38:08Z</time><name>PT6678</name></trkpt>
<trkpt lat="53.345518" lon="-1.916304"><ele>291</ele><time>2021-10-01T13:38:11Z</time><name>PT6679</name></trkpt>
<trkpt lat="53.345515" lon="-1.916314"><ele>291</ele><time>2021-10-01T13:38:12Z</time><name>PT6680</name></trkpt>
<trkpt lat="53.345514" lon="-1.916322"><ele>291</ele><time>2021-10-01T13:38:13Z</time><name>PT6681</name></trkpt>
<trkpt lat="53.345522" lon="-1.916338"><ele>291</ele><time>2021-10-01T13:38:16Z</time><name>PT6682</name></trkpt>
<trkpt lat="53.345525" lon="-1.916360"><ele>291</ele><time>2021-10-01T13:38:17Z</time><name>PT6683</name></trkpt>
<trkpt lat="53.345527" lon="-1.916383"><ele>290</ele><time>2021-10-01T13:38:18Z</time><name>PT6684</name></trkpt>
<trkpt lat="53.345529" lon="-1.916403"><ele>290</ele><time>2021-10-01T13:38:19Z</time><name>PT6685</name></trkpt>
<trkpt lat="53.345530" lon="-1.916420"><ele>290</ele><time>2021-10-01T13:38:20Z</time><name>PT6686</name></trkpt>
<trkpt lat="53.345530" lon="-1.916435"><ele>290</ele><time>2021-10-01T13:38:21Z</time><name>PT6687</name></trkpt>
<trkpt lat="53.345530" lon="-1.916451"><ele>290</ele><time>2021-10-01T13:38:22Z</time><name>PT6688</name></trkpt>
<trkpt lat="53.345529" lon="-1.916464"><ele>290</ele><time>2021-10-01T13:38:23Z</time><name>PT6689</name></trkpt>
<trkpt lat="53.345530" lon="-1.916478"><ele>290</ele><time>2021-10-01T13:38:24Z</time><name>PT6690</name></trkpt>
<trkpt lat="53.345531" lon="-1.916495"><ele>289</ele><time>2021-10-01T13:38:25Z</time><name>PT6691</name></trkpt>
<trkpt lat="53.345532" lon="-1.916510"><ele>289</ele><time>2021-10-01T13:38:26Z</time><name>PT6692</name></trkpt>
<trkpt lat="53.345533" lon="-1.916523"><ele>289</ele><time>2021-10-01T13:38:27Z</time><name>PT6693</name></trkpt>
<trkpt lat="53.345535" lon="-1.916539"><ele>289</ele><time>2021-10-01T13:38:28Z</time><name>PT6694</name></trkpt>
<trkpt lat="53.345536" lon="-1.916553"><ele>289</ele><time>2021-10-01T13:38:29Z</time><name>PT6695</name></trkpt>
<trkpt lat="53.345537" lon="-1.916566"><ele>289</ele><time>2021-10-01T13:38:30Z</time><name>PT6696</name></trkpt>
<trkpt lat="53.345538" lon="-1.916582"><ele>289</ele><time>2021-10-01T13:38:31Z</time><name>PT6697</name></trkpt>
<trkpt lat="53.345539" lon="-1.916596"><ele>289</ele><time>2021-10-01T13:38:32Z</time><name>PT6698</name></trkpt>
<trkpt lat="53.345540" lon="-1.916612"><ele>288</ele><time>2021-10-01T13:38:33Z</time><name>PT6699</name></trkpt>
<trkpt lat="53.345541" lon="-1.916627"><ele>288</ele><time>2021-10-01T13:38:34Z</time><name>PT6700</name></trkpt>
<trkpt lat="53.345541" lon="-1.916642"><ele>288</ele><time>2021-10-01T13:38:35Z</time><name>PT6701</name></trkpt>
<trkpt lat="53.345543" lon="-1.916659"><ele>288</ele><time>2021-10-01T13:38:36Z</time><name>PT6702</name></trkpt>
<trkpt lat="53.345545" lon="-1.916675"><ele>288</ele><time>2021-10-01T13:38:37Z</time><name>PT6703</name></trkpt>
<trkpt lat="53.345547" lon="-1.916689"><ele>288</ele><time>2021-10-01T13:38:38Z</time><name>PT6704</name></trkpt>
<trkpt lat="53.345548" lon="-1.916703"><ele>287</ele><time>2021-10-01T13:38:39Z</time><name>PT6705</name></trkpt>
<trkpt lat="53.345548" lon="-1.916718"><ele>287</ele><time>2021-10-01T13:38:40Z</time><name>PT6706</name></trkpt>
<trkpt lat="53.345549" lon="-1.916733"><ele>287</ele><time>2021-10-01T13:38:41Z</time><name>PT6707</name></trkpt>
<trkpt lat="53.345549" lon="-1.916747"><ele>287</ele><time>2021-10-01T13:38:42Z</time><name>PT6708</name></trkpt>
<trkpt lat="53.345550" lon="-1.916763"><ele>287</ele><time>2021-10-01T13:38:43Z</time><name>PT6709</name></trkpt>
<trkpt lat="53.345552" lon="-1.916780"><ele>286</ele><time>2021-10-01T13:38:44Z</time><name>PT6710</name></trkpt>
<trkpt lat="53.345552" lon="-1.916796"><ele>286</ele><time>2021-10-01T13:38:45Z</time><name>PT6711</name></trkpt>
<trkpt lat="53.345554" lon="-1.916813"><ele>286</ele><time>2021-10-01T13:38:46Z</time><name>PT6712</name></trkpt>
<trkpt lat="53.345554" lon="-1.916831"><ele>286</ele><time>2021-10-01T13:38:47Z</time><name>PT6713</name></trkpt>
<trkpt lat="53.345555" lon="-1.916846"><ele>286</ele><time>2021-10-01T13:38:48Z</time><name>PT6714</name></trkpt>
<trkpt lat="53.345557" lon="-1.916861"><ele>286</ele><time>2021-10-01T13:38:49Z</time><name>PT6715</name></trkpt>
<trkpt lat="53.345559" lon="-1.916878"><ele>285</ele><time>2021-10-01T13:38:50Z</time><name>PT6716</name></trkpt>
<trkpt lat="53.345561" lon="-1.916894"><ele>285</ele><time>2021-10-01T13:38:51Z</time><name>PT6717</name></trkpt>
<trkpt lat="53.345561" lon="-1.916910"><ele>285</ele><time>2021-10-01T13:38:52Z</time><name>PT6718</name></trkpt>
<trkpt lat="53.345561" lon="-1.916928"><ele>285</ele><time>2021-10-01T13:38:53Z</time><name>PT6719</name></trkpt>
<trkpt lat="53.345562" lon="-1.916945"><ele>284</ele><time>2021-10-01T13:38:54Z</time><name>PT6720</name></trkpt>
<trkpt lat="53.345563" lon="-1.916960"><ele>284</ele><time>2021-10-01T13:38:55Z</time><name>PT6721</name></trkpt>
<trkpt lat="53.345565" lon="-1.916976"><ele>284</ele><time>2021-10-01T13:38:56Z</time><name>PT6722</name></trkpt>
<trkpt lat="53.345566" lon="-1.916995"><ele>284</ele><time>2021-10-01T13:38:57Z</time><name>PT6723</name></trkpt>
<trkpt lat="53.345569" lon="-1.917012"><ele>283</ele><time>2021-10-01T13:38:58Z</time><name>PT6724</name></trkpt>
<trkpt lat="53.345571" lon="-1.917027"><ele>283</ele><time>2021-10-01T13:38:59Z</time><name>PT6725</name></trkpt>
<trkpt lat="53.345572" lon="-1.917043"><ele>283</ele><time>2021-10-01T13:39:00Z</time><name>PT6726</name></trkpt>
<trkpt lat="53.345573" lon="-1.917059"><ele>283</ele><time>2021-10-01T13:39:01Z</time><name>PT6727</name></trkpt>
<trkpt lat="53.345575" lon="-1.917074"><ele>282</ele><time>2021-10-01T13:39:02Z</time><name>PT6728</name></trkpt>
<trkpt lat="53.345578" lon="-1.917088"><ele>282</ele><time>2021-10-01T13:39:03Z</time><name>PT6729</name></trkpt>
<trkpt lat="53.345581" lon="-1.917104"><ele>282</ele><time>2021-10-01T13:39:04Z</time><name>PT6730</name></trkpt>
<trkpt lat="53.345583" lon="-1.917121"><ele>282</ele><time>2021-10-01T13:39:05Z</time><name>PT6731</name></trkpt>
<trkpt lat="53.345584" lon="-1.917139"><ele>281</ele><time>2021-10-01T13:39:06Z</time><name>PT6732</name></trkpt>
<trkpt lat="53.345586" lon="-1.917155"><ele>281</ele><time>2021-10-01T13:39:07Z</time><name>PT6733</name></trkpt>
<trkpt lat="53.345587" lon="-1.917172"><ele>281</ele><time>2021-10-01T13:39:08Z</time><name>PT6734</name></trkpt>
<trkpt lat="53.345589" lon="-1.917188"><ele>281</ele><time>2021-10-01T13:39:09Z</time><name>PT6735</name></trkpt>
<trkpt lat="53.345590" lon="-1.917206"><ele>280</ele><time>2021-10-01T13:39:10Z</time><name>PT6736</name></trkpt>
<trkpt lat="53.345591" lon="-1.917221"><ele>280</ele><time>2021-10-01T13:39:11Z</time><name>PT6737</name></trkpt>
<trkpt lat="53.345591" lon="-1.917236"><ele>280</ele><time>2021-10-01T13:39:12Z</time><name>PT6738</name></trkpt>
<trkpt lat="53.345591" lon="-1.917252"><ele>280</ele><time>2021-10-01T13:39:13Z</time><name>PT6739</name></trkpt>
<trkpt lat="53.345593" lon="-1.917270"><ele>279</ele><time>2021-10-01T13:39:14Z</time><name>PT6740</name></trkpt>
<trkpt lat="53.345596" lon="-1.917288"><ele>279</ele><time>2021-10-01T13:39:15Z</time><name>PT6741</name></trkpt>
<trkpt lat="53.345597" lon="-1.917304"><ele>279</ele><time>2021-10-01T13:39:16Z</time><name>PT6742</name></trkpt>
<trkpt lat="53.345599" lon="-1.917321"><ele>279</ele><time>2021-10-01T13:39:17Z</time><name>PT6743</name></trkpt>
<trkpt lat="53.345600" lon="-1.917340"><ele>278</ele><time>2021-10-01T13:39:18Z</time><name>PT6744</name></trkpt>
<trkpt lat="53.345602" lon="-1.917358"><ele>278</ele><time>2021-10-01T13:39:19Z</time><name>PT6745</name></trkpt>
<trkpt lat="53.345604" lon="-1.917374"><ele>278</ele><time>2021-10-01T13:39:20Z</time><name>PT6746</name></trkpt>
<trkpt lat="53.345606" lon="-1.917390"><ele>278</ele><time>2021-10-01T13:39:21Z</time><name>PT6747</name></trkpt>
<trkpt lat="53.345608" lon="-1.917405"><ele>277</ele><time>2021-10-01T13:39:22Z</time><name>PT6748</name></trkpt>
<trkpt lat="53.345609" lon="-1.917422"><ele>277</ele><time>2021-10-01T13:39:23Z</time><name>PT6749</name></trkpt>
<trkpt lat="53.345609" lon="-1.917439"><ele>277</ele><time>2021-10-01T13:39:24Z</time><name>PT6750</name></trkpt>
<trkpt lat="53.345610" lon="-1.917459"><ele>277</ele><time>2021-10-01T13:39:25Z</time><name>PT6751</name></trkpt>
<trkpt lat="53.345611" lon="-1.917475"><ele>276</ele><time>2021-10-01T13:39:26Z</time><name>PT6752</name></trkpt>
<trkpt lat="53.345613" lon="-1.917490"><ele>276</ele><time>2021-10-01T13:39:27Z</time><name>PT6753</name></trkpt>
<trkpt lat="53.345614" lon="-1.917505"><ele>276</ele><time>2021-10-01T13:39:28Z</time><name>PT6754</name></trkpt>
<trkpt lat="53.345616" lon="-1.917523"><ele>276</ele><time>2021-10-01T13:39:29Z</time><name>PT6755</name></trkpt>
<trkpt lat="53.345618" lon="-1.917542"><ele>275</ele><time>2021-10-01T13:39:30Z</time><name>PT6756</name></trkpt>
<trkpt lat="53.345619" lon="-1.917559"><ele>275</ele><time>2021-10-01T13:39:31Z</time><name>PT6757</name></trkpt>
<trkpt lat="53.345621" lon="-1.917576"><ele>275</ele><time>2021-10-01T13:39:32Z</time><name>PT6758</name></trkpt>
<trkpt lat="53.345623" lon="-1.917595"><ele>275</ele><time>2021-10-01T13:39:33Z</time><name>PT6759</name></trkpt>
<trkpt lat="53.345625" lon="-1.917612"><ele>274</ele><time>2021-10-01T13:39:34Z</time><name>PT6760</name></trkpt>
<trkpt lat="53.345627" lon="-1.917625"><ele>274</ele><time>2021-10-01T13:39:35Z</time><name>PT6761</name></trkpt>
<trkpt lat="53.345627" lon="-1.917641"><ele>274</ele><time>2021-10-01T13:39:36Z</time><name>PT6762</name></trkpt>
<trkpt lat="53.345629" lon="-1.917658"><ele>274</ele><time>2021-10-01T13:39:37Z</time><name>PT6763</name></trkpt>
<trkpt lat="53.345630" lon="-1.917672"><ele>273</ele><time>2021-10-01T13:39:38Z</time><name>PT6764</name></trkpt>
<trkpt lat="53.345630" lon="-1.917687"><ele>273</ele><time>2021-10-01T13:39:39Z</time><name>PT6765</name></trkpt>
<trkpt lat="53.345629" lon="-1.917705"><ele>273</ele><time>2021-10-01T13:39:40Z</time><name>PT6766</name></trkpt>
<trkpt lat="53.345630" lon="-1.917724"><ele>273</ele><time>2021-10-01T13:39:41Z</time><name>PT6767</name></trkpt>
<trkpt lat="53.345631" lon="-1.917740"><ele>273</ele><time>2021-10-01T13:39:42Z</time><name>PT6768</name></trkpt>
<trkpt lat="53.345632" lon="-1.917755"><ele>273</ele><time>2021-10-01T13:39:43Z</time><name>PT6769</name></trkpt>
<trkpt lat="53.345633" lon="-1.917770"><ele>272</ele><time>2021-10-01T13:39:44Z</time><name>PT6770</name></trkpt>
<trkpt lat="53.345634" lon="-1.917792"><ele>272</ele><time>2021-10-01T13:39:45Z</time><name>PT6771</name></trkpt>
<trkpt lat="53.345636" lon="-1.917813"><ele>271</ele><time>2021-10-01T13:39:46Z</time><name>PT6772</name></trkpt>
<trkpt lat="53.345636" lon="-1.917831"><ele>271</ele><time>2021-10-01T13:39:47Z</time><name>PT6773</name></trkpt>
<trkpt lat="53.345634" lon="-1.917849"><ele>270</ele><time>2021-10-01T13:39:48Z</time><name>PT6774</name></trkpt>
<trkpt lat="53.345635" lon="-1.917870"><ele>270</ele><time>2021-10-01T13:39:49Z</time><name>PT6775</name></trkpt>
<trkpt lat="53.345637" lon="-1.917891"><ele>270</ele><time>2021-10-01T13:39:50Z</time><name>PT6776</name></trkpt>
<trkpt lat="53.345638" lon="-1.917908"><ele>269</ele><time>2021-10-01T13:39:51Z</time><name>PT6777</name></trkpt>
<trkpt lat="53.345639" lon="-1.917930"><ele>269</ele><time>2021-10-01T13:39:52Z</time><name>PT6778</name></trkpt>
<trkpt lat="53.345640" lon="-1.917949"><ele>269</ele><time>2021-10-01T13:39:53Z</time><name>PT6779</name></trkpt>
<trkpt lat="53.345643" lon="-1.917972"><ele>269</ele><time>2021-10-01T13:39:54Z</time><name>PT6780</name></trkpt>
<trkpt lat="53.345646" lon="-1.917993"><ele>268</ele><time>2021-10-01T13:39:55Z</time><name>PT6781</name></trkpt>
<trkpt lat="53.345647" lon="-1.918011"><ele>268</ele><time>2021-10-01T13:39:56Z</time><name>PT6782</name></trkpt>
<trkpt lat="53.345648" lon="-1.918029"><ele>268</ele><time>2021-10-01T13:39:57Z</time><name>PT6783</name></trkpt>
<trkpt lat="53.345647" lon="-1.918051"><ele>268</ele><time>2021-10-01T13:39:58Z</time><name>PT6784</name></trkpt>
<trkpt lat="53.345648" lon="-1.918072"><ele>267</ele><time>2021-10-01T13:39:59Z</time><name>PT6785</name></trkpt>
<trkpt lat="53.345649" lon="-1.918086"><ele>267</ele><time>2021-10-01T13:40:00Z</time><name>PT6786</name></trkpt>
<trkpt lat="53.345653" lon="-1.918104"><ele>267</ele><time>2021-10-01T13:40:01Z</time><name>PT6787</name></trkpt>
<trkpt lat="53.345656" lon="-1.918129"><ele>267</ele><time>2021-10-01T13:40:02Z</time><name>PT6788</name></trkpt>
<trkpt lat="53.345656" lon="-1.918148"><ele>267</ele><time>2021-10-01T13:40:03Z</time><name>PT6789</name></trkpt>
<trkpt lat="53.345658" lon="-1.918167"><ele>267</ele><time>2021-10-01T13:40:04Z</time><name>PT6790</name></trkpt>
<trkpt lat="53.345658" lon="-1.918185"><ele>267</ele><time>2021-10-01T13:40:05Z</time><name>PT6791</name></trkpt>
<trkpt lat="53.345659" lon="-1.918204"><ele>267</ele><time>2021-10-01T13:40:06Z</time><name>PT6792</name></trkpt>
<trkpt lat="53.345662" lon="-1.918220"><ele>266</ele><time>2021-10-01T13:40:07Z</time><name>PT6793</name></trkpt>
<trkpt lat="53.345664" lon="-1.918235"><ele>266</ele><time>2021-10-01T13:40:08Z</time><name>PT6794</name></trkpt>
<trkpt lat="53.345666" lon="-1.918258"><ele>266</ele><time>2021-10-01T13:40:09Z</time><name>PT6795</name></trkpt>
<trkpt lat="53.345669" lon="-1.918278"><ele>266</ele><time>2021-10-01T13:40:10Z</time><name>PT6796</name></trkpt>
<trkpt lat="53.345669" lon="-1.918295"><ele>266</ele><time>2021-10-01T13:40:11Z</time><name>PT6797</name></trkpt>
<trkpt lat="53.345670" lon="-1.918313"><ele>266</ele><time>2021-10-01T13:40:12Z</time><name>PT6798</name></trkpt>
<trkpt lat="53.345671" lon="-1.918330"><ele>266</ele><time>2021-10-01T13:40:13Z</time><name>PT6799</name></trkpt>
<trkpt lat="53.345671" lon="-1.918348"><ele>265</ele><time>2021-10-01T13:40:14Z</time><name>PT6800</name></trkpt>
<trkpt lat="53.345671" lon="-1.918358"><ele>265</ele><time>2021-10-01T13:40:15Z</time><name>PT6801</name></trkpt>
<trkpt lat="53.345671" lon="-1.918368"><ele>265</ele><time>2021-10-01T13:40:16Z</time><name>PT6802</name></trkpt>
<trkpt lat="53.345671" lon="-1.918373"><ele>266</ele><time>2021-10-01T13:40:17Z</time><name>PT6803</name></trkpt>
<trkpt lat="53.345670" lon="-1.918373"><ele>265</ele><time>2021-10-01T13:40:18Z</time><name>PT6804</name></trkpt>
<trkpt lat="53.345669" lon="-1.918376"><ele>265</ele><time>2021-10-01T13:40:19Z</time><name>PT6805</name></trkpt>
<trkpt lat="53.345669" lon="-1.918379"><ele>265</ele><time>2021-10-01T13:40:20Z</time><name>PT6806</name></trkpt>
<trkpt lat="53.345668" lon="-1.918383"><ele>265</ele><time>2021-10-01T13:40:21Z</time><name>PT6807</name></trkpt>
<trkpt lat="53.345662" lon="-1.918380"><ele>265</ele><time>2021-10-01T13:40:23Z</time><name>PT6808</name></trkpt>
<trkpt lat="53.345662" lon="-1.918386"><ele>264</ele><time>2021-10-01T13:40:24Z</time><name>PT6809</name></trkpt>
<trkpt lat="53.345661" lon="-1.918393"><ele>264</ele><time>2021-10-01T13:40:25Z</time><name>PT6810</name></trkpt>
<trkpt lat="53.345661" lon="-1.918400"><ele>264</ele><time>2021-10-01T13:40:26Z</time><name>PT6811</name></trkpt>
<trkpt lat="53.345661" lon="-1.918407"><ele>264</ele><time>2021-10-01T13:40:27Z</time><name>PT6812</name></trkpt>
<trkpt lat="53.345659" lon="-1.918422"><ele>264</ele><time>2021-10-01T13:40:28Z</time><name>PT6813</name></trkpt>
<trkpt lat="53.345654" lon="-1.918427"><ele>264</ele><time>2021-10-01T13:40:29Z</time><name>PT6814</name></trkpt>
<trkpt lat="53.345646" lon="-1.918428"><ele>264</ele><time>2021-10-01T13:40:30Z</time><name>PT6815</name></trkpt>
<trkpt lat="53.345647" lon="-1.918437"><ele>265</ele><time>2021-10-01T13:40:31Z</time><name>PT6816</name></trkpt>
<trkpt lat="53.345647" lon="-1.918436"><ele>264</ele><time>2021-10-01T13:40:33Z</time><name>PT6817</name></trkpt>
<trkpt lat="53.345651" lon="-1.918423"><ele>263</ele><time>2021-10-01T13:40:34Z</time><name>PT6818</name></trkpt>
<trkpt lat="53.345636" lon="-1.918416"><ele>264</ele><time>2021-10-01T13:41:17Z</time><name>PT6819</name></trkpt>
<trkpt lat="53.345620" lon="-1.918412"><ele>264</ele><time>2021-10-01T13:41:18Z</time><name>PT6820</name></trkpt>
<trkpt lat="53.345609" lon="-1.918405"><ele>264</ele><time>2021-10-01T13:41:19Z</time><name>PT6821</name></trkpt>
<trkpt lat="53.345597" lon="-1.918399"><ele>264</ele><time>2021-10-01T13:41:20Z</time><name>PT6822</name></trkpt>
<trkpt lat="53.345587" lon="-1.918394"><ele>264</ele><time>2021-10-01T13:41:21Z</time><name>PT6823</name></trkpt>
<trkpt lat="53.345575" lon="-1.918391"><ele>264</ele><time>2021-10-01T13:41:22Z</time><name>PT6824</name></trkpt>
<trkpt lat="53.345563" lon="-1.918386"><ele>263</ele><time>2021-10-01T13:41:23Z</time><name>PT6825</name></trkpt>
<trkpt lat="53.345553" lon="-1.918384"><ele>264</ele><time>2021-10-01T13:41:24Z</time><name>PT6826</name></trkpt>
<trkpt lat="53.345542" lon="-1.918382"><ele>264</ele><time>2021-10-01T13:41:25Z</time><name>PT6827</name></trkpt>
<trkpt lat="53.345532" lon="-1.918379"><ele>264</ele><time>2021-10-01T13:41:26Z</time><name>PT6828</name></trkpt>
<trkpt lat="53.345520" lon="-1.918374"><ele>264</ele><time>2021-10-01T13:41:27Z</time><name>PT6829</name></trkpt>
<trkpt lat="53.345509" lon="-1.918371"><ele>264</ele><time>2021-10-01T13:41:28Z</time><name>PT6830</name></trkpt>
<trkpt lat="53.345497" lon="-1.918368"><ele>264</ele><time>2021-10-01T13:41:29Z</time><name>PT6831</name></trkpt>
<trkpt lat="53.345484" lon="-1.918365"><ele>264</ele><time>2021-10-01T13:41:30Z</time><name>PT6832</name></trkpt>
<trkpt lat="53.345474" lon="-1.918363"><ele>264</ele><time>2021-10-01T13:41:31Z</time><name>PT6833</name></trkpt>
<trkpt lat="53.345461" lon="-1.918361"><ele>264</ele><time>2021-10-01T13:41:32Z</time><name>PT6834</name></trkpt>
<trkpt lat="53.345449" lon="-1.918356"><ele>264</ele><time>2021-10-01T13:41:33Z</time><name>PT6835</name></trkpt>
<trkpt lat="53.345438" lon="-1.918352"><ele>264</ele><time>2021-10-01T13:41:34Z</time><name>PT6836</name></trkpt>
<trkpt lat="53.345426" lon="-1.918347"><ele>263</ele><time>2021-10-01T13:41:35Z</time><name>PT6837</name></trkpt>
<trkpt lat="53.345415" lon="-1.918342"><ele>264</ele><time>2021-10-01T13:41:36Z</time><name>PT6838</name></trkpt>
<trkpt lat="53.345405" lon="-1.918340"><ele>263</ele><time>2021-10-01T13:41:37Z</time><name>PT6839</name></trkpt>
<trkpt lat="53.345393" lon="-1.918339"><ele>263</ele><time>2021-10-01T13:41:38Z</time><name>PT6840</name></trkpt>
<trkpt lat="53.345379" lon="-1.918338"><ele>262</ele><time>2021-10-01T13:41:39Z</time><name>PT6841</name></trkpt>
<trkpt lat="53.345368" lon="-1.918333"><ele>262</ele><time>2021-10-01T13:41:40Z</time><name>PT6842</name></trkpt>
<trkpt lat="53.345357" lon="-1.918327"><ele>262</ele><time>2021-10-01T13:41:41Z</time><name>PT6843</name></trkpt>
<trkpt lat="53.345342" lon="-1.918322"><ele>262</ele><time>2021-10-01T13:41:42Z</time><name>PT6844</name></trkpt>
<trkpt lat="53.345332" lon="-1.918320"><ele>262</ele><time>2021-10-01T13:41:43Z</time><name>PT6845</name></trkpt>
<trkpt lat="53.345321" lon="-1.918316"><ele>262</ele><time>2021-10-01T13:41:44Z</time><name>PT6846</name></trkpt>
<trkpt lat="53.345309" lon="-1.918310"><ele>262</ele><time>2021-10-01T13:41:45Z</time><name>PT6847</name></trkpt>
<trkpt lat="53.345297" lon="-1.918304"><ele>262</ele><time>2021-10-01T13:41:46Z</time><name>PT6848</name></trkpt>
<trkpt lat="53.345285" lon="-1.918298"><ele>262</ele><time>2021-10-01T13:41:47Z</time><name>PT6849</name></trkpt>
<trkpt lat="53.345273" lon="-1.918292"><ele>262</ele><time>2021-10-01T13:41:48Z</time><name>PT6850</name></trkpt>
<trkpt lat="53.345266" lon="-1.918289"><ele>262</ele><time>2021-10-01T13:41:49Z</time><name>PT6851</name></trkpt>
<trkpt lat="53.345258" lon="-1.918284"><ele>263</ele><time>2021-10-01T13:41:50Z</time><name>PT6852</name></trkpt>
<trkpt lat="53.345245" lon="-1.918279"><ele>263</ele><time>2021-10-01T13:41:51Z</time><name>PT6853</name></trkpt>
<trkpt lat="53.345233" lon="-1.918275"><ele>263</ele><time>2021-10-01T13:41:52Z</time><name>PT6854</name></trkpt>
<trkpt lat="53.345223" lon="-1.918269"><ele>262</ele><time>2021-10-01T13:41:53Z</time><name>PT6855</name></trkpt>
<trkpt lat="53.345211" lon="-1.918263"><ele>262</ele><time>2021-10-01T13:41:54Z</time><name>PT6856</name></trkpt>
<trkpt lat="53.345199" lon="-1.918255"><ele>263</ele><time>2021-10-01T13:41:55Z</time><name>PT6857</name></trkpt>
<trkpt lat="53.345187" lon="-1.918251"><ele>263</ele><time>2021-10-01T13:41:56Z</time><name>PT6858</name></trkpt>
<trkpt lat="53.345176" lon="-1.918248"><ele>263</ele><time>2021-10-01T13:41:57Z</time><name>PT6859</name></trkpt>
<trkpt lat="53.345163" lon="-1.918245"><ele>263</ele><time>2021-10-01T13:41:58Z</time><name>PT6860</name></trkpt>
<trkpt lat="53.345152" lon="-1.918240"><ele>263</ele><time>2021-10-01T13:41:59Z</time><name>PT6861</name></trkpt>
<trkpt lat="53.345141" lon="-1.918236"><ele>263</ele><time>2021-10-01T13:42:00Z</time><name>PT6862</name></trkpt>
<trkpt lat="53.345129" lon="-1.918230"><ele>263</ele><time>2021-10-01T13:42:01Z</time><name>PT6863</name></trkpt>
<trkpt lat="53.345118" lon="-1.918223"><ele>263</ele><time>2021-10-01T13:42:02Z</time><name>PT6864</name></trkpt>
<trkpt lat="53.345109" lon="-1.918221"><ele>263</ele><time>2021-10-01T13:42:03Z</time><name>PT6865</name></trkpt>
<trkpt lat="53.345097" lon="-1.918218"><ele>263</ele><time>2021-10-01T13:42:04Z</time><name>PT6866</name></trkpt>
<trkpt lat="53.345081" lon="-1.918215"><ele>264</ele><time>2021-10-01T13:42:05Z</time><name>PT6867</name></trkpt>
<trkpt lat="53.345068" lon="-1.918209"><ele>264</ele><time>2021-10-01T13:42:06Z</time><name>PT6868</name></trkpt>
<trkpt lat="53.345057" lon="-1.918204"><ele>264</ele><time>2021-10-01T13:42:07Z</time><name>PT6869</name></trkpt>
<trkpt lat="53.345043" lon="-1.918199"><ele>264</ele><time>2021-10-01T13:42:08Z</time><name>PT6870</name></trkpt>
<trkpt lat="53.345029" lon="-1.918196"><ele>264</ele><time>2021-10-01T13:42:09Z</time><name>PT6871</name></trkpt>
<trkpt lat="53.345017" lon="-1.918192"><ele>265</ele><time>2021-10-01T13:42:10Z</time><name>PT6872</name></trkpt>
<trkpt lat="53.345003" lon="-1.918190"><ele>265</ele><time>2021-10-01T13:42:11Z</time><name>PT6873</name></trkpt>
<trkpt lat="53.344989" lon="-1.918185"><ele>265</ele><time>2021-10-01T13:42:12Z</time><name>PT6874</name></trkpt>
<trkpt lat="53.344977" lon="-1.918181"><ele>265</ele><time>2021-10-01T13:42:13Z</time><name>PT6875</name></trkpt>
<trkpt lat="53.344965" lon="-1.918177"><ele>265</ele><time>2021-10-01T13:42:14Z</time><name>PT6876</name></trkpt>
<trkpt lat="53.344953" lon="-1.918172"><ele>265</ele><time>2021-10-01T13:42:15Z</time><name>PT6877</name></trkpt>
<trkpt lat="53.344941" lon="-1.918165"><ele>265</ele><time>2021-10-01T13:42:16Z</time><name>PT6878</name></trkpt>
<trkpt lat="53.344929" lon="-1.918162"><ele>265</ele><time>2021-10-01T13:42:17Z</time><name>PT6879</name></trkpt>
<trkpt lat="53.344917" lon="-1.918159"><ele>265</ele><time>2021-10-01T13:42:18Z</time><name>PT6880</name></trkpt>
<trkpt lat="53.344902" lon="-1.918155"><ele>265</ele><time>2021-10-01T13:42:19Z</time><name>PT6881</name></trkpt>
<trkpt lat="53.344889" lon="-1.918153"><ele>265</ele><time>2021-10-01T13:42:20Z</time><name>PT6882</name></trkpt>
<trkpt lat="53.344877" lon="-1.918147"><ele>265</ele><time>2021-10-01T13:42:21Z</time><name>PT6883</name></trkpt>
<trkpt lat="53.344859" lon="-1.918139"><ele>266</ele><time>2021-10-01T13:42:22Z</time><name>PT6884</name></trkpt>
<trkpt lat="53.344844" lon="-1.918136"><ele>266</ele><time>2021-10-01T13:42:23Z</time><name>PT6885</name></trkpt>
<trkpt lat="53.344833" lon="-1.918134"><ele>265</ele><time>2021-10-01T13:42:24Z</time><name>PT6886</name></trkpt>
<trkpt lat="53.344820" lon="-1.918133"><ele>266</ele><time>2021-10-01T13:42:25Z</time><name>PT6887</name></trkpt>
<trkpt lat="53.344807" lon="-1.918132"><ele>265</ele><time>2021-10-01T13:42:26Z</time><name>PT6888</name></trkpt>
<trkpt lat="53.344793" lon="-1.918130"><ele>264</ele><time>2021-10-01T13:42:27Z</time><name>PT6889</name></trkpt>
<trkpt lat="53.344783" lon="-1.918124"><ele>264</ele><time>2021-10-01T13:42:28Z</time><name>PT6890</name></trkpt>
<trkpt lat="53.344770" lon="-1.918119"><ele>264</ele><time>2021-10-01T13:42:29Z</time><name>PT6891</name></trkpt>
<trkpt lat="53.344729" lon="-1.918116"><ele>263</ele><time>2021-10-01T13:42:32Z</time><name>PT6892</name></trkpt>
<trkpt lat="53.344693" lon="-1.918103"><ele>263</ele><time>2021-10-01T13:42:35Z</time><name>PT6893</name></trkpt>
<trkpt lat="53.344659" lon="-1.918087"><ele>262</ele><time>2021-10-01T13:42:38Z</time><name>PT6894</name></trkpt>
<trkpt lat="53.344605" lon="-1.918068"><ele>264</ele><time>2021-10-01T13:42:42Z</time><name>PT6895</name></trkpt>
<trkpt lat="53.344574" lon="-1.918056"><ele>263</ele><time>2021-10-01T13:42:45Z</time><name>PT6896</name></trkpt>
<trkpt lat="53.344553" lon="-1.918052"><ele>263</ele><time>2021-10-01T13:42:48Z</time><name>PT6897</name></trkpt>
<trkpt lat="53.344513" lon="-1.918073"><ele>262</ele><time>2021-10-01T13:42:52Z</time><name>PT6898</name></trkpt>
<trkpt lat="53.344510" lon="-1.918086"><ele>261</ele><time>2021-10-01T13:42:55Z</time><name>PT6899</name></trkpt>
<trkpt lat="53.344496" lon="-1.918115"><ele>259</ele><time>2021-10-01T13:42:59Z</time><name>PT6900</name></trkpt>
<trkpt lat="53.344499" lon="-1.918158"><ele>259</ele><time>2021-10-01T13:43:02Z</time><name>PT6901</name></trkpt>
<trkpt lat="53.344505" lon="-1.918200"><ele>258</ele><time>2021-10-01T13:43:05Z</time><name>PT6902</name></trkpt>
<trkpt lat="53.344510" lon="-1.918269"><ele>258</ele><time>2021-10-01T13:43:09Z</time><name>PT6903</name></trkpt>
<trkpt lat="53.344517" lon="-1.918314"><ele>257</ele><time>2021-10-01T13:43:13Z</time><name>PT6904</name></trkpt>
<trkpt lat="53.344519" lon="-1.918374"><ele>255</ele><time>2021-10-01T13:43:17Z</time><name>PT6905</name></trkpt>
<trkpt lat="53.344530" lon="-1.918418"><ele>253</ele><time>2021-10-01T13:43:21Z</time><name>PT6906</name></trkpt>
<trkpt lat="53.344540" lon="-1.918467"><ele>253</ele><time>2021-10-01T13:43:24Z</time><name>PT6907</name></trkpt>
<trkpt lat="53.344542" lon="-1.918510"><ele>253</ele><time>2021-10-01T13:43:27Z</time><name>PT6908</name></trkpt>
<trkpt lat="53.344547" lon="-1.918575"><ele>251</ele><time>2021-10-01T13:43:30Z</time><name>PT6909</name></trkpt>
<trkpt lat="53.344546" lon="-1.918658"><ele>250</ele><time>2021-10-01T13:43:34Z</time><name>PT6910</name></trkpt>
<trkpt lat="53.344545" lon="-1.918724"><ele>250</ele><time>2021-10-01T13:43:38Z</time><name>PT6911</name></trkpt>
<trkpt lat="53.344533" lon="-1.918789"><ele>249</ele><time>2021-10-01T13:43:42Z</time><name>PT6912</name></trkpt>
<trkpt lat="53.344534" lon="-1.918818"><ele>249</ele><time>2021-10-01T13:43:45Z</time><name>PT6913</name></trkpt>
<trkpt lat="53.344533" lon="-1.918830"><ele>249</ele><time>2021-10-01T13:43:48Z</time><name>PT6914</name></trkpt>
<trkpt lat="53.344531" lon="-1.918858"><ele>248</ele><time>2021-10-01T13:43:51Z</time><name>PT6915</name></trkpt>
<trkpt lat="53.344536" lon="-1.918870"><ele>248</ele><time>2021-10-01T13:43:55Z</time><name>PT6916</name></trkpt>
<trkpt lat="53.344541" lon="-1.918898"><ele>248</ele><time>2021-10-01T13:44:16Z</time><name>PT6917</name></trkpt>
<trkpt lat="53.344538" lon="-1.918917"><ele>247</ele><time>2021-10-01T13:44:20Z</time><name>PT6918</name></trkpt>
<trkpt lat="53.344515" lon="-1.918960"><ele>247</ele><time>2021-10-01T13:44:24Z</time><name>PT6919</name></trkpt>
<trkpt lat="53.344485" lon="-1.918986"><ele>248</ele><time>2021-10-01T13:44:27Z</time><name>PT6920</name></trkpt>
<trkpt lat="53.344451" lon="-1.918994"><ele>248</ele><time>2021-10-01T13:44:31Z</time><name>PT6921</name></trkpt>
<trkpt lat="53.344446" lon="-1.918999"><ele>248</ele><time>2021-10-01T13:44:35Z</time><name>PT6922</name></trkpt>
<trkpt lat="53.344436" lon="-1.918999"><ele>248</ele><time>2021-10-01T13:44:41Z</time><name>PT6923</name></trkpt>
<trkpt lat="53.344437" lon="-1.919001"><ele>248</ele><time>2021-10-01T13:44:45Z</time><name>PT6924</name></trkpt>
<trkpt lat="53.344430" lon="-1.919005"><ele>249</ele><time>2021-10-01T13:45:01Z</time><name>PT6925</name></trkpt>
<trkpt lat="53.344418" lon="-1.919018"><ele>249</ele><time>2021-10-01T13:45:02Z</time><name>PT6926</name></trkpt>
<trkpt lat="53.344408" lon="-1.919025"><ele>249</ele><time>2021-10-01T13:45:03Z</time><name>PT6927</name></trkpt>
<trkpt lat="53.344396" lon="-1.919031"><ele>249</ele><time>2021-10-01T13:45:04Z</time><name>PT6928</name></trkpt>
<trkpt lat="53.344382" lon="-1.919039"><ele>249</ele><time>2021-10-01T13:45:05Z</time><name>PT6929</name></trkpt>
<trkpt lat="53.344357" lon="-1.919051"><ele>249</ele><time>2021-10-01T13:45:06Z</time><name>PT6930</name></trkpt>
<trkpt lat="53.344343" lon="-1.919060"><ele>249</ele><time>2021-10-01T13:45:07Z</time><name>PT6931</name></trkpt>
<trkpt lat="53.344335" lon="-1.919063"><ele>249</ele><time>2021-10-01T13:45:08Z</time><name>PT6932</name></trkpt>
<trkpt lat="53.344325" lon="-1.919066"><ele>249</ele><time>2021-10-01T13:45:09Z</time><name>PT6933</name></trkpt>
<trkpt lat="53.344312" lon="-1.919074"><ele>249</ele><time>2021-10-01T13:45:10Z</time><name>PT6934</name></trkpt>
<trkpt lat="53.344298" lon="-1.919085"><ele>249</ele><time>2021-10-01T13:45:11Z</time><name>PT6935</name></trkpt>
<trkpt lat="53.344284" lon="-1.919093"><ele>249</ele><time>2021-10-01T13:45:12Z</time><name>PT6936</name></trkpt>
<trkpt lat="53.344272" lon="-1.919096"><ele>250</ele><time>2021-10-01T13:45:13Z</time><name>PT6937</name></trkpt>
<trkpt lat="53.344259" lon="-1.919099"><ele>250</ele><time>2021-10-01T13:45:14Z</time><name>PT6938</name></trkpt>
<trkpt lat="53.344246" lon="-1.919104"><ele>250</ele><time>2021-10-01T13:45:15Z</time><name>PT6939</name></trkpt>
<trkpt lat="53.344233" lon="-1.919110"><ele>250</ele><time>2021-10-01T13:45:16Z</time><name>PT6940</name></trkpt>
<trkpt lat="53.344221" lon="-1.919114"><ele>250</ele><time>2021-10-01T13:45:17Z</time><name>PT6941</name></trkpt>
<trkpt lat="53.344210" lon="-1.919116"><ele>250</ele><time>2021-10-01T13:45:18Z</time><name>PT6942</name></trkpt>
<trkpt lat="53.344199" lon="-1.919119"><ele>250</ele><time>2021-10-01T13:45:19Z</time><name>PT6943</name></trkpt>
<trkpt lat="53.344187" lon="-1.919122"><ele>250</ele><time>2021-10-01T13:45:20Z</time><name>PT6944</name></trkpt>
<trkpt lat="53.344176" lon="-1.919126"><ele>250</ele><time>2021-10-01T13:45:21Z</time><name>PT6945</name></trkpt>
<trkpt lat="53.344164" lon="-1.919129"><ele>250</ele><time>2021-10-01T13:45:22Z</time><name>PT6946</name></trkpt>
<trkpt lat="53.344152" lon="-1.919130"><ele>250</ele><time>2021-10-01T13:45:23Z</time><name>PT6947</name></trkpt>
<trkpt lat="53.344140" lon="-1.919133"><ele>250</ele><time>2021-10-01T13:45:24Z</time><name>PT6948</name></trkpt>
<trkpt lat="53.344128" lon="-1.919137"><ele>250</ele><time>2021-10-01T13:45:25Z</time><name>PT6949</name></trkpt>
<trkpt lat="53.344117" lon="-1.919142"><ele>250</ele><time>2021-10-01T13:45:26Z</time><name>PT6950</name></trkpt>
<trkpt lat="53.344106" lon="-1.919148"><ele>250</ele><time>2021-10-01T13:45:27Z</time><name>PT6951</name></trkpt>
<trkpt lat="53.344093" lon="-1.919154"><ele>250</ele><time>2021-10-01T13:45:28Z</time><name>PT6952</name></trkpt>
<trkpt lat="53.344081" lon="-1.919158"><ele>249</ele><time>2021-10-01T13:45:29Z</time><name>PT6953</name></trkpt>
<trkpt lat="53.344069" lon="-1.919160"><ele>249</ele><time>2021-10-01T13:45:30Z</time><name>PT6954</name></trkpt>
<trkpt lat="53.344057" lon="-1.919166"><ele>249</ele><time>2021-10-01T13:45:31Z</time><name>PT6955</name></trkpt>
<trkpt lat="53.344045" lon="-1.919172"><ele>249</ele><time>2021-10-01T13:45:32Z</time><name>PT6956</name></trkpt>
<trkpt lat="53.344034" lon="-1.919179"><ele>249</ele><time>2021-10-01T13:45:33Z</time><name>PT6957</name></trkpt>
<trkpt lat="53.344022" lon="-1.919185"><ele>249</ele><time>2021-10-01T13:45:34Z</time><name>PT6958</name></trkpt>
<trkpt lat="53.344010" lon="-1.919191"><ele>249</ele><time>2021-10-01T13:45:35Z</time><name>PT6959</name></trkpt>
<trkpt lat="53.343999" lon="-1.919198"><ele>249</ele><time>2021-10-01T13:45:36Z</time><name>PT6960</name></trkpt>
<trkpt lat="53.343989" lon="-1.919204"><ele>249</ele><time>2021-10-01T13:45:37Z</time><name>PT6961</name></trkpt>
<trkpt lat="53.343979" lon="-1.919209"><ele>249</ele><time>2021-10-01T13:45:38Z</time><name>PT6962</name></trkpt>
<trkpt lat="53.343967" lon="-1.919214"><ele>249</ele><time>2021-10-01T13:45:39Z</time><name>PT6963</name></trkpt>
<trkpt lat="53.343957" lon="-1.919218"><ele>248</ele><time>2021-10-01T13:45:40Z</time><name>PT6964</name></trkpt>
<trkpt lat="53.343945" lon="-1.919223"><ele>248</ele><time>2021-10-01T13:45:41Z</time><name>PT6965</name></trkpt>
<trkpt lat="53.343935" lon="-1.919228"><ele>248</ele><time>2021-10-01T13:45:42Z</time><name>PT6966</name></trkpt>
<trkpt lat="53.343924" lon="-1.919232"><ele>248</ele><time>2021-10-01T13:45:43Z</time><name>PT6967</name></trkpt>
<trkpt lat="53.343914" lon="-1.919238"><ele>248</ele><time>2021-10-01T13:45:44Z</time><name>PT6968</name></trkpt>
<trkpt lat="53.343903" lon="-1.919245"><ele>248</ele><time>2021-10-01T13:45:45Z</time><name>PT6969</name></trkpt>
<trkpt lat="53.343890" lon="-1.919252"><ele>248</ele><time>2021-10-01T13:45:46Z</time><name>PT6970</name></trkpt>
<trkpt lat="53.343882" lon="-1.919253"><ele>248</ele><time>2021-10-01T13:45:47Z</time><name>PT6971</name></trkpt>
<trkpt lat="53.343878" lon="-1.919252"><ele>248</ele><time>2021-10-01T13:45:48Z</time><name>PT6972</name></trkpt>
<trkpt lat="53.343876" lon="-1.919253"><ele>247</ele><time>2021-10-01T13:45:49Z</time><name>PT6973</name></trkpt>
<trkpt lat="53.343875" lon="-1.919253"><ele>247</ele><time>2021-10-01T13:45:50Z</time><name>PT6974</name></trkpt>
<trkpt lat="53.343876" lon="-1.919251"><ele>247</ele><time>2021-10-01T13:45:51Z</time><name>PT6975</name></trkpt>
<trkpt lat="53.343873" lon="-1.919252"><ele>247</ele><time>2021-10-01T13:45:52Z</time><name>PT6976</name></trkpt>
<trkpt lat="53.343868" lon="-1.919257"><ele>247</ele><time>2021-10-01T13:45:53Z</time><name>PT6977</name></trkpt>
<trkpt lat="53.343862" lon="-1.919263"><ele>247</ele><time>2021-10-01T13:45:54Z</time><name>PT6978</name></trkpt>
<trkpt lat="53.343857" lon="-1.919267"><ele>247</ele><time>2021-10-01T13:45:55Z</time><name>PT6979</name></trkpt>
<trkpt lat="53.343853" lon="-1.919269"><ele>246</ele><time>2021-10-01T13:45:56Z</time><name>PT6980</name></trkpt>
<trkpt lat="53.343853" lon="-1.919270"><ele>246</ele><time>2021-10-01T13:45:57Z</time><name>PT6981</name></trkpt>
<trkpt lat="53.343851" lon="-1.919272"><ele>246</ele><time>2021-10-01T13:45:58Z</time><name>PT6982</name></trkpt>
<trkpt lat="53.343848" lon="-1.919273"><ele>245</ele><time>2021-10-01T13:45:59Z</time><name>PT6983</name></trkpt>
<trkpt lat="53.343846" lon="-1.919278"><ele>245</ele><time>2021-10-01T13:46:00Z</time><name>PT6984</name></trkpt>
<trkpt lat="53.343840" lon="-1.919287"><ele>245</ele><time>2021-10-01T13:46:01Z</time><name>PT6985</name></trkpt>
<trkpt lat="53.343836" lon="-1.919295"><ele>244</ele><time>2021-10-01T13:46:02Z</time><name>PT6986</name></trkpt>
<trkpt lat="53.343829" lon="-1.919298"><ele>244</ele><time>2021-10-01T13:46:03Z</time><name>PT6987</name></trkpt>
<trkpt lat="53.343821" lon="-1.919299"><ele>244</ele><time>2021-10-01T13:46:04Z</time><name>PT6988</name></trkpt>
<trkpt lat="53.343814" lon="-1.919303"><ele>244</ele><time>2021-10-01T13:46:05Z</time><name>PT6989</name></trkpt>
<trkpt lat="53.343811" lon="-1.919310"><ele>244</ele><time>2021-10-01T13:46:06Z</time><name>PT6990</name></trkpt>
<trkpt lat="53.343806" lon="-1.919311"><ele>244</ele><time>2021-10-01T13:46:07Z</time><name>PT6991</name></trkpt>
<trkpt lat="53.343802" lon="-1.919315"><ele>244</ele><time>2021-10-01T13:46:08Z</time><name>PT6992</name></trkpt>
<trkpt lat="53.343797" lon="-1.919321"><ele>244</ele><time>2021-10-01T13:46:12Z</time><name>PT6993</name></trkpt>
<trkpt lat="53.343789" lon="-1.919325"><ele>244</ele><time>2021-10-01T13:46:13Z</time><name>PT6994</name></trkpt>
<trkpt lat="53.343782" lon="-1.919337"><ele>244</ele><time>2021-10-01T13:46:14Z</time><name>PT6995</name></trkpt>
<trkpt lat="53.343775" lon="-1.919353"><ele>244</ele><time>2021-10-01T13:46:15Z</time><name>PT6996</name></trkpt>
<trkpt lat="53.343765" lon="-1.919367"><ele>244</ele><time>2021-10-01T13:46:16Z</time><name>PT6997</name></trkpt>
<trkpt lat="53.343757" lon="-1.919378"><ele>244</ele><time>2021-10-01T13:46:17Z</time><name>PT6998</name></trkpt>
<trkpt lat="53.343749" lon="-1.919388"><ele>243</ele><time>2021-10-01T13:46:18Z</time><name>PT6999</name></trkpt>
<trkpt lat="53.343739" lon="-1.919398"><ele>243</ele><time>2021-10-01T13:46:19Z</time><name>PT7000</name></trkpt>
<trkpt lat="53.343731" lon="-1.919420"><ele>243</ele><time>2021-10-01T13:46:20Z</time><name>PT7001</name></trkpt>
<trkpt lat="53.343717" lon="-1.919447"><ele>244</ele><time>2021-10-01T13:46:21Z</time><name>PT7002</name></trkpt>
<trkpt lat="53.343706" lon="-1.919451"><ele>244</ele><time>2021-10-01T13:46:22Z</time><name>PT7003</name></trkpt>
<trkpt lat="53.343695" lon="-1.919459"><ele>244</ele><time>2021-10-01T13:46:23Z</time><name>PT7004</name></trkpt>
<trkpt lat="53.343684" lon="-1.919464"><ele>244</ele><time>2021-10-01T13:46:24Z</time><name>PT7005</name></trkpt>
<trkpt lat="53.343676" lon="-1.919473"><ele>244</ele><time>2021-10-01T13:46:25Z</time><name>PT7006</name></trkpt>
<trkpt lat="53.343667" lon="-1.919486"><ele>244</ele><time>2021-10-01T13:46:26Z</time><name>PT7007</name></trkpt>
<trkpt lat="53.343661" lon="-1.919494"><ele>244</ele><time>2021-10-01T13:46:27Z</time><name>PT7008</name></trkpt>
<trkpt lat="53.343658" lon="-1.919501"><ele>244</ele><time>2021-10-01T13:46:28Z</time><name>PT7009</name></trkpt>
<trkpt lat="53.343656" lon="-1.919522"><ele>244</ele><time>2021-10-01T13:46:29Z</time><name>PT7010</name></trkpt>
<trkpt lat="53.343651" lon="-1.919538"><ele>243</ele><time>2021-10-01T13:46:30Z</time><name>PT7011</name></trkpt>
<trkpt lat="53.343642" lon="-1.919557"><ele>243</ele><time>2021-10-01T13:46:31Z</time><name>PT7012</name></trkpt>
<trkpt lat="53.343635" lon="-1.919574"><ele>243</ele><time>2021-10-01T13:46:32Z</time><name>PT7013</name></trkpt>
<trkpt lat="53.343628" lon="-1.919587"><ele>242</ele><time>2021-10-01T13:46:33Z</time><name>PT7014</name></trkpt>
<trkpt lat="53.343621" lon="-1.919603"><ele>242</ele><time>2021-10-01T13:46:34Z</time><name>PT7015</name></trkpt>
<trkpt lat="53.343615" lon="-1.919614"><ele>243</ele><time>2021-10-01T13:46:35Z</time><name>PT7016</name></trkpt>
<trkpt lat="53.343609" lon="-1.919625"><ele>242</ele><time>2021-10-01T13:46:36Z</time><name>PT7017</name></trkpt>
<trkpt lat="53.343602" lon="-1.919634"><ele>242</ele><time>2021-10-01T13:46:37Z</time><name>PT7018</name></trkpt>
<trkpt lat="53.343597" lon="-1.919646"><ele>243</ele><time>2021-10-01T13:46:38Z</time><name>PT7019</name></trkpt>
<trkpt lat="53.343591" lon="-1.919654"><ele>243</ele><time>2021-10-01T13:46:39Z</time><name>PT7020</name></trkpt>
<trkpt lat="53.343586" lon="-1.919662"><ele>243</ele><time>2021-10-01T13:46:40Z</time><name>PT7021</name></trkpt>
<trkpt lat="53.343579" lon="-1.919673"><ele>243</ele><time>2021-10-01T13:46:41Z</time><name>PT7022</name></trkpt>
<trkpt lat="53.343569" lon="-1.919684"><ele>243</ele><time>2021-10-01T13:46:42Z</time><name>PT7023</name></trkpt>
<trkpt lat="53.343559" lon="-1.919698"><ele>243</ele><time>2021-10-01T13:46:43Z</time><name>PT7024</name></trkpt>
<trkpt lat="53.343549" lon="-1.919711"><ele>243</ele><time>2021-10-01T13:46:44Z</time><name>PT7025</name></trkpt>
<trkpt lat="53.343536" lon="-1.919730"><ele>243</ele><time>2021-10-01T13:46:45Z</time><name>PT7026</name></trkpt>
<trkpt lat="53.343526" lon="-1.919747"><ele>243</ele><time>2021-10-01T13:46:46Z</time><name>PT7027</name></trkpt>
<trkpt lat="53.343519" lon="-1.919761"><ele>243</ele><time>2021-10-01T13:46:47Z</time><name>PT7028</name></trkpt>
<trkpt lat="53.343514" lon="-1.919776"><ele>243</ele><time>2021-10-01T13:46:48Z</time><name>PT7029</name></trkpt>
<trkpt lat="53.343507" lon="-1.919790"><ele>243</ele><time>2021-10-01T13:46:49Z</time><name>PT7030</name></trkpt>
<trkpt lat="53.343499" lon="-1.919802"><ele>243</ele><time>2021-10-01T13:46:50Z</time><name>PT7031</name></trkpt>
<trkpt lat="53.343492" lon="-1.919817"><ele>243</ele><time>2021-10-01T13:46:51Z</time><name>PT7032</name></trkpt>
<trkpt lat="53.343481" lon="-1.919839"><ele>242</ele><time>2021-10-01T13:46:52Z</time><name>PT7033</name></trkpt>
<trkpt lat="53.343474" lon="-1.919854"><ele>242</ele><time>2021-10-01T13:46:53Z</time><name>PT7034</name></trkpt>
<trkpt lat="53.343468" lon="-1.919866"><ele>241</ele><time>2021-10-01T13:46:54Z</time><name>PT7035</name></trkpt>
<trkpt lat="53.343460" lon="-1.919880"><ele>241</ele><time>2021-10-01T13:46:55Z</time><name>PT7036</name></trkpt>
<trkpt lat="53.343450" lon="-1.919888"><ele>241</ele><time>2021-10-01T13:46:56Z</time><name>PT7037</name></trkpt>
<trkpt lat="53.343445" lon="-1.919900"><ele>240</ele><time>2021-10-01T13:46:57Z</time><name>PT7038</name></trkpt>
<trkpt lat="53.343438" lon="-1.919914"><ele>240</ele><time>2021-10-01T13:46:58Z</time><name>PT7039</name></trkpt>
<trkpt lat="53.343432" lon="-1.919931"><ele>240</ele><time>2021-10-01T13:46:59Z</time><name>PT7040</name></trkpt>
<trkpt lat="53.343427" lon="-1.919943"><ele>239</ele><time>2021-10-01T13:47:00Z</time><name>PT7041</name></trkpt>
<trkpt lat="53.343418" lon="-1.919962"><ele>239</ele><time>2021-10-01T13:47:01Z</time><name>PT7042</name></trkpt>
<trkpt lat="53.343408" lon="-1.919980"><ele>240</ele><time>2021-10-01T13:47:02Z</time><name>PT7043</name></trkpt>
<trkpt lat="53.343401" lon="-1.919992"><ele>240</ele><time>2021-10-01T13:47:03Z</time><name>PT7044</name></trkpt>
<trkpt lat="53.343393" lon="-1.920000"><ele>240</ele><time>2021-10-01T13:47:04Z</time><name>PT7045</name></trkpt>
<trkpt lat="53.343386" lon="-1.920010"><ele>240</ele><time>2021-10-01T13:47:05Z</time><name>PT7046</name></trkpt>
<trkpt lat="53.343375" lon="-1.920022"><ele>240</ele><time>2021-10-01T13:47:06Z</time><name>PT7047</name></trkpt>
<trkpt lat="53.343368" lon="-1.920035"><ele>240</ele><time>2021-10-01T13:47:07Z</time><name>PT7048</name></trkpt>
<trkpt lat="53.343361" lon="-1.920047"><ele>241</ele><time>2021-10-01T13:47:08Z</time><name>PT7049</name></trkpt>
<trkpt lat="53.343356" lon="-1.920067"><ele>240</ele><time>2021-10-01T13:47:09Z</time><name>PT7050</name></trkpt>
<trkpt lat="53.343349" lon="-1.920084"><ele>240</ele><time>2021-10-01T13:47:10Z</time><name>PT7051</name></trkpt>
<trkpt lat="53.343341" lon="-1.920100"><ele>241</ele><time>2021-10-01T13:47:11Z</time><name>PT7052</name></trkpt>
<trkpt lat="53.343334" lon="-1.920119"><ele>241</ele><time>2021-10-01T13:47:12Z</time><name>PT7053</name></trkpt>
<trkpt lat="53.343326" lon="-1.920136"><ele>240</ele><time>2021-10-01T13:47:13Z</time><name>PT7054</name></trkpt>
<trkpt lat="53.343316" lon="-1.920152"><ele>241</ele><time>2021-10-01T13:47:14Z</time><name>PT7055</name></trkpt>
<trkpt lat="53.343308" lon="-1.920165"><ele>240</ele><time>2021-10-01T13:47:15Z</time><name>PT7056</name></trkpt>
<trkpt lat="53.343300" lon="-1.920175"><ele>240</ele><time>2021-10-01T13:47:16Z</time><name>PT7057</name></trkpt>
<trkpt lat="53.343291" lon="-1.920187"><ele>240</ele><time>2021-10-01T13:47:17Z</time><name>PT7058</name></trkpt>
<trkpt lat="53.343280" lon="-1.920204"><ele>240</ele><time>2021-10-01T13:47:18Z</time><name>PT7059</name></trkpt>
<trkpt lat="53.343272" lon="-1.920221"><ele>240</ele><time>2021-10-01T13:47:19Z</time><name>PT7060</name></trkpt>
<trkpt lat="53.343264" lon="-1.920238"><ele>239</ele><time>2021-10-01T13:47:20Z</time><name>PT7061</name></trkpt>
<trkpt lat="53.343254" lon="-1.920257"><ele>240</ele><time>2021-10-01T13:47:21Z</time><name>PT7062</name></trkpt>
<trkpt lat="53.343245" lon="-1.920272"><ele>240</ele><time>2021-10-01T13:47:22Z</time><name>PT7063</name></trkpt>
<trkpt lat="53.343236" lon="-1.920287"><ele>240</ele><time>2021-10-01T13:47:23Z</time><name>PT7064</name></trkpt>
<trkpt lat="53.343227" lon="-1.920301"><ele>240</ele><time>2021-10-01T13:47:24Z</time><name>PT7065</name></trkpt>
<trkpt lat="53.343216" lon="-1.920318"><ele>240</ele><time>2021-10-01T13:47:25Z</time><name>PT7066</name></trkpt>
<trkpt lat="53.343207" lon="-1.920335"><ele>240</ele><time>2021-10-01T13:47:26Z</time><name>PT7067</name></trkpt>
<trkpt lat="53.343198" lon="-1.920353"><ele>240</ele><time>2021-10-01T13:47:27Z</time><name>PT7068</name></trkpt>
<trkpt lat="53.343191" lon="-1.920368"><ele>240</ele><time>2021-10-01T13:47:28Z</time><name>PT7069</name></trkpt>
<trkpt lat="53.343183" lon="-1.920381"><ele>239</ele><time>2021-10-01T13:47:29Z</time><name>PT7070</name></trkpt>
<trkpt lat="53.343175" lon="-1.920398"><ele>239</ele><time>2021-10-01T13:47:30Z</time><name>PT7071</name></trkpt>
<trkpt lat="53.343166" lon="-1.920411"><ele>239</ele><time>2021-10-01T13:47:31Z</time><name>PT7072</name></trkpt>
<trkpt lat="53.343155" lon="-1.920419"><ele>239</ele><time>2021-10-01T13:47:32Z</time><name>PT7073</name></trkpt>
<trkpt lat="53.343144" lon="-1.920426"><ele>239</ele><time>2021-10-01T13:47:33Z</time><name>PT7074</name></trkpt>
<trkpt lat="53.343134" lon="-1.920431"><ele>239</ele><time>2021-10-01T13:47:34Z</time><name>PT7075</name></trkpt>
<trkpt lat="53.343125" lon="-1.920438"><ele>239</ele><time>2021-10-01T13:47:35Z</time><name>PT7076</name></trkpt>
<trkpt lat="53.343117" lon="-1.920444"><ele>239</ele><time>2021-10-01T13:47:36Z</time><name>PT7077</name></trkpt>
<trkpt lat="53.343111" lon="-1.920450"><ele>239</ele><time>2021-10-01T13:47:37Z</time><name>PT7078</name></trkpt>
<trkpt lat="53.343108" lon="-1.920460"><ele>238</ele><time>2021-10-01T13:47:38Z</time><name>PT7079</name></trkpt>
<trkpt lat="53.343105" lon="-1.920471"><ele>238</ele><time>2021-10-01T13:47:39Z</time><name>PT7080</name></trkpt>
<trkpt lat="53.343101" lon="-1.920486"><ele>238</ele><time>2021-10-01T13:47:40Z</time><name>PT7081</name></trkpt>
<trkpt lat="53.343097" lon="-1.920501"><ele>238</ele><time>2021-10-01T13:47:41Z</time><name>PT7082</name></trkpt>
<trkpt lat="53.343092" lon="-1.920513"><ele>238</ele><time>2021-10-01T13:47:42Z</time><name>PT7083</name></trkpt>
<trkpt lat="53.343084" lon="-1.920525"><ele>238</ele><time>2021-10-01T13:47:43Z</time><name>PT7084</name></trkpt>
<trkpt lat="53.343076" lon="-1.920538"><ele>238</ele><time>2021-10-01T13:47:44Z</time><name>PT7085</name></trkpt>
<trkpt lat="53.343071" lon="-1.920555"><ele>238</ele><time>2021-10-01T13:47:45Z</time><name>PT7086</name></trkpt>
<trkpt lat="53.343065" lon="-1.920568"><ele>238</ele><time>2021-10-01T13:47:46Z</time><name>PT7087</name></trkpt>
<trkpt lat="53.343059" lon="-1.920584"><ele>237</ele><time>2021-10-01T13:47:47Z</time><name>PT7088</name></trkpt>
<trkpt lat="53.343054" lon="-1.920600"><ele>237</ele><time>2021-10-01T13:47:48Z</time><name>PT7089</name></trkpt>
<trkpt lat="53.343051" lon="-1.920616"><ele>237</ele><time>2021-10-01T13:47:49Z</time><name>PT7090</name></trkpt>
<trkpt lat="53.343046" lon="-1.920635"><ele>236</ele><time>2021-10-01T13:47:50Z</time><name>PT7091</name></trkpt>
<trkpt lat="53.343044" lon="-1.920653"><ele>236</ele><time>2021-10-01T13:47:51Z</time><name>PT7092</name></trkpt>
<trkpt lat="53.343042" lon="-1.920670"><ele>236</ele><time>2021-10-01T13:47:52Z</time><name>PT7093</name></trkpt>
<trkpt lat="53.343040" lon="-1.920684"><ele>236</ele><time>2021-10-01T13:47:53Z</time><name>PT7094</name></trkpt>
<trkpt lat="53.343039" lon="-1.920697"><ele>236</ele><time>2021-10-01T13:47:54Z</time><name>PT7095</name></trkpt>
<trkpt lat="53.343040" lon="-1.920707"><ele>235</ele><time>2021-10-01T13:47:55Z</time><name>PT7096</name></trkpt>
<trkpt lat="53.343040" lon="-1.920713"><ele>235</ele><time>2021-10-01T13:47:56Z</time><name>PT7097</name></trkpt>
<trkpt lat="53.343044" lon="-1.920719"><ele>235</ele><time>2021-10-01T13:47:57Z</time><name>PT7098</name></trkpt>
<trkpt lat="53.343046" lon="-1.920725"><ele>235</ele><time>2021-10-01T13:47:58Z</time><name>PT7099</name></trkpt>
<trkpt lat="53.343049" lon="-1.920732"><ele>235</ele><time>2021-10-01T13:47:59Z</time><name>PT7100</name></trkpt>
<trkpt lat="53.343052" lon="-1.920740"><ele>235</ele><time>2021-10-01T13:48:00Z</time><name>PT7101</name></trkpt>
<trkpt lat="53.343060" lon="-1.920744"><ele>234</ele><time>2021-10-01T13:48:01Z</time><name>PT7102</name></trkpt>
<trkpt lat="53.343070" lon="-1.920750"><ele>234</ele><time>2021-10-01T13:48:02Z</time><name>PT7103</name></trkpt>
<trkpt lat="53.343080" lon="-1.920747"><ele>234</ele><time>2021-10-01T13:48:03Z</time><name>PT7104</name></trkpt>
<trkpt lat="53.343088" lon="-1.920738"><ele>234</ele><time>2021-10-01T13:48:04Z</time><name>PT7105</name></trkpt>
<trkpt lat="53.343095" lon="-1.920728"><ele>234</ele><time>2021-10-01T13:48:05Z</time><name>PT7106</name></trkpt>
<trkpt lat="53.343101" lon="-1.920726"><ele>233</ele><time>2021-10-01T13:48:06Z</time><name>PT7107</name></trkpt>
<trkpt lat="53.343110" lon="-1.920725"><ele>233</ele><time>2021-10-01T13:48:07Z</time><name>PT7108</name></trkpt>
<trkpt lat="53.343120" lon="-1.920730"><ele>233</ele><time>2021-10-01T13:48:08Z</time><name>PT7109</name></trkpt>
<trkpt lat="53.343127" lon="-1.920736"><ele>232</ele><time>2021-10-01T13:48:09Z</time><name>PT7110</name></trkpt>
<trkpt lat="53.343136" lon="-1.920743"><ele>232</ele><time>2021-10-01T13:48:10Z</time><name>PT7111</name></trkpt>
<trkpt lat="53.343145" lon="-1.920748"><ele>232</ele><time>2021-10-01T13:48:11Z</time><name>PT7112</name></trkpt>
<trkpt lat="53.343152" lon="-1.920755"><ele>232</ele><time>2021-10-01T13:48:12Z</time><name>PT7113</name></trkpt>
<trkpt lat="53.343159" lon="-1.920763"><ele>231</ele><time>2021-10-01T13:48:13Z</time><name>PT7114</name></trkpt>
<trkpt lat="53.343166" lon="-1.920770"><ele>231</ele><time>2021-10-01T13:48:14Z</time><name>PT7115</name></trkpt>
<trkpt lat="53.343175" lon="-1.920774"><ele>230</ele><time>2021-10-01T13:48:15Z</time><name>PT7116</name></trkpt>
<trkpt lat="53.343184" lon="-1.920782"><ele>230</ele><time>2021-10-01T13:48:16Z</time><name>PT7117</name></trkpt>
<trkpt lat="53.343191" lon="-1.920790"><ele>230</ele><time>2021-10-01T13:48:17Z</time><name>PT7118</name></trkpt>
<trkpt lat="53.343197" lon="-1.920796"><ele>229</ele><time>2021-10-01T13:48:18Z</time><name>PT7119</name></trkpt>
<trkpt lat="53.343205" lon="-1.920802"><ele>230</ele><time>2021-10-01T13:48:19Z</time><name>PT7120</name></trkpt>
<trkpt lat="53.343210" lon="-1.920806"><ele>230</ele><time>2021-10-01T13:48:20Z</time><name>PT7121</name></trkpt>
<trkpt lat="53.343218" lon="-1.920805"><ele>230</ele><time>2021-10-01T13:48:21Z</time><name>PT7122</name></trkpt>
<trkpt lat="53.343227" lon="-1.920807"><ele>230</ele><time>2021-10-01T13:48:22Z</time><name>PT7123</name></trkpt>
<trkpt lat="53.343232" lon="-1.920810"><ele>230</ele><time>2021-10-01T13:48:23Z</time><name>PT7124</name></trkpt>
<trkpt lat="53.343236" lon="-1.920813"><ele>231</ele><time>2021-10-01T13:48:24Z</time><name>PT7125</name></trkpt>
<trkpt lat="53.343241" lon="-1.920818"><ele>231</ele><time>2021-10-01T13:48:25Z</time><name>PT7126</name></trkpt>
<trkpt lat="53.343247" lon="-1.920825"><ele>231</ele><time>2021-10-01T13:48:26Z</time><name>PT7127</name></trkpt>
<trkpt lat="53.343257" lon="-1.920831"><ele>231</ele><time>2021-10-01T13:48:27Z</time><name>PT7128</name></trkpt>
<trkpt lat="53.343265" lon="-1.920842"><ele>231</ele><time>2021-10-01T13:48:28Z</time><name>PT7129</name></trkpt>
<trkpt lat="53.343268" lon="-1.920858"><ele>231</ele><time>2021-10-01T13:48:29Z</time><name>PT7130</name></trkpt>
<trkpt lat="53.343274" lon="-1.920872"><ele>231</ele><time>2021-10-01T13:48:30Z</time><name>PT7131</name></trkpt>
<trkpt lat="53.343280" lon="-1.920883"><ele>231</ele><time>2021-10-01T13:48:31Z</time><name>PT7132</name></trkpt>
<trkpt lat="53.343286" lon="-1.920897"><ele>231</ele><time>2021-10-01T13:48:32Z</time><name>PT7133</name></trkpt>
<trkpt lat="53.343292" lon="-1.920900"><ele>231</ele><time>2021-10-01T13:48:33Z</time><name>PT7134</name></trkpt>
<trkpt lat="53.343298" lon="-1.920901"><ele>232</ele><time>2021-10-01T13:48:34Z</time><name>PT7135</name></trkpt>
<trkpt lat="53.343304" lon="-1.920909"><ele>233</ele><time>2021-10-01T13:48:35Z</time><name>PT7136</name></trkpt>
<trkpt lat="53.343305" lon="-1.920920"><ele>233</ele><time>2021-10-01T13:48:36Z</time><name>PT7137</name></trkpt>
<trkpt lat="53.343305" lon="-1.920933"><ele>233</ele><time>2021-10-01T13:48:37Z</time><name>PT7138</name></trkpt>
<trkpt lat="53.343307" lon="-1.920950"><ele>233</ele><time>2021-10-01T13:48:38Z</time><name>PT7139</name></trkpt>
<trkpt lat="53.343311" lon="-1.920963"><ele>233</ele><time>2021-10-01T13:48:39Z</time><name>PT7140</name></trkpt>
<trkpt lat="53.343311" lon="-1.920979"><ele>233</ele><time>2021-10-01T13:48:40Z</time><name>PT7141</name></trkpt>
<trkpt lat="53.343311" lon="-1.920993"><ele>233</ele><time>2021-10-01T13:48:41Z</time><name>PT7142</name></trkpt>
<trkpt lat="53.343313" lon="-1.921008"><ele>233</ele><time>2021-10-01T13:48:42Z</time><name>PT7143</name></trkpt>
<trkpt lat="53.343315" lon="-1.921022"><ele>233</ele><time>2021-10-01T13:48:43Z</time><name>PT7144</name></trkpt>
<trkpt lat="53.343318" lon="-1.921038"><ele>233</ele><time>2021-10-01T13:48:44Z</time><name>PT7145</name></trkpt>
<trkpt lat="53.343322" lon="-1.921049"><ele>233</ele><time>2021-10-01T13:48:45Z</time><name>PT7146</name></trkpt>
<trkpt lat="53.343324" lon="-1.921045"><ele>233</ele><time>2021-10-01T13:48:46Z</time><name>PT7147</name></trkpt>
<trkpt lat="53.343325" lon="-1.921049"><ele>234</ele><time>2021-10-01T13:48:47Z</time><name>PT7148</name></trkpt>
<trkpt lat="53.343327" lon="-1.921056"><ele>233</ele><time>2021-10-01T13:48:48Z</time><name>PT7149</name></trkpt>
<trkpt lat="53.343329" lon="-1.921070"><ele>233</ele><time>2021-10-01T13:48:49Z</time><name>PT7150</name></trkpt>
<trkpt lat="53.343336" lon="-1.921082"><ele>234</ele><time>2021-10-01T13:48:50Z</time><name>PT7151</name></trkpt>
<trkpt lat="53.343340" lon="-1.921091"><ele>235</ele><time>2021-10-01T13:48:51Z</time><name>PT7152</name></trkpt>
<trkpt lat="53.343339" lon="-1.921093"><ele>235</ele><time>2021-10-01T13:48:52Z</time><name>PT7153</name></trkpt>
<trkpt lat="53.343344" lon="-1.921106"><ele>235</ele><time>2021-10-01T13:48:53Z</time><name>PT7154</name></trkpt>
<trkpt lat="53.343346" lon="-1.921122"><ele>236</ele><time>2021-10-01T13:48:54Z</time><name>PT7155</name></trkpt>
<trkpt lat="53.343355" lon="-1.921141"><ele>237</ele><time>2021-10-01T13:48:55Z</time><name>PT7156</name></trkpt>
<trkpt lat="53.343363" lon="-1.921145"><ele>236</ele><time>2021-10-01T13:48:56Z</time><name>PT7157</name></trkpt>
<trkpt lat="53.343364" lon="-1.921160"><ele>236</ele><time>2021-10-01T13:48:57Z</time><name>PT7158</name></trkpt>
<trkpt lat="53.343366" lon="-1.921175"><ele>236</ele><time>2021-10-01T13:48:58Z</time><name>PT7159</name></trkpt>
<trkpt lat="53.343368" lon="-1.921193"><ele>237</ele><time>2021-10-01T13:48:59Z</time><name>PT7160</name></trkpt>
<trkpt lat="53.343373" lon="-1.921209"><ele>237</ele><time>2021-10-01T13:49:00Z</time><name>PT7161</name></trkpt>
<trkpt lat="53.343378" lon="-1.921229"><ele>236</ele><time>2021-10-01T13:49:01Z</time><name>PT7162</name></trkpt>
<trkpt lat="53.343384" lon="-1.921248"><ele>237</ele><time>2021-10-01T13:49:02Z</time><name>PT7163</name></trkpt>
<trkpt lat="53.343389" lon="-1.921267"><ele>237</ele><time>2021-10-01T13:49:03Z</time><name>PT7164</name></trkpt>
<trkpt lat="53.343392" lon="-1.921285"><ele>237</ele><time>2021-10-01T13:49:04Z</time><name>PT7165</name></trkpt>
<trkpt lat="53.343396" lon="-1.921300"><ele>238</ele><time>2021-10-01T13:49:05Z</time><name>PT7166</name></trkpt>
<trkpt lat="53.343398" lon="-1.921314"><ele>238</ele><time>2021-10-01T13:49:06Z</time><name>PT7167</name></trkpt>
<trkpt lat="53.343402" lon="-1.921334"><ele>238</ele><time>2021-10-01T13:49:07Z</time><name>PT7168</name></trkpt>
<trkpt lat="53.343405" lon="-1.921354"><ele>238</ele><time>2021-10-01T13:49:08Z</time><name>PT7169</name></trkpt>
<trkpt lat="53.343409" lon="-1.921370"><ele>238</ele><time>2021-10-01T13:49:09Z</time><name>PT7170</name></trkpt>
<trkpt lat="53.343412" lon="-1.921385"><ele>238</ele><time>2021-10-01T13:49:10Z</time><name>PT7171</name></trkpt>
<trkpt lat="53.343417" lon="-1.921402"><ele>239</ele><time>2021-10-01T13:49:11Z</time><name>PT7172</name></trkpt>
<trkpt lat="53.343420" lon="-1.921432"><ele>239</ele><time>2021-10-01T13:49:12Z</time><name>PT7173</name></trkpt>
<trkpt lat="53.343425" lon="-1.921468"><ele>239</ele><time>2021-10-01T13:49:13Z</time><name>PT7174</name></trkpt>
<trkpt lat="53.343428" lon="-1.921481"><ele>239</ele><time>2021-10-01T13:49:14Z</time><name>PT7175</name></trkpt>
<trkpt lat="53.343431" lon="-1.921495"><ele>238</ele><time>2021-10-01T13:49:15Z</time><name>PT7176</name></trkpt>
<trkpt lat="53.343435" lon="-1.921513"><ele>238</ele><time>2021-10-01T13:49:16Z</time><name>PT7177</name></trkpt>
<trkpt lat="53.343438" lon="-1.921526"><ele>238</ele><time>2021-10-01T13:49:17Z</time><name>PT7178</name></trkpt>
<trkpt lat="53.343440" lon="-1.921543"><ele>238</ele><time>2021-10-01T13:49:18Z</time><name>PT7179</name></trkpt>
<trkpt lat="53.343441" lon="-1.921560"><ele>238</ele><time>2021-10-01T13:49:19Z</time><name>PT7180</name></trkpt>
<trkpt lat="53.343445" lon="-1.921574"><ele>239</ele><time>2021-10-01T13:49:20Z</time><name>PT7181</name></trkpt>
<trkpt lat="53.343448" lon="-1.921588"><ele>239</ele><time>2021-10-01T13:49:21Z</time><name>PT7182</name></trkpt>
<trkpt lat="53.343449" lon="-1.921605"><ele>239</ele><time>2021-10-01T13:49:22Z</time><name>PT7183</name></trkpt>
<trkpt lat="53.343450" lon="-1.921617"><ele>239</ele><time>2021-10-01T13:49:23Z</time><name>PT7184</name></trkpt>
<trkpt lat="53.343446" lon="-1.921631"><ele>238</ele><time>2021-10-01T13:49:24Z</time><name>PT7185</name></trkpt>
<trkpt lat="53.343447" lon="-1.921649"><ele>239</ele><time>2021-10-01T13:49:25Z</time><name>PT7186</name></trkpt>
<trkpt lat="53.343448" lon="-1.921652"><ele>239</ele><time>2021-10-01T13:49:26Z</time><name>PT7187</name></trkpt>
<trkpt lat="53.343449" lon="-1.921665"><ele>239</ele><time>2021-10-01T13:49:33Z</time><name>PT7188</name></trkpt>
<trkpt lat="53.343447" lon="-1.921685"><ele>239</ele><time>2021-10-01T13:49:34Z</time><name>PT7189</name></trkpt>
<trkpt lat="53.343447" lon="-1.921700"><ele>239</ele><time>2021-10-01T13:49:35Z</time><name>PT7190</name></trkpt>
<trkpt lat="53.343450" lon="-1.921719"><ele>239</ele><time>2021-10-01T13:49:36Z</time><name>PT7191</name></trkpt>
<trkpt lat="53.343454" lon="-1.921735"><ele>239</ele><time>2021-10-01T13:49:37Z</time><name>PT7192</name></trkpt>
<trkpt lat="53.343454" lon="-1.921745"><ele>239</ele><time>2021-10-01T13:49:38Z</time><name>PT7193</name></trkpt>
<trkpt lat="53.343449" lon="-1.921767"><ele>238</ele><time>2021-10-01T13:49:39Z</time><name>PT7194</name></trkpt>
<trkpt lat="53.343447" lon="-1.921793"><ele>238</ele><time>2021-10-01T13:49:40Z</time><name>PT7195</name></trkpt>
<trkpt lat="53.343443" lon="-1.921815"><ele>238</ele><time>2021-10-01T13:49:41Z</time><name>PT7196</name></trkpt>
<trkpt lat="53.343440" lon="-1.921832"><ele>238</ele><time>2021-10-01T13:49:42Z</time><name>PT7197</name></trkpt>
<trkpt lat="53.343437" lon="-1.921845"><ele>238</ele><time>2021-10-01T13:49:43Z</time><name>PT7198</name></trkpt>
<trkpt lat="53.343434" lon="-1.921853"><ele>238</ele><time>2021-10-01T13:49:44Z</time><name>PT7199</name></trkpt>
<trkpt lat="53.343434" lon="-1.921870"><ele>238</ele><time>2021-10-01T13:49:45Z</time><name>PT7200</name></trkpt>
<trkpt lat="53.343434" lon="-1.921885"><ele>239</ele><time>2021-10-01T13:49:46Z</time><name>PT7201</name></trkpt>
<trkpt lat="53.343434" lon="-1.921897"><ele>239</ele><time>2021-10-01T13:49:47Z</time><name>PT7202</name></trkpt>
<trkpt lat="53.343432" lon="-1.921912"><ele>239</ele><time>2021-10-01T13:49:48Z</time><name>PT7203</name></trkpt>
<trkpt lat="53.343428" lon="-1.921928"><ele>239</ele><time>2021-10-01T13:49:49Z</time><name>PT7204</name></trkpt>
<trkpt lat="53.343426" lon="-1.921952"><ele>240</ele><time>2021-10-01T13:49:50Z</time><name>PT7205</name></trkpt>
<trkpt lat="53.343419" lon="-1.921973"><ele>239</ele><time>2021-10-01T13:49:51Z</time><name>PT7206</name></trkpt>
<trkpt lat="53.343413" lon="-1.921988"><ele>240</ele><time>2021-10-01T13:49:52Z</time><name>PT7207</name></trkpt>
<trkpt lat="53.343407" lon="-1.922001"><ele>239</ele><time>2021-10-01T13:49:53Z</time><name>PT7208</name></trkpt>
<trkpt lat="53.343407" lon="-1.922020"><ele>239</ele><time>2021-10-01T13:49:54Z</time><name>PT7209</name></trkpt>
<trkpt lat="53.343405" lon="-1.922033"><ele>239</ele><time>2021-10-01T13:49:55Z</time><name>PT7210</name></trkpt>
<trkpt lat="53.343404" lon="-1.922043"><ele>239</ele><time>2021-10-01T13:49:56Z</time><name>PT7211</name></trkpt>
<trkpt lat="53.343401" lon="-1.922052"><ele>239</ele><time>2021-10-01T13:49:57Z</time><name>PT7212</name></trkpt>
<trkpt lat="53.343399" lon="-1.922064"><ele>240</ele><time>2021-10-01T13:49:58Z</time><name>PT7213</name></trkpt>
<trkpt lat="53.343393" lon="-1.922075"><ele>240</ele><time>2021-10-01T13:49:59Z</time><name>PT7214</name></trkpt>
<trkpt lat="53.343389" lon="-1.922093"><ele>240</ele><time>2021-10-01T13:50:00Z</time><name>PT7215</name></trkpt>
<trkpt lat="53.343386" lon="-1.922105"><ele>239</ele><time>2021-10-01T13:50:01Z</time><name>PT7216</name></trkpt>
<trkpt lat="53.343383" lon="-1.922118"><ele>239</ele><time>2021-10-01T13:50:02Z</time><name>PT7217</name></trkpt>
<trkpt lat="53.343379" lon="-1.922137"><ele>239</ele><time>2021-10-01T13:50:03Z</time><name>PT7218</name></trkpt>
<trkpt lat="53.343368" lon="-1.922145"><ele>237</ele><time>2021-10-01T13:50:04Z</time><name>PT7219</name></trkpt>
<trkpt lat="53.343366" lon="-1.922156"><ele>237</ele><time>2021-10-01T13:50:05Z</time><name>PT7220</name></trkpt>
<trkpt lat="53.343362" lon="-1.922178"><ele>236</ele><time>2021-10-01T13:50:06Z</time><name>PT7221</name></trkpt>
<trkpt lat="53.343361" lon="-1.922195"><ele>236</ele><time>2021-10-01T13:50:07Z</time><name>PT7222</name></trkpt>
<trkpt lat="53.343361" lon="-1.922214"><ele>235</ele><time>2021-10-01T13:50:08Z</time><name>PT7223</name></trkpt>
<trkpt lat="53.343361" lon="-1.922231"><ele>236</ele><time>2021-10-01T13:50:09Z</time><name>PT7224</name></trkpt>
<trkpt lat="53.343358" lon="-1.922242"><ele>236</ele><time>2021-10-01T13:50:10Z</time><name>PT7225</name></trkpt>
<trkpt lat="53.343353" lon="-1.922257"><ele>236</ele><time>2021-10-01T13:50:11Z</time><name>PT7226</name></trkpt>
<trkpt lat="53.343349" lon="-1.922288"><ele>235</ele><time>2021-10-01T13:50:12Z</time><name>PT7227</name></trkpt>
<trkpt lat="53.343347" lon="-1.922299"><ele>235</ele><time>2021-10-01T13:50:13Z</time><name>PT7228</name></trkpt>
<trkpt lat="53.343346" lon="-1.922330"><ele>235</ele><time>2021-10-01T13:50:14Z</time><name>PT7229</name></trkpt>
<trkpt lat="53.343342" lon="-1.922347"><ele>235</ele><time>2021-10-01T13:50:15Z</time><name>PT7230</name></trkpt>
<trkpt lat="53.343341" lon="-1.922360"><ele>234</ele><time>2021-10-01T13:50:16Z</time><name>PT7231</name></trkpt>
<trkpt lat="53.343340" lon="-1.922375"><ele>234</ele><time>2021-10-01T13:50:17Z</time><name>PT7232</name></trkpt>
<trkpt lat="53.343339" lon="-1.922396"><ele>235</ele><time>2021-10-01T13:50:18Z</time><name>PT7233</name></trkpt>
<trkpt lat="53.343338" lon="-1.922416"><ele>235</ele><time>2021-10-01T13:50:19Z</time><name>PT7234</name></trkpt>
<trkpt lat="53.343336" lon="-1.922430"><ele>235</ele><time>2021-10-01T13:50:20Z</time><name>PT7235</name></trkpt>
<trkpt lat="53.343333" lon="-1.922441"><ele>236</ele><time>2021-10-01T13:50:21Z</time><name>PT7236</name></trkpt>
<trkpt lat="53.343330" lon="-1.922459"><ele>236</ele><time>2021-10-01T13:50:22Z</time><name>PT7237</name></trkpt>
<trkpt lat="53.343330" lon="-1.922485"><ele>236</ele><time>2021-10-01T13:50:23Z</time><name>PT7238</name></trkpt>
<trkpt lat="53.343331" lon="-1.922508"><ele>236</ele><time>2021-10-01T13:50:24Z</time><name>PT7239</name></trkpt>
<trkpt lat="53.343329" lon="-1.922524"><ele>236</ele><time>2021-10-01T13:50:25Z</time><name>PT7240</name></trkpt>
<trkpt lat="53.343328" lon="-1.922531"><ele>237</ele><time>2021-10-01T13:50:26Z</time><name>PT7241</name></trkpt>
<trkpt lat="53.343326" lon="-1.922547"><ele>237</ele><time>2021-10-01T13:50:27Z</time><name>PT7242</name></trkpt>
<trkpt lat="53.343325" lon="-1.922553"><ele>237</ele><time>2021-10-01T13:50:28Z</time><name>PT7243</name></trkpt>
<trkpt lat="53.343321" lon="-1.922565"><ele>238</ele><time>2021-10-01T13:50:29Z</time><name>PT7244</name></trkpt>
<trkpt lat="53.343320" lon="-1.922596"><ele>237</ele><time>2021-10-01T13:50:34Z</time><name>PT7245</name></trkpt>
<trkpt lat="53.343319" lon="-1.922618"><ele>237</ele><time>2021-10-01T13:50:35Z</time><name>PT7246</name></trkpt>
<trkpt lat="53.343328" lon="-1.922695"><ele>238</ele><time>2021-10-01T13:50:39Z</time><name>PT7247</name></trkpt>
<trkpt lat="53.343338" lon="-1.922755"><ele>238</ele><time>2021-10-01T13:50:43Z</time><name>PT7248</name></trkpt>
<trkpt lat="53.343342" lon="-1.922841"><ele>239</ele><time>2021-10-01T13:50:47Z</time><name>PT7249</name></trkpt>
<trkpt lat="53.343358" lon="-1.922915"><ele>240</ele><time>2021-10-01T13:50:51Z</time><name>PT7250</name></trkpt>
<trkpt lat="53.343369" lon="-1.922984"><ele>241</ele><time>2021-10-01T13:50:55Z</time><name>PT7251</name></trkpt>
<trkpt lat="53.343371" lon="-1.923076"><ele>243</ele><time>2021-10-01T13:50:59Z</time><name>PT7252</name></trkpt>
<trkpt lat="53.343362" lon="-1.923104"><ele>245</ele><time>2021-10-01T13:51:02Z</time><name>PT7253</name></trkpt>
<trkpt lat="53.343380" lon="-1.923157"><ele>245</ele><time>2021-10-01T13:51:06Z</time><name>PT7254</name></trkpt>
<trkpt lat="53.343386" lon="-1.923183"><ele>246</ele><time>2021-10-01T13:51:08Z</time><name>PT7255</name></trkpt>
<trkpt lat="53.343389" lon="-1.923201"><ele>247</ele><time>2021-10-01T13:51:09Z</time><name>PT7256</name></trkpt>
<trkpt lat="53.343392" lon="-1.923219"><ele>247</ele><time>2021-10-01T13:51:10Z</time><name>PT7257</name></trkpt>
<trkpt lat="53.343393" lon="-1.923237"><ele>247</ele><time>2021-10-01T13:51:11Z</time><name>PT7258</name></trkpt>
<trkpt lat="53.343395" lon="-1.923258"><ele>248</ele><time>2021-10-01T13:51:12Z</time><name>PT7259</name></trkpt>
<trkpt lat="53.343398" lon="-1.923275"><ele>247</ele><time>2021-10-01T13:51:13Z</time><name>PT7260</name></trkpt>
<trkpt lat="53.343402" lon="-1.923298"><ele>247</ele><time>2021-10-01T13:51:14Z</time><name>PT7261</name></trkpt>
<trkpt lat="53.343401" lon="-1.923322"><ele>247</ele><time>2021-10-01T13:51:15Z</time><name>PT7262</name></trkpt>
<trkpt lat="53.343402" lon="-1.923340"><ele>248</ele><time>2021-10-01T13:51:16Z</time><name>PT7263</name></trkpt>
<trkpt lat="53.343403" lon="-1.923357"><ele>248</ele><time>2021-10-01T13:51:17Z</time><name>PT7264</name></trkpt>
<trkpt lat="53.343406" lon="-1.923373"><ele>248</ele><time>2021-10-01T13:51:18Z</time><name>PT7265</name></trkpt>
<trkpt lat="53.343410" lon="-1.923392"><ele>248</ele><time>2021-10-01T13:51:19Z</time><name>PT7266</name></trkpt>
<trkpt lat="53.343412" lon="-1.923412"><ele>248</ele><time>2021-10-01T13:51:20Z</time><name>PT7267</name></trkpt>
<trkpt lat="53.343414" lon="-1.923431"><ele>248</ele><time>2021-10-01T13:51:21Z</time><name>PT7268</name></trkpt>
<trkpt lat="53.343418" lon="-1.923450"><ele>248</ele><time>2021-10-01T13:51:22Z</time><name>PT7269</name></trkpt>
<trkpt lat="53.343420" lon="-1.923468"><ele>248</ele><time>2021-10-01T13:51:23Z</time><name>PT7270</name></trkpt>
<trkpt lat="53.343423" lon="-1.923484"><ele>248</ele><time>2021-10-01T13:51:24Z</time><name>PT7271</name></trkpt>
<trkpt lat="53.343427" lon="-1.923499"><ele>249</ele><time>2021-10-01T13:51:25Z</time><name>PT7272</name></trkpt>
<trkpt lat="53.343428" lon="-1.923515"><ele>249</ele><time>2021-10-01T13:51:26Z</time><name>PT7273</name></trkpt>
<trkpt lat="53.343430" lon="-1.923530"><ele>249</ele><time>2021-10-01T13:51:27Z</time><name>PT7274</name></trkpt>
<trkpt lat="53.343429" lon="-1.923544"><ele>249</ele><time>2021-10-01T13:51:28Z</time><name>PT7275</name></trkpt>
<trkpt lat="53.343427" lon="-1.923554"><ele>249</ele><time>2021-10-01T13:51:29Z</time><name>PT7276</name></trkpt>
<trkpt lat="53.343424" lon="-1.923555"><ele>248</ele><time>2021-10-01T13:51:30Z</time><name>PT7277</name></trkpt>
<trkpt lat="53.343423" lon="-1.923556"><ele>248</ele><time>2021-10-01T13:51:31Z</time><name>PT7278</name></trkpt>
<trkpt lat="53.343421" lon="-1.923561"><ele>248</ele><time>2021-10-01T13:51:32Z</time><name>PT7279</name></trkpt>
<trkpt lat="53.343420" lon="-1.923565"><ele>248</ele><time>2021-10-01T13:51:33Z</time><name>PT7280</name></trkpt>
<trkpt lat="53.343420" lon="-1.923566"><ele>248</ele><time>2021-10-01T13:51:34Z</time><name>PT7281</name></trkpt>
<trkpt lat="53.343419" lon="-1.923569"><ele>248</ele><time>2021-10-01T13:51:35Z</time><name>PT7282</name></trkpt>
<trkpt lat="53.343424" lon="-1.923582"><ele>248</ele><time>2021-10-01T13:51:38Z</time><name>PT7283</name></trkpt>
<trkpt lat="53.343423" lon="-1.923603"><ele>248</ele><time>2021-10-01T13:51:39Z</time><name>PT7284</name></trkpt>
<trkpt lat="53.343420" lon="-1.923624"><ele>248</ele><time>2021-10-01T13:51:40Z</time><name>PT7285</name></trkpt>
<trkpt lat="53.343416" lon="-1.923649"><ele>247</ele><time>2021-10-01T13:51:41Z</time><name>PT7286</name></trkpt>
<trkpt lat="53.343416" lon="-1.923669"><ele>247</ele><time>2021-10-01T13:51:42Z</time><name>PT7287</name></trkpt>
<trkpt lat="53.343411" lon="-1.923684"><ele>247</ele><time>2021-10-01T13:51:43Z</time><name>PT7288</name></trkpt>
<trkpt lat="53.343407" lon="-1.923692"><ele>247</ele><time>2021-10-01T13:51:44Z</time><name>PT7289</name></trkpt>
<trkpt lat="53.343402" lon="-1.923695"><ele>247</ele><time>2021-10-01T13:51:45Z</time><name>PT7290</name></trkpt>
<trkpt lat="53.343391" lon="-1.923700"><ele>247</ele><time>2021-10-01T13:51:46Z</time><name>PT7291</name></trkpt>
<trkpt lat="53.343376" lon="-1.923705"><ele>247</ele><time>2021-10-01T13:51:47Z</time><name>PT7292</name></trkpt>
<trkpt lat="53.343368" lon="-1.923713"><ele>247</ele><time>2021-10-01T13:51:48Z</time><name>PT7293</name></trkpt>
<trkpt lat="53.343361" lon="-1.923720"><ele>247</ele><time>2021-10-01T13:51:49Z</time><name>PT7294</name></trkpt>
<trkpt lat="53.343353" lon="-1.923725"><ele>247</ele><time>2021-10-01T13:51:50Z</time><name>PT7295</name></trkpt>
<trkpt lat="53.343343" lon="-1.923731"><ele>246</ele><time>2021-10-01T13:51:51Z</time><name>PT7296</name></trkpt>
<trkpt lat="53.343329" lon="-1.923741"><ele>248</ele><time>2021-10-01T13:51:52Z</time><name>PT7297</name></trkpt>
<trkpt lat="53.343319" lon="-1.923758"><ele>247</ele><time>2021-10-01T13:51:53Z</time><name>PT7298</name></trkpt>
<trkpt lat="53.343307" lon="-1.923778"><ele>248</ele><time>2021-10-01T13:51:54Z</time><name>PT7299</name></trkpt>
<trkpt lat="53.343297" lon="-1.923790"><ele>248</ele><time>2021-10-01T13:51:55Z</time><name>PT7300</name></trkpt>
<trkpt lat="53.343294" lon="-1.923806"><ele>248</ele><time>2021-10-01T13:51:56Z</time><name>PT7301</name></trkpt>
<trkpt lat="53.343296" lon="-1.923822"><ele>248</ele><time>2021-10-01T13:51:57Z</time><name>PT7302</name></trkpt>
<trkpt lat="53.343296" lon="-1.923836"><ele>248</ele><time>2021-10-01T13:51:58Z</time><name>PT7303</name></trkpt>
<trkpt lat="53.343298" lon="-1.923851"><ele>248</ele><time>2021-10-01T13:51:59Z</time><name>PT7304</name></trkpt>
<trkpt lat="53.343302" lon="-1.923864"><ele>248</ele><time>2021-10-01T13:52:00Z</time><name>PT7305</name></trkpt>
<trkpt lat="53.343305" lon="-1.923879"><ele>248</ele><time>2021-10-01T13:52:01Z</time><name>PT7306</name></trkpt>
<trkpt lat="53.343307" lon="-1.923893"><ele>248</ele><time>2021-10-01T13:52:02Z</time><name>PT7307</name></trkpt>
<trkpt lat="53.343311" lon="-1.923906"><ele>247</ele><time>2021-10-01T13:52:03Z</time><name>PT7308</name></trkpt>
<trkpt lat="53.343315" lon="-1.923919"><ele>248</ele><time>2021-10-01T13:52:04Z</time><name>PT7309</name></trkpt>
<trkpt lat="53.343317" lon="-1.923935"><ele>248</ele><time>2021-10-01T13:52:05Z</time><name>PT7310</name></trkpt>
<trkpt lat="53.343321" lon="-1.923952"><ele>248</ele><time>2021-10-01T13:52:06Z</time><name>PT7311</name></trkpt>
<trkpt lat="53.343327" lon="-1.923965"><ele>248</ele><time>2021-10-01T13:52:07Z</time><name>PT7312</name></trkpt>
<trkpt lat="53.343332" lon="-1.923975"><ele>247</ele><time>2021-10-01T13:52:08Z</time><name>PT7313</name></trkpt>
<trkpt lat="53.343337" lon="-1.923988"><ele>247</ele><time>2021-10-01T13:52:09Z</time><name>PT7314</name></trkpt>
<trkpt lat="53.343341" lon="-1.924002"><ele>247</ele><time>2021-10-01T13:52:10Z</time><name>PT7315</name></trkpt>
<trkpt lat="53.343346" lon="-1.924013"><ele>247</ele><time>2021-10-01T13:52:11Z</time><name>PT7316</name></trkpt>
<trkpt lat="53.343352" lon="-1.924024"><ele>247</ele><time>2021-10-01T13:52:12Z</time><name>PT7317</name></trkpt>
<trkpt lat="53.343357" lon="-1.924039"><ele>247</ele><time>2021-10-01T13:52:13Z</time><name>PT7318</name></trkpt>
<trkpt lat="53.343362" lon="-1.924054"><ele>247</ele><time>2021-10-01T13:52:14Z</time><name>PT7319</name></trkpt>
<trkpt lat="53.343367" lon="-1.924060"><ele>247</ele><time>2021-10-01T13:52:15Z</time><name>PT7320</name></trkpt>
<trkpt lat="53.343372" lon="-1.924069"><ele>247</ele><time>2021-10-01T13:52:16Z</time><name>PT7321</name></trkpt>
<trkpt lat="53.343378" lon="-1.924090"><ele>247</ele><time>2021-10-01T13:52:17Z</time><name>PT7322</name></trkpt>
<trkpt lat="53.343383" lon="-1.924103"><ele>247</ele><time>2021-10-01T13:52:18Z</time><name>PT7323</name></trkpt>
<trkpt lat="53.343384" lon="-1.924118"><ele>248</ele><time>2021-10-01T13:52:19Z</time><name>PT7324</name></trkpt>
<trkpt lat="53.343387" lon="-1.924133"><ele>248</ele><time>2021-10-01T13:52:20Z</time><name>PT7325</name></trkpt>
<trkpt lat="53.343391" lon="-1.924140"><ele>247</ele><time>2021-10-01T13:52:21Z</time><name>PT7326</name></trkpt>
<trkpt lat="53.343396" lon="-1.924154"><ele>247</ele><time>2021-10-01T13:52:22Z</time><name>PT7327</name></trkpt>
<trkpt lat="53.343400" lon="-1.924163"><ele>247</ele><time>2021-10-01T13:52:23Z</time><name>PT7328</name></trkpt>
<trkpt lat="53.343401" lon="-1.924173"><ele>247</ele><time>2021-10-01T13:52:24Z</time><name>PT7329</name></trkpt>
<trkpt lat="53.343405" lon="-1.924182"><ele>247</ele><time>2021-10-01T13:52:25Z</time><name>PT7330</name></trkpt>
<trkpt lat="53.343409" lon="-1.924187"><ele>246</ele><time>2021-10-01T13:52:26Z</time><name>PT7331</name></trkpt>
<trkpt lat="53.343414" lon="-1.924197"><ele>247</ele><time>2021-10-01T13:52:27Z</time><name>PT7332</name></trkpt>
<trkpt lat="53.343420" lon="-1.924209"><ele>247</ele><time>2021-10-01T13:52:28Z</time><name>PT7333</name></trkpt>
<trkpt lat="53.343423" lon="-1.924224"><ele>247</ele><time>2021-10-01T13:52:29Z</time><name>PT7334</name></trkpt>
<trkpt lat="53.343426" lon="-1.924233"><ele>247</ele><time>2021-10-01T13:52:30Z</time><name>PT7335</name></trkpt>
<trkpt lat="53.343430" lon="-1.924244"><ele>247</ele><time>2021-10-01T13:52:31Z</time><name>PT7336</name></trkpt>
<trkpt lat="53.343433" lon="-1.924253"><ele>246</ele><time>2021-10-01T13:52:32Z</time><name>PT7337</name></trkpt>
<trkpt lat="53.343435" lon="-1.924275"><ele>246</ele><time>2021-10-01T13:52:33Z</time><name>PT7338</name></trkpt>
<trkpt lat="53.343436" lon="-1.924285"><ele>246</ele><time>2021-10-01T13:52:34Z</time><name>PT7339</name></trkpt>
<trkpt lat="53.343440" lon="-1.924293"><ele>246</ele><time>2021-10-01T13:52:35Z</time><name>PT7340</name></trkpt>
<trkpt lat="53.343443" lon="-1.924292"><ele>246</ele><time>2021-10-01T13:52:36Z</time><name>PT7341</name></trkpt>
<trkpt lat="53.343448" lon="-1.924302"><ele>245</ele><time>2021-10-01T13:52:37Z</time><name>PT7342</name></trkpt>
<trkpt lat="53.343455" lon="-1.924321"><ele>246</ele><time>2021-10-01T13:52:38Z</time><name>PT7343</name></trkpt>
<trkpt lat="53.343460" lon="-1.924339"><ele>246</ele><time>2021-10-01T13:52:39Z</time><name>PT7344</name></trkpt>
<trkpt lat="53.343467" lon="-1.924355"><ele>246</ele><time>2021-10-01T13:52:40Z</time><name>PT7345</name></trkpt>
<trkpt lat="53.343472" lon="-1.924370"><ele>246</ele><time>2021-10-01T13:52:41Z</time><name>PT7346</name></trkpt>
<trkpt lat="53.343477" lon="-1.924388"><ele>246</ele><time>2021-10-01T13:52:42Z</time><name>PT7347</name></trkpt>
<trkpt lat="53.343483" lon="-1.924408"><ele>246</ele><time>2021-10-01T13:52:43Z</time><name>PT7348</name></trkpt>
<trkpt lat="53.343489" lon="-1.924431"><ele>246</ele><time>2021-10-01T13:52:44Z</time><name>PT7349</name></trkpt>
<trkpt lat="53.343496" lon="-1.924455"><ele>246</ele><time>2021-10-01T13:52:45Z</time><name>PT7350</name></trkpt>
<trkpt lat="53.343503" lon="-1.924472"><ele>246</ele><time>2021-10-01T13:52:46Z</time><name>PT7351</name></trkpt>
<trkpt lat="53.343508" lon="-1.924491"><ele>246</ele><time>2021-10-01T13:52:47Z</time><name>PT7352</name></trkpt>
<trkpt lat="53.343515" lon="-1.924510"><ele>247</ele><time>2021-10-01T13:52:48Z</time><name>PT7353</name></trkpt>
<trkpt lat="53.343522" lon="-1.924529"><ele>247</ele><time>2021-10-01T13:52:49Z</time><name>PT7354</name></trkpt>
<trkpt lat="53.343527" lon="-1.924543"><ele>247</ele><time>2021-10-01T13:52:50Z</time><name>PT7355</name></trkpt>
<trkpt lat="53.343532" lon="-1.924556"><ele>247</ele><time>2021-10-01T13:52:51Z</time><name>PT7356</name></trkpt>
<trkpt lat="53.343537" lon="-1.924568"><ele>247</ele><time>2021-10-01T13:52:52Z</time><name>PT7357</name></trkpt>
<trkpt lat="53.343542" lon="-1.924580"><ele>247</ele><time>2021-10-01T13:52:53Z</time><name>PT7358</name></trkpt>
<trkpt lat="53.343555" lon="-1.924600"><ele>247</ele><time>2021-10-01T13:52:54Z</time><name>PT7359</name></trkpt>
<trkpt lat="53.343560" lon="-1.924627"><ele>248</ele><time>2021-10-01T13:52:55Z</time><name>PT7360</name></trkpt>
<trkpt lat="53.343567" lon="-1.924650"><ele>248</ele><time>2021-10-01T13:52:56Z</time><name>PT7361</name></trkpt>
<trkpt lat="53.343573" lon="-1.924668"><ele>248</ele><time>2021-10-01T13:52:57Z</time><name>PT7362</name></trkpt>
<trkpt lat="53.343579" lon="-1.924687"><ele>249</ele><time>2021-10-01T13:52:58Z</time><name>PT7363</name></trkpt>
<trkpt lat="53.343583" lon="-1.924699"><ele>249</ele><time>2021-10-01T13:52:59Z</time><name>PT7364</name></trkpt>
<trkpt lat="53.343585" lon="-1.924706"><ele>249</ele><time>2021-10-01T13:53:00Z</time><name>PT7365</name></trkpt>
<trkpt lat="53.343591" lon="-1.924720"><ele>249</ele><time>2021-10-01T13:53:01Z</time><name>PT7366</name></trkpt>
<trkpt lat="53.343598" lon="-1.924739"><ele>250</ele><time>2021-10-01T13:53:02Z</time><name>PT7367</name></trkpt>
<trkpt lat="53.343606" lon="-1.924753"><ele>249</ele><time>2021-10-01T13:53:03Z</time><name>PT7368</name></trkpt>
<trkpt lat="53.343614" lon="-1.924764"><ele>250</ele><time>2021-10-01T13:53:04Z</time><name>PT7369</name></trkpt>
<trkpt lat="53.343621" lon="-1.924778"><ele>250</ele><time>2021-10-01T13:53:05Z</time><name>PT7370</name></trkpt>
<trkpt lat="53.343631" lon="-1.924789"><ele>250</ele><time>2021-10-01T13:53:06Z</time><name>PT7371</name></trkpt>
<trkpt lat="53.343639" lon="-1.924799"><ele>249</ele><time>2021-10-01T13:53:07Z</time><name>PT7372</name></trkpt>
<trkpt lat="53.343648" lon="-1.924812"><ele>249</ele><time>2021-10-01T13:53:08Z</time><name>PT7373</name></trkpt>
<trkpt lat="53.343655" lon="-1.924825"><ele>249</ele><time>2021-10-01T13:53:09Z</time><name>PT7374</name></trkpt>
<trkpt lat="53.343664" lon="-1.924835"><ele>248</ele><time>2021-10-01T13:53:10Z</time><name>PT7375</name></trkpt>
<trkpt lat="53.343672" lon="-1.924837"><ele>248</ele><time>2021-10-01T13:53:11Z</time><name>PT7376</name></trkpt>
<trkpt lat="53.343679" lon="-1.924838"><ele>247</ele><time>2021-10-01T13:53:12Z</time><name>PT7377</name></trkpt>
<trkpt lat="53.343688" lon="-1.924839"><ele>246</ele><time>2021-10-01T13:53:13Z</time><name>PT7378</name></trkpt>
<trkpt lat="53.343697" lon="-1.924837"><ele>246</ele><time>2021-10-01T13:53:14Z</time><name>PT7379</name></trkpt>
<trkpt lat="53.343715" lon="-1.924833"><ele>246</ele><time>2021-10-01T13:53:15Z</time><name>PT7380</name></trkpt>
<trkpt lat="53.343733" lon="-1.924834"><ele>246</ele><time>2021-10-01T13:53:16Z</time><name>PT7381</name></trkpt>
<trkpt lat="53.343745" lon="-1.924832"><ele>246</ele><time>2021-10-01T13:53:17Z</time><name>PT7382</name></trkpt>
<trkpt lat="53.343757" lon="-1.924827"><ele>246</ele><time>2021-10-01T13:53:18Z</time><name>PT7383</name></trkpt>
<trkpt lat="53.343770" lon="-1.924820"><ele>246</ele><time>2021-10-01T13:53:19Z</time><name>PT7384</name></trkpt>
<trkpt lat="53.343782" lon="-1.924818"><ele>246</ele><time>2021-10-01T13:53:20Z</time><name>PT7385</name></trkpt>
<trkpt lat="53.343792" lon="-1.924817"><ele>246</ele><time>2021-10-01T13:53:21Z</time><name>PT7386</name></trkpt>
<trkpt lat="53.343804" lon="-1.924812"><ele>246</ele><time>2021-10-01T13:53:22Z</time><name>PT7387</name></trkpt>
<trkpt lat="53.343817" lon="-1.924810"><ele>247</ele><time>2021-10-01T13:53:23Z</time><name>PT7388</name></trkpt>
<trkpt lat="53.343829" lon="-1.924807"><ele>247</ele><time>2021-10-01T13:53:24Z</time><name>PT7389</name></trkpt>
<trkpt lat="53.343841" lon="-1.924805"><ele>247</ele><time>2021-10-01T13:53:25Z</time><name>PT7390</name></trkpt>
<trkpt lat="53.343853" lon="-1.924799"><ele>247</ele><time>2021-10-01T13:53:26Z</time><name>PT7391</name></trkpt>
<trkpt lat="53.343860" lon="-1.924796"><ele>246</ele><time>2021-10-01T13:53:27Z</time><name>PT7392</name></trkpt>
<trkpt lat="53.343869" lon="-1.924795"><ele>247</ele><time>2021-10-01T13:53:28Z</time><name>PT7393</name></trkpt>
<trkpt lat="53.343871" lon="-1.924791"><ele>246</ele><time>2021-10-01T13:53:29Z</time><name>PT7394</name></trkpt>
<trkpt lat="53.343872" lon="-1.924792"><ele>246</ele><time>2021-10-01T13:53:30Z</time><name>PT7395</name></trkpt>
<trkpt lat="53.343876" lon="-1.924792"><ele>246</ele><time>2021-10-01T13:53:31Z</time><name>PT7396</name></trkpt>
<trkpt lat="53.343876" lon="-1.924795"><ele>247</ele><time>2021-10-01T13:53:32Z</time><name>PT7397</name></trkpt>
<trkpt lat="53.343881" lon="-1.924793"><ele>247</ele><time>2021-10-01T13:53:33Z</time><name>PT7398</name></trkpt>
<trkpt lat="53.343890" lon="-1.924797"><ele>247</ele><time>2021-10-01T13:53:34Z</time><name>PT7399</name></trkpt>
<trkpt lat="53.343894" lon="-1.924805"><ele>247</ele><time>2021-10-01T13:53:35Z</time><name>PT7400</name></trkpt>
<trkpt lat="53.343900" lon="-1.924807"><ele>247</ele><time>2021-10-01T13:53:36Z</time><name>PT7401</name></trkpt>
<trkpt lat="53.343899" lon="-1.924810"><ele>246</ele><time>2021-10-01T13:53:37Z</time><name>PT7402</name></trkpt>
<trkpt lat="53.343903" lon="-1.924817"><ele>246</ele><time>2021-10-01T13:53:38Z</time><name>PT7403</name></trkpt>
<trkpt lat="53.343907" lon="-1.924830"><ele>246</ele><time>2021-10-01T13:53:39Z</time><name>PT7404</name></trkpt>
<trkpt lat="53.343910" lon="-1.924841"><ele>246</ele><time>2021-10-01T13:53:40Z</time><name>PT7405</name></trkpt>
<trkpt lat="53.343914" lon="-1.924855"><ele>246</ele><time>2021-10-01T13:53:41Z</time><name>PT7406</name></trkpt>
<trkpt lat="53.343920" lon="-1.924869"><ele>246</ele><time>2021-10-01T13:53:42Z</time><name>PT7407</name></trkpt>
<trkpt lat="53.343926" lon="-1.924879"><ele>246</ele><time>2021-10-01T13:53:43Z</time><name>PT7408</name></trkpt>
<trkpt lat="53.343933" lon="-1.924890"><ele>246</ele><time>2021-10-01T13:53:44Z</time><name>PT7409</name></trkpt>
<trkpt lat="53.343936" lon="-1.924897"><ele>245</ele><time>2021-10-01T13:53:45Z</time><name>PT7410</name></trkpt>
<trkpt lat="53.343941" lon="-1.924909"><ele>245</ele><time>2021-10-01T13:53:46Z</time><name>PT7411</name></trkpt>
<trkpt lat="53.343944" lon="-1.924922"><ele>245</ele><time>2021-10-01T13:53:47Z</time><name>PT7412</name></trkpt>
<trkpt lat="53.343952" lon="-1.924939"><ele>246</ele><time>2021-10-01T13:53:48Z</time><name>PT7413</name></trkpt>
<trkpt lat="53.343957" lon="-1.924953"><ele>246</ele><time>2021-10-01T13:53:49Z</time><name>PT7414</name></trkpt>
<trkpt lat="53.343960" lon="-1.924963"><ele>246</ele><time>2021-10-01T13:53:50Z</time><name>PT7415</name></trkpt>
<trkpt lat="53.343969" lon="-1.924974"><ele>246</ele><time>2021-10-01T13:53:51Z</time><name>PT7416</name></trkpt>
<trkpt lat="53.343975" lon="-1.924993"><ele>246</ele><time>2021-10-01T13:53:52Z</time><name>PT7417</name></trkpt>
<trkpt lat="53.343981" lon="-1.925008"><ele>246</ele><time>2021-10-01T13:53:53Z</time><name>PT7418</name></trkpt>
<trkpt lat="53.343981" lon="-1.925026"><ele>246</ele><time>2021-10-01T13:53:54Z</time><name>PT7419</name></trkpt>
<trkpt lat="53.343985" lon="-1.925043"><ele>246</ele><time>2021-10-01T13:53:55Z</time><name>PT7420</name></trkpt>
<trkpt lat="53.343989" lon="-1.925058"><ele>246</ele><time>2021-10-01T13:53:56Z</time><name>PT7421</name></trkpt>
<trkpt lat="53.343992" lon="-1.925073"><ele>246</ele><time>2021-10-01T13:53:57Z</time><name>PT7422</name></trkpt>
<trkpt lat="53.343996" lon="-1.925090"><ele>246</ele><time>2021-10-01T13:53:58Z</time><name>PT7423</name></trkpt>
<trkpt lat="53.343999" lon="-1.925105"><ele>245</ele><time>2021-10-01T13:53:59Z</time><name>PT7424</name></trkpt>
<trkpt lat="53.344002" lon="-1.925115"><ele>245</ele><time>2021-10-01T13:54:00Z</time><name>PT7425</name></trkpt>
<trkpt lat="53.344003" lon="-1.925126"><ele>245</ele><time>2021-10-01T13:54:01Z</time><name>PT7426</name></trkpt>
<trkpt lat="53.344006" lon="-1.925138"><ele>244</ele><time>2021-10-01T13:54:02Z</time><name>PT7427</name></trkpt>
<trkpt lat="53.344009" lon="-1.925152"><ele>244</ele><time>2021-10-01T13:54:03Z</time><name>PT7428</name></trkpt>
<trkpt lat="53.344013" lon="-1.925166"><ele>244</ele><time>2021-10-01T13:54:04Z</time><name>PT7429</name></trkpt>
<trkpt lat="53.344016" lon="-1.925180"><ele>244</ele><time>2021-10-01T13:54:05Z</time><name>PT7430</name></trkpt>
<trkpt lat="53.344018" lon="-1.925196"><ele>244</ele><time>2021-10-01T13:54:06Z</time><name>PT7431</name></trkpt>
<trkpt lat="53.344027" lon="-1.925211"><ele>244</ele><time>2021-10-01T13:54:07Z</time><name>PT7432</name></trkpt>
<trkpt lat="53.344029" lon="-1.925225"><ele>244</ele><time>2021-10-01T13:54:08Z</time><name>PT7433</name></trkpt>
<trkpt lat="53.344032" lon="-1.925243"><ele>244</ele><time>2021-10-01T13:54:09Z</time><name>PT7434</name></trkpt>
<trkpt lat="53.344036" lon="-1.925258"><ele>244</ele><time>2021-10-01T13:54:10Z</time><name>PT7435</name></trkpt>
<trkpt lat="53.344038" lon="-1.925269"><ele>244</ele><time>2021-10-01T13:54:11Z</time><name>PT7436</name></trkpt>
<trkpt lat="53.344041" lon="-1.925283"><ele>244</ele><time>2021-10-01T13:54:12Z</time><name>PT7437</name></trkpt>
<trkpt lat="53.344045" lon="-1.925297"><ele>244</ele><time>2021-10-01T13:54:13Z</time><name>PT7438</name></trkpt>
<trkpt lat="53.344048" lon="-1.925311"><ele>243</ele><time>2021-10-01T13:54:14Z</time><name>PT7439</name></trkpt>
<trkpt lat="53.344054" lon="-1.925323"><ele>243</ele><time>2021-10-01T13:54:15Z</time><name>PT7440</name></trkpt>
<trkpt lat="53.344059" lon="-1.925335"><ele>243</ele><time>2021-10-01T13:54:16Z</time><name>PT7441</name></trkpt>
<trkpt lat="53.344069" lon="-1.925382"><ele>243</ele><time>2021-10-01T13:54:19Z</time><name>PT7442</name></trkpt>
<trkpt lat="53.344081" lon="-1.925442"><ele>243</ele><time>2021-10-01T13:54:23Z</time><name>PT7443</name></trkpt>
<trkpt lat="53.344090" lon="-1.925498"><ele>244</ele><time>2021-10-01T13:54:26Z</time><name>PT7444</name></trkpt>
<trkpt lat="53.344120" lon="-1.925574"><ele>245</ele><time>2021-10-01T13:54:30Z</time><name>PT7445</name></trkpt>
<trkpt lat="53.344125" lon="-1.925636"><ele>245</ele><time>2021-10-01T13:54:33Z</time><name>PT7446</name></trkpt>
<trkpt lat="53.344133" lon="-1.925690"><ele>245</ele><time>2021-10-01T13:54:36Z</time><name>PT7447</name></trkpt>
<trkpt lat="53.344140" lon="-1.925749"><ele>245</ele><time>2021-10-01T13:54:39Z</time><name>PT7448</name></trkpt>
<trkpt lat="53.344153" lon="-1.925824"><ele>244</ele><time>2021-10-01T13:54:43Z</time><name>PT7449</name></trkpt>
<trkpt lat="53.344161" lon="-1.925901"><ele>243</ele><time>2021-10-01T13:54:47Z</time><name>PT7450</name></trkpt>
<trkpt lat="53.344167" lon="-1.925958"><ele>243</ele><time>2021-10-01T13:54:50Z</time><name>PT7451</name></trkpt>
<trkpt lat="53.344174" lon="-1.926029"><ele>243</ele><time>2021-10-01T13:54:54Z</time><name>PT7452</name></trkpt>
<trkpt lat="53.344187" lon="-1.926105"><ele>241</ele><time>2021-10-01T13:54:58Z</time><name>PT7453</name></trkpt>
<trkpt lat="53.344194" lon="-1.926159"><ele>241</ele><time>2021-10-01T13:55:01Z</time><name>PT7454</name></trkpt>
<trkpt lat="53.344207" lon="-1.926238"><ele>240</ele><time>2021-10-01T13:55:05Z</time><name>PT7455</name></trkpt>
<trkpt lat="53.344215" lon="-1.926313"><ele>239</ele><time>2021-10-01T13:55:09Z</time><name>PT7456</name></trkpt>
<trkpt lat="53.344231" lon="-1.926377"><ele>238</ele><time>2021-10-01T13:55:12Z</time><name>PT7457</name></trkpt>
<trkpt lat="53.344256" lon="-1.926441"><ele>238</ele><time>2021-10-01T13:55:16Z</time><name>PT7458</name></trkpt>
<trkpt lat="53.344282" lon="-1.926501"><ele>237</ele><time>2021-10-01T13:55:20Z</time><name>PT7459</name></trkpt>
<trkpt lat="53.344304" lon="-1.926568"><ele>236</ele><time>2021-10-01T13:55:24Z</time><name>PT7460</name></trkpt>
<trkpt lat="53.344321" lon="-1.926623"><ele>236</ele><time>2021-10-01T13:55:27Z</time><name>PT7461</name></trkpt>
<trkpt lat="53.344336" lon="-1.926668"><ele>236</ele><time>2021-10-01T13:55:30Z</time><name>PT7462</name></trkpt>
<trkpt lat="53.344339" lon="-1.926686"><ele>236</ele><time>2021-10-01T13:55:34Z</time><name>PT7463</name></trkpt>
<trkpt lat="53.344325" lon="-1.926717"><ele>236</ele><time>2021-10-01T13:55:38Z</time><name>PT7464</name></trkpt>
<trkpt lat="53.344327" lon="-1.926761"><ele>236</ele><time>2021-10-01T13:55:41Z</time><name>PT7465</name></trkpt>
<trkpt lat="53.344325" lon="-1.926826"><ele>236</ele><time>2021-10-01T13:55:45Z</time><name>PT7466</name></trkpt>
<trkpt lat="53.344324" lon="-1.926846"><ele>236</ele><time>2021-10-01T13:55:46Z</time><name>PT7467</name></trkpt>
<trkpt lat="53.344323" lon="-1.926865"><ele>236</ele><time>2021-10-01T13:55:47Z</time><name>PT7468</name></trkpt>
<trkpt lat="53.344320" lon="-1.926886"><ele>236</ele><time>2021-10-01T13:55:48Z</time><name>PT7469</name></trkpt>
<trkpt lat="53.344317" lon="-1.926908"><ele>235</ele><time>2021-10-01T13:55:49Z</time><name>PT7470</name></trkpt>
<trkpt lat="53.344315" lon="-1.926926"><ele>235</ele><time>2021-10-01T13:55:50Z</time><name>PT7471</name></trkpt>
<trkpt lat="53.344315" lon="-1.926949"><ele>235</ele><time>2021-10-01T13:55:51Z</time><name>PT7472</name></trkpt>
<trkpt lat="53.344314" lon="-1.926966"><ele>234</ele><time>2021-10-01T13:55:52Z</time><name>PT7473</name></trkpt>
<trkpt lat="53.344312" lon="-1.926984"><ele>234</ele><time>2021-10-01T13:55:53Z</time><name>PT7474</name></trkpt>
<trkpt lat="53.344310" lon="-1.927003"><ele>234</ele><time>2021-10-01T13:55:54Z</time><name>PT7475</name></trkpt>
<trkpt lat="53.344309" lon="-1.927020"><ele>234</ele><time>2021-10-01T13:55:55Z</time><name>PT7476</name></trkpt>
<trkpt lat="53.344308" lon="-1.927036"><ele>234</ele><time>2021-10-01T13:55:56Z</time><name>PT7477</name></trkpt>
<trkpt lat="53.344306" lon="-1.927053"><ele>233</ele><time>2021-10-01T13:55:57Z</time><name>PT7478</name></trkpt>
<trkpt lat="53.344304" lon="-1.927070"><ele>233</ele><time>2021-10-01T13:55:58Z</time><name>PT7479</name></trkpt>
<trkpt lat="53.344303" lon="-1.927084"><ele>233</ele><time>2021-10-01T13:55:59Z</time><name>PT7480</name></trkpt>
<trkpt lat="53.344302" lon="-1.927098"><ele>233</ele><time>2021-10-01T13:56:00Z</time><name>PT7481</name></trkpt>
<trkpt lat="53.344301" lon="-1.927113"><ele>233</ele><time>2021-10-01T13:56:01Z</time><name>PT7482</name></trkpt>
<trkpt lat="53.344300" lon="-1.927129"><ele>232</ele><time>2021-10-01T13:56:02Z</time><name>PT7483</name></trkpt>
<trkpt lat="53.344299" lon="-1.927145"><ele>232</ele><time>2021-10-01T13:56:03Z</time><name>PT7484</name></trkpt>
<trkpt lat="53.344297" lon="-1.927158"><ele>232</ele><time>2021-10-01T13:56:04Z</time><name>PT7485</name></trkpt>
<trkpt lat="53.344298" lon="-1.927171"><ele>232</ele><time>2021-10-01T13:56:05Z</time><name>PT7486</name></trkpt>
<trkpt lat="53.344299" lon="-1.927186"><ele>231</ele><time>2021-10-01T13:56:06Z</time><name>PT7487</name></trkpt>
<trkpt lat="53.344301" lon="-1.927204"><ele>231</ele><time>2021-10-01T13:56:07Z</time><name>PT7488</name></trkpt>
<trkpt lat="53.344303" lon="-1.927224"><ele>231</ele><time>2021-10-01T13:56:08Z</time><name>PT7489</name></trkpt>
<trkpt lat="53.344302" lon="-1.927242"><ele>231</ele><time>2021-10-01T13:56:09Z</time><name>PT7490</name></trkpt>
<trkpt lat="53.344302" lon="-1.927259"><ele>231</ele><time>2021-10-01T13:56:10Z</time><name>PT7491</name></trkpt>
<trkpt lat="53.344305" lon="-1.927275"><ele>230</ele><time>2021-10-01T13:56:11Z</time><name>PT7492</name></trkpt>
<trkpt lat="53.344311" lon="-1.927293"><ele>230</ele><time>2021-10-01T13:56:12Z</time><name>PT7493</name></trkpt>
<trkpt lat="53.344316" lon="-1.927312"><ele>230</ele><time>2021-10-01T13:56:13Z</time><name>PT7494</name></trkpt>
<trkpt lat="53.344318" lon="-1.927332"><ele>230</ele><time>2021-10-01T13:56:14Z</time><name>PT7495</name></trkpt>
<trkpt lat="53.344318" lon="-1.927352"><ele>230</ele><time>2021-10-01T13:56:15Z</time><name>PT7496</name></trkpt>
<trkpt lat="53.344318" lon="-1.927370"><ele>230</ele><time>2021-10-01T13:56:16Z</time><name>PT7497</name></trkpt>
<trkpt lat="53.344320" lon="-1.927385"><ele>230</ele><time>2021-10-01T13:56:17Z</time><name>PT7498</name></trkpt>
<trkpt lat="53.344320" lon="-1.927401"><ele>229</ele><time>2021-10-01T13:56:18Z</time><name>PT7499</name></trkpt>
<trkpt lat="53.344322" lon="-1.927417"><ele>229</ele><time>2021-10-01T13:56:19Z</time><name>PT7500</name></trkpt>
<trkpt lat="53.344322" lon="-1.927434"><ele>229</ele><time>2021-10-01T13:56:20Z</time><name>PT7501</name></trkpt>
<trkpt lat="53.344321" lon="-1.927453"><ele>229</ele><time>2021-10-01T13:56:21Z</time><name>PT7502</name></trkpt>
<trkpt lat="53.344318" lon="-1.927472"><ele>229</ele><time>2021-10-01T13:56:22Z</time><name>PT7503</name></trkpt>
<trkpt lat="53.344316" lon="-1.927489"><ele>228</ele><time>2021-10-01T13:56:23Z</time><name>PT7504</name></trkpt>
<trkpt lat="53.344315" lon="-1.927505"><ele>228</ele><time>2021-10-01T13:56:24Z</time><name>PT7505</name></trkpt>
<trkpt lat="53.344314" lon="-1.927521"><ele>228</ele><time>2021-10-01T13:56:25Z</time><name>PT7506</name></trkpt>
<trkpt lat="53.344313" lon="-1.927537"><ele>228</ele><time>2021-10-01T13:56:26Z</time><name>PT7507</name></trkpt>
<trkpt lat="53.344311" lon="-1.927555"><ele>228</ele><time>2021-10-01T13:56:27Z</time><name>PT7508</name></trkpt>
<trkpt lat="53.344310" lon="-1.927573"><ele>227</ele><time>2021-10-01T13:56:28Z</time><name>PT7509</name></trkpt>
<trkpt lat="53.344311" lon="-1.927592"><ele>227</ele><time>2021-10-01T13:56:29Z</time><name>PT7510</name></trkpt>
<trkpt lat="53.344312" lon="-1.927610"><ele>227</ele><time>2021-10-01T13:56:30Z</time><name>PT7511</name></trkpt>
<trkpt lat="53.344315" lon="-1.927625"><ele>227</ele><time>2021-10-01T13:56:31Z</time><name>PT7512</name></trkpt>
<trkpt lat="53.344317" lon="-1.927643"><ele>227</ele><time>2021-10-01T13:56:32Z</time><name>PT7513</name></trkpt>
<trkpt lat="53.344321" lon="-1.927655"><ele>226</ele><time>2021-10-01T13:56:33Z</time><name>PT7514</name></trkpt>
<trkpt lat="53.344319" lon="-1.927670"><ele>226</ele><time>2021-10-01T13:56:34Z</time><name>PT7515</name></trkpt>
<trkpt lat="53.344317" lon="-1.927687"><ele>226</ele><time>2021-10-01T13:56:35Z</time><name>PT7516</name></trkpt>
<trkpt lat="53.344312" lon="-1.927703"><ele>226</ele><time>2021-10-01T13:56:36Z</time><name>PT7517</name></trkpt>
<trkpt lat="53.344310" lon="-1.927719"><ele>226</ele><time>2021-10-01T13:56:37Z</time><name>PT7518</name></trkpt>
<trkpt lat="53.344309" lon="-1.927736"><ele>226</ele><time>2021-10-01T13:56:38Z</time><name>PT7519</name></trkpt>
<trkpt lat="53.344308" lon="-1.927755"><ele>226</ele><time>2021-10-01T13:56:39Z</time><name>PT7520</name></trkpt>
<trkpt lat="53.344307" lon="-1.927774"><ele>226</ele><time>2021-10-01T13:56:40Z</time><name>PT7521</name></trkpt>
<trkpt lat="53.344306" lon="-1.927794"><ele>225</ele><time>2021-10-01T13:56:41Z</time><name>PT7522</name></trkpt>
<trkpt lat="53.344305" lon="-1.927813"><ele>225</ele><time>2021-10-01T13:56:42Z</time><name>PT7523</name></trkpt>
<trkpt lat="53.344305" lon="-1.927827"><ele>225</ele><time>2021-10-01T13:56:43Z</time><name>PT7524</name></trkpt>
<trkpt lat="53.344304" lon="-1.927841"><ele>225</ele><time>2021-10-01T13:56:44Z</time><name>PT7525</name></trkpt>
<trkpt lat="53.344303" lon="-1.927858"><ele>225</ele><time>2021-10-01T13:56:45Z</time><name>PT7526</name></trkpt>
<trkpt lat="53.344303" lon="-1.927876"><ele>225</ele><time>2021-10-01T13:56:46Z</time><name>PT7527</name></trkpt>
<trkpt lat="53.344302" lon="-1.927898"><ele>225</ele><time>2021-10-01T13:56:47Z</time><name>PT7528</name></trkpt>
<trkpt lat="53.344303" lon="-1.927914"><ele>225</ele><time>2021-10-01T13:56:48Z</time><name>PT7529</name></trkpt>
<trkpt lat="53.344304" lon="-1.927933"><ele>224</ele><time>2021-10-01T13:56:49Z</time><name>PT7530</name></trkpt>
<trkpt lat="53.344305" lon="-1.927947"><ele>224</ele><time>2021-10-01T13:56:50Z</time><name>PT7531</name></trkpt>
<trkpt lat="53.344304" lon="-1.927961"><ele>224</ele><time>2021-10-01T13:56:51Z</time><name>PT7532</name></trkpt>
<trkpt lat="53.344305" lon="-1.927982"><ele>224</ele><time>2021-10-01T13:56:52Z</time><name>PT7533</name></trkpt>
<trkpt lat="53.344306" lon="-1.927999"><ele>224</ele><time>2021-10-01T13:56:53Z</time><name>PT7534</name></trkpt>
<trkpt lat="53.344307" lon="-1.928012"><ele>224</ele><time>2021-10-01T13:56:54Z</time><name>PT7535</name></trkpt>
<trkpt lat="53.344309" lon="-1.928032"><ele>223</ele><time>2021-10-01T13:56:55Z</time><name>PT7536</name></trkpt>
<trkpt lat="53.344308" lon="-1.928048"><ele>223</ele><time>2021-10-01T13:56:56Z</time><name>PT7537</name></trkpt>
<trkpt lat="53.344307" lon="-1.928068"><ele>223</ele><time>2021-10-01T13:56:57Z</time><name>PT7538</name></trkpt>
<trkpt lat="53.344307" lon="-1.928087"><ele>223</ele><time>2021-10-01T13:56:58Z</time><name>PT7539</name></trkpt>
<trkpt lat="53.344306" lon="-1.928104"><ele>223</ele><time>2021-10-01T13:56:59Z</time><name>PT7540</name></trkpt>
<trkpt lat="53.344305" lon="-1.928119"><ele>222</ele><time>2021-10-01T13:57:00Z</time><name>PT7541</name></trkpt>
<trkpt lat="53.344305" lon="-1.928134"><ele>222</ele><time>2021-10-01T13:57:01Z</time><name>PT7542</name></trkpt>
<trkpt lat="53.344304" lon="-1.928145"><ele>222</ele><time>2021-10-01T13:57:02Z</time><name>PT7543</name></trkpt>
<trkpt lat="53.344304" lon="-1.928162"><ele>222</ele><time>2021-10-01T13:57:03Z</time><name>PT7544</name></trkpt>
<trkpt lat="53.344305" lon="-1.928177"><ele>222</ele><time>2021-10-01T13:57:04Z</time><name>PT7545</name></trkpt>
<trkpt lat="53.344306" lon="-1.928190"><ele>221</ele><time>2021-10-01T13:57:05Z</time><name>PT7546</name></trkpt>
<trkpt lat="53.344303" lon="-1.928209"><ele>221</ele><time>2021-10-01T13:57:06Z</time><name>PT7547</name></trkpt>
<trkpt lat="53.344301" lon="-1.928219"><ele>221</ele><time>2021-10-01T13:57:07Z</time><name>PT7548</name></trkpt>
<trkpt lat="53.344301" lon="-1.928223"><ele>221</ele><time>2021-10-01T13:57:08Z</time><name>PT7549</name></trkpt>
<trkpt lat="53.344297" lon="-1.928228"><ele>221</ele><time>2021-10-01T13:57:09Z</time><name>PT7550</name></trkpt>
<trkpt lat="53.344292" lon="-1.928230"><ele>221</ele><time>2021-10-01T13:57:10Z</time><name>PT7551</name></trkpt>
<trkpt lat="53.344288" lon="-1.928235"><ele>221</ele><time>2021-10-01T13:57:11Z</time><name>PT7552</name></trkpt>
<trkpt lat="53.344289" lon="-1.928245"><ele>221</ele><time>2021-10-01T13:57:12Z</time><name>PT7553</name></trkpt>
<trkpt lat="53.344288" lon="-1.928253"><ele>220</ele><time>2021-10-01T13:57:13Z</time><name>PT7554</name></trkpt>
<trkpt lat="53.344286" lon="-1.928264"><ele>220</ele><time>2021-10-01T13:57:14Z</time><name>PT7555</name></trkpt>
<trkpt lat="53.344293" lon="-1.928278"><ele>218</ele><time>2021-10-01T13:57:15Z</time><name>PT7556</name></trkpt>
<trkpt lat="53.344295" lon="-1.928289"><ele>218</ele><time>2021-10-01T13:57:16Z</time><name>PT7557</name></trkpt>
<trkpt lat="53.344300" lon="-1.928299"><ele>218</ele><time>2021-10-01T13:57:17Z</time><name>PT7558</name></trkpt>
<trkpt lat="53.344306" lon="-1.928306"><ele>218</ele><time>2021-10-01T13:57:18Z</time><name>PT7559</name></trkpt>
<trkpt lat="53.344311" lon="-1.928312"><ele>218</ele><time>2021-10-01T13:57:19Z</time><name>PT7560</name></trkpt>
<trkpt lat="53.344314" lon="-1.928326"><ele>218</ele><time>2021-10-01T13:57:20Z</time><name>PT7561</name></trkpt>
<trkpt lat="53.344322" lon="-1.928341"><ele>217</ele><time>2021-10-01T13:57:21Z</time><name>PT7562</name></trkpt>
<trkpt lat="53.344324" lon="-1.928352"><ele>217</ele><time>2021-10-01T13:57:22Z</time><name>PT7563</name></trkpt>
<trkpt lat="53.344331" lon="-1.928369"><ele>216</ele><time>2021-10-01T13:57:23Z</time><name>PT7564</name></trkpt>
<trkpt lat="53.344336" lon="-1.928385"><ele>215</ele><time>2021-10-01T13:57:24Z</time><name>PT7565</name></trkpt>
<trkpt lat="53.344342" lon="-1.928394"><ele>216</ele><time>2021-10-01T13:57:25Z</time><name>PT7566</name></trkpt>
<trkpt lat="53.344349" lon="-1.928404"><ele>214</ele><time>2021-10-01T13:57:26Z</time><name>PT7567</name></trkpt>
<trkpt lat="53.344358" lon="-1.928418"><ele>214</ele><time>2021-10-01T13:57:27Z</time><name>PT7568</name></trkpt>
<trkpt lat="53.344366" lon="-1.928435"><ele>214</ele><time>2021-10-01T13:57:28Z</time><name>PT7569</name></trkpt>
<trkpt lat="53.344372" lon="-1.928453"><ele>214</ele><time>2021-10-01T13:57:29Z</time><name>PT7570</name></trkpt>
<trkpt lat="53.344375" lon="-1.928466"><ele>213</ele><time>2021-10-01T13:57:30Z</time><name>PT7571</name></trkpt>
<trkpt lat="53.344381" lon="-1.928479"><ele>214</ele><time>2021-10-01T13:57:31Z</time><name>PT7572</name></trkpt>
<trkpt lat="53.344387" lon="-1.928499"><ele>215</ele><time>2021-10-01T13:57:32Z</time><name>PT7573</name></trkpt>
<trkpt lat="53.344393" lon="-1.928517"><ele>216</ele><time>2021-10-01T13:57:33Z</time><name>PT7574</name></trkpt>
<trkpt lat="53.344396" lon="-1.928542"><ele>216</ele><time>2021-10-01T13:57:34Z</time><name>PT7575</name></trkpt>
<trkpt lat="53.344401" lon="-1.928559"><ele>216</ele><time>2021-10-01T13:57:35Z</time><name>PT7576</name></trkpt>
<trkpt lat="53.344409" lon="-1.928583"><ele>217</ele><time>2021-10-01T13:57:36Z</time><name>PT7577</name></trkpt>
<trkpt lat="53.344416" lon="-1.928597"><ele>217</ele><time>2021-10-01T13:57:37Z</time><name>PT7578</name></trkpt>
<trkpt lat="53.344419" lon="-1.928612"><ele>217</ele><time>2021-10-01T13:57:38Z</time><name>PT7579</name></trkpt>
<trkpt lat="53.344423" lon="-1.928626"><ele>217</ele><time>2021-10-01T13:57:39Z</time><name>PT7580</name></trkpt>
<trkpt lat="53.344428" lon="-1.928647"><ele>218</ele><time>2021-10-01T13:57:40Z</time><name>PT7581</name></trkpt>
<trkpt lat="53.344434" lon="-1.928671"><ele>218</ele><time>2021-10-01T13:57:41Z</time><name>PT7582</name></trkpt>
<trkpt lat="53.344438" lon="-1.928692"><ele>218</ele><time>2021-10-01T13:57:42Z</time><name>PT7583</name></trkpt>
<trkpt lat="53.344441" lon="-1.928711"><ele>218</ele><time>2021-10-01T13:57:43Z</time><name>PT7584</name></trkpt>
<trkpt lat="53.344446" lon="-1.928729"><ele>219</ele><time>2021-10-01T13:57:44Z</time><name>PT7585</name></trkpt>
<trkpt lat="53.344451" lon="-1.928753"><ele>219</ele><time>2021-10-01T13:57:45Z</time><name>PT7586</name></trkpt>
<trkpt lat="53.344454" lon="-1.928769"><ele>219</ele><time>2021-10-01T13:57:46Z</time><name>PT7587</name></trkpt>
<trkpt lat="53.344458" lon="-1.928790"><ele>219</ele><time>2021-10-01T13:57:47Z</time><name>PT7588</name></trkpt>
<trkpt lat="53.344463" lon="-1.928812"><ele>219</ele><time>2021-10-01T13:57:48Z</time><name>PT7589</name></trkpt>
<trkpt lat="53.344468" lon="-1.928832"><ele>219</ele><time>2021-10-01T13:57:49Z</time><name>PT7590</name></trkpt>
<trkpt lat="53.344478" lon="-1.928855"><ele>220</ele><time>2021-10-01T13:57:50Z</time><name>PT7591</name></trkpt>
<trkpt lat="53.344484" lon="-1.928874"><ele>220</ele><time>2021-10-01T13:57:51Z</time><name>PT7592</name></trkpt>
<trkpt lat="53.344490" lon="-1.928893"><ele>221</ele><time>2021-10-01T13:57:52Z</time><name>PT7593</name></trkpt>
<trkpt lat="53.344493" lon="-1.928917"><ele>221</ele><time>2021-10-01T13:57:53Z</time><name>PT7594</name></trkpt>
<trkpt lat="53.344498" lon="-1.928936"><ele>221</ele><time>2021-10-01T13:57:54Z</time><name>PT7595</name></trkpt>
<trkpt lat="53.344503" lon="-1.928957"><ele>221</ele><time>2021-10-01T13:57:55Z</time><name>PT7596</name></trkpt>
<trkpt lat="53.344506" lon="-1.928979"><ele>222</ele><time>2021-10-01T13:57:56Z</time><name>PT7597</name></trkpt>
<trkpt lat="53.344510" lon="-1.929000"><ele>222</ele><time>2021-10-01T13:57:57Z</time><name>PT7598</name></trkpt>
<trkpt lat="53.344512" lon="-1.929020"><ele>222</ele><time>2021-10-01T13:57:58Z</time><name>PT7599</name></trkpt>
<trkpt lat="53.344517" lon="-1.929039"><ele>222</ele><time>2021-10-01T13:57:59Z</time><name>PT7600</name></trkpt>
<trkpt lat="53.344521" lon="-1.929060"><ele>222</ele><time>2021-10-01T13:58:00Z</time><name>PT7601</name></trkpt>
<trkpt lat="53.344526" lon="-1.929081"><ele>222</ele><time>2021-10-01T13:58:01Z</time><name>PT7602</name></trkpt>
<trkpt lat="53.344530" lon="-1.929104"><ele>222</ele><time>2021-10-01T13:58:02Z</time><name>PT7603</name></trkpt>
<trkpt lat="53.344532" lon="-1.929123"><ele>222</ele><time>2021-10-01T13:58:03Z</time><name>PT7604</name></trkpt>
<trkpt lat="53.344535" lon="-1.929139"><ele>221</ele><time>2021-10-01T13:58:04Z</time><name>PT7605</name></trkpt>
<trkpt lat="53.344539" lon="-1.929160"><ele>221</ele><time>2021-10-01T13:58:05Z</time><name>PT7606</name></trkpt>
<trkpt lat="53.344546" lon="-1.929178"><ele>221</ele><time>2021-10-01T13:58:06Z</time><name>PT7607</name></trkpt>
<trkpt lat="53.344553" lon="-1.929197"><ele>221</ele><time>2021-10-01T13:58:07Z</time><name>PT7608</name></trkpt>
<trkpt lat="53.344557" lon="-1.929212"><ele>221</ele><time>2021-10-01T13:58:08Z</time><name>PT7609</name></trkpt>
<trkpt lat="53.344561" lon="-1.929236"><ele>221</ele><time>2021-10-01T13:58:09Z</time><name>PT7610</name></trkpt>
<trkpt lat="53.344562" lon="-1.929259"><ele>220</ele><time>2021-10-01T13:58:10Z</time><name>PT7611</name></trkpt>
<trkpt lat="53.344565" lon="-1.929284"><ele>220</ele><time>2021-10-01T13:58:11Z</time><name>PT7612</name></trkpt>
<trkpt lat="53.344570" lon="-1.929312"><ele>220</ele><time>2021-10-01T13:58:12Z</time><name>PT7613</name></trkpt>
<trkpt lat="53.344575" lon="-1.929327"><ele>219</ele><time>2021-10-01T13:58:13Z</time><name>PT7614</name></trkpt>
<trkpt lat="53.344581" lon="-1.929344"><ele>219</ele><time>2021-10-01T13:58:14Z</time><name>PT7615</name></trkpt>
<trkpt lat="53.344587" lon="-1.929364"><ele>219</ele><time>2021-10-01T13:58:15Z</time><name>PT7616</name></trkpt>
<trkpt lat="53.344592" lon="-1.929379"><ele>219</ele><time>2021-10-01T13:58:16Z</time><name>PT7617</name></trkpt>
<trkpt lat="53.344597" lon="-1.929396"><ele>219</ele><time>2021-10-01T13:58:17Z</time><name>PT7618</name></trkpt>
<trkpt lat="53.344602" lon="-1.929417"><ele>219</ele><time>2021-10-01T13:58:18Z</time><name>PT7619</name></trkpt>
<trkpt lat="53.344606" lon="-1.929436"><ele>219</ele><time>2021-10-01T13:58:19Z</time><name>PT7620</name></trkpt>
<trkpt lat="53.344612" lon="-1.929456"><ele>219</ele><time>2021-10-01T13:58:20Z</time><name>PT7621</name></trkpt>
<trkpt lat="53.344617" lon="-1.929477"><ele>219</ele><time>2021-10-01T13:58:21Z</time><name>PT7622</name></trkpt>
<trkpt lat="53.344620" lon="-1.929494"><ele>219</ele><time>2021-10-01T13:58:22Z</time><name>PT7623</name></trkpt>
<trkpt lat="53.344620" lon="-1.929511"><ele>218</ele><time>2021-10-01T13:58:23Z</time><name>PT7624</name></trkpt>
<trkpt lat="53.344622" lon="-1.929531"><ele>218</ele><time>2021-10-01T13:58:24Z</time><name>PT7625</name></trkpt>
<trkpt lat="53.344622" lon="-1.929549"><ele>217</ele><time>2021-10-01T13:58:25Z</time><name>PT7626</name></trkpt>
<trkpt lat="53.344624" lon="-1.929569"><ele>217</ele><time>2021-10-01T13:58:26Z</time><name>PT7627</name></trkpt>
<trkpt lat="53.344631" lon="-1.929584"><ele>217</ele><time>2021-10-01T13:58:27Z</time><name>PT7628</name></trkpt>
<trkpt lat="53.344638" lon="-1.929602"><ele>217</ele><time>2021-10-01T13:58:28Z</time><name>PT7629</name></trkpt>
<trkpt lat="53.344644" lon="-1.929622"><ele>218</ele><time>2021-10-01T13:58:29Z</time><name>PT7630</name></trkpt>
<trkpt lat="53.344647" lon="-1.929641"><ele>217</ele><time>2021-10-01T13:58:30Z</time><name>PT7631</name></trkpt>
<trkpt lat="53.344652" lon="-1.929653"><ele>217</ele><time>2021-10-01T13:58:31Z</time><name>PT7632</name></trkpt>
<trkpt lat="53.344656" lon="-1.929670"><ele>217</ele><time>2021-10-01T13:58:32Z</time><name>PT7633</name></trkpt>
<trkpt lat="53.344660" lon="-1.929686"><ele>217</ele><time>2021-10-01T13:58:33Z</time><name>PT7634</name></trkpt>
<trkpt lat="53.344664" lon="-1.929705"><ele>218</ele><time>2021-10-01T13:58:34Z</time><name>PT7635</name></trkpt>
<trkpt lat="53.344668" lon="-1.929724"><ele>217</ele><time>2021-10-01T13:58:35Z</time><name>PT7636</name></trkpt>
<trkpt lat="53.344670" lon="-1.929743"><ele>217</ele><time>2021-10-01T13:58:36Z</time><name>PT7637</name></trkpt>
<trkpt lat="53.344673" lon="-1.929765"><ele>217</ele><time>2021-10-01T13:58:37Z</time><name>PT7638</name></trkpt>
<trkpt lat="53.344679" lon="-1.929782"><ele>217</ele><time>2021-10-01T13:58:38Z</time><name>PT7639</name></trkpt>
<trkpt lat="53.344685" lon="-1.929799"><ele>218</ele><time>2021-10-01T13:58:39Z</time><name>PT7640</name></trkpt>
<trkpt lat="53.344691" lon="-1.929818"><ele>218</ele><time>2021-10-01T13:58:40Z</time><name>PT7641</name></trkpt>
<trkpt lat="53.344693" lon="-1.929834"><ele>218</ele><time>2021-10-01T13:58:41Z</time><name>PT7642</name></trkpt>
<trkpt lat="53.344695" lon="-1.929853"><ele>218</ele><time>2021-10-01T13:58:42Z</time><name>PT7643</name></trkpt>
<trkpt lat="53.344696" lon="-1.929868"><ele>217</ele><time>2021-10-01T13:58:43Z</time><name>PT7644</name></trkpt>
<trkpt lat="53.344698" lon="-1.929882"><ele>217</ele><time>2021-10-01T13:58:44Z</time><name>PT7645</name></trkpt>
<trkpt lat="53.344701" lon="-1.929902"><ele>217</ele><time>2021-10-01T13:58:45Z</time><name>PT7646</name></trkpt>
<trkpt lat="53.344703" lon="-1.929919"><ele>217</ele><time>2021-10-01T13:58:46Z</time><name>PT7647</name></trkpt>
<trkpt lat="53.344703" lon="-1.929935"><ele>217</ele><time>2021-10-01T13:58:47Z</time><name>PT7648</name></trkpt>
<trkpt lat="53.344705" lon="-1.929951"><ele>217</ele><time>2021-10-01T13:58:48Z</time><name>PT7649</name></trkpt>
<trkpt lat="53.344711" lon="-1.929970"><ele>217</ele><time>2021-10-01T13:58:49Z</time><name>PT7650</name></trkpt>
<trkpt lat="53.344712" lon="-1.929987"><ele>217</ele><time>2021-10-01T13:58:50Z</time><name>PT7651</name></trkpt>
<trkpt lat="53.344712" lon="-1.930000"><ele>217</ele><time>2021-10-01T13:58:51Z</time><name>PT7652</name></trkpt>
<trkpt lat="53.344709" lon="-1.930012"><ele>217</ele><time>2021-10-01T13:58:52Z</time><name>PT7653</name></trkpt>
<trkpt lat="53.344709" lon="-1.930024"><ele>217</ele><time>2021-10-01T13:58:53Z</time><name>PT7654</name></trkpt>
<trkpt lat="53.344701" lon="-1.930034"><ele>217</ele><time>2021-10-01T13:58:54Z</time><name>PT7655</name></trkpt>
<trkpt lat="53.344693" lon="-1.930038"><ele>216</ele><time>2021-10-01T13:58:55Z</time><name>PT7656</name></trkpt>
<trkpt lat="53.344686" lon="-1.930042"><ele>216</ele><time>2021-10-01T13:58:56Z</time><name>PT7657</name></trkpt>
<trkpt lat="53.344682" lon="-1.930045"><ele>216</ele><time>2021-10-01T13:58:57Z</time><name>PT7658</name></trkpt>
<trkpt lat="53.344678" lon="-1.930052"><ele>216</ele><time>2021-10-01T13:58:58Z</time><name>PT7659</name></trkpt>
<trkpt lat="53.344676" lon="-1.930057"><ele>216</ele><time>2021-10-01T13:58:59Z</time><name>PT7660</name></trkpt>
<trkpt lat="53.344677" lon="-1.930061"><ele>216</ele><time>2021-10-01T13:59:00Z</time><name>PT7661</name></trkpt>
<trkpt lat="53.344673" lon="-1.930066"><ele>216</ele><time>2021-10-01T13:59:01Z</time><name>PT7662</name></trkpt>
<trkpt lat="53.344665" lon="-1.930077"><ele>216</ele><time>2021-10-01T13:59:02Z</time><name>PT7663</name></trkpt>
<trkpt lat="53.344661" lon="-1.930090"><ele>216</ele><time>2021-10-01T13:59:03Z</time><name>PT7664</name></trkpt>
<trkpt lat="53.344658" lon="-1.930106"><ele>216</ele><time>2021-10-01T13:59:04Z</time><name>PT7665</name></trkpt>
<trkpt lat="53.344652" lon="-1.930115"><ele>216</ele><time>2021-10-01T13:59:05Z</time><name>PT7666</name></trkpt>
<trkpt lat="53.344648" lon="-1.930130"><ele>215</ele><time>2021-10-01T13:59:06Z</time><name>PT7667</name></trkpt>
<trkpt lat="53.344638" lon="-1.930153"><ele>215</ele><time>2021-10-01T13:59:07Z</time><name>PT7668</name></trkpt>
<trkpt lat="53.344628" lon="-1.930166"><ele>215</ele><time>2021-10-01T13:59:08Z</time><name>PT7669</name></trkpt>
<trkpt lat="53.344612" lon="-1.930181"><ele>215</ele><time>2021-10-01T13:59:09Z</time><name>PT7670</name></trkpt>
<trkpt lat="53.344607" lon="-1.930188"><ele>214</ele><time>2021-10-01T13:59:10Z</time><name>PT7671</name></trkpt>
<trkpt lat="53.344601" lon="-1.930190"><ele>214</ele><time>2021-10-01T13:59:11Z</time><name>PT7672</name></trkpt>
<trkpt lat="53.344593" lon="-1.930196"><ele>214</ele><time>2021-10-01T13:59:12Z</time><name>PT7673</name></trkpt>
<trkpt lat="53.344588" lon="-1.930207"><ele>214</ele><time>2021-10-01T13:59:13Z</time><name>PT7674</name></trkpt>
<trkpt lat="53.344580" lon="-1.930213"><ele>213</ele><time>2021-10-01T13:59:14Z</time><name>PT7675</name></trkpt>
<trkpt lat="53.344570" lon="-1.930219"><ele>213</ele><time>2021-10-01T13:59:15Z</time><name>PT7676</name></trkpt>
<trkpt lat="53.344561" lon="-1.930226"><ele>213</ele><time>2021-10-01T13:59:16Z</time><name>PT7677</name></trkpt>
<trkpt lat="53.344554" lon="-1.930228"><ele>213</ele><time>2021-10-01T13:59:17Z</time><name>PT7678</name></trkpt>
<trkpt lat="53.344548" lon="-1.930233"><ele>212</ele><time>2021-10-01T13:59:18Z</time><name>PT7679</name></trkpt>
<trkpt lat="53.344540" lon="-1.930245"><ele>212</ele><time>2021-10-01T13:59:19Z</time><name>PT7680</name></trkpt>
<trkpt lat="53.344532" lon="-1.930262"><ele>213</ele><time>2021-10-01T13:59:20Z</time><name>PT7681</name></trkpt>
<trkpt lat="53.344523" lon="-1.930272"><ele>213</ele><time>2021-10-01T13:59:21Z</time><name>PT7682</name></trkpt>
<trkpt lat="53.344517" lon="-1.930281"><ele>213</ele><time>2021-10-01T13:59:22Z</time><name>PT7683</name></trkpt>
<trkpt lat="53.344509" lon="-1.930294"><ele>213</ele><time>2021-10-01T13:59:23Z</time><name>PT7684</name></trkpt>
<trkpt lat="53.344504" lon="-1.930306"><ele>213</ele><time>2021-10-01T13:59:24Z</time><name>PT7685</name></trkpt>
<trkpt lat="53.344499" lon="-1.930316"><ele>214</ele><time>2021-10-01T13:59:25Z</time><name>PT7686</name></trkpt>
<trkpt lat="53.344492" lon="-1.930328"><ele>214</ele><time>2021-10-01T13:59:26Z</time><name>PT7687</name></trkpt>
<trkpt lat="53.344483" lon="-1.930335"><ele>214</ele><time>2021-10-01T13:59:27Z</time><name>PT7688</name></trkpt>
<trkpt lat="53.344474" lon="-1.930350"><ele>215</ele><time>2021-10-01T13:59:28Z</time><name>PT7689</name></trkpt>
<trkpt lat="53.344471" lon="-1.930358"><ele>214</ele><time>2021-10-01T13:59:29Z</time><name>PT7690</name></trkpt>
<trkpt lat="53.344462" lon="-1.930369"><ele>214</ele><time>2021-10-01T13:59:30Z</time><name>PT7691</name></trkpt>
<trkpt lat="53.344454" lon="-1.930380"><ele>214</ele><time>2021-10-01T13:59:31Z</time><name>PT7692</name></trkpt>
<trkpt lat="53.344447" lon="-1.930389"><ele>215</ele><time>2021-10-01T13:59:32Z</time><name>PT7693</name></trkpt>
<trkpt lat="53.344442" lon="-1.930402"><ele>214</ele><time>2021-10-01T13:59:33Z</time><name>PT7694</name></trkpt>
<trkpt lat="53.344439" lon="-1.930415"><ele>214</ele><time>2021-10-01T13:59:34Z</time><name>PT7695</name></trkpt>
<trkpt lat="53.344434" lon="-1.930427"><ele>214</ele><time>2021-10-01T13:59:35Z</time><name>PT7696</name></trkpt>
<trkpt lat="53.344431" lon="-1.930436"><ele>213</ele><time>2021-10-01T13:59:36Z</time><name>PT7697</name></trkpt>
<trkpt lat="53.344424" lon="-1.930444"><ele>214</ele><time>2021-10-01T13:59:37Z</time><name>PT7698</name></trkpt>
<trkpt lat="53.344418" lon="-1.930456"><ele>214</ele><time>2021-10-01T13:59:38Z</time><name>PT7699</name></trkpt>
<trkpt lat="53.344418" lon="-1.930464"><ele>214</ele><time>2021-10-01T13:59:39Z</time><name>PT7700</name></trkpt>
<trkpt lat="53.344415" lon="-1.930474"><ele>214</ele><time>2021-10-01T13:59:40Z</time><name>PT7701</name></trkpt>
<trkpt lat="53.344410" lon="-1.930479"><ele>214</ele><time>2021-10-01T13:59:41Z</time><name>PT7702</name></trkpt>
<trkpt lat="53.344405" lon="-1.930487"><ele>214</ele><time>2021-10-01T13:59:42Z</time><name>PT7703</name></trkpt>
<trkpt lat="53.344399" lon="-1.930500"><ele>214</ele><time>2021-10-01T13:59:43Z</time><name>PT7704</name></trkpt>
<trkpt lat="53.344397" lon="-1.930505"><ele>213</ele><time>2021-10-01T13:59:44Z</time><name>PT7705</name></trkpt>
<trkpt lat="53.344391" lon="-1.930517"><ele>213</ele><time>2021-10-01T13:59:45Z</time><name>PT7706</name></trkpt>
<trkpt lat="53.344388" lon="-1.930527"><ele>213</ele><time>2021-10-01T13:59:46Z</time><name>PT7707</name></trkpt>
<trkpt lat="53.344384" lon="-1.930529"><ele>213</ele><time>2021-10-01T13:59:47Z</time><name>PT7708</name></trkpt>
<trkpt lat="53.344379" lon="-1.930531"><ele>213</ele><time>2021-10-01T13:59:48Z</time><name>PT7709</name></trkpt>
<trkpt lat="53.344375" lon="-1.930541"><ele>213</ele><time>2021-10-01T13:59:49Z</time><name>PT7710</name></trkpt>
<trkpt lat="53.344371" lon="-1.930549"><ele>213</ele><time>2021-10-01T13:59:50Z</time><name>PT7711</name></trkpt>
<trkpt lat="53.344365" lon="-1.930559"><ele>213</ele><time>2021-10-01T13:59:51Z</time><name>PT7712</name></trkpt>
<trkpt lat="53.344360" lon="-1.930572"><ele>212</ele><time>2021-10-01T13:59:52Z</time><name>PT7713</name></trkpt>
<trkpt lat="53.344355" lon="-1.930585"><ele>212</ele><time>2021-10-01T13:59:53Z</time><name>PT7714</name></trkpt>
<trkpt lat="53.344353" lon="-1.930592"><ele>211</ele><time>2021-10-01T13:59:54Z</time><name>PT7715</name></trkpt>
<trkpt lat="53.344349" lon="-1.930602"><ele>211</ele><time>2021-10-01T13:59:55Z</time><name>PT7716</name></trkpt>
<trkpt lat="53.344341" lon="-1.930614"><ele>211</ele><time>2021-10-01T13:59:56Z</time><name>PT7717</name></trkpt>
<trkpt lat="53.344336" lon="-1.930623"><ele>211</ele><time>2021-10-01T13:59:57Z</time><name>PT7718</name></trkpt>
<trkpt lat="53.344331" lon="-1.930631"><ele>211</ele><time>2021-10-01T13:59:58Z</time><name>PT7719</name></trkpt>
<trkpt lat="53.344324" lon="-1.930649"><ele>211</ele><time>2021-10-01T13:59:59Z</time><name>PT7720</name></trkpt>
<trkpt lat="53.344312" lon="-1.930674"><ele>211</ele><time>2021-10-01T14:00:00Z</time><name>PT7721</name></trkpt>
<trkpt lat="53.344304" lon="-1.930686"><ele>211</ele><time>2021-10-01T14:00:01Z</time><name>PT7722</name></trkpt>
<trkpt lat="53.344296" lon="-1.930701"><ele>210</ele><time>2021-10-01T14:00:02Z</time><name>PT7723</name></trkpt>
<trkpt lat="53.344290" lon="-1.930708"><ele>210</ele><time>2021-10-01T14:00:03Z</time><name>PT7724</name></trkpt>
<trkpt lat="53.344283" lon="-1.930725"><ele>209</ele><time>2021-10-01T14:00:04Z</time><name>PT7725</name></trkpt>
<trkpt lat="53.344271" lon="-1.930749"><ele>209</ele><time>2021-10-01T14:00:05Z</time><name>PT7726</name></trkpt>
<trkpt lat="53.344261" lon="-1.930768"><ele>210</ele><time>2021-10-01T14:00:06Z</time><name>PT7727</name></trkpt>
<trkpt lat="53.344254" lon="-1.930784"><ele>210</ele><time>2021-10-01T14:00:07Z</time><name>PT7728</name></trkpt>
<trkpt lat="53.344250" lon="-1.930798"><ele>210</ele><time>2021-10-01T14:00:08Z</time><name>PT7729</name></trkpt>
<trkpt lat="53.344244" lon="-1.930812"><ele>210</ele><time>2021-10-01T14:00:09Z</time><name>PT7730</name></trkpt>
<trkpt lat="53.344235" lon="-1.930837"><ele>211</ele><time>2021-10-01T14:00:10Z</time><name>PT7731</name></trkpt>
<trkpt lat="53.344230" lon="-1.930855"><ele>210</ele><time>2021-10-01T14:00:11Z</time><name>PT7732</name></trkpt>
<trkpt lat="53.344223" lon="-1.930872"><ele>210</ele><time>2021-10-01T14:00:12Z</time><name>PT7733</name></trkpt>
<trkpt lat="53.344215" lon="-1.930892"><ele>210</ele><time>2021-10-01T14:00:13Z</time><name>PT7734</name></trkpt>
<trkpt lat="53.344209" lon="-1.930915"><ele>211</ele><time>2021-10-01T14:00:14Z</time><name>PT7735</name></trkpt>
<trkpt lat="53.344202" lon="-1.930937"><ele>211</ele><time>2021-10-01T14:00:15Z</time><name>PT7736</name></trkpt>
<trkpt lat="53.344198" lon="-1.930949"><ele>211</ele><time>2021-10-01T14:00:16Z</time><name>PT7737</name></trkpt>
<trkpt lat="53.344194" lon="-1.930969"><ele>212</ele><time>2021-10-01T14:00:17Z</time><name>PT7738</name></trkpt>
<trkpt lat="53.344189" lon="-1.930988"><ele>213</ele><time>2021-10-01T14:00:18Z</time><name>PT7739</name></trkpt>
<trkpt lat="53.344189" lon="-1.931004"><ele>213</ele><time>2021-10-01T14:00:19Z</time><name>PT7740</name></trkpt>
<trkpt lat="53.344188" lon="-1.931022"><ele>213</ele><time>2021-10-01T14:00:20Z</time><name>PT7741</name></trkpt>
<trkpt lat="53.344186" lon="-1.931040"><ele>213</ele><time>2021-10-01T14:00:21Z</time><name>PT7742</name></trkpt>
<trkpt lat="53.344188" lon="-1.931059"><ele>213</ele><time>2021-10-01T14:00:22Z</time><name>PT7743</name></trkpt>
<trkpt lat="53.344187" lon="-1.931071"><ele>213</ele><time>2021-10-01T14:00:23Z</time><name>PT7744</name></trkpt>
<trkpt lat="53.344184" lon="-1.931089"><ele>213</ele><time>2021-10-01T14:00:24Z</time><name>PT7745</name></trkpt>
<trkpt lat="53.344180" lon="-1.931106"><ele>213</ele><time>2021-10-01T14:00:25Z</time><name>PT7746</name></trkpt>
<trkpt lat="53.344174" lon="-1.931127"><ele>214</ele><time>2021-10-01T14:00:26Z</time><name>PT7747</name></trkpt>
<trkpt lat="53.344166" lon="-1.931155"><ele>215</ele><time>2021-10-01T14:00:27Z</time><name>PT7748</name></trkpt>
<trkpt lat="53.344159" lon="-1.931182"><ele>215</ele><time>2021-10-01T14:00:28Z</time><name>PT7749</name></trkpt>
<trkpt lat="53.344156" lon="-1.931198"><ele>216</ele><time>2021-10-01T14:00:29Z</time><name>PT7750</name></trkpt>
<trkpt lat="53.344153" lon="-1.931215"><ele>215</ele><time>2021-10-01T14:00:30Z</time><name>PT7751</name></trkpt>
<trkpt lat="53.344151" lon="-1.931240"><ele>215</ele><time>2021-10-01T14:00:31Z</time><name>PT7752</name></trkpt>
<trkpt lat="53.344149" lon="-1.931261"><ele>216</ele><time>2021-10-01T14:00:32Z</time><name>PT7753</name></trkpt>
<trkpt lat="53.344152" lon="-1.931275"><ele>216</ele><time>2021-10-01T14:00:33Z</time><name>PT7754</name></trkpt>
<trkpt lat="53.344151" lon="-1.931291"><ele>216</ele><time>2021-10-01T14:00:34Z</time><name>PT7755</name></trkpt>
<trkpt lat="53.344147" lon="-1.931305"><ele>216</ele><time>2021-10-01T14:00:35Z</time><name>PT7756</name></trkpt>
<trkpt lat="53.344145" lon="-1.931324"><ele>216</ele><time>2021-10-01T14:00:36Z</time><name>PT7757</name></trkpt>
<trkpt lat="53.344142" lon="-1.931338"><ele>216</ele><time>2021-10-01T14:00:37Z</time><name>PT7758</name></trkpt>
<trkpt lat="53.344137" lon="-1.931353"><ele>216</ele><time>2021-10-01T14:00:38Z</time><name>PT7759</name></trkpt>
<trkpt lat="53.344132" lon="-1.931362"><ele>216</ele><time>2021-10-01T14:00:39Z</time><name>PT7760</name></trkpt>
<trkpt lat="53.344124" lon="-1.931377"><ele>216</ele><time>2021-10-01T14:00:40Z</time><name>PT7761</name></trkpt>
<trkpt lat="53.344119" lon="-1.931395"><ele>216</ele><time>2021-10-01T14:00:41Z</time><name>PT7762</name></trkpt>
<trkpt lat="53.344114" lon="-1.931411"><ele>216</ele><time>2021-10-01T14:00:42Z</time><name>PT7763</name></trkpt>
<trkpt lat="53.344107" lon="-1.931428"><ele>216</ele><time>2021-10-01T14:00:43Z</time><name>PT7764</name></trkpt>
<trkpt lat="53.344098" lon="-1.931450"><ele>216</ele><time>2021-10-01T14:00:44Z</time><name>PT7765</name></trkpt>
<trkpt lat="53.344091" lon="-1.931467"><ele>216</ele><time>2021-10-01T14:00:45Z</time><name>PT7766</name></trkpt>
<trkpt lat="53.344088" lon="-1.931484"><ele>216</ele><time>2021-10-01T14:00:46Z</time><name>PT7767</name></trkpt>
<trkpt lat="53.344083" lon="-1.931492"><ele>216</ele><time>2021-10-01T14:00:47Z</time><name>PT7768</name></trkpt>
<trkpt lat="53.344079" lon="-1.931504"><ele>216</ele><time>2021-10-01T14:00:48Z</time><name>PT7769</name></trkpt>
<trkpt lat="53.344077" lon="-1.931510"><ele>216</ele><time>2021-10-01T14:00:49Z</time><name>PT7770</name></trkpt>
<trkpt lat="53.344073" lon="-1.931518"><ele>216</ele><time>2021-10-01T14:00:50Z</time><name>PT7771</name></trkpt>
<trkpt lat="53.344065" lon="-1.931526"><ele>216</ele><time>2021-10-01T14:00:51Z</time><name>PT7772</name></trkpt>
<trkpt lat="53.344058" lon="-1.931537"><ele>216</ele><time>2021-10-01T14:00:52Z</time><name>PT7773</name></trkpt>
<trkpt lat="53.344053" lon="-1.931546"><ele>216</ele><time>2021-10-01T14:00:53Z</time><name>PT7774</name></trkpt>
<trkpt lat="53.344045" lon="-1.931553"><ele>216</ele><time>2021-10-01T14:00:54Z</time><name>PT7775</name></trkpt>
<trkpt lat="53.344037" lon="-1.931559"><ele>215</ele><time>2021-10-01T14:00:55Z</time><name>PT7776</name></trkpt>
<trkpt lat="53.344029" lon="-1.931568"><ele>215</ele><time>2021-10-01T14:00:56Z</time><name>PT7777</name></trkpt>
<trkpt lat="53.344023" lon="-1.931585"><ele>216</ele><time>2021-10-01T14:00:57Z</time><name>PT7778</name></trkpt>
<trkpt lat="53.344016" lon="-1.931595"><ele>216</ele><time>2021-10-01T14:00:58Z</time><name>PT7779</name></trkpt>
<trkpt lat="53.344009" lon="-1.931606"><ele>215</ele><time>2021-10-01T14:00:59Z</time><name>PT7780</name></trkpt>
<trkpt lat="53.344003" lon="-1.931617"><ele>215</ele><time>2021-10-01T14:01:00Z</time><name>PT7781</name></trkpt>
<trkpt lat="53.343996" lon="-1.931634"><ele>215</ele><time>2021-10-01T14:01:01Z</time><name>PT7782</name></trkpt>
<trkpt lat="53.343992" lon="-1.931647"><ele>215</ele><time>2021-10-01T14:01:02Z</time><name>PT7783</name></trkpt>
<trkpt lat="53.343986" lon="-1.931663"><ele>215</ele><time>2021-10-01T14:01:03Z</time><name>PT7784</name></trkpt>
<trkpt lat="53.343980" lon="-1.931676"><ele>215</ele><time>2021-10-01T14:01:04Z</time><name>PT7785</name></trkpt>
<trkpt lat="53.343972" lon="-1.931689"><ele>215</ele><time>2021-10-01T14:01:05Z</time><name>PT7786</name></trkpt>
<trkpt lat="53.343947" lon="-1.931731"><ele>214</ele><time>2021-10-01T14:01:09Z</time><name>PT7787</name></trkpt>
<trkpt lat="53.343917" lon="-1.931782"><ele>215</ele><time>2021-10-01T14:01:13Z</time><name>PT7788</name></trkpt>
<trkpt lat="53.343890" lon="-1.931829"><ele>214</ele><time>2021-10-01T14:01:17Z</time><name>PT7789</name></trkpt>
<trkpt lat="53.343867" lon="-1.931858"><ele>214</ele><time>2021-10-01T14:01:20Z</time><name>PT7790</name></trkpt>
<trkpt lat="53.343845" lon="-1.931894"><ele>214</ele><time>2021-10-01T14:01:23Z</time><name>PT7791</name></trkpt>
<trkpt lat="53.343817" lon="-1.931940"><ele>214</ele><time>2021-10-01T14:01:27Z</time><name>PT7792</name></trkpt>
<trkpt lat="53.343801" lon="-1.931982"><ele>214</ele><time>2021-10-01T14:01:30Z</time><name>PT7793</name></trkpt>
<trkpt lat="53.343776" lon="-1.932030"><ele>214</ele><time>2021-10-01T14:01:34Z</time><name>PT7794</name></trkpt>
<trkpt lat="53.343740" lon="-1.932072"><ele>215</ele><time>2021-10-01T14:01:38Z</time><name>PT7795</name></trkpt>
<trkpt lat="53.343720" lon="-1.932103"><ele>215</ele><time>2021-10-01T14:01:41Z</time><name>PT7796</name></trkpt>
<trkpt lat="53.343698" lon="-1.932146"><ele>216</ele><time>2021-10-01T14:01:45Z</time><name>PT7797</name></trkpt>
<trkpt lat="53.343668" lon="-1.932193"><ele>216</ele><time>2021-10-01T14:01:49Z</time><name>PT7798</name></trkpt>
<trkpt lat="53.343644" lon="-1.932226"><ele>216</ele><time>2021-10-01T14:01:52Z</time><name>PT7799</name></trkpt>
<trkpt lat="53.343629" lon="-1.932257"><ele>216</ele><time>2021-10-01T14:01:55Z</time><name>PT7800</name></trkpt>
<trkpt lat="53.343601" lon="-1.932308"><ele>217</ele><time>2021-10-01T14:01:59Z</time><name>PT7801</name></trkpt>
<trkpt lat="53.343576" lon="-1.932353"><ele>217</ele><time>2021-10-01T14:02:03Z</time><name>PT7802</name></trkpt>
<trkpt lat="53.343552" lon="-1.932392"><ele>217</ele><time>2021-10-01T14:02:06Z</time><name>PT7803</name></trkpt>
<trkpt lat="53.343516" lon="-1.932443"><ele>217</ele><time>2021-10-01T14:02:10Z</time><name>PT7804</name></trkpt>
<trkpt lat="53.343496" lon="-1.932478"><ele>217</ele><time>2021-10-01T14:02:13Z</time><name>PT7805</name></trkpt>
<trkpt lat="53.343474" lon="-1.932535"><ele>215</ele><time>2021-10-01T14:02:17Z</time><name>PT7806</name></trkpt>
<trkpt lat="53.343449" lon="-1.932575"><ele>213</ele><time>2021-10-01T14:02:21Z</time><name>PT7807</name></trkpt>
<trkpt lat="53.343420" lon="-1.932595"><ele>214</ele><time>2021-10-01T14:02:24Z</time><name>PT7808</name></trkpt>
<trkpt lat="53.343382" lon="-1.932631"><ele>214</ele><time>2021-10-01T14:02:28Z</time><name>PT7809</name></trkpt>
<trkpt lat="53.343356" lon="-1.932655"><ele>215</ele><time>2021-10-01T14:02:31Z</time><name>PT7810</name></trkpt>
<trkpt lat="53.343323" lon="-1.932683"><ele>214</ele><time>2021-10-01T14:02:35Z</time><name>PT7811</name></trkpt>
<trkpt lat="53.343295" lon="-1.932721"><ele>214</ele><time>2021-10-01T14:02:38Z</time><name>PT7812</name></trkpt>
<trkpt lat="53.343259" lon="-1.932765"><ele>213</ele><time>2021-10-01T14:02:42Z</time><name>PT7813</name></trkpt>
<trkpt lat="53.343228" lon="-1.932795"><ele>212</ele><time>2021-10-01T14:02:45Z</time><name>PT7814</name></trkpt>
<trkpt lat="53.343197" lon="-1.932839"><ele>211</ele><time>2021-10-01T14:02:49Z</time><name>PT7815</name></trkpt>
<trkpt lat="53.343153" lon="-1.932893"><ele>211</ele><time>2021-10-01T14:02:53Z</time><name>PT7816</name></trkpt>
<trkpt lat="53.343120" lon="-1.932954"><ele>210</ele><time>2021-10-01T14:02:57Z</time><name>PT7817</name></trkpt>
<trkpt lat="53.343091" lon="-1.932982"><ele>210</ele><time>2021-10-01T14:03:00Z</time><name>PT7818</name></trkpt>
<trkpt lat="53.343073" lon="-1.933007"><ele>210</ele><time>2021-10-01T14:03:03Z</time><name>PT7819</name></trkpt>
<trkpt lat="53.343042" lon="-1.933083"><ele>212</ele><time>2021-10-01T14:03:07Z</time><name>PT7820</name></trkpt>
<trkpt lat="53.343023" lon="-1.933139"><ele>212</ele><time>2021-10-01T14:03:10Z</time><name>PT7821</name></trkpt>
<trkpt lat="53.343000" lon="-1.933201"><ele>212</ele><time>2021-10-01T14:03:14Z</time><name>PT7822</name></trkpt>
<trkpt lat="53.342974" lon="-1.933260"><ele>214</ele><time>2021-10-01T14:03:18Z</time><name>PT7823</name></trkpt>
<trkpt lat="53.342945" lon="-1.933298"><ele>213</ele><time>2021-10-01T14:03:22Z</time><name>PT7824</name></trkpt>
<trkpt lat="53.342916" lon="-1.933346"><ele>211</ele><time>2021-10-01T14:03:26Z</time><name>PT7825</name></trkpt>
<trkpt lat="53.342874" lon="-1.933401"><ele>212</ele><time>2021-10-01T14:03:30Z</time><name>PT7826</name></trkpt>
<trkpt lat="53.342845" lon="-1.933439"><ele>211</ele><time>2021-10-01T14:03:33Z</time><name>PT7827</name></trkpt>
<trkpt lat="53.342808" lon="-1.933482"><ele>212</ele><time>2021-10-01T14:03:37Z</time><name>PT7828</name></trkpt>
<trkpt lat="53.342786" lon="-1.933515"><ele>210</ele><time>2021-10-01T14:03:40Z</time><name>PT7829</name></trkpt>
<trkpt lat="53.342761" lon="-1.933566"><ele>211</ele><time>2021-10-01T14:03:44Z</time><name>PT7830</name></trkpt>
<trkpt lat="53.342736" lon="-1.933630"><ele>209</ele><time>2021-10-01T14:03:48Z</time><name>PT7831</name></trkpt>
<trkpt lat="53.342703" lon="-1.933684"><ele>207</ele><time>2021-10-01T14:03:51Z</time><name>PT7832</name></trkpt>
<trkpt lat="53.342661" lon="-1.933760"><ele>207</ele><time>2021-10-01T14:03:55Z</time><name>PT7833</name></trkpt>
<trkpt lat="53.342640" lon="-1.933798"><ele>206</ele><time>2021-10-01T14:03:58Z</time><name>PT7834</name></trkpt>
<trkpt lat="53.342603" lon="-1.933863"><ele>205</ele><time>2021-10-01T14:04:02Z</time><name>PT7835</name></trkpt>
<trkpt lat="53.342575" lon="-1.933923"><ele>206</ele><time>2021-10-01T14:04:06Z</time><name>PT7836</name></trkpt>
<trkpt lat="53.342553" lon="-1.933958"><ele>205</ele><time>2021-10-01T14:04:10Z</time><name>PT7837</name></trkpt>
<trkpt lat="53.342527" lon="-1.933996"><ele>204</ele><time>2021-10-01T14:04:13Z</time><name>PT7838</name></trkpt>
<trkpt lat="53.342498" lon="-1.934029"><ele>204</ele><time>2021-10-01T14:04:16Z</time><name>PT7839</name></trkpt>
<trkpt lat="53.342469" lon="-1.934097"><ele>205</ele><time>2021-10-01T14:04:19Z</time><name>PT7840</name></trkpt>
<trkpt lat="53.342436" lon="-1.934208"><ele>207</ele><time>2021-10-01T14:04:23Z</time><name>PT7841</name></trkpt>
<trkpt lat="53.342399" lon="-1.934276"><ele>207</ele><time>2021-10-01T14:04:27Z</time><name>PT7842</name></trkpt>
<trkpt lat="53.342367" lon="-1.934340"><ele>208</ele><time>2021-10-01T14:04:31Z</time><name>PT7843</name></trkpt>
<trkpt lat="53.342327" lon="-1.934400"><ele>209</ele><time>2021-10-01T14:04:35Z</time><name>PT7844</name></trkpt>
<trkpt lat="53.342297" lon="-1.934448"><ele>210</ele><time>2021-10-01T14:04:38Z</time><name>PT7845</name></trkpt>
<trkpt lat="53.342266" lon="-1.934464"><ele>211</ele><time>2021-10-01T14:04:42Z</time><name>PT7846</name></trkpt>
<trkpt lat="53.342240" lon="-1.934504"><ele>207</ele><time>2021-10-01T14:04:46Z</time><name>PT7847</name></trkpt>
<trkpt lat="53.342215" lon="-1.934530"><ele>208</ele><time>2021-10-01T14:04:49Z</time><name>PT7848</name></trkpt>
<trkpt lat="53.342186" lon="-1.934562"><ele>207</ele><time>2021-10-01T14:04:52Z</time><name>PT7849</name></trkpt>
<trkpt lat="53.342153" lon="-1.934604"><ele>208</ele><time>2021-10-01T14:04:56Z</time><name>PT7850</name></trkpt>
<trkpt lat="53.342127" lon="-1.934672"><ele>208</ele><time>2021-10-01T14:05:00Z</time><name>PT7851</name></trkpt>
<trkpt lat="53.342103" lon="-1.934744"><ele>209</ele><time>2021-10-01T14:05:04Z</time><name>PT7852</name></trkpt>
<trkpt lat="53.342090" lon="-1.934824"><ele>210</ele><time>2021-10-01T14:05:08Z</time><name>PT7853</name></trkpt>
<trkpt lat="53.342076" lon="-1.934857"><ele>209</ele><time>2021-10-01T14:05:11Z</time><name>PT7854</name></trkpt>
<trkpt lat="53.342068" lon="-1.934860"><ele>208</ele><time>2021-10-01T14:05:15Z</time><name>PT7855</name></trkpt>
<trkpt lat="53.342045" lon="-1.934908"><ele>209</ele><time>2021-10-01T14:05:16Z</time><name>PT7856</name></trkpt>
<trkpt lat="53.342033" lon="-1.934925"><ele>209</ele><time>2021-10-01T14:05:17Z</time><name>PT7857</name></trkpt>
<trkpt lat="53.342027" lon="-1.934929"><ele>209</ele><time>2021-10-01T14:05:18Z</time><name>PT7858</name></trkpt>
<trkpt lat="53.342024" lon="-1.934935"><ele>209</ele><time>2021-10-01T14:05:19Z</time><name>PT7859</name></trkpt>
<trkpt lat="53.342026" lon="-1.934933"><ele>208</ele><time>2021-10-01T14:05:23Z</time><name>PT7860</name></trkpt>
<trkpt lat="53.342028" lon="-1.934934"><ele>208</ele><time>2021-10-01T14:05:24Z</time><name>PT7861</name></trkpt>
<trkpt lat="53.342027" lon="-1.934938"><ele>208</ele><time>2021-10-01T14:05:45Z</time><name>PT7862</name></trkpt>
<trkpt lat="53.342031" lon="-1.934945"><ele>208</ele><time>2021-10-01T14:05:46Z</time><name>PT7863</name></trkpt>
<trkpt lat="53.342036" lon="-1.934955"><ele>208</ele><time>2021-10-01T14:05:47Z</time><name>PT7864</name></trkpt>
<trkpt lat="53.342038" lon="-1.934957"><ele>207</ele><time>2021-10-01T14:05:48Z</time><name>PT7865</name></trkpt>
<trkpt lat="53.342042" lon="-1.934979"><ele>207</ele><time>2021-10-01T14:05:49Z</time><name>PT7866</name></trkpt>
<trkpt lat="53.342048" lon="-1.934993"><ele>208</ele><time>2021-10-01T14:05:50Z</time><name>PT7867</name></trkpt>
<trkpt lat="53.342052" lon="-1.934997"><ele>207</ele><time>2021-10-01T14:05:51Z</time><name>PT7868</name></trkpt>
<trkpt lat="53.342052" lon="-1.934999"><ele>207</ele><time>2021-10-01T14:05:52Z</time><name>PT7869</name></trkpt>
<trkpt lat="53.342053" lon="-1.935000"><ele>208</ele><time>2021-10-01T14:05:53Z</time><name>PT7870</name></trkpt>
<trkpt lat="53.342054" lon="-1.934996"><ele>207</ele><time>2021-10-01T14:05:54Z</time><name>PT7871</name></trkpt>
<trkpt lat="53.342053" lon="-1.934994"><ele>207</ele><time>2021-10-01T14:05:55Z</time><name>PT7872</name></trkpt>
<trkpt lat="53.342055" lon="-1.934995"><ele>208</ele><time>2021-10-01T14:05:56Z</time><name>PT7873</name></trkpt>
<trkpt lat="53.342055" lon="-1.935000"><ele>207</ele><time>2021-10-01T14:05:57Z</time><name>PT7874</name></trkpt>
<trkpt lat="53.342057" lon="-1.935003"><ele>208</ele><time>2021-10-01T14:05:58Z</time><name>PT7875</name></trkpt>
<trkpt lat="53.342058" lon="-1.935005"><ele>208</ele><time>2021-10-01T14:05:59Z</time><name>PT7876</name></trkpt>
<trkpt lat="53.342059" lon="-1.935006"><ele>208</ele><time>2021-10-01T14:06:00Z</time><name>PT7877</name></trkpt>
<trkpt lat="53.342057" lon="-1.935011"><ele>208</ele><time>2021-10-01T14:06:32Z</time><name>PT7878</name></trkpt>
<trkpt lat="53.342058" lon="-1.935006"><ele>208</ele><time>2021-10-01T14:06:33Z</time><name>PT7879</name></trkpt>
<trkpt lat="53.342059" lon="-1.935008"><ele>207</ele><time>2021-10-01T14:06:34Z</time><name>PT7880</name></trkpt>
<trkpt lat="53.342059" lon="-1.935012"><ele>207</ele><time>2021-10-01T14:06:35Z</time><name>PT7881</name></trkpt>
<trkpt lat="53.342061" lon="-1.935013"><ele>207</ele><time>2021-10-01T14:06:36Z</time><name>PT7882</name></trkpt>
<trkpt lat="53.342064" lon="-1.935013"><ele>207</ele><time>2021-10-01T14:06:44Z</time><name>PT7883</name></trkpt>
<trkpt lat="53.342059" lon="-1.935007"><ele>207</ele><time>2021-10-01T14:06:45Z</time><name>PT7884</name></trkpt>
<trkpt lat="53.342051" lon="-1.935008"><ele>207</ele><time>2021-10-01T14:06:46Z</time><name>PT7885</name></trkpt>
<trkpt lat="53.342020" lon="-1.935019"><ele>207</ele><time>2021-10-01T14:06:47Z</time><name>PT7886</name></trkpt>
<trkpt lat="53.342010" lon="-1.935021"><ele>208</ele><time>2021-10-01T14:06:48Z</time><name>PT7887</name></trkpt>
<trkpt lat="53.341995" lon="-1.935027"><ele>207</ele><time>2021-10-01T14:06:49Z</time><name>PT7888</name></trkpt>
<trkpt lat="53.341980" lon="-1.935029"><ele>207</ele><time>2021-10-01T14:06:50Z</time><name>PT7889</name></trkpt>
<trkpt lat="53.341971" lon="-1.935037"><ele>207</ele><time>2021-10-01T14:06:51Z</time><name>PT7890</name></trkpt>
<trkpt lat="53.341962" lon="-1.935051"><ele>207</ele><time>2021-10-01T14:06:52Z</time><name>PT7891</name></trkpt>
<trkpt lat="53.341953" lon="-1.935061"><ele>206</ele><time>2021-10-01T14:06:53Z</time><name>PT7892</name></trkpt>
<trkpt lat="53.341947" lon="-1.935067"><ele>205</ele><time>2021-10-01T14:06:54Z</time><name>PT7893</name></trkpt>
<trkpt lat="53.341940" lon="-1.935082"><ele>206</ele><time>2021-10-01T14:06:55Z</time><name>PT7894</name></trkpt>
<trkpt lat="53.341929" lon="-1.935089"><ele>206</ele><time>2021-10-01T14:06:56Z</time><name>PT7895</name></trkpt>
<trkpt lat="53.341923" lon="-1.935099"><ele>206</ele><time>2021-10-01T14:06:57Z</time><name>PT7896</name></trkpt>
<trkpt lat="53.341917" lon="-1.935116"><ele>206</ele><time>2021-10-01T14:06:58Z</time><name>PT7897</name></trkpt>
<trkpt lat="53.341911" lon="-1.935124"><ele>206</ele><time>2021-10-01T14:06:59Z</time><name>PT7898</name></trkpt>
<trkpt lat="53.341901" lon="-1.935139"><ele>205</ele><time>2021-10-01T14:07:00Z</time><name>PT7899</name></trkpt>
<trkpt lat="53.341897" lon="-1.935147"><ele>205</ele><time>2021-10-01T14:07:01Z</time><name>PT7900</name></trkpt>
<trkpt lat="53.341896" lon="-1.935155"><ele>204</ele><time>2021-10-01T14:07:02Z</time><name>PT7901</name></trkpt>
<trkpt lat="53.341888" lon="-1.935170"><ele>204</ele><time>2021-10-01T14:07:03Z</time><name>PT7902</name></trkpt>
<trkpt lat="53.341879" lon="-1.935182"><ele>204</ele><time>2021-10-01T14:07:04Z</time><name>PT7903</name></trkpt>
<trkpt lat="53.341865" lon="-1.935202"><ele>204</ele><time>2021-10-01T14:07:05Z</time><name>PT7904</name></trkpt>
<trkpt lat="53.341855" lon="-1.935217"><ele>205</ele><time>2021-10-01T14:07:06Z</time><name>PT7905</name></trkpt>
<trkpt lat="53.341843" lon="-1.935222"><ele>205</ele><time>2021-10-01T14:07:07Z</time><name>PT7906</name></trkpt>
<trkpt lat="53.341834" lon="-1.935232"><ele>204</ele><time>2021-10-01T14:07:08Z</time><name>PT7907</name></trkpt>
<trkpt lat="53.341824" lon="-1.935238"><ele>204</ele><time>2021-10-01T14:07:09Z</time><name>PT7908</name></trkpt>
<trkpt lat="53.341815" lon="-1.935250"><ele>204</ele><time>2021-10-01T14:07:10Z</time><name>PT7909</name></trkpt>
<trkpt lat="53.341803" lon="-1.935263"><ele>204</ele><time>2021-10-01T14:07:11Z</time><name>PT7910</name></trkpt>
<trkpt lat="53.341793" lon="-1.935280"><ele>204</ele><time>2021-10-01T14:07:12Z</time><name>PT7911</name></trkpt>
<trkpt lat="53.341780" lon="-1.935282"><ele>204</ele><time>2021-10-01T14:07:13Z</time><name>PT7912</name></trkpt>
<trkpt lat="53.341771" lon="-1.935293"><ele>203</ele><time>2021-10-01T14:07:14Z</time><name>PT7913</name></trkpt>
<trkpt lat="53.341760" lon="-1.935307"><ele>203</ele><time>2021-10-01T14:07:15Z</time><name>PT7914</name></trkpt>
<trkpt lat="53.341751" lon="-1.935322"><ele>203</ele><time>2021-10-01T14:07:16Z</time><name>PT7915</name></trkpt>
<trkpt lat="53.341743" lon="-1.935333"><ele>203</ele><time>2021-10-01T14:07:17Z</time><name>PT7916</name></trkpt>
<trkpt lat="53.341738" lon="-1.935345"><ele>203</ele><time>2021-10-01T14:07:18Z</time><name>PT7917</name></trkpt>
<trkpt lat="53.341728" lon="-1.935365"><ele>203</ele><time>2021-10-01T14:07:19Z</time><name>PT7918</name></trkpt>
<trkpt lat="53.341718" lon="-1.935390"><ele>202</ele><time>2021-10-01T14:07:20Z</time><name>PT7919</name></trkpt>
<trkpt lat="53.341708" lon="-1.935401"><ele>203</ele><time>2021-10-01T14:07:21Z</time><name>PT7920</name></trkpt>
<trkpt lat="53.341696" lon="-1.935418"><ele>203</ele><time>2021-10-01T14:07:22Z</time><name>PT7921</name></trkpt>
<trkpt lat="53.341686" lon="-1.935434"><ele>202</ele><time>2021-10-01T14:07:23Z</time><name>PT7922</name></trkpt>
<trkpt lat="53.341674" lon="-1.935448"><ele>203</ele><time>2021-10-01T14:07:24Z</time><name>PT7923</name></trkpt>
<trkpt lat="53.341663" lon="-1.935475"><ele>203</ele><time>2021-10-01T14:07:25Z</time><name>PT7924</name></trkpt>
<trkpt lat="53.341647" lon="-1.935493"><ele>203</ele><time>2021-10-01T14:07:26Z</time><name>PT7925</name></trkpt>
<trkpt lat="53.341634" lon="-1.935511"><ele>203</ele><time>2021-10-01T14:07:27Z</time><name>PT7926</name></trkpt>
<trkpt lat="53.341617" lon="-1.935534"><ele>202</ele><time>2021-10-01T14:07:28Z</time><name>PT7927</name></trkpt>
<trkpt lat="53.341604" lon="-1.935550"><ele>201</ele><time>2021-10-01T14:07:29Z</time><name>PT7928</name></trkpt>
<trkpt lat="53.341597" lon="-1.935568"><ele>201</ele><time>2021-10-01T14:07:30Z</time><name>PT7929</name></trkpt>
<trkpt lat="53.341585" lon="-1.935584"><ele>201</ele><time>2021-10-01T14:07:31Z</time><name>PT7930</name></trkpt>
<trkpt lat="53.341579" lon="-1.935594"><ele>200</ele><time>2021-10-01T14:07:32Z</time><name>PT7931</name></trkpt>
<trkpt lat="53.341569" lon="-1.935600"><ele>200</ele><time>2021-10-01T14:07:33Z</time><name>PT7932</name></trkpt>
<trkpt lat="53.341555" lon="-1.935604"><ele>200</ele><time>2021-10-01T14:07:34Z</time><name>PT7933</name></trkpt>
<trkpt lat="53.341544" lon="-1.935611"><ele>200</ele><time>2021-10-01T14:07:35Z</time><name>PT7934</name></trkpt>
<trkpt lat="53.341533" lon="-1.935615"><ele>200</ele><time>2021-10-01T14:07:36Z</time><name>PT7935</name></trkpt>
<trkpt lat="53.341521" lon="-1.935622"><ele>200</ele><time>2021-10-01T14:07:37Z</time><name>PT7936</name></trkpt>
<trkpt lat="53.341518" lon="-1.935634"><ele>200</ele><time>2021-10-01T14:07:38Z</time><name>PT7937</name></trkpt>
<trkpt lat="53.341503" lon="-1.935652"><ele>201</ele><time>2021-10-01T14:07:39Z</time><name>PT7938</name></trkpt>
<trkpt lat="53.341487" lon="-1.935665"><ele>200</ele><time>2021-10-01T14:07:40Z</time><name>PT7939</name></trkpt>
<trkpt lat="53.341481" lon="-1.935664"><ele>200</ele><time>2021-10-01T14:07:41Z</time><name>PT7940</name></trkpt>
<trkpt lat="53.341466" lon="-1.935697"><ele>200</ele><time>2021-10-01T14:07:42Z</time><name>PT7941</name></trkpt>
<trkpt lat="53.341454" lon="-1.935733"><ele>200</ele><time>2021-10-01T14:07:43Z</time><name>PT7942</name></trkpt>
<trkpt lat="53.341436" lon="-1.935741"><ele>200</ele><time>2021-10-01T14:07:44Z</time><name>PT7943</name></trkpt>
<trkpt lat="53.341413" lon="-1.935751"><ele>200</ele><time>2021-10-01T14:07:45Z</time><name>PT7944</name></trkpt>
<trkpt lat="53.341388" lon="-1.935748"><ele>199</ele><time>2021-10-01T14:07:46Z</time><name>PT7945</name></trkpt>
<trkpt lat="53.341369" lon="-1.935748"><ele>199</ele><time>2021-10-01T14:07:47Z</time><name>PT7946</name></trkpt>
<trkpt lat="53.341337" lon="-1.935756"><ele>199</ele><time>2021-10-01T14:07:48Z</time><name>PT7947</name></trkpt>
<trkpt lat="53.341290" lon="-1.935793"><ele>200</ele><time>2021-10-01T14:07:49Z</time><name>PT7948</name></trkpt>
<trkpt lat="53.341291" lon="-1.935802"><ele>200</ele><time>2021-10-01T14:07:50Z</time><name>PT7949</name></trkpt>
<trkpt lat="53.341259" lon="-1.935794"><ele>206</ele><time>2021-10-01T14:07:51Z</time><name>PT7950</name></trkpt>
<trkpt lat="53.341260" lon="-1.935797"><ele>200</ele><time>2021-10-01T14:07:52Z</time><name>PT7951</name></trkpt>
<trkpt lat="53.341255" lon="-1.935791"><ele>199</ele><time>2021-10-01T14:07:53Z</time><name>PT7952</name></trkpt>
<trkpt lat="53.341238" lon="-1.935769"><ele>200</ele><time>2021-10-01T14:07:54Z</time><name>PT7953</name></trkpt>
<trkpt lat="53.341231" lon="-1.935752"><ele>201</ele><time>2021-10-01T14:07:55Z</time><name>PT7954</name></trkpt>
<trkpt lat="53.341211" lon="-1.935726"><ele>202</ele><time>2021-10-01T14:07:56Z</time><name>PT7955</name></trkpt>
<trkpt lat="53.341193" lon="-1.935710"><ele>203</ele><time>2021-10-01T14:07:57Z</time><name>PT7956</name></trkpt>
<trkpt lat="53.341176" lon="-1.935694"><ele>205</ele><time>2021-10-01T14:07:58Z</time><name>PT7957</name></trkpt>
<trkpt lat="53.341160" lon="-1.935681"><ele>205</ele><time>2021-10-01T14:07:59Z</time><name>PT7958</name></trkpt>
<trkpt lat="53.341147" lon="-1.935671"><ele>205</ele><time>2021-10-01T14:08:00Z</time><name>PT7959</name></trkpt>
<trkpt lat="53.341136" lon="-1.935659"><ele>205</ele><time>2021-10-01T14:08:01Z</time><name>PT7960</name></trkpt>
<trkpt lat="53.341127" lon="-1.935646"><ele>205</ele><time>2021-10-01T14:08:02Z</time><name>PT7961</name></trkpt>
<trkpt lat="53.341117" lon="-1.935631"><ele>205</ele><time>2021-10-01T14:08:03Z</time><name>PT7962</name></trkpt>
<trkpt lat="53.341107" lon="-1.935616"><ele>205</ele><time>2021-10-01T14:08:04Z</time><name>PT7963</name></trkpt>
<trkpt lat="53.341099" lon="-1.935590"><ele>206</ele><time>2021-10-01T14:08:05Z</time><name>PT7964</name></trkpt>
<trkpt lat="53.341085" lon="-1.935572"><ele>207</ele><time>2021-10-01T14:08:06Z</time><name>PT7965</name></trkpt>
<trkpt lat="53.341076" lon="-1.935558"><ele>207</ele><time>2021-10-01T14:08:07Z</time><name>PT7966</name></trkpt>
<trkpt lat="53.341066" lon="-1.935548"><ele>207</ele><time>2021-10-01T14:08:08Z</time><name>PT7967</name></trkpt>
<trkpt lat="53.341054" lon="-1.935532"><ele>206</ele><time>2021-10-01T14:08:09Z</time><name>PT7968</name></trkpt>
<trkpt lat="53.341040" lon="-1.935520"><ele>206</ele><time>2021-10-01T14:08:10Z</time><name>PT7969</name></trkpt>
<trkpt lat="53.341029" lon="-1.935504"><ele>206</ele><time>2021-10-01T14:08:11Z</time><name>PT7970</name></trkpt>
<trkpt lat="53.341024" lon="-1.935483"><ele>206</ele><time>2021-10-01T14:08:12Z</time><name>PT7971</name></trkpt>
<trkpt lat="53.341016" lon="-1.935463"><ele>206</ele><time>2021-10-01T14:08:13Z</time><name>PT7972</name></trkpt>
<trkpt lat="53.341009" lon="-1.935449"><ele>205</ele><time>2021-10-01T14:08:14Z</time><name>PT7973</name></trkpt>
<trkpt lat="53.340996" lon="-1.935431"><ele>205</ele><time>2021-10-01T14:08:15Z</time><name>PT7974</name></trkpt>
<trkpt lat="53.340984" lon="-1.935413"><ele>204</ele><time>2021-10-01T14:08:16Z</time><name>PT7975</name></trkpt>
<trkpt lat="53.340971" lon="-1.935401"><ele>205</ele><time>2021-10-01T14:08:17Z</time><name>PT7976</name></trkpt>
<trkpt lat="53.340962" lon="-1.935389"><ele>206</ele><time>2021-10-01T14:08:18Z</time><name>PT7977</name></trkpt>
<trkpt lat="53.340950" lon="-1.935379"><ele>206</ele><time>2021-10-01T14:08:19Z</time><name>PT7978</name></trkpt>
<trkpt lat="53.340938" lon="-1.935371"><ele>206</ele><time>2021-10-01T14:08:20Z</time><name>PT7979</name></trkpt>
<trkpt lat="53.340923" lon="-1.935360"><ele>206</ele><time>2021-10-01T14:08:21Z</time><name>PT7980</name></trkpt>
<trkpt lat="53.340914" lon="-1.935349"><ele>204</ele><time>2021-10-01T14:08:22Z</time><name>PT7981</name></trkpt>
<trkpt lat="53.340902" lon="-1.935340"><ele>203</ele><time>2021-10-01T14:08:23Z</time><name>PT7982</name></trkpt>
<trkpt lat="53.340896" lon="-1.935330"><ele>201</ele><time>2021-10-01T14:08:24Z</time><name>PT7983</name></trkpt>
<trkpt lat="53.340887" lon="-1.935321"><ele>200</ele><time>2021-10-01T14:08:25Z</time><name>PT7984</name></trkpt>
<trkpt lat="53.340874" lon="-1.935305"><ele>201</ele><time>2021-10-01T14:08:26Z</time><name>PT7985</name></trkpt>
<trkpt lat="53.340862" lon="-1.935295"><ele>201</ele><time>2021-10-01T14:08:27Z</time><name>PT7986</name></trkpt>
<trkpt lat="53.340850" lon="-1.935284"><ele>202</ele><time>2021-10-01T14:08:28Z</time><name>PT7987</name></trkpt>
<trkpt lat="53.340836" lon="-1.935273"><ele>202</ele><time>2021-10-01T14:08:29Z</time><name>PT7988</name></trkpt>
<trkpt lat="53.340818" lon="-1.935260"><ele>203</ele><time>2021-10-01T14:08:30Z</time><name>PT7989</name></trkpt>
<trkpt lat="53.340803" lon="-1.935246"><ele>205</ele><time>2021-10-01T14:08:31Z</time><name>PT7990</name></trkpt>
<trkpt lat="53.340792" lon="-1.935233"><ele>205</ele><time>2021-10-01T14:08:32Z</time><name>PT7991</name></trkpt>
<trkpt lat="53.340780" lon="-1.935222"><ele>205</ele><time>2021-10-01T14:08:33Z</time><name>PT7992</name></trkpt>
<trkpt lat="53.340768" lon="-1.935215"><ele>205</ele><time>2021-10-01T14:08:34Z</time><name>PT7993</name></trkpt>
<trkpt lat="53.340755" lon="-1.935206"><ele>205</ele><time>2021-10-01T14:08:35Z</time><name>PT7994</name></trkpt>
<trkpt lat="53.340742" lon="-1.935200"><ele>205</ele><time>2021-10-01T14:08:36Z</time><name>PT7995</name></trkpt>
<trkpt lat="53.340728" lon="-1.935193"><ele>205</ele><time>2021-10-01T14:08:37Z</time><name>PT7996</name></trkpt>
<trkpt lat="53.340715" lon="-1.935192"><ele>205</ele><time>2021-10-01T14:08:38Z</time><name>PT7997</name></trkpt>
<trkpt lat="53.340700" lon="-1.935185"><ele>205</ele><time>2021-10-01T14:08:39Z</time><name>PT7998</name></trkpt>
<trkpt lat="53.340686" lon="-1.935173"><ele>205</ele><time>2021-10-01T14:08:40Z</time><name>PT7999</name></trkpt>
<trkpt lat="53.340674" lon="-1.935166"><ele>205</ele><time>2021-10-01T14:08:41Z</time><name>PT8000</name></trkpt>
<trkpt lat="53.340662" lon="-1.935159"><ele>205</ele><time>2021-10-01T14:08:42Z</time><name>PT8001</name></trkpt>
<trkpt lat="53.340647" lon="-1.935156"><ele>204</ele><time>2021-10-01T14:08:43Z</time><name>PT8002</name></trkpt>
<trkpt lat="53.340635" lon="-1.935146"><ele>204</ele><time>2021-10-01T14:08:44Z</time><name>PT8003</name></trkpt>
<trkpt lat="53.340624" lon="-1.935142"><ele>204</ele><time>2021-10-01T14:08:45Z</time><name>PT8004</name></trkpt>
<trkpt lat="53.340609" lon="-1.935140"><ele>204</ele><time>2021-10-01T14:08:46Z</time><name>PT8005</name></trkpt>
<trkpt lat="53.340594" lon="-1.935133"><ele>204</ele><time>2021-10-01T14:08:47Z</time><name>PT8006</name></trkpt>
<trkpt lat="53.340583" lon="-1.935125"><ele>204</ele><time>2021-10-01T14:08:48Z</time><name>PT8007</name></trkpt>
<trkpt lat="53.340569" lon="-1.935114"><ele>203</ele><time>2021-10-01T14:08:49Z</time><name>PT8008</name></trkpt>
<trkpt lat="53.340555" lon="-1.935109"><ele>203</ele><time>2021-10-01T14:08:50Z</time><name>PT8009</name></trkpt>
<trkpt lat="53.340543" lon="-1.935101"><ele>203</ele><time>2021-10-01T14:08:51Z</time><name>PT8010</name></trkpt>
<trkpt lat="53.340530" lon="-1.935098"><ele>203</ele><time>2021-10-01T14:08:52Z</time><name>PT8011</name></trkpt>
<trkpt lat="53.340516" lon="-1.935099"><ele>203</ele><time>2021-10-01T14:08:53Z</time><name>PT8012</name></trkpt>
<trkpt lat="53.340501" lon="-1.935100"><ele>203</ele><time>2021-10-01T14:08:54Z</time><name>PT8013</name></trkpt>
<trkpt lat="53.340489" lon="-1.935106"><ele>203</ele><time>2021-10-01T14:08:55Z</time><name>PT8014</name></trkpt>
<trkpt lat="53.340477" lon="-1.935107"><ele>202</ele><time>2021-10-01T14:08:56Z</time><name>PT8015</name></trkpt>
<trkpt lat="53.340463" lon="-1.935107"><ele>202</ele><time>2021-10-01T14:08:57Z</time><name>PT8016</name></trkpt>
<trkpt lat="53.340446" lon="-1.935104"><ele>203</ele><time>2021-10-01T14:08:58Z</time><name>PT8017</name></trkpt>
<trkpt lat="53.340431" lon="-1.935100"><ele>203</ele><time>2021-10-01T14:08:59Z</time><name>PT8018</name></trkpt>
<trkpt lat="53.340419" lon="-1.935097"><ele>203</ele><time>2021-10-01T14:09:00Z</time><name>PT8019</name></trkpt>
<trkpt lat="53.340407" lon="-1.935096"><ele>203</ele><time>2021-10-01T14:09:01Z</time><name>PT8020</name></trkpt>
<trkpt lat="53.340394" lon="-1.935094"><ele>202</ele><time>2021-10-01T14:09:02Z</time><name>PT8021</name></trkpt>
<trkpt lat="53.340380" lon="-1.935095"><ele>202</ele><time>2021-10-01T14:09:03Z</time><name>PT8022</name></trkpt>
<trkpt lat="53.340368" lon="-1.935091"><ele>202</ele><time>2021-10-01T14:09:04Z</time><name>PT8023</name></trkpt>
<trkpt lat="53.340358" lon="-1.935089"><ele>202</ele><time>2021-10-01T14:09:05Z</time><name>PT8024</name></trkpt>
<trkpt lat="53.340344" lon="-1.935087"><ele>202</ele><time>2021-10-01T14:09:06Z</time><name>PT8025</name></trkpt>
<trkpt lat="53.340326" lon="-1.935087"><ele>202</ele><time>2021-10-01T14:09:07Z</time><name>PT8026</name></trkpt>
<trkpt lat="53.340312" lon="-1.935085"><ele>202</ele><time>2021-10-01T14:09:08Z</time><name>PT8027</name></trkpt>
<trkpt lat="53.340300" lon="-1.935081"><ele>202</ele><time>2021-10-01T14:09:09Z</time><name>PT8028</name></trkpt>
<trkpt lat="53.340285" lon="-1.935075"><ele>203</ele><time>2021-10-01T14:09:10Z</time><name>PT8029</name></trkpt>
<trkpt lat="53.340274" lon="-1.935073"><ele>203</ele><time>2021-10-01T14:09:11Z</time><name>PT8030</name></trkpt>
<trkpt lat="53.340267" lon="-1.935087"><ele>203</ele><time>2021-10-01T14:09:12Z</time><name>PT8031</name></trkpt>
<trkpt lat="53.340261" lon="-1.935099"><ele>203</ele><time>2021-10-01T14:09:13Z</time><name>PT8032</name></trkpt>
<trkpt lat="53.340263" lon="-1.935111"><ele>204</ele><time>2021-10-01T14:09:14Z</time><name>PT8033</name></trkpt>
<trkpt lat="53.340263" lon="-1.935132"><ele>203</ele><time>2021-10-01T14:09:15Z</time><name>PT8034</name></trkpt>
<trkpt lat="53.340264" lon="-1.935152"><ele>203</ele><time>2021-10-01T14:09:16Z</time><name>PT8035</name></trkpt>
<trkpt lat="53.340264" lon="-1.935166"><ele>203</ele><time>2021-10-01T14:09:17Z</time><name>PT8036</name></trkpt>
<trkpt lat="53.340267" lon="-1.935182"><ele>203</ele><time>2021-10-01T14:09:18Z</time><name>PT8037</name></trkpt>
<trkpt lat="53.340270" lon="-1.935205"><ele>202</ele><time>2021-10-01T14:09:19Z</time><name>PT8038</name></trkpt>
<trkpt lat="53.340272" lon="-1.935227"><ele>202</ele><time>2021-10-01T14:09:20Z</time><name>PT8039</name></trkpt>
<trkpt lat="53.340270" lon="-1.935251"><ele>201</ele><time>2021-10-01T14:09:21Z</time><name>PT8040</name></trkpt>
<trkpt lat="53.340270" lon="-1.935269"><ele>201</ele><time>2021-10-01T14:09:22Z</time><name>PT8041</name></trkpt>
<trkpt lat="53.340272" lon="-1.935289"><ele>201</ele><time>2021-10-01T14:09:23Z</time><name>PT8042</name></trkpt>
<trkpt lat="53.340273" lon="-1.935306"><ele>200</ele><time>2021-10-01T14:09:24Z</time><name>PT8043</name></trkpt>
<trkpt lat="53.340276" lon="-1.935329"><ele>200</ele><time>2021-10-01T14:09:25Z</time><name>PT8044</name></trkpt>
<trkpt lat="53.340276" lon="-1.935349"><ele>200</ele><time>2021-10-01T14:09:26Z</time><name>PT8045</name></trkpt>
<trkpt lat="53.340275" lon="-1.935364"><ele>201</ele><time>2021-10-01T14:09:27Z</time><name>PT8046</name></trkpt>
<trkpt lat="53.340276" lon="-1.935389"><ele>200</ele><time>2021-10-01T14:09:28Z</time><name>PT8047</name></trkpt>
<trkpt lat="53.340279" lon="-1.935408"><ele>200</ele><time>2021-10-01T14:09:29Z</time><name>PT8048</name></trkpt>
<trkpt lat="53.340280" lon="-1.935424"><ele>200</ele><time>2021-10-01T14:09:30Z</time><name>PT8049</name></trkpt>
<trkpt lat="53.340283" lon="-1.935447"><ele>199</ele><time>2021-10-01T14:09:31Z</time><name>PT8050</name></trkpt>
<trkpt lat="53.340286" lon="-1.935467"><ele>200</ele><time>2021-10-01T14:09:32Z</time><name>PT8051</name></trkpt>
<trkpt lat="53.340289" lon="-1.935490"><ele>200</ele><time>2021-10-01T14:09:33Z</time><name>PT8052</name></trkpt>
<trkpt lat="53.340293" lon="-1.935509"><ele>201</ele><time>2021-10-01T14:09:34Z</time><name>PT8053</name></trkpt>
<trkpt lat="53.340295" lon="-1.935528"><ele>201</ele><time>2021-10-01T14:09:35Z</time><name>PT8054</name></trkpt>
<trkpt lat="53.340294" lon="-1.935543"><ele>201</ele><time>2021-10-01T14:09:36Z</time><name>PT8055</name></trkpt>
<trkpt lat="53.340295" lon="-1.935560"><ele>201</ele><time>2021-10-01T14:09:37Z</time><name>PT8056</name></trkpt>
<trkpt lat="53.340291" lon="-1.935580"><ele>201</ele><time>2021-10-01T14:09:38Z</time><name>PT8057</name></trkpt>
<trkpt lat="53.340290" lon="-1.935593"><ele>201</ele><time>2021-10-01T14:09:39Z</time><name>PT8058</name></trkpt>
<trkpt lat="53.340297" lon="-1.935612"><ele>200</ele><time>2021-10-01T14:09:40Z</time><name>PT8059</name></trkpt>
<trkpt lat="53.340307" lon="-1.935629"><ele>201</ele><time>2021-10-01T14:09:41Z</time><name>PT8060</name></trkpt>
<trkpt lat="53.340308" lon="-1.935645"><ele>203</ele><time>2021-10-01T14:09:42Z</time><name>PT8061</name></trkpt>
<trkpt lat="53.340310" lon="-1.935667"><ele>202</ele><time>2021-10-01T14:09:43Z</time><name>PT8062</name></trkpt>
<trkpt lat="53.340316" lon="-1.935672"><ele>202</ele><time>2021-10-01T14:09:44Z</time><name>PT8063</name></trkpt>
<trkpt lat="53.340324" lon="-1.935681"><ele>202</ele><time>2021-10-01T14:09:45Z</time><name>PT8064</name></trkpt>
<trkpt lat="53.340321" lon="-1.935707"><ele>201</ele><time>2021-10-01T14:09:46Z</time><name>PT8065</name></trkpt>
<trkpt lat="53.340322" lon="-1.935737"><ele>200</ele><time>2021-10-01T14:09:47Z</time><name>PT8066</name></trkpt>
<trkpt lat="53.340319" lon="-1.935763"><ele>199</ele><time>2021-10-01T14:09:48Z</time><name>PT8067</name></trkpt>
<trkpt lat="53.340320" lon="-1.935788"><ele>199</ele><time>2021-10-01T14:09:49Z</time><name>PT8068</name></trkpt>
<trkpt lat="53.340319" lon="-1.935811"><ele>198</ele><time>2021-10-01T14:09:50Z</time><name>PT8069</name></trkpt>
<trkpt lat="53.340316" lon="-1.935830"><ele>198</ele><time>2021-10-01T14:09:51Z</time><name>PT8070</name></trkpt>
<trkpt lat="53.340319" lon="-1.935852"><ele>198</ele><time>2021-10-01T14:09:52Z</time><name>PT8071</name></trkpt>
<trkpt lat="53.340326" lon="-1.935871"><ele>198</ele><time>2021-10-01T14:09:53Z</time><name>PT8072</name></trkpt>
<trkpt lat="53.340330" lon="-1.935893"><ele>199</ele><time>2021-10-01T14:09:54Z</time><name>PT8073</name></trkpt>
<trkpt lat="53.340334" lon="-1.935914"><ele>199</ele><time>2021-10-01T14:09:55Z</time><name>PT8074</name></trkpt>
<trkpt lat="53.340338" lon="-1.935933"><ele>199</ele><time>2021-10-01T14:09:56Z</time><name>PT8075</name></trkpt>
<trkpt lat="53.340339" lon="-1.935956"><ele>200</ele><time>2021-10-01T14:09:57Z</time><name>PT8076</name></trkpt>
<trkpt lat="53.340342" lon="-1.935974"><ele>200</ele><time>2021-10-01T14:09:58Z</time><name>PT8077</name></trkpt>
<trkpt lat="53.340343" lon="-1.935993"><ele>199</ele><time>2021-10-01T14:09:59Z</time><name>PT8078</name></trkpt>
<trkpt lat="53.340343" lon="-1.936011"><ele>199</ele><time>2021-10-01T14:10:00Z</time><name>PT8079</name></trkpt>
<trkpt lat="53.340343" lon="-1.936031"><ele>199</ele><time>2021-10-01T14:10:01Z</time><name>PT8080</name></trkpt>
<trkpt lat="53.340342" lon="-1.936049"><ele>199</ele><time>2021-10-01T14:10:02Z</time><name>PT8081</name></trkpt>
<trkpt lat="53.340345" lon="-1.936068"><ele>199</ele><time>2021-10-01T14:10:03Z</time><name>PT8082</name></trkpt>
<trkpt lat="53.340348" lon="-1.936087"><ele>199</ele><time>2021-10-01T14:10:04Z</time><name>PT8083</name></trkpt>
<trkpt lat="53.340346" lon="-1.936110"><ele>199</ele><time>2021-10-01T14:10:05Z</time><name>PT8084</name></trkpt>
<trkpt lat="53.340346" lon="-1.936131"><ele>199</ele><time>2021-10-01T14:10:06Z</time><name>PT8085</name></trkpt>
<trkpt lat="53.340343" lon="-1.936152"><ele>199</ele><time>2021-10-01T14:10:07Z</time><name>PT8086</name></trkpt>
<trkpt lat="53.340342" lon="-1.936173"><ele>200</ele><time>2021-10-01T14:10:08Z</time><name>PT8087</name></trkpt>
<trkpt lat="53.340342" lon="-1.936192"><ele>199</ele><time>2021-10-01T14:10:09Z</time><name>PT8088</name></trkpt>
<trkpt lat="53.340343" lon="-1.936211"><ele>199</ele><time>2021-10-01T14:10:10Z</time><name>PT8089</name></trkpt>
<trkpt lat="53.340342" lon="-1.936236"><ele>200</ele><time>2021-10-01T14:10:11Z</time><name>PT8090</name></trkpt>
<trkpt lat="53.340343" lon="-1.936253"><ele>200</ele><time>2021-10-01T14:10:12Z</time><name>PT8091</name></trkpt>
<trkpt lat="53.340345" lon="-1.936270"><ele>200</ele><time>2021-10-01T14:10:13Z</time><name>PT8092</name></trkpt>
<trkpt lat="53.340346" lon="-1.936288"><ele>200</ele><time>2021-10-01T14:10:14Z</time><name>PT8093</name></trkpt>
<trkpt lat="53.340346" lon="-1.936307"><ele>201</ele><time>2021-10-01T14:10:15Z</time><name>PT8094</name></trkpt>
<trkpt lat="53.340348" lon="-1.936326"><ele>201</ele><time>2021-10-01T14:10:16Z</time><name>PT8095</name></trkpt>
<trkpt lat="53.340348" lon="-1.936342"><ele>200</ele><time>2021-10-01T14:10:17Z</time><name>PT8096</name></trkpt>
<trkpt lat="53.340346" lon="-1.936358"><ele>200</ele><time>2021-10-01T14:10:18Z</time><name>PT8097</name></trkpt>
<trkpt lat="53.340344" lon="-1.936380"><ele>200</ele><time>2021-10-01T14:10:19Z</time><name>PT8098</name></trkpt>
<trkpt lat="53.340343" lon="-1.936403"><ele>201</ele><time>2021-10-01T14:10:20Z</time><name>PT8099</name></trkpt>
<trkpt lat="53.340343" lon="-1.936431"><ele>201</ele><time>2021-10-01T14:10:21Z</time><name>PT8100</name></trkpt>
<trkpt lat="53.340345" lon="-1.936454"><ele>201</ele><time>2021-10-01T14:10:22Z</time><name>PT8101</name></trkpt>
<trkpt lat="53.340346" lon="-1.936474"><ele>200</ele><time>2021-10-01T14:10:23Z</time><name>PT8102</name></trkpt>
<trkpt lat="53.340345" lon="-1.936493"><ele>200</ele><time>2021-10-01T14:10:24Z</time><name>PT8103</name></trkpt>
<trkpt lat="53.340345" lon="-1.936511"><ele>200</ele><time>2021-10-01T14:10:25Z</time><name>PT8104</name></trkpt>
<trkpt lat="53.340344" lon="-1.936527"><ele>201</ele><time>2021-10-01T14:10:26Z</time><name>PT8105</name></trkpt>
<trkpt lat="53.340346" lon="-1.936544"><ele>201</ele><time>2021-10-01T14:10:27Z</time><name>PT8106</name></trkpt>
<trkpt lat="53.340348" lon="-1.936558"><ele>201</ele><time>2021-10-01T14:10:28Z</time><name>PT8107</name></trkpt>
<trkpt lat="53.340352" lon="-1.936578"><ele>201</ele><time>2021-10-01T14:10:29Z</time><name>PT8108</name></trkpt>
<trkpt lat="53.340357" lon="-1.936597"><ele>202</ele><time>2021-10-01T14:10:30Z</time><name>PT8109</name></trkpt>
<trkpt lat="53.340360" lon="-1.936617"><ele>203</ele><time>2021-10-01T14:10:31Z</time><name>PT8110</name></trkpt>
<trkpt lat="53.340367" lon="-1.936634"><ele>203</ele><time>2021-10-01T14:10:32Z</time><name>PT8111</name></trkpt>
<trkpt lat="53.340369" lon="-1.936655"><ele>204</ele><time>2021-10-01T14:10:33Z</time><name>PT8112</name></trkpt>
<trkpt lat="53.340372" lon="-1.936664"><ele>203</ele><time>2021-10-01T14:10:34Z</time><name>PT8113</name></trkpt>
<trkpt lat="53.340374" lon="-1.936678"><ele>203</ele><time>2021-10-01T14:10:35Z</time><name>PT8114</name></trkpt>
<trkpt lat="53.340375" lon="-1.936694"><ele>203</ele><time>2021-10-01T14:10:36Z</time><name>PT8115</name></trkpt>
<trkpt lat="53.340374" lon="-1.936708"><ele>203</ele><time>2021-10-01T14:10:37Z</time><name>PT8116</name></trkpt>
<trkpt lat="53.340374" lon="-1.936723"><ele>204</ele><time>2021-10-01T14:10:38Z</time><name>PT8117</name></trkpt>
<trkpt lat="53.340376" lon="-1.936739"><ele>204</ele><time>2021-10-01T14:10:39Z</time><name>PT8118</name></trkpt>
<trkpt lat="53.340383" lon="-1.936751"><ele>203</ele><time>2021-10-01T14:10:40Z</time><name>PT8119</name></trkpt>
<trkpt lat="53.340386" lon="-1.936769"><ele>205</ele><time>2021-10-01T14:10:41Z</time><name>PT8120</name></trkpt>
<trkpt lat="53.340388" lon="-1.936794"><ele>205</ele><time>2021-10-01T14:10:42Z</time><name>PT8121</name></trkpt>
<trkpt lat="53.340390" lon="-1.936814"><ele>205</ele><time>2021-10-01T14:10:43Z</time><name>PT8122</name></trkpt>
<trkpt lat="53.340397" lon="-1.936835"><ele>206</ele><time>2021-10-01T14:10:44Z</time><name>PT8123</name></trkpt>
<trkpt lat="53.340398" lon="-1.936861"><ele>207</ele><time>2021-10-01T14:10:45Z</time><name>PT8124</name></trkpt>
<trkpt lat="53.340401" lon="-1.936879"><ele>207</ele><time>2021-10-01T14:10:46Z</time><name>PT8125</name></trkpt>
<trkpt lat="53.340403" lon="-1.936898"><ele>207</ele><time>2021-10-01T14:10:47Z</time><name>PT8126</name></trkpt>
<trkpt lat="53.340405" lon="-1.936921"><ele>208</ele><time>2021-10-01T14:10:48Z</time><name>PT8127</name></trkpt>
<trkpt lat="53.340407" lon="-1.936947"><ele>208</ele><time>2021-10-01T14:10:49Z</time><name>PT8128</name></trkpt>
<trkpt lat="53.340414" lon="-1.936970"><ele>210</ele><time>2021-10-01T14:10:50Z</time><name>PT8129</name></trkpt>
<trkpt lat="53.340419" lon="-1.936987"><ele>210</ele><time>2021-10-01T14:10:51Z</time><name>PT8130</name></trkpt>
<trkpt lat="53.340421" lon="-1.937003"><ele>210</ele><time>2021-10-01T14:10:52Z</time><name>PT8131</name></trkpt>
<trkpt lat="53.340421" lon="-1.937020"><ele>211</ele><time>2021-10-01T14:10:53Z</time><name>PT8132</name></trkpt>
<trkpt lat="53.340421" lon="-1.937032"><ele>211</ele><time>2021-10-01T14:10:54Z</time><name>PT8133</name></trkpt>
<trkpt lat="53.340424" lon="-1.937049"><ele>211</ele><time>2021-10-01T14:10:55Z</time><name>PT8134</name></trkpt>
<trkpt lat="53.340428" lon="-1.937061"><ele>210</ele><time>2021-10-01T14:10:56Z</time><name>PT8135</name></trkpt>
<trkpt lat="53.340434" lon="-1.937075"><ele>210</ele><time>2021-10-01T14:10:57Z</time><name>PT8136</name></trkpt>
<trkpt lat="53.340435" lon="-1.937096"><ele>210</ele><time>2021-10-01T14:10:58Z</time><name>PT8137</name></trkpt>
<trkpt lat="53.340436" lon="-1.937113"><ele>209</ele><time>2021-10-01T14:10:59Z</time><name>PT8138</name></trkpt>
<trkpt lat="53.340442" lon="-1.937130"><ele>210</ele><time>2021-10-01T14:11:00Z</time><name>PT8139</name></trkpt>
<trkpt lat="53.340444" lon="-1.937145"><ele>209</ele><time>2021-10-01T14:11:01Z</time><name>PT8140</name></trkpt>
<trkpt lat="53.340446" lon="-1.937164"><ele>209</ele><time>2021-10-01T14:11:02Z</time><name>PT8141</name></trkpt>
<trkpt lat="53.340446" lon="-1.937193"><ele>209</ele><time>2021-10-01T14:11:03Z</time><name>PT8142</name></trkpt>
<trkpt lat="53.340447" lon="-1.937211"><ele>208</ele><time>2021-10-01T14:11:04Z</time><name>PT8143</name></trkpt>
<trkpt lat="53.340451" lon="-1.937231"><ele>207</ele><time>2021-10-01T14:11:05Z</time><name>PT8144</name></trkpt>
<trkpt lat="53.340456" lon="-1.937248"><ele>207</ele><time>2021-10-01T14:11:06Z</time><name>PT8145</name></trkpt>
<trkpt lat="53.340462" lon="-1.937263"><ele>207</ele><time>2021-10-01T14:11:07Z</time><name>PT8146</name></trkpt>
<trkpt lat="53.340467" lon="-1.937280"><ele>207</ele><time>2021-10-01T14:11:08Z</time><name>PT8147</name></trkpt>
<trkpt lat="53.340469" lon="-1.937294"><ele>207</ele><time>2021-10-01T14:11:09Z</time><name>PT8148</name></trkpt>
<trkpt lat="53.340471" lon="-1.937309"><ele>206</ele><time>2021-10-01T14:11:10Z</time><name>PT8149</name></trkpt>
<trkpt lat="53.340481" lon="-1.937328"><ele>207</ele><time>2021-10-01T14:11:11Z</time><name>PT8150</name></trkpt>
<trkpt lat="53.340487" lon="-1.937347"><ele>206</ele><time>2021-10-01T14:11:12Z</time><name>PT8151</name></trkpt>
<trkpt lat="53.340488" lon="-1.937372"><ele>206</ele><time>2021-10-01T14:11:13Z</time><name>PT8152</name></trkpt>
<trkpt lat="53.340490" lon="-1.937393"><ele>206</ele><time>2021-10-01T14:11:14Z</time><name>PT8153</name></trkpt>
<trkpt lat="53.340491" lon="-1.937423"><ele>206</ele><time>2021-10-01T14:11:15Z</time><name>PT8154</name></trkpt>
<trkpt lat="53.340493" lon="-1.937440"><ele>206</ele><time>2021-10-01T14:11:16Z</time><name>PT8155</name></trkpt>
<trkpt lat="53.340495" lon="-1.937458"><ele>206</ele><time>2021-10-01T14:11:17Z</time><name>PT8156</name></trkpt>
<trkpt lat="53.340498" lon="-1.937474"><ele>207</ele><time>2021-10-01T14:11:18Z</time><name>PT8157</name></trkpt>
<trkpt lat="53.340498" lon="-1.937493"><ele>207</ele><time>2021-10-01T14:11:19Z</time><name>PT8158</name></trkpt>
<trkpt lat="53.340499" lon="-1.937514"><ele>207</ele><time>2021-10-01T14:11:20Z</time><name>PT8159</name></trkpt>
<trkpt lat="53.340502" lon="-1.937537"><ele>207</ele><time>2021-10-01T14:11:21Z</time><name>PT8160</name></trkpt>
<trkpt lat="53.340505" lon="-1.937558"><ele>207</ele><time>2021-10-01T14:11:22Z</time><name>PT8161</name></trkpt>
<trkpt lat="53.340511" lon="-1.937577"><ele>207</ele><time>2021-10-01T14:11:23Z</time><name>PT8162</name></trkpt>
<trkpt lat="53.340518" lon="-1.937597"><ele>207</ele><time>2021-10-01T14:11:24Z</time><name>PT8163</name></trkpt>
<trkpt lat="53.340515" lon="-1.937616"><ele>207</ele><time>2021-10-01T14:11:25Z</time><name>PT8164</name></trkpt>
<trkpt lat="53.340518" lon="-1.937632"><ele>207</ele><time>2021-10-01T14:11:26Z</time><name>PT8165</name></trkpt>
<trkpt lat="53.340518" lon="-1.937653"><ele>207</ele><time>2021-10-01T14:11:27Z</time><name>PT8166</name></trkpt>
<trkpt lat="53.340521" lon="-1.937669"><ele>207</ele><time>2021-10-01T14:11:28Z</time><name>PT8167</name></trkpt>
<trkpt lat="53.340522" lon="-1.937687"><ele>207</ele><time>2021-10-01T14:11:29Z</time><name>PT8168</name></trkpt>
<trkpt lat="53.340520" lon="-1.937705"><ele>207</ele><time>2021-10-01T14:11:30Z</time><name>PT8169</name></trkpt>
<trkpt lat="53.340526" lon="-1.937722"><ele>207</ele><time>2021-10-01T14:11:31Z</time><name>PT8170</name></trkpt>
<trkpt lat="53.340532" lon="-1.937737"><ele>206</ele><time>2021-10-01T14:11:32Z</time><name>PT8171</name></trkpt>
<trkpt lat="53.340535" lon="-1.937754"><ele>206</ele><time>2021-10-01T14:11:33Z</time><name>PT8172</name></trkpt>
<trkpt lat="53.340536" lon="-1.937770"><ele>206</ele><time>2021-10-01T14:11:34Z</time><name>PT8173</name></trkpt>
<trkpt lat="53.340535" lon="-1.937785"><ele>206</ele><time>2021-10-01T14:11:35Z</time><name>PT8174</name></trkpt>
<trkpt lat="53.340536" lon="-1.937802"><ele>206</ele><time>2021-10-01T14:11:36Z</time><name>PT8175</name></trkpt>
<trkpt lat="53.340538" lon="-1.937820"><ele>206</ele><time>2021-10-01T14:11:37Z</time><name>PT8176</name></trkpt>
<trkpt lat="53.340541" lon="-1.937838"><ele>206</ele><time>2021-10-01T14:11:38Z</time><name>PT8177</name></trkpt>
<trkpt lat="53.340546" lon="-1.937853"><ele>206</ele><time>2021-10-01T14:11:39Z</time><name>PT8178</name></trkpt>
<trkpt lat="53.340547" lon="-1.937864"><ele>207</ele><time>2021-10-01T14:11:40Z</time><name>PT8179</name></trkpt>
<trkpt lat="53.340551" lon="-1.937879"><ele>207</ele><time>2021-10-01T14:11:41Z</time><name>PT8180</name></trkpt>
<trkpt lat="53.340554" lon="-1.937894"><ele>207</ele><time>2021-10-01T14:11:42Z</time><name>PT8181</name></trkpt>
<trkpt lat="53.340557" lon="-1.937913"><ele>208</ele><time>2021-10-01T14:11:43Z</time><name>PT8182</name></trkpt>
<trkpt lat="53.340557" lon="-1.937931"><ele>208</ele><time>2021-10-01T14:11:44Z</time><name>PT8183</name></trkpt>
<trkpt lat="53.340560" lon="-1.937951"><ele>208</ele><time>2021-10-01T14:11:45Z</time><name>PT8184</name></trkpt>
<trkpt lat="53.340563" lon="-1.937965"><ele>208</ele><time>2021-10-01T14:11:46Z</time><name>PT8185</name></trkpt>
<trkpt lat="53.340567" lon="-1.937984"><ele>207</ele><time>2021-10-01T14:11:47Z</time><name>PT8186</name></trkpt>
<trkpt lat="53.340571" lon="-1.938006"><ele>208</ele><time>2021-10-01T14:11:48Z</time><name>PT8187</name></trkpt>
<trkpt lat="53.340573" lon="-1.938022"><ele>208</ele><time>2021-10-01T14:11:49Z</time><name>PT8188</name></trkpt>
<trkpt lat="53.340577" lon="-1.938044"><ele>208</ele><time>2021-10-01T14:11:50Z</time><name>PT8189</name></trkpt>
<trkpt lat="53.340578" lon="-1.938065"><ele>207</ele><time>2021-10-01T14:11:51Z</time><name>PT8190</name></trkpt>
<trkpt lat="53.340582" lon="-1.938077"><ele>206</ele><time>2021-10-01T14:11:52Z</time><name>PT8191</name></trkpt>
<trkpt lat="53.340585" lon="-1.938098"><ele>206</ele><time>2021-10-01T14:11:53Z</time><name>PT8192</name></trkpt>
<trkpt lat="53.340586" lon="-1.938116"><ele>206</ele><time>2021-10-01T14:11:54Z</time><name>PT8193</name></trkpt>
<trkpt lat="53.340586" lon="-1.938132"><ele>206</ele><time>2021-10-01T14:11:55Z</time><name>PT8194</name></trkpt>
<trkpt lat="53.340590" lon="-1.938150"><ele>206</ele><time>2021-10-01T14:11:56Z</time><name>PT8195</name></trkpt>
<trkpt lat="53.340596" lon="-1.938166"><ele>206</ele><time>2021-10-01T14:11:57Z</time><name>PT8196</name></trkpt>
<trkpt lat="53.340599" lon="-1.938184"><ele>206</ele><time>2021-10-01T14:11:58Z</time><name>PT8197</name></trkpt>
<trkpt lat="53.340599" lon="-1.938204"><ele>206</ele><time>2021-10-01T14:11:59Z</time><name>PT8198</name></trkpt>
<trkpt lat="53.340601" lon="-1.938216"><ele>206</ele><time>2021-10-01T14:12:00Z</time><name>PT8199</name></trkpt>
<trkpt lat="53.340608" lon="-1.938229"><ele>206</ele><time>2021-10-01T14:12:01Z</time><name>PT8200</name></trkpt>
<trkpt lat="53.340610" lon="-1.938246"><ele>206</ele><time>2021-10-01T14:12:02Z</time><name>PT8201</name></trkpt>
<trkpt lat="53.340613" lon="-1.938256"><ele>207</ele><time>2021-10-01T14:12:03Z</time><name>PT8202</name></trkpt>
<trkpt lat="53.340615" lon="-1.938269"><ele>207</ele><time>2021-10-01T14:12:04Z</time><name>PT8203</name></trkpt>
<trkpt lat="53.340617" lon="-1.938288"><ele>207</ele><time>2021-10-01T14:12:05Z</time><name>PT8204</name></trkpt>
<trkpt lat="53.340618" lon="-1.938308"><ele>207</ele><time>2021-10-01T14:12:06Z</time><name>PT8205</name></trkpt>
<trkpt lat="53.340618" lon="-1.938332"><ele>207</ele><time>2021-10-01T14:12:07Z</time><name>PT8206</name></trkpt>
<trkpt lat="53.340618" lon="-1.938347"><ele>206</ele><time>2021-10-01T14:12:08Z</time><name>PT8207</name></trkpt>
<trkpt lat="53.340622" lon="-1.938362"><ele>206</ele><time>2021-10-01T14:12:09Z</time><name>PT8208</name></trkpt>
<trkpt lat="53.340627" lon="-1.938374"><ele>206</ele><time>2021-10-01T14:12:10Z</time><name>PT8209</name></trkpt>
<trkpt lat="53.340633" lon="-1.938389"><ele>206</ele><time>2021-10-01T14:12:11Z</time><name>PT8210</name></trkpt>
<trkpt lat="53.340633" lon="-1.938414"><ele>206</ele><time>2021-10-01T14:12:12Z</time><name>PT8211</name></trkpt>
<trkpt lat="53.340633" lon="-1.938431"><ele>206</ele><time>2021-10-01T14:12:13Z</time><name>PT8212</name></trkpt>
<trkpt lat="53.340639" lon="-1.938454"><ele>207</ele><time>2021-10-01T14:12:14Z</time><name>PT8213</name></trkpt>
<trkpt lat="53.340644" lon="-1.938476"><ele>206</ele><time>2021-10-01T14:12:15Z</time><name>PT8214</name></trkpt>
<trkpt lat="53.340653" lon="-1.938546"><ele>207</ele><time>2021-10-01T14:12:18Z</time><name>PT8215</name></trkpt>
<trkpt lat="53.340666" lon="-1.938631"><ele>209</ele><time>2021-10-01T14:12:22Z</time><name>PT8216</name></trkpt>
<trkpt lat="53.340680" lon="-1.938686"><ele>208</ele><time>2021-10-01T14:12:25Z</time><name>PT8217</name></trkpt>
<trkpt lat="53.340703" lon="-1.938749"><ele>210</ele><time>2021-10-01T14:12:29Z</time><name>PT8218</name></trkpt>
<trkpt lat="53.340722" lon="-1.938793"><ele>210</ele><time>2021-10-01T14:12:32Z</time><name>PT8219</name></trkpt>
<trkpt lat="53.340740" lon="-1.938836"><ele>212</ele><time>2021-10-01T14:12:35Z</time><name>PT8220</name></trkpt>
<trkpt lat="53.340752" lon="-1.938908"><ele>211</ele><time>2021-10-01T14:12:39Z</time><name>PT8221</name></trkpt>
<trkpt lat="53.340759" lon="-1.938953"><ele>210</ele><time>2021-10-01T14:12:42Z</time><name>PT8222</name></trkpt>
<trkpt lat="53.340775" lon="-1.939018"><ele>210</ele><time>2021-10-01T14:12:46Z</time><name>PT8223</name></trkpt>
<trkpt lat="53.340796" lon="-1.939091"><ele>212</ele><time>2021-10-01T14:12:50Z</time><name>PT8224</name></trkpt>
<trkpt lat="53.340814" lon="-1.939127"><ele>213</ele><time>2021-10-01T14:12:53Z</time><name>PT8225</name></trkpt>
<trkpt lat="53.340817" lon="-1.939185"><ele>212</ele><time>2021-10-01T14:12:56Z</time><name>PT8226</name></trkpt>
<trkpt lat="53.340824" lon="-1.939240"><ele>213</ele><time>2021-10-01T14:12:59Z</time><name>PT8227</name></trkpt>
<trkpt lat="53.340832" lon="-1.939316"><ele>211</ele><time>2021-10-01T14:13:03Z</time><name>PT8228</name></trkpt>
<trkpt lat="53.340846" lon="-1.939390"><ele>211</ele><time>2021-10-01T14:13:07Z</time><name>PT8229</name></trkpt>
<trkpt lat="53.340861" lon="-1.939463"><ele>212</ele><time>2021-10-01T14:13:11Z</time><name>PT8230</name></trkpt>
<trkpt lat="53.340871" lon="-1.939537"><ele>212</ele><time>2021-10-01T14:13:15Z</time><name>PT8231</name></trkpt>
<trkpt lat="53.340878" lon="-1.939584"><ele>211</ele><time>2021-10-01T14:13:18Z</time><name>PT8232</name></trkpt>
<trkpt lat="53.340895" lon="-1.939651"><ele>212</ele><time>2021-10-01T14:13:22Z</time><name>PT8233</name></trkpt>
<trkpt lat="53.340893" lon="-1.939700"><ele>212</ele><time>2021-10-01T14:13:25Z</time><name>PT8234</name></trkpt>
<trkpt lat="53.340883" lon="-1.939775"><ele>214</ele><time>2021-10-01T14:13:29Z</time><name>PT8235</name></trkpt>
<trkpt lat="53.340863" lon="-1.939821"><ele>215</ele><time>2021-10-01T14:13:32Z</time><name>PT8236</name></trkpt>
<trkpt lat="53.340831" lon="-1.939859"><ele>215</ele><time>2021-10-01T14:13:36Z</time><name>PT8237</name></trkpt>
<trkpt lat="53.340799" lon="-1.939885"><ele>216</ele><time>2021-10-01T14:13:39Z</time><name>PT8238</name></trkpt>
<trkpt lat="53.340788" lon="-1.939896"><ele>216</ele><time>2021-10-01T14:13:40Z</time><name>PT8239</name></trkpt>
<trkpt lat="53.340780" lon="-1.939900"><ele>215</ele><time>2021-10-01T14:13:41Z</time><name>PT8240</name></trkpt>
<trkpt lat="53.340770" lon="-1.939903"><ele>215</ele><time>2021-10-01T14:13:42Z</time><name>PT8241</name></trkpt>
<trkpt lat="53.340765" lon="-1.939905"><ele>214</ele><time>2021-10-01T14:13:43Z</time><name>PT8242</name></trkpt>
<trkpt lat="53.340755" lon="-1.939910"><ele>213</ele><time>2021-10-01T14:13:44Z</time><name>PT8243</name></trkpt>
<trkpt lat="53.340745" lon="-1.939917"><ele>212</ele><time>2021-10-01T14:13:45Z</time><name>PT8244</name></trkpt>
<trkpt lat="53.340737" lon="-1.939920"><ele>212</ele><time>2021-10-01T14:13:46Z</time><name>PT8245</name></trkpt>
<trkpt lat="53.340728" lon="-1.939923"><ele>211</ele><time>2021-10-01T14:13:47Z</time><name>PT8246</name></trkpt>
<trkpt lat="53.340721" lon="-1.939926"><ele>210</ele><time>2021-10-01T14:13:48Z</time><name>PT8247</name></trkpt>
<trkpt lat="53.340716" lon="-1.939932"><ele>210</ele><time>2021-10-01T14:13:49Z</time><name>PT8248</name></trkpt>
<trkpt lat="53.340708" lon="-1.939942"><ele>210</ele><time>2021-10-01T14:13:50Z</time><name>PT8249</name></trkpt>
<trkpt lat="53.340699" lon="-1.939941"><ele>210</ele><time>2021-10-01T14:13:51Z</time><name>PT8250</name></trkpt>
<trkpt lat="53.340692" lon="-1.939939"><ele>210</ele><time>2021-10-01T14:13:52Z</time><name>PT8251</name></trkpt>
<trkpt lat="53.340683" lon="-1.939942"><ele>210</ele><time>2021-10-01T14:13:53Z</time><name>PT8252</name></trkpt>
<trkpt lat="53.340673" lon="-1.939944"><ele>210</ele><time>2021-10-01T14:13:54Z</time><name>PT8253</name></trkpt>
<trkpt lat="53.340667" lon="-1.939950"><ele>210</ele><time>2021-10-01T14:13:55Z</time><name>PT8254</name></trkpt>
<trkpt lat="53.340663" lon="-1.939952"><ele>209</ele><time>2021-10-01T14:13:56Z</time><name>PT8255</name></trkpt>
<trkpt lat="53.340664" lon="-1.939951"><ele>209</ele><time>2021-10-01T14:13:57Z</time><name>PT8256</name></trkpt>
<trkpt lat="53.340650" lon="-1.939948"><ele>210</ele><time>2021-10-01T14:14:12Z</time><name>PT8257</name></trkpt>
<trkpt lat="53.340641" lon="-1.939951"><ele>211</ele><time>2021-10-01T14:14:13Z</time><name>PT8258</name></trkpt>
<trkpt lat="53.340630" lon="-1.939959"><ele>212</ele><time>2021-10-01T14:14:14Z</time><name>PT8259</name></trkpt>
<trkpt lat="53.340615" lon="-1.939972"><ele>214</ele><time>2021-10-01T14:14:15Z</time><name>PT8260</name></trkpt>
<trkpt lat="53.340607" lon="-1.939990"><ele>215</ele><time>2021-10-01T14:14:16Z</time><name>PT8261</name></trkpt>
<trkpt lat="53.340599" lon="-1.940007"><ele>217</ele><time>2021-10-01T14:14:17Z</time><name>PT8262</name></trkpt>
<trkpt lat="53.340590" lon="-1.940023"><ele>219</ele><time>2021-10-01T14:14:18Z</time><name>PT8263</name></trkpt>
<trkpt lat="53.340583" lon="-1.940040"><ele>220</ele><time>2021-10-01T14:14:19Z</time><name>PT8264</name></trkpt>
<trkpt lat="53.340580" lon="-1.940070"><ele>221</ele><time>2021-10-01T14:14:20Z</time><name>PT8265</name></trkpt>
<trkpt lat="53.340585" lon="-1.940096"><ele>221</ele><time>2021-10-01T14:14:21Z</time><name>PT8266</name></trkpt>
<trkpt lat="53.340595" lon="-1.940124"><ele>222</ele><time>2021-10-01T14:14:22Z</time><name>PT8267</name></trkpt>
<trkpt lat="53.340599" lon="-1.940155"><ele>221</ele><time>2021-10-01T14:14:23Z</time><name>PT8268</name></trkpt>
<trkpt lat="53.340600" lon="-1.940178"><ele>222</ele><time>2021-10-01T14:14:24Z</time><name>PT8269</name></trkpt>
<trkpt lat="53.340600" lon="-1.940198"><ele>222</ele><time>2021-10-01T14:14:25Z</time><name>PT8270</name></trkpt>
<trkpt lat="53.340603" lon="-1.940223"><ele>221</ele><time>2021-10-01T14:14:26Z</time><name>PT8271</name></trkpt>
<trkpt lat="53.340607" lon="-1.940244"><ele>220</ele><time>2021-10-01T14:14:27Z</time><name>PT8272</name></trkpt>
<trkpt lat="53.340609" lon="-1.940263"><ele>220</ele><time>2021-10-01T14:14:28Z</time><name>PT8273</name></trkpt>
<trkpt lat="53.340607" lon="-1.940284"><ele>219</ele><time>2021-10-01T14:14:29Z</time><name>PT8274</name></trkpt>
<trkpt lat="53.340610" lon="-1.940306"><ele>219</ele><time>2021-10-01T14:14:30Z</time><name>PT8275</name></trkpt>
<trkpt lat="53.340615" lon="-1.940325"><ele>219</ele><time>2021-10-01T14:14:31Z</time><name>PT8276</name></trkpt>
<trkpt lat="53.340616" lon="-1.940344"><ele>218</ele><time>2021-10-01T14:14:32Z</time><name>PT8277</name></trkpt>
<trkpt lat="53.340617" lon="-1.940361"><ele>219</ele><time>2021-10-01T14:14:33Z</time><name>PT8278</name></trkpt>
<trkpt lat="53.340616" lon="-1.940384"><ele>220</ele><time>2021-10-01T14:14:34Z</time><name>PT8279</name></trkpt>
<trkpt lat="53.340615" lon="-1.940401"><ele>219</ele><time>2021-10-01T14:14:35Z</time><name>PT8280</name></trkpt>
<trkpt lat="53.340613" lon="-1.940424"><ele>220</ele><time>2021-10-01T14:14:36Z</time><name>PT8281</name></trkpt>
<trkpt lat="53.340608" lon="-1.940446"><ele>220</ele><time>2021-10-01T14:14:37Z</time><name>PT8282</name></trkpt>
<trkpt lat="53.340607" lon="-1.940464"><ele>220</ele><time>2021-10-01T14:14:38Z</time><name>PT8283</name></trkpt>
<trkpt lat="53.340606" lon="-1.940482"><ele>220</ele><time>2021-10-01T14:14:39Z</time><name>PT8284</name></trkpt>
<trkpt lat="53.340607" lon="-1.940504"><ele>219</ele><time>2021-10-01T14:14:40Z</time><name>PT8285</name></trkpt>
<trkpt lat="53.340606" lon="-1.940531"><ele>218</ele><time>2021-10-01T14:14:41Z</time><name>PT8286</name></trkpt>
<trkpt lat="53.340605" lon="-1.940556"><ele>218</ele><time>2021-10-01T14:14:42Z</time><name>PT8287</name></trkpt>
<trkpt lat="53.340602" lon="-1.940578"><ele>218</ele><time>2021-10-01T14:14:43Z</time><name>PT8288</name></trkpt>
<trkpt lat="53.340603" lon="-1.940594"><ele>217</ele><time>2021-10-01T14:14:44Z</time><name>PT8289</name></trkpt>
<trkpt lat="53.340604" lon="-1.940611"><ele>216</ele><time>2021-10-01T14:14:45Z</time><name>PT8290</name></trkpt>
<trkpt lat="53.340605" lon="-1.940633"><ele>216</ele><time>2021-10-01T14:14:46Z</time><name>PT8291</name></trkpt>
<trkpt lat="53.340600" lon="-1.940655"><ele>216</ele><time>2021-10-01T14:14:47Z</time><name>PT8292</name></trkpt>
<trkpt lat="53.340599" lon="-1.940670"><ele>216</ele><time>2021-10-01T14:14:48Z</time><name>PT8293</name></trkpt>
<trkpt lat="53.340598" lon="-1.940690"><ele>216</ele><time>2021-10-01T14:14:49Z</time><name>PT8294</name></trkpt>
<trkpt lat="53.340596" lon="-1.940713"><ele>216</ele><time>2021-10-01T14:14:50Z</time><name>PT8295</name></trkpt>
<trkpt lat="53.340594" lon="-1.940732"><ele>217</ele><time>2021-10-01T14:14:51Z</time><name>PT8296</name></trkpt>
<trkpt lat="53.340590" lon="-1.940754"><ele>216</ele><time>2021-10-01T14:14:52Z</time><name>PT8297</name></trkpt>
<trkpt lat="53.340590" lon="-1.940776"><ele>217</ele><time>2021-10-01T14:14:53Z</time><name>PT8298</name></trkpt>
<trkpt lat="53.340588" lon="-1.940794"><ele>217</ele><time>2021-10-01T14:14:54Z</time><name>PT8299</name></trkpt>
<trkpt lat="53.340584" lon="-1.940813"><ele>217</ele><time>2021-10-01T14:14:55Z</time><name>PT8300</name></trkpt>
<trkpt lat="53.340578" lon="-1.940832"><ele>217</ele><time>2021-10-01T14:14:56Z</time><name>PT8301</name></trkpt>
<trkpt lat="53.340573" lon="-1.940849"><ele>217</ele><time>2021-10-01T14:14:57Z</time><name>PT8302</name></trkpt>
<trkpt lat="53.340570" lon="-1.940872"><ele>217</ele><time>2021-10-01T14:14:58Z</time><name>PT8303</name></trkpt>
<trkpt lat="53.340568" lon="-1.940897"><ele>217</ele><time>2021-10-01T14:14:59Z</time><name>PT8304</name></trkpt>
<trkpt lat="53.340566" lon="-1.940910"><ele>217</ele><time>2021-10-01T14:15:00Z</time><name>PT8305</name></trkpt>
<trkpt lat="53.340567" lon="-1.940924"><ele>218</ele><time>2021-10-01T14:15:01Z</time><name>PT8306</name></trkpt>
<trkpt lat="53.340569" lon="-1.940945"><ele>217</ele><time>2021-10-01T14:15:02Z</time><name>PT8307</name></trkpt>
<trkpt lat="53.340569" lon="-1.940961"><ele>217</ele><time>2021-10-01T14:15:03Z</time><name>PT8308</name></trkpt>
<trkpt lat="53.340566" lon="-1.940983"><ele>217</ele><time>2021-10-01T14:15:04Z</time><name>PT8309</name></trkpt>
<trkpt lat="53.340562" lon="-1.941001"><ele>217</ele><time>2021-10-01T14:15:05Z</time><name>PT8310</name></trkpt>
<trkpt lat="53.340559" lon="-1.941013"><ele>217</ele><time>2021-10-01T14:15:06Z</time><name>PT8311</name></trkpt>
<trkpt lat="53.340557" lon="-1.941031"><ele>217</ele><time>2021-10-01T14:15:07Z</time><name>PT8312</name></trkpt>
<trkpt lat="53.340555" lon="-1.941052"><ele>217</ele><time>2021-10-01T14:15:08Z</time><name>PT8313</name></trkpt>
<trkpt lat="53.340552" lon="-1.941077"><ele>216</ele><time>2021-10-01T14:15:09Z</time><name>PT8314</name></trkpt>
<trkpt lat="53.340550" lon="-1.941100"><ele>216</ele><time>2021-10-01T14:15:10Z</time><name>PT8315</name></trkpt>
<trkpt lat="53.340548" lon="-1.941118"><ele>216</ele><time>2021-10-01T14:15:11Z</time><name>PT8316</name></trkpt>
<trkpt lat="53.340553" lon="-1.941133"><ele>218</ele><time>2021-10-01T14:15:12Z</time><name>PT8317</name></trkpt>
<trkpt lat="53.340553" lon="-1.941152"><ele>217</ele><time>2021-10-01T14:15:13Z</time><name>PT8318</name></trkpt>
<trkpt lat="53.340550" lon="-1.941169"><ele>217</ele><time>2021-10-01T14:15:14Z</time><name>PT8319</name></trkpt>
<trkpt lat="53.340546" lon="-1.941186"><ele>216</ele><time>2021-10-01T14:15:15Z</time><name>PT8320</name></trkpt>
<trkpt lat="53.340542" lon="-1.941201"><ele>216</ele><time>2021-10-01T14:15:16Z</time><name>PT8321</name></trkpt>
<trkpt lat="53.340538" lon="-1.941218"><ele>216</ele><time>2021-10-01T14:15:17Z</time><name>PT8322</name></trkpt>
<trkpt lat="53.340535" lon="-1.941240"><ele>215</ele><time>2021-10-01T14:15:18Z</time><name>PT8323</name></trkpt>
<trkpt lat="53.340533" lon="-1.941260"><ele>215</ele><time>2021-10-01T14:15:19Z</time><name>PT8324</name></trkpt>
<trkpt lat="53.340530" lon="-1.941275"><ele>215</ele><time>2021-10-01T14:15:20Z</time><name>PT8325</name></trkpt>
<trkpt lat="53.340530" lon="-1.941294"><ele>216</ele><time>2021-10-01T14:15:21Z</time><name>PT8326</name></trkpt>
<trkpt lat="53.340528" lon="-1.941307"><ele>216</ele><time>2021-10-01T14:15:22Z</time><name>PT8327</name></trkpt>
<trkpt lat="53.340528" lon="-1.941318"><ele>216</ele><time>2021-10-01T14:15:23Z</time><name>PT8328</name></trkpt>
<trkpt lat="53.340526" lon="-1.941327"><ele>217</ele><time>2021-10-01T14:15:24Z</time><name>PT8329</name></trkpt>
<trkpt lat="53.340522" lon="-1.941344"><ele>216</ele><time>2021-10-01T14:15:25Z</time><name>PT8330</name></trkpt>
<trkpt lat="53.340520" lon="-1.941363"><ele>217</ele><time>2021-10-01T14:15:26Z</time><name>PT8331</name></trkpt>
<trkpt lat="53.340518" lon="-1.941383"><ele>216</ele><time>2021-10-01T14:15:27Z</time><name>PT8332</name></trkpt>
<trkpt lat="53.340516" lon="-1.941398"><ele>216</ele><time>2021-10-01T14:15:28Z</time><name>PT8333</name></trkpt>
<trkpt lat="53.340513" lon="-1.941415"><ele>216</ele><time>2021-10-01T14:15:29Z</time><name>PT8334</name></trkpt>
<trkpt lat="53.340512" lon="-1.941430"><ele>216</ele><time>2021-10-01T14:15:30Z</time><name>PT8335</name></trkpt>
<trkpt lat="53.340510" lon="-1.941448"><ele>215</ele><time>2021-10-01T14:15:31Z</time><name>PT8336</name></trkpt>
<trkpt lat="53.340505" lon="-1.941463"><ele>215</ele><time>2021-10-01T14:15:32Z</time><name>PT8337</name></trkpt>
<trkpt lat="53.340503" lon="-1.941482"><ele>215</ele><time>2021-10-01T14:15:33Z</time><name>PT8338</name></trkpt>
<trkpt lat="53.340500" lon="-1.941499"><ele>214</ele><time>2021-10-01T14:15:34Z</time><name>PT8339</name></trkpt>
<trkpt lat="53.340495" lon="-1.941518"><ele>215</ele><time>2021-10-01T14:15:35Z</time><name>PT8340</name></trkpt>
<trkpt lat="53.340492" lon="-1.941535"><ele>215</ele><time>2021-10-01T14:15:36Z</time><name>PT8341</name></trkpt>
<trkpt lat="53.340487" lon="-1.941552"><ele>215</ele><time>2021-10-01T14:15:37Z</time><name>PT8342</name></trkpt>
<trkpt lat="53.340480" lon="-1.941574"><ele>214</ele><time>2021-10-01T14:15:38Z</time><name>PT8343</name></trkpt>
<trkpt lat="53.340478" lon="-1.941597"><ele>214</ele><time>2021-10-01T14:15:39Z</time><name>PT8344</name></trkpt>
<trkpt lat="53.340473" lon="-1.941611"><ele>213</ele><time>2021-10-01T14:15:40Z</time><name>PT8345</name></trkpt>
<trkpt lat="53.340466" lon="-1.941623"><ele>213</ele><time>2021-10-01T14:15:41Z</time><name>PT8346</name></trkpt>
<trkpt lat="53.340462" lon="-1.941637"><ele>213</ele><time>2021-10-01T14:15:42Z</time><name>PT8347</name></trkpt>
<trkpt lat="53.340458" lon="-1.941651"><ele>212</ele><time>2021-10-01T14:15:43Z</time><name>PT8348</name></trkpt>
<trkpt lat="53.340459" lon="-1.941664"><ele>212</ele><time>2021-10-01T14:15:44Z</time><name>PT8349</name></trkpt>
<trkpt lat="53.340458" lon="-1.941678"><ele>212</ele><time>2021-10-01T14:15:45Z</time><name>PT8350</name></trkpt>
<trkpt lat="53.340459" lon="-1.941695"><ele>212</ele><time>2021-10-01T14:15:46Z</time><name>PT8351</name></trkpt>
<trkpt lat="53.340459" lon="-1.941708"><ele>212</ele><time>2021-10-01T14:15:47Z</time><name>PT8352</name></trkpt>
<trkpt lat="53.340453" lon="-1.941724"><ele>212</ele><time>2021-10-01T14:15:48Z</time><name>PT8353</name></trkpt>
<trkpt lat="53.340444" lon="-1.941737"><ele>211</ele><time>2021-10-01T14:15:49Z</time><name>PT8354</name></trkpt>
<trkpt lat="53.340436" lon="-1.941748"><ele>211</ele><time>2021-10-01T14:15:50Z</time><name>PT8355</name></trkpt>
<trkpt lat="53.340429" lon="-1.941770"><ele>211</ele><time>2021-10-01T14:15:51Z</time><name>PT8356</name></trkpt>
<trkpt lat="53.340426" lon="-1.941786"><ele>211</ele><time>2021-10-01T14:15:52Z</time><name>PT8357</name></trkpt>
<trkpt lat="53.340428" lon="-1.941800"><ele>210</ele><time>2021-10-01T14:15:53Z</time><name>PT8358</name></trkpt>
<trkpt lat="53.340433" lon="-1.941814"><ele>210</ele><time>2021-10-01T14:15:54Z</time><name>PT8359</name></trkpt>
<trkpt lat="53.340437" lon="-1.941832"><ele>210</ele><time>2021-10-01T14:15:55Z</time><name>PT8360</name></trkpt>
<trkpt lat="53.340441" lon="-1.941849"><ele>210</ele><time>2021-10-01T14:15:56Z</time><name>PT8361</name></trkpt>
<trkpt lat="53.340447" lon="-1.941862"><ele>210</ele><time>2021-10-01T14:15:57Z</time><name>PT8362</name></trkpt>
<trkpt lat="53.340450" lon="-1.941871"><ele>209</ele><time>2021-10-01T14:15:58Z</time><name>PT8363</name></trkpt>
<trkpt lat="53.340451" lon="-1.941877"><ele>208</ele><time>2021-10-01T14:15:59Z</time><name>PT8364</name></trkpt>
<trkpt lat="53.340457" lon="-1.941889"><ele>207</ele><time>2021-10-01T14:16:00Z</time><name>PT8365</name></trkpt>
<trkpt lat="53.340461" lon="-1.941901"><ele>208</ele><time>2021-10-01T14:16:01Z</time><name>PT8366</name></trkpt>
<trkpt lat="53.340462" lon="-1.941911"><ele>208</ele><time>2021-10-01T14:16:02Z</time><name>PT8367</name></trkpt>
<trkpt lat="53.340459" lon="-1.941926"><ele>207</ele><time>2021-10-01T14:16:03Z</time><name>PT8368</name></trkpt>
<trkpt lat="53.340460" lon="-1.941937"><ele>207</ele><time>2021-10-01T14:16:04Z</time><name>PT8369</name></trkpt>
<trkpt lat="53.340460" lon="-1.941950"><ele>207</ele><time>2021-10-01T14:16:05Z</time><name>PT8370</name></trkpt>
<trkpt lat="53.340463" lon="-1.941960"><ele>206</ele><time>2021-10-01T14:16:06Z</time><name>PT8371</name></trkpt>
<trkpt lat="53.340463" lon="-1.941964"><ele>206</ele><time>2021-10-01T14:16:07Z</time><name>PT8372</name></trkpt>
<trkpt lat="53.340467" lon="-1.941974"><ele>206</ele><time>2021-10-01T14:16:08Z</time><name>PT8373</name></trkpt>
<trkpt lat="53.340467" lon="-1.941998"><ele>205</ele><time>2021-10-01T14:16:09Z</time><name>PT8374</name></trkpt>
<trkpt lat="53.340471" lon="-1.942012"><ele>206</ele><time>2021-10-01T14:16:10Z</time><name>PT8375</name></trkpt>
<trkpt lat="53.340476" lon="-1.942021"><ele>206</ele><time>2021-10-01T14:16:11Z</time><name>PT8376</name></trkpt>
<trkpt lat="53.340481" lon="-1.942028"><ele>205</ele><time>2021-10-01T14:16:12Z</time><name>PT8377</name></trkpt>
<trkpt lat="53.340487" lon="-1.942037"><ele>205</ele><time>2021-10-01T14:16:13Z</time><name>PT8378</name></trkpt>
<trkpt lat="53.340496" lon="-1.942042"><ele>206</ele><time>2021-10-01T14:16:14Z</time><name>PT8379</name></trkpt>
<trkpt lat="53.340498" lon="-1.942041"><ele>208</ele><time>2021-10-01T14:16:15Z</time><name>PT8380</name></trkpt>
<trkpt lat="53.340496" lon="-1.942046"><ele>208</ele><time>2021-10-01T14:16:16Z</time><name>PT8381</name></trkpt>
<trkpt lat="53.340498" lon="-1.942051"><ele>209</ele><time>2021-10-01T14:16:17Z</time><name>PT8382</name></trkpt>
<trkpt lat="53.340499" lon="-1.942056"><ele>209</ele><time>2021-10-01T14:16:18Z</time><name>PT8383</name></trkpt></trkseg></trk></gpx>